<?xml version="1.0" encoding="UTF-8" standalone="no" ?>
<gpx xmlns="http://www.topografix.com/GPX/1/1" xmlns:xsi="http://www.w3.org/2001/XMLSchema-instance" xsi:schemaLocation="http://www.topografix.com/GPX/1/1 http://www.topografix.com/GPX/1/1/gpx.xsd" version="1.1" creator="VisuGPX - https://www.visugpx.com">
  <metadata>
    <name>GR20 Sud  5 Crocci/Bavella</name>
  </metadata>
  <trk>
    <name><![CDATA[2019-09-09 15:52:46]]></name>
    <trkseg>
      <trkpt lat="41.79497" lon="9.22936">
        <ele>1204.3</ele>
        <time>2019-09-09T04:53:48Z</time>
      </trkpt>
      <trkpt lat="41.79488" lon="9.22924">
        <ele>1198.51</ele>
        <time>2019-09-09T04:54:17Z</time>
      </trkpt>
      <trkpt lat="41.79488" lon="9.22923">
        <ele>1195.5</ele>
        <time>2019-09-09T04:54:41Z</time>
      </trkpt>
      <trkpt lat="41.79488" lon="9.22924">
        <ele>1195.44</ele>
        <time>2019-09-09T04:55:04Z</time>
      </trkpt>
      <trkpt lat="41.79489" lon="9.22927">
        <ele>1196.9</ele>
        <time>2019-09-09T04:55:27Z</time>
      </trkpt>
      <trkpt lat="41.79485" lon="9.22933">
        <ele>1198.23</ele>
        <time>2019-09-09T04:55:32Z</time>
      </trkpt>
      <trkpt lat="41.79475" lon="9.22932">
        <ele>1197.48</ele>
        <time>2019-09-09T04:55:46Z</time>
      </trkpt>
      <trkpt lat="41.7947" lon="9.22935">
        <ele>1192.51</ele>
        <time>2019-09-09T04:56:18Z</time>
      </trkpt>
      <trkpt lat="41.79469" lon="9.2293">
        <ele>1191.69</ele>
        <time>2019-09-09T04:56:33Z</time>
      </trkpt>
      <trkpt lat="41.79469" lon="9.22922">
        <ele>1191.16</ele>
        <time>2019-09-09T04:56:38Z</time>
      </trkpt>
      <trkpt lat="41.79469" lon="9.22919">
        <ele>1191.11</ele>
        <time>2019-09-09T04:56:40Z</time>
      </trkpt>
      <trkpt lat="41.7947" lon="9.22917">
        <ele>1191.28</ele>
        <time>2019-09-09T04:56:42Z</time>
      </trkpt>
      <trkpt lat="41.7947" lon="9.22904">
        <ele>1192.01</ele>
        <time>2019-09-09T04:56:51Z</time>
      </trkpt>
      <trkpt lat="41.79475" lon="9.22888">
        <ele>1192.92</ele>
        <time>2019-09-09T04:57:05Z</time>
      </trkpt>
      <trkpt lat="41.79488" lon="9.22883">
        <ele>1195.02</ele>
        <time>2019-09-09T04:57:14Z</time>
      </trkpt>
      <trkpt lat="41.79507" lon="9.22856">
        <ele>1197.69</ele>
        <time>2019-09-09T04:57:36Z</time>
      </trkpt>
      <trkpt lat="41.7952" lon="9.22838">
        <ele>1198.73</ele>
        <time>2019-09-09T04:57:53Z</time>
      </trkpt>
      <trkpt lat="41.79519" lon="9.22815">
        <ele>1198.85</ele>
        <time>2019-09-09T04:58:07Z</time>
      </trkpt>
      <trkpt lat="41.79519" lon="9.22804">
        <ele>1199.16</ele>
        <time>2019-09-09T04:58:14Z</time>
      </trkpt>
      <trkpt lat="41.79522" lon="9.22789">
        <ele>1197.96</ele>
        <time>2019-09-09T04:58:24Z</time>
      </trkpt>
      <trkpt lat="41.79532" lon="9.22771">
        <ele>1196.97</ele>
        <time>2019-09-09T04:58:40Z</time>
      </trkpt>
      <trkpt lat="41.79538" lon="9.22754">
        <ele>1196.64</ele>
        <time>2019-09-09T04:58:54Z</time>
      </trkpt>
      <trkpt lat="41.79542" lon="9.22753">
        <ele>1199.96</ele>
        <time>2019-09-09T04:59:13Z</time>
      </trkpt>
      <trkpt lat="41.79547" lon="9.22745">
        <ele>1201.11</ele>
        <time>2019-09-09T04:59:28Z</time>
      </trkpt>
      <trkpt lat="41.79554" lon="9.22734">
        <ele>1203.63</ele>
        <time>2019-09-09T04:59:46Z</time>
      </trkpt>
      <trkpt lat="41.79566" lon="9.22711">
        <ele>1201.28</ele>
        <time>2019-09-09T05:00:03Z</time>
      </trkpt>
      <trkpt lat="41.79574" lon="9.22695">
        <ele>1200.49</ele>
        <time>2019-09-09T05:00:19Z</time>
      </trkpt>
      <trkpt lat="41.79577" lon="9.22684">
        <ele>1201.72</ele>
        <time>2019-09-09T05:00:35Z</time>
      </trkpt>
      <trkpt lat="41.79583" lon="9.22668">
        <ele>1203.94</ele>
        <time>2019-09-09T05:00:52Z</time>
      </trkpt>
      <trkpt lat="41.79586" lon="9.22662">
        <ele>1205.61</ele>
        <time>2019-09-09T05:00:57Z</time>
      </trkpt>
      <trkpt lat="41.79589" lon="9.22635">
        <ele>1210.62</ele>
        <time>2019-09-09T05:01:14Z</time>
      </trkpt>
      <trkpt lat="41.79589" lon="9.22611">
        <ele>1211.11</ele>
        <time>2019-09-09T05:01:28Z</time>
      </trkpt>
      <trkpt lat="41.79589" lon="9.22583">
        <ele>1212.35</ele>
        <time>2019-09-09T05:01:46Z</time>
      </trkpt>
      <trkpt lat="41.79591" lon="9.22572">
        <ele>1213.47</ele>
        <time>2019-09-09T05:01:53Z</time>
      </trkpt>
      <trkpt lat="41.79592" lon="9.22562">
        <ele>1214.11</ele>
        <time>2019-09-09T05:02:00Z</time>
      </trkpt>
      <trkpt lat="41.7959" lon="9.22549">
        <ele>1215.04</ele>
        <time>2019-09-09T05:02:09Z</time>
      </trkpt>
      <trkpt lat="41.7959" lon="9.22543">
        <ele>1215.46</ele>
        <time>2019-09-09T05:02:13Z</time>
      </trkpt>
      <trkpt lat="41.79591" lon="9.22537">
        <ele>1215.37</ele>
        <time>2019-09-09T05:02:17Z</time>
      </trkpt>
      <trkpt lat="41.79589" lon="9.22499">
        <ele>1218.85</ele>
        <time>2019-09-09T05:02:40Z</time>
      </trkpt>
      <trkpt lat="41.79593" lon="9.22494">
        <ele>1219.74</ele>
        <time>2019-09-09T05:02:51Z</time>
      </trkpt>
      <trkpt lat="41.79593" lon="9.22474">
        <ele>1220.33</ele>
        <time>2019-09-09T05:03:04Z</time>
      </trkpt>
      <trkpt lat="41.79592" lon="9.22452">
        <ele>1219.63</ele>
        <time>2019-09-09T05:03:23Z</time>
      </trkpt>
      <trkpt lat="41.7959" lon="9.2244">
        <ele>1218.95</ele>
        <time>2019-09-09T05:03:36Z</time>
      </trkpt>
      <trkpt lat="41.79597" lon="9.22433">
        <ele>1217.66</ele>
        <time>2019-09-09T05:03:45Z</time>
      </trkpt>
      <trkpt lat="41.79618" lon="9.22419">
        <ele>1214.58</ele>
        <time>2019-09-09T05:04:04Z</time>
      </trkpt>
      <trkpt lat="41.7963" lon="9.22397">
        <ele>1213.12</ele>
        <time>2019-09-09T05:04:21Z</time>
      </trkpt>
      <trkpt lat="41.79649" lon="9.22375">
        <ele>1211.44</ele>
        <time>2019-09-09T05:04:40Z</time>
      </trkpt>
      <trkpt lat="41.7966" lon="9.22363">
        <ele>1209.52</ele>
        <time>2019-09-09T05:04:54Z</time>
      </trkpt>
      <trkpt lat="41.79671" lon="9.22351">
        <ele>1211.05</ele>
        <time>2019-09-09T05:05:08Z</time>
      </trkpt>
      <trkpt lat="41.79679" lon="9.22335">
        <ele>1211.4</ele>
        <time>2019-09-09T05:05:25Z</time>
      </trkpt>
      <trkpt lat="41.79685" lon="9.22325">
        <ele>1212.25</ele>
        <time>2019-09-09T05:05:36Z</time>
      </trkpt>
      <trkpt lat="41.79687" lon="9.22313">
        <ele>1213.09</ele>
        <time>2019-09-09T05:05:46Z</time>
      </trkpt>
      <trkpt lat="41.79696" lon="9.22288">
        <ele>1214.75</ele>
        <time>2019-09-09T05:06:02Z</time>
      </trkpt>
      <trkpt lat="41.79703" lon="9.22273">
        <ele>1215.32</ele>
        <time>2019-09-09T05:06:15Z</time>
      </trkpt>
      <trkpt lat="41.79709" lon="9.2225">
        <ele>1217.6</ele>
        <time>2019-09-09T05:06:29Z</time>
      </trkpt>
      <trkpt lat="41.79716" lon="9.22235">
        <ele>1220.1</ele>
        <time>2019-09-09T05:06:45Z</time>
      </trkpt>
      <trkpt lat="41.79715" lon="9.22224">
        <ele>1220.79</ele>
        <time>2019-09-09T05:07:00Z</time>
      </trkpt>
      <trkpt lat="41.79719" lon="9.222">
        <ele>1221.68</ele>
        <time>2019-09-09T05:07:22Z</time>
      </trkpt>
      <trkpt lat="41.79723" lon="9.22187">
        <ele>1225.46</ele>
        <time>2019-09-09T05:07:37Z</time>
      </trkpt>
      <trkpt lat="41.79724" lon="9.22176">
        <ele>1227.69</ele>
        <time>2019-09-09T05:07:54Z</time>
      </trkpt>
      <trkpt lat="41.79723" lon="9.22172">
        <ele>1227.2</ele>
        <time>2019-09-09T05:07:59Z</time>
      </trkpt>
      <trkpt lat="41.79727" lon="9.22159">
        <ele>1226.83</ele>
        <time>2019-09-09T05:08:14Z</time>
      </trkpt>
      <trkpt lat="41.79731" lon="9.22145">
        <ele>1227.96</ele>
        <time>2019-09-09T05:08:31Z</time>
      </trkpt>
      <trkpt lat="41.79731" lon="9.22138">
        <ele>1229.41</ele>
        <time>2019-09-09T05:08:44Z</time>
      </trkpt>
      <trkpt lat="41.79735" lon="9.22134">
        <ele>1231.53</ele>
        <time>2019-09-09T05:08:57Z</time>
      </trkpt>
      <trkpt lat="41.79737" lon="9.22127">
        <ele>1231.86</ele>
        <time>2019-09-09T05:09:10Z</time>
      </trkpt>
      <trkpt lat="41.79739" lon="9.22122">
        <ele>1228.65</ele>
        <time>2019-09-09T05:09:23Z</time>
      </trkpt>
      <trkpt lat="41.79738" lon="9.22111">
        <ele>1225.82</ele>
        <time>2019-09-09T05:09:37Z</time>
      </trkpt>
      <trkpt lat="41.7974" lon="9.22106">
        <ele>1223.49</ele>
        <time>2019-09-09T05:09:52Z</time>
      </trkpt>
      <trkpt lat="41.79746" lon="9.22104">
        <ele>1221.59</ele>
        <time>2019-09-09T05:10:07Z</time>
      </trkpt>
      <trkpt lat="41.79745" lon="9.22092">
        <ele>1222.77</ele>
        <time>2019-09-09T05:10:20Z</time>
      </trkpt>
      <trkpt lat="41.79748" lon="9.22077">
        <ele>1220.98</ele>
        <time>2019-09-09T05:10:34Z</time>
      </trkpt>
      <trkpt lat="41.79751" lon="9.22071">
        <ele>1222.63</ele>
        <time>2019-09-09T05:10:49Z</time>
      </trkpt>
      <trkpt lat="41.79748" lon="9.22062">
        <ele>1225.04</ele>
        <time>2019-09-09T05:11:03Z</time>
      </trkpt>
      <trkpt lat="41.79749" lon="9.22051">
        <ele>1225.97</ele>
        <time>2019-09-09T05:11:19Z</time>
      </trkpt>
      <trkpt lat="41.79748" lon="9.22046">
        <ele>1226.3</ele>
        <time>2019-09-09T05:11:35Z</time>
      </trkpt>
      <trkpt lat="41.79745" lon="9.22033">
        <ele>1228.49</ele>
        <time>2019-09-09T05:11:50Z</time>
      </trkpt>
      <trkpt lat="41.79746" lon="9.22027">
        <ele>1231.11</ele>
        <time>2019-09-09T05:12:04Z</time>
      </trkpt>
      <trkpt lat="41.79744" lon="9.22021">
        <ele>1234.1</ele>
        <time>2019-09-09T05:12:18Z</time>
      </trkpt>
      <trkpt lat="41.79744" lon="9.22018">
        <ele>1235.83</ele>
        <time>2019-09-09T05:12:30Z</time>
      </trkpt>
      <trkpt lat="41.79748" lon="9.22013">
        <ele>1237.51</ele>
        <time>2019-09-09T05:12:43Z</time>
      </trkpt>
      <trkpt lat="41.79751" lon="9.22011">
        <ele>1239.19</ele>
        <time>2019-09-09T05:12:57Z</time>
      </trkpt>
      <trkpt lat="41.79753" lon="9.22007">
        <ele>1241.07</ele>
        <time>2019-09-09T05:13:10Z</time>
      </trkpt>
      <trkpt lat="41.79756" lon="9.22005">
        <ele>1242.71</ele>
        <time>2019-09-09T05:13:27Z</time>
      </trkpt>
      <trkpt lat="41.79758" lon="9.22002">
        <ele>1244.57</ele>
        <time>2019-09-09T05:13:41Z</time>
      </trkpt>
      <trkpt lat="41.7976" lon="9.22001">
        <ele>1246.12</ele>
        <time>2019-09-09T05:13:55Z</time>
      </trkpt>
      <trkpt lat="41.79763" lon="9.21997">
        <ele>1247.83</ele>
        <time>2019-09-09T05:14:12Z</time>
      </trkpt>
      <trkpt lat="41.79764" lon="9.21996">
        <ele>1249.46</ele>
        <time>2019-09-09T05:14:25Z</time>
      </trkpt>
      <trkpt lat="41.79765" lon="9.21992">
        <ele>1251.38</ele>
        <time>2019-09-09T05:14:37Z</time>
      </trkpt>
      <trkpt lat="41.79767" lon="9.21987">
        <ele>1254.45</ele>
        <time>2019-09-09T05:14:51Z</time>
      </trkpt>
      <trkpt lat="41.79772" lon="9.21983">
        <ele>1257.08</ele>
        <time>2019-09-09T05:15:05Z</time>
      </trkpt>
      <trkpt lat="41.79776" lon="9.21985">
        <ele>1258.61</ele>
        <time>2019-09-09T05:15:22Z</time>
      </trkpt>
      <trkpt lat="41.79778" lon="9.21983">
        <ele>1260.04</ele>
        <time>2019-09-09T05:15:35Z</time>
      </trkpt>
      <trkpt lat="41.79781" lon="9.21979">
        <ele>1261.28</ele>
        <time>2019-09-09T05:15:50Z</time>
      </trkpt>
      <trkpt lat="41.79784" lon="9.2198">
        <ele>1265.72</ele>
        <time>2019-09-09T05:16:03Z</time>
      </trkpt>
      <trkpt lat="41.79785" lon="9.21974">
        <ele>1269.3</ele>
        <time>2019-09-09T05:16:17Z</time>
      </trkpt>
      <trkpt lat="41.79789" lon="9.21973">
        <ele>1272.59</ele>
        <time>2019-09-09T05:16:33Z</time>
      </trkpt>
      <trkpt lat="41.79792" lon="9.21974">
        <ele>1275.95</ele>
        <time>2019-09-09T05:16:48Z</time>
      </trkpt>
      <trkpt lat="41.79796" lon="9.21971">
        <ele>1279.36</ele>
        <time>2019-09-09T05:17:02Z</time>
      </trkpt>
      <trkpt lat="41.79795" lon="9.21965">
        <ele>1282.44</ele>
        <time>2019-09-09T05:17:17Z</time>
      </trkpt>
      <trkpt lat="41.79792" lon="9.21964">
        <ele>1284.99</ele>
        <time>2019-09-09T05:17:28Z</time>
      </trkpt>
      <trkpt lat="41.7979" lon="9.21961">
        <ele>1287.73</ele>
        <time>2019-09-09T05:17:41Z</time>
      </trkpt>
      <trkpt lat="41.7979" lon="9.21953">
        <ele>1289.73</ele>
        <time>2019-09-09T05:17:55Z</time>
      </trkpt>
      <trkpt lat="41.79793" lon="9.21951">
        <ele>1290.03</ele>
        <time>2019-09-09T05:18:07Z</time>
      </trkpt>
      <trkpt lat="41.79794" lon="9.21943">
        <ele>1291.22</ele>
        <time>2019-09-09T05:18:22Z</time>
      </trkpt>
      <trkpt lat="41.79795" lon="9.21937">
        <ele>1291.8</ele>
        <time>2019-09-09T05:18:36Z</time>
      </trkpt>
      <trkpt lat="41.79794" lon="9.21929">
        <ele>1290.49</ele>
        <time>2019-09-09T05:18:51Z</time>
      </trkpt>
      <trkpt lat="41.79794" lon="9.21925">
        <ele>1289.82</ele>
        <time>2019-09-09T05:19:13Z</time>
      </trkpt>
      <trkpt lat="41.79793" lon="9.21923">
        <ele>1288.97</ele>
        <time>2019-09-09T05:19:31Z</time>
      </trkpt>
      <trkpt lat="41.79793" lon="9.21923">
        <ele>1288.43</ele>
        <time>2019-09-09T05:19:50Z</time>
      </trkpt>
      <trkpt lat="41.79795" lon="9.21919">
        <ele>1288.47</ele>
        <time>2019-09-09T05:20:06Z</time>
      </trkpt>
      <trkpt lat="41.79796" lon="9.21911">
        <ele>1288.83</ele>
        <time>2019-09-09T05:20:19Z</time>
      </trkpt>
      <trkpt lat="41.79798" lon="9.219">
        <ele>1290.77</ele>
        <time>2019-09-09T05:20:34Z</time>
      </trkpt>
      <trkpt lat="41.798" lon="9.21887">
        <ele>1292.44</ele>
        <time>2019-09-09T05:20:48Z</time>
      </trkpt>
      <trkpt lat="41.79803" lon="9.21876">
        <ele>1294.99</ele>
        <time>2019-09-09T05:21:04Z</time>
      </trkpt>
      <trkpt lat="41.79809" lon="9.21867">
        <ele>1294.66</ele>
        <time>2019-09-09T05:21:16Z</time>
      </trkpt>
      <trkpt lat="41.79813" lon="9.21853">
        <ele>1295.93</ele>
        <time>2019-09-09T05:21:31Z</time>
      </trkpt>
      <trkpt lat="41.79817" lon="9.2185">
        <ele>1299.56</ele>
        <time>2019-09-09T05:21:46Z</time>
      </trkpt>
      <trkpt lat="41.79823" lon="9.21841">
        <ele>1301.62</ele>
        <time>2019-09-09T05:21:59Z</time>
      </trkpt>
      <trkpt lat="41.7983" lon="9.21832">
        <ele>1303.92</ele>
        <time>2019-09-09T05:22:12Z</time>
      </trkpt>
      <trkpt lat="41.79838" lon="9.21826">
        <ele>1305.8</ele>
        <time>2019-09-09T05:22:26Z</time>
      </trkpt>
      <trkpt lat="41.79845" lon="9.21822">
        <ele>1308.86</ele>
        <time>2019-09-09T05:22:42Z</time>
      </trkpt>
      <trkpt lat="41.79851" lon="9.21816">
        <ele>1312.62</ele>
        <time>2019-09-09T05:22:56Z</time>
      </trkpt>
      <trkpt lat="41.79855" lon="9.21813">
        <ele>1314.83</ele>
        <time>2019-09-09T05:23:09Z</time>
      </trkpt>
      <trkpt lat="41.79858" lon="9.2181">
        <ele>1316.22</ele>
        <time>2019-09-09T05:23:24Z</time>
      </trkpt>
      <trkpt lat="41.79862" lon="9.21805">
        <ele>1316.27</ele>
        <time>2019-09-09T05:23:42Z</time>
      </trkpt>
      <trkpt lat="41.79864" lon="9.21803">
        <ele>1316.61</ele>
        <time>2019-09-09T05:23:57Z</time>
      </trkpt>
      <trkpt lat="41.79869" lon="9.21801">
        <ele>1318.04</ele>
        <time>2019-09-09T05:24:15Z</time>
      </trkpt>
      <trkpt lat="41.79871" lon="9.21798">
        <ele>1320.79</ele>
        <time>2019-09-09T05:24:27Z</time>
      </trkpt>
      <trkpt lat="41.79876" lon="9.21796">
        <ele>1324.84</ele>
        <time>2019-09-09T05:24:43Z</time>
      </trkpt>
      <trkpt lat="41.79878" lon="9.21797">
        <ele>1326.68</ele>
        <time>2019-09-09T05:24:56Z</time>
      </trkpt>
      <trkpt lat="41.79882" lon="9.21794">
        <ele>1328.14</ele>
        <time>2019-09-09T05:25:11Z</time>
      </trkpt>
      <trkpt lat="41.79884" lon="9.21795">
        <ele>1329.14</ele>
        <time>2019-09-09T05:25:26Z</time>
      </trkpt>
      <trkpt lat="41.79891" lon="9.21796">
        <ele>1330.21</ele>
        <time>2019-09-09T05:25:43Z</time>
      </trkpt>
      <trkpt lat="41.79894" lon="9.21796">
        <ele>1331.02</ele>
        <time>2019-09-09T05:25:54Z</time>
      </trkpt>
      <trkpt lat="41.79897" lon="9.21788">
        <ele>1332.25</ele>
        <time>2019-09-09T05:26:16Z</time>
      </trkpt>
      <trkpt lat="41.79902" lon="9.21777">
        <ele>1332.85</ele>
        <time>2019-09-09T05:26:36Z</time>
      </trkpt>
      <trkpt lat="41.79907" lon="9.21775">
        <ele>1333.92</ele>
        <time>2019-09-09T05:26:52Z</time>
      </trkpt>
      <trkpt lat="41.79912" lon="9.21772">
        <ele>1334.88</ele>
        <time>2019-09-09T05:27:09Z</time>
      </trkpt>
      <trkpt lat="41.79918" lon="9.21776">
        <ele>1335.8</ele>
        <time>2019-09-09T05:27:28Z</time>
      </trkpt>
      <trkpt lat="41.79918" lon="9.21782">
        <ele>1330.84</ele>
        <time>2019-09-09T05:27:48Z</time>
      </trkpt>
      <trkpt lat="41.79922" lon="9.21781">
        <ele>1327.34</ele>
        <time>2019-09-09T05:28:04Z</time>
      </trkpt>
      <trkpt lat="41.79925" lon="9.21787">
        <ele>1329.79</ele>
        <time>2019-09-09T05:28:23Z</time>
      </trkpt>
      <trkpt lat="41.79926" lon="9.21792">
        <ele>1331.83</ele>
        <time>2019-09-09T05:28:39Z</time>
      </trkpt>
      <trkpt lat="41.79929" lon="9.21797">
        <ele>1333.23</ele>
        <time>2019-09-09T05:28:56Z</time>
      </trkpt>
      <trkpt lat="41.7993" lon="9.21805">
        <ele>1330.89</ele>
        <time>2019-09-09T05:29:15Z</time>
      </trkpt>
      <trkpt lat="41.79935" lon="9.21805">
        <ele>1332.66</ele>
        <time>2019-09-09T05:29:31Z</time>
      </trkpt>
      <trkpt lat="41.79937" lon="9.21808">
        <ele>1330.87</ele>
        <time>2019-09-09T05:29:46Z</time>
      </trkpt>
      <trkpt lat="41.7994" lon="9.21809">
        <ele>1327.59</ele>
        <time>2019-09-09T05:30:01Z</time>
      </trkpt>
      <trkpt lat="41.79944" lon="9.21812">
        <ele>1329.35</ele>
        <time>2019-09-09T05:30:15Z</time>
      </trkpt>
      <trkpt lat="41.79948" lon="9.21816">
        <ele>1337.34</ele>
        <time>2019-09-09T05:30:31Z</time>
      </trkpt>
      <trkpt lat="41.79951" lon="9.21815">
        <ele>1342.43</ele>
        <time>2019-09-09T05:30:47Z</time>
      </trkpt>
      <trkpt lat="41.79955" lon="9.21814">
        <ele>1349.63</ele>
        <time>2019-09-09T05:31:01Z</time>
      </trkpt>
      <trkpt lat="41.79955" lon="9.2181">
        <ele>1354.84</ele>
        <time>2019-09-09T05:31:15Z</time>
      </trkpt>
      <trkpt lat="41.7996" lon="9.21809">
        <ele>1356.6</ele>
        <time>2019-09-09T05:31:32Z</time>
      </trkpt>
      <trkpt lat="41.79963" lon="9.2181">
        <ele>1357.39</ele>
        <time>2019-09-09T05:31:57Z</time>
      </trkpt>
      <trkpt lat="41.79968" lon="9.21802">
        <ele>1359.53</ele>
        <time>2019-09-09T05:32:20Z</time>
      </trkpt>
      <trkpt lat="41.79971" lon="9.21806">
        <ele>1362.25</ele>
        <time>2019-09-09T05:32:35Z</time>
      </trkpt>
      <trkpt lat="41.79972" lon="9.21802">
        <ele>1367.88</ele>
        <time>2019-09-09T05:32:50Z</time>
      </trkpt>
      <trkpt lat="41.79973" lon="9.21808">
        <ele>1376.92</ele>
        <time>2019-09-09T05:33:04Z</time>
      </trkpt>
      <trkpt lat="41.79972" lon="9.21807">
        <ele>1383.87</ele>
        <time>2019-09-09T05:33:21Z</time>
      </trkpt>
      <trkpt lat="41.79975" lon="9.218">
        <ele>1390.6</ele>
        <time>2019-09-09T05:33:36Z</time>
      </trkpt>
      <trkpt lat="41.79977" lon="9.21794">
        <ele>1394.88</ele>
        <time>2019-09-09T05:33:50Z</time>
      </trkpt>
      <trkpt lat="41.79981" lon="9.21794">
        <ele>1396.5</ele>
        <time>2019-09-09T05:34:09Z</time>
      </trkpt>
      <trkpt lat="41.79982" lon="9.21795">
        <ele>1396.4</ele>
        <time>2019-09-09T05:34:13Z</time>
      </trkpt>
      <trkpt lat="41.7999" lon="9.21802">
        <ele>1396.56</ele>
        <time>2019-09-09T05:34:33Z</time>
      </trkpt>
      <trkpt lat="41.79993" lon="9.21803">
        <ele>1396.4</ele>
        <time>2019-09-09T05:34:52Z</time>
      </trkpt>
      <trkpt lat="41.79998" lon="9.21801">
        <ele>1396.91</ele>
        <time>2019-09-09T05:35:10Z</time>
      </trkpt>
      <trkpt lat="41.80001" lon="9.21796">
        <ele>1397.33</ele>
        <time>2019-09-09T05:35:27Z</time>
      </trkpt>
      <trkpt lat="41.80001" lon="9.21798">
        <ele>1398.84</ele>
        <time>2019-09-09T05:35:44Z</time>
      </trkpt>
      <trkpt lat="41.79998" lon="9.21786">
        <ele>1405.37</ele>
        <time>2019-09-09T05:36:00Z</time>
      </trkpt>
      <trkpt lat="41.79998" lon="9.21779">
        <ele>1411.05</ele>
        <time>2019-09-09T05:36:17Z</time>
      </trkpt>
      <trkpt lat="41.79998" lon="9.21782">
        <ele>1415.74</ele>
        <time>2019-09-09T05:36:31Z</time>
      </trkpt>
      <trkpt lat="41.79997" lon="9.21789">
        <ele>1421.87</ele>
        <time>2019-09-09T05:36:48Z</time>
      </trkpt>
      <trkpt lat="41.80002" lon="9.21784">
        <ele>1423.38</ele>
        <time>2019-09-09T05:37:09Z</time>
      </trkpt>
      <trkpt lat="41.80005" lon="9.21777">
        <ele>1423.92</ele>
        <time>2019-09-09T05:37:27Z</time>
      </trkpt>
      <trkpt lat="41.80008" lon="9.21777">
        <ele>1426.22</ele>
        <time>2019-09-09T05:37:44Z</time>
      </trkpt>
      <trkpt lat="41.80013" lon="9.21778">
        <ele>1427.31</ele>
        <time>2019-09-09T05:37:57Z</time>
      </trkpt>
      <trkpt lat="41.80015" lon="9.21776">
        <ele>1429.94</ele>
        <time>2019-09-09T05:38:12Z</time>
      </trkpt>
      <trkpt lat="41.80017" lon="9.21774">
        <ele>1432.84</ele>
        <time>2019-09-09T05:38:27Z</time>
      </trkpt>
      <trkpt lat="41.80015" lon="9.21771">
        <ele>1435.12</ele>
        <time>2019-09-09T05:38:46Z</time>
      </trkpt>
      <trkpt lat="41.80015" lon="9.2177">
        <ele>1437.22</ele>
        <time>2019-09-09T05:39:06Z</time>
      </trkpt>
      <trkpt lat="41.80013" lon="9.21769">
        <ele>1438.89</ele>
        <time>2019-09-09T05:39:46Z</time>
      </trkpt>
      <trkpt lat="41.80014" lon="9.21769">
        <ele>1440.28</ele>
        <time>2019-09-09T05:40:13Z</time>
      </trkpt>
      <trkpt lat="41.80017" lon="9.21766">
        <ele>1440.75</ele>
        <time>2019-09-09T05:40:30Z</time>
      </trkpt>
      <trkpt lat="41.80024" lon="9.21766">
        <ele>1441.08</ele>
        <time>2019-09-09T05:40:50Z</time>
      </trkpt>
      <trkpt lat="41.80025" lon="9.21761">
        <ele>1442.54</ele>
        <time>2019-09-09T05:41:09Z</time>
      </trkpt>
      <trkpt lat="41.80027" lon="9.21759">
        <ele>1444.22</ele>
        <time>2019-09-09T05:41:23Z</time>
      </trkpt>
      <trkpt lat="41.80029" lon="9.21753">
        <ele>1446.11</ele>
        <time>2019-09-09T05:41:39Z</time>
      </trkpt>
      <trkpt lat="41.80031" lon="9.21752">
        <ele>1447.88</ele>
        <time>2019-09-09T05:41:52Z</time>
      </trkpt>
      <trkpt lat="41.80032" lon="9.21753">
        <ele>1448.6</ele>
        <time>2019-09-09T05:42:07Z</time>
      </trkpt>
      <trkpt lat="41.80033" lon="9.21752">
        <ele>1448.79</ele>
        <time>2019-09-09T05:42:26Z</time>
      </trkpt>
      <trkpt lat="41.80033" lon="9.21752">
        <ele>1449.08</ele>
        <time>2019-09-09T05:42:49Z</time>
      </trkpt>
      <trkpt lat="41.80033" lon="9.2175">
        <ele>1449.77</ele>
        <time>2019-09-09T05:43:21Z</time>
      </trkpt>
      <trkpt lat="41.80032" lon="9.21749">
        <ele>1450.1</ele>
        <time>2019-09-09T05:43:57Z</time>
      </trkpt>
      <trkpt lat="41.80032" lon="9.21748">
        <ele>1449.63</ele>
        <time>2019-09-09T05:44:15Z</time>
      </trkpt>
      <trkpt lat="41.80035" lon="9.21751">
        <ele>1447.47</ele>
        <time>2019-09-09T05:44:32Z</time>
      </trkpt>
      <trkpt lat="41.80038" lon="9.21752">
        <ele>1445.55</ele>
        <time>2019-09-09T05:44:49Z</time>
      </trkpt>
      <trkpt lat="41.8004" lon="9.21754">
        <ele>1445.42</ele>
        <time>2019-09-09T05:45:08Z</time>
      </trkpt>
      <trkpt lat="41.80041" lon="9.21746">
        <ele>1445.77</ele>
        <time>2019-09-09T05:45:30Z</time>
      </trkpt>
      <trkpt lat="41.80041" lon="9.21731">
        <ele>1443.46</ele>
        <time>2019-09-09T05:45:47Z</time>
      </trkpt>
      <trkpt lat="41.80041" lon="9.2173">
        <ele>1443.32</ele>
        <time>2019-09-09T05:45:48Z</time>
      </trkpt>
      <trkpt lat="41.80039" lon="9.21723">
        <ele>1442.28</ele>
        <time>2019-09-09T05:46:02Z</time>
      </trkpt>
      <trkpt lat="41.8004" lon="9.21714">
        <ele>1441.34</ele>
        <time>2019-09-09T05:46:13Z</time>
      </trkpt>
      <trkpt lat="41.80041" lon="9.21705">
        <ele>1440.13</ele>
        <time>2019-09-09T05:46:28Z</time>
      </trkpt>
      <trkpt lat="41.8004" lon="9.21695">
        <ele>1437.21</ele>
        <time>2019-09-09T05:46:44Z</time>
      </trkpt>
      <trkpt lat="41.80041" lon="9.21688">
        <ele>1435.07</ele>
        <time>2019-09-09T05:46:57Z</time>
      </trkpt>
      <trkpt lat="41.80042" lon="9.2168">
        <ele>1433.49</ele>
        <time>2019-09-09T05:47:14Z</time>
      </trkpt>
      <trkpt lat="41.80043" lon="9.21672">
        <ele>1432.37</ele>
        <time>2019-09-09T05:47:30Z</time>
      </trkpt>
      <trkpt lat="41.80043" lon="9.21667">
        <ele>1429.85</ele>
        <time>2019-09-09T05:47:44Z</time>
      </trkpt>
      <trkpt lat="41.80046" lon="9.21665">
        <ele>1426.94</ele>
        <time>2019-09-09T05:47:58Z</time>
      </trkpt>
      <trkpt lat="41.80048" lon="9.21667">
        <ele>1426.88</ele>
        <time>2019-09-09T05:48:16Z</time>
      </trkpt>
      <trkpt lat="41.80051" lon="9.21669">
        <ele>1427.02</ele>
        <time>2019-09-09T05:48:36Z</time>
      </trkpt>
      <trkpt lat="41.80055" lon="9.21668">
        <ele>1426.69</ele>
        <time>2019-09-09T05:48:50Z</time>
      </trkpt>
      <trkpt lat="41.80055" lon="9.21664">
        <ele>1425.15</ele>
        <time>2019-09-09T05:49:14Z</time>
      </trkpt>
      <trkpt lat="41.80055" lon="9.21664">
        <ele>1424.74</ele>
        <time>2019-09-09T05:49:15Z</time>
      </trkpt>
      <trkpt lat="41.80054" lon="9.21664">
        <ele>1421.28</ele>
        <time>2019-09-09T05:49:28Z</time>
      </trkpt>
      <trkpt lat="41.80055" lon="9.21668">
        <ele>1417.89</ele>
        <time>2019-09-09T05:49:41Z</time>
      </trkpt>
      <trkpt lat="41.80059" lon="9.21672">
        <ele>1414.75</ele>
        <time>2019-09-09T05:49:58Z</time>
      </trkpt>
      <trkpt lat="41.80061" lon="9.21678">
        <ele>1412.83</ele>
        <time>2019-09-09T05:50:15Z</time>
      </trkpt>
      <trkpt lat="41.80063" lon="9.21683">
        <ele>1410.81</ele>
        <time>2019-09-09T05:50:31Z</time>
      </trkpt>
      <trkpt lat="41.80065" lon="9.21678">
        <ele>1407.73</ele>
        <time>2019-09-09T05:50:46Z</time>
      </trkpt>
      <trkpt lat="41.80069" lon="9.21675">
        <ele>1403.75</ele>
        <time>2019-09-09T05:51:01Z</time>
      </trkpt>
      <trkpt lat="41.80067" lon="9.21669">
        <ele>1400.92</ele>
        <time>2019-09-09T05:51:14Z</time>
      </trkpt>
      <trkpt lat="41.80068" lon="9.21662">
        <ele>1400.39</ele>
        <time>2019-09-09T05:51:34Z</time>
      </trkpt>
      <trkpt lat="41.80067" lon="9.21661">
        <ele>1399.75</ele>
        <time>2019-09-09T05:51:56Z</time>
      </trkpt>
      <trkpt lat="41.80069" lon="9.21664">
        <ele>1399.11</ele>
        <time>2019-09-09T05:52:16Z</time>
      </trkpt>
      <trkpt lat="41.80072" lon="9.21656">
        <ele>1396.19</ele>
        <time>2019-09-09T05:52:31Z</time>
      </trkpt>
      <trkpt lat="41.80077" lon="9.2165">
        <ele>1393.54</ele>
        <time>2019-09-09T05:52:43Z</time>
      </trkpt>
      <trkpt lat="41.80082" lon="9.21648">
        <ele>1390.29</ele>
        <time>2019-09-09T05:52:57Z</time>
      </trkpt>
      <trkpt lat="41.80084" lon="9.21646">
        <ele>1389.06</ele>
        <time>2019-09-09T05:53:01Z</time>
      </trkpt>
      <trkpt lat="41.80093" lon="9.21636">
        <ele>1387.36</ele>
        <time>2019-09-09T05:53:14Z</time>
      </trkpt>
      <trkpt lat="41.80102" lon="9.2163">
        <ele>1387.47</ele>
        <time>2019-09-09T05:53:27Z</time>
      </trkpt>
      <trkpt lat="41.80108" lon="9.21626">
        <ele>1388.64</ele>
        <time>2019-09-09T05:53:43Z</time>
      </trkpt>
      <trkpt lat="41.80118" lon="9.21621">
        <ele>1389.41</ele>
        <time>2019-09-09T05:53:56Z</time>
      </trkpt>
      <trkpt lat="41.80122" lon="9.21617">
        <ele>1391.91</ele>
        <time>2019-09-09T05:54:09Z</time>
      </trkpt>
      <trkpt lat="41.80123" lon="9.21618">
        <ele>1392.64</ele>
        <time>2019-09-09T05:54:30Z</time>
      </trkpt>
      <trkpt lat="41.80124" lon="9.21617">
        <ele>1392.97</ele>
        <time>2019-09-09T05:54:52Z</time>
      </trkpt>
      <trkpt lat="41.80125" lon="9.21618">
        <ele>1394.86</ele>
        <time>2019-09-09T05:55:20Z</time>
      </trkpt>
      <trkpt lat="41.80125" lon="9.2162">
        <ele>1395.33</ele>
        <time>2019-09-09T05:55:40Z</time>
      </trkpt>
      <trkpt lat="41.80124" lon="9.21621">
        <ele>1395.64</ele>
        <time>2019-09-09T05:55:57Z</time>
      </trkpt>
      <trkpt lat="41.80124" lon="9.21621">
        <ele>1395.83</ele>
        <time>2019-09-09T05:56:24Z</time>
      </trkpt>
      <trkpt lat="41.80126" lon="9.21618">
        <ele>1395.82</ele>
        <time>2019-09-09T05:56:44Z</time>
      </trkpt>
      <trkpt lat="41.80127" lon="9.21614">
        <ele>1395.97</ele>
        <time>2019-09-09T05:57:00Z</time>
      </trkpt>
      <trkpt lat="41.80128" lon="9.21607">
        <ele>1396.21</ele>
        <time>2019-09-09T05:57:13Z</time>
      </trkpt>
      <trkpt lat="41.80127" lon="9.21604">
        <ele>1396.33</ele>
        <time>2019-09-09T05:57:29Z</time>
      </trkpt>
      <trkpt lat="41.8013" lon="9.21594">
        <ele>1396.9</ele>
        <time>2019-09-09T05:57:47Z</time>
      </trkpt>
      <trkpt lat="41.80134" lon="9.21586">
        <ele>1398.67</ele>
        <time>2019-09-09T05:58:00Z</time>
      </trkpt>
      <trkpt lat="41.80132" lon="9.21583">
        <ele>1401</ele>
        <time>2019-09-09T05:58:13Z</time>
      </trkpt>
      <trkpt lat="41.80131" lon="9.21577">
        <ele>1403.9</ele>
        <time>2019-09-09T05:58:27Z</time>
      </trkpt>
      <trkpt lat="41.80125" lon="9.21575">
        <ele>1404.52</ele>
        <time>2019-09-09T05:58:42Z</time>
      </trkpt>
      <trkpt lat="41.80124" lon="9.21571">
        <ele>1404.01</ele>
        <time>2019-09-09T05:58:56Z</time>
      </trkpt>
      <trkpt lat="41.80122" lon="9.21569">
        <ele>1404.1</ele>
        <time>2019-09-09T05:59:12Z</time>
      </trkpt>
      <trkpt lat="41.8012" lon="9.21565">
        <ele>1405.65</ele>
        <time>2019-09-09T05:59:32Z</time>
      </trkpt>
      <trkpt lat="41.80124" lon="9.21562">
        <ele>1408.39</ele>
        <time>2019-09-09T05:59:47Z</time>
      </trkpt>
      <trkpt lat="41.80124" lon="9.21557">
        <ele>1409.59</ele>
        <time>2019-09-09T05:59:59Z</time>
      </trkpt>
      <trkpt lat="41.80124" lon="9.21554">
        <ele>1409.61</ele>
        <time>2019-09-09T06:00:17Z</time>
      </trkpt>
      <trkpt lat="41.80123" lon="9.2155">
        <ele>1409.76</ele>
        <time>2019-09-09T06:00:29Z</time>
      </trkpt>
      <trkpt lat="41.80121" lon="9.21541">
        <ele>1409.48</ele>
        <time>2019-09-09T06:00:35Z</time>
      </trkpt>
      <trkpt lat="41.80115" lon="9.21531">
        <ele>1410.53</ele>
        <time>2019-09-09T06:00:49Z</time>
      </trkpt>
      <trkpt lat="41.80112" lon="9.21527">
        <ele>1412.1</ele>
        <time>2019-09-09T06:01:03Z</time>
      </trkpt>
      <trkpt lat="41.8011" lon="9.21524">
        <ele>1412.94</ele>
        <time>2019-09-09T06:01:20Z</time>
      </trkpt>
      <trkpt lat="41.80108" lon="9.21519">
        <ele>1413.79</ele>
        <time>2019-09-09T06:01:34Z</time>
      </trkpt>
      <trkpt lat="41.80108" lon="9.21519">
        <ele>1414.4</ele>
        <time>2019-09-09T06:01:51Z</time>
      </trkpt>
      <trkpt lat="41.80109" lon="9.21516">
        <ele>1415.89</ele>
        <time>2019-09-09T06:02:07Z</time>
      </trkpt>
      <trkpt lat="41.80113" lon="9.21513">
        <ele>1417.96</ele>
        <time>2019-09-09T06:02:23Z</time>
      </trkpt>
      <trkpt lat="41.80124" lon="9.21513">
        <ele>1418.28</ele>
        <time>2019-09-09T06:02:40Z</time>
      </trkpt>
      <trkpt lat="41.80128" lon="9.21516">
        <ele>1419.3</ele>
        <time>2019-09-09T06:02:56Z</time>
      </trkpt>
      <trkpt lat="41.80131" lon="9.21517">
        <ele>1419.22</ele>
        <time>2019-09-09T06:03:00Z</time>
      </trkpt>
      <trkpt lat="41.80137" lon="9.21518">
        <ele>1417.98</ele>
        <time>2019-09-09T06:03:09Z</time>
      </trkpt>
      <trkpt lat="41.80153" lon="9.21513">
        <ele>1417.92</ele>
        <time>2019-09-09T06:03:23Z</time>
      </trkpt>
      <trkpt lat="41.80169" lon="9.21513">
        <ele>1421.93</ele>
        <time>2019-09-09T06:03:37Z</time>
      </trkpt>
      <trkpt lat="41.80175" lon="9.21515">
        <ele>1427.47</ele>
        <time>2019-09-09T06:03:51Z</time>
      </trkpt>
      <trkpt lat="41.80177" lon="9.21517">
        <ele>1430.65</ele>
        <time>2019-09-09T06:04:01Z</time>
      </trkpt>
      <trkpt lat="41.8018" lon="9.21514">
        <ele>1431.93</ele>
        <time>2019-09-09T06:04:15Z</time>
      </trkpt>
      <trkpt lat="41.80183" lon="9.21509">
        <ele>1432.99</ele>
        <time>2019-09-09T06:04:29Z</time>
      </trkpt>
      <trkpt lat="41.80188" lon="9.21505">
        <ele>1433.92</ele>
        <time>2019-09-09T06:04:44Z</time>
      </trkpt>
      <trkpt lat="41.80193" lon="9.21504">
        <ele>1435.24</ele>
        <time>2019-09-09T06:04:56Z</time>
      </trkpt>
      <trkpt lat="41.80196" lon="9.21501">
        <ele>1435.19</ele>
        <time>2019-09-09T06:05:10Z</time>
      </trkpt>
      <trkpt lat="41.80199" lon="9.21499">
        <ele>1437.19</ele>
        <time>2019-09-09T06:05:24Z</time>
      </trkpt>
      <trkpt lat="41.80202" lon="9.21499">
        <ele>1437.77</ele>
        <time>2019-09-09T06:05:41Z</time>
      </trkpt>
      <trkpt lat="41.80203" lon="9.21499">
        <ele>1438.97</ele>
        <time>2019-09-09T06:05:58Z</time>
      </trkpt>
      <trkpt lat="41.80205" lon="9.21498">
        <ele>1441.4</ele>
        <time>2019-09-09T06:06:13Z</time>
      </trkpt>
      <trkpt lat="41.80207" lon="9.21495">
        <ele>1443.24</ele>
        <time>2019-09-09T06:06:29Z</time>
      </trkpt>
      <trkpt lat="41.80209" lon="9.21492">
        <ele>1444.21</ele>
        <time>2019-09-09T06:06:47Z</time>
      </trkpt>
      <trkpt lat="41.80212" lon="9.21488">
        <ele>1445.21</ele>
        <time>2019-09-09T06:07:06Z</time>
      </trkpt>
      <trkpt lat="41.80216" lon="9.21486">
        <ele>1447.58</ele>
        <time>2019-09-09T06:07:23Z</time>
      </trkpt>
      <trkpt lat="41.80217" lon="9.21494">
        <ele>1448.69</ele>
        <time>2019-09-09T06:07:40Z</time>
      </trkpt>
      <trkpt lat="41.80218" lon="9.21499">
        <ele>1448.74</ele>
        <time>2019-09-09T06:07:52Z</time>
      </trkpt>
      <trkpt lat="41.80219" lon="9.21496">
        <ele>1446.9</ele>
        <time>2019-09-09T06:08:19Z</time>
      </trkpt>
      <trkpt lat="41.80219" lon="9.21498">
        <ele>1446.24</ele>
        <time>2019-09-09T06:08:46Z</time>
      </trkpt>
      <trkpt lat="41.8022" lon="9.21501">
        <ele>1445.31</ele>
        <time>2019-09-09T06:09:13Z</time>
      </trkpt>
      <trkpt lat="41.80221" lon="9.215">
        <ele>1444.65</ele>
        <time>2019-09-09T06:09:28Z</time>
      </trkpt>
      <trkpt lat="41.80223" lon="9.21501">
        <ele>1444.69</ele>
        <time>2019-09-09T06:09:47Z</time>
      </trkpt>
      <trkpt lat="41.80226" lon="9.21499">
        <ele>1442.89</ele>
        <time>2019-09-09T06:10:04Z</time>
      </trkpt>
      <trkpt lat="41.80227" lon="9.21498">
        <ele>1441.88</ele>
        <time>2019-09-09T06:10:23Z</time>
      </trkpt>
      <trkpt lat="41.80229" lon="9.21497">
        <ele>1441.97</ele>
        <time>2019-09-09T06:10:50Z</time>
      </trkpt>
      <trkpt lat="41.80229" lon="9.21495">
        <ele>1440.63</ele>
        <time>2019-09-09T06:11:16Z</time>
      </trkpt>
      <trkpt lat="41.80229" lon="9.21491">
        <ele>1439.45</ele>
        <time>2019-09-09T06:11:38Z</time>
      </trkpt>
      <trkpt lat="41.80227" lon="9.21487">
        <ele>1438.68</ele>
        <time>2019-09-09T06:12:04Z</time>
      </trkpt>
      <trkpt lat="41.80228" lon="9.21487">
        <ele>1438.72</ele>
        <time>2019-09-09T06:12:20Z</time>
      </trkpt>
      <trkpt lat="41.80228" lon="9.21488">
        <ele>1438.23</ele>
        <time>2019-09-09T06:12:38Z</time>
      </trkpt>
      <trkpt lat="41.80228" lon="9.21485">
        <ele>1436.67</ele>
        <time>2019-09-09T06:13:00Z</time>
      </trkpt>
      <trkpt lat="41.80227" lon="9.21486">
        <ele>1436.55</ele>
        <time>2019-09-09T06:13:10Z</time>
      </trkpt>
      <trkpt lat="41.8023" lon="9.21486">
        <ele>1436.39</ele>
        <time>2019-09-09T06:13:28Z</time>
      </trkpt>
      <trkpt lat="41.80236" lon="9.21483">
        <ele>1435.3</ele>
        <time>2019-09-09T06:13:44Z</time>
      </trkpt>
      <trkpt lat="41.80232" lon="9.21485">
        <ele>1435.72</ele>
        <time>2019-09-09T06:14:08Z</time>
      </trkpt>
      <trkpt lat="41.80234" lon="9.21489">
        <ele>1435.17</ele>
        <time>2019-09-09T06:14:19Z</time>
      </trkpt>
      <trkpt lat="41.80236" lon="9.21485">
        <ele>1432.05</ele>
        <time>2019-09-09T06:14:34Z</time>
      </trkpt>
      <trkpt lat="41.80239" lon="9.21483">
        <ele>1430.6</ele>
        <time>2019-09-09T06:14:46Z</time>
      </trkpt>
      <trkpt lat="41.80239" lon="9.21483">
        <ele>1430.37</ele>
        <time>2019-09-09T06:14:47Z</time>
      </trkpt>
      <trkpt lat="41.80242" lon="9.21476">
        <ele>1428.42</ele>
        <time>2019-09-09T06:14:59Z</time>
      </trkpt>
      <trkpt lat="41.80238" lon="9.21474">
        <ele>1426.03</ele>
        <time>2019-09-09T06:15:30Z</time>
      </trkpt>
      <trkpt lat="41.80237" lon="9.21474">
        <ele>1425.01</ele>
        <time>2019-09-09T06:15:57Z</time>
      </trkpt>
      <trkpt lat="41.80234" lon="9.21474">
        <ele>1422.41</ele>
        <time>2019-09-09T06:16:33Z</time>
      </trkpt>
      <trkpt lat="41.80233" lon="9.21472">
        <ele>1420.33</ele>
        <time>2019-09-09T06:17:07Z</time>
      </trkpt>
      <trkpt lat="41.80232" lon="9.21473">
        <ele>1420.59</ele>
        <time>2019-09-09T06:17:29Z</time>
      </trkpt>
      <trkpt lat="41.80231" lon="9.21471">
        <ele>1421.28</ele>
        <time>2019-09-09T06:17:58Z</time>
      </trkpt>
      <trkpt lat="41.80233" lon="9.21471">
        <ele>1419.32</ele>
        <time>2019-09-09T06:18:24Z</time>
      </trkpt>
      <trkpt lat="41.80233" lon="9.21471">
        <ele>1419.4</ele>
        <time>2019-09-09T06:18:49Z</time>
      </trkpt>
      <trkpt lat="41.80232" lon="9.21472">
        <ele>1419.8</ele>
        <time>2019-09-09T06:19:20Z</time>
      </trkpt>
      <trkpt lat="41.80232" lon="9.21475">
        <ele>1420.63</ele>
        <time>2019-09-09T06:19:38Z</time>
      </trkpt>
      <trkpt lat="41.80234" lon="9.21475">
        <ele>1420.39</ele>
        <time>2019-09-09T06:20:07Z</time>
      </trkpt>
      <trkpt lat="41.80238" lon="9.21474">
        <ele>1420.33</ele>
        <time>2019-09-09T06:20:32Z</time>
      </trkpt>
      <trkpt lat="41.80236" lon="9.21472">
        <ele>1420.42</ele>
        <time>2019-09-09T06:20:53Z</time>
      </trkpt>
      <trkpt lat="41.80233" lon="9.2147">
        <ele>1420.55</ele>
        <time>2019-09-09T06:21:16Z</time>
      </trkpt>
      <trkpt lat="41.80241" lon="9.2147">
        <ele>1420.26</ele>
        <time>2019-09-09T06:21:37Z</time>
      </trkpt>
      <trkpt lat="41.80242" lon="9.21468">
        <ele>1418.94</ele>
        <time>2019-09-09T06:21:53Z</time>
      </trkpt>
      <trkpt lat="41.80244" lon="9.21466">
        <ele>1418.55</ele>
        <time>2019-09-09T06:21:57Z</time>
      </trkpt>
      <trkpt lat="41.80255" lon="9.21462">
        <ele>1419.73</ele>
        <time>2019-09-09T06:22:10Z</time>
      </trkpt>
      <trkpt lat="41.80262" lon="9.21459">
        <ele>1424.79</ele>
        <time>2019-09-09T06:22:24Z</time>
      </trkpt>
      <trkpt lat="41.80272" lon="9.21458">
        <ele>1434.52</ele>
        <time>2019-09-09T06:22:38Z</time>
      </trkpt>
      <trkpt lat="41.80285" lon="9.21457">
        <ele>1436.51</ele>
        <time>2019-09-09T06:22:53Z</time>
      </trkpt>
      <trkpt lat="41.80289" lon="9.21451">
        <ele>1439.08</ele>
        <time>2019-09-09T06:23:07Z</time>
      </trkpt>
      <trkpt lat="41.80292" lon="9.21447">
        <ele>1441.52</ele>
        <time>2019-09-09T06:23:22Z</time>
      </trkpt>
      <trkpt lat="41.803" lon="9.21446">
        <ele>1444.46</ele>
        <time>2019-09-09T06:23:37Z</time>
      </trkpt>
      <trkpt lat="41.80304" lon="9.21443">
        <ele>1445.38</ele>
        <time>2019-09-09T06:23:50Z</time>
      </trkpt>
      <trkpt lat="41.80304" lon="9.2144">
        <ele>1446.29</ele>
        <time>2019-09-09T06:24:01Z</time>
      </trkpt>
      <trkpt lat="41.80305" lon="9.21435">
        <ele>1447.94</ele>
        <time>2019-09-09T06:24:14Z</time>
      </trkpt>
      <trkpt lat="41.80308" lon="9.21432">
        <ele>1449.03</ele>
        <time>2019-09-09T06:24:27Z</time>
      </trkpt>
      <trkpt lat="41.80305" lon="9.21424">
        <ele>1450.74</ele>
        <time>2019-09-09T06:24:41Z</time>
      </trkpt>
      <trkpt lat="41.80308" lon="9.21423">
        <ele>1452.01</ele>
        <time>2019-09-09T06:24:56Z</time>
      </trkpt>
      <trkpt lat="41.80308" lon="9.21418">
        <ele>1453.4</ele>
        <time>2019-09-09T06:25:09Z</time>
      </trkpt>
      <trkpt lat="41.80311" lon="9.21415">
        <ele>1454.98</ele>
        <time>2019-09-09T06:25:24Z</time>
      </trkpt>
      <trkpt lat="41.80314" lon="9.21414">
        <ele>1456.44</ele>
        <time>2019-09-09T06:25:37Z</time>
      </trkpt>
      <trkpt lat="41.80317" lon="9.21408">
        <ele>1458.21</ele>
        <time>2019-09-09T06:25:51Z</time>
      </trkpt>
      <trkpt lat="41.80318" lon="9.21404">
        <ele>1459.89</ele>
        <time>2019-09-09T06:26:04Z</time>
      </trkpt>
      <trkpt lat="41.80318" lon="9.21399">
        <ele>1461.21</ele>
        <time>2019-09-09T06:26:17Z</time>
      </trkpt>
      <trkpt lat="41.8032" lon="9.21392">
        <ele>1462.76</ele>
        <time>2019-09-09T06:26:31Z</time>
      </trkpt>
      <trkpt lat="41.80317" lon="9.21387">
        <ele>1463.13</ele>
        <time>2019-09-09T06:26:44Z</time>
      </trkpt>
      <trkpt lat="41.80322" lon="9.21391">
        <ele>1464.12</ele>
        <time>2019-09-09T06:26:57Z</time>
      </trkpt>
      <trkpt lat="41.8033" lon="9.21395">
        <ele>1465</ele>
        <time>2019-09-09T06:27:13Z</time>
      </trkpt>
      <trkpt lat="41.80334" lon="9.21398">
        <ele>1467.18</ele>
        <time>2019-09-09T06:27:26Z</time>
      </trkpt>
      <trkpt lat="41.80338" lon="9.21397">
        <ele>1467.99</ele>
        <time>2019-09-09T06:27:39Z</time>
      </trkpt>
      <trkpt lat="41.80341" lon="9.21397">
        <ele>1470</ele>
        <time>2019-09-09T06:27:52Z</time>
      </trkpt>
      <trkpt lat="41.80343" lon="9.21397">
        <ele>1472.4</ele>
        <time>2019-09-09T06:28:05Z</time>
      </trkpt>
      <trkpt lat="41.80348" lon="9.21397">
        <ele>1474.41</ele>
        <time>2019-09-09T06:28:18Z</time>
      </trkpt>
      <trkpt lat="41.80349" lon="9.21402">
        <ele>1477.69</ele>
        <time>2019-09-09T06:28:33Z</time>
      </trkpt>
      <trkpt lat="41.80349" lon="9.2141">
        <ele>1480.1</ele>
        <time>2019-09-09T06:28:48Z</time>
      </trkpt>
      <trkpt lat="41.80353" lon="9.2141">
        <ele>1480.18</ele>
        <time>2019-09-09T06:28:59Z</time>
      </trkpt>
      <trkpt lat="41.80359" lon="9.21412">
        <ele>1482.67</ele>
        <time>2019-09-09T06:29:14Z</time>
      </trkpt>
      <trkpt lat="41.80362" lon="9.21414">
        <ele>1484.97</ele>
        <time>2019-09-09T06:29:27Z</time>
      </trkpt>
      <trkpt lat="41.80367" lon="9.21416">
        <ele>1487.4</ele>
        <time>2019-09-09T06:29:43Z</time>
      </trkpt>
      <trkpt lat="41.8037" lon="9.21416">
        <ele>1489.11</ele>
        <time>2019-09-09T06:29:56Z</time>
      </trkpt>
      <trkpt lat="41.80377" lon="9.21418">
        <ele>1491.27</ele>
        <time>2019-09-09T06:30:10Z</time>
      </trkpt>
      <trkpt lat="41.80383" lon="9.21426">
        <ele>1493.21</ele>
        <time>2019-09-09T06:30:25Z</time>
      </trkpt>
      <trkpt lat="41.80386" lon="9.21428">
        <ele>1495.38</ele>
        <time>2019-09-09T06:30:38Z</time>
      </trkpt>
      <trkpt lat="41.80388" lon="9.21435">
        <ele>1496.92</ele>
        <time>2019-09-09T06:30:52Z</time>
      </trkpt>
      <trkpt lat="41.8039" lon="9.21446">
        <ele>1498.03</ele>
        <time>2019-09-09T06:31:06Z</time>
      </trkpt>
      <trkpt lat="41.80397" lon="9.21443">
        <ele>1498.84</ele>
        <time>2019-09-09T06:31:20Z</time>
      </trkpt>
      <trkpt lat="41.80401" lon="9.2144">
        <ele>1500.31</ele>
        <time>2019-09-09T06:31:34Z</time>
      </trkpt>
      <trkpt lat="41.80405" lon="9.21438">
        <ele>1501.81</ele>
        <time>2019-09-09T06:31:47Z</time>
      </trkpt>
      <trkpt lat="41.80407" lon="9.2144">
        <ele>1505.08</ele>
        <time>2019-09-09T06:32:01Z</time>
      </trkpt>
      <trkpt lat="41.80411" lon="9.21445">
        <ele>1506.12</ele>
        <time>2019-09-09T06:32:14Z</time>
      </trkpt>
      <trkpt lat="41.80414" lon="9.21448">
        <ele>1509.52</ele>
        <time>2019-09-09T06:32:27Z</time>
      </trkpt>
      <trkpt lat="41.80417" lon="9.21448">
        <ele>1510.28</ele>
        <time>2019-09-09T06:32:42Z</time>
      </trkpt>
      <trkpt lat="41.80419" lon="9.21449">
        <ele>1512.19</ele>
        <time>2019-09-09T06:32:54Z</time>
      </trkpt>
      <trkpt lat="41.80423" lon="9.21454">
        <ele>1515.97</ele>
        <time>2019-09-09T06:33:11Z</time>
      </trkpt>
      <trkpt lat="41.80427" lon="9.21457">
        <ele>1516.31</ele>
        <time>2019-09-09T06:33:25Z</time>
      </trkpt>
      <trkpt lat="41.8043" lon="9.21463">
        <ele>1518.43</ele>
        <time>2019-09-09T06:33:39Z</time>
      </trkpt>
      <trkpt lat="41.80434" lon="9.21472">
        <ele>1520</ele>
        <time>2019-09-09T06:33:53Z</time>
      </trkpt>
      <trkpt lat="41.80438" lon="9.21475">
        <ele>1521.26</ele>
        <time>2019-09-09T06:34:07Z</time>
      </trkpt>
      <trkpt lat="41.8044" lon="9.21474">
        <ele>1523</ele>
        <time>2019-09-09T06:34:19Z</time>
      </trkpt>
      <trkpt lat="41.80441" lon="9.21478">
        <ele>1523.41</ele>
        <time>2019-09-09T06:34:24Z</time>
      </trkpt>
      <trkpt lat="41.80448" lon="9.21483">
        <ele>1524.07</ele>
        <time>2019-09-09T06:34:39Z</time>
      </trkpt>
      <trkpt lat="41.80455" lon="9.21485">
        <ele>1525.37</ele>
        <time>2019-09-09T06:34:52Z</time>
      </trkpt>
      <trkpt lat="41.80457" lon="9.21483">
        <ele>1526.65</ele>
        <time>2019-09-09T06:35:09Z</time>
      </trkpt>
      <trkpt lat="41.80458" lon="9.21479">
        <ele>1527.4</ele>
        <time>2019-09-09T06:35:20Z</time>
      </trkpt>
      <trkpt lat="41.8046" lon="9.21481">
        <ele>1529.69</ele>
        <time>2019-09-09T06:35:37Z</time>
      </trkpt>
      <trkpt lat="41.80462" lon="9.21486">
        <ele>1531.16</ele>
        <time>2019-09-09T06:35:50Z</time>
      </trkpt>
      <trkpt lat="41.80469" lon="9.21486">
        <ele>1532.74</ele>
        <time>2019-09-09T06:36:03Z</time>
      </trkpt>
      <trkpt lat="41.80471" lon="9.21486">
        <ele>1532.76</ele>
        <time>2019-09-09T06:36:06Z</time>
      </trkpt>
      <trkpt lat="41.80477" lon="9.21488">
        <ele>1533.36</ele>
        <time>2019-09-09T06:36:19Z</time>
      </trkpt>
      <trkpt lat="41.8048" lon="9.21493">
        <ele>1532.45</ele>
        <time>2019-09-09T06:36:31Z</time>
      </trkpt>
      <trkpt lat="41.80486" lon="9.21499">
        <ele>1532.69</ele>
        <time>2019-09-09T06:36:45Z</time>
      </trkpt>
      <trkpt lat="41.80492" lon="9.21501">
        <ele>1534.81</ele>
        <time>2019-09-09T06:37:00Z</time>
      </trkpt>
      <trkpt lat="41.80498" lon="9.21501">
        <ele>1536.3</ele>
        <time>2019-09-09T06:37:14Z</time>
      </trkpt>
      <trkpt lat="41.80507" lon="9.21505">
        <ele>1536.21</ele>
        <time>2019-09-09T06:37:29Z</time>
      </trkpt>
      <trkpt lat="41.80513" lon="9.21507">
        <ele>1536.4</ele>
        <time>2019-09-09T06:37:42Z</time>
      </trkpt>
      <trkpt lat="41.80523" lon="9.21508">
        <ele>1537.27</ele>
        <time>2019-09-09T06:37:57Z</time>
      </trkpt>
      <trkpt lat="41.80529" lon="9.21508">
        <ele>1538.54</ele>
        <time>2019-09-09T06:38:09Z</time>
      </trkpt>
      <trkpt lat="41.80539" lon="9.21509">
        <ele>1538.17</ele>
        <time>2019-09-09T06:38:23Z</time>
      </trkpt>
      <trkpt lat="41.80546" lon="9.21505">
        <ele>1537.87</ele>
        <time>2019-09-09T06:38:37Z</time>
      </trkpt>
      <trkpt lat="41.80549" lon="9.21506">
        <ele>1537.23</ele>
        <time>2019-09-09T06:38:45Z</time>
      </trkpt>
      <trkpt lat="41.80552" lon="9.21504">
        <ele>1537.05</ele>
        <time>2019-09-09T06:38:48Z</time>
      </trkpt>
      <trkpt lat="41.8056" lon="9.21499">
        <ele>1536.5</ele>
        <time>2019-09-09T06:39:03Z</time>
      </trkpt>
      <trkpt lat="41.80564" lon="9.21495">
        <ele>1537.42</ele>
        <time>2019-09-09T06:39:20Z</time>
      </trkpt>
      <trkpt lat="41.80569" lon="9.21494">
        <ele>1539.57</ele>
        <time>2019-09-09T06:39:35Z</time>
      </trkpt>
      <trkpt lat="41.80572" lon="9.21494">
        <ele>1540.83</ele>
        <time>2019-09-09T06:39:48Z</time>
      </trkpt>
      <trkpt lat="41.80581" lon="9.21492">
        <ele>1542.11</ele>
        <time>2019-09-09T06:40:02Z</time>
      </trkpt>
      <trkpt lat="41.80588" lon="9.21489">
        <ele>1543.11</ele>
        <time>2019-09-09T06:40:17Z</time>
      </trkpt>
      <trkpt lat="41.8059" lon="9.21488">
        <ele>1542.85</ele>
        <time>2019-09-09T06:40:19Z</time>
      </trkpt>
      <trkpt lat="41.80601" lon="9.21484">
        <ele>1543.58</ele>
        <time>2019-09-09T06:40:33Z</time>
      </trkpt>
      <trkpt lat="41.80598" lon="9.21478">
        <ele>1546.58</ele>
        <time>2019-09-09T06:40:46Z</time>
      </trkpt>
      <trkpt lat="41.80602" lon="9.21471">
        <ele>1547.98</ele>
        <time>2019-09-09T06:41:00Z</time>
      </trkpt>
      <trkpt lat="41.80608" lon="9.21466">
        <ele>1549.46</ele>
        <time>2019-09-09T06:41:12Z</time>
      </trkpt>
      <trkpt lat="41.80615" lon="9.2146">
        <ele>1551.14</ele>
        <time>2019-09-09T06:41:26Z</time>
      </trkpt>
      <trkpt lat="41.8062" lon="9.21451">
        <ele>1552.07</ele>
        <time>2019-09-09T06:41:42Z</time>
      </trkpt>
      <trkpt lat="41.80626" lon="9.21447">
        <ele>1553.93</ele>
        <time>2019-09-09T06:41:58Z</time>
      </trkpt>
      <trkpt lat="41.80629" lon="9.21435">
        <ele>1554.86</ele>
        <time>2019-09-09T06:42:14Z</time>
      </trkpt>
      <trkpt lat="41.80633" lon="9.21429">
        <ele>1556.86</ele>
        <time>2019-09-09T06:42:29Z</time>
      </trkpt>
      <trkpt lat="41.80638" lon="9.21423">
        <ele>1559.09</ele>
        <time>2019-09-09T06:42:44Z</time>
      </trkpt>
      <trkpt lat="41.80643" lon="9.21423">
        <ele>1561.15</ele>
        <time>2019-09-09T06:42:59Z</time>
      </trkpt>
      <trkpt lat="41.8065" lon="9.21427">
        <ele>1563.83</ele>
        <time>2019-09-09T06:43:14Z</time>
      </trkpt>
      <trkpt lat="41.80658" lon="9.21428">
        <ele>1566.42</ele>
        <time>2019-09-09T06:43:29Z</time>
      </trkpt>
      <trkpt lat="41.80666" lon="9.21425">
        <ele>1568.63</ele>
        <time>2019-09-09T06:43:44Z</time>
      </trkpt>
      <trkpt lat="41.80674" lon="9.21429">
        <ele>1571.59</ele>
        <time>2019-09-09T06:44:00Z</time>
      </trkpt>
      <trkpt lat="41.80685" lon="9.21429">
        <ele>1573.71</ele>
        <time>2019-09-09T06:44:16Z</time>
      </trkpt>
      <trkpt lat="41.80694" lon="9.21428">
        <ele>1575.91</ele>
        <time>2019-09-09T06:44:32Z</time>
      </trkpt>
      <trkpt lat="41.807" lon="9.21425">
        <ele>1577.99</ele>
        <time>2019-09-09T06:44:46Z</time>
      </trkpt>
      <trkpt lat="41.80707" lon="9.21419">
        <ele>1580.43</ele>
        <time>2019-09-09T06:45:00Z</time>
      </trkpt>
      <trkpt lat="41.80711" lon="9.21412">
        <ele>1583.08</ele>
        <time>2019-09-09T06:45:16Z</time>
      </trkpt>
      <trkpt lat="41.80714" lon="9.21408">
        <ele>1584.95</ele>
        <time>2019-09-09T06:45:28Z</time>
      </trkpt>
      <trkpt lat="41.80719" lon="9.21397">
        <ele>1587.73</ele>
        <time>2019-09-09T06:45:45Z</time>
      </trkpt>
      <trkpt lat="41.80727" lon="9.21393">
        <ele>1590.39</ele>
        <time>2019-09-09T06:46:00Z</time>
      </trkpt>
      <trkpt lat="41.80735" lon="9.21394">
        <ele>1592.71</ele>
        <time>2019-09-09T06:46:16Z</time>
      </trkpt>
      <trkpt lat="41.80741" lon="9.21387">
        <ele>1595.17</ele>
        <time>2019-09-09T06:46:32Z</time>
      </trkpt>
      <trkpt lat="41.80748" lon="9.21388">
        <ele>1597.4</ele>
        <time>2019-09-09T06:46:47Z</time>
      </trkpt>
      <trkpt lat="41.80753" lon="9.21383">
        <ele>1599.54</ele>
        <time>2019-09-09T06:47:01Z</time>
      </trkpt>
      <trkpt lat="41.80757" lon="9.21376">
        <ele>1601.39</ele>
        <time>2019-09-09T06:47:16Z</time>
      </trkpt>
      <trkpt lat="41.80762" lon="9.21377">
        <ele>1603.17</ele>
        <time>2019-09-09T06:47:31Z</time>
      </trkpt>
      <trkpt lat="41.80765" lon="9.21371">
        <ele>1605.05</ele>
        <time>2019-09-09T06:47:46Z</time>
      </trkpt>
      <trkpt lat="41.8077" lon="9.21372">
        <ele>1607.28</ele>
        <time>2019-09-09T06:48:00Z</time>
      </trkpt>
      <trkpt lat="41.80776" lon="9.21373">
        <ele>1609.74</ele>
        <time>2019-09-09T06:48:15Z</time>
      </trkpt>
      <trkpt lat="41.80778" lon="9.21368">
        <ele>1611.42</ele>
        <time>2019-09-09T06:48:27Z</time>
      </trkpt>
      <trkpt lat="41.80779" lon="9.21359">
        <ele>1613.51</ele>
        <time>2019-09-09T06:48:42Z</time>
      </trkpt>
      <trkpt lat="41.80785" lon="9.2136">
        <ele>1615.75</ele>
        <time>2019-09-09T06:48:57Z</time>
      </trkpt>
      <trkpt lat="41.8079" lon="9.21362">
        <ele>1618.37</ele>
        <time>2019-09-09T06:49:11Z</time>
      </trkpt>
      <trkpt lat="41.80795" lon="9.2136">
        <ele>1620.11</ele>
        <time>2019-09-09T06:49:24Z</time>
      </trkpt>
      <trkpt lat="41.808" lon="9.21361">
        <ele>1621.89</ele>
        <time>2019-09-09T06:49:36Z</time>
      </trkpt>
      <trkpt lat="41.80812" lon="9.21357">
        <ele>1623.56</ele>
        <time>2019-09-09T06:49:52Z</time>
      </trkpt>
      <trkpt lat="41.80816" lon="9.21354">
        <ele>1624.25</ele>
        <time>2019-09-09T06:50:07Z</time>
      </trkpt>
      <trkpt lat="41.80823" lon="9.21353">
        <ele>1625.82</ele>
        <time>2019-09-09T06:50:21Z</time>
      </trkpt>
      <trkpt lat="41.80832" lon="9.21353">
        <ele>1628.06</ele>
        <time>2019-09-09T06:50:35Z</time>
      </trkpt>
      <trkpt lat="41.80833" lon="9.21353">
        <ele>1628.2</ele>
        <time>2019-09-09T06:50:36Z</time>
      </trkpt>
      <trkpt lat="41.80842" lon="9.21355">
        <ele>1630.99</ele>
        <time>2019-09-09T06:50:50Z</time>
      </trkpt>
      <trkpt lat="41.8085" lon="9.21357">
        <ele>1633.52</ele>
        <time>2019-09-09T06:51:04Z</time>
      </trkpt>
      <trkpt lat="41.80858" lon="9.21359">
        <ele>1636.04</ele>
        <time>2019-09-09T06:51:19Z</time>
      </trkpt>
      <trkpt lat="41.80864" lon="9.21361">
        <ele>1637.75</ele>
        <time>2019-09-09T06:51:29Z</time>
      </trkpt>
      <trkpt lat="41.80875" lon="9.21365">
        <ele>1640.39</ele>
        <time>2019-09-09T06:51:45Z</time>
      </trkpt>
      <trkpt lat="41.80884" lon="9.21375">
        <ele>1643.36</ele>
        <time>2019-09-09T06:52:02Z</time>
      </trkpt>
      <trkpt lat="41.80892" lon="9.21381">
        <ele>1645.84</ele>
        <time>2019-09-09T06:52:17Z</time>
      </trkpt>
      <trkpt lat="41.80896" lon="9.21383">
        <ele>1647.33</ele>
        <time>2019-09-09T06:52:31Z</time>
      </trkpt>
      <trkpt lat="41.80896" lon="9.21386">
        <ele>1647.24</ele>
        <time>2019-09-09T06:52:45Z</time>
      </trkpt>
      <trkpt lat="41.80895" lon="9.21384">
        <ele>1646.84</ele>
        <time>2019-09-09T06:53:03Z</time>
      </trkpt>
      <trkpt lat="41.80895" lon="9.21387">
        <ele>1646.12</ele>
        <time>2019-09-09T06:53:26Z</time>
      </trkpt>
      <trkpt lat="41.80894" lon="9.21387">
        <ele>1646.78</ele>
        <time>2019-09-09T06:53:46Z</time>
      </trkpt>
      <trkpt lat="41.80896" lon="9.21383">
        <ele>1646.89</ele>
        <time>2019-09-09T06:54:05Z</time>
      </trkpt>
      <trkpt lat="41.80897" lon="9.21382">
        <ele>1646.92</ele>
        <time>2019-09-09T06:54:22Z</time>
      </trkpt>
      <trkpt lat="41.809" lon="9.21377">
        <ele>1647.74</ele>
        <time>2019-09-09T06:54:37Z</time>
      </trkpt>
      <trkpt lat="41.80902" lon="9.21374">
        <ele>1648.44</ele>
        <time>2019-09-09T06:54:51Z</time>
      </trkpt>
      <trkpt lat="41.80906" lon="9.21379">
        <ele>1648.64</ele>
        <time>2019-09-09T06:55:05Z</time>
      </trkpt>
      <trkpt lat="41.80912" lon="9.2138">
        <ele>1649</ele>
        <time>2019-09-09T06:55:19Z</time>
      </trkpt>
      <trkpt lat="41.80917" lon="9.21378">
        <ele>1649.33</ele>
        <time>2019-09-09T06:55:35Z</time>
      </trkpt>
      <trkpt lat="41.80916" lon="9.21375">
        <ele>1648.76</ele>
        <time>2019-09-09T06:55:50Z</time>
      </trkpt>
      <trkpt lat="41.80915" lon="9.21375">
        <ele>1648.52</ele>
        <time>2019-09-09T06:56:15Z</time>
      </trkpt>
      <trkpt lat="41.80915" lon="9.21374">
        <ele>1648.36</ele>
        <time>2019-09-09T06:56:56Z</time>
      </trkpt>
      <trkpt lat="41.80915" lon="9.21372">
        <ele>1648.39</ele>
        <time>2019-09-09T06:57:28Z</time>
      </trkpt>
      <trkpt lat="41.80914" lon="9.21373">
        <ele>1649.29</ele>
        <time>2019-09-09T06:58:07Z</time>
      </trkpt>
      <trkpt lat="41.80914" lon="9.21375">
        <ele>1650.35</ele>
        <time>2019-09-09T06:58:41Z</time>
      </trkpt>
      <trkpt lat="41.80919" lon="9.21376">
        <ele>1651.78</ele>
        <time>2019-09-09T06:59:00Z</time>
      </trkpt>
      <trkpt lat="41.80926" lon="9.21376">
        <ele>1653.44</ele>
        <time>2019-09-09T06:59:13Z</time>
      </trkpt>
      <trkpt lat="41.80936" lon="9.21378">
        <ele>1655.1</ele>
        <time>2019-09-09T06:59:27Z</time>
      </trkpt>
      <trkpt lat="41.80945" lon="9.21381">
        <ele>1656.51</ele>
        <time>2019-09-09T06:59:41Z</time>
      </trkpt>
      <trkpt lat="41.80956" lon="9.21382">
        <ele>1657.93</ele>
        <time>2019-09-09T06:59:57Z</time>
      </trkpt>
      <trkpt lat="41.80965" lon="9.21384">
        <ele>1660.08</ele>
        <time>2019-09-09T07:00:14Z</time>
      </trkpt>
      <trkpt lat="41.80972" lon="9.21387">
        <ele>1661.25</ele>
        <time>2019-09-09T07:00:27Z</time>
      </trkpt>
      <trkpt lat="41.80979" lon="9.2139">
        <ele>1663.02</ele>
        <time>2019-09-09T07:00:43Z</time>
      </trkpt>
      <trkpt lat="41.80988" lon="9.21393">
        <ele>1664.91</ele>
        <time>2019-09-09T07:01:00Z</time>
      </trkpt>
      <trkpt lat="41.80995" lon="9.21389">
        <ele>1666.9</ele>
        <time>2019-09-09T07:01:15Z</time>
      </trkpt>
      <trkpt lat="41.81002" lon="9.21389">
        <ele>1668.72</ele>
        <time>2019-09-09T07:01:29Z</time>
      </trkpt>
      <trkpt lat="41.81011" lon="9.21385">
        <ele>1669.95</ele>
        <time>2019-09-09T07:01:44Z</time>
      </trkpt>
      <trkpt lat="41.81017" lon="9.21385">
        <ele>1671.3</ele>
        <time>2019-09-09T07:01:57Z</time>
      </trkpt>
      <trkpt lat="41.81021" lon="9.21381">
        <ele>1672</ele>
        <time>2019-09-09T07:02:11Z</time>
      </trkpt>
      <trkpt lat="41.81028" lon="9.2138">
        <ele>1673.31</ele>
        <time>2019-09-09T07:02:25Z</time>
      </trkpt>
      <trkpt lat="41.8104" lon="9.21378">
        <ele>1673.52</ele>
        <time>2019-09-09T07:02:41Z</time>
      </trkpt>
      <trkpt lat="41.81047" lon="9.21381">
        <ele>1673.04</ele>
        <time>2019-09-09T07:02:55Z</time>
      </trkpt>
      <trkpt lat="41.81048" lon="9.21381">
        <ele>1673.04</ele>
        <time>2019-09-09T07:02:58Z</time>
      </trkpt>
      <trkpt lat="41.81053" lon="9.21386">
        <ele>1673.8</ele>
        <time>2019-09-09T07:03:13Z</time>
      </trkpt>
      <trkpt lat="41.81057" lon="9.2139">
        <ele>1674.79</ele>
        <time>2019-09-09T07:03:25Z</time>
      </trkpt>
      <trkpt lat="41.81066" lon="9.21396">
        <ele>1676.03</ele>
        <time>2019-09-09T07:03:39Z</time>
      </trkpt>
      <trkpt lat="41.81074" lon="9.21399">
        <ele>1676.64</ele>
        <time>2019-09-09T07:03:53Z</time>
      </trkpt>
      <trkpt lat="41.8108" lon="9.21402">
        <ele>1677.25</ele>
        <time>2019-09-09T07:04:08Z</time>
      </trkpt>
      <trkpt lat="41.81084" lon="9.21411">
        <ele>1677.76</ele>
        <time>2019-09-09T07:04:24Z</time>
      </trkpt>
      <trkpt lat="41.81086" lon="9.21419">
        <ele>1678.86</ele>
        <time>2019-09-09T07:04:38Z</time>
      </trkpt>
      <trkpt lat="41.81089" lon="9.21426">
        <ele>1680.75</ele>
        <time>2019-09-09T07:04:53Z</time>
      </trkpt>
      <trkpt lat="41.81093" lon="9.21433">
        <ele>1681.66</ele>
        <time>2019-09-09T07:05:08Z</time>
      </trkpt>
      <trkpt lat="41.811" lon="9.21436">
        <ele>1680.2</ele>
        <time>2019-09-09T07:05:21Z</time>
      </trkpt>
      <trkpt lat="41.8111" lon="9.21438">
        <ele>1678.56</ele>
        <time>2019-09-09T07:05:36Z</time>
      </trkpt>
      <trkpt lat="41.81119" lon="9.2144">
        <ele>1677.03</ele>
        <time>2019-09-09T07:05:51Z</time>
      </trkpt>
      <trkpt lat="41.81125" lon="9.21444">
        <ele>1676.86</ele>
        <time>2019-09-09T07:06:04Z</time>
      </trkpt>
      <trkpt lat="41.81131" lon="9.21443">
        <ele>1676.61</ele>
        <time>2019-09-09T07:06:19Z</time>
      </trkpt>
      <trkpt lat="41.81134" lon="9.2144">
        <ele>1675.65</ele>
        <time>2019-09-09T07:06:33Z</time>
      </trkpt>
      <trkpt lat="41.81139" lon="9.21439">
        <ele>1675.07</ele>
        <time>2019-09-09T07:06:46Z</time>
      </trkpt>
      <trkpt lat="41.81144" lon="9.21437">
        <ele>1673.59</ele>
        <time>2019-09-09T07:07:00Z</time>
      </trkpt>
      <trkpt lat="41.81147" lon="9.21434">
        <ele>1672</ele>
        <time>2019-09-09T07:07:14Z</time>
      </trkpt>
      <trkpt lat="41.81149" lon="9.21433">
        <ele>1671.22</ele>
        <time>2019-09-09T07:07:32Z</time>
      </trkpt>
      <trkpt lat="41.81153" lon="9.21428">
        <ele>1666.87</ele>
        <time>2019-09-09T07:07:45Z</time>
      </trkpt>
      <trkpt lat="41.81163" lon="9.21424">
        <ele>1662.66</ele>
        <time>2019-09-09T07:08:01Z</time>
      </trkpt>
      <trkpt lat="41.81163" lon="9.21422">
        <ele>1665.01</ele>
        <time>2019-09-09T07:08:16Z</time>
      </trkpt>
      <trkpt lat="41.81169" lon="9.21416">
        <ele>1663.47</ele>
        <time>2019-09-09T07:08:31Z</time>
      </trkpt>
      <trkpt lat="41.81175" lon="9.21422">
        <ele>1660.01</ele>
        <time>2019-09-09T07:08:46Z</time>
      </trkpt>
      <trkpt lat="41.81182" lon="9.21426">
        <ele>1657.63</ele>
        <time>2019-09-09T07:09:00Z</time>
      </trkpt>
      <trkpt lat="41.81187" lon="9.2142">
        <ele>1656.2</ele>
        <time>2019-09-09T07:09:15Z</time>
      </trkpt>
      <trkpt lat="41.81195" lon="9.21415">
        <ele>1655.74</ele>
        <time>2019-09-09T07:09:28Z</time>
      </trkpt>
      <trkpt lat="41.81201" lon="9.21413">
        <ele>1656.58</ele>
        <time>2019-09-09T07:09:39Z</time>
      </trkpt>
      <trkpt lat="41.81212" lon="9.21407">
        <ele>1655.8</ele>
        <time>2019-09-09T07:09:53Z</time>
      </trkpt>
      <trkpt lat="41.81217" lon="9.21406">
        <ele>1655.55</ele>
        <time>2019-09-09T07:10:08Z</time>
      </trkpt>
      <trkpt lat="41.81224" lon="9.21408">
        <ele>1655.86</ele>
        <time>2019-09-09T07:10:21Z</time>
      </trkpt>
      <trkpt lat="41.81233" lon="9.21406">
        <ele>1655.48</ele>
        <time>2019-09-09T07:10:34Z</time>
      </trkpt>
      <trkpt lat="41.81238" lon="9.214">
        <ele>1653.18</ele>
        <time>2019-09-09T07:10:49Z</time>
      </trkpt>
      <trkpt lat="41.81242" lon="9.21399">
        <ele>1650.37</ele>
        <time>2019-09-09T07:11:03Z</time>
      </trkpt>
      <trkpt lat="41.81244" lon="9.21396">
        <ele>1647.56</ele>
        <time>2019-09-09T07:11:15Z</time>
      </trkpt>
      <trkpt lat="41.81249" lon="9.2139">
        <ele>1644.1</ele>
        <time>2019-09-09T07:11:31Z</time>
      </trkpt>
      <trkpt lat="41.81247" lon="9.21386">
        <ele>1641.61</ele>
        <time>2019-09-09T07:11:46Z</time>
      </trkpt>
      <trkpt lat="41.8125" lon="9.21383">
        <ele>1638.95</ele>
        <time>2019-09-09T07:12:00Z</time>
      </trkpt>
      <trkpt lat="41.81247" lon="9.21381">
        <ele>1635.69</ele>
        <time>2019-09-09T07:12:15Z</time>
      </trkpt>
      <trkpt lat="41.81245" lon="9.21377">
        <ele>1633.64</ele>
        <time>2019-09-09T07:12:28Z</time>
      </trkpt>
      <trkpt lat="41.81248" lon="9.21375">
        <ele>1632.02</ele>
        <time>2019-09-09T07:12:46Z</time>
      </trkpt>
      <trkpt lat="41.81245" lon="9.2137">
        <ele>1630.22</ele>
        <time>2019-09-09T07:13:01Z</time>
      </trkpt>
      <trkpt lat="41.81248" lon="9.21364">
        <ele>1629.21</ele>
        <time>2019-09-09T07:13:13Z</time>
      </trkpt>
      <trkpt lat="41.81253" lon="9.21361">
        <ele>1627.2</ele>
        <time>2019-09-09T07:13:27Z</time>
      </trkpt>
      <trkpt lat="41.81259" lon="9.21358">
        <ele>1625.78</ele>
        <time>2019-09-09T07:13:38Z</time>
      </trkpt>
      <trkpt lat="41.81262" lon="9.21357">
        <ele>1624.92</ele>
        <time>2019-09-09T07:13:43Z</time>
      </trkpt>
      <trkpt lat="41.81273" lon="9.21357">
        <ele>1623.43</ele>
        <time>2019-09-09T07:13:57Z</time>
      </trkpt>
      <trkpt lat="41.81276" lon="9.21355">
        <ele>1622.5</ele>
        <time>2019-09-09T07:14:13Z</time>
      </trkpt>
      <trkpt lat="41.81277" lon="9.21349">
        <ele>1621.44</ele>
        <time>2019-09-09T07:14:30Z</time>
      </trkpt>
      <trkpt lat="41.81279" lon="9.21343">
        <ele>1620.41</ele>
        <time>2019-09-09T07:14:45Z</time>
      </trkpt>
      <trkpt lat="41.81286" lon="9.2134">
        <ele>1618.97</ele>
        <time>2019-09-09T07:15:00Z</time>
      </trkpt>
      <trkpt lat="41.8129" lon="9.21339">
        <ele>1619.5</ele>
        <time>2019-09-09T07:15:14Z</time>
      </trkpt>
      <trkpt lat="41.81294" lon="9.21334">
        <ele>1618.93</ele>
        <time>2019-09-09T07:15:23Z</time>
      </trkpt>
      <trkpt lat="41.81299" lon="9.21333">
        <ele>1618.5</ele>
        <time>2019-09-09T07:15:28Z</time>
      </trkpt>
      <trkpt lat="41.81302" lon="9.21333">
        <ele>1618.43</ele>
        <time>2019-09-09T07:15:32Z</time>
      </trkpt>
      <trkpt lat="41.81308" lon="9.21333">
        <ele>1617.97</ele>
        <time>2019-09-09T07:15:48Z</time>
      </trkpt>
      <trkpt lat="41.81314" lon="9.21328">
        <ele>1617.15</ele>
        <time>2019-09-09T07:16:02Z</time>
      </trkpt>
      <trkpt lat="41.81322" lon="9.21325">
        <ele>1616.54</ele>
        <time>2019-09-09T07:16:22Z</time>
      </trkpt>
      <trkpt lat="41.81329" lon="9.21321">
        <ele>1615.61</ele>
        <time>2019-09-09T07:16:33Z</time>
      </trkpt>
      <trkpt lat="41.81333" lon="9.21322">
        <ele>1615.06</ele>
        <time>2019-09-09T07:16:36Z</time>
      </trkpt>
      <trkpt lat="41.81344" lon="9.21329">
        <ele>1613.62</ele>
        <time>2019-09-09T07:16:50Z</time>
      </trkpt>
      <trkpt lat="41.81349" lon="9.21335">
        <ele>1612.7</ele>
        <time>2019-09-09T07:17:04Z</time>
      </trkpt>
      <trkpt lat="41.81357" lon="9.21343">
        <ele>1610.49</ele>
        <time>2019-09-09T07:17:17Z</time>
      </trkpt>
      <trkpt lat="41.81369" lon="9.21348">
        <ele>1608.89</ele>
        <time>2019-09-09T07:17:31Z</time>
      </trkpt>
      <trkpt lat="41.81378" lon="9.21345">
        <ele>1607.03</ele>
        <time>2019-09-09T07:17:47Z</time>
      </trkpt>
      <trkpt lat="41.8138" lon="9.2134">
        <ele>1603.67</ele>
        <time>2019-09-09T07:18:00Z</time>
      </trkpt>
      <trkpt lat="41.81391" lon="9.21339">
        <ele>1600.71</ele>
        <time>2019-09-09T07:18:15Z</time>
      </trkpt>
      <trkpt lat="41.81397" lon="9.21331">
        <ele>1597.93</ele>
        <time>2019-09-09T07:18:29Z</time>
      </trkpt>
      <trkpt lat="41.81403" lon="9.21324">
        <ele>1594.1</ele>
        <time>2019-09-09T07:18:43Z</time>
      </trkpt>
      <trkpt lat="41.81407" lon="9.21317">
        <ele>1591.28</ele>
        <time>2019-09-09T07:19:01Z</time>
      </trkpt>
      <trkpt lat="41.81406" lon="9.2131">
        <ele>1589.41</ele>
        <time>2019-09-09T07:19:17Z</time>
      </trkpt>
      <trkpt lat="41.81409" lon="9.21304">
        <ele>1586.67</ele>
        <time>2019-09-09T07:19:31Z</time>
      </trkpt>
      <trkpt lat="41.81406" lon="9.21299">
        <ele>1585.54</ele>
        <time>2019-09-09T07:19:45Z</time>
      </trkpt>
      <trkpt lat="41.81409" lon="9.21294">
        <ele>1584.65</ele>
        <time>2019-09-09T07:19:58Z</time>
      </trkpt>
      <trkpt lat="41.81411" lon="9.2129">
        <ele>1583.14</ele>
        <time>2019-09-09T07:20:14Z</time>
      </trkpt>
      <trkpt lat="41.81412" lon="9.21285">
        <ele>1581.72</ele>
        <time>2019-09-09T07:20:29Z</time>
      </trkpt>
      <trkpt lat="41.81413" lon="9.21281">
        <ele>1580.32</ele>
        <time>2019-09-09T07:20:43Z</time>
      </trkpt>
      <trkpt lat="41.81417" lon="9.21275">
        <ele>1578.33</ele>
        <time>2019-09-09T07:20:56Z</time>
      </trkpt>
      <trkpt lat="41.81424" lon="9.21275">
        <ele>1576.4</ele>
        <time>2019-09-09T07:21:10Z</time>
      </trkpt>
      <trkpt lat="41.81428" lon="9.21269">
        <ele>1575.53</ele>
        <time>2019-09-09T07:21:30Z</time>
      </trkpt>
      <trkpt lat="41.81428" lon="9.21263">
        <ele>1573.84</ele>
        <time>2019-09-09T07:21:50Z</time>
      </trkpt>
      <trkpt lat="41.81429" lon="9.21258">
        <ele>1572.5</ele>
        <time>2019-09-09T07:22:08Z</time>
      </trkpt>
      <trkpt lat="41.81431" lon="9.21248">
        <ele>1570.94</ele>
        <time>2019-09-09T07:22:28Z</time>
      </trkpt>
      <trkpt lat="41.81433" lon="9.21242">
        <ele>1569.26</ele>
        <time>2019-09-09T07:22:47Z</time>
      </trkpt>
      <trkpt lat="41.81434" lon="9.21236">
        <ele>1568.19</ele>
        <time>2019-09-09T07:23:06Z</time>
      </trkpt>
      <trkpt lat="41.81438" lon="9.2123">
        <ele>1565.75</ele>
        <time>2019-09-09T07:23:25Z</time>
      </trkpt>
      <trkpt lat="41.81443" lon="9.21227">
        <ele>1564.11</ele>
        <time>2019-09-09T07:23:41Z</time>
      </trkpt>
      <trkpt lat="41.81448" lon="9.21225">
        <ele>1561.57</ele>
        <time>2019-09-09T07:23:56Z</time>
      </trkpt>
      <trkpt lat="41.81456" lon="9.2122">
        <ele>1558.43</ele>
        <time>2019-09-09T07:24:12Z</time>
      </trkpt>
      <trkpt lat="41.81458" lon="9.21216">
        <ele>1556.93</ele>
        <time>2019-09-09T07:24:25Z</time>
      </trkpt>
      <trkpt lat="41.81452" lon="9.21213">
        <ele>1555.14</ele>
        <time>2019-09-09T07:24:38Z</time>
      </trkpt>
      <trkpt lat="41.81449" lon="9.21208">
        <ele>1552.16</ele>
        <time>2019-09-09T07:24:53Z</time>
      </trkpt>
      <trkpt lat="41.81448" lon="9.21201">
        <ele>1548.65</ele>
        <time>2019-09-09T07:25:07Z</time>
      </trkpt>
      <trkpt lat="41.81452" lon="9.21198">
        <ele>1546.93</ele>
        <time>2019-09-09T07:25:25Z</time>
      </trkpt>
      <trkpt lat="41.81455" lon="9.21191">
        <ele>1545.27</ele>
        <time>2019-09-09T07:25:44Z</time>
      </trkpt>
      <trkpt lat="41.81458" lon="9.21188">
        <ele>1544.46</ele>
        <time>2019-09-09T07:26:00Z</time>
      </trkpt>
      <trkpt lat="41.81466" lon="9.21182">
        <ele>1543.93</ele>
        <time>2019-09-09T07:26:18Z</time>
      </trkpt>
      <trkpt lat="41.81474" lon="9.21175">
        <ele>1541.85</ele>
        <time>2019-09-09T07:26:35Z</time>
      </trkpt>
      <trkpt lat="41.81482" lon="9.21162">
        <ele>1541.14</ele>
        <time>2019-09-09T07:26:55Z</time>
      </trkpt>
      <trkpt lat="41.81488" lon="9.21153">
        <ele>1540.18</ele>
        <time>2019-09-09T07:27:10Z</time>
      </trkpt>
      <trkpt lat="41.81493" lon="9.21143">
        <ele>1536.53</ele>
        <time>2019-09-09T07:27:26Z</time>
      </trkpt>
      <trkpt lat="41.81496" lon="9.21139">
        <ele>1533</ele>
        <time>2019-09-09T07:27:41Z</time>
      </trkpt>
      <trkpt lat="41.81498" lon="9.21139">
        <ele>1529.18</ele>
        <time>2019-09-09T07:28:01Z</time>
      </trkpt>
      <trkpt lat="41.81497" lon="9.21134">
        <ele>1526.41</ele>
        <time>2019-09-09T07:28:18Z</time>
      </trkpt>
      <trkpt lat="41.81501" lon="9.21136">
        <ele>1522.77</ele>
        <time>2019-09-09T07:28:31Z</time>
      </trkpt>
      <trkpt lat="41.81506" lon="9.21136">
        <ele>1518.66</ele>
        <time>2019-09-09T07:28:47Z</time>
      </trkpt>
      <trkpt lat="41.8151" lon="9.21136">
        <ele>1514.84</ele>
        <time>2019-09-09T07:29:02Z</time>
      </trkpt>
      <trkpt lat="41.81512" lon="9.21135">
        <ele>1512.44</ele>
        <time>2019-09-09T07:29:38Z</time>
      </trkpt>
      <trkpt lat="41.81518" lon="9.21143">
        <ele>1511.1</ele>
        <time>2019-09-09T07:29:54Z</time>
      </trkpt>
      <trkpt lat="41.81526" lon="9.21149">
        <ele>1510.14</ele>
        <time>2019-09-09T07:30:11Z</time>
      </trkpt>
      <trkpt lat="41.81537" lon="9.21155">
        <ele>1508.76</ele>
        <time>2019-09-09T07:30:27Z</time>
      </trkpt>
      <trkpt lat="41.81545" lon="9.21157">
        <ele>1508.02</ele>
        <time>2019-09-09T07:30:46Z</time>
      </trkpt>
      <trkpt lat="41.81556" lon="9.2116">
        <ele>1506.65</ele>
        <time>2019-09-09T07:31:03Z</time>
      </trkpt>
      <trkpt lat="41.81571" lon="9.21158">
        <ele>1506.4</ele>
        <time>2019-09-09T07:31:20Z</time>
      </trkpt>
      <trkpt lat="41.8158" lon="9.21166">
        <ele>1506.08</ele>
        <time>2019-09-09T07:31:38Z</time>
      </trkpt>
      <trkpt lat="41.81587" lon="9.21175">
        <ele>1504.21</ele>
        <time>2019-09-09T07:31:56Z</time>
      </trkpt>
      <trkpt lat="41.81594" lon="9.21179">
        <ele>1501.15</ele>
        <time>2019-09-09T07:32:11Z</time>
      </trkpt>
      <trkpt lat="41.81599" lon="9.21183">
        <ele>1497.28</ele>
        <time>2019-09-09T07:32:28Z</time>
      </trkpt>
      <trkpt lat="41.81605" lon="9.21188">
        <ele>1495.81</ele>
        <time>2019-09-09T07:32:44Z</time>
      </trkpt>
      <trkpt lat="41.8161" lon="9.2119">
        <ele>1495.01</ele>
        <time>2019-09-09T07:33:00Z</time>
      </trkpt>
      <trkpt lat="41.81615" lon="9.21189">
        <ele>1493.66</ele>
        <time>2019-09-09T07:33:17Z</time>
      </trkpt>
      <trkpt lat="41.8162" lon="9.21185">
        <ele>1490.44</ele>
        <time>2019-09-09T07:33:39Z</time>
      </trkpt>
      <trkpt lat="41.8162" lon="9.21187">
        <ele>1485.5</ele>
        <time>2019-09-09T07:34:14Z</time>
      </trkpt>
      <trkpt lat="41.81621" lon="9.2118">
        <ele>1484.36</ele>
        <time>2019-09-09T07:34:36Z</time>
      </trkpt>
      <trkpt lat="41.81625" lon="9.21173">
        <ele>1482.74</ele>
        <time>2019-09-09T07:34:55Z</time>
      </trkpt>
      <trkpt lat="41.81629" lon="9.2116">
        <ele>1481.86</ele>
        <time>2019-09-09T07:35:11Z</time>
      </trkpt>
      <trkpt lat="41.81633" lon="9.21147">
        <ele>1481.26</ele>
        <time>2019-09-09T07:35:27Z</time>
      </trkpt>
      <trkpt lat="41.81635" lon="9.21143">
        <ele>1481.18</ele>
        <time>2019-09-09T07:35:30Z</time>
      </trkpt>
      <trkpt lat="41.81635" lon="9.21126">
        <ele>1481.14</ele>
        <time>2019-09-09T07:35:39Z</time>
      </trkpt>
      <trkpt lat="41.81635" lon="9.21108">
        <ele>1483.17</ele>
        <time>2019-09-09T07:35:52Z</time>
      </trkpt>
      <trkpt lat="41.81639" lon="9.21099">
        <ele>1483.48</ele>
        <time>2019-09-09T07:36:04Z</time>
      </trkpt>
      <trkpt lat="41.81639" lon="9.21085">
        <ele>1483.48</ele>
        <time>2019-09-09T07:36:15Z</time>
      </trkpt>
      <trkpt lat="41.81641" lon="9.21076">
        <ele>1481.61</ele>
        <time>2019-09-09T07:36:33Z</time>
      </trkpt>
      <trkpt lat="41.81637" lon="9.2105">
        <ele>1475.59</ele>
        <time>2019-09-09T07:36:52Z</time>
      </trkpt>
      <trkpt lat="41.81632" lon="9.21037">
        <ele>1469.12</ele>
        <time>2019-09-09T07:37:08Z</time>
      </trkpt>
      <trkpt lat="41.81632" lon="9.21032">
        <ele>1460.77</ele>
        <time>2019-09-09T07:37:24Z</time>
      </trkpt>
      <trkpt lat="41.81638" lon="9.21033">
        <ele>1455.63</ele>
        <time>2019-09-09T07:37:42Z</time>
      </trkpt>
      <trkpt lat="41.81649" lon="9.21024">
        <ele>1449.2</ele>
        <time>2019-09-09T07:38:02Z</time>
      </trkpt>
      <trkpt lat="41.81659" lon="9.21018">
        <ele>1441.37</ele>
        <time>2019-09-09T07:38:20Z</time>
      </trkpt>
      <trkpt lat="41.81661" lon="9.21005">
        <ele>1434.09</ele>
        <time>2019-09-09T07:38:39Z</time>
      </trkpt>
      <trkpt lat="41.81665" lon="9.21004">
        <ele>1423.98</ele>
        <time>2019-09-09T07:39:18Z</time>
      </trkpt>
      <trkpt lat="41.8167" lon="9.21005">
        <ele>1420.97</ele>
        <time>2019-09-09T07:39:37Z</time>
      </trkpt>
      <trkpt lat="41.81676" lon="9.21003">
        <ele>1417.77</ele>
        <time>2019-09-09T07:39:53Z</time>
      </trkpt>
      <trkpt lat="41.81681" lon="9.20991">
        <ele>1417.08</ele>
        <time>2019-09-09T07:40:07Z</time>
      </trkpt>
      <trkpt lat="41.81686" lon="9.20983">
        <ele>1416.16</ele>
        <time>2019-09-09T07:40:24Z</time>
      </trkpt>
      <trkpt lat="41.81689" lon="9.20966">
        <ele>1414.66</ele>
        <time>2019-09-09T07:40:42Z</time>
      </trkpt>
      <trkpt lat="41.81688" lon="9.20951">
        <ele>1413.35</ele>
        <time>2019-09-09T07:40:59Z</time>
      </trkpt>
      <trkpt lat="41.81693" lon="9.20947">
        <ele>1412.95</ele>
        <time>2019-09-09T07:41:13Z</time>
      </trkpt>
      <trkpt lat="41.81701" lon="9.20941">
        <ele>1413.06</ele>
        <time>2019-09-09T07:41:31Z</time>
      </trkpt>
      <trkpt lat="41.81709" lon="9.20935">
        <ele>1413.14</ele>
        <time>2019-09-09T07:41:48Z</time>
      </trkpt>
      <trkpt lat="41.81717" lon="9.20916">
        <ele>1411.36</ele>
        <time>2019-09-09T07:42:06Z</time>
      </trkpt>
      <trkpt lat="41.81726" lon="9.20909">
        <ele>1410.31</ele>
        <time>2019-09-09T07:42:24Z</time>
      </trkpt>
      <trkpt lat="41.81735" lon="9.20888">
        <ele>1408</ele>
        <time>2019-09-09T07:42:40Z</time>
      </trkpt>
      <trkpt lat="41.81739" lon="9.20874">
        <ele>1404.88</ele>
        <time>2019-09-09T07:42:52Z</time>
      </trkpt>
      <trkpt lat="41.81738" lon="9.20863">
        <ele>1396.31</ele>
        <time>2019-09-09T07:43:11Z</time>
      </trkpt>
      <trkpt lat="41.81744" lon="9.20857">
        <ele>1389.51</ele>
        <time>2019-09-09T07:43:31Z</time>
      </trkpt>
      <trkpt lat="41.81748" lon="9.20847">
        <ele>1385.51</ele>
        <time>2019-09-09T07:43:49Z</time>
      </trkpt>
      <trkpt lat="41.81748" lon="9.20835">
        <ele>1379.11</ele>
        <time>2019-09-09T07:44:05Z</time>
      </trkpt>
      <trkpt lat="41.81748" lon="9.20827">
        <ele>1375.64</ele>
        <time>2019-09-09T07:44:23Z</time>
      </trkpt>
      <trkpt lat="41.81755" lon="9.20828">
        <ele>1372.61</ele>
        <time>2019-09-09T07:44:41Z</time>
      </trkpt>
      <trkpt lat="41.8176" lon="9.20824">
        <ele>1371.09</ele>
        <time>2019-09-09T07:44:57Z</time>
      </trkpt>
      <trkpt lat="41.81765" lon="9.20822">
        <ele>1368.85</ele>
        <time>2019-09-09T07:45:14Z</time>
      </trkpt>
      <trkpt lat="41.81776" lon="9.20821">
        <ele>1366.96</ele>
        <time>2019-09-09T07:45:32Z</time>
      </trkpt>
      <trkpt lat="41.81784" lon="9.20818">
        <ele>1365.43</ele>
        <time>2019-09-09T07:45:50Z</time>
      </trkpt>
      <trkpt lat="41.81792" lon="9.20811">
        <ele>1363.58</ele>
        <time>2019-09-09T07:46:08Z</time>
      </trkpt>
      <trkpt lat="41.81796" lon="9.20809">
        <ele>1360.08</ele>
        <time>2019-09-09T07:46:34Z</time>
      </trkpt>
      <trkpt lat="41.81798" lon="9.20807">
        <ele>1357.07</ele>
        <time>2019-09-09T07:46:56Z</time>
      </trkpt>
      <trkpt lat="41.81797" lon="9.20807">
        <ele>1354.72</ele>
        <time>2019-09-09T07:47:15Z</time>
      </trkpt>
      <trkpt lat="41.81803" lon="9.2081">
        <ele>1351.52</ele>
        <time>2019-09-09T07:47:39Z</time>
      </trkpt>
      <trkpt lat="41.818" lon="9.20808">
        <ele>1348.69</ele>
        <time>2019-09-09T07:48:12Z</time>
      </trkpt>
      <trkpt lat="41.81798" lon="9.20807">
        <ele>1347.36</ele>
        <time>2019-09-09T07:48:38Z</time>
      </trkpt>
      <trkpt lat="41.81797" lon="9.20804">
        <ele>1346.04</ele>
        <time>2019-09-09T07:49:07Z</time>
      </trkpt>
      <trkpt lat="41.81793" lon="9.20804">
        <ele>1345.24</ele>
        <time>2019-09-09T07:49:37Z</time>
      </trkpt>
      <trkpt lat="41.81799" lon="9.20803">
        <ele>1344.23</ele>
        <time>2019-09-09T07:50:06Z</time>
      </trkpt>
      <trkpt lat="41.81801" lon="9.20801">
        <ele>1341.97</ele>
        <time>2019-09-09T07:50:35Z</time>
      </trkpt>
      <trkpt lat="41.81804" lon="9.20804">
        <ele>1338.6</ele>
        <time>2019-09-09T07:51:03Z</time>
      </trkpt>
      <trkpt lat="41.81803" lon="9.20801">
        <ele>1338.25</ele>
        <time>2019-09-09T07:51:32Z</time>
      </trkpt>
      <trkpt lat="41.81802" lon="9.20802">
        <ele>1338.3</ele>
        <time>2019-09-09T07:51:56Z</time>
      </trkpt>
      <trkpt lat="41.81801" lon="9.20808">
        <ele>1336.95</ele>
        <time>2019-09-09T07:52:22Z</time>
      </trkpt>
      <trkpt lat="41.81808" lon="9.20821">
        <ele>1336.31</ele>
        <time>2019-09-09T07:52:41Z</time>
      </trkpt>
      <trkpt lat="41.81808" lon="9.20833">
        <ele>1336.9</ele>
        <time>2019-09-09T07:53:01Z</time>
      </trkpt>
      <trkpt lat="41.81807" lon="9.20839">
        <ele>1336.4</ele>
        <time>2019-09-09T07:53:19Z</time>
      </trkpt>
      <trkpt lat="41.81811" lon="9.20851">
        <ele>1336.31</ele>
        <time>2019-09-09T07:53:34Z</time>
      </trkpt>
      <trkpt lat="41.81813" lon="9.2086">
        <ele>1336.06</ele>
        <time>2019-09-09T07:53:51Z</time>
      </trkpt>
      <trkpt lat="41.81812" lon="9.20863">
        <ele>1336.01</ele>
        <time>2019-09-09T07:54:04Z</time>
      </trkpt>
      <trkpt lat="41.81815" lon="9.20868">
        <ele>1335.42</ele>
        <time>2019-09-09T07:54:20Z</time>
      </trkpt>
      <trkpt lat="41.81818" lon="9.20871">
        <ele>1335.45</ele>
        <time>2019-09-09T07:54:33Z</time>
      </trkpt>
      <trkpt lat="41.81823" lon="9.20876">
        <ele>1336.47</ele>
        <time>2019-09-09T07:54:48Z</time>
      </trkpt>
      <trkpt lat="41.81826" lon="9.20881">
        <ele>1337.87</ele>
        <time>2019-09-09T07:55:03Z</time>
      </trkpt>
      <trkpt lat="41.8183" lon="9.20886">
        <ele>1338.36</ele>
        <time>2019-09-09T07:55:20Z</time>
      </trkpt>
      <trkpt lat="41.81836" lon="9.20891">
        <ele>1339.57</ele>
        <time>2019-09-09T07:55:38Z</time>
      </trkpt>
      <trkpt lat="41.81837" lon="9.20891">
        <ele>1339.84</ele>
        <time>2019-09-09T07:55:40Z</time>
      </trkpt>
      <trkpt lat="41.81847" lon="9.209">
        <ele>1342.42</ele>
        <time>2019-09-09T07:55:56Z</time>
      </trkpt>
      <trkpt lat="41.81857" lon="9.20911">
        <ele>1346.05</ele>
        <time>2019-09-09T07:56:17Z</time>
      </trkpt>
      <trkpt lat="41.81859" lon="9.20915">
        <ele>1347.65</ele>
        <time>2019-09-09T07:56:32Z</time>
      </trkpt>
      <trkpt lat="41.81867" lon="9.20926">
        <ele>1349.95</ele>
        <time>2019-09-09T07:56:50Z</time>
      </trkpt>
      <trkpt lat="41.81875" lon="9.20937">
        <ele>1352.58</ele>
        <time>2019-09-09T07:57:08Z</time>
      </trkpt>
      <trkpt lat="41.81879" lon="9.20947">
        <ele>1354.58</ele>
        <time>2019-09-09T07:57:26Z</time>
      </trkpt>
      <trkpt lat="41.81888" lon="9.20962">
        <ele>1355.58</ele>
        <time>2019-09-09T07:57:43Z</time>
      </trkpt>
      <trkpt lat="41.81901" lon="9.20969">
        <ele>1355.96</ele>
        <time>2019-09-09T07:58:02Z</time>
      </trkpt>
      <trkpt lat="41.81909" lon="9.20965">
        <ele>1356.63</ele>
        <time>2019-09-09T07:58:17Z</time>
      </trkpt>
      <trkpt lat="41.81923" lon="9.20957">
        <ele>1359.06</ele>
        <time>2019-09-09T07:58:36Z</time>
      </trkpt>
      <trkpt lat="41.81938" lon="9.20959">
        <ele>1361.31</ele>
        <time>2019-09-09T07:58:51Z</time>
      </trkpt>
      <trkpt lat="41.81943" lon="9.20959">
        <ele>1361.5</ele>
        <time>2019-09-09T07:58:56Z</time>
      </trkpt>
      <trkpt lat="41.81958" lon="9.20955">
        <ele>1361.03</ele>
        <time>2019-09-09T07:59:12Z</time>
      </trkpt>
      <trkpt lat="41.81959" lon="9.20955">
        <ele>1361.05</ele>
        <time>2019-09-09T07:59:13Z</time>
      </trkpt>
      <trkpt lat="41.81973" lon="9.20955">
        <ele>1363.83</ele>
        <time>2019-09-09T07:59:29Z</time>
      </trkpt>
      <trkpt lat="41.81983" lon="9.20954">
        <ele>1364.26</ele>
        <time>2019-09-09T07:59:44Z</time>
      </trkpt>
      <trkpt lat="41.81992" lon="9.20953">
        <ele>1366.13</ele>
        <time>2019-09-09T08:00:03Z</time>
      </trkpt>
      <trkpt lat="41.82007" lon="9.20955">
        <ele>1366.72</ele>
        <time>2019-09-09T08:00:21Z</time>
      </trkpt>
      <trkpt lat="41.8202" lon="9.20956">
        <ele>1369.32</ele>
        <time>2019-09-09T08:00:41Z</time>
      </trkpt>
      <trkpt lat="41.82027" lon="9.20954">
        <ele>1369.49</ele>
        <time>2019-09-09T08:00:48Z</time>
      </trkpt>
      <trkpt lat="41.82034" lon="9.20952">
        <ele>1368.6</ele>
        <time>2019-09-09T08:00:54Z</time>
      </trkpt>
      <trkpt lat="41.82053" lon="9.20954">
        <ele>1369.03</ele>
        <time>2019-09-09T08:01:10Z</time>
      </trkpt>
      <trkpt lat="41.82063" lon="9.20961">
        <ele>1370.1</ele>
        <time>2019-09-09T08:01:22Z</time>
      </trkpt>
      <trkpt lat="41.82077" lon="9.20972">
        <ele>1372.1</ele>
        <time>2019-09-09T08:01:37Z</time>
      </trkpt>
      <trkpt lat="41.82086" lon="9.20977">
        <ele>1375.63</ele>
        <time>2019-09-09T08:01:52Z</time>
      </trkpt>
      <trkpt lat="41.82098" lon="9.20979">
        <ele>1376.88</ele>
        <time>2019-09-09T08:02:12Z</time>
      </trkpt>
      <trkpt lat="41.82111" lon="9.20975">
        <ele>1377.6</ele>
        <time>2019-09-09T08:02:30Z</time>
      </trkpt>
      <trkpt lat="41.82122" lon="9.20976">
        <ele>1378.19</ele>
        <time>2019-09-09T08:02:44Z</time>
      </trkpt>
      <trkpt lat="41.82127" lon="9.20976">
        <ele>1377.45</ele>
        <time>2019-09-09T08:02:48Z</time>
      </trkpt>
      <trkpt lat="41.82135" lon="9.20978">
        <ele>1378.45</ele>
        <time>2019-09-09T08:02:56Z</time>
      </trkpt>
      <trkpt lat="41.82149" lon="9.20973">
        <ele>1380.73</ele>
        <time>2019-09-09T08:03:13Z</time>
      </trkpt>
      <trkpt lat="41.82163" lon="9.20978">
        <ele>1383.24</ele>
        <time>2019-09-09T08:03:31Z</time>
      </trkpt>
      <trkpt lat="41.82178" lon="9.20982">
        <ele>1386.98</ele>
        <time>2019-09-09T08:03:49Z</time>
      </trkpt>
      <trkpt lat="41.82189" lon="9.20989">
        <ele>1387.16</ele>
        <time>2019-09-09T08:04:09Z</time>
      </trkpt>
      <trkpt lat="41.82199" lon="9.21">
        <ele>1388.6</ele>
        <time>2019-09-09T08:04:24Z</time>
      </trkpt>
      <trkpt lat="41.82207" lon="9.21007">
        <ele>1390.25</ele>
        <time>2019-09-09T08:04:37Z</time>
      </trkpt>
      <trkpt lat="41.82218" lon="9.21018">
        <ele>1390.56</ele>
        <time>2019-09-09T08:04:52Z</time>
      </trkpt>
      <trkpt lat="41.82231" lon="9.21029">
        <ele>1390.64</ele>
        <time>2019-09-09T08:05:09Z</time>
      </trkpt>
      <trkpt lat="41.82245" lon="9.21037">
        <ele>1391.54</ele>
        <time>2019-09-09T08:05:26Z</time>
      </trkpt>
      <trkpt lat="41.82254" lon="9.21046">
        <ele>1392.81</ele>
        <time>2019-09-09T08:05:39Z</time>
      </trkpt>
      <trkpt lat="41.82257" lon="9.21052">
        <ele>1393.38</ele>
        <time>2019-09-09T08:05:44Z</time>
      </trkpt>
      <trkpt lat="41.8227" lon="9.21064">
        <ele>1395.55</ele>
        <time>2019-09-09T08:06:00Z</time>
      </trkpt>
      <trkpt lat="41.82282" lon="9.21081">
        <ele>1399.4</ele>
        <time>2019-09-09T08:06:18Z</time>
      </trkpt>
      <trkpt lat="41.82293" lon="9.21097">
        <ele>1404.01</ele>
        <time>2019-09-09T08:06:37Z</time>
      </trkpt>
      <trkpt lat="41.82298" lon="9.21102">
        <ele>1403.89</ele>
        <time>2019-09-09T08:06:54Z</time>
      </trkpt>
      <trkpt lat="41.82309" lon="9.21106">
        <ele>1403.54</ele>
        <time>2019-09-09T08:07:13Z</time>
      </trkpt>
      <trkpt lat="41.82325" lon="9.21102">
        <ele>1404.48</ele>
        <time>2019-09-09T08:07:30Z</time>
      </trkpt>
      <trkpt lat="41.82331" lon="9.211">
        <ele>1405.52</ele>
        <time>2019-09-09T08:07:35Z</time>
      </trkpt>
      <trkpt lat="41.82348" lon="9.21098">
        <ele>1408.32</ele>
        <time>2019-09-09T08:07:50Z</time>
      </trkpt>
      <trkpt lat="41.82365" lon="9.21099">
        <ele>1410.48</ele>
        <time>2019-09-09T08:08:08Z</time>
      </trkpt>
      <trkpt lat="41.82383" lon="9.21098">
        <ele>1407.41</ele>
        <time>2019-09-09T08:08:23Z</time>
      </trkpt>
      <trkpt lat="41.82401" lon="9.21103">
        <ele>1401.62</ele>
        <time>2019-09-09T08:08:43Z</time>
      </trkpt>
      <trkpt lat="41.82417" lon="9.21111">
        <ele>1401.6</ele>
        <time>2019-09-09T08:09:01Z</time>
      </trkpt>
      <trkpt lat="41.82436" lon="9.21115">
        <ele>1403.28</ele>
        <time>2019-09-09T08:09:18Z</time>
      </trkpt>
      <trkpt lat="41.82451" lon="9.21117">
        <ele>1406.51</ele>
        <time>2019-09-09T08:09:31Z</time>
      </trkpt>
      <trkpt lat="41.82457" lon="9.2112">
        <ele>1406.97</ele>
        <time>2019-09-09T08:09:36Z</time>
      </trkpt>
      <trkpt lat="41.82475" lon="9.21128">
        <ele>1410.65</ele>
        <time>2019-09-09T08:09:54Z</time>
      </trkpt>
      <trkpt lat="41.82493" lon="9.21137">
        <ele>1412.95</ele>
        <time>2019-09-09T08:10:11Z</time>
      </trkpt>
      <trkpt lat="41.82512" lon="9.21145">
        <ele>1414.44</ele>
        <time>2019-09-09T08:10:28Z</time>
      </trkpt>
      <trkpt lat="41.8253" lon="9.21154">
        <ele>1415.88</ele>
        <time>2019-09-09T08:10:45Z</time>
      </trkpt>
      <trkpt lat="41.82543" lon="9.21165">
        <ele>1417.19</ele>
        <time>2019-09-09T08:10:58Z</time>
      </trkpt>
      <trkpt lat="41.82555" lon="9.21173">
        <ele>1420.79</ele>
        <time>2019-09-09T08:11:14Z</time>
      </trkpt>
      <trkpt lat="41.82559" lon="9.21172">
        <ele>1421.7</ele>
        <time>2019-09-09T08:11:18Z</time>
      </trkpt>
      <trkpt lat="41.8257" lon="9.21175">
        <ele>1421.29</ele>
        <time>2019-09-09T08:11:28Z</time>
      </trkpt>
      <trkpt lat="41.82587" lon="9.21179">
        <ele>1421.21</ele>
        <time>2019-09-09T08:11:44Z</time>
      </trkpt>
      <trkpt lat="41.82603" lon="9.21186">
        <ele>1424.04</ele>
        <time>2019-09-09T08:12:00Z</time>
      </trkpt>
      <trkpt lat="41.82624" lon="9.21196">
        <ele>1424.63</ele>
        <time>2019-09-09T08:12:18Z</time>
      </trkpt>
      <trkpt lat="41.82634" lon="9.21209">
        <ele>1425.16</ele>
        <time>2019-09-09T08:12:32Z</time>
      </trkpt>
      <trkpt lat="41.82645" lon="9.21226">
        <ele>1423.7</ele>
        <time>2019-09-09T08:12:48Z</time>
      </trkpt>
      <trkpt lat="41.82651" lon="9.21241">
        <ele>1421.79</ele>
        <time>2019-09-09T08:13:00Z</time>
      </trkpt>
      <trkpt lat="41.8266" lon="9.21261">
        <ele>1422.07</ele>
        <time>2019-09-09T08:13:21Z</time>
      </trkpt>
      <trkpt lat="41.82674" lon="9.2128">
        <ele>1420.97</ele>
        <time>2019-09-09T08:13:40Z</time>
      </trkpt>
      <trkpt lat="41.82683" lon="9.21285">
        <ele>1420.1</ele>
        <time>2019-09-09T08:13:58Z</time>
      </trkpt>
      <trkpt lat="41.82696" lon="9.21293">
        <ele>1418.45</ele>
        <time>2019-09-09T08:14:18Z</time>
      </trkpt>
      <trkpt lat="41.82702" lon="9.21297">
        <ele>1411.8</ele>
        <time>2019-09-09T08:14:37Z</time>
      </trkpt>
      <trkpt lat="41.82703" lon="9.21298">
        <ele>1408.18</ele>
        <time>2019-09-09T08:15:00Z</time>
      </trkpt>
      <trkpt lat="41.82707" lon="9.21296">
        <ele>1405.4</ele>
        <time>2019-09-09T08:15:28Z</time>
      </trkpt>
      <trkpt lat="41.82704" lon="9.21298">
        <ele>1403.78</ele>
        <time>2019-09-09T08:15:57Z</time>
      </trkpt>
      <trkpt lat="41.82702" lon="9.21296">
        <ele>1404.12</ele>
        <time>2019-09-09T08:16:30Z</time>
      </trkpt>
      <trkpt lat="41.82703" lon="9.21294">
        <ele>1404.81</ele>
        <time>2019-09-09T08:16:55Z</time>
      </trkpt>
      <trkpt lat="41.82705" lon="9.21297">
        <ele>1399.21</ele>
        <time>2019-09-09T08:17:24Z</time>
      </trkpt>
      <trkpt lat="41.82708" lon="9.21298">
        <ele>1397.34</ele>
        <time>2019-09-09T08:17:49Z</time>
      </trkpt>
      <trkpt lat="41.82706" lon="9.21296">
        <ele>1396.23</ele>
        <time>2019-09-09T08:18:14Z</time>
      </trkpt>
      <trkpt lat="41.82709" lon="9.213">
        <ele>1395.67</ele>
        <time>2019-09-09T08:18:28Z</time>
      </trkpt>
      <trkpt lat="41.82715" lon="9.21302">
        <ele>1396.27</ele>
        <time>2019-09-09T08:18:45Z</time>
      </trkpt>
      <trkpt lat="41.82722" lon="9.21298">
        <ele>1396.28</ele>
        <time>2019-09-09T08:19:06Z</time>
      </trkpt>
      <trkpt lat="41.8273" lon="9.21292">
        <ele>1396.03</ele>
        <time>2019-09-09T08:19:24Z</time>
      </trkpt>
      <trkpt lat="41.82731" lon="9.21282">
        <ele>1393.7</ele>
        <time>2019-09-09T08:19:42Z</time>
      </trkpt>
      <trkpt lat="41.82733" lon="9.21279">
        <ele>1393.33</ele>
        <time>2019-09-09T08:19:59Z</time>
      </trkpt>
      <trkpt lat="41.82734" lon="9.21268">
        <ele>1391.63</ele>
        <time>2019-09-09T08:20:22Z</time>
      </trkpt>
      <trkpt lat="41.82736" lon="9.21263">
        <ele>1390.83</ele>
        <time>2019-09-09T08:20:40Z</time>
      </trkpt>
      <trkpt lat="41.82746" lon="9.21252">
        <ele>1390.79</ele>
        <time>2019-09-09T08:20:59Z</time>
      </trkpt>
      <trkpt lat="41.82753" lon="9.21243">
        <ele>1389.68</ele>
        <time>2019-09-09T08:21:17Z</time>
      </trkpt>
      <trkpt lat="41.82761" lon="9.21234">
        <ele>1389.35</ele>
        <time>2019-09-09T08:21:35Z</time>
      </trkpt>
      <trkpt lat="41.82763" lon="9.21234">
        <ele>1389.31</ele>
        <time>2019-09-09T08:21:37Z</time>
      </trkpt>
      <trkpt lat="41.82777" lon="9.21231">
        <ele>1389.11</ele>
        <time>2019-09-09T08:21:55Z</time>
      </trkpt>
      <trkpt lat="41.82788" lon="9.21222">
        <ele>1391.49</ele>
        <time>2019-09-09T08:22:09Z</time>
      </trkpt>
      <trkpt lat="41.82798" lon="9.21199">
        <ele>1389.36</ele>
        <time>2019-09-09T08:22:25Z</time>
      </trkpt>
      <trkpt lat="41.82805" lon="9.21192">
        <ele>1386.09</ele>
        <time>2019-09-09T08:22:33Z</time>
      </trkpt>
      <trkpt lat="41.82822" lon="9.21185">
        <ele>1379.18</ele>
        <time>2019-09-09T08:22:51Z</time>
      </trkpt>
      <trkpt lat="41.82831" lon="9.21187">
        <ele>1376.99</ele>
        <time>2019-09-09T08:22:59Z</time>
      </trkpt>
      <trkpt lat="41.82833" lon="9.21188">
        <ele>1376.25</ele>
        <time>2019-09-09T08:23:02Z</time>
      </trkpt>
      <trkpt lat="41.82838" lon="9.21192">
        <ele>1376.15</ele>
        <time>2019-09-09T08:23:08Z</time>
      </trkpt>
      <trkpt lat="41.82851" lon="9.21192">
        <ele>1379.88</ele>
        <time>2019-09-09T08:23:24Z</time>
      </trkpt>
      <trkpt lat="41.82864" lon="9.21195">
        <ele>1381.12</ele>
        <time>2019-09-09T08:23:39Z</time>
      </trkpt>
      <trkpt lat="41.8288" lon="9.21201">
        <ele>1380.25</ele>
        <time>2019-09-09T08:24:00Z</time>
      </trkpt>
      <trkpt lat="41.82896" lon="9.21209">
        <ele>1377.79</ele>
        <time>2019-09-09T08:24:22Z</time>
      </trkpt>
      <trkpt lat="41.82906" lon="9.21218">
        <ele>1375.18</ele>
        <time>2019-09-09T08:24:39Z</time>
      </trkpt>
      <trkpt lat="41.82917" lon="9.21218">
        <ele>1373.58</ele>
        <time>2019-09-09T08:24:58Z</time>
      </trkpt>
      <trkpt lat="41.82918" lon="9.21218">
        <ele>1373.19</ele>
        <time>2019-09-09T08:24:59Z</time>
      </trkpt>
      <trkpt lat="41.82927" lon="9.21221">
        <ele>1370.33</ele>
        <time>2019-09-09T08:25:14Z</time>
      </trkpt>
      <trkpt lat="41.82936" lon="9.21232">
        <ele>1367.31</ele>
        <time>2019-09-09T08:25:33Z</time>
      </trkpt>
      <trkpt lat="41.82944" lon="9.21243">
        <ele>1364.9</ele>
        <time>2019-09-09T08:25:45Z</time>
      </trkpt>
      <trkpt lat="41.82949" lon="9.21248">
        <ele>1361.32</ele>
        <time>2019-09-09T08:26:02Z</time>
      </trkpt>
      <trkpt lat="41.82953" lon="9.21249">
        <ele>1358.15</ele>
        <time>2019-09-09T08:26:19Z</time>
      </trkpt>
      <trkpt lat="41.82962" lon="9.21252">
        <ele>1353.95</ele>
        <time>2019-09-09T08:26:38Z</time>
      </trkpt>
      <trkpt lat="41.82971" lon="9.21253">
        <ele>1349.79</ele>
        <time>2019-09-09T08:26:58Z</time>
      </trkpt>
      <trkpt lat="41.82979" lon="9.21251">
        <ele>1347.78</ele>
        <time>2019-09-09T08:27:15Z</time>
      </trkpt>
      <trkpt lat="41.82983" lon="9.21248">
        <ele>1347.26</ele>
        <time>2019-09-09T08:27:27Z</time>
      </trkpt>
      <trkpt lat="41.8299" lon="9.21247">
        <ele>1350.47</ele>
        <time>2019-09-09T08:27:42Z</time>
      </trkpt>
      <trkpt lat="41.82998" lon="9.21246">
        <ele>1352.18</ele>
        <time>2019-09-09T08:27:56Z</time>
      </trkpt>
      <trkpt lat="41.8301" lon="9.21242">
        <ele>1351.82</ele>
        <time>2019-09-09T08:28:12Z</time>
      </trkpt>
      <trkpt lat="41.83023" lon="9.21242">
        <ele>1351.96</ele>
        <time>2019-09-09T08:28:30Z</time>
      </trkpt>
      <trkpt lat="41.83025" lon="9.21241">
        <ele>1352.04</ele>
        <time>2019-09-09T08:28:32Z</time>
      </trkpt>
      <trkpt lat="41.83038" lon="9.21245">
        <ele>1355.92</ele>
        <time>2019-09-09T08:28:46Z</time>
      </trkpt>
      <trkpt lat="41.83047" lon="9.21248">
        <ele>1353.88</ele>
        <time>2019-09-09T08:29:00Z</time>
      </trkpt>
      <trkpt lat="41.83053" lon="9.21255">
        <ele>1352.28</ele>
        <time>2019-09-09T08:29:09Z</time>
      </trkpt>
      <trkpt lat="41.83072" lon="9.21259">
        <ele>1350.9</ele>
        <time>2019-09-09T08:29:27Z</time>
      </trkpt>
      <trkpt lat="41.83084" lon="9.21268">
        <ele>1348.11</ele>
        <time>2019-09-09T08:29:44Z</time>
      </trkpt>
      <trkpt lat="41.83084" lon="9.21268">
        <ele>1347.73</ele>
        <time>2019-09-09T08:29:45Z</time>
      </trkpt>
      <trkpt lat="41.831" lon="9.2128">
        <ele>1346.23</ele>
        <time>2019-09-09T08:30:03Z</time>
      </trkpt>
      <trkpt lat="41.83104" lon="9.21278">
        <ele>1345.72</ele>
        <time>2019-09-09T08:30:17Z</time>
      </trkpt>
      <trkpt lat="41.83105" lon="9.2128">
        <ele>1344.47</ele>
        <time>2019-09-09T08:30:31Z</time>
      </trkpt>
      <trkpt lat="41.83103" lon="9.21278">
        <ele>1342.32</ele>
        <time>2019-09-09T08:31:14Z</time>
      </trkpt>
      <trkpt lat="41.83103" lon="9.21275">
        <ele>1342.91</ele>
        <time>2019-09-09T08:32:24Z</time>
      </trkpt>
      <trkpt lat="41.83103" lon="9.21276">
        <ele>1342.18</ele>
        <time>2019-09-09T08:32:58Z</time>
      </trkpt>
      <trkpt lat="41.83103" lon="9.21274">
        <ele>1340.76</ele>
        <time>2019-09-09T08:33:41Z</time>
      </trkpt>
      <trkpt lat="41.83102" lon="9.21278">
        <ele>1340.74</ele>
        <time>2019-09-09T08:34:00Z</time>
      </trkpt>
      <trkpt lat="41.83101" lon="9.21283">
        <ele>1340.84</ele>
        <time>2019-09-09T08:34:16Z</time>
      </trkpt>
      <trkpt lat="41.831" lon="9.21287">
        <ele>1340.19</ele>
        <time>2019-09-09T08:34:30Z</time>
      </trkpt>
      <trkpt lat="41.83106" lon="9.213">
        <ele>1337.34</ele>
        <time>2019-09-09T08:34:47Z</time>
      </trkpt>
      <trkpt lat="41.83105" lon="9.21315">
        <ele>1336.83</ele>
        <time>2019-09-09T08:35:02Z</time>
      </trkpt>
      <trkpt lat="41.83114" lon="9.21323">
        <ele>1338.46</ele>
        <time>2019-09-09T08:35:17Z</time>
      </trkpt>
      <trkpt lat="41.83123" lon="9.21324">
        <ele>1340.61</ele>
        <time>2019-09-09T08:35:32Z</time>
      </trkpt>
      <trkpt lat="41.83133" lon="9.21328">
        <ele>1341.91</ele>
        <time>2019-09-09T08:35:51Z</time>
      </trkpt>
      <trkpt lat="41.8314" lon="9.21327">
        <ele>1340.1</ele>
        <time>2019-09-09T08:36:08Z</time>
      </trkpt>
      <trkpt lat="41.83146" lon="9.21324">
        <ele>1338.66</ele>
        <time>2019-09-09T08:36:24Z</time>
      </trkpt>
      <trkpt lat="41.83154" lon="9.2133">
        <ele>1336.44</ele>
        <time>2019-09-09T08:36:41Z</time>
      </trkpt>
      <trkpt lat="41.83161" lon="9.21327">
        <ele>1335.57</ele>
        <time>2019-09-09T08:36:59Z</time>
      </trkpt>
      <trkpt lat="41.83169" lon="9.2133">
        <ele>1335.41</ele>
        <time>2019-09-09T08:37:13Z</time>
      </trkpt>
      <trkpt lat="41.83176" lon="9.21331">
        <ele>1335.07</ele>
        <time>2019-09-09T08:37:27Z</time>
      </trkpt>
      <trkpt lat="41.83183" lon="9.21335">
        <ele>1332.8</ele>
        <time>2019-09-09T08:37:41Z</time>
      </trkpt>
      <trkpt lat="41.8319" lon="9.21337">
        <ele>1330.59</ele>
        <time>2019-09-09T08:37:56Z</time>
      </trkpt>
      <trkpt lat="41.83199" lon="9.21339">
        <ele>1329.8</ele>
        <time>2019-09-09T08:38:12Z</time>
      </trkpt>
      <trkpt lat="41.83207" lon="9.21339">
        <ele>1329.7</ele>
        <time>2019-09-09T08:38:28Z</time>
      </trkpt>
      <trkpt lat="41.83217" lon="9.21337">
        <ele>1329.34</ele>
        <time>2019-09-09T08:38:44Z</time>
      </trkpt>
      <trkpt lat="41.83219" lon="9.21338">
        <ele>1329.38</ele>
        <time>2019-09-09T08:38:46Z</time>
      </trkpt>
      <trkpt lat="41.83233" lon="9.21341">
        <ele>1330.05</ele>
        <time>2019-09-09T08:39:04Z</time>
      </trkpt>
      <trkpt lat="41.83243" lon="9.2135">
        <ele>1331.92</ele>
        <time>2019-09-09T08:39:21Z</time>
      </trkpt>
      <trkpt lat="41.83252" lon="9.21357">
        <ele>1334.97</ele>
        <time>2019-09-09T08:39:39Z</time>
      </trkpt>
      <trkpt lat="41.83261" lon="9.21368">
        <ele>1337.22</ele>
        <time>2019-09-09T08:39:58Z</time>
      </trkpt>
      <trkpt lat="41.83268" lon="9.21381">
        <ele>1338.37</ele>
        <time>2019-09-09T08:40:17Z</time>
      </trkpt>
      <trkpt lat="41.83279" lon="9.21392">
        <ele>1339.35</ele>
        <time>2019-09-09T08:40:36Z</time>
      </trkpt>
      <trkpt lat="41.8329" lon="9.214">
        <ele>1341.08</ele>
        <time>2019-09-09T08:40:55Z</time>
      </trkpt>
      <trkpt lat="41.83301" lon="9.21406">
        <ele>1341.76</ele>
        <time>2019-09-09T08:41:14Z</time>
      </trkpt>
      <trkpt lat="41.83304" lon="9.21412">
        <ele>1342.16</ele>
        <time>2019-09-09T08:41:21Z</time>
      </trkpt>
      <trkpt lat="41.83314" lon="9.21419">
        <ele>1343.88</ele>
        <time>2019-09-09T08:41:38Z</time>
      </trkpt>
      <trkpt lat="41.83328" lon="9.21429">
        <ele>1343.06</ele>
        <time>2019-09-09T08:42:00Z</time>
      </trkpt>
      <trkpt lat="41.83335" lon="9.21433">
        <ele>1343.25</ele>
        <time>2019-09-09T08:42:14Z</time>
      </trkpt>
      <trkpt lat="41.83345" lon="9.21436">
        <ele>1341.32</ele>
        <time>2019-09-09T08:42:28Z</time>
      </trkpt>
      <trkpt lat="41.83348" lon="9.21446">
        <ele>1339.9</ele>
        <time>2019-09-09T08:42:49Z</time>
      </trkpt>
      <trkpt lat="41.83353" lon="9.21452">
        <ele>1339.83</ele>
        <time>2019-09-09T08:43:02Z</time>
      </trkpt>
      <trkpt lat="41.83358" lon="9.21457">
        <ele>1339.91</ele>
        <time>2019-09-09T08:43:12Z</time>
      </trkpt>
      <trkpt lat="41.83369" lon="9.2146">
        <ele>1337.7</ele>
        <time>2019-09-09T08:43:27Z</time>
      </trkpt>
      <trkpt lat="41.83375" lon="9.21462">
        <ele>1338.77</ele>
        <time>2019-09-09T08:43:39Z</time>
      </trkpt>
      <trkpt lat="41.83383" lon="9.21464">
        <ele>1336.94</ele>
        <time>2019-09-09T08:43:54Z</time>
      </trkpt>
      <trkpt lat="41.8339" lon="9.21464">
        <ele>1335.58</ele>
        <time>2019-09-09T08:44:09Z</time>
      </trkpt>
      <trkpt lat="41.83398" lon="9.2146">
        <ele>1337.25</ele>
        <time>2019-09-09T08:44:22Z</time>
      </trkpt>
      <trkpt lat="41.83407" lon="9.21462">
        <ele>1335.99</ele>
        <time>2019-09-09T08:44:38Z</time>
      </trkpt>
      <trkpt lat="41.83417" lon="9.21467">
        <ele>1337.49</ele>
        <time>2019-09-09T08:44:54Z</time>
      </trkpt>
      <trkpt lat="41.83423" lon="9.21462">
        <ele>1338.95</ele>
        <time>2019-09-09T08:45:06Z</time>
      </trkpt>
      <trkpt lat="41.83432" lon="9.21462">
        <ele>1340.86</ele>
        <time>2019-09-09T08:45:20Z</time>
      </trkpt>
      <trkpt lat="41.83435" lon="9.21462">
        <ele>1340.83</ele>
        <time>2019-09-09T08:45:22Z</time>
      </trkpt>
      <trkpt lat="41.83448" lon="9.21456">
        <ele>1339.4</ele>
        <time>2019-09-09T08:45:40Z</time>
      </trkpt>
      <trkpt lat="41.83449" lon="9.21455">
        <ele>1339.28</ele>
        <time>2019-09-09T08:45:41Z</time>
      </trkpt>
      <trkpt lat="41.83459" lon="9.21451">
        <ele>1337.85</ele>
        <time>2019-09-09T08:45:55Z</time>
      </trkpt>
      <trkpt lat="41.83465" lon="9.21448">
        <ele>1336.86</ele>
        <time>2019-09-09T08:46:09Z</time>
      </trkpt>
      <trkpt lat="41.83465" lon="9.21437">
        <ele>1335.21</ele>
        <time>2019-09-09T08:46:28Z</time>
      </trkpt>
      <trkpt lat="41.83462" lon="9.21431">
        <ele>1335.55</ele>
        <time>2019-09-09T08:46:42Z</time>
      </trkpt>
      <trkpt lat="41.83464" lon="9.21424">
        <ele>1333.72</ele>
        <time>2019-09-09T08:46:56Z</time>
      </trkpt>
      <trkpt lat="41.83462" lon="9.21419">
        <ele>1334.94</ele>
        <time>2019-09-09T08:47:11Z</time>
      </trkpt>
      <trkpt lat="41.8346" lon="9.21415">
        <ele>1336.4</ele>
        <time>2019-09-09T08:47:24Z</time>
      </trkpt>
      <trkpt lat="41.83458" lon="9.21413">
        <ele>1337.96</ele>
        <time>2019-09-09T08:47:37Z</time>
      </trkpt>
      <trkpt lat="41.83456" lon="9.21409">
        <ele>1338.66</ele>
        <time>2019-09-09T08:47:52Z</time>
      </trkpt>
      <trkpt lat="41.83457" lon="9.21405">
        <ele>1338.11</ele>
        <time>2019-09-09T08:48:06Z</time>
      </trkpt>
      <trkpt lat="41.83456" lon="9.21405">
        <ele>1337.99</ele>
        <time>2019-09-09T08:48:32Z</time>
      </trkpt>
      <trkpt lat="41.83456" lon="9.21405">
        <ele>1337.05</ele>
        <time>2019-09-09T08:48:49Z</time>
      </trkpt>
      <trkpt lat="41.83457" lon="9.21403">
        <ele>1337.16</ele>
        <time>2019-09-09T08:49:18Z</time>
      </trkpt>
      <trkpt lat="41.8346" lon="9.21401">
        <ele>1338.05</ele>
        <time>2019-09-09T08:49:31Z</time>
      </trkpt>
      <trkpt lat="41.83466" lon="9.21403">
        <ele>1339.52</ele>
        <time>2019-09-09T08:49:45Z</time>
      </trkpt>
      <trkpt lat="41.83472" lon="9.21403">
        <ele>1340.97</ele>
        <time>2019-09-09T08:49:59Z</time>
      </trkpt>
      <trkpt lat="41.83479" lon="9.214">
        <ele>1343.16</ele>
        <time>2019-09-09T08:50:14Z</time>
      </trkpt>
      <trkpt lat="41.83481" lon="9.21395">
        <ele>1344.37</ele>
        <time>2019-09-09T08:50:28Z</time>
      </trkpt>
      <trkpt lat="41.83482" lon="9.21395">
        <ele>1344.71</ele>
        <time>2019-09-09T08:50:30Z</time>
      </trkpt>
      <trkpt lat="41.83484" lon="9.21387">
        <ele>1346.43</ele>
        <time>2019-09-09T08:50:42Z</time>
      </trkpt>
      <trkpt lat="41.83491" lon="9.21381">
        <ele>1348.68</ele>
        <time>2019-09-09T08:50:55Z</time>
      </trkpt>
      <trkpt lat="41.83499" lon="9.21379">
        <ele>1351.37</ele>
        <time>2019-09-09T08:51:10Z</time>
      </trkpt>
      <trkpt lat="41.83504" lon="9.21385">
        <ele>1353.01</ele>
        <time>2019-09-09T08:51:23Z</time>
      </trkpt>
      <trkpt lat="41.83511" lon="9.21387">
        <ele>1355.44</ele>
        <time>2019-09-09T08:51:37Z</time>
      </trkpt>
      <trkpt lat="41.83517" lon="9.21391">
        <ele>1356.99</ele>
        <time>2019-09-09T08:51:51Z</time>
      </trkpt>
      <trkpt lat="41.83525" lon="9.21391">
        <ele>1358.81</ele>
        <time>2019-09-09T08:52:06Z</time>
      </trkpt>
      <trkpt lat="41.83532" lon="9.2139">
        <ele>1362.53</ele>
        <time>2019-09-09T08:52:20Z</time>
      </trkpt>
      <trkpt lat="41.8354" lon="9.21388">
        <ele>1363.83</ele>
        <time>2019-09-09T08:52:35Z</time>
      </trkpt>
      <trkpt lat="41.83548" lon="9.21386">
        <ele>1365.9</ele>
        <time>2019-09-09T08:52:52Z</time>
      </trkpt>
      <trkpt lat="41.83555" lon="9.21381">
        <ele>1368.4</ele>
        <time>2019-09-09T08:53:10Z</time>
      </trkpt>
      <trkpt lat="41.83562" lon="9.2138">
        <ele>1369.45</ele>
        <time>2019-09-09T08:53:26Z</time>
      </trkpt>
      <trkpt lat="41.83569" lon="9.21382">
        <ele>1371.59</ele>
        <time>2019-09-09T08:53:41Z</time>
      </trkpt>
      <trkpt lat="41.8358" lon="9.21382">
        <ele>1375.88</ele>
        <time>2019-09-09T08:54:04Z</time>
      </trkpt>
      <trkpt lat="41.83588" lon="9.2138">
        <ele>1378.46</ele>
        <time>2019-09-09T08:54:24Z</time>
      </trkpt>
      <trkpt lat="41.83597" lon="9.21372">
        <ele>1381.08</ele>
        <time>2019-09-09T08:54:47Z</time>
      </trkpt>
      <trkpt lat="41.83604" lon="9.21371">
        <ele>1382.82</ele>
        <time>2019-09-09T08:55:05Z</time>
      </trkpt>
      <trkpt lat="41.83609" lon="9.21374">
        <ele>1381.62</ele>
        <time>2019-09-09T08:55:23Z</time>
      </trkpt>
      <trkpt lat="41.83617" lon="9.21371">
        <ele>1381.99</ele>
        <time>2019-09-09T08:55:42Z</time>
      </trkpt>
      <trkpt lat="41.83622" lon="9.21365">
        <ele>1382.53</ele>
        <time>2019-09-09T08:55:58Z</time>
      </trkpt>
      <trkpt lat="41.83629" lon="9.21367">
        <ele>1385.19</ele>
        <time>2019-09-09T08:56:18Z</time>
      </trkpt>
      <trkpt lat="41.83638" lon="9.21361">
        <ele>1387.68</ele>
        <time>2019-09-09T08:56:36Z</time>
      </trkpt>
      <trkpt lat="41.83647" lon="9.21356">
        <ele>1390.8</ele>
        <time>2019-09-09T08:56:54Z</time>
      </trkpt>
      <trkpt lat="41.83653" lon="9.21351">
        <ele>1394.2</ele>
        <time>2019-09-09T08:57:13Z</time>
      </trkpt>
      <trkpt lat="41.8366" lon="9.21348">
        <ele>1396.51</ele>
        <time>2019-09-09T08:57:33Z</time>
      </trkpt>
      <trkpt lat="41.83666" lon="9.21342">
        <ele>1397.48</ele>
        <time>2019-09-09T08:57:48Z</time>
      </trkpt>
      <trkpt lat="41.8367" lon="9.21349">
        <ele>1399.27</ele>
        <time>2019-09-09T08:58:03Z</time>
      </trkpt>
      <trkpt lat="41.83675" lon="9.21344">
        <ele>1400.9</ele>
        <time>2019-09-09T08:58:16Z</time>
      </trkpt>
      <trkpt lat="41.83681" lon="9.21337">
        <ele>1404.69</ele>
        <time>2019-09-09T08:58:30Z</time>
      </trkpt>
      <trkpt lat="41.83685" lon="9.21329">
        <ele>1407.1</ele>
        <time>2019-09-09T08:58:47Z</time>
      </trkpt>
      <trkpt lat="41.83691" lon="9.2132">
        <ele>1408.87</ele>
        <time>2019-09-09T08:59:03Z</time>
      </trkpt>
      <trkpt lat="41.83697" lon="9.21313">
        <ele>1411.42</ele>
        <time>2019-09-09T08:59:21Z</time>
      </trkpt>
      <trkpt lat="41.83704" lon="9.21307">
        <ele>1413.28</ele>
        <time>2019-09-09T08:59:36Z</time>
      </trkpt>
      <trkpt lat="41.83707" lon="9.21302">
        <ele>1414.57</ele>
        <time>2019-09-09T08:59:51Z</time>
      </trkpt>
      <trkpt lat="41.83712" lon="9.21302">
        <ele>1416.45</ele>
        <time>2019-09-09T09:00:05Z</time>
      </trkpt>
      <trkpt lat="41.83718" lon="9.21298">
        <ele>1418.41</ele>
        <time>2019-09-09T09:00:19Z</time>
      </trkpt>
      <trkpt lat="41.83724" lon="9.21293">
        <ele>1420.42</ele>
        <time>2019-09-09T09:00:33Z</time>
      </trkpt>
      <trkpt lat="41.83729" lon="9.2129">
        <ele>1421.94</ele>
        <time>2019-09-09T09:00:45Z</time>
      </trkpt>
      <trkpt lat="41.83734" lon="9.21281">
        <ele>1423.63</ele>
        <time>2019-09-09T09:01:00Z</time>
      </trkpt>
      <trkpt lat="41.83739" lon="9.21271">
        <ele>1425.01</ele>
        <time>2019-09-09T09:01:14Z</time>
      </trkpt>
      <trkpt lat="41.83744" lon="9.21264">
        <ele>1426.23</ele>
        <time>2019-09-09T09:01:28Z</time>
      </trkpt>
      <trkpt lat="41.83743" lon="9.21249">
        <ele>1427</ele>
        <time>2019-09-09T09:01:44Z</time>
      </trkpt>
      <trkpt lat="41.83743" lon="9.21232">
        <ele>1427.28</ele>
        <time>2019-09-09T09:01:58Z</time>
      </trkpt>
      <trkpt lat="41.83741" lon="9.2122">
        <ele>1428.74</ele>
        <time>2019-09-09T09:02:13Z</time>
      </trkpt>
      <trkpt lat="41.83743" lon="9.21215">
        <ele>1430.04</ele>
        <time>2019-09-09T09:02:26Z</time>
      </trkpt>
      <trkpt lat="41.83745" lon="9.21213">
        <ele>1431.29</ele>
        <time>2019-09-09T09:02:39Z</time>
      </trkpt>
      <trkpt lat="41.83746" lon="9.21211">
        <ele>1432.83</ele>
        <time>2019-09-09T09:02:52Z</time>
      </trkpt>
      <trkpt lat="41.83746" lon="9.21205">
        <ele>1434.83</ele>
        <time>2019-09-09T09:03:06Z</time>
      </trkpt>
      <trkpt lat="41.83745" lon="9.212">
        <ele>1435.94</ele>
        <time>2019-09-09T09:03:19Z</time>
      </trkpt>
      <trkpt lat="41.83747" lon="9.21195">
        <ele>1437.91</ele>
        <time>2019-09-09T09:03:33Z</time>
      </trkpt>
      <trkpt lat="41.8375" lon="9.21193">
        <ele>1439.46</ele>
        <time>2019-09-09T09:03:44Z</time>
      </trkpt>
      <trkpt lat="41.83753" lon="9.21187">
        <ele>1441.3</ele>
        <time>2019-09-09T09:03:58Z</time>
      </trkpt>
      <trkpt lat="41.83757" lon="9.21181">
        <ele>1442.83</ele>
        <time>2019-09-09T09:04:12Z</time>
      </trkpt>
      <trkpt lat="41.83763" lon="9.21178">
        <ele>1443.79</ele>
        <time>2019-09-09T09:04:25Z</time>
      </trkpt>
      <trkpt lat="41.83766" lon="9.21182">
        <ele>1445.66</ele>
        <time>2019-09-09T09:04:38Z</time>
      </trkpt>
      <trkpt lat="41.83772" lon="9.2118">
        <ele>1447.17</ele>
        <time>2019-09-09T09:04:51Z</time>
      </trkpt>
      <trkpt lat="41.83777" lon="9.21184">
        <ele>1448.5</ele>
        <time>2019-09-09T09:05:04Z</time>
      </trkpt>
      <trkpt lat="41.83782" lon="9.21184">
        <ele>1450.42</ele>
        <time>2019-09-09T09:05:15Z</time>
      </trkpt>
      <trkpt lat="41.83792" lon="9.21195">
        <ele>1452.19</ele>
        <time>2019-09-09T09:05:33Z</time>
      </trkpt>
      <trkpt lat="41.83798" lon="9.21199">
        <ele>1454.53</ele>
        <time>2019-09-09T09:05:49Z</time>
      </trkpt>
      <trkpt lat="41.83801" lon="9.21196">
        <ele>1456.14</ele>
        <time>2019-09-09T09:06:02Z</time>
      </trkpt>
      <trkpt lat="41.83804" lon="9.21189">
        <ele>1457.48</ele>
        <time>2019-09-09T09:06:15Z</time>
      </trkpt>
      <trkpt lat="41.83808" lon="9.21183">
        <ele>1459.29</ele>
        <time>2019-09-09T09:06:31Z</time>
      </trkpt>
      <trkpt lat="41.83812" lon="9.21181">
        <ele>1460.72</ele>
        <time>2019-09-09T09:06:44Z</time>
      </trkpt>
      <trkpt lat="41.83818" lon="9.21176">
        <ele>1462.88</ele>
        <time>2019-09-09T09:07:01Z</time>
      </trkpt>
      <trkpt lat="41.83823" lon="9.21175">
        <ele>1464.58</ele>
        <time>2019-09-09T09:07:13Z</time>
      </trkpt>
      <trkpt lat="41.83828" lon="9.21177">
        <ele>1466.51</ele>
        <time>2019-09-09T09:07:27Z</time>
      </trkpt>
      <trkpt lat="41.83833" lon="9.21177">
        <ele>1468.37</ele>
        <time>2019-09-09T09:07:41Z</time>
      </trkpt>
      <trkpt lat="41.83838" lon="9.21176">
        <ele>1470.73</ele>
        <time>2019-09-09T09:07:55Z</time>
      </trkpt>
      <trkpt lat="41.83844" lon="9.21178">
        <ele>1472.81</ele>
        <time>2019-09-09T09:08:09Z</time>
      </trkpt>
      <trkpt lat="41.83849" lon="9.21179">
        <ele>1474.71</ele>
        <time>2019-09-09T09:08:23Z</time>
      </trkpt>
      <trkpt lat="41.83856" lon="9.21184">
        <ele>1475.78</ele>
        <time>2019-09-09T09:08:39Z</time>
      </trkpt>
      <trkpt lat="41.83856" lon="9.21179">
        <ele>1477.43</ele>
        <time>2019-09-09T09:08:52Z</time>
      </trkpt>
      <trkpt lat="41.83862" lon="9.21175">
        <ele>1478.9</ele>
        <time>2019-09-09T09:09:06Z</time>
      </trkpt>
      <trkpt lat="41.83869" lon="9.21178">
        <ele>1480.63</ele>
        <time>2019-09-09T09:09:19Z</time>
      </trkpt>
      <trkpt lat="41.83873" lon="9.21177">
        <ele>1482.2</ele>
        <time>2019-09-09T09:09:31Z</time>
      </trkpt>
      <trkpt lat="41.83876" lon="9.21177">
        <ele>1483.71</ele>
        <time>2019-09-09T09:09:44Z</time>
      </trkpt>
      <trkpt lat="41.83879" lon="9.21176">
        <ele>1485.69</ele>
        <time>2019-09-09T09:09:58Z</time>
      </trkpt>
      <trkpt lat="41.83883" lon="9.21177">
        <ele>1486.99</ele>
        <time>2019-09-09T09:10:12Z</time>
      </trkpt>
      <trkpt lat="41.83888" lon="9.21183">
        <ele>1488.36</ele>
        <time>2019-09-09T09:10:27Z</time>
      </trkpt>
      <trkpt lat="41.83893" lon="9.21183">
        <ele>1490.14</ele>
        <time>2019-09-09T09:10:41Z</time>
      </trkpt>
      <trkpt lat="41.83898" lon="9.21184">
        <ele>1492.42</ele>
        <time>2019-09-09T09:10:55Z</time>
      </trkpt>
      <trkpt lat="41.83902" lon="9.21181">
        <ele>1494.68</ele>
        <time>2019-09-09T09:11:10Z</time>
      </trkpt>
      <trkpt lat="41.83906" lon="9.21179">
        <ele>1496.16</ele>
        <time>2019-09-09T09:11:24Z</time>
      </trkpt>
      <trkpt lat="41.83909" lon="9.21173">
        <ele>1497.08</ele>
        <time>2019-09-09T09:11:40Z</time>
      </trkpt>
      <trkpt lat="41.83912" lon="9.21176">
        <ele>1498.23</ele>
        <time>2019-09-09T09:11:53Z</time>
      </trkpt>
      <trkpt lat="41.83915" lon="9.21172">
        <ele>1499.54</ele>
        <time>2019-09-09T09:12:06Z</time>
      </trkpt>
      <trkpt lat="41.8392" lon="9.21172">
        <ele>1501.42</ele>
        <time>2019-09-09T09:12:21Z</time>
      </trkpt>
      <trkpt lat="41.83925" lon="9.2117">
        <ele>1503.38</ele>
        <time>2019-09-09T09:12:36Z</time>
      </trkpt>
      <trkpt lat="41.8393" lon="9.2117">
        <ele>1505.03</ele>
        <time>2019-09-09T09:12:51Z</time>
      </trkpt>
      <trkpt lat="41.83935" lon="9.21173">
        <ele>1506.44</ele>
        <time>2019-09-09T09:13:05Z</time>
      </trkpt>
      <trkpt lat="41.83942" lon="9.21171">
        <ele>1508.44</ele>
        <time>2019-09-09T09:13:20Z</time>
      </trkpt>
      <trkpt lat="41.83947" lon="9.21174">
        <ele>1510.16</ele>
        <time>2019-09-09T09:13:34Z</time>
      </trkpt>
      <trkpt lat="41.83952" lon="9.21173">
        <ele>1511.47</ele>
        <time>2019-09-09T09:13:46Z</time>
      </trkpt>
      <trkpt lat="41.83959" lon="9.21174">
        <ele>1513.61</ele>
        <time>2019-09-09T09:14:01Z</time>
      </trkpt>
      <trkpt lat="41.83965" lon="9.21173">
        <ele>1515.12</ele>
        <time>2019-09-09T09:14:13Z</time>
      </trkpt>
      <trkpt lat="41.83968" lon="9.21169">
        <ele>1516.82</ele>
        <time>2019-09-09T09:14:28Z</time>
      </trkpt>
      <trkpt lat="41.83973" lon="9.21169">
        <ele>1518.13</ele>
        <time>2019-09-09T09:14:41Z</time>
      </trkpt>
      <trkpt lat="41.8398" lon="9.21173">
        <ele>1520.11</ele>
        <time>2019-09-09T09:14:55Z</time>
      </trkpt>
      <trkpt lat="41.83987" lon="9.21177">
        <ele>1521.98</ele>
        <time>2019-09-09T09:15:09Z</time>
      </trkpt>
      <trkpt lat="41.83993" lon="9.21184">
        <ele>1523.28</ele>
        <time>2019-09-09T09:15:23Z</time>
      </trkpt>
      <trkpt lat="41.83997" lon="9.21194">
        <ele>1523.45</ele>
        <time>2019-09-09T09:15:38Z</time>
      </trkpt>
      <trkpt lat="41.84001" lon="9.21205">
        <ele>1523.68</ele>
        <time>2019-09-09T09:15:52Z</time>
      </trkpt>
      <trkpt lat="41.84005" lon="9.21209">
        <ele>1524.15</ele>
        <time>2019-09-09T09:16:10Z</time>
      </trkpt>
      <trkpt lat="41.84004" lon="9.21208">
        <ele>1524.49</ele>
        <time>2019-09-09T09:16:42Z</time>
      </trkpt>
      <trkpt lat="41.84004" lon="9.21209">
        <ele>1524.09</ele>
        <time>2019-09-09T09:17:04Z</time>
      </trkpt>
      <trkpt lat="41.84004" lon="9.21209">
        <ele>1523.95</ele>
        <time>2019-09-09T09:17:28Z</time>
      </trkpt>
      <trkpt lat="41.84005" lon="9.2121">
        <ele>1523.88</ele>
        <time>2019-09-09T09:18:05Z</time>
      </trkpt>
      <trkpt lat="41.8401" lon="9.21214">
        <ele>1524.43</ele>
        <time>2019-09-09T09:18:22Z</time>
      </trkpt>
      <trkpt lat="41.84023" lon="9.21226">
        <ele>1523.43</ele>
        <time>2019-09-09T09:18:42Z</time>
      </trkpt>
      <trkpt lat="41.84032" lon="9.21231">
        <ele>1523.03</ele>
        <time>2019-09-09T09:18:59Z</time>
      </trkpt>
      <trkpt lat="41.84034" lon="9.21238">
        <ele>1523.3</ele>
        <time>2019-09-09T09:19:16Z</time>
      </trkpt>
      <trkpt lat="41.84034" lon="9.21248">
        <ele>1524.71</ele>
        <time>2019-09-09T09:19:32Z</time>
      </trkpt>
      <trkpt lat="41.84033" lon="9.21255">
        <ele>1524.77</ele>
        <time>2019-09-09T09:19:47Z</time>
      </trkpt>
      <trkpt lat="41.84033" lon="9.21265">
        <ele>1526.83</ele>
        <time>2019-09-09T09:20:00Z</time>
      </trkpt>
      <trkpt lat="41.8404" lon="9.21274">
        <ele>1528.24</ele>
        <time>2019-09-09T09:20:15Z</time>
      </trkpt>
      <trkpt lat="41.84051" lon="9.21287">
        <ele>1529.23</ele>
        <time>2019-09-09T09:20:31Z</time>
      </trkpt>
      <trkpt lat="41.84058" lon="9.2129">
        <ele>1528.62</ele>
        <time>2019-09-09T09:20:45Z</time>
      </trkpt>
      <trkpt lat="41.84064" lon="9.21291">
        <ele>1526.72</ele>
        <time>2019-09-09T09:21:00Z</time>
      </trkpt>
      <trkpt lat="41.8407" lon="9.2129">
        <ele>1525.35</ele>
        <time>2019-09-09T09:21:14Z</time>
      </trkpt>
      <trkpt lat="41.84081" lon="9.21293">
        <ele>1524.86</ele>
        <time>2019-09-09T09:21:28Z</time>
      </trkpt>
      <trkpt lat="41.84088" lon="9.21296">
        <ele>1524.55</ele>
        <time>2019-09-09T09:21:42Z</time>
      </trkpt>
      <trkpt lat="41.84092" lon="9.21294">
        <ele>1525.8</ele>
        <time>2019-09-09T09:21:54Z</time>
      </trkpt>
      <trkpt lat="41.84095" lon="9.21289">
        <ele>1527.21</ele>
        <time>2019-09-09T09:22:08Z</time>
      </trkpt>
      <trkpt lat="41.84095" lon="9.21287">
        <ele>1527.61</ele>
        <time>2019-09-09T09:22:20Z</time>
      </trkpt>
      <trkpt lat="41.84097" lon="9.21291">
        <ele>1527.38</ele>
        <time>2019-09-09T09:22:36Z</time>
      </trkpt>
      <trkpt lat="41.84101" lon="9.21294">
        <ele>1528.03</ele>
        <time>2019-09-09T09:22:50Z</time>
      </trkpt>
      <trkpt lat="41.84106" lon="9.21298">
        <ele>1528.93</ele>
        <time>2019-09-09T09:23:03Z</time>
      </trkpt>
      <trkpt lat="41.84109" lon="9.21304">
        <ele>1530.34</ele>
        <time>2019-09-09T09:23:19Z</time>
      </trkpt>
      <trkpt lat="41.84113" lon="9.2131">
        <ele>1531.17</ele>
        <time>2019-09-09T09:23:36Z</time>
      </trkpt>
      <trkpt lat="41.84115" lon="9.21315">
        <ele>1531.16</ele>
        <time>2019-09-09T09:23:48Z</time>
      </trkpt>
      <trkpt lat="41.84115" lon="9.21321">
        <ele>1530.26</ele>
        <time>2019-09-09T09:24:00Z</time>
      </trkpt>
      <trkpt lat="41.84122" lon="9.21331">
        <ele>1529.47</ele>
        <time>2019-09-09T09:24:15Z</time>
      </trkpt>
      <trkpt lat="41.84131" lon="9.21339">
        <ele>1529.53</ele>
        <time>2019-09-09T09:24:29Z</time>
      </trkpt>
      <trkpt lat="41.84137" lon="9.21343">
        <ele>1529.61</ele>
        <time>2019-09-09T09:24:43Z</time>
      </trkpt>
      <trkpt lat="41.8414" lon="9.21351">
        <ele>1529.67</ele>
        <time>2019-09-09T09:24:54Z</time>
      </trkpt>
      <trkpt lat="41.84141" lon="9.21362">
        <ele>1530.58</ele>
        <time>2019-09-09T09:25:09Z</time>
      </trkpt>
      <trkpt lat="41.84142" lon="9.2137">
        <ele>1531.3</ele>
        <time>2019-09-09T09:25:22Z</time>
      </trkpt>
      <trkpt lat="41.84143" lon="9.21376">
        <ele>1532.57</ele>
        <time>2019-09-09T09:25:35Z</time>
      </trkpt>
      <trkpt lat="41.84145" lon="9.21386">
        <ele>1533.42</ele>
        <time>2019-09-09T09:25:48Z</time>
      </trkpt>
      <trkpt lat="41.84146" lon="9.21393">
        <ele>1533.43</ele>
        <time>2019-09-09T09:26:03Z</time>
      </trkpt>
      <trkpt lat="41.84148" lon="9.214">
        <ele>1534.79</ele>
        <time>2019-09-09T09:26:16Z</time>
      </trkpt>
      <trkpt lat="41.84149" lon="9.21407">
        <ele>1536.56</ele>
        <time>2019-09-09T09:26:32Z</time>
      </trkpt>
      <trkpt lat="41.84148" lon="9.21417">
        <ele>1536.81</ele>
        <time>2019-09-09T09:26:45Z</time>
      </trkpt>
      <trkpt lat="41.84144" lon="9.21429">
        <ele>1538.79</ele>
        <time>2019-09-09T09:27:01Z</time>
      </trkpt>
      <trkpt lat="41.84143" lon="9.21439">
        <ele>1538.89</ele>
        <time>2019-09-09T09:27:16Z</time>
      </trkpt>
      <trkpt lat="41.84143" lon="9.21445">
        <ele>1536.93</ele>
        <time>2019-09-09T09:27:29Z</time>
      </trkpt>
      <trkpt lat="41.84143" lon="9.2145">
        <ele>1537.65</ele>
        <time>2019-09-09T09:27:44Z</time>
      </trkpt>
      <trkpt lat="41.84144" lon="9.2145">
        <ele>1536.82</ele>
        <time>2019-09-09T09:28:05Z</time>
      </trkpt>
      <trkpt lat="41.84144" lon="9.21449">
        <ele>1536.86</ele>
        <time>2019-09-09T09:28:38Z</time>
      </trkpt>
      <trkpt lat="41.84146" lon="9.21449">
        <ele>1536.36</ele>
        <time>2019-09-09T09:29:07Z</time>
      </trkpt>
      <trkpt lat="41.84145" lon="9.21449">
        <ele>1536.48</ele>
        <time>2019-09-09T09:29:50Z</time>
      </trkpt>
      <trkpt lat="41.84145" lon="9.21451">
        <ele>1536.08</ele>
        <time>2019-09-09T09:30:45Z</time>
      </trkpt>
      <trkpt lat="41.84145" lon="9.2145">
        <ele>1535.64</ele>
        <time>2019-09-09T09:31:36Z</time>
      </trkpt>
      <trkpt lat="41.84145" lon="9.21449">
        <ele>1534.36</ele>
        <time>2019-09-09T09:32:36Z</time>
      </trkpt>
      <trkpt lat="41.84144" lon="9.21449">
        <ele>1534.92</ele>
        <time>2019-09-09T09:33:22Z</time>
      </trkpt>
      <trkpt lat="41.84143" lon="9.2145">
        <ele>1535.35</ele>
        <time>2019-09-09T09:34:19Z</time>
      </trkpt>
      <trkpt lat="41.84142" lon="9.2145">
        <ele>1535.6</ele>
        <time>2019-09-09T09:34:55Z</time>
      </trkpt>
      <trkpt lat="41.84143" lon="9.21451">
        <ele>1535.87</ele>
        <time>2019-09-09T09:35:40Z</time>
      </trkpt>
      <trkpt lat="41.84144" lon="9.21451">
        <ele>1536.44</ele>
        <time>2019-09-09T09:36:28Z</time>
      </trkpt>
      <trkpt lat="41.84145" lon="9.2145">
        <ele>1536.17</ele>
        <time>2019-09-09T09:37:11Z</time>
      </trkpt>
      <trkpt lat="41.84145" lon="9.21451">
        <ele>1536.19</ele>
        <time>2019-09-09T09:37:26Z</time>
      </trkpt>
      <trkpt lat="41.84145" lon="9.21451">
        <ele>1536.1</ele>
        <time>2019-09-09T09:37:59Z</time>
      </trkpt>
      <trkpt lat="41.84146" lon="9.2145">
        <ele>1536.06</ele>
        <time>2019-09-09T09:38:29Z</time>
      </trkpt>
      <trkpt lat="41.84145" lon="9.2145">
        <ele>1535.73</ele>
        <time>2019-09-09T09:39:08Z</time>
      </trkpt>
      <trkpt lat="41.84145" lon="9.21451">
        <ele>1537.52</ele>
        <time>2019-09-09T09:39:26Z</time>
      </trkpt>
      <trkpt lat="41.84145" lon="9.21451">
        <ele>1537.17</ele>
        <time>2019-09-09T09:39:44Z</time>
      </trkpt>
      <trkpt lat="41.84144" lon="9.21452">
        <ele>1537.36</ele>
        <time>2019-09-09T09:40:08Z</time>
      </trkpt>
      <trkpt lat="41.84144" lon="9.21453">
        <ele>1537.48</ele>
        <time>2019-09-09T09:40:27Z</time>
      </trkpt>
      <trkpt lat="41.84147" lon="9.2145">
        <ele>1538.67</ele>
        <time>2019-09-09T09:40:41Z</time>
      </trkpt>
      <trkpt lat="41.84148" lon="9.21448">
        <ele>1538.93</ele>
        <time>2019-09-09T09:40:58Z</time>
      </trkpt>
      <trkpt lat="41.84151" lon="9.21446">
        <ele>1539.51</ele>
        <time>2019-09-09T09:41:13Z</time>
      </trkpt>
      <trkpt lat="41.84156" lon="9.21437">
        <ele>1540.8</ele>
        <time>2019-09-09T09:41:27Z</time>
      </trkpt>
      <trkpt lat="41.8416" lon="9.2143">
        <ele>1542.02</ele>
        <time>2019-09-09T09:41:42Z</time>
      </trkpt>
      <trkpt lat="41.84163" lon="9.21423">
        <ele>1543.46</ele>
        <time>2019-09-09T09:41:57Z</time>
      </trkpt>
      <trkpt lat="41.84166" lon="9.21413">
        <ele>1544.07</ele>
        <time>2019-09-09T09:42:11Z</time>
      </trkpt>
      <trkpt lat="41.84171" lon="9.21406">
        <ele>1545.8</ele>
        <time>2019-09-09T09:42:26Z</time>
      </trkpt>
      <trkpt lat="41.84176" lon="9.21398">
        <ele>1547.65</ele>
        <time>2019-09-09T09:42:41Z</time>
      </trkpt>
      <trkpt lat="41.84178" lon="9.21392">
        <ele>1549.18</ele>
        <time>2019-09-09T09:42:55Z</time>
      </trkpt>
      <trkpt lat="41.84181" lon="9.21382">
        <ele>1550.4</ele>
        <time>2019-09-09T09:43:09Z</time>
      </trkpt>
      <trkpt lat="41.84183" lon="9.21374">
        <ele>1551.63</ele>
        <time>2019-09-09T09:43:22Z</time>
      </trkpt>
      <trkpt lat="41.84185" lon="9.2137">
        <ele>1552.59</ele>
        <time>2019-09-09T09:43:34Z</time>
      </trkpt>
      <trkpt lat="41.84188" lon="9.21365">
        <ele>1554.16</ele>
        <time>2019-09-09T09:43:50Z</time>
      </trkpt>
      <trkpt lat="41.84191" lon="9.21359">
        <ele>1555.76</ele>
        <time>2019-09-09T09:44:05Z</time>
      </trkpt>
      <trkpt lat="41.84192" lon="9.21353">
        <ele>1556.68</ele>
        <time>2019-09-09T09:44:14Z</time>
      </trkpt>
      <trkpt lat="41.84194" lon="9.21341">
        <ele>1557.2</ele>
        <time>2019-09-09T09:44:29Z</time>
      </trkpt>
      <trkpt lat="41.84194" lon="9.2133">
        <ele>1556.37</ele>
        <time>2019-09-09T09:44:42Z</time>
      </trkpt>
      <trkpt lat="41.84193" lon="9.21321">
        <ele>1556.34</ele>
        <time>2019-09-09T09:44:55Z</time>
      </trkpt>
      <trkpt lat="41.84194" lon="9.21313">
        <ele>1556.48</ele>
        <time>2019-09-09T09:45:09Z</time>
      </trkpt>
      <trkpt lat="41.84192" lon="9.21303">
        <ele>1556.45</ele>
        <time>2019-09-09T09:45:26Z</time>
      </trkpt>
      <trkpt lat="41.84193" lon="9.2129">
        <ele>1557.05</ele>
        <time>2019-09-09T09:45:40Z</time>
      </trkpt>
      <trkpt lat="41.84193" lon="9.21281">
        <ele>1557.6</ele>
        <time>2019-09-09T09:45:55Z</time>
      </trkpt>
      <trkpt lat="41.84195" lon="9.21278">
        <ele>1559.59</ele>
        <time>2019-09-09T09:46:09Z</time>
      </trkpt>
      <trkpt lat="41.84195" lon="9.21272">
        <ele>1561.42</ele>
        <time>2019-09-09T09:46:21Z</time>
      </trkpt>
      <trkpt lat="41.84194" lon="9.21262">
        <ele>1562.39</ele>
        <time>2019-09-09T09:46:37Z</time>
      </trkpt>
      <trkpt lat="41.84195" lon="9.21252">
        <ele>1563.35</ele>
        <time>2019-09-09T09:46:51Z</time>
      </trkpt>
      <trkpt lat="41.84195" lon="9.21246">
        <ele>1565.43</ele>
        <time>2019-09-09T09:47:03Z</time>
      </trkpt>
      <trkpt lat="41.84192" lon="9.21239">
        <ele>1566.41</ele>
        <time>2019-09-09T09:47:16Z</time>
      </trkpt>
      <trkpt lat="41.84189" lon="9.21233">
        <ele>1568.45</ele>
        <time>2019-09-09T09:47:28Z</time>
      </trkpt>
      <trkpt lat="41.84184" lon="9.21223">
        <ele>1570.02</ele>
        <time>2019-09-09T09:47:42Z</time>
      </trkpt>
      <trkpt lat="41.84176" lon="9.21209">
        <ele>1571.97</ele>
        <time>2019-09-09T09:47:59Z</time>
      </trkpt>
      <trkpt lat="41.84175" lon="9.21202">
        <ele>1573.33</ele>
        <time>2019-09-09T09:48:11Z</time>
      </trkpt>
      <trkpt lat="41.84175" lon="9.21193">
        <ele>1574.72</ele>
        <time>2019-09-09T09:48:25Z</time>
      </trkpt>
      <trkpt lat="41.84175" lon="9.21188">
        <ele>1576.46</ele>
        <time>2019-09-09T09:48:38Z</time>
      </trkpt>
      <trkpt lat="41.84175" lon="9.21182">
        <ele>1577.53</ele>
        <time>2019-09-09T09:48:49Z</time>
      </trkpt>
      <trkpt lat="41.84176" lon="9.21175">
        <ele>1579.19</ele>
        <time>2019-09-09T09:49:03Z</time>
      </trkpt>
      <trkpt lat="41.84177" lon="9.21169">
        <ele>1580.56</ele>
        <time>2019-09-09T09:49:15Z</time>
      </trkpt>
      <trkpt lat="41.8418" lon="9.21167">
        <ele>1582.07</ele>
        <time>2019-09-09T09:49:29Z</time>
      </trkpt>
      <trkpt lat="41.84181" lon="9.21154">
        <ele>1582.79</ele>
        <time>2019-09-09T09:49:44Z</time>
      </trkpt>
      <trkpt lat="41.84183" lon="9.21145">
        <ele>1584.14</ele>
        <time>2019-09-09T09:49:59Z</time>
      </trkpt>
      <trkpt lat="41.84187" lon="9.2114">
        <ele>1586.92</ele>
        <time>2019-09-09T09:50:15Z</time>
      </trkpt>
      <trkpt lat="41.84189" lon="9.21138">
        <ele>1588.89</ele>
        <time>2019-09-09T09:50:28Z</time>
      </trkpt>
      <trkpt lat="41.84191" lon="9.21135">
        <ele>1590.32</ele>
        <time>2019-09-09T09:50:41Z</time>
      </trkpt>
      <trkpt lat="41.84194" lon="9.21132">
        <ele>1592</ele>
        <time>2019-09-09T09:50:54Z</time>
      </trkpt>
      <trkpt lat="41.84196" lon="9.21134">
        <ele>1594.04</ele>
        <time>2019-09-09T09:51:07Z</time>
      </trkpt>
      <trkpt lat="41.84198" lon="9.21138">
        <ele>1595.86</ele>
        <time>2019-09-09T09:51:22Z</time>
      </trkpt>
      <trkpt lat="41.84201" lon="9.21137">
        <ele>1597.37</ele>
        <time>2019-09-09T09:51:37Z</time>
      </trkpt>
      <trkpt lat="41.84204" lon="9.2113">
        <ele>1599.4</ele>
        <time>2019-09-09T09:51:51Z</time>
      </trkpt>
      <trkpt lat="41.84207" lon="9.21132">
        <ele>1601.12</ele>
        <time>2019-09-09T09:52:05Z</time>
      </trkpt>
      <trkpt lat="41.8421" lon="9.21127">
        <ele>1602.91</ele>
        <time>2019-09-09T09:52:20Z</time>
      </trkpt>
      <trkpt lat="41.84214" lon="9.21128">
        <ele>1604.94</ele>
        <time>2019-09-09T09:52:35Z</time>
      </trkpt>
      <trkpt lat="41.84215" lon="9.21123">
        <ele>1606.34</ele>
        <time>2019-09-09T09:52:48Z</time>
      </trkpt>
      <trkpt lat="41.84218" lon="9.2112">
        <ele>1608.05</ele>
        <time>2019-09-09T09:53:00Z</time>
      </trkpt>
      <trkpt lat="41.84219" lon="9.21124">
        <ele>1609.47</ele>
        <time>2019-09-09T09:53:14Z</time>
      </trkpt>
      <trkpt lat="41.84222" lon="9.21124">
        <ele>1610.83</ele>
        <time>2019-09-09T09:53:26Z</time>
      </trkpt>
      <trkpt lat="41.84224" lon="9.21128">
        <ele>1612.64</ele>
        <time>2019-09-09T09:53:41Z</time>
      </trkpt>
      <trkpt lat="41.84227" lon="9.21127">
        <ele>1614.21</ele>
        <time>2019-09-09T09:53:53Z</time>
      </trkpt>
      <trkpt lat="41.84229" lon="9.21125">
        <ele>1615.81</ele>
        <time>2019-09-09T09:54:06Z</time>
      </trkpt>
      <trkpt lat="41.84233" lon="9.21123">
        <ele>1617.79</ele>
        <time>2019-09-09T09:54:19Z</time>
      </trkpt>
      <trkpt lat="41.84235" lon="9.21122">
        <ele>1618.92</ele>
        <time>2019-09-09T09:54:30Z</time>
      </trkpt>
      <trkpt lat="41.84236" lon="9.21124">
        <ele>1619.41</ele>
        <time>2019-09-09T09:54:40Z</time>
      </trkpt>
      <trkpt lat="41.84239" lon="9.21124">
        <ele>1620.95</ele>
        <time>2019-09-09T09:54:55Z</time>
      </trkpt>
      <trkpt lat="41.84243" lon="9.21125">
        <ele>1623.01</ele>
        <time>2019-09-09T09:55:08Z</time>
      </trkpt>
      <trkpt lat="41.84245" lon="9.21129">
        <ele>1624.74</ele>
        <time>2019-09-09T09:55:20Z</time>
      </trkpt>
      <trkpt lat="41.84248" lon="9.2113">
        <ele>1626.62</ele>
        <time>2019-09-09T09:55:34Z</time>
      </trkpt>
      <trkpt lat="41.84251" lon="9.21132">
        <ele>1627.68</ele>
        <time>2019-09-09T09:55:48Z</time>
      </trkpt>
      <trkpt lat="41.84254" lon="9.21131">
        <ele>1629.88</ele>
        <time>2019-09-09T09:56:02Z</time>
      </trkpt>
      <trkpt lat="41.84258" lon="9.21129">
        <ele>1631.93</ele>
        <time>2019-09-09T09:56:16Z</time>
      </trkpt>
      <trkpt lat="41.84261" lon="9.21125">
        <ele>1633.86</ele>
        <time>2019-09-09T09:56:28Z</time>
      </trkpt>
      <trkpt lat="41.84261" lon="9.21124">
        <ele>1634.04</ele>
        <time>2019-09-09T09:56:48Z</time>
      </trkpt>
      <trkpt lat="41.84261" lon="9.21121">
        <ele>1634.14</ele>
        <time>2019-09-09T09:57:33Z</time>
      </trkpt>
      <trkpt lat="41.84261" lon="9.21121">
        <ele>1634.7</ele>
        <time>2019-09-09T09:57:58Z</time>
      </trkpt>
      <trkpt lat="41.84262" lon="9.21118">
        <ele>1635.98</ele>
        <time>2019-09-09T09:58:27Z</time>
      </trkpt>
      <trkpt lat="41.84266" lon="9.21115">
        <ele>1637.66</ele>
        <time>2019-09-09T09:58:40Z</time>
      </trkpt>
      <trkpt lat="41.84268" lon="9.21115">
        <ele>1639.65</ele>
        <time>2019-09-09T09:58:55Z</time>
      </trkpt>
      <trkpt lat="41.84271" lon="9.21114">
        <ele>1641.16</ele>
        <time>2019-09-09T09:59:09Z</time>
      </trkpt>
      <trkpt lat="41.84274" lon="9.21114">
        <ele>1643.54</ele>
        <time>2019-09-09T09:59:22Z</time>
      </trkpt>
      <trkpt lat="41.84277" lon="9.21116">
        <ele>1645.03</ele>
        <time>2019-09-09T09:59:33Z</time>
      </trkpt>
      <trkpt lat="41.8428" lon="9.21117">
        <ele>1647.08</ele>
        <time>2019-09-09T09:59:46Z</time>
      </trkpt>
      <trkpt lat="41.84283" lon="9.21118">
        <ele>1649.04</ele>
        <time>2019-09-09T09:59:59Z</time>
      </trkpt>
      <trkpt lat="41.84284" lon="9.21112">
        <ele>1649.99</ele>
        <time>2019-09-09T10:00:11Z</time>
      </trkpt>
      <trkpt lat="41.84286" lon="9.21109">
        <ele>1651.46</ele>
        <time>2019-09-09T10:00:24Z</time>
      </trkpt>
      <trkpt lat="41.84288" lon="9.21101">
        <ele>1653.42</ele>
        <time>2019-09-09T10:00:38Z</time>
      </trkpt>
      <trkpt lat="41.84291" lon="9.21102">
        <ele>1655.51</ele>
        <time>2019-09-09T10:00:52Z</time>
      </trkpt>
      <trkpt lat="41.84293" lon="9.211">
        <ele>1657.2</ele>
        <time>2019-09-09T10:01:05Z</time>
      </trkpt>
      <trkpt lat="41.84295" lon="9.211">
        <ele>1658.96</ele>
        <time>2019-09-09T10:01:17Z</time>
      </trkpt>
      <trkpt lat="41.84298" lon="9.211">
        <ele>1660.44</ele>
        <time>2019-09-09T10:01:29Z</time>
      </trkpt>
      <trkpt lat="41.84298" lon="9.21094">
        <ele>1661.99</ele>
        <time>2019-09-09T10:01:43Z</time>
      </trkpt>
      <trkpt lat="41.843" lon="9.21094">
        <ele>1663.62</ele>
        <time>2019-09-09T10:01:55Z</time>
      </trkpt>
      <trkpt lat="41.84303" lon="9.21095">
        <ele>1664.99</ele>
        <time>2019-09-09T10:02:09Z</time>
      </trkpt>
      <trkpt lat="41.84306" lon="9.21091">
        <ele>1667.28</ele>
        <time>2019-09-09T10:02:25Z</time>
      </trkpt>
      <trkpt lat="41.84309" lon="9.21089">
        <ele>1669.12</ele>
        <time>2019-09-09T10:02:39Z</time>
      </trkpt>
      <trkpt lat="41.84311" lon="9.21084">
        <ele>1670.99</ele>
        <time>2019-09-09T10:02:54Z</time>
      </trkpt>
      <trkpt lat="41.84314" lon="9.21089">
        <ele>1672.75</ele>
        <time>2019-09-09T10:03:09Z</time>
      </trkpt>
      <trkpt lat="41.84316" lon="9.21093">
        <ele>1674.12</ele>
        <time>2019-09-09T10:03:23Z</time>
      </trkpt>
      <trkpt lat="41.84319" lon="9.21092">
        <ele>1675.52</ele>
        <time>2019-09-09T10:03:35Z</time>
      </trkpt>
      <trkpt lat="41.84322" lon="9.21088">
        <ele>1677.67</ele>
        <time>2019-09-09T10:03:49Z</time>
      </trkpt>
      <trkpt lat="41.84325" lon="9.21092">
        <ele>1679.08</ele>
        <time>2019-09-09T10:04:01Z</time>
      </trkpt>
      <trkpt lat="41.84328" lon="9.21095">
        <ele>1680.65</ele>
        <time>2019-09-09T10:04:16Z</time>
      </trkpt>
      <trkpt lat="41.84332" lon="9.21098">
        <ele>1682.41</ele>
        <time>2019-09-09T10:04:30Z</time>
      </trkpt>
      <trkpt lat="41.84335" lon="9.21095">
        <ele>1684.24</ele>
        <time>2019-09-09T10:04:44Z</time>
      </trkpt>
      <trkpt lat="41.84338" lon="9.21092">
        <ele>1685.51</ele>
        <time>2019-09-09T10:04:55Z</time>
      </trkpt>
      <trkpt lat="41.8434" lon="9.21094">
        <ele>1686.77</ele>
        <time>2019-09-09T10:05:07Z</time>
      </trkpt>
      <trkpt lat="41.84343" lon="9.21091">
        <ele>1688.75</ele>
        <time>2019-09-09T10:05:23Z</time>
      </trkpt>
      <trkpt lat="41.84346" lon="9.21086">
        <ele>1690.57</ele>
        <time>2019-09-09T10:05:37Z</time>
      </trkpt>
      <trkpt lat="41.84347" lon="9.21082">
        <ele>1691.92</ele>
        <time>2019-09-09T10:05:49Z</time>
      </trkpt>
      <trkpt lat="41.8435" lon="9.21081">
        <ele>1693.37</ele>
        <time>2019-09-09T10:06:02Z</time>
      </trkpt>
      <trkpt lat="41.84354" lon="9.21076">
        <ele>1694.97</ele>
        <time>2019-09-09T10:06:15Z</time>
      </trkpt>
      <trkpt lat="41.84358" lon="9.21072">
        <ele>1696.42</ele>
        <time>2019-09-09T10:06:28Z</time>
      </trkpt>
      <trkpt lat="41.84363" lon="9.21067">
        <ele>1698.4</ele>
        <time>2019-09-09T10:06:42Z</time>
      </trkpt>
      <trkpt lat="41.84368" lon="9.21061">
        <ele>1699.74</ele>
        <time>2019-09-09T10:06:55Z</time>
      </trkpt>
      <trkpt lat="41.84372" lon="9.21056">
        <ele>1701.19</ele>
        <time>2019-09-09T10:07:07Z</time>
      </trkpt>
      <trkpt lat="41.84375" lon="9.21051">
        <ele>1702.18</ele>
        <time>2019-09-09T10:07:18Z</time>
      </trkpt>
      <trkpt lat="41.84377" lon="9.21039">
        <ele>1702.62</ele>
        <time>2019-09-09T10:07:32Z</time>
      </trkpt>
      <trkpt lat="41.84381" lon="9.21034">
        <ele>1704.14</ele>
        <time>2019-09-09T10:07:45Z</time>
      </trkpt>
      <trkpt lat="41.84384" lon="9.21028">
        <ele>1705.73</ele>
        <time>2019-09-09T10:07:57Z</time>
      </trkpt>
      <trkpt lat="41.84389" lon="9.2102">
        <ele>1707.48</ele>
        <time>2019-09-09T10:08:12Z</time>
      </trkpt>
      <trkpt lat="41.84392" lon="9.21016">
        <ele>1709.28</ele>
        <time>2019-09-09T10:08:25Z</time>
      </trkpt>
      <trkpt lat="41.84396" lon="9.2101">
        <ele>1710.81</ele>
        <time>2019-09-09T10:08:38Z</time>
      </trkpt>
      <trkpt lat="41.844" lon="9.21005">
        <ele>1712.86</ele>
        <time>2019-09-09T10:08:53Z</time>
      </trkpt>
      <trkpt lat="41.84402" lon="9.20999">
        <ele>1714.71</ele>
        <time>2019-09-09T10:09:06Z</time>
      </trkpt>
      <trkpt lat="41.84404" lon="9.20994">
        <ele>1716.14</ele>
        <time>2019-09-09T10:09:19Z</time>
      </trkpt>
      <trkpt lat="41.84407" lon="9.20987">
        <ele>1717.78</ele>
        <time>2019-09-09T10:09:33Z</time>
      </trkpt>
      <trkpt lat="41.8441" lon="9.20979">
        <ele>1719.29</ele>
        <time>2019-09-09T10:09:46Z</time>
      </trkpt>
      <trkpt lat="41.84411" lon="9.20972">
        <ele>1720.6</ele>
        <time>2019-09-09T10:10:01Z</time>
      </trkpt>
      <trkpt lat="41.84415" lon="9.20962">
        <ele>1721.71</ele>
        <time>2019-09-09T10:10:15Z</time>
      </trkpt>
      <trkpt lat="41.84419" lon="9.20958">
        <ele>1723.97</ele>
        <time>2019-09-09T10:10:29Z</time>
      </trkpt>
      <trkpt lat="41.84424" lon="9.20957">
        <ele>1726.31</ele>
        <time>2019-09-09T10:10:43Z</time>
      </trkpt>
      <trkpt lat="41.84428" lon="9.20952">
        <ele>1727.57</ele>
        <time>2019-09-09T10:10:56Z</time>
      </trkpt>
      <trkpt lat="41.84433" lon="9.20943">
        <ele>1729.27</ele>
        <time>2019-09-09T10:11:12Z</time>
      </trkpt>
      <trkpt lat="41.84433" lon="9.20941">
        <ele>1729.97</ele>
        <time>2019-09-09T10:11:28Z</time>
      </trkpt>
      <trkpt lat="41.84433" lon="9.20941">
        <ele>1729.84</ele>
        <time>2019-09-09T10:11:43Z</time>
      </trkpt>
      <trkpt lat="41.84433" lon="9.20941">
        <ele>1730.14</ele>
        <time>2019-09-09T10:11:56Z</time>
      </trkpt>
      <trkpt lat="41.84432" lon="9.20939">
        <ele>1729.7</ele>
        <time>2019-09-09T10:12:38Z</time>
      </trkpt>
      <trkpt lat="41.84433" lon="9.20939">
        <ele>1729.44</ele>
        <time>2019-09-09T10:13:10Z</time>
      </trkpt>
      <trkpt lat="41.84434" lon="9.2094">
        <ele>1729.43</ele>
        <time>2019-09-09T10:13:38Z</time>
      </trkpt>
      <trkpt lat="41.84434" lon="9.2094">
        <ele>1728.75</ele>
        <time>2019-09-09T10:14:20Z</time>
      </trkpt>
      <trkpt lat="41.84435" lon="9.2094">
        <ele>1727.85</ele>
        <time>2019-09-09T10:14:59Z</time>
      </trkpt>
      <trkpt lat="41.84433" lon="9.20938">
        <ele>1728.05</ele>
        <time>2019-09-09T10:15:21Z</time>
      </trkpt>
      <trkpt lat="41.84437" lon="9.20933">
        <ele>1729.06</ele>
        <time>2019-09-09T10:15:37Z</time>
      </trkpt>
      <trkpt lat="41.84439" lon="9.20929">
        <ele>1729.98</ele>
        <time>2019-09-09T10:15:47Z</time>
      </trkpt>
      <trkpt lat="41.8444" lon="9.20922">
        <ele>1731.95</ele>
        <time>2019-09-09T10:16:00Z</time>
      </trkpt>
      <trkpt lat="41.84441" lon="9.20913">
        <ele>1734.06</ele>
        <time>2019-09-09T10:16:14Z</time>
      </trkpt>
      <trkpt lat="41.84442" lon="9.20907">
        <ele>1735.87</ele>
        <time>2019-09-09T10:16:26Z</time>
      </trkpt>
      <trkpt lat="41.84444" lon="9.20902">
        <ele>1737.78</ele>
        <time>2019-09-09T10:16:41Z</time>
      </trkpt>
      <trkpt lat="41.84446" lon="9.20897">
        <ele>1739.81</ele>
        <time>2019-09-09T10:16:54Z</time>
      </trkpt>
      <trkpt lat="41.84448" lon="9.20893">
        <ele>1741.65</ele>
        <time>2019-09-09T10:17:07Z</time>
      </trkpt>
      <trkpt lat="41.84452" lon="9.20895">
        <ele>1743.29</ele>
        <time>2019-09-09T10:17:21Z</time>
      </trkpt>
      <trkpt lat="41.84455" lon="9.20897">
        <ele>1743.95</ele>
        <time>2019-09-09T10:17:34Z</time>
      </trkpt>
      <trkpt lat="41.84458" lon="9.20897">
        <ele>1744.92</ele>
        <time>2019-09-09T10:17:48Z</time>
      </trkpt>
      <trkpt lat="41.84461" lon="9.20896">
        <ele>1746</ele>
        <time>2019-09-09T10:18:01Z</time>
      </trkpt>
      <trkpt lat="41.84464" lon="9.20894">
        <ele>1747.81</ele>
        <time>2019-09-09T10:18:14Z</time>
      </trkpt>
      <trkpt lat="41.84466" lon="9.20893">
        <ele>1749.25</ele>
        <time>2019-09-09T10:18:26Z</time>
      </trkpt>
      <trkpt lat="41.84466" lon="9.20888">
        <ele>1750.51</ele>
        <time>2019-09-09T10:18:37Z</time>
      </trkpt>
      <trkpt lat="41.84469" lon="9.20886">
        <ele>1751.2</ele>
        <time>2019-09-09T10:18:51Z</time>
      </trkpt>
      <trkpt lat="41.84472" lon="9.20886">
        <ele>1752.9</ele>
        <time>2019-09-09T10:19:04Z</time>
      </trkpt>
      <trkpt lat="41.84474" lon="9.20886">
        <ele>1754.28</ele>
        <time>2019-09-09T10:19:15Z</time>
      </trkpt>
      <trkpt lat="41.84478" lon="9.20886">
        <ele>1756.26</ele>
        <time>2019-09-09T10:19:31Z</time>
      </trkpt>
      <trkpt lat="41.8448" lon="9.20887">
        <ele>1757.69</ele>
        <time>2019-09-09T10:19:45Z</time>
      </trkpt>
      <trkpt lat="41.84485" lon="9.20891">
        <ele>1758.56</ele>
        <time>2019-09-09T10:19:59Z</time>
      </trkpt>
      <trkpt lat="41.84486" lon="9.20886">
        <ele>1759.97</ele>
        <time>2019-09-09T10:20:14Z</time>
      </trkpt>
      <trkpt lat="41.84487" lon="9.20882">
        <ele>1761.17</ele>
        <time>2019-09-09T10:20:28Z</time>
      </trkpt>
      <trkpt lat="41.84489" lon="9.20883">
        <ele>1761.93</ele>
        <time>2019-09-09T10:20:41Z</time>
      </trkpt>
      <trkpt lat="41.84489" lon="9.20882">
        <ele>1762.81</ele>
        <time>2019-09-09T10:21:01Z</time>
      </trkpt>
      <trkpt lat="41.8449" lon="9.20878">
        <ele>1763.93</ele>
        <time>2019-09-09T10:21:31Z</time>
      </trkpt>
      <trkpt lat="41.84492" lon="9.20877">
        <ele>1765.22</ele>
        <time>2019-09-09T10:21:46Z</time>
      </trkpt>
      <trkpt lat="41.84493" lon="9.20874">
        <ele>1766.38</ele>
        <time>2019-09-09T10:22:04Z</time>
      </trkpt>
      <trkpt lat="41.84493" lon="9.20871">
        <ele>1767.63</ele>
        <time>2019-09-09T10:22:18Z</time>
      </trkpt>
      <trkpt lat="41.84495" lon="9.20869">
        <ele>1769.61</ele>
        <time>2019-09-09T10:22:33Z</time>
      </trkpt>
      <trkpt lat="41.84498" lon="9.20867">
        <ele>1772.04</ele>
        <time>2019-09-09T10:22:47Z</time>
      </trkpt>
      <trkpt lat="41.845" lon="9.20864">
        <ele>1773.92</ele>
        <time>2019-09-09T10:23:00Z</time>
      </trkpt>
      <trkpt lat="41.84504" lon="9.20865">
        <ele>1775.72</ele>
        <time>2019-09-09T10:23:15Z</time>
      </trkpt>
      <trkpt lat="41.84505" lon="9.20863">
        <ele>1777.41</ele>
        <time>2019-09-09T10:23:27Z</time>
      </trkpt>
      <trkpt lat="41.84507" lon="9.20859">
        <ele>1779.29</ele>
        <time>2019-09-09T10:23:44Z</time>
      </trkpt>
      <trkpt lat="41.84506" lon="9.20855">
        <ele>1779.12</ele>
        <time>2019-09-09T10:24:05Z</time>
      </trkpt>
      <trkpt lat="41.84506" lon="9.2085">
        <ele>1779.82</ele>
        <time>2019-09-09T10:24:18Z</time>
      </trkpt>
      <trkpt lat="41.84508" lon="9.20845">
        <ele>1781.78</ele>
        <time>2019-09-09T10:24:32Z</time>
      </trkpt>
      <trkpt lat="41.84509" lon="9.20842">
        <ele>1784.64</ele>
        <time>2019-09-09T10:24:46Z</time>
      </trkpt>
      <trkpt lat="41.84512" lon="9.20839">
        <ele>1786.33</ele>
        <time>2019-09-09T10:24:58Z</time>
      </trkpt>
      <trkpt lat="41.84513" lon="9.20842">
        <ele>1786.63</ele>
        <time>2019-09-09T10:25:17Z</time>
      </trkpt>
      <trkpt lat="41.84516" lon="9.20842">
        <ele>1787.6</ele>
        <time>2019-09-09T10:25:30Z</time>
      </trkpt>
      <trkpt lat="41.84519" lon="9.20839">
        <ele>1789.86</ele>
        <time>2019-09-09T10:25:42Z</time>
      </trkpt>
      <trkpt lat="41.84522" lon="9.20839">
        <ele>1791.73</ele>
        <time>2019-09-09T10:25:54Z</time>
      </trkpt>
      <trkpt lat="41.84525" lon="9.20837">
        <ele>1793.97</ele>
        <time>2019-09-09T10:26:07Z</time>
      </trkpt>
      <trkpt lat="41.84526" lon="9.20831">
        <ele>1795.13</ele>
        <time>2019-09-09T10:26:22Z</time>
      </trkpt>
      <trkpt lat="41.84527" lon="9.20827">
        <ele>1796.69</ele>
        <time>2019-09-09T10:26:38Z</time>
      </trkpt>
      <trkpt lat="41.84529" lon="9.20824">
        <ele>1797.63</ele>
        <time>2019-09-09T10:26:54Z</time>
      </trkpt>
      <trkpt lat="41.84531" lon="9.20822">
        <ele>1799.56</ele>
        <time>2019-09-09T10:27:08Z</time>
      </trkpt>
      <trkpt lat="41.84533" lon="9.20819">
        <ele>1800.93</ele>
        <time>2019-09-09T10:27:22Z</time>
      </trkpt>
      <trkpt lat="41.84536" lon="9.20821">
        <ele>1804.02</ele>
        <time>2019-09-09T10:27:38Z</time>
      </trkpt>
      <trkpt lat="41.84539" lon="9.20821">
        <ele>1805.75</ele>
        <time>2019-09-09T10:27:51Z</time>
      </trkpt>
      <trkpt lat="41.84542" lon="9.20818">
        <ele>1806.81</ele>
        <time>2019-09-09T10:28:04Z</time>
      </trkpt>
      <trkpt lat="41.84543" lon="9.20815">
        <ele>1808.27</ele>
        <time>2019-09-09T10:28:19Z</time>
      </trkpt>
      <trkpt lat="41.84544" lon="9.2081">
        <ele>1808.98</ele>
        <time>2019-09-09T10:28:31Z</time>
      </trkpt>
      <trkpt lat="41.84545" lon="9.20807">
        <ele>1810.5</ele>
        <time>2019-09-09T10:28:43Z</time>
      </trkpt>
      <trkpt lat="41.84547" lon="9.20808">
        <ele>1812.28</ele>
        <time>2019-09-09T10:28:58Z</time>
      </trkpt>
      <trkpt lat="41.84551" lon="9.20808">
        <ele>1814.56</ele>
        <time>2019-09-09T10:29:14Z</time>
      </trkpt>
      <trkpt lat="41.84555" lon="9.20812">
        <ele>1816.63</ele>
        <time>2019-09-09T10:29:27Z</time>
      </trkpt>
      <trkpt lat="41.8456" lon="9.20816">
        <ele>1817.72</ele>
        <time>2019-09-09T10:29:41Z</time>
      </trkpt>
      <trkpt lat="41.84563" lon="9.2082">
        <ele>1818.31</ele>
        <time>2019-09-09T10:29:51Z</time>
      </trkpt>
      <trkpt lat="41.84565" lon="9.20822">
        <ele>1819.48</ele>
        <time>2019-09-09T10:30:05Z</time>
      </trkpt>
      <trkpt lat="41.84567" lon="9.20824">
        <ele>1820.68</ele>
        <time>2019-09-09T10:30:20Z</time>
      </trkpt>
      <trkpt lat="41.8457" lon="9.20825">
        <ele>1822.43</ele>
        <time>2019-09-09T10:30:34Z</time>
      </trkpt>
      <trkpt lat="41.84572" lon="9.20826">
        <ele>1823.96</ele>
        <time>2019-09-09T10:30:46Z</time>
      </trkpt>
      <trkpt lat="41.84574" lon="9.20822">
        <ele>1824.78</ele>
        <time>2019-09-09T10:30:58Z</time>
      </trkpt>
      <trkpt lat="41.84576" lon="9.2082">
        <ele>1826.63</ele>
        <time>2019-09-09T10:31:13Z</time>
      </trkpt>
      <trkpt lat="41.84579" lon="9.20818">
        <ele>1828.35</ele>
        <time>2019-09-09T10:31:30Z</time>
      </trkpt>
      <trkpt lat="41.84582" lon="9.20818">
        <ele>1829.89</ele>
        <time>2019-09-09T10:31:44Z</time>
      </trkpt>
      <trkpt lat="41.84583" lon="9.20814">
        <ele>1830.62</ele>
        <time>2019-09-09T10:31:56Z</time>
      </trkpt>
      <trkpt lat="41.84585" lon="9.20813">
        <ele>1832.12</ele>
        <time>2019-09-09T10:32:08Z</time>
      </trkpt>
      <trkpt lat="41.84586" lon="9.20809">
        <ele>1833.94</ele>
        <time>2019-09-09T10:32:25Z</time>
      </trkpt>
      <trkpt lat="41.84588" lon="9.20806">
        <ele>1835.87</ele>
        <time>2019-09-09T10:32:41Z</time>
      </trkpt>
      <trkpt lat="41.8459" lon="9.20804">
        <ele>1838.04</ele>
        <time>2019-09-09T10:32:54Z</time>
      </trkpt>
      <trkpt lat="41.84594" lon="9.20806">
        <ele>1839.18</ele>
        <time>2019-09-09T10:33:05Z</time>
      </trkpt>
      <trkpt lat="41.84597" lon="9.20806">
        <ele>1839.83</ele>
        <time>2019-09-09T10:33:18Z</time>
      </trkpt>
      <trkpt lat="41.84597" lon="9.208">
        <ele>1841.75</ele>
        <time>2019-09-09T10:33:36Z</time>
      </trkpt>
      <trkpt lat="41.84601" lon="9.20799">
        <ele>1844.25</ele>
        <time>2019-09-09T10:33:51Z</time>
      </trkpt>
      <trkpt lat="41.84602" lon="9.20796">
        <ele>1845.55</ele>
        <time>2019-09-09T10:34:04Z</time>
      </trkpt>
      <trkpt lat="41.84605" lon="9.20796">
        <ele>1847.43</ele>
        <time>2019-09-09T10:34:16Z</time>
      </trkpt>
      <trkpt lat="41.84609" lon="9.20796">
        <ele>1848.81</ele>
        <time>2019-09-09T10:34:30Z</time>
      </trkpt>
      <trkpt lat="41.84612" lon="9.20795">
        <ele>1849.46</ele>
        <time>2019-09-09T10:34:43Z</time>
      </trkpt>
      <trkpt lat="41.84615" lon="9.20793">
        <ele>1850.86</ele>
        <time>2019-09-09T10:34:55Z</time>
      </trkpt>
      <trkpt lat="41.84617" lon="9.20794">
        <ele>1851.89</ele>
        <time>2019-09-09T10:35:09Z</time>
      </trkpt>
      <trkpt lat="41.84622" lon="9.20796">
        <ele>1852.94</ele>
        <time>2019-09-09T10:35:22Z</time>
      </trkpt>
      <trkpt lat="41.84625" lon="9.20795">
        <ele>1854.19</ele>
        <time>2019-09-09T10:35:39Z</time>
      </trkpt>
      <trkpt lat="41.84628" lon="9.20797">
        <ele>1855.09</ele>
        <time>2019-09-09T10:35:51Z</time>
      </trkpt>
      <trkpt lat="41.8463" lon="9.20801">
        <ele>1856.83</ele>
        <time>2019-09-09T10:36:05Z</time>
      </trkpt>
      <trkpt lat="41.84632" lon="9.20803">
        <ele>1858.45</ele>
        <time>2019-09-09T10:36:18Z</time>
      </trkpt>
      <trkpt lat="41.84634" lon="9.208">
        <ele>1859.92</ele>
        <time>2019-09-09T10:36:32Z</time>
      </trkpt>
      <trkpt lat="41.84636" lon="9.20799">
        <ele>1862.05</ele>
        <time>2019-09-09T10:36:45Z</time>
      </trkpt>
      <trkpt lat="41.84639" lon="9.20798">
        <ele>1862.68</ele>
        <time>2019-09-09T10:36:57Z</time>
      </trkpt>
      <trkpt lat="41.84641" lon="9.208">
        <ele>1863.7</ele>
        <time>2019-09-09T10:37:10Z</time>
      </trkpt>
      <trkpt lat="41.84643" lon="9.20802">
        <ele>1865.36</ele>
        <time>2019-09-09T10:37:24Z</time>
      </trkpt>
      <trkpt lat="41.84645" lon="9.20804">
        <ele>1866.48</ele>
        <time>2019-09-09T10:37:38Z</time>
      </trkpt>
      <trkpt lat="41.84648" lon="9.20798">
        <ele>1868.5</ele>
        <time>2019-09-09T10:37:54Z</time>
      </trkpt>
      <trkpt lat="41.8465" lon="9.20797">
        <ele>1869.36</ele>
        <time>2019-09-09T10:38:10Z</time>
      </trkpt>
      <trkpt lat="41.84652" lon="9.20794">
        <ele>1870.64</ele>
        <time>2019-09-09T10:38:26Z</time>
      </trkpt>
      <trkpt lat="41.84653" lon="9.20791">
        <ele>1872.13</ele>
        <time>2019-09-09T10:38:40Z</time>
      </trkpt>
      <trkpt lat="41.84653" lon="9.20786">
        <ele>1875.11</ele>
        <time>2019-09-09T10:38:57Z</time>
      </trkpt>
      <trkpt lat="41.84653" lon="9.20782">
        <ele>1875.6</ele>
        <time>2019-09-09T10:39:11Z</time>
      </trkpt>
      <trkpt lat="41.84653" lon="9.20776">
        <ele>1877.22</ele>
        <time>2019-09-09T10:39:24Z</time>
      </trkpt>
      <trkpt lat="41.84654" lon="9.20773">
        <ele>1878.35</ele>
        <time>2019-09-09T10:39:38Z</time>
      </trkpt>
      <trkpt lat="41.84654" lon="9.20768">
        <ele>1880.09</ele>
        <time>2019-09-09T10:39:53Z</time>
      </trkpt>
      <trkpt lat="41.84657" lon="9.2077">
        <ele>1881.64</ele>
        <time>2019-09-09T10:40:05Z</time>
      </trkpt>
      <trkpt lat="41.8466" lon="9.20768">
        <ele>1882.73</ele>
        <time>2019-09-09T10:40:18Z</time>
      </trkpt>
      <trkpt lat="41.84663" lon="9.20769">
        <ele>1884.64</ele>
        <time>2019-09-09T10:40:34Z</time>
      </trkpt>
      <trkpt lat="41.84665" lon="9.20774">
        <ele>1886.04</ele>
        <time>2019-09-09T10:40:49Z</time>
      </trkpt>
      <trkpt lat="41.84667" lon="9.20782">
        <ele>1885.54</ele>
        <time>2019-09-09T10:41:03Z</time>
      </trkpt>
      <trkpt lat="41.84668" lon="9.20785">
        <ele>1886.07</ele>
        <time>2019-09-09T10:41:16Z</time>
      </trkpt>
      <trkpt lat="41.8467" lon="9.20782">
        <ele>1887.8</ele>
        <time>2019-09-09T10:41:31Z</time>
      </trkpt>
      <trkpt lat="41.84673" lon="9.20777">
        <ele>1890.46</ele>
        <time>2019-09-09T10:41:45Z</time>
      </trkpt>
      <trkpt lat="41.84674" lon="9.20774">
        <ele>1892.5</ele>
        <time>2019-09-09T10:41:58Z</time>
      </trkpt>
      <trkpt lat="41.84677" lon="9.20769">
        <ele>1894.29</ele>
        <time>2019-09-09T10:42:13Z</time>
      </trkpt>
      <trkpt lat="41.84678" lon="9.20765">
        <ele>1895.63</ele>
        <time>2019-09-09T10:42:27Z</time>
      </trkpt>
      <trkpt lat="41.84678" lon="9.20759">
        <ele>1897.16</ele>
        <time>2019-09-09T10:42:42Z</time>
      </trkpt>
      <trkpt lat="41.84678" lon="9.20755">
        <ele>1898.37</ele>
        <time>2019-09-09T10:42:55Z</time>
      </trkpt>
      <trkpt lat="41.84682" lon="9.20755">
        <ele>1900.24</ele>
        <time>2019-09-09T10:43:09Z</time>
      </trkpt>
      <trkpt lat="41.84683" lon="9.20754">
        <ele>1901.25</ele>
        <time>2019-09-09T10:43:24Z</time>
      </trkpt>
      <trkpt lat="41.84684" lon="9.20751">
        <ele>1902.67</ele>
        <time>2019-09-09T10:43:41Z</time>
      </trkpt>
      <trkpt lat="41.84688" lon="9.20749">
        <ele>1904.36</ele>
        <time>2019-09-09T10:43:56Z</time>
      </trkpt>
      <trkpt lat="41.8469" lon="9.20747">
        <ele>1906.16</ele>
        <time>2019-09-09T10:44:11Z</time>
      </trkpt>
      <trkpt lat="41.84693" lon="9.20744">
        <ele>1907.19</ele>
        <time>2019-09-09T10:44:27Z</time>
      </trkpt>
      <trkpt lat="41.84693" lon="9.20745">
        <ele>1908.5</ele>
        <time>2019-09-09T10:44:46Z</time>
      </trkpt>
      <trkpt lat="41.84696" lon="9.20751">
        <ele>1909.9</ele>
        <time>2019-09-09T10:44:59Z</time>
      </trkpt>
      <trkpt lat="41.84699" lon="9.20753">
        <ele>1910.78</ele>
        <time>2019-09-09T10:45:12Z</time>
      </trkpt>
      <trkpt lat="41.84701" lon="9.20754">
        <ele>1912.18</ele>
        <time>2019-09-09T10:45:27Z</time>
      </trkpt>
      <trkpt lat="41.84702" lon="9.20751">
        <ele>1913.7</ele>
        <time>2019-09-09T10:45:44Z</time>
      </trkpt>
      <trkpt lat="41.84701" lon="9.20746">
        <ele>1914.92</ele>
        <time>2019-09-09T10:45:59Z</time>
      </trkpt>
      <trkpt lat="41.84702" lon="9.20743">
        <ele>1916.14</ele>
        <time>2019-09-09T10:46:11Z</time>
      </trkpt>
      <trkpt lat="41.84702" lon="9.20747">
        <ele>1914.78</ele>
        <time>2019-09-09T10:46:30Z</time>
      </trkpt>
      <trkpt lat="41.84705" lon="9.20749">
        <ele>1915.02</ele>
        <time>2019-09-09T10:46:44Z</time>
      </trkpt>
      <trkpt lat="41.84707" lon="9.2075">
        <ele>1915.91</ele>
        <time>2019-09-09T10:46:58Z</time>
      </trkpt>
      <trkpt lat="41.84709" lon="9.20754">
        <ele>1916.96</ele>
        <time>2019-09-09T10:47:11Z</time>
      </trkpt>
      <trkpt lat="41.8471" lon="9.20753">
        <ele>1917.97</ele>
        <time>2019-09-09T10:47:23Z</time>
      </trkpt>
      <trkpt lat="41.84712" lon="9.20754">
        <ele>1919.35</ele>
        <time>2019-09-09T10:47:41Z</time>
      </trkpt>
      <trkpt lat="41.84714" lon="9.2075">
        <ele>1921.11</ele>
        <time>2019-09-09T10:47:55Z</time>
      </trkpt>
      <trkpt lat="41.84717" lon="9.20752">
        <ele>1922.37</ele>
        <time>2019-09-09T10:48:10Z</time>
      </trkpt>
      <trkpt lat="41.84719" lon="9.20751">
        <ele>1923.55</ele>
        <time>2019-09-09T10:48:24Z</time>
      </trkpt>
      <trkpt lat="41.84722" lon="9.20747">
        <ele>1924.5</ele>
        <time>2019-09-09T10:48:36Z</time>
      </trkpt>
      <trkpt lat="41.84723" lon="9.20743">
        <ele>1926.26</ele>
        <time>2019-09-09T10:48:50Z</time>
      </trkpt>
      <trkpt lat="41.84724" lon="9.20739">
        <ele>1927.43</ele>
        <time>2019-09-09T10:49:06Z</time>
      </trkpt>
      <trkpt lat="41.84728" lon="9.20743">
        <ele>1928.06</ele>
        <time>2019-09-09T10:49:21Z</time>
      </trkpt>
      <trkpt lat="41.84732" lon="9.20749">
        <ele>1929.47</ele>
        <time>2019-09-09T10:49:35Z</time>
      </trkpt>
      <trkpt lat="41.84735" lon="9.20748">
        <ele>1931.16</ele>
        <time>2019-09-09T10:49:50Z</time>
      </trkpt>
      <trkpt lat="41.84736" lon="9.20743">
        <ele>1932.34</ele>
        <time>2019-09-09T10:50:03Z</time>
      </trkpt>
      <trkpt lat="41.84738" lon="9.2074">
        <ele>1934.06</ele>
        <time>2019-09-09T10:50:13Z</time>
      </trkpt>
      <trkpt lat="41.84738" lon="9.20734">
        <ele>1934.67</ele>
        <time>2019-09-09T10:50:29Z</time>
      </trkpt>
      <trkpt lat="41.84738" lon="9.20729">
        <ele>1935.19</ele>
        <time>2019-09-09T10:50:44Z</time>
      </trkpt>
      <trkpt lat="41.84736" lon="9.20725">
        <ele>1939.03</ele>
        <time>2019-09-09T10:50:56Z</time>
      </trkpt>
      <trkpt lat="41.84736" lon="9.20723">
        <ele>1939.49</ele>
        <time>2019-09-09T10:51:15Z</time>
      </trkpt>
      <trkpt lat="41.84734" lon="9.20717">
        <ele>1939.8</ele>
        <time>2019-09-09T10:51:40Z</time>
      </trkpt>
      <trkpt lat="41.84732" lon="9.2071">
        <ele>1941.51</ele>
        <time>2019-09-09T10:51:55Z</time>
      </trkpt>
      <trkpt lat="41.84733" lon="9.20703">
        <ele>1944.15</ele>
        <time>2019-09-09T10:52:09Z</time>
      </trkpt>
      <trkpt lat="41.84732" lon="9.20693">
        <ele>1947.02</ele>
        <time>2019-09-09T10:52:26Z</time>
      </trkpt>
      <trkpt lat="41.84729" lon="9.20686">
        <ele>1950.43</ele>
        <time>2019-09-09T10:52:40Z</time>
      </trkpt>
      <trkpt lat="41.84727" lon="9.20678">
        <ele>1954.02</ele>
        <time>2019-09-09T10:52:56Z</time>
      </trkpt>
      <trkpt lat="41.84727" lon="9.20674">
        <ele>1955.42</ele>
        <time>2019-09-09T10:53:09Z</time>
      </trkpt>
      <trkpt lat="41.84725" lon="9.20665">
        <ele>1955.91</ele>
        <time>2019-09-09T10:53:24Z</time>
      </trkpt>
      <trkpt lat="41.84724" lon="9.20662">
        <ele>1956.15</ele>
        <time>2019-09-09T10:53:27Z</time>
      </trkpt>
      <trkpt lat="41.84714" lon="9.20649">
        <ele>1956.42</ele>
        <time>2019-09-09T10:53:44Z</time>
      </trkpt>
      <trkpt lat="41.84713" lon="9.20645">
        <ele>1957.33</ele>
        <time>2019-09-09T10:54:01Z</time>
      </trkpt>
      <trkpt lat="41.84712" lon="9.20642">
        <ele>1958.47</ele>
        <time>2019-09-09T10:54:16Z</time>
      </trkpt>
      <trkpt lat="41.84714" lon="9.20642">
        <ele>1960.34</ele>
        <time>2019-09-09T10:54:29Z</time>
      </trkpt>
      <trkpt lat="41.84712" lon="9.20639">
        <ele>1961.17</ele>
        <time>2019-09-09T10:54:42Z</time>
      </trkpt>
      <trkpt lat="41.84711" lon="9.20636">
        <ele>1962.4</ele>
        <time>2019-09-09T10:54:55Z</time>
      </trkpt>
      <trkpt lat="41.84707" lon="9.20628">
        <ele>1963.82</ele>
        <time>2019-09-09T10:55:13Z</time>
      </trkpt>
      <trkpt lat="41.84708" lon="9.20626">
        <ele>1965.71</ele>
        <time>2019-09-09T10:55:28Z</time>
      </trkpt>
      <trkpt lat="41.84708" lon="9.20621">
        <ele>1967.62</ele>
        <time>2019-09-09T10:55:45Z</time>
      </trkpt>
      <trkpt lat="41.84705" lon="9.20617">
        <ele>1969.25</ele>
        <time>2019-09-09T10:56:01Z</time>
      </trkpt>
      <trkpt lat="41.84702" lon="9.20613">
        <ele>1971.27</ele>
        <time>2019-09-09T10:56:16Z</time>
      </trkpt>
      <trkpt lat="41.84696" lon="9.20608">
        <ele>1972.24</ele>
        <time>2019-09-09T10:56:31Z</time>
      </trkpt>
      <trkpt lat="41.84694" lon="9.20604">
        <ele>1973.06</ele>
        <time>2019-09-09T10:56:49Z</time>
      </trkpt>
      <trkpt lat="41.84691" lon="9.20604">
        <ele>1975.19</ele>
        <time>2019-09-09T10:57:02Z</time>
      </trkpt>
      <trkpt lat="41.84691" lon="9.20601">
        <ele>1977.88</ele>
        <time>2019-09-09T10:57:16Z</time>
      </trkpt>
      <trkpt lat="41.84693" lon="9.20599">
        <ele>1980.48</ele>
        <time>2019-09-09T10:57:30Z</time>
      </trkpt>
      <trkpt lat="41.84688" lon="9.20594">
        <ele>1983.6</ele>
        <time>2019-09-09T10:57:45Z</time>
      </trkpt>
      <trkpt lat="41.84688" lon="9.20589">
        <ele>1986.21</ele>
        <time>2019-09-09T10:57:58Z</time>
      </trkpt>
      <trkpt lat="41.84688" lon="9.20583">
        <ele>1988.34</ele>
        <time>2019-09-09T10:58:13Z</time>
      </trkpt>
      <trkpt lat="41.84685" lon="9.20577">
        <ele>1987.72</ele>
        <time>2019-09-09T10:58:30Z</time>
      </trkpt>
      <trkpt lat="41.84681" lon="9.20566">
        <ele>1987.71</ele>
        <time>2019-09-09T10:58:46Z</time>
      </trkpt>
      <trkpt lat="41.84682" lon="9.20561">
        <ele>1989.19</ele>
        <time>2019-09-09T10:59:01Z</time>
      </trkpt>
      <trkpt lat="41.84679" lon="9.20555">
        <ele>1990.08</ele>
        <time>2019-09-09T10:59:15Z</time>
      </trkpt>
      <trkpt lat="41.84675" lon="9.20548">
        <ele>1990.16</ele>
        <time>2019-09-09T10:59:28Z</time>
      </trkpt>
      <trkpt lat="41.84673" lon="9.20545">
        <ele>1989.71</ele>
        <time>2019-09-09T10:59:46Z</time>
      </trkpt>
      <trkpt lat="41.8467" lon="9.20543">
        <ele>1988.4</ele>
        <time>2019-09-09T11:00:02Z</time>
      </trkpt>
      <trkpt lat="41.84667" lon="9.20538">
        <ele>1988.53</ele>
        <time>2019-09-09T11:00:16Z</time>
      </trkpt>
      <trkpt lat="41.84665" lon="9.20532">
        <ele>1989.07</ele>
        <time>2019-09-09T11:00:29Z</time>
      </trkpt>
      <trkpt lat="41.84664" lon="9.20529">
        <ele>1988.87</ele>
        <time>2019-09-09T11:00:45Z</time>
      </trkpt>
      <trkpt lat="41.84664" lon="9.20527">
        <ele>1989.39</ele>
        <time>2019-09-09T11:01:04Z</time>
      </trkpt>
      <trkpt lat="41.84661" lon="9.20525">
        <ele>1988.23</ele>
        <time>2019-09-09T11:01:18Z</time>
      </trkpt>
      <trkpt lat="41.84662" lon="9.20524">
        <ele>1988.85</ele>
        <time>2019-09-09T11:01:35Z</time>
      </trkpt>
      <trkpt lat="41.84661" lon="9.20521">
        <ele>1989.03</ele>
        <time>2019-09-09T11:01:51Z</time>
      </trkpt>
      <trkpt lat="41.84658" lon="9.20519">
        <ele>1988.06</ele>
        <time>2019-09-09T11:02:06Z</time>
      </trkpt>
      <trkpt lat="41.84653" lon="9.20513">
        <ele>1989.25</ele>
        <time>2019-09-09T11:02:20Z</time>
      </trkpt>
      <trkpt lat="41.84647" lon="9.20506">
        <ele>1991.25</ele>
        <time>2019-09-09T11:02:38Z</time>
      </trkpt>
      <trkpt lat="41.84646" lon="9.20498">
        <ele>1991.12</ele>
        <time>2019-09-09T11:02:52Z</time>
      </trkpt>
      <trkpt lat="41.84642" lon="9.20494">
        <ele>1989.7</ele>
        <time>2019-09-09T11:03:05Z</time>
      </trkpt>
      <trkpt lat="41.84641" lon="9.20493">
        <ele>1988.04</ele>
        <time>2019-09-09T11:03:20Z</time>
      </trkpt>
      <trkpt lat="41.84637" lon="9.20491">
        <ele>1986.36</ele>
        <time>2019-09-09T11:03:36Z</time>
      </trkpt>
      <trkpt lat="41.84632" lon="9.20487">
        <ele>1987.6</ele>
        <time>2019-09-09T11:03:50Z</time>
      </trkpt>
      <trkpt lat="41.84627" lon="9.2048">
        <ele>1991.1</ele>
        <time>2019-09-09T11:04:04Z</time>
      </trkpt>
      <trkpt lat="41.84626" lon="9.20476">
        <ele>1992.87</ele>
        <time>2019-09-09T11:04:19Z</time>
      </trkpt>
      <trkpt lat="41.84621" lon="9.20473">
        <ele>1993.57</ele>
        <time>2019-09-09T11:04:33Z</time>
      </trkpt>
      <trkpt lat="41.84622" lon="9.20468">
        <ele>1994.34</ele>
        <time>2019-09-09T11:04:47Z</time>
      </trkpt>
      <trkpt lat="41.84621" lon="9.20465">
        <ele>1995.52</ele>
        <time>2019-09-09T11:05:00Z</time>
      </trkpt>
      <trkpt lat="41.8462" lon="9.20465">
        <ele>1995.59</ele>
        <time>2019-09-09T11:05:20Z</time>
      </trkpt>
      <trkpt lat="41.84621" lon="9.20463">
        <ele>1995.3</ele>
        <time>2019-09-09T11:05:50Z</time>
      </trkpt>
      <trkpt lat="41.84623" lon="9.20461">
        <ele>1996.46</ele>
        <time>2019-09-09T11:06:04Z</time>
      </trkpt>
      <trkpt lat="41.84625" lon="9.20462">
        <ele>1997.51</ele>
        <time>2019-09-09T11:06:17Z</time>
      </trkpt>
      <trkpt lat="41.84626" lon="9.20458">
        <ele>1998.68</ele>
        <time>2019-09-09T11:06:31Z</time>
      </trkpt>
      <trkpt lat="41.84623" lon="9.20454">
        <ele>1999.51</ele>
        <time>2019-09-09T11:06:44Z</time>
      </trkpt>
      <trkpt lat="41.8462" lon="9.20445">
        <ele>2001.31</ele>
        <time>2019-09-09T11:07:00Z</time>
      </trkpt>
      <trkpt lat="41.84617" lon="9.20441">
        <ele>2002.89</ele>
        <time>2019-09-09T11:07:13Z</time>
      </trkpt>
      <trkpt lat="41.84618" lon="9.20439">
        <ele>2003.9</ele>
        <time>2019-09-09T11:07:26Z</time>
      </trkpt>
      <trkpt lat="41.8462" lon="9.20437">
        <ele>2004.68</ele>
        <time>2019-09-09T11:07:40Z</time>
      </trkpt>
      <trkpt lat="41.84622" lon="9.20437">
        <ele>2005.52</ele>
        <time>2019-09-09T11:07:51Z</time>
      </trkpt>
      <trkpt lat="41.84625" lon="9.20437">
        <ele>2006.47</ele>
        <time>2019-09-09T11:08:04Z</time>
      </trkpt>
      <trkpt lat="41.84626" lon="9.20435">
        <ele>2007.7</ele>
        <time>2019-09-09T11:08:17Z</time>
      </trkpt>
      <trkpt lat="41.84624" lon="9.20432">
        <ele>2009.63</ele>
        <time>2019-09-09T11:08:31Z</time>
      </trkpt>
      <trkpt lat="41.84624" lon="9.20429">
        <ele>2011.26</ele>
        <time>2019-09-09T11:08:48Z</time>
      </trkpt>
      <trkpt lat="41.84622" lon="9.20424">
        <ele>2013.98</ele>
        <time>2019-09-09T11:09:03Z</time>
      </trkpt>
      <trkpt lat="41.84624" lon="9.20423">
        <ele>2015.1</ele>
        <time>2019-09-09T11:09:18Z</time>
      </trkpt>
      <trkpt lat="41.84625" lon="9.2042">
        <ele>2016.51</ele>
        <time>2019-09-09T11:09:32Z</time>
      </trkpt>
      <trkpt lat="41.84625" lon="9.20414">
        <ele>2017.95</ele>
        <time>2019-09-09T11:09:47Z</time>
      </trkpt>
      <trkpt lat="41.84622" lon="9.2041">
        <ele>2019.13</ele>
        <time>2019-09-09T11:10:01Z</time>
      </trkpt>
      <trkpt lat="41.84615" lon="9.20402">
        <ele>2019.14</ele>
        <time>2019-09-09T11:10:17Z</time>
      </trkpt>
      <trkpt lat="41.84607" lon="9.2039">
        <ele>2017.21</ele>
        <time>2019-09-09T11:10:35Z</time>
      </trkpt>
      <trkpt lat="41.84602" lon="9.20384">
        <ele>2018.75</ele>
        <time>2019-09-09T11:10:50Z</time>
      </trkpt>
      <trkpt lat="41.84597" lon="9.20379">
        <ele>2020.37</ele>
        <time>2019-09-09T11:11:05Z</time>
      </trkpt>
      <trkpt lat="41.84591" lon="9.20376">
        <ele>2021.53</ele>
        <time>2019-09-09T11:11:19Z</time>
      </trkpt>
      <trkpt lat="41.84591" lon="9.20374">
        <ele>2022</ele>
        <time>2019-09-09T11:11:32Z</time>
      </trkpt>
      <trkpt lat="41.84592" lon="9.20373">
        <ele>2022.01</ele>
        <time>2019-09-09T11:11:48Z</time>
      </trkpt>
      <trkpt lat="41.84592" lon="9.20372">
        <ele>2021.29</ele>
        <time>2019-09-09T11:12:07Z</time>
      </trkpt>
      <trkpt lat="41.84592" lon="9.20373">
        <ele>2021.22</ele>
        <time>2019-09-09T11:12:33Z</time>
      </trkpt>
      <trkpt lat="41.8459" lon="9.20374">
        <ele>2020.99</ele>
        <time>2019-09-09T11:13:03Z</time>
      </trkpt>
      <trkpt lat="41.84589" lon="9.20376">
        <ele>2021.24</ele>
        <time>2019-09-09T11:13:36Z</time>
      </trkpt>
      <trkpt lat="41.8459" lon="9.20375">
        <ele>2021.44</ele>
        <time>2019-09-09T11:14:10Z</time>
      </trkpt>
      <trkpt lat="41.8459" lon="9.20374">
        <ele>2021.56</ele>
        <time>2019-09-09T11:14:43Z</time>
      </trkpt>
      <trkpt lat="41.8459" lon="9.20375">
        <ele>2020.38</ele>
        <time>2019-09-09T11:15:16Z</time>
      </trkpt>
      <trkpt lat="41.84589" lon="9.20374">
        <ele>2019.33</ele>
        <time>2019-09-09T11:15:51Z</time>
      </trkpt>
      <trkpt lat="41.8459" lon="9.20375">
        <ele>2018.56</ele>
        <time>2019-09-09T11:16:23Z</time>
      </trkpt>
      <trkpt lat="41.8459" lon="9.20374">
        <ele>2018.07</ele>
        <time>2019-09-09T11:16:58Z</time>
      </trkpt>
      <trkpt lat="41.8459" lon="9.20373">
        <ele>2017.76</ele>
        <time>2019-09-09T11:17:32Z</time>
      </trkpt>
      <trkpt lat="41.8459" lon="9.20374">
        <ele>2017.68</ele>
        <time>2019-09-09T11:18:04Z</time>
      </trkpt>
      <trkpt lat="41.84589" lon="9.20373">
        <ele>2017.52</ele>
        <time>2019-09-09T11:18:38Z</time>
      </trkpt>
      <trkpt lat="41.8459" lon="9.20373">
        <ele>2017.28</ele>
        <time>2019-09-09T11:19:09Z</time>
      </trkpt>
      <trkpt lat="41.84589" lon="9.20371">
        <ele>2017.02</ele>
        <time>2019-09-09T11:19:43Z</time>
      </trkpt>
      <trkpt lat="41.84589" lon="9.20372">
        <ele>2016.61</ele>
        <time>2019-09-09T11:20:17Z</time>
      </trkpt>
      <trkpt lat="41.84589" lon="9.20371">
        <ele>2016.45</ele>
        <time>2019-09-09T11:20:49Z</time>
      </trkpt>
      <trkpt lat="41.84589" lon="9.20372">
        <ele>2016.18</ele>
        <time>2019-09-09T11:21:24Z</time>
      </trkpt>
      <trkpt lat="41.84588" lon="9.20372">
        <ele>2015.97</ele>
        <time>2019-09-09T11:21:55Z</time>
      </trkpt>
      <trkpt lat="41.84589" lon="9.20372">
        <ele>2015.49</ele>
        <time>2019-09-09T11:22:25Z</time>
      </trkpt>
      <trkpt lat="41.84588" lon="9.20371">
        <ele>2015.27</ele>
        <time>2019-09-09T11:22:56Z</time>
      </trkpt>
      <trkpt lat="41.84591" lon="9.20372">
        <ele>2015.45</ele>
        <time>2019-09-09T11:23:30Z</time>
      </trkpt>
      <trkpt lat="41.8459" lon="9.20373">
        <ele>2015.69</ele>
        <time>2019-09-09T11:24:03Z</time>
      </trkpt>
      <trkpt lat="41.84592" lon="9.20373">
        <ele>2016.08</ele>
        <time>2019-09-09T11:24:38Z</time>
      </trkpt>
      <trkpt lat="41.84592" lon="9.20375">
        <ele>2016.99</ele>
        <time>2019-09-09T11:25:14Z</time>
      </trkpt>
      <trkpt lat="41.84593" lon="9.20375">
        <ele>2017.86</ele>
        <time>2019-09-09T11:25:46Z</time>
      </trkpt>
      <trkpt lat="41.8459" lon="9.20375">
        <ele>2018.54</ele>
        <time>2019-09-09T11:26:18Z</time>
      </trkpt>
      <trkpt lat="41.84592" lon="9.20374">
        <ele>2018.7</ele>
        <time>2019-09-09T11:26:50Z</time>
      </trkpt>
      <trkpt lat="41.84591" lon="9.20373">
        <ele>2018.43</ele>
        <time>2019-09-09T11:27:21Z</time>
      </trkpt>
      <trkpt lat="41.8459" lon="9.20372">
        <ele>2017.79</ele>
        <time>2019-09-09T11:28:01Z</time>
      </trkpt>
      <trkpt lat="41.84591" lon="9.20375">
        <ele>2021.11</ele>
        <time>2019-09-09T11:28:32Z</time>
      </trkpt>
      <trkpt lat="41.84592" lon="9.20375">
        <ele>2022.33</ele>
        <time>2019-09-09T11:29:12Z</time>
      </trkpt>
      <trkpt lat="41.84592" lon="9.20375">
        <ele>2023.68</ele>
        <time>2019-09-09T11:29:47Z</time>
      </trkpt>
      <trkpt lat="41.84592" lon="9.20376">
        <ele>2023.73</ele>
        <time>2019-09-09T11:30:27Z</time>
      </trkpt>
      <trkpt lat="41.84592" lon="9.20376">
        <ele>2023.59</ele>
        <time>2019-09-09T11:31:18Z</time>
      </trkpt>
      <trkpt lat="41.84592" lon="9.20376">
        <ele>2023.37</ele>
        <time>2019-09-09T11:32:18Z</time>
      </trkpt>
      <trkpt lat="41.84592" lon="9.20376">
        <ele>2023.33</ele>
        <time>2019-09-09T11:33:24Z</time>
      </trkpt>
      <trkpt lat="41.84592" lon="9.20376">
        <ele>2023.63</ele>
        <time>2019-09-09T11:34:22Z</time>
      </trkpt>
      <trkpt lat="41.84592" lon="9.20377">
        <ele>2023.88</ele>
        <time>2019-09-09T11:35:09Z</time>
      </trkpt>
      <trkpt lat="41.84592" lon="9.20377">
        <ele>2024.22</ele>
        <time>2019-09-09T11:36:11Z</time>
      </trkpt>
      <trkpt lat="41.84592" lon="9.20376">
        <ele>2023.55</ele>
        <time>2019-09-09T11:37:10Z</time>
      </trkpt>
      <trkpt lat="41.84592" lon="9.20377">
        <ele>2023.64</ele>
        <time>2019-09-09T11:38:22Z</time>
      </trkpt>
      <trkpt lat="41.84591" lon="9.20377">
        <ele>2024.38</ele>
        <time>2019-09-09T11:39:13Z</time>
      </trkpt>
      <trkpt lat="41.84591" lon="9.20377">
        <ele>2024.68</ele>
        <time>2019-09-09T11:40:02Z</time>
      </trkpt>
      <trkpt lat="41.84591" lon="9.20377">
        <ele>2024.51</ele>
        <time>2019-09-09T11:40:46Z</time>
      </trkpt>
      <trkpt lat="41.84592" lon="9.20377">
        <ele>2023.92</ele>
        <time>2019-09-09T11:41:35Z</time>
      </trkpt>
      <trkpt lat="41.84592" lon="9.20376">
        <ele>2022.68</ele>
        <time>2019-09-09T11:42:45Z</time>
      </trkpt>
      <trkpt lat="41.84592" lon="9.20376">
        <ele>2021.42</ele>
        <time>2019-09-09T11:43:45Z</time>
      </trkpt>
      <trkpt lat="41.84593" lon="9.20376">
        <ele>2020.62</ele>
        <time>2019-09-09T11:44:35Z</time>
      </trkpt>
      <trkpt lat="41.84593" lon="9.20376">
        <ele>2019.84</ele>
        <time>2019-09-09T11:45:36Z</time>
      </trkpt>
      <trkpt lat="41.84593" lon="9.20376">
        <ele>2019.19</ele>
        <time>2019-09-09T11:46:31Z</time>
      </trkpt>
      <trkpt lat="41.84593" lon="9.20375">
        <ele>2018.05</ele>
        <time>2019-09-09T11:47:22Z</time>
      </trkpt>
      <trkpt lat="41.84593" lon="9.20376">
        <ele>2018.64</ele>
        <time>2019-09-09T11:48:16Z</time>
      </trkpt>
      <trkpt lat="41.84592" lon="9.20376">
        <ele>2020.1</ele>
        <time>2019-09-09T11:48:48Z</time>
      </trkpt>
      <trkpt lat="41.84592" lon="9.20376">
        <ele>2020.6</ele>
        <time>2019-09-09T11:49:36Z</time>
      </trkpt>
      <trkpt lat="41.84592" lon="9.20376">
        <ele>2021.16</ele>
        <time>2019-09-09T11:50:39Z</time>
      </trkpt>
      <trkpt lat="41.84592" lon="9.20376">
        <ele>2021.04</ele>
        <time>2019-09-09T11:51:16Z</time>
      </trkpt>
      <trkpt lat="41.84592" lon="9.20375">
        <ele>2021.21</ele>
        <time>2019-09-09T11:51:42Z</time>
      </trkpt>
      <trkpt lat="41.84592" lon="9.20374">
        <ele>2021.18</ele>
        <time>2019-09-09T11:52:15Z</time>
      </trkpt>
      <trkpt lat="41.84591" lon="9.20375">
        <ele>2021.6</ele>
        <time>2019-09-09T11:52:36Z</time>
      </trkpt>
      <trkpt lat="41.84591" lon="9.20375">
        <ele>2021.79</ele>
        <time>2019-09-09T11:52:56Z</time>
      </trkpt>
      <trkpt lat="41.84591" lon="9.20377">
        <ele>2022.12</ele>
        <time>2019-09-09T11:53:33Z</time>
      </trkpt>
      <trkpt lat="41.84591" lon="9.20377">
        <ele>2023.24</ele>
        <time>2019-09-09T11:54:14Z</time>
      </trkpt>
      <trkpt lat="41.84592" lon="9.20376">
        <ele>2023.16</ele>
        <time>2019-09-09T11:54:39Z</time>
      </trkpt>
      <trkpt lat="41.84591" lon="9.20371">
        <ele>2022.37</ele>
        <time>2019-09-09T11:55:00Z</time>
      </trkpt>
      <trkpt lat="41.84597" lon="9.20372">
        <ele>2023.89</ele>
        <time>2019-09-09T11:55:15Z</time>
      </trkpt>
      <trkpt lat="41.84603" lon="9.20366">
        <ele>2025.71</ele>
        <time>2019-09-09T11:55:34Z</time>
      </trkpt>
      <trkpt lat="41.84604" lon="9.20364">
        <ele>2026.29</ele>
        <time>2019-09-09T11:55:52Z</time>
      </trkpt>
      <trkpt lat="41.84603" lon="9.20363">
        <ele>2026.38</ele>
        <time>2019-09-09T11:56:14Z</time>
      </trkpt>
      <trkpt lat="41.84602" lon="9.2036">
        <ele>2026.07</ele>
        <time>2019-09-09T11:56:27Z</time>
      </trkpt>
      <trkpt lat="41.84598" lon="9.20357">
        <ele>2026.63</ele>
        <time>2019-09-09T11:56:39Z</time>
      </trkpt>
      <trkpt lat="41.846" lon="9.20361">
        <ele>2026.56</ele>
        <time>2019-09-09T11:56:54Z</time>
      </trkpt>
      <trkpt lat="41.84601" lon="9.20362">
        <ele>2026.85</ele>
        <time>2019-09-09T11:57:25Z</time>
      </trkpt>
      <trkpt lat="41.84601" lon="9.20361">
        <ele>2026.96</ele>
        <time>2019-09-09T11:57:47Z</time>
      </trkpt>
      <trkpt lat="41.84603" lon="9.20354">
        <ele>2025.59</ele>
        <time>2019-09-09T11:58:04Z</time>
      </trkpt>
      <trkpt lat="41.84608" lon="9.20347">
        <ele>2022.27</ele>
        <time>2019-09-09T11:58:20Z</time>
      </trkpt>
      <trkpt lat="41.84604" lon="9.20336">
        <ele>2019.27</ele>
        <time>2019-09-09T11:58:34Z</time>
      </trkpt>
      <trkpt lat="41.84598" lon="9.20323">
        <ele>2015.69</ele>
        <time>2019-09-09T11:58:53Z</time>
      </trkpt>
      <trkpt lat="41.84589" lon="9.20314">
        <ele>2014.67</ele>
        <time>2019-09-09T11:59:06Z</time>
      </trkpt>
      <trkpt lat="41.84589" lon="9.20312">
        <ele>2014.33</ele>
        <time>2019-09-09T11:59:08Z</time>
      </trkpt>
      <trkpt lat="41.84573" lon="9.20301">
        <ele>2013.14</ele>
        <time>2019-09-09T11:59:26Z</time>
      </trkpt>
      <trkpt lat="41.84568" lon="9.20294">
        <ele>2011.76</ele>
        <time>2019-09-09T11:59:37Z</time>
      </trkpt>
      <trkpt lat="41.84555" lon="9.20282">
        <ele>2010.75</ele>
        <time>2019-09-09T11:59:53Z</time>
      </trkpt>
      <trkpt lat="41.84542" lon="9.20269">
        <ele>2009.57</ele>
        <time>2019-09-09T12:00:09Z</time>
      </trkpt>
      <trkpt lat="41.84531" lon="9.20259">
        <ele>2009.75</ele>
        <time>2019-09-09T12:00:26Z</time>
      </trkpt>
      <trkpt lat="41.84525" lon="9.20252">
        <ele>2010.99</ele>
        <time>2019-09-09T12:00:39Z</time>
      </trkpt>
      <trkpt lat="41.84518" lon="9.20245">
        <ele>2011.67</ele>
        <time>2019-09-09T12:00:50Z</time>
      </trkpt>
      <trkpt lat="41.84512" lon="9.20233">
        <ele>2011.76</ele>
        <time>2019-09-09T12:01:00Z</time>
      </trkpt>
      <trkpt lat="41.84508" lon="9.20222">
        <ele>2010.95</ele>
        <time>2019-09-09T12:01:12Z</time>
      </trkpt>
      <trkpt lat="41.84504" lon="9.2021">
        <ele>2010.37</ele>
        <time>2019-09-09T12:01:25Z</time>
      </trkpt>
      <trkpt lat="41.84502" lon="9.20193">
        <ele>2008.15</ele>
        <time>2019-09-09T12:01:40Z</time>
      </trkpt>
      <trkpt lat="41.84499" lon="9.20178">
        <ele>2006.61</ele>
        <time>2019-09-09T12:01:55Z</time>
      </trkpt>
      <trkpt lat="41.84495" lon="9.20173">
        <ele>2005.67</ele>
        <time>2019-09-09T12:02:03Z</time>
      </trkpt>
      <trkpt lat="41.8449" lon="9.20163">
        <ele>2004.47</ele>
        <time>2019-09-09T12:02:14Z</time>
      </trkpt>
      <trkpt lat="41.84484" lon="9.20147">
        <ele>2003.3</ele>
        <time>2019-09-09T12:02:31Z</time>
      </trkpt>
      <trkpt lat="41.84481" lon="9.20139">
        <ele>2002.06</ele>
        <time>2019-09-09T12:02:43Z</time>
      </trkpt>
      <trkpt lat="41.8448" lon="9.20138">
        <ele>2002.05</ele>
        <time>2019-09-09T12:02:45Z</time>
      </trkpt>
      <trkpt lat="41.84472" lon="9.20123">
        <ele>2000.98</ele>
        <time>2019-09-09T12:02:59Z</time>
      </trkpt>
      <trkpt lat="41.84469" lon="9.2011">
        <ele>1999.33</ele>
        <time>2019-09-09T12:03:14Z</time>
      </trkpt>
      <trkpt lat="41.84468" lon="9.20101">
        <ele>1996.7</ele>
        <time>2019-09-09T12:03:29Z</time>
      </trkpt>
      <trkpt lat="41.8447" lon="9.20095">
        <ele>1994.32</ele>
        <time>2019-09-09T12:03:42Z</time>
      </trkpt>
      <trkpt lat="41.8447" lon="9.20081">
        <ele>1990.84</ele>
        <time>2019-09-09T12:03:56Z</time>
      </trkpt>
      <trkpt lat="41.84465" lon="9.20066">
        <ele>1988.62</ele>
        <time>2019-09-09T12:04:11Z</time>
      </trkpt>
      <trkpt lat="41.84466" lon="9.20059">
        <ele>1986.89</ele>
        <time>2019-09-09T12:04:23Z</time>
      </trkpt>
      <trkpt lat="41.84466" lon="9.2005">
        <ele>1984.31</ele>
        <time>2019-09-09T12:04:36Z</time>
      </trkpt>
      <trkpt lat="41.84462" lon="9.2004">
        <ele>1982.7</ele>
        <time>2019-09-09T12:04:49Z</time>
      </trkpt>
      <trkpt lat="41.84459" lon="9.20032">
        <ele>1980.59</ele>
        <time>2019-09-09T12:05:05Z</time>
      </trkpt>
      <trkpt lat="41.84462" lon="9.20026">
        <ele>1978.49</ele>
        <time>2019-09-09T12:05:14Z</time>
      </trkpt>
      <trkpt lat="41.84464" lon="9.2002">
        <ele>1977.29</ele>
        <time>2019-09-09T12:05:25Z</time>
      </trkpt>
      <trkpt lat="41.84465" lon="9.20015">
        <ele>1974.55</ele>
        <time>2019-09-09T12:05:38Z</time>
      </trkpt>
      <trkpt lat="41.84463" lon="9.20007">
        <ele>1973.07</ele>
        <time>2019-09-09T12:05:50Z</time>
      </trkpt>
      <trkpt lat="41.84467" lon="9.20004">
        <ele>1971.12</ele>
        <time>2019-09-09T12:06:01Z</time>
      </trkpt>
      <trkpt lat="41.84463" lon="9.19995">
        <ele>1969.18</ele>
        <time>2019-09-09T12:06:15Z</time>
      </trkpt>
      <trkpt lat="41.84461" lon="9.19985">
        <ele>1967.13</ele>
        <time>2019-09-09T12:06:32Z</time>
      </trkpt>
      <trkpt lat="41.84459" lon="9.19976">
        <ele>1964.55</ele>
        <time>2019-09-09T12:06:48Z</time>
      </trkpt>
      <trkpt lat="41.84458" lon="9.19974">
        <ele>1964.25</ele>
        <time>2019-09-09T12:06:50Z</time>
      </trkpt>
      <trkpt lat="41.84452" lon="9.19964">
        <ele>1963.67</ele>
        <time>2019-09-09T12:07:04Z</time>
      </trkpt>
      <trkpt lat="41.84447" lon="9.19952">
        <ele>1962.43</ele>
        <time>2019-09-09T12:07:20Z</time>
      </trkpt>
      <trkpt lat="41.84448" lon="9.19946">
        <ele>1960.61</ele>
        <time>2019-09-09T12:07:33Z</time>
      </trkpt>
      <trkpt lat="41.84446" lon="9.19936">
        <ele>1957.92</ele>
        <time>2019-09-09T12:07:48Z</time>
      </trkpt>
      <trkpt lat="41.84449" lon="9.1993">
        <ele>1956.04</ele>
        <time>2019-09-09T12:08:03Z</time>
      </trkpt>
      <trkpt lat="41.84446" lon="9.19919">
        <ele>1953.4</ele>
        <time>2019-09-09T12:08:18Z</time>
      </trkpt>
      <trkpt lat="41.84445" lon="9.1991">
        <ele>1951.02</ele>
        <time>2019-09-09T12:08:33Z</time>
      </trkpt>
      <trkpt lat="41.84449" lon="9.19903">
        <ele>1948.53</ele>
        <time>2019-09-09T12:08:48Z</time>
      </trkpt>
      <trkpt lat="41.8445" lon="9.19892">
        <ele>1945.87</ele>
        <time>2019-09-09T12:09:02Z</time>
      </trkpt>
      <trkpt lat="41.84446" lon="9.19884">
        <ele>1944.7</ele>
        <time>2019-09-09T12:09:17Z</time>
      </trkpt>
      <trkpt lat="41.84447" lon="9.19879">
        <ele>1944.09</ele>
        <time>2019-09-09T12:09:36Z</time>
      </trkpt>
      <trkpt lat="41.84444" lon="9.1987">
        <ele>1942.94</ele>
        <time>2019-09-09T12:09:52Z</time>
      </trkpt>
      <trkpt lat="41.84445" lon="9.19869">
        <ele>1942.97</ele>
        <time>2019-09-09T12:10:24Z</time>
      </trkpt>
      <trkpt lat="41.84445" lon="9.19868">
        <ele>1942.32</ele>
        <time>2019-09-09T12:10:49Z</time>
      </trkpt>
      <trkpt lat="41.84439" lon="9.19862">
        <ele>1941.73</ele>
        <time>2019-09-09T12:11:17Z</time>
      </trkpt>
      <trkpt lat="41.84435" lon="9.19857">
        <ele>1940.27</ele>
        <time>2019-09-09T12:11:32Z</time>
      </trkpt>
      <trkpt lat="41.84433" lon="9.19844">
        <ele>1937.93</ele>
        <time>2019-09-09T12:11:47Z</time>
      </trkpt>
      <trkpt lat="41.84431" lon="9.1984">
        <ele>1937.72</ele>
        <time>2019-09-09T12:11:51Z</time>
      </trkpt>
      <trkpt lat="41.84424" lon="9.19833">
        <ele>1937.38</ele>
        <time>2019-09-09T12:11:59Z</time>
      </trkpt>
      <trkpt lat="41.84415" lon="9.19817">
        <ele>1935.43</ele>
        <time>2019-09-09T12:12:20Z</time>
      </trkpt>
      <trkpt lat="41.8441" lon="9.1981">
        <ele>1934.24</ele>
        <time>2019-09-09T12:12:36Z</time>
      </trkpt>
      <trkpt lat="41.84406" lon="9.19797">
        <ele>1933.2</ele>
        <time>2019-09-09T12:12:49Z</time>
      </trkpt>
      <trkpt lat="41.84406" lon="9.19783">
        <ele>1931.15</ele>
        <time>2019-09-09T12:13:05Z</time>
      </trkpt>
      <trkpt lat="41.84408" lon="9.19775">
        <ele>1928.86</ele>
        <time>2019-09-09T12:13:19Z</time>
      </trkpt>
      <trkpt lat="41.84411" lon="9.19767">
        <ele>1926.02</ele>
        <time>2019-09-09T12:13:34Z</time>
      </trkpt>
      <trkpt lat="41.84408" lon="9.19752">
        <ele>1923.15</ele>
        <time>2019-09-09T12:13:51Z</time>
      </trkpt>
      <trkpt lat="41.84413" lon="9.19743">
        <ele>1919.92</ele>
        <time>2019-09-09T12:14:07Z</time>
      </trkpt>
      <trkpt lat="41.84414" lon="9.19739">
        <ele>1919.27</ele>
        <time>2019-09-09T12:14:12Z</time>
      </trkpt>
      <trkpt lat="41.84417" lon="9.19728">
        <ele>1916.51</ele>
        <time>2019-09-09T12:14:27Z</time>
      </trkpt>
      <trkpt lat="41.8442" lon="9.19726">
        <ele>1915.37</ele>
        <time>2019-09-09T12:14:34Z</time>
      </trkpt>
      <trkpt lat="41.84417" lon="9.19713">
        <ele>1912.66</ele>
        <time>2019-09-09T12:14:49Z</time>
      </trkpt>
      <trkpt lat="41.84425" lon="9.1971">
        <ele>1909.61</ele>
        <time>2019-09-09T12:15:06Z</time>
      </trkpt>
      <trkpt lat="41.84428" lon="9.19702">
        <ele>1907.23</ele>
        <time>2019-09-09T12:15:19Z</time>
      </trkpt>
      <trkpt lat="41.8443" lon="9.19692">
        <ele>1904.93</ele>
        <time>2019-09-09T12:15:33Z</time>
      </trkpt>
      <trkpt lat="41.84432" lon="9.19683">
        <ele>1904.87</ele>
        <time>2019-09-09T12:15:43Z</time>
      </trkpt>
      <trkpt lat="41.84439" lon="9.19664">
        <ele>1902.72</ele>
        <time>2019-09-09T12:15:59Z</time>
      </trkpt>
      <trkpt lat="41.84439" lon="9.19656">
        <ele>1901.32</ele>
        <time>2019-09-09T12:16:07Z</time>
      </trkpt>
      <trkpt lat="41.84441" lon="9.19652">
        <ele>1900.72</ele>
        <time>2019-09-09T12:16:11Z</time>
      </trkpt>
      <trkpt lat="41.84441" lon="9.19633">
        <ele>1898.5</ele>
        <time>2019-09-09T12:16:28Z</time>
      </trkpt>
      <trkpt lat="41.84435" lon="9.19612">
        <ele>1896.68</ele>
        <time>2019-09-09T12:16:46Z</time>
      </trkpt>
      <trkpt lat="41.84434" lon="9.19609">
        <ele>1896.36</ele>
        <time>2019-09-09T12:16:48Z</time>
      </trkpt>
      <trkpt lat="41.84428" lon="9.19586">
        <ele>1895.54</ele>
        <time>2019-09-09T12:17:06Z</time>
      </trkpt>
      <trkpt lat="41.84415" lon="9.19567">
        <ele>1894.85</ele>
        <time>2019-09-09T12:17:24Z</time>
      </trkpt>
      <trkpt lat="41.84413" lon="9.19561">
        <ele>1894.57</ele>
        <time>2019-09-09T12:17:28Z</time>
      </trkpt>
      <trkpt lat="41.84405" lon="9.19544">
        <ele>1892.34</ele>
        <time>2019-09-09T12:17:45Z</time>
      </trkpt>
      <trkpt lat="41.844" lon="9.19534">
        <ele>1891.77</ele>
        <time>2019-09-09T12:17:55Z</time>
      </trkpt>
      <trkpt lat="41.84386" lon="9.19509">
        <ele>1889.89</ele>
        <time>2019-09-09T12:18:17Z</time>
      </trkpt>
      <trkpt lat="41.84371" lon="9.19496">
        <ele>1888.37</ele>
        <time>2019-09-09T12:18:36Z</time>
      </trkpt>
      <trkpt lat="41.84366" lon="9.19486">
        <ele>1886.42</ele>
        <time>2019-09-09T12:18:49Z</time>
      </trkpt>
      <trkpt lat="41.84364" lon="9.1948">
        <ele>1885.32</ele>
        <time>2019-09-09T12:18:56Z</time>
      </trkpt>
      <trkpt lat="41.84365" lon="9.19463">
        <ele>1883.11</ele>
        <time>2019-09-09T12:19:11Z</time>
      </trkpt>
      <trkpt lat="41.84366" lon="9.19447">
        <ele>1880.68</ele>
        <time>2019-09-09T12:19:27Z</time>
      </trkpt>
      <trkpt lat="41.84356" lon="9.19441">
        <ele>1878.47</ele>
        <time>2019-09-09T12:19:41Z</time>
      </trkpt>
      <trkpt lat="41.84354" lon="9.1944">
        <ele>1878.07</ele>
        <time>2019-09-09T12:19:44Z</time>
      </trkpt>
      <trkpt lat="41.84347" lon="9.19428">
        <ele>1876.34</ele>
        <time>2019-09-09T12:19:59Z</time>
      </trkpt>
      <trkpt lat="41.84344" lon="9.19422">
        <ele>1874.58</ele>
        <time>2019-09-09T12:20:07Z</time>
      </trkpt>
      <trkpt lat="41.84333" lon="9.19405">
        <ele>1873.53</ele>
        <time>2019-09-09T12:20:23Z</time>
      </trkpt>
      <trkpt lat="41.84316" lon="9.19399">
        <ele>1871.08</ele>
        <time>2019-09-09T12:20:41Z</time>
      </trkpt>
      <trkpt lat="41.84312" lon="9.19395">
        <ele>1870.2</ele>
        <time>2019-09-09T12:20:47Z</time>
      </trkpt>
      <trkpt lat="41.84296" lon="9.19387">
        <ele>1869.22</ele>
        <time>2019-09-09T12:21:03Z</time>
      </trkpt>
      <trkpt lat="41.84291" lon="9.19385">
        <ele>1869.17</ele>
        <time>2019-09-09T12:21:08Z</time>
      </trkpt>
      <trkpt lat="41.84273" lon="9.19377">
        <ele>1868.99</ele>
        <time>2019-09-09T12:21:26Z</time>
      </trkpt>
      <trkpt lat="41.84264" lon="9.19366">
        <ele>1867.57</ele>
        <time>2019-09-09T12:21:39Z</time>
      </trkpt>
      <trkpt lat="41.84261" lon="9.19363">
        <ele>1867.31</ele>
        <time>2019-09-09T12:21:43Z</time>
      </trkpt>
      <trkpt lat="41.84256" lon="9.19363">
        <ele>1867.59</ele>
        <time>2019-09-09T12:21:48Z</time>
      </trkpt>
      <trkpt lat="41.84252" lon="9.19361">
        <ele>1867.47</ele>
        <time>2019-09-09T12:21:53Z</time>
      </trkpt>
      <trkpt lat="41.8424" lon="9.19348">
        <ele>1865.9</ele>
        <time>2019-09-09T12:22:10Z</time>
      </trkpt>
      <trkpt lat="41.84229" lon="9.19342">
        <ele>1863.93</ele>
        <time>2019-09-09T12:22:26Z</time>
      </trkpt>
      <trkpt lat="41.84227" lon="9.19337">
        <ele>1863.23</ele>
        <time>2019-09-09T12:22:33Z</time>
      </trkpt>
      <trkpt lat="41.84216" lon="9.19323">
        <ele>1862.45</ele>
        <time>2019-09-09T12:22:50Z</time>
      </trkpt>
      <trkpt lat="41.84206" lon="9.1932">
        <ele>1861.43</ele>
        <time>2019-09-09T12:23:01Z</time>
      </trkpt>
      <trkpt lat="41.84204" lon="9.19317">
        <ele>1861.48</ele>
        <time>2019-09-09T12:23:04Z</time>
      </trkpt>
      <trkpt lat="41.84194" lon="9.19294">
        <ele>1861.28</ele>
        <time>2019-09-09T12:23:23Z</time>
      </trkpt>
      <trkpt lat="41.84192" lon="9.19293">
        <ele>1861.2</ele>
        <time>2019-09-09T12:23:25Z</time>
      </trkpt>
      <trkpt lat="41.84183" lon="9.19272">
        <ele>1860</ele>
        <time>2019-09-09T12:23:44Z</time>
      </trkpt>
      <trkpt lat="41.84178" lon="9.19254">
        <ele>1857.24</ele>
        <time>2019-09-09T12:24:02Z</time>
      </trkpt>
      <trkpt lat="41.84174" lon="9.19242">
        <ele>1854.86</ele>
        <time>2019-09-09T12:24:15Z</time>
      </trkpt>
      <trkpt lat="41.84169" lon="9.19225">
        <ele>1853.61</ele>
        <time>2019-09-09T12:24:29Z</time>
      </trkpt>
      <trkpt lat="41.84162" lon="9.19204">
        <ele>1851.09</ele>
        <time>2019-09-09T12:24:47Z</time>
      </trkpt>
      <trkpt lat="41.84155" lon="9.19193">
        <ele>1849.03</ele>
        <time>2019-09-09T12:25:03Z</time>
      </trkpt>
      <trkpt lat="41.84151" lon="9.19183">
        <ele>1846.83</ele>
        <time>2019-09-09T12:25:17Z</time>
      </trkpt>
      <trkpt lat="41.84143" lon="9.19173">
        <ele>1843.34</ele>
        <time>2019-09-09T12:25:34Z</time>
      </trkpt>
      <trkpt lat="41.84136" lon="9.19165">
        <ele>1839.79</ele>
        <time>2019-09-09T12:25:49Z</time>
      </trkpt>
      <trkpt lat="41.84133" lon="9.19154">
        <ele>1836.62</ele>
        <time>2019-09-09T12:26:04Z</time>
      </trkpt>
      <trkpt lat="41.84133" lon="9.19148">
        <ele>1835.55</ele>
        <time>2019-09-09T12:26:09Z</time>
      </trkpt>
      <trkpt lat="41.84125" lon="9.19139">
        <ele>1832.67</ele>
        <time>2019-09-09T12:26:23Z</time>
      </trkpt>
      <trkpt lat="41.84121" lon="9.19134">
        <ele>1830.52</ele>
        <time>2019-09-09T12:26:37Z</time>
      </trkpt>
      <trkpt lat="41.84119" lon="9.19131">
        <ele>1829.19</ele>
        <time>2019-09-09T12:26:41Z</time>
      </trkpt>
      <trkpt lat="41.84115" lon="9.1912">
        <ele>1830.46</ele>
        <time>2019-09-09T12:26:52Z</time>
      </trkpt>
      <trkpt lat="41.84113" lon="9.19103">
        <ele>1831.02</ele>
        <time>2019-09-09T12:27:06Z</time>
      </trkpt>
      <trkpt lat="41.84111" lon="9.19091">
        <ele>1830.81</ele>
        <time>2019-09-09T12:27:20Z</time>
      </trkpt>
      <trkpt lat="41.84107" lon="9.19079">
        <ele>1828.91</ele>
        <time>2019-09-09T12:27:36Z</time>
      </trkpt>
      <trkpt lat="41.84109" lon="9.19069">
        <ele>1825.18</ele>
        <time>2019-09-09T12:27:53Z</time>
      </trkpt>
      <trkpt lat="41.84111" lon="9.19061">
        <ele>1821.79</ele>
        <time>2019-09-09T12:28:08Z</time>
      </trkpt>
      <trkpt lat="41.84112" lon="9.19056">
        <ele>1819.61</ele>
        <time>2019-09-09T12:28:22Z</time>
      </trkpt>
      <trkpt lat="41.84114" lon="9.19049">
        <ele>1816.73</ele>
        <time>2019-09-09T12:28:36Z</time>
      </trkpt>
      <trkpt lat="41.84113" lon="9.19046">
        <ele>1815.98</ele>
        <time>2019-09-09T12:28:50Z</time>
      </trkpt>
      <trkpt lat="41.84113" lon="9.19047">
        <ele>1815.62</ele>
        <time>2019-09-09T12:29:24Z</time>
      </trkpt>
      <trkpt lat="41.84115" lon="9.1904">
        <ele>1813.11</ele>
        <time>2019-09-09T12:29:41Z</time>
      </trkpt>
      <trkpt lat="41.84115" lon="9.19036">
        <ele>1811.72</ele>
        <time>2019-09-09T12:29:54Z</time>
      </trkpt>
      <trkpt lat="41.84116" lon="9.19032">
        <ele>1810.11</ele>
        <time>2019-09-09T12:30:06Z</time>
      </trkpt>
      <trkpt lat="41.84115" lon="9.19024">
        <ele>1809.37</ele>
        <time>2019-09-09T12:30:21Z</time>
      </trkpt>
      <trkpt lat="41.8411" lon="9.19015">
        <ele>1810.18</ele>
        <time>2019-09-09T12:30:36Z</time>
      </trkpt>
      <trkpt lat="41.84108" lon="9.19006">
        <ele>1809.62</ele>
        <time>2019-09-09T12:30:51Z</time>
      </trkpt>
      <trkpt lat="41.84109" lon="9.18996">
        <ele>1807.74</ele>
        <time>2019-09-09T12:31:05Z</time>
      </trkpt>
      <trkpt lat="41.84113" lon="9.18988">
        <ele>1804.43</ele>
        <time>2019-09-09T12:31:23Z</time>
      </trkpt>
      <trkpt lat="41.84116" lon="9.18982">
        <ele>1801.18</ele>
        <time>2019-09-09T12:31:38Z</time>
      </trkpt>
      <trkpt lat="41.84119" lon="9.18981">
        <ele>1799.23</ele>
        <time>2019-09-09T12:31:51Z</time>
      </trkpt>
      <trkpt lat="41.8412" lon="9.18971">
        <ele>1796.4</ele>
        <time>2019-09-09T12:32:08Z</time>
      </trkpt>
      <trkpt lat="41.84122" lon="9.18967">
        <ele>1793.96</ele>
        <time>2019-09-09T12:32:20Z</time>
      </trkpt>
      <trkpt lat="41.84129" lon="9.18964">
        <ele>1791.38</ele>
        <time>2019-09-09T12:32:38Z</time>
      </trkpt>
      <trkpt lat="41.84129" lon="9.18963">
        <ele>1791.84</ele>
        <time>2019-09-09T12:33:03Z</time>
      </trkpt>
      <trkpt lat="41.84129" lon="9.18963">
        <ele>1791.54</ele>
        <time>2019-09-09T12:33:22Z</time>
      </trkpt>
      <trkpt lat="41.84128" lon="9.18963">
        <ele>1791.12</ele>
        <time>2019-09-09T12:33:54Z</time>
      </trkpt>
      <trkpt lat="41.84129" lon="9.18964">
        <ele>1790.73</ele>
        <time>2019-09-09T12:34:21Z</time>
      </trkpt>
      <trkpt lat="41.84129" lon="9.18963">
        <ele>1792.89</ele>
        <time>2019-09-09T12:34:52Z</time>
      </trkpt>
      <trkpt lat="41.84129" lon="9.18962">
        <ele>1792.56</ele>
        <time>2019-09-09T12:35:17Z</time>
      </trkpt>
      <trkpt lat="41.84128" lon="9.18963">
        <ele>1791.71</ele>
        <time>2019-09-09T12:36:00Z</time>
      </trkpt>
      <trkpt lat="41.84129" lon="9.18964">
        <ele>1791.8</ele>
        <time>2019-09-09T12:36:36Z</time>
      </trkpt>
      <trkpt lat="41.8413" lon="9.18963">
        <ele>1791.37</ele>
        <time>2019-09-09T12:37:26Z</time>
      </trkpt>
      <trkpt lat="41.8413" lon="9.18963">
        <ele>1792.07</ele>
        <time>2019-09-09T12:37:54Z</time>
      </trkpt>
      <trkpt lat="41.84131" lon="9.18962">
        <ele>1791.95</ele>
        <time>2019-09-09T12:38:25Z</time>
      </trkpt>
      <trkpt lat="41.84136" lon="9.18961">
        <ele>1789.82</ele>
        <time>2019-09-09T12:38:42Z</time>
      </trkpt>
      <trkpt lat="41.84142" lon="9.18962">
        <ele>1788.13</ele>
        <time>2019-09-09T12:38:57Z</time>
      </trkpt>
      <trkpt lat="41.84145" lon="9.18952">
        <ele>1785.49</ele>
        <time>2019-09-09T12:39:13Z</time>
      </trkpt>
      <trkpt lat="41.84146" lon="9.18941">
        <ele>1783.95</ele>
        <time>2019-09-09T12:39:27Z</time>
      </trkpt>
      <trkpt lat="41.84147" lon="9.18938">
        <ele>1782.96</ele>
        <time>2019-09-09T12:39:44Z</time>
      </trkpt>
      <trkpt lat="41.8415" lon="9.18928">
        <ele>1780.76</ele>
        <time>2019-09-09T12:40:02Z</time>
      </trkpt>
      <trkpt lat="41.84149" lon="9.18916">
        <ele>1778.04</ele>
        <time>2019-09-09T12:40:18Z</time>
      </trkpt>
      <trkpt lat="41.84142" lon="9.18905">
        <ele>1776.55</ele>
        <time>2019-09-09T12:40:32Z</time>
      </trkpt>
      <trkpt lat="41.84136" lon="9.18893">
        <ele>1774.25</ele>
        <time>2019-09-09T12:40:48Z</time>
      </trkpt>
      <trkpt lat="41.84135" lon="9.18883">
        <ele>1772.4</ele>
        <time>2019-09-09T12:41:02Z</time>
      </trkpt>
      <trkpt lat="41.84135" lon="9.18882">
        <ele>1772.2</ele>
        <time>2019-09-09T12:41:03Z</time>
      </trkpt>
      <trkpt lat="41.84123" lon="9.18867">
        <ele>1772.81</ele>
        <time>2019-09-09T12:41:18Z</time>
      </trkpt>
      <trkpt lat="41.84121" lon="9.1885">
        <ele>1772.83</ele>
        <time>2019-09-09T12:41:35Z</time>
      </trkpt>
      <trkpt lat="41.84126" lon="9.18842">
        <ele>1769.65</ele>
        <time>2019-09-09T12:41:48Z</time>
      </trkpt>
      <trkpt lat="41.84131" lon="9.18829">
        <ele>1766.93</ele>
        <time>2019-09-09T12:42:03Z</time>
      </trkpt>
      <trkpt lat="41.84134" lon="9.18819">
        <ele>1764.21</ele>
        <time>2019-09-09T12:42:18Z</time>
      </trkpt>
      <trkpt lat="41.84139" lon="9.1881">
        <ele>1760.68</ele>
        <time>2019-09-09T12:42:34Z</time>
      </trkpt>
      <trkpt lat="41.84138" lon="9.18799">
        <ele>1758.48</ele>
        <time>2019-09-09T12:42:46Z</time>
      </trkpt>
      <trkpt lat="41.84136" lon="9.1879">
        <ele>1755.61</ele>
        <time>2019-09-09T12:42:59Z</time>
      </trkpt>
      <trkpt lat="41.8413" lon="9.18778">
        <ele>1752.56</ele>
        <time>2019-09-09T12:43:17Z</time>
      </trkpt>
      <trkpt lat="41.84128" lon="9.18767">
        <ele>1750.05</ele>
        <time>2019-09-09T12:43:28Z</time>
      </trkpt>
      <trkpt lat="41.84119" lon="9.18755">
        <ele>1747.75</ele>
        <time>2019-09-09T12:43:43Z</time>
      </trkpt>
      <trkpt lat="41.8411" lon="9.18742">
        <ele>1747.67</ele>
        <time>2019-09-09T12:43:58Z</time>
      </trkpt>
      <trkpt lat="41.84099" lon="9.18728">
        <ele>1746.63</ele>
        <time>2019-09-09T12:44:15Z</time>
      </trkpt>
      <trkpt lat="41.84091" lon="9.18716">
        <ele>1746.89</ele>
        <time>2019-09-09T12:44:32Z</time>
      </trkpt>
      <trkpt lat="41.84087" lon="9.18704">
        <ele>1746.64</ele>
        <time>2019-09-09T12:44:46Z</time>
      </trkpt>
      <trkpt lat="41.84083" lon="9.18689">
        <ele>1746.86</ele>
        <time>2019-09-09T12:45:00Z</time>
      </trkpt>
      <trkpt lat="41.84079" lon="9.18674">
        <ele>1746.89</ele>
        <time>2019-09-09T12:45:11Z</time>
      </trkpt>
      <trkpt lat="41.84077" lon="9.18652">
        <ele>1747.27</ele>
        <time>2019-09-09T12:45:28Z</time>
      </trkpt>
      <trkpt lat="41.84073" lon="9.18632">
        <ele>1747.64</ele>
        <time>2019-09-09T12:45:43Z</time>
      </trkpt>
      <trkpt lat="41.84068" lon="9.18611">
        <ele>1747.42</ele>
        <time>2019-09-09T12:46:00Z</time>
      </trkpt>
      <trkpt lat="41.84068" lon="9.18597">
        <ele>1747.75</ele>
        <time>2019-09-09T12:46:16Z</time>
      </trkpt>
      <trkpt lat="41.84073" lon="9.18588">
        <ele>1745.22</ele>
        <time>2019-09-09T12:46:29Z</time>
      </trkpt>
      <trkpt lat="41.84073" lon="9.18583">
        <ele>1745.17</ele>
        <time>2019-09-09T12:46:33Z</time>
      </trkpt>
      <trkpt lat="41.84068" lon="9.1856">
        <ele>1745.99</ele>
        <time>2019-09-09T12:46:49Z</time>
      </trkpt>
      <trkpt lat="41.84065" lon="9.18545">
        <ele>1746.81</ele>
        <time>2019-09-09T12:47:05Z</time>
      </trkpt>
      <trkpt lat="41.84063" lon="9.1853">
        <ele>1748.49</ele>
        <time>2019-09-09T12:47:20Z</time>
      </trkpt>
      <trkpt lat="41.84058" lon="9.18512">
        <ele>1750.31</ele>
        <time>2019-09-09T12:47:38Z</time>
      </trkpt>
      <trkpt lat="41.84055" lon="9.18487">
        <ele>1750.41</ele>
        <time>2019-09-09T12:47:55Z</time>
      </trkpt>
      <trkpt lat="41.84051" lon="9.18474">
        <ele>1749.95</ele>
        <time>2019-09-09T12:48:06Z</time>
      </trkpt>
      <trkpt lat="41.8405" lon="9.18449">
        <ele>1748.01</ele>
        <time>2019-09-09T12:48:24Z</time>
      </trkpt>
      <trkpt lat="41.84042" lon="9.18429">
        <ele>1746.43</ele>
        <time>2019-09-09T12:48:41Z</time>
      </trkpt>
      <trkpt lat="41.84029" lon="9.18402">
        <ele>1745.58</ele>
        <time>2019-09-09T12:49:01Z</time>
      </trkpt>
      <trkpt lat="41.84016" lon="9.18377">
        <ele>1744.82</ele>
        <time>2019-09-09T12:49:21Z</time>
      </trkpt>
      <trkpt lat="41.84014" lon="9.18362">
        <ele>1744.02</ele>
        <time>2019-09-09T12:49:41Z</time>
      </trkpt>
      <trkpt lat="41.84011" lon="9.18367">
        <ele>1744.64</ele>
        <time>2019-09-09T12:50:00Z</time>
      </trkpt>
      <trkpt lat="41.84012" lon="9.18363">
        <ele>1743.8</ele>
        <time>2019-09-09T12:50:13Z</time>
      </trkpt>
      <trkpt lat="41.84012" lon="9.18361">
        <ele>1743.17</ele>
        <time>2019-09-09T12:50:31Z</time>
      </trkpt>
      <trkpt lat="41.84013" lon="9.18358">
        <ele>1742.39</ele>
        <time>2019-09-09T12:50:55Z</time>
      </trkpt>
      <trkpt lat="41.84013" lon="9.18353">
        <ele>1741.6</ele>
        <time>2019-09-09T12:51:00Z</time>
      </trkpt>
      <trkpt lat="41.84016" lon="9.18328">
        <ele>1738.95</ele>
        <time>2019-09-09T12:51:19Z</time>
      </trkpt>
      <trkpt lat="41.84018" lon="9.18316">
        <ele>1737.47</ele>
        <time>2019-09-09T12:51:33Z</time>
      </trkpt>
      <trkpt lat="41.84019" lon="9.18312">
        <ele>1735.78</ele>
        <time>2019-09-09T12:51:36Z</time>
      </trkpt>
      <trkpt lat="41.84019" lon="9.18305">
        <ele>1734.58</ele>
        <time>2019-09-09T12:51:41Z</time>
      </trkpt>
      <trkpt lat="41.84032" lon="9.18272">
        <ele>1736.76</ele>
        <time>2019-09-09T12:52:04Z</time>
      </trkpt>
      <trkpt lat="41.84049" lon="9.18254">
        <ele>1737.58</ele>
        <time>2019-09-09T12:52:24Z</time>
      </trkpt>
      <trkpt lat="41.84055" lon="9.18241">
        <ele>1739.5</ele>
        <time>2019-09-09T12:52:40Z</time>
      </trkpt>
      <trkpt lat="41.84057" lon="9.18227">
        <ele>1742.46</ele>
        <time>2019-09-09T12:52:56Z</time>
      </trkpt>
      <trkpt lat="41.84058" lon="9.18216">
        <ele>1744.45</ele>
        <time>2019-09-09T12:53:10Z</time>
      </trkpt>
      <trkpt lat="41.84066" lon="9.18196">
        <ele>1750.54</ele>
        <time>2019-09-09T12:53:26Z</time>
      </trkpt>
      <trkpt lat="41.84078" lon="9.18175">
        <ele>1751.35</ele>
        <time>2019-09-09T12:53:45Z</time>
      </trkpt>
      <trkpt lat="41.84081" lon="9.18161">
        <ele>1752.3</ele>
        <time>2019-09-09T12:53:57Z</time>
      </trkpt>
      <trkpt lat="41.84087" lon="9.18146">
        <ele>1755.98</ele>
        <time>2019-09-09T12:54:11Z</time>
      </trkpt>
      <trkpt lat="41.84093" lon="9.18139">
        <ele>1757.47</ele>
        <time>2019-09-09T12:54:24Z</time>
      </trkpt>
      <trkpt lat="41.84104" lon="9.18132">
        <ele>1757.58</ele>
        <time>2019-09-09T12:54:42Z</time>
      </trkpt>
      <trkpt lat="41.84111" lon="9.18121">
        <ele>1758.74</ele>
        <time>2019-09-09T12:54:57Z</time>
      </trkpt>
      <trkpt lat="41.84122" lon="9.18113">
        <ele>1759.88</ele>
        <time>2019-09-09T12:55:13Z</time>
      </trkpt>
      <trkpt lat="41.8413" lon="9.18101">
        <ele>1762.02</ele>
        <time>2019-09-09T12:55:30Z</time>
      </trkpt>
      <trkpt lat="41.8413" lon="9.18088">
        <ele>1763.28</ele>
        <time>2019-09-09T12:55:44Z</time>
      </trkpt>
      <trkpt lat="41.84128" lon="9.18081">
        <ele>1763.39</ele>
        <time>2019-09-09T12:56:01Z</time>
      </trkpt>
      <trkpt lat="41.84126" lon="9.18081">
        <ele>1763.41</ele>
        <time>2019-09-09T12:56:17Z</time>
      </trkpt>
      <trkpt lat="41.84125" lon="9.18082">
        <ele>1762.32</ele>
        <time>2019-09-09T12:56:37Z</time>
      </trkpt>
      <trkpt lat="41.84126" lon="9.18082">
        <ele>1761.99</ele>
        <time>2019-09-09T12:57:15Z</time>
      </trkpt>
      <trkpt lat="41.84126" lon="9.18083">
        <ele>1761.77</ele>
        <time>2019-09-09T12:58:48Z</time>
      </trkpt>
      <trkpt lat="41.84126" lon="9.18082">
        <ele>1762.4</ele>
        <time>2019-09-09T13:00:07Z</time>
      </trkpt>
      <trkpt lat="41.84125" lon="9.18075">
        <ele>1762.05</ele>
        <time>2019-09-09T13:00:18Z</time>
      </trkpt>
      <trkpt lat="41.84129" lon="9.18068">
        <ele>1760.26</ele>
        <time>2019-09-09T13:00:38Z</time>
      </trkpt>
      <trkpt lat="41.84129" lon="9.18066">
        <ele>1759.98</ele>
        <time>2019-09-09T13:00:40Z</time>
      </trkpt>
      <trkpt lat="41.84123" lon="9.18046">
        <ele>1758.14</ele>
        <time>2019-09-09T13:00:57Z</time>
      </trkpt>
      <trkpt lat="41.84123" lon="9.1804">
        <ele>1757.57</ele>
        <time>2019-09-09T13:01:02Z</time>
      </trkpt>
      <trkpt lat="41.84118" lon="9.18017">
        <ele>1755.56</ele>
        <time>2019-09-09T13:01:23Z</time>
      </trkpt>
      <trkpt lat="41.84119" lon="9.18009">
        <ele>1754.42</ele>
        <time>2019-09-09T13:01:33Z</time>
      </trkpt>
      <trkpt lat="41.8412" lon="9.18">
        <ele>1753.98</ele>
        <time>2019-09-09T13:01:41Z</time>
      </trkpt>
      <trkpt lat="41.84129" lon="9.17978">
        <ele>1754.43</ele>
        <time>2019-09-09T13:02:01Z</time>
      </trkpt>
      <trkpt lat="41.84134" lon="9.17966">
        <ele>1755.92</ele>
        <time>2019-09-09T13:02:17Z</time>
      </trkpt>
      <trkpt lat="41.84139" lon="9.17952">
        <ele>1757.23</ele>
        <time>2019-09-09T13:02:32Z</time>
      </trkpt>
      <trkpt lat="41.84138" lon="9.17949">
        <ele>1757.25</ele>
        <time>2019-09-09T13:02:35Z</time>
      </trkpt>
      <trkpt lat="41.84138" lon="9.17924">
        <ele>1757.27</ele>
        <time>2019-09-09T13:02:54Z</time>
      </trkpt>
      <trkpt lat="41.84139" lon="9.17918">
        <ele>1757.04</ele>
        <time>2019-09-09T13:02:58Z</time>
      </trkpt>
      <trkpt lat="41.84135" lon="9.17889">
        <ele>1755.9</ele>
        <time>2019-09-09T13:03:17Z</time>
      </trkpt>
      <trkpt lat="41.84135" lon="9.17886">
        <ele>1755.7</ele>
        <time>2019-09-09T13:03:19Z</time>
      </trkpt>
      <trkpt lat="41.84137" lon="9.17881">
        <ele>1755.27</ele>
        <time>2019-09-09T13:03:23Z</time>
      </trkpt>
      <trkpt lat="41.84134" lon="9.17854">
        <ele>1753.03</ele>
        <time>2019-09-09T13:03:42Z</time>
      </trkpt>
      <trkpt lat="41.84132" lon="9.17829">
        <ele>1750.92</ele>
        <time>2019-09-09T13:04:00Z</time>
      </trkpt>
      <trkpt lat="41.84134" lon="9.17811">
        <ele>1748.88</ele>
        <time>2019-09-09T13:04:15Z</time>
      </trkpt>
      <trkpt lat="41.84136" lon="9.17809">
        <ele>1748.47</ele>
        <time>2019-09-09T13:04:18Z</time>
      </trkpt>
      <trkpt lat="41.84145" lon="9.17792">
        <ele>1746.4</ele>
        <time>2019-09-09T13:04:37Z</time>
      </trkpt>
      <trkpt lat="41.84152" lon="9.17783">
        <ele>1744.97</ele>
        <time>2019-09-09T13:04:54Z</time>
      </trkpt>
      <trkpt lat="41.84166" lon="9.17789">
        <ele>1743.3</ele>
        <time>2019-09-09T13:05:13Z</time>
      </trkpt>
      <trkpt lat="41.84179" lon="9.178">
        <ele>1741.39</ele>
        <time>2019-09-09T13:05:31Z</time>
      </trkpt>
      <trkpt lat="41.84188" lon="9.17798">
        <ele>1740.43</ele>
        <time>2019-09-09T13:05:40Z</time>
      </trkpt>
      <trkpt lat="41.84191" lon="9.17796">
        <ele>1740.27</ele>
        <time>2019-09-09T13:05:43Z</time>
      </trkpt>
      <trkpt lat="41.8421" lon="9.17791">
        <ele>1739.19</ele>
        <time>2019-09-09T13:06:02Z</time>
      </trkpt>
      <trkpt lat="41.84224" lon="9.17782">
        <ele>1740.06</ele>
        <time>2019-09-09T13:06:17Z</time>
      </trkpt>
      <trkpt lat="41.84239" lon="9.17771">
        <ele>1740.44</ele>
        <time>2019-09-09T13:06:33Z</time>
      </trkpt>
      <trkpt lat="41.84242" lon="9.17767">
        <ele>1740.97</ele>
        <time>2019-09-09T13:06:37Z</time>
      </trkpt>
      <trkpt lat="41.84244" lon="9.17763">
        <ele>1741.49</ele>
        <time>2019-09-09T13:06:40Z</time>
      </trkpt>
      <trkpt lat="41.84261" lon="9.17758">
        <ele>1740.7</ele>
        <time>2019-09-09T13:06:58Z</time>
      </trkpt>
      <trkpt lat="41.84268" lon="9.17754">
        <ele>1740.13</ele>
        <time>2019-09-09T13:07:06Z</time>
      </trkpt>
      <trkpt lat="41.84272" lon="9.1775">
        <ele>1740.11</ele>
        <time>2019-09-09T13:07:11Z</time>
      </trkpt>
      <trkpt lat="41.84276" lon="9.17747">
        <ele>1739.8</ele>
        <time>2019-09-09T13:07:15Z</time>
      </trkpt>
      <trkpt lat="41.8428" lon="9.17743">
        <ele>1739.41</ele>
        <time>2019-09-09T13:07:20Z</time>
      </trkpt>
      <trkpt lat="41.84296" lon="9.17729">
        <ele>1739.26</ele>
        <time>2019-09-09T13:07:37Z</time>
      </trkpt>
      <trkpt lat="41.84312" lon="9.17719">
        <ele>1739.28</ele>
        <time>2019-09-09T13:07:55Z</time>
      </trkpt>
      <trkpt lat="41.84318" lon="9.17715">
        <ele>1739</ele>
        <time>2019-09-09T13:08:01Z</time>
      </trkpt>
      <trkpt lat="41.84329" lon="9.1771">
        <ele>1737.68</ele>
        <time>2019-09-09T13:08:12Z</time>
      </trkpt>
      <trkpt lat="41.84348" lon="9.17712">
        <ele>1734.87</ele>
        <time>2019-09-09T13:08:30Z</time>
      </trkpt>
      <trkpt lat="41.84368" lon="9.17715">
        <ele>1732.26</ele>
        <time>2019-09-09T13:08:49Z</time>
      </trkpt>
      <trkpt lat="41.84387" lon="9.17709">
        <ele>1729.52</ele>
        <time>2019-09-09T13:09:07Z</time>
      </trkpt>
      <trkpt lat="41.84409" lon="9.17711">
        <ele>1727.19</ele>
        <time>2019-09-09T13:09:26Z</time>
      </trkpt>
      <trkpt lat="41.8443" lon="9.17707">
        <ele>1725.45</ele>
        <time>2019-09-09T13:09:45Z</time>
      </trkpt>
      <trkpt lat="41.8445" lon="9.177">
        <ele>1724.13</ele>
        <time>2019-09-09T13:10:04Z</time>
      </trkpt>
      <trkpt lat="41.84468" lon="9.17701">
        <ele>1723.75</ele>
        <time>2019-09-09T13:10:23Z</time>
      </trkpt>
      <trkpt lat="41.84473" lon="9.17703">
        <ele>1723.45</ele>
        <time>2019-09-09T13:10:40Z</time>
      </trkpt>
      <trkpt lat="41.84491" lon="9.17702">
        <ele>1722.12</ele>
        <time>2019-09-09T13:10:59Z</time>
      </trkpt>
      <trkpt lat="41.84499" lon="9.17703">
        <ele>1721.11</ele>
        <time>2019-09-09T13:11:08Z</time>
      </trkpt>
      <trkpt lat="41.84518" lon="9.17708">
        <ele>1719.62</ele>
        <time>2019-09-09T13:11:26Z</time>
      </trkpt>
      <trkpt lat="41.84543" lon="9.17705">
        <ele>1719.23</ele>
        <time>2019-09-09T13:11:47Z</time>
      </trkpt>
      <trkpt lat="41.84564" lon="9.17707">
        <ele>1720.73</ele>
        <time>2019-09-09T13:12:07Z</time>
      </trkpt>
      <trkpt lat="41.84584" lon="9.1771">
        <ele>1721.86</ele>
        <time>2019-09-09T13:12:25Z</time>
      </trkpt>
      <trkpt lat="41.84608" lon="9.17722">
        <ele>1722.9</ele>
        <time>2019-09-09T13:12:47Z</time>
      </trkpt>
      <trkpt lat="41.84631" lon="9.17724">
        <ele>1722.82</ele>
        <time>2019-09-09T13:13:07Z</time>
      </trkpt>
      <trkpt lat="41.84647" lon="9.1773">
        <ele>1722.81</ele>
        <time>2019-09-09T13:13:22Z</time>
      </trkpt>
      <trkpt lat="41.84655" lon="9.17725">
        <ele>1722.35</ele>
        <time>2019-09-09T13:13:33Z</time>
      </trkpt>
      <trkpt lat="41.84662" lon="9.17709">
        <ele>1721.36</ele>
        <time>2019-09-09T13:13:49Z</time>
      </trkpt>
      <trkpt lat="41.84665" lon="9.17696">
        <ele>1720.11</ele>
        <time>2019-09-09T13:14:00Z</time>
      </trkpt>
      <trkpt lat="41.84669" lon="9.17692">
        <ele>1719.86</ele>
        <time>2019-09-09T13:14:06Z</time>
      </trkpt>
      <trkpt lat="41.84679" lon="9.17677">
        <ele>1718.99</ele>
        <time>2019-09-09T13:14:25Z</time>
      </trkpt>
      <trkpt lat="41.8468" lon="9.17676">
        <ele>1718.88</ele>
        <time>2019-09-09T13:14:39Z</time>
      </trkpt>
      <trkpt lat="41.84681" lon="9.17676">
        <ele>1718.79</ele>
        <time>2019-09-09T13:14:58Z</time>
      </trkpt>
      <trkpt lat="41.8468" lon="9.17675">
        <ele>1718.59</ele>
        <time>2019-09-09T13:15:16Z</time>
      </trkpt>
      <trkpt lat="41.84681" lon="9.17673">
        <ele>1718.63</ele>
        <time>2019-09-09T13:15:33Z</time>
      </trkpt>
      <trkpt lat="41.84687" lon="9.17671">
        <ele>1717.64</ele>
        <time>2019-09-09T13:15:45Z</time>
      </trkpt>
      <trkpt lat="41.84695" lon="9.17669">
        <ele>1717.08</ele>
        <time>2019-09-09T13:16:01Z</time>
      </trkpt>
      <trkpt lat="41.84703" lon="9.17664">
        <ele>1715.6</ele>
        <time>2019-09-09T13:16:16Z</time>
      </trkpt>
      <trkpt lat="41.84704" lon="9.17663">
        <ele>1715.39</ele>
        <time>2019-09-09T13:16:17Z</time>
      </trkpt>
      <trkpt lat="41.84708" lon="9.17655">
        <ele>1713.8</ele>
        <time>2019-09-09T13:16:26Z</time>
      </trkpt>
      <trkpt lat="41.84711" lon="9.17647">
        <ele>1711.93</ele>
        <time>2019-09-09T13:16:34Z</time>
      </trkpt>
      <trkpt lat="41.84725" lon="9.17634">
        <ele>1709.3</ele>
        <time>2019-09-09T13:16:51Z</time>
      </trkpt>
      <trkpt lat="41.84727" lon="9.1763">
        <ele>1708.73</ele>
        <time>2019-09-09T13:16:55Z</time>
      </trkpt>
      <trkpt lat="41.84736" lon="9.17611">
        <ele>1706.03</ele>
        <time>2019-09-09T13:17:14Z</time>
      </trkpt>
      <trkpt lat="41.84743" lon="9.17602">
        <ele>1705.03</ele>
        <time>2019-09-09T13:17:29Z</time>
      </trkpt>
      <trkpt lat="41.84752" lon="9.1759">
        <ele>1705.12</ele>
        <time>2019-09-09T13:17:44Z</time>
      </trkpt>
      <trkpt lat="41.84763" lon="9.17571">
        <ele>1703.07</ele>
        <time>2019-09-09T13:18:03Z</time>
      </trkpt>
      <trkpt lat="41.84772" lon="9.17557">
        <ele>1700.5</ele>
        <time>2019-09-09T13:18:18Z</time>
      </trkpt>
      <trkpt lat="41.84782" lon="9.17542">
        <ele>1697.67</ele>
        <time>2019-09-09T13:18:36Z</time>
      </trkpt>
      <trkpt lat="41.84792" lon="9.17526">
        <ele>1696.07</ele>
        <time>2019-09-09T13:18:52Z</time>
      </trkpt>
      <trkpt lat="41.84799" lon="9.17516">
        <ele>1694.55</ele>
        <time>2019-09-09T13:19:05Z</time>
      </trkpt>
      <trkpt lat="41.84809" lon="9.17504">
        <ele>1692.43</ele>
        <time>2019-09-09T13:19:22Z</time>
      </trkpt>
      <trkpt lat="41.84817" lon="9.17492">
        <ele>1690.73</ele>
        <time>2019-09-09T13:19:37Z</time>
      </trkpt>
      <trkpt lat="41.84827" lon="9.17479">
        <ele>1689.45</ele>
        <time>2019-09-09T13:19:53Z</time>
      </trkpt>
      <trkpt lat="41.84837" lon="9.17467">
        <ele>1688.71</ele>
        <time>2019-09-09T13:20:09Z</time>
      </trkpt>
      <trkpt lat="41.84838" lon="9.17464">
        <ele>1688.46</ele>
        <time>2019-09-09T13:20:12Z</time>
      </trkpt>
      <trkpt lat="41.84842" lon="9.17448">
        <ele>1686.82</ele>
        <time>2019-09-09T13:20:27Z</time>
      </trkpt>
      <trkpt lat="41.84854" lon="9.17437">
        <ele>1685.26</ele>
        <time>2019-09-09T13:20:43Z</time>
      </trkpt>
      <trkpt lat="41.84865" lon="9.17423">
        <ele>1684.15</ele>
        <time>2019-09-09T13:21:00Z</time>
      </trkpt>
      <trkpt lat="41.84876" lon="9.17409">
        <ele>1683.94</ele>
        <time>2019-09-09T13:21:17Z</time>
      </trkpt>
      <trkpt lat="41.84883" lon="9.17403">
        <ele>1683.58</ele>
        <time>2019-09-09T13:21:26Z</time>
      </trkpt>
      <trkpt lat="41.84884" lon="9.17401">
        <ele>1683.56</ele>
        <time>2019-09-09T13:21:28Z</time>
      </trkpt>
      <trkpt lat="41.84896" lon="9.17386">
        <ele>1682.28</ele>
        <time>2019-09-09T13:21:46Z</time>
      </trkpt>
      <trkpt lat="41.84898" lon="9.17383">
        <ele>1681.74</ele>
        <time>2019-09-09T13:21:50Z</time>
      </trkpt>
      <trkpt lat="41.84906" lon="9.17371">
        <ele>1679.8</ele>
        <time>2019-09-09T13:22:06Z</time>
      </trkpt>
      <trkpt lat="41.84915" lon="9.1737">
        <ele>1678.47</ele>
        <time>2019-09-09T13:22:20Z</time>
      </trkpt>
      <trkpt lat="41.8492" lon="9.17361">
        <ele>1676.72</ele>
        <time>2019-09-09T13:22:35Z</time>
      </trkpt>
      <trkpt lat="41.84924" lon="9.17354">
        <ele>1674.32</ele>
        <time>2019-09-09T13:22:50Z</time>
      </trkpt>
      <trkpt lat="41.84925" lon="9.17344">
        <ele>1671.99</ele>
        <time>2019-09-09T13:23:02Z</time>
      </trkpt>
      <trkpt lat="41.84928" lon="9.17332">
        <ele>1669.24</ele>
        <time>2019-09-09T13:23:18Z</time>
      </trkpt>
      <trkpt lat="41.84932" lon="9.17327">
        <ele>1666.81</ele>
        <time>2019-09-09T13:23:33Z</time>
      </trkpt>
      <trkpt lat="41.84936" lon="9.1732">
        <ele>1664.25</ele>
        <time>2019-09-09T13:23:46Z</time>
      </trkpt>
      <trkpt lat="41.84937" lon="9.17312">
        <ele>1662.05</ele>
        <time>2019-09-09T13:24:00Z</time>
      </trkpt>
      <trkpt lat="41.8494" lon="9.17304">
        <ele>1659.61</ele>
        <time>2019-09-09T13:24:15Z</time>
      </trkpt>
      <trkpt lat="41.84941" lon="9.17293">
        <ele>1656.61</ele>
        <time>2019-09-09T13:24:31Z</time>
      </trkpt>
      <trkpt lat="41.84941" lon="9.17285">
        <ele>1654.34</ele>
        <time>2019-09-09T13:24:44Z</time>
      </trkpt>
      <trkpt lat="41.84941" lon="9.17284">
        <ele>1654.1</ele>
        <time>2019-09-09T13:24:45Z</time>
      </trkpt>
      <trkpt lat="41.84937" lon="9.1727">
        <ele>1652.01</ele>
        <time>2019-09-09T13:25:01Z</time>
      </trkpt>
      <trkpt lat="41.84938" lon="9.17262">
        <ele>1649.89</ele>
        <time>2019-09-09T13:25:14Z</time>
      </trkpt>
      <trkpt lat="41.84941" lon="9.17257">
        <ele>1648.43</ele>
        <time>2019-09-09T13:25:27Z</time>
      </trkpt>
      <trkpt lat="41.84942" lon="9.1725">
        <ele>1645.98</ele>
        <time>2019-09-09T13:25:39Z</time>
      </trkpt>
      <trkpt lat="41.84942" lon="9.17248">
        <ele>1645.52</ele>
        <time>2019-09-09T13:25:41Z</time>
      </trkpt>
      <trkpt lat="41.84943" lon="9.17245">
        <ele>1644.79</ele>
        <time>2019-09-09T13:25:57Z</time>
      </trkpt>
      <trkpt lat="41.84945" lon="9.17243">
        <ele>1645.28</ele>
        <time>2019-09-09T13:26:22Z</time>
      </trkpt>
      <trkpt lat="41.84945" lon="9.17237">
        <ele>1643.99</ele>
        <time>2019-09-09T13:26:34Z</time>
      </trkpt>
      <trkpt lat="41.8495" lon="9.17227">
        <ele>1641.42</ele>
        <time>2019-09-09T13:26:50Z</time>
      </trkpt>
      <trkpt lat="41.8495" lon="9.17225">
        <ele>1641.27</ele>
        <time>2019-09-09T13:26:51Z</time>
      </trkpt>
      <trkpt lat="41.84949" lon="9.17223">
        <ele>1641</ele>
        <time>2019-09-09T13:26:53Z</time>
      </trkpt>
      <trkpt lat="41.8495" lon="9.17211">
        <ele>1639.06</ele>
        <time>2019-09-09T13:27:07Z</time>
      </trkpt>
      <trkpt lat="41.84956" lon="9.17197">
        <ele>1636.03</ele>
        <time>2019-09-09T13:27:26Z</time>
      </trkpt>
      <trkpt lat="41.84963" lon="9.17186">
        <ele>1633.59</ele>
        <time>2019-09-09T13:27:42Z</time>
      </trkpt>
      <trkpt lat="41.84964" lon="9.17169">
        <ele>1631.02</ele>
        <time>2019-09-09T13:28:01Z</time>
      </trkpt>
      <trkpt lat="41.84969" lon="9.17162">
        <ele>1628.67</ele>
        <time>2019-09-09T13:28:16Z</time>
      </trkpt>
      <trkpt lat="41.84975" lon="9.17166">
        <ele>1627.51</ele>
        <time>2019-09-09T13:28:29Z</time>
      </trkpt>
      <trkpt lat="41.84975" lon="9.17167">
        <ele>1627.44</ele>
        <time>2019-09-09T13:28:50Z</time>
      </trkpt>
      <trkpt lat="41.84976" lon="9.17167">
        <ele>1627.4</ele>
        <time>2019-09-09T13:29:09Z</time>
      </trkpt>
      <trkpt lat="41.84976" lon="9.17167">
        <ele>1627.74</ele>
        <time>2019-09-09T13:29:37Z</time>
      </trkpt>
      <trkpt lat="41.84976" lon="9.17166">
        <ele>1626.91</ele>
        <time>2019-09-09T13:30:01Z</time>
      </trkpt>
      <trkpt lat="41.84976" lon="9.17165">
        <ele>1626.53</ele>
        <time>2019-09-09T13:30:27Z</time>
      </trkpt>
      <trkpt lat="41.84977" lon="9.17166">
        <ele>1626.39</ele>
        <time>2019-09-09T13:30:44Z</time>
      </trkpt>
      <trkpt lat="41.84977" lon="9.17165">
        <ele>1626.12</ele>
        <time>2019-09-09T13:31:04Z</time>
      </trkpt>
      <trkpt lat="41.84976" lon="9.17165">
        <ele>1626.04</ele>
        <time>2019-09-09T13:31:31Z</time>
      </trkpt>
      <trkpt lat="41.84976" lon="9.17165">
        <ele>1625.86</ele>
        <time>2019-09-09T13:32:07Z</time>
      </trkpt>
      <trkpt lat="41.84979" lon="9.1717">
        <ele>1625.47</ele>
        <time>2019-09-09T13:32:27Z</time>
      </trkpt>
      <trkpt lat="41.84998" lon="9.17186">
        <ele>1623.63</ele>
        <time>2019-09-09T13:32:49Z</time>
      </trkpt>
      <trkpt lat="41.8502" lon="9.17196">
        <ele>1623.34</ele>
        <time>2019-09-09T13:33:10Z</time>
      </trkpt>
      <trkpt lat="41.85042" lon="9.17199">
        <ele>1625.04</ele>
        <time>2019-09-09T13:33:29Z</time>
      </trkpt>
      <trkpt lat="41.85065" lon="9.17196">
        <ele>1625.33</ele>
        <time>2019-09-09T13:33:49Z</time>
      </trkpt>
      <trkpt lat="41.85081" lon="9.17204">
        <ele>1626.74</ele>
        <time>2019-09-09T13:34:07Z</time>
      </trkpt>
      <trkpt lat="41.85086" lon="9.17206">
        <ele>1627.81</ele>
        <time>2019-09-09T13:34:13Z</time>
      </trkpt>
      <trkpt lat="41.85105" lon="9.17187">
        <ele>1628.98</ele>
        <time>2019-09-09T13:34:33Z</time>
      </trkpt>
      <trkpt lat="41.85123" lon="9.17166">
        <ele>1627.32</ele>
        <time>2019-09-09T13:34:53Z</time>
      </trkpt>
      <trkpt lat="41.85147" lon="9.17142">
        <ele>1624.89</ele>
        <time>2019-09-09T13:35:17Z</time>
      </trkpt>
      <trkpt lat="41.85164" lon="9.17125">
        <ele>1622.92</ele>
        <time>2019-09-09T13:35:35Z</time>
      </trkpt>
      <trkpt lat="41.85167" lon="9.17102">
        <ele>1621.96</ele>
        <time>2019-09-09T13:35:52Z</time>
      </trkpt>
      <trkpt lat="41.85151" lon="9.17082">
        <ele>1620.28</ele>
        <time>2019-09-09T13:36:10Z</time>
      </trkpt>
      <trkpt lat="41.85147" lon="9.17047">
        <ele>1619.35</ele>
        <time>2019-09-09T13:36:33Z</time>
      </trkpt>
      <trkpt lat="41.8515" lon="9.17011">
        <ele>1617.37</ele>
        <time>2019-09-09T13:36:56Z</time>
      </trkpt>
      <trkpt lat="41.85168" lon="9.16988">
        <ele>1615.09</ele>
        <time>2019-09-09T13:37:18Z</time>
      </trkpt>
      <trkpt lat="41.85186" lon="9.16971">
        <ele>1613.93</ele>
        <time>2019-09-09T13:37:38Z</time>
      </trkpt>
      <trkpt lat="41.8518" lon="9.16948">
        <ele>1613.65</ele>
        <time>2019-09-09T13:37:53Z</time>
      </trkpt>
      <trkpt lat="41.85161" lon="9.16918">
        <ele>1610.83</ele>
        <time>2019-09-09T13:38:16Z</time>
      </trkpt>
      <trkpt lat="41.85143" lon="9.16896">
        <ele>1607.63</ele>
        <time>2019-09-09T13:38:37Z</time>
      </trkpt>
      <trkpt lat="41.85128" lon="9.16868">
        <ele>1603.85</ele>
        <time>2019-09-09T13:39:01Z</time>
      </trkpt>
      <trkpt lat="41.85123" lon="9.16836">
        <ele>1600.63</ele>
        <time>2019-09-09T13:39:23Z</time>
      </trkpt>
      <trkpt lat="41.85113" lon="9.168">
        <ele>1597.22</ele>
        <time>2019-09-09T13:39:48Z</time>
      </trkpt>
      <trkpt lat="41.85099" lon="9.16767">
        <ele>1594.6</ele>
        <time>2019-09-09T13:40:11Z</time>
      </trkpt>
      <trkpt lat="41.85093" lon="9.16758">
        <ele>1593.78</ele>
        <time>2019-09-09T13:40:19Z</time>
      </trkpt>
      <trkpt lat="41.85099" lon="9.16734">
        <ele>1591.49</ele>
        <time>2019-09-09T13:40:38Z</time>
      </trkpt>
      <trkpt lat="41.85114" lon="9.16707">
        <ele>1588.83</ele>
        <time>2019-09-09T13:41:00Z</time>
      </trkpt>
      <trkpt lat="41.85121" lon="9.16696">
        <ele>1587.77</ele>
        <time>2019-09-09T13:41:11Z</time>
      </trkpt>
      <trkpt lat="41.85126" lon="9.1669">
        <ele>1586.81</ele>
        <time>2019-09-09T13:41:17Z</time>
      </trkpt>
      <trkpt lat="41.85143" lon="9.16677">
        <ele>1584.85</ele>
        <time>2019-09-09T13:41:35Z</time>
      </trkpt>
      <trkpt lat="41.85163" lon="9.16673">
        <ele>1583.02</ele>
        <time>2019-09-09T13:41:52Z</time>
      </trkpt>
      <trkpt lat="41.85188" lon="9.16667">
        <ele>1581.7</ele>
        <time>2019-09-09T13:42:12Z</time>
      </trkpt>
      <trkpt lat="41.8521" lon="9.16655">
        <ele>1580.37</ele>
        <time>2019-09-09T13:42:33Z</time>
      </trkpt>
      <trkpt lat="41.85211" lon="9.16655">
        <ele>1580.31</ele>
        <time>2019-09-09T13:42:34Z</time>
      </trkpt>
      <trkpt lat="41.85233" lon="9.16652">
        <ele>1577.93</ele>
        <time>2019-09-09T13:42:55Z</time>
      </trkpt>
      <trkpt lat="41.8526" lon="9.16643">
        <ele>1575.1</ele>
        <time>2019-09-09T13:43:18Z</time>
      </trkpt>
      <trkpt lat="41.85287" lon="9.16633">
        <ele>1572.7</ele>
        <time>2019-09-09T13:43:39Z</time>
      </trkpt>
      <trkpt lat="41.85314" lon="9.16636">
        <ele>1570.46</ele>
        <time>2019-09-09T13:44:01Z</time>
      </trkpt>
      <trkpt lat="41.8534" lon="9.1664">
        <ele>1567.34</ele>
        <time>2019-09-09T13:44:23Z</time>
      </trkpt>
      <trkpt lat="41.85372" lon="9.16638">
        <ele>1564.34</ele>
        <time>2019-09-09T13:44:48Z</time>
      </trkpt>
      <trkpt lat="41.854" lon="9.16641">
        <ele>1561.85</ele>
        <time>2019-09-09T13:45:10Z</time>
      </trkpt>
      <trkpt lat="41.85428" lon="9.16643">
        <ele>1559.19</ele>
        <time>2019-09-09T13:45:33Z</time>
      </trkpt>
      <trkpt lat="41.8545" lon="9.16649">
        <ele>1556.58</ele>
        <time>2019-09-09T13:45:55Z</time>
      </trkpt>
      <trkpt lat="41.85457" lon="9.16653">
        <ele>1556</ele>
        <time>2019-09-09T13:46:13Z</time>
      </trkpt>
      <trkpt lat="41.85457" lon="9.16653">
        <ele>1556.17</ele>
        <time>2019-09-09T13:46:50Z</time>
      </trkpt>
      <trkpt lat="41.85458" lon="9.16653">
        <ele>1555.6</ele>
        <time>2019-09-09T13:47:22Z</time>
      </trkpt>
      <trkpt lat="41.85458" lon="9.16652">
        <ele>1554.77</ele>
        <time>2019-09-09T13:48:00Z</time>
      </trkpt>
      <trkpt lat="41.85458" lon="9.16652">
        <ele>1554.15</ele>
        <time>2019-09-09T13:48:26Z</time>
      </trkpt>
      <trkpt lat="41.85458" lon="9.16652">
        <ele>1553.84</ele>
        <time>2019-09-09T13:48:55Z</time>
      </trkpt>
      <trkpt lat="41.85458" lon="9.16652">
        <ele>1553.24</ele>
        <time>2019-09-09T13:49:24Z</time>
      </trkpt>
      <trkpt lat="41.85458" lon="9.16652">
        <ele>1553.3</ele>
        <time>2019-09-09T13:49:55Z</time>
      </trkpt>
      <trkpt lat="41.8546" lon="9.16652">
        <ele>1553.1</ele>
        <time>2019-09-09T13:50:28Z</time>
      </trkpt>
      <trkpt lat="41.85464" lon="9.16645">
        <ele>1550.75</ele>
        <time>2019-09-09T13:50:43Z</time>
      </trkpt>
      <trkpt lat="41.85472" lon="9.1664">
        <ele>1548.8</ele>
        <time>2019-09-09T13:50:56Z</time>
      </trkpt>
      <trkpt lat="41.85484" lon="9.16632">
        <ele>1546.53</ele>
        <time>2019-09-09T13:51:14Z</time>
      </trkpt>
      <trkpt lat="41.85493" lon="9.16623">
        <ele>1543.88</ele>
        <time>2019-09-09T13:51:28Z</time>
      </trkpt>
      <trkpt lat="41.85499" lon="9.1662">
        <ele>1543.02</ele>
        <time>2019-09-09T13:51:36Z</time>
      </trkpt>
      <trkpt lat="41.85508" lon="9.16612">
        <ele>1541.53</ele>
        <time>2019-09-09T13:51:47Z</time>
      </trkpt>
      <trkpt lat="41.85522" lon="9.16611">
        <ele>1539.53</ele>
        <time>2019-09-09T13:52:00Z</time>
      </trkpt>
      <trkpt lat="41.85524" lon="9.16608">
        <ele>1539.21</ele>
        <time>2019-09-09T13:52:04Z</time>
      </trkpt>
      <trkpt lat="41.85535" lon="9.166">
        <ele>1539.06</ele>
        <time>2019-09-09T13:52:16Z</time>
      </trkpt>
      <trkpt lat="41.85534" lon="9.16591">
        <ele>1537.77</ele>
        <time>2019-09-09T13:52:29Z</time>
      </trkpt>
    </trkseg>
  </trk>
  <trk>
    <name><![CDATA[2019-09-09 15:52:46]]></name>
    <trkseg>
      <trkpt lat="41.85534" lon="9.16591">
        <ele>1537.77</ele>
        <time>2019-09-09T13:52:29Z</time>
      </trkpt>
      <trkpt lat="41.85535" lon="9.166">
        <ele>1539.06</ele>
        <time>2019-09-09T13:52:16Z</time>
      </trkpt>
      <trkpt lat="41.85524" lon="9.16608">
        <ele>1539.21</ele>
        <time>2019-09-09T13:52:04Z</time>
      </trkpt>
      <trkpt lat="41.85522" lon="9.16611">
        <ele>1539.53</ele>
        <time>2019-09-09T13:52:00Z</time>
      </trkpt>
      <trkpt lat="41.85508" lon="9.16612">
        <ele>1541.53</ele>
        <time>2019-09-09T13:51:47Z</time>
      </trkpt>
      <trkpt lat="41.85499" lon="9.1662">
        <ele>1543.02</ele>
        <time>2019-09-09T13:51:36Z</time>
      </trkpt>
      <trkpt lat="41.85493" lon="9.16623">
        <ele>1543.88</ele>
        <time>2019-09-09T13:51:28Z</time>
      </trkpt>
      <trkpt lat="41.85484" lon="9.16632">
        <ele>1546.53</ele>
        <time>2019-09-09T13:51:14Z</time>
      </trkpt>
      <trkpt lat="41.85472" lon="9.1664">
        <ele>1548.8</ele>
        <time>2019-09-09T13:50:56Z</time>
      </trkpt>
      <trkpt lat="41.85464" lon="9.16645">
        <ele>1550.75</ele>
        <time>2019-09-09T13:50:43Z</time>
      </trkpt>
      <trkpt lat="41.8546" lon="9.16652">
        <ele>1553.1</ele>
        <time>2019-09-09T13:50:28Z</time>
      </trkpt>
      <trkpt lat="41.85458" lon="9.16652">
        <ele>1553.3</ele>
        <time>2019-09-09T13:49:55Z</time>
      </trkpt>
      <trkpt lat="41.85458" lon="9.16652">
        <ele>1553.24</ele>
        <time>2019-09-09T13:49:24Z</time>
      </trkpt>
      <trkpt lat="41.85458" lon="9.16652">
        <ele>1553.84</ele>
        <time>2019-09-09T13:48:55Z</time>
      </trkpt>
      <trkpt lat="41.85458" lon="9.16652">
        <ele>1554.15</ele>
        <time>2019-09-09T13:48:26Z</time>
      </trkpt>
      <trkpt lat="41.85458" lon="9.16652">
        <ele>1554.77</ele>
        <time>2019-09-09T13:48:00Z</time>
      </trkpt>
      <trkpt lat="41.85458" lon="9.16653">
        <ele>1555.6</ele>
        <time>2019-09-09T13:47:22Z</time>
      </trkpt>
      <trkpt lat="41.85457" lon="9.16653">
        <ele>1556.17</ele>
        <time>2019-09-09T13:46:50Z</time>
      </trkpt>
      <trkpt lat="41.85457" lon="9.16653">
        <ele>1556</ele>
        <time>2019-09-09T13:46:13Z</time>
      </trkpt>
      <trkpt lat="41.8545" lon="9.16649">
        <ele>1556.58</ele>
        <time>2019-09-09T13:45:55Z</time>
      </trkpt>
      <trkpt lat="41.85428" lon="9.16643">
        <ele>1559.19</ele>
        <time>2019-09-09T13:45:33Z</time>
      </trkpt>
      <trkpt lat="41.854" lon="9.16641">
        <ele>1561.85</ele>
        <time>2019-09-09T13:45:10Z</time>
      </trkpt>
      <trkpt lat="41.85372" lon="9.16638">
        <ele>1564.34</ele>
        <time>2019-09-09T13:44:48Z</time>
      </trkpt>
      <trkpt lat="41.8534" lon="9.1664">
        <ele>1567.34</ele>
        <time>2019-09-09T13:44:23Z</time>
      </trkpt>
      <trkpt lat="41.85314" lon="9.16636">
        <ele>1570.46</ele>
        <time>2019-09-09T13:44:01Z</time>
      </trkpt>
      <trkpt lat="41.85287" lon="9.16633">
        <ele>1572.7</ele>
        <time>2019-09-09T13:43:39Z</time>
      </trkpt>
      <trkpt lat="41.8526" lon="9.16643">
        <ele>1575.1</ele>
        <time>2019-09-09T13:43:18Z</time>
      </trkpt>
      <trkpt lat="41.85233" lon="9.16652">
        <ele>1577.93</ele>
        <time>2019-09-09T13:42:55Z</time>
      </trkpt>
      <trkpt lat="41.85211" lon="9.16655">
        <ele>1580.31</ele>
        <time>2019-09-09T13:42:34Z</time>
      </trkpt>
      <trkpt lat="41.8521" lon="9.16655">
        <ele>1580.37</ele>
        <time>2019-09-09T13:42:33Z</time>
      </trkpt>
      <trkpt lat="41.85188" lon="9.16667">
        <ele>1581.7</ele>
        <time>2019-09-09T13:42:12Z</time>
      </trkpt>
      <trkpt lat="41.85163" lon="9.16673">
        <ele>1583.02</ele>
        <time>2019-09-09T13:41:52Z</time>
      </trkpt>
      <trkpt lat="41.85143" lon="9.16677">
        <ele>1584.85</ele>
        <time>2019-09-09T13:41:35Z</time>
      </trkpt>
      <trkpt lat="41.85126" lon="9.1669">
        <ele>1586.81</ele>
        <time>2019-09-09T13:41:17Z</time>
      </trkpt>
      <trkpt lat="41.85121" lon="9.16696">
        <ele>1587.77</ele>
        <time>2019-09-09T13:41:11Z</time>
      </trkpt>
      <trkpt lat="41.85114" lon="9.16707">
        <ele>1588.83</ele>
        <time>2019-09-09T13:41:00Z</time>
      </trkpt>
      <trkpt lat="41.85099" lon="9.16734">
        <ele>1591.49</ele>
        <time>2019-09-09T13:40:38Z</time>
      </trkpt>
      <trkpt lat="41.85093" lon="9.16758">
        <ele>1593.78</ele>
        <time>2019-09-09T13:40:19Z</time>
      </trkpt>
      <trkpt lat="41.85099" lon="9.16767">
        <ele>1594.6</ele>
        <time>2019-09-09T13:40:11Z</time>
      </trkpt>
      <trkpt lat="41.85113" lon="9.168">
        <ele>1597.22</ele>
        <time>2019-09-09T13:39:48Z</time>
      </trkpt>
      <trkpt lat="41.85123" lon="9.16836">
        <ele>1600.63</ele>
        <time>2019-09-09T13:39:23Z</time>
      </trkpt>
      <trkpt lat="41.85128" lon="9.16868">
        <ele>1603.85</ele>
        <time>2019-09-09T13:39:01Z</time>
      </trkpt>
      <trkpt lat="41.85143" lon="9.16896">
        <ele>1607.63</ele>
        <time>2019-09-09T13:38:37Z</time>
      </trkpt>
      <trkpt lat="41.85161" lon="9.16918">
        <ele>1610.83</ele>
        <time>2019-09-09T13:38:16Z</time>
      </trkpt>
      <trkpt lat="41.8518" lon="9.16948">
        <ele>1613.65</ele>
        <time>2019-09-09T13:37:53Z</time>
      </trkpt>
      <trkpt lat="41.85186" lon="9.16971">
        <ele>1613.93</ele>
        <time>2019-09-09T13:37:38Z</time>
      </trkpt>
      <trkpt lat="41.85168" lon="9.16988">
        <ele>1615.09</ele>
        <time>2019-09-09T13:37:18Z</time>
      </trkpt>
      <trkpt lat="41.8515" lon="9.17011">
        <ele>1617.37</ele>
        <time>2019-09-09T13:36:56Z</time>
      </trkpt>
      <trkpt lat="41.85147" lon="9.17047">
        <ele>1619.35</ele>
        <time>2019-09-09T13:36:33Z</time>
      </trkpt>
      <trkpt lat="41.85151" lon="9.17082">
        <ele>1620.28</ele>
        <time>2019-09-09T13:36:10Z</time>
      </trkpt>
      <trkpt lat="41.85167" lon="9.17102">
        <ele>1621.96</ele>
        <time>2019-09-09T13:35:52Z</time>
      </trkpt>
      <trkpt lat="41.85164" lon="9.17125">
        <ele>1622.92</ele>
        <time>2019-09-09T13:35:35Z</time>
      </trkpt>
      <trkpt lat="41.85147" lon="9.17142">
        <ele>1624.89</ele>
        <time>2019-09-09T13:35:17Z</time>
      </trkpt>
      <trkpt lat="41.85123" lon="9.17166">
        <ele>1627.32</ele>
        <time>2019-09-09T13:34:53Z</time>
      </trkpt>
      <trkpt lat="41.85105" lon="9.17187">
        <ele>1628.98</ele>
        <time>2019-09-09T13:34:33Z</time>
      </trkpt>
      <trkpt lat="41.85086" lon="9.17206">
        <ele>1627.81</ele>
        <time>2019-09-09T13:34:13Z</time>
      </trkpt>
      <trkpt lat="41.85081" lon="9.17204">
        <ele>1626.74</ele>
        <time>2019-09-09T13:34:07Z</time>
      </trkpt>
      <trkpt lat="41.85065" lon="9.17196">
        <ele>1625.33</ele>
        <time>2019-09-09T13:33:49Z</time>
      </trkpt>
      <trkpt lat="41.85042" lon="9.17199">
        <ele>1625.04</ele>
        <time>2019-09-09T13:33:29Z</time>
      </trkpt>
      <trkpt lat="41.8502" lon="9.17196">
        <ele>1623.34</ele>
        <time>2019-09-09T13:33:10Z</time>
      </trkpt>
      <trkpt lat="41.84998" lon="9.17186">
        <ele>1623.63</ele>
        <time>2019-09-09T13:32:49Z</time>
      </trkpt>
      <trkpt lat="41.84979" lon="9.1717">
        <ele>1625.47</ele>
        <time>2019-09-09T13:32:27Z</time>
      </trkpt>
      <trkpt lat="41.84976" lon="9.17165">
        <ele>1625.86</ele>
        <time>2019-09-09T13:32:07Z</time>
      </trkpt>
      <trkpt lat="41.84976" lon="9.17165">
        <ele>1626.04</ele>
        <time>2019-09-09T13:31:31Z</time>
      </trkpt>
      <trkpt lat="41.84977" lon="9.17165">
        <ele>1626.12</ele>
        <time>2019-09-09T13:31:04Z</time>
      </trkpt>
      <trkpt lat="41.84977" lon="9.17166">
        <ele>1626.39</ele>
        <time>2019-09-09T13:30:44Z</time>
      </trkpt>
      <trkpt lat="41.84976" lon="9.17165">
        <ele>1626.53</ele>
        <time>2019-09-09T13:30:27Z</time>
      </trkpt>
      <trkpt lat="41.84976" lon="9.17166">
        <ele>1626.91</ele>
        <time>2019-09-09T13:30:01Z</time>
      </trkpt>
      <trkpt lat="41.84976" lon="9.17167">
        <ele>1627.74</ele>
        <time>2019-09-09T13:29:37Z</time>
      </trkpt>
      <trkpt lat="41.84976" lon="9.17167">
        <ele>1627.4</ele>
        <time>2019-09-09T13:29:09Z</time>
      </trkpt>
      <trkpt lat="41.84975" lon="9.17167">
        <ele>1627.44</ele>
        <time>2019-09-09T13:28:50Z</time>
      </trkpt>
      <trkpt lat="41.84975" lon="9.17166">
        <ele>1627.51</ele>
        <time>2019-09-09T13:28:29Z</time>
      </trkpt>
      <trkpt lat="41.84969" lon="9.17162">
        <ele>1628.67</ele>
        <time>2019-09-09T13:28:16Z</time>
      </trkpt>
      <trkpt lat="41.84964" lon="9.17169">
        <ele>1631.02</ele>
        <time>2019-09-09T13:28:01Z</time>
      </trkpt>
      <trkpt lat="41.84963" lon="9.17186">
        <ele>1633.59</ele>
        <time>2019-09-09T13:27:42Z</time>
      </trkpt>
      <trkpt lat="41.84956" lon="9.17197">
        <ele>1636.03</ele>
        <time>2019-09-09T13:27:26Z</time>
      </trkpt>
      <trkpt lat="41.8495" lon="9.17211">
        <ele>1639.06</ele>
        <time>2019-09-09T13:27:07Z</time>
      </trkpt>
      <trkpt lat="41.84949" lon="9.17223">
        <ele>1641</ele>
        <time>2019-09-09T13:26:53Z</time>
      </trkpt>
      <trkpt lat="41.8495" lon="9.17225">
        <ele>1641.27</ele>
        <time>2019-09-09T13:26:51Z</time>
      </trkpt>
      <trkpt lat="41.8495" lon="9.17227">
        <ele>1641.42</ele>
        <time>2019-09-09T13:26:50Z</time>
      </trkpt>
      <trkpt lat="41.84945" lon="9.17237">
        <ele>1643.99</ele>
        <time>2019-09-09T13:26:34Z</time>
      </trkpt>
      <trkpt lat="41.84945" lon="9.17243">
        <ele>1645.28</ele>
        <time>2019-09-09T13:26:22Z</time>
      </trkpt>
      <trkpt lat="41.84943" lon="9.17245">
        <ele>1644.79</ele>
        <time>2019-09-09T13:25:57Z</time>
      </trkpt>
      <trkpt lat="41.84942" lon="9.17248">
        <ele>1645.52</ele>
        <time>2019-09-09T13:25:41Z</time>
      </trkpt>
      <trkpt lat="41.84942" lon="9.1725">
        <ele>1645.98</ele>
        <time>2019-09-09T13:25:39Z</time>
      </trkpt>
      <trkpt lat="41.84941" lon="9.17257">
        <ele>1648.43</ele>
        <time>2019-09-09T13:25:27Z</time>
      </trkpt>
      <trkpt lat="41.84938" lon="9.17262">
        <ele>1649.89</ele>
        <time>2019-09-09T13:25:14Z</time>
      </trkpt>
      <trkpt lat="41.84937" lon="9.1727">
        <ele>1652.01</ele>
        <time>2019-09-09T13:25:01Z</time>
      </trkpt>
      <trkpt lat="41.84941" lon="9.17284">
        <ele>1654.1</ele>
        <time>2019-09-09T13:24:45Z</time>
      </trkpt>
      <trkpt lat="41.84941" lon="9.17285">
        <ele>1654.34</ele>
        <time>2019-09-09T13:24:44Z</time>
      </trkpt>
      <trkpt lat="41.84941" lon="9.17293">
        <ele>1656.61</ele>
        <time>2019-09-09T13:24:31Z</time>
      </trkpt>
      <trkpt lat="41.8494" lon="9.17304">
        <ele>1659.61</ele>
        <time>2019-09-09T13:24:15Z</time>
      </trkpt>
      <trkpt lat="41.84937" lon="9.17312">
        <ele>1662.05</ele>
        <time>2019-09-09T13:24:00Z</time>
      </trkpt>
      <trkpt lat="41.84936" lon="9.1732">
        <ele>1664.25</ele>
        <time>2019-09-09T13:23:46Z</time>
      </trkpt>
      <trkpt lat="41.84932" lon="9.17327">
        <ele>1666.81</ele>
        <time>2019-09-09T13:23:33Z</time>
      </trkpt>
      <trkpt lat="41.84928" lon="9.17332">
        <ele>1669.24</ele>
        <time>2019-09-09T13:23:18Z</time>
      </trkpt>
      <trkpt lat="41.84925" lon="9.17344">
        <ele>1671.99</ele>
        <time>2019-09-09T13:23:02Z</time>
      </trkpt>
      <trkpt lat="41.84924" lon="9.17354">
        <ele>1674.32</ele>
        <time>2019-09-09T13:22:50Z</time>
      </trkpt>
      <trkpt lat="41.8492" lon="9.17361">
        <ele>1676.72</ele>
        <time>2019-09-09T13:22:35Z</time>
      </trkpt>
      <trkpt lat="41.84915" lon="9.1737">
        <ele>1678.47</ele>
        <time>2019-09-09T13:22:20Z</time>
      </trkpt>
      <trkpt lat="41.84906" lon="9.17371">
        <ele>1679.8</ele>
        <time>2019-09-09T13:22:06Z</time>
      </trkpt>
      <trkpt lat="41.84898" lon="9.17383">
        <ele>1681.74</ele>
        <time>2019-09-09T13:21:50Z</time>
      </trkpt>
      <trkpt lat="41.84896" lon="9.17386">
        <ele>1682.28</ele>
        <time>2019-09-09T13:21:46Z</time>
      </trkpt>
      <trkpt lat="41.84884" lon="9.17401">
        <ele>1683.56</ele>
        <time>2019-09-09T13:21:28Z</time>
      </trkpt>
      <trkpt lat="41.84883" lon="9.17403">
        <ele>1683.58</ele>
        <time>2019-09-09T13:21:26Z</time>
      </trkpt>
      <trkpt lat="41.84876" lon="9.17409">
        <ele>1683.94</ele>
        <time>2019-09-09T13:21:17Z</time>
      </trkpt>
      <trkpt lat="41.84865" lon="9.17423">
        <ele>1684.15</ele>
        <time>2019-09-09T13:21:00Z</time>
      </trkpt>
      <trkpt lat="41.84854" lon="9.17437">
        <ele>1685.26</ele>
        <time>2019-09-09T13:20:43Z</time>
      </trkpt>
      <trkpt lat="41.84842" lon="9.17448">
        <ele>1686.82</ele>
        <time>2019-09-09T13:20:27Z</time>
      </trkpt>
      <trkpt lat="41.84838" lon="9.17464">
        <ele>1688.46</ele>
        <time>2019-09-09T13:20:12Z</time>
      </trkpt>
      <trkpt lat="41.84837" lon="9.17467">
        <ele>1688.71</ele>
        <time>2019-09-09T13:20:09Z</time>
      </trkpt>
      <trkpt lat="41.84827" lon="9.17479">
        <ele>1689.45</ele>
        <time>2019-09-09T13:19:53Z</time>
      </trkpt>
      <trkpt lat="41.84817" lon="9.17492">
        <ele>1690.73</ele>
        <time>2019-09-09T13:19:37Z</time>
      </trkpt>
      <trkpt lat="41.84809" lon="9.17504">
        <ele>1692.43</ele>
        <time>2019-09-09T13:19:22Z</time>
      </trkpt>
      <trkpt lat="41.84799" lon="9.17516">
        <ele>1694.55</ele>
        <time>2019-09-09T13:19:05Z</time>
      </trkpt>
      <trkpt lat="41.84792" lon="9.17526">
        <ele>1696.07</ele>
        <time>2019-09-09T13:18:52Z</time>
      </trkpt>
      <trkpt lat="41.84782" lon="9.17542">
        <ele>1697.67</ele>
        <time>2019-09-09T13:18:36Z</time>
      </trkpt>
      <trkpt lat="41.84772" lon="9.17557">
        <ele>1700.5</ele>
        <time>2019-09-09T13:18:18Z</time>
      </trkpt>
      <trkpt lat="41.84763" lon="9.17571">
        <ele>1703.07</ele>
        <time>2019-09-09T13:18:03Z</time>
      </trkpt>
      <trkpt lat="41.84752" lon="9.1759">
        <ele>1705.12</ele>
        <time>2019-09-09T13:17:44Z</time>
      </trkpt>
      <trkpt lat="41.84743" lon="9.17602">
        <ele>1705.03</ele>
        <time>2019-09-09T13:17:29Z</time>
      </trkpt>
      <trkpt lat="41.84736" lon="9.17611">
        <ele>1706.03</ele>
        <time>2019-09-09T13:17:14Z</time>
      </trkpt>
      <trkpt lat="41.84727" lon="9.1763">
        <ele>1708.73</ele>
        <time>2019-09-09T13:16:55Z</time>
      </trkpt>
      <trkpt lat="41.84725" lon="9.17634">
        <ele>1709.3</ele>
        <time>2019-09-09T13:16:51Z</time>
      </trkpt>
      <trkpt lat="41.84711" lon="9.17647">
        <ele>1711.93</ele>
        <time>2019-09-09T13:16:34Z</time>
      </trkpt>
      <trkpt lat="41.84708" lon="9.17655">
        <ele>1713.8</ele>
        <time>2019-09-09T13:16:26Z</time>
      </trkpt>
      <trkpt lat="41.84704" lon="9.17663">
        <ele>1715.39</ele>
        <time>2019-09-09T13:16:17Z</time>
      </trkpt>
      <trkpt lat="41.84703" lon="9.17664">
        <ele>1715.6</ele>
        <time>2019-09-09T13:16:16Z</time>
      </trkpt>
      <trkpt lat="41.84695" lon="9.17669">
        <ele>1717.08</ele>
        <time>2019-09-09T13:16:01Z</time>
      </trkpt>
      <trkpt lat="41.84687" lon="9.17671">
        <ele>1717.64</ele>
        <time>2019-09-09T13:15:45Z</time>
      </trkpt>
      <trkpt lat="41.84681" lon="9.17673">
        <ele>1718.63</ele>
        <time>2019-09-09T13:15:33Z</time>
      </trkpt>
      <trkpt lat="41.8468" lon="9.17675">
        <ele>1718.59</ele>
        <time>2019-09-09T13:15:16Z</time>
      </trkpt>
      <trkpt lat="41.84681" lon="9.17676">
        <ele>1718.79</ele>
        <time>2019-09-09T13:14:58Z</time>
      </trkpt>
      <trkpt lat="41.8468" lon="9.17676">
        <ele>1718.88</ele>
        <time>2019-09-09T13:14:39Z</time>
      </trkpt>
      <trkpt lat="41.84679" lon="9.17677">
        <ele>1718.99</ele>
        <time>2019-09-09T13:14:25Z</time>
      </trkpt>
      <trkpt lat="41.84669" lon="9.17692">
        <ele>1719.86</ele>
        <time>2019-09-09T13:14:06Z</time>
      </trkpt>
      <trkpt lat="41.84665" lon="9.17696">
        <ele>1720.11</ele>
        <time>2019-09-09T13:14:00Z</time>
      </trkpt>
      <trkpt lat="41.84662" lon="9.17709">
        <ele>1721.36</ele>
        <time>2019-09-09T13:13:49Z</time>
      </trkpt>
      <trkpt lat="41.84655" lon="9.17725">
        <ele>1722.35</ele>
        <time>2019-09-09T13:13:33Z</time>
      </trkpt>
      <trkpt lat="41.84647" lon="9.1773">
        <ele>1722.81</ele>
        <time>2019-09-09T13:13:22Z</time>
      </trkpt>
      <trkpt lat="41.84631" lon="9.17724">
        <ele>1722.82</ele>
        <time>2019-09-09T13:13:07Z</time>
      </trkpt>
      <trkpt lat="41.84608" lon="9.17722">
        <ele>1722.9</ele>
        <time>2019-09-09T13:12:47Z</time>
      </trkpt>
      <trkpt lat="41.84584" lon="9.1771">
        <ele>1721.86</ele>
        <time>2019-09-09T13:12:25Z</time>
      </trkpt>
      <trkpt lat="41.84564" lon="9.17707">
        <ele>1720.73</ele>
        <time>2019-09-09T13:12:07Z</time>
      </trkpt>
      <trkpt lat="41.84543" lon="9.17705">
        <ele>1719.23</ele>
        <time>2019-09-09T13:11:47Z</time>
      </trkpt>
      <trkpt lat="41.84518" lon="9.17708">
        <ele>1719.62</ele>
        <time>2019-09-09T13:11:26Z</time>
      </trkpt>
      <trkpt lat="41.84499" lon="9.17703">
        <ele>1721.11</ele>
        <time>2019-09-09T13:11:08Z</time>
      </trkpt>
      <trkpt lat="41.84491" lon="9.17702">
        <ele>1722.12</ele>
        <time>2019-09-09T13:10:59Z</time>
      </trkpt>
      <trkpt lat="41.84473" lon="9.17703">
        <ele>1723.45</ele>
        <time>2019-09-09T13:10:40Z</time>
      </trkpt>
      <trkpt lat="41.84468" lon="9.17701">
        <ele>1723.75</ele>
        <time>2019-09-09T13:10:23Z</time>
      </trkpt>
      <trkpt lat="41.8445" lon="9.177">
        <ele>1724.13</ele>
        <time>2019-09-09T13:10:04Z</time>
      </trkpt>
      <trkpt lat="41.8443" lon="9.17707">
        <ele>1725.45</ele>
        <time>2019-09-09T13:09:45Z</time>
      </trkpt>
      <trkpt lat="41.84409" lon="9.17711">
        <ele>1727.19</ele>
        <time>2019-09-09T13:09:26Z</time>
      </trkpt>
      <trkpt lat="41.84387" lon="9.17709">
        <ele>1729.52</ele>
        <time>2019-09-09T13:09:07Z</time>
      </trkpt>
      <trkpt lat="41.84368" lon="9.17715">
        <ele>1732.26</ele>
        <time>2019-09-09T13:08:49Z</time>
      </trkpt>
      <trkpt lat="41.84348" lon="9.17712">
        <ele>1734.87</ele>
        <time>2019-09-09T13:08:30Z</time>
      </trkpt>
      <trkpt lat="41.84329" lon="9.1771">
        <ele>1737.68</ele>
        <time>2019-09-09T13:08:12Z</time>
      </trkpt>
      <trkpt lat="41.84318" lon="9.17715">
        <ele>1739</ele>
        <time>2019-09-09T13:08:01Z</time>
      </trkpt>
      <trkpt lat="41.84312" lon="9.17719">
        <ele>1739.28</ele>
        <time>2019-09-09T13:07:55Z</time>
      </trkpt>
      <trkpt lat="41.84296" lon="9.17729">
        <ele>1739.26</ele>
        <time>2019-09-09T13:07:37Z</time>
      </trkpt>
      <trkpt lat="41.8428" lon="9.17743">
        <ele>1739.41</ele>
        <time>2019-09-09T13:07:20Z</time>
      </trkpt>
      <trkpt lat="41.84276" lon="9.17747">
        <ele>1739.8</ele>
        <time>2019-09-09T13:07:15Z</time>
      </trkpt>
      <trkpt lat="41.84272" lon="9.1775">
        <ele>1740.11</ele>
        <time>2019-09-09T13:07:11Z</time>
      </trkpt>
      <trkpt lat="41.84268" lon="9.17754">
        <ele>1740.13</ele>
        <time>2019-09-09T13:07:06Z</time>
      </trkpt>
      <trkpt lat="41.84261" lon="9.17758">
        <ele>1740.7</ele>
        <time>2019-09-09T13:06:58Z</time>
      </trkpt>
      <trkpt lat="41.84244" lon="9.17763">
        <ele>1741.49</ele>
        <time>2019-09-09T13:06:40Z</time>
      </trkpt>
      <trkpt lat="41.84242" lon="9.17767">
        <ele>1740.97</ele>
        <time>2019-09-09T13:06:37Z</time>
      </trkpt>
      <trkpt lat="41.84239" lon="9.17771">
        <ele>1740.44</ele>
        <time>2019-09-09T13:06:33Z</time>
      </trkpt>
      <trkpt lat="41.84224" lon="9.17782">
        <ele>1740.06</ele>
        <time>2019-09-09T13:06:17Z</time>
      </trkpt>
      <trkpt lat="41.8421" lon="9.17791">
        <ele>1739.19</ele>
        <time>2019-09-09T13:06:02Z</time>
      </trkpt>
      <trkpt lat="41.84191" lon="9.17796">
        <ele>1740.27</ele>
        <time>2019-09-09T13:05:43Z</time>
      </trkpt>
      <trkpt lat="41.84188" lon="9.17798">
        <ele>1740.43</ele>
        <time>2019-09-09T13:05:40Z</time>
      </trkpt>
      <trkpt lat="41.84179" lon="9.178">
        <ele>1741.39</ele>
        <time>2019-09-09T13:05:31Z</time>
      </trkpt>
      <trkpt lat="41.84166" lon="9.17789">
        <ele>1743.3</ele>
        <time>2019-09-09T13:05:13Z</time>
      </trkpt>
      <trkpt lat="41.84152" lon="9.17783">
        <ele>1744.97</ele>
        <time>2019-09-09T13:04:54Z</time>
      </trkpt>
      <trkpt lat="41.84145" lon="9.17792">
        <ele>1746.4</ele>
        <time>2019-09-09T13:04:37Z</time>
      </trkpt>
      <trkpt lat="41.84136" lon="9.17809">
        <ele>1748.47</ele>
        <time>2019-09-09T13:04:18Z</time>
      </trkpt>
      <trkpt lat="41.84134" lon="9.17811">
        <ele>1748.88</ele>
        <time>2019-09-09T13:04:15Z</time>
      </trkpt>
      <trkpt lat="41.84132" lon="9.17829">
        <ele>1750.92</ele>
        <time>2019-09-09T13:04:00Z</time>
      </trkpt>
      <trkpt lat="41.84134" lon="9.17854">
        <ele>1753.03</ele>
        <time>2019-09-09T13:03:42Z</time>
      </trkpt>
      <trkpt lat="41.84137" lon="9.17881">
        <ele>1755.27</ele>
        <time>2019-09-09T13:03:23Z</time>
      </trkpt>
      <trkpt lat="41.84135" lon="9.17886">
        <ele>1755.7</ele>
        <time>2019-09-09T13:03:19Z</time>
      </trkpt>
      <trkpt lat="41.84135" lon="9.17889">
        <ele>1755.9</ele>
        <time>2019-09-09T13:03:17Z</time>
      </trkpt>
      <trkpt lat="41.84139" lon="9.17918">
        <ele>1757.04</ele>
        <time>2019-09-09T13:02:58Z</time>
      </trkpt>
      <trkpt lat="41.84138" lon="9.17924">
        <ele>1757.27</ele>
        <time>2019-09-09T13:02:54Z</time>
      </trkpt>
      <trkpt lat="41.84138" lon="9.17949">
        <ele>1757.25</ele>
        <time>2019-09-09T13:02:35Z</time>
      </trkpt>
      <trkpt lat="41.84139" lon="9.17952">
        <ele>1757.23</ele>
        <time>2019-09-09T13:02:32Z</time>
      </trkpt>
      <trkpt lat="41.84134" lon="9.17966">
        <ele>1755.92</ele>
        <time>2019-09-09T13:02:17Z</time>
      </trkpt>
      <trkpt lat="41.84129" lon="9.17978">
        <ele>1754.43</ele>
        <time>2019-09-09T13:02:01Z</time>
      </trkpt>
      <trkpt lat="41.8412" lon="9.18">
        <ele>1753.98</ele>
        <time>2019-09-09T13:01:41Z</time>
      </trkpt>
      <trkpt lat="41.84119" lon="9.18009">
        <ele>1754.42</ele>
        <time>2019-09-09T13:01:33Z</time>
      </trkpt>
      <trkpt lat="41.84118" lon="9.18017">
        <ele>1755.56</ele>
        <time>2019-09-09T13:01:23Z</time>
      </trkpt>
      <trkpt lat="41.84123" lon="9.1804">
        <ele>1757.57</ele>
        <time>2019-09-09T13:01:02Z</time>
      </trkpt>
      <trkpt lat="41.84123" lon="9.18046">
        <ele>1758.14</ele>
        <time>2019-09-09T13:00:57Z</time>
      </trkpt>
      <trkpt lat="41.84129" lon="9.18066">
        <ele>1759.98</ele>
        <time>2019-09-09T13:00:40Z</time>
      </trkpt>
      <trkpt lat="41.84129" lon="9.18068">
        <ele>1760.26</ele>
        <time>2019-09-09T13:00:38Z</time>
      </trkpt>
      <trkpt lat="41.84125" lon="9.18075">
        <ele>1762.05</ele>
        <time>2019-09-09T13:00:18Z</time>
      </trkpt>
      <trkpt lat="41.84126" lon="9.18082">
        <ele>1762.4</ele>
        <time>2019-09-09T13:00:07Z</time>
      </trkpt>
      <trkpt lat="41.84126" lon="9.18083">
        <ele>1761.77</ele>
        <time>2019-09-09T12:58:48Z</time>
      </trkpt>
      <trkpt lat="41.84126" lon="9.18082">
        <ele>1761.99</ele>
        <time>2019-09-09T12:57:15Z</time>
      </trkpt>
      <trkpt lat="41.84125" lon="9.18082">
        <ele>1762.32</ele>
        <time>2019-09-09T12:56:37Z</time>
      </trkpt>
      <trkpt lat="41.84126" lon="9.18081">
        <ele>1763.41</ele>
        <time>2019-09-09T12:56:17Z</time>
      </trkpt>
      <trkpt lat="41.84128" lon="9.18081">
        <ele>1763.39</ele>
        <time>2019-09-09T12:56:01Z</time>
      </trkpt>
      <trkpt lat="41.8413" lon="9.18088">
        <ele>1763.28</ele>
        <time>2019-09-09T12:55:44Z</time>
      </trkpt>
      <trkpt lat="41.8413" lon="9.18101">
        <ele>1762.02</ele>
        <time>2019-09-09T12:55:30Z</time>
      </trkpt>
      <trkpt lat="41.84122" lon="9.18113">
        <ele>1759.88</ele>
        <time>2019-09-09T12:55:13Z</time>
      </trkpt>
      <trkpt lat="41.84111" lon="9.18121">
        <ele>1758.74</ele>
        <time>2019-09-09T12:54:57Z</time>
      </trkpt>
      <trkpt lat="41.84104" lon="9.18132">
        <ele>1757.58</ele>
        <time>2019-09-09T12:54:42Z</time>
      </trkpt>
      <trkpt lat="41.84093" lon="9.18139">
        <ele>1757.47</ele>
        <time>2019-09-09T12:54:24Z</time>
      </trkpt>
      <trkpt lat="41.84087" lon="9.18146">
        <ele>1755.98</ele>
        <time>2019-09-09T12:54:11Z</time>
      </trkpt>
      <trkpt lat="41.84081" lon="9.18161">
        <ele>1752.3</ele>
        <time>2019-09-09T12:53:57Z</time>
      </trkpt>
      <trkpt lat="41.84078" lon="9.18175">
        <ele>1751.35</ele>
        <time>2019-09-09T12:53:45Z</time>
      </trkpt>
      <trkpt lat="41.84066" lon="9.18196">
        <ele>1750.54</ele>
        <time>2019-09-09T12:53:26Z</time>
      </trkpt>
      <trkpt lat="41.84058" lon="9.18216">
        <ele>1744.45</ele>
        <time>2019-09-09T12:53:10Z</time>
      </trkpt>
      <trkpt lat="41.84057" lon="9.18227">
        <ele>1742.46</ele>
        <time>2019-09-09T12:52:56Z</time>
      </trkpt>
      <trkpt lat="41.84055" lon="9.18241">
        <ele>1739.5</ele>
        <time>2019-09-09T12:52:40Z</time>
      </trkpt>
      <trkpt lat="41.84049" lon="9.18254">
        <ele>1737.58</ele>
        <time>2019-09-09T12:52:24Z</time>
      </trkpt>
      <trkpt lat="41.84032" lon="9.18272">
        <ele>1736.76</ele>
        <time>2019-09-09T12:52:04Z</time>
      </trkpt>
      <trkpt lat="41.84019" lon="9.18305">
        <ele>1734.58</ele>
        <time>2019-09-09T12:51:41Z</time>
      </trkpt>
      <trkpt lat="41.84019" lon="9.18312">
        <ele>1735.78</ele>
        <time>2019-09-09T12:51:36Z</time>
      </trkpt>
      <trkpt lat="41.84018" lon="9.18316">
        <ele>1737.47</ele>
        <time>2019-09-09T12:51:33Z</time>
      </trkpt>
      <trkpt lat="41.84016" lon="9.18328">
        <ele>1738.95</ele>
        <time>2019-09-09T12:51:19Z</time>
      </trkpt>
      <trkpt lat="41.84013" lon="9.18353">
        <ele>1741.6</ele>
        <time>2019-09-09T12:51:00Z</time>
      </trkpt>
      <trkpt lat="41.84013" lon="9.18358">
        <ele>1742.39</ele>
        <time>2019-09-09T12:50:55Z</time>
      </trkpt>
      <trkpt lat="41.84012" lon="9.18361">
        <ele>1743.17</ele>
        <time>2019-09-09T12:50:31Z</time>
      </trkpt>
      <trkpt lat="41.84012" lon="9.18363">
        <ele>1743.8</ele>
        <time>2019-09-09T12:50:13Z</time>
      </trkpt>
      <trkpt lat="41.84011" lon="9.18367">
        <ele>1744.64</ele>
        <time>2019-09-09T12:50:00Z</time>
      </trkpt>
      <trkpt lat="41.84014" lon="9.18362">
        <ele>1744.02</ele>
        <time>2019-09-09T12:49:41Z</time>
      </trkpt>
      <trkpt lat="41.84016" lon="9.18377">
        <ele>1744.82</ele>
        <time>2019-09-09T12:49:21Z</time>
      </trkpt>
      <trkpt lat="41.84029" lon="9.18402">
        <ele>1745.58</ele>
        <time>2019-09-09T12:49:01Z</time>
      </trkpt>
      <trkpt lat="41.84042" lon="9.18429">
        <ele>1746.43</ele>
        <time>2019-09-09T12:48:41Z</time>
      </trkpt>
      <trkpt lat="41.8405" lon="9.18449">
        <ele>1748.01</ele>
        <time>2019-09-09T12:48:24Z</time>
      </trkpt>
      <trkpt lat="41.84051" lon="9.18474">
        <ele>1749.95</ele>
        <time>2019-09-09T12:48:06Z</time>
      </trkpt>
      <trkpt lat="41.84055" lon="9.18487">
        <ele>1750.41</ele>
        <time>2019-09-09T12:47:55Z</time>
      </trkpt>
      <trkpt lat="41.84058" lon="9.18512">
        <ele>1750.31</ele>
        <time>2019-09-09T12:47:38Z</time>
      </trkpt>
      <trkpt lat="41.84063" lon="9.1853">
        <ele>1748.49</ele>
        <time>2019-09-09T12:47:20Z</time>
      </trkpt>
      <trkpt lat="41.84065" lon="9.18545">
        <ele>1746.81</ele>
        <time>2019-09-09T12:47:05Z</time>
      </trkpt>
      <trkpt lat="41.84068" lon="9.1856">
        <ele>1745.99</ele>
        <time>2019-09-09T12:46:49Z</time>
      </trkpt>
      <trkpt lat="41.84073" lon="9.18583">
        <ele>1745.17</ele>
        <time>2019-09-09T12:46:33Z</time>
      </trkpt>
      <trkpt lat="41.84073" lon="9.18588">
        <ele>1745.22</ele>
        <time>2019-09-09T12:46:29Z</time>
      </trkpt>
      <trkpt lat="41.84068" lon="9.18597">
        <ele>1747.75</ele>
        <time>2019-09-09T12:46:16Z</time>
      </trkpt>
      <trkpt lat="41.84068" lon="9.18611">
        <ele>1747.42</ele>
        <time>2019-09-09T12:46:00Z</time>
      </trkpt>
      <trkpt lat="41.84073" lon="9.18632">
        <ele>1747.64</ele>
        <time>2019-09-09T12:45:43Z</time>
      </trkpt>
      <trkpt lat="41.84077" lon="9.18652">
        <ele>1747.27</ele>
        <time>2019-09-09T12:45:28Z</time>
      </trkpt>
      <trkpt lat="41.84079" lon="9.18674">
        <ele>1746.89</ele>
        <time>2019-09-09T12:45:11Z</time>
      </trkpt>
      <trkpt lat="41.84083" lon="9.18689">
        <ele>1746.86</ele>
        <time>2019-09-09T12:45:00Z</time>
      </trkpt>
      <trkpt lat="41.84087" lon="9.18704">
        <ele>1746.64</ele>
        <time>2019-09-09T12:44:46Z</time>
      </trkpt>
      <trkpt lat="41.84091" lon="9.18716">
        <ele>1746.89</ele>
        <time>2019-09-09T12:44:32Z</time>
      </trkpt>
      <trkpt lat="41.84099" lon="9.18728">
        <ele>1746.63</ele>
        <time>2019-09-09T12:44:15Z</time>
      </trkpt>
      <trkpt lat="41.8411" lon="9.18742">
        <ele>1747.67</ele>
        <time>2019-09-09T12:43:58Z</time>
      </trkpt>
      <trkpt lat="41.84119" lon="9.18755">
        <ele>1747.75</ele>
        <time>2019-09-09T12:43:43Z</time>
      </trkpt>
      <trkpt lat="41.84128" lon="9.18767">
        <ele>1750.05</ele>
        <time>2019-09-09T12:43:28Z</time>
      </trkpt>
      <trkpt lat="41.8413" lon="9.18778">
        <ele>1752.56</ele>
        <time>2019-09-09T12:43:17Z</time>
      </trkpt>
      <trkpt lat="41.84136" lon="9.1879">
        <ele>1755.61</ele>
        <time>2019-09-09T12:42:59Z</time>
      </trkpt>
      <trkpt lat="41.84138" lon="9.18799">
        <ele>1758.48</ele>
        <time>2019-09-09T12:42:46Z</time>
      </trkpt>
      <trkpt lat="41.84139" lon="9.1881">
        <ele>1760.68</ele>
        <time>2019-09-09T12:42:34Z</time>
      </trkpt>
      <trkpt lat="41.84134" lon="9.18819">
        <ele>1764.21</ele>
        <time>2019-09-09T12:42:18Z</time>
      </trkpt>
      <trkpt lat="41.84131" lon="9.18829">
        <ele>1766.93</ele>
        <time>2019-09-09T12:42:03Z</time>
      </trkpt>
      <trkpt lat="41.84126" lon="9.18842">
        <ele>1769.65</ele>
        <time>2019-09-09T12:41:48Z</time>
      </trkpt>
      <trkpt lat="41.84121" lon="9.1885">
        <ele>1772.83</ele>
        <time>2019-09-09T12:41:35Z</time>
      </trkpt>
      <trkpt lat="41.84123" lon="9.18867">
        <ele>1772.81</ele>
        <time>2019-09-09T12:41:18Z</time>
      </trkpt>
      <trkpt lat="41.84135" lon="9.18882">
        <ele>1772.2</ele>
        <time>2019-09-09T12:41:03Z</time>
      </trkpt>
      <trkpt lat="41.84135" lon="9.18883">
        <ele>1772.4</ele>
        <time>2019-09-09T12:41:02Z</time>
      </trkpt>
      <trkpt lat="41.84136" lon="9.18893">
        <ele>1774.25</ele>
        <time>2019-09-09T12:40:48Z</time>
      </trkpt>
      <trkpt lat="41.84142" lon="9.18905">
        <ele>1776.55</ele>
        <time>2019-09-09T12:40:32Z</time>
      </trkpt>
      <trkpt lat="41.84149" lon="9.18916">
        <ele>1778.04</ele>
        <time>2019-09-09T12:40:18Z</time>
      </trkpt>
      <trkpt lat="41.8415" lon="9.18928">
        <ele>1780.76</ele>
        <time>2019-09-09T12:40:02Z</time>
      </trkpt>
      <trkpt lat="41.84147" lon="9.18938">
        <ele>1782.96</ele>
        <time>2019-09-09T12:39:44Z</time>
      </trkpt>
      <trkpt lat="41.84146" lon="9.18941">
        <ele>1783.95</ele>
        <time>2019-09-09T12:39:27Z</time>
      </trkpt>
      <trkpt lat="41.84145" lon="9.18952">
        <ele>1785.49</ele>
        <time>2019-09-09T12:39:13Z</time>
      </trkpt>
      <trkpt lat="41.84142" lon="9.18962">
        <ele>1788.13</ele>
        <time>2019-09-09T12:38:57Z</time>
      </trkpt>
      <trkpt lat="41.84136" lon="9.18961">
        <ele>1789.82</ele>
        <time>2019-09-09T12:38:42Z</time>
      </trkpt>
      <trkpt lat="41.84131" lon="9.18962">
        <ele>1791.95</ele>
        <time>2019-09-09T12:38:25Z</time>
      </trkpt>
      <trkpt lat="41.8413" lon="9.18963">
        <ele>1792.07</ele>
        <time>2019-09-09T12:37:54Z</time>
      </trkpt>
      <trkpt lat="41.8413" lon="9.18963">
        <ele>1791.37</ele>
        <time>2019-09-09T12:37:26Z</time>
      </trkpt>
      <trkpt lat="41.84129" lon="9.18964">
        <ele>1791.8</ele>
        <time>2019-09-09T12:36:36Z</time>
      </trkpt>
      <trkpt lat="41.84128" lon="9.18963">
        <ele>1791.71</ele>
        <time>2019-09-09T12:36:00Z</time>
      </trkpt>
      <trkpt lat="41.84129" lon="9.18962">
        <ele>1792.56</ele>
        <time>2019-09-09T12:35:17Z</time>
      </trkpt>
      <trkpt lat="41.84129" lon="9.18963">
        <ele>1792.89</ele>
        <time>2019-09-09T12:34:52Z</time>
      </trkpt>
      <trkpt lat="41.84129" lon="9.18964">
        <ele>1790.73</ele>
        <time>2019-09-09T12:34:21Z</time>
      </trkpt>
      <trkpt lat="41.84128" lon="9.18963">
        <ele>1791.12</ele>
        <time>2019-09-09T12:33:54Z</time>
      </trkpt>
      <trkpt lat="41.84129" lon="9.18963">
        <ele>1791.54</ele>
        <time>2019-09-09T12:33:22Z</time>
      </trkpt>
      <trkpt lat="41.84129" lon="9.18963">
        <ele>1791.84</ele>
        <time>2019-09-09T12:33:03Z</time>
      </trkpt>
      <trkpt lat="41.84129" lon="9.18964">
        <ele>1791.38</ele>
        <time>2019-09-09T12:32:38Z</time>
      </trkpt>
      <trkpt lat="41.84122" lon="9.18967">
        <ele>1793.96</ele>
        <time>2019-09-09T12:32:20Z</time>
      </trkpt>
      <trkpt lat="41.8412" lon="9.18971">
        <ele>1796.4</ele>
        <time>2019-09-09T12:32:08Z</time>
      </trkpt>
      <trkpt lat="41.84119" lon="9.18981">
        <ele>1799.23</ele>
        <time>2019-09-09T12:31:51Z</time>
      </trkpt>
      <trkpt lat="41.84116" lon="9.18982">
        <ele>1801.18</ele>
        <time>2019-09-09T12:31:38Z</time>
      </trkpt>
      <trkpt lat="41.84113" lon="9.18988">
        <ele>1804.43</ele>
        <time>2019-09-09T12:31:23Z</time>
      </trkpt>
      <trkpt lat="41.84109" lon="9.18996">
        <ele>1807.74</ele>
        <time>2019-09-09T12:31:05Z</time>
      </trkpt>
      <trkpt lat="41.84108" lon="9.19006">
        <ele>1809.62</ele>
        <time>2019-09-09T12:30:51Z</time>
      </trkpt>
      <trkpt lat="41.8411" lon="9.19015">
        <ele>1810.18</ele>
        <time>2019-09-09T12:30:36Z</time>
      </trkpt>
      <trkpt lat="41.84115" lon="9.19024">
        <ele>1809.37</ele>
        <time>2019-09-09T12:30:21Z</time>
      </trkpt>
      <trkpt lat="41.84116" lon="9.19032">
        <ele>1810.11</ele>
        <time>2019-09-09T12:30:06Z</time>
      </trkpt>
      <trkpt lat="41.84115" lon="9.19036">
        <ele>1811.72</ele>
        <time>2019-09-09T12:29:54Z</time>
      </trkpt>
      <trkpt lat="41.84115" lon="9.1904">
        <ele>1813.11</ele>
        <time>2019-09-09T12:29:41Z</time>
      </trkpt>
      <trkpt lat="41.84113" lon="9.19047">
        <ele>1815.62</ele>
        <time>2019-09-09T12:29:24Z</time>
      </trkpt>
      <trkpt lat="41.84113" lon="9.19046">
        <ele>1815.98</ele>
        <time>2019-09-09T12:28:50Z</time>
      </trkpt>
      <trkpt lat="41.84114" lon="9.19049">
        <ele>1816.73</ele>
        <time>2019-09-09T12:28:36Z</time>
      </trkpt>
      <trkpt lat="41.84112" lon="9.19056">
        <ele>1819.61</ele>
        <time>2019-09-09T12:28:22Z</time>
      </trkpt>
      <trkpt lat="41.84111" lon="9.19061">
        <ele>1821.79</ele>
        <time>2019-09-09T12:28:08Z</time>
      </trkpt>
      <trkpt lat="41.84109" lon="9.19069">
        <ele>1825.18</ele>
        <time>2019-09-09T12:27:53Z</time>
      </trkpt>
      <trkpt lat="41.84107" lon="9.19079">
        <ele>1828.91</ele>
        <time>2019-09-09T12:27:36Z</time>
      </trkpt>
      <trkpt lat="41.84111" lon="9.19091">
        <ele>1830.81</ele>
        <time>2019-09-09T12:27:20Z</time>
      </trkpt>
      <trkpt lat="41.84113" lon="9.19103">
        <ele>1831.02</ele>
        <time>2019-09-09T12:27:06Z</time>
      </trkpt>
      <trkpt lat="41.84115" lon="9.1912">
        <ele>1830.46</ele>
        <time>2019-09-09T12:26:52Z</time>
      </trkpt>
      <trkpt lat="41.84119" lon="9.19131">
        <ele>1829.19</ele>
        <time>2019-09-09T12:26:41Z</time>
      </trkpt>
      <trkpt lat="41.84121" lon="9.19134">
        <ele>1830.52</ele>
        <time>2019-09-09T12:26:37Z</time>
      </trkpt>
      <trkpt lat="41.84125" lon="9.19139">
        <ele>1832.67</ele>
        <time>2019-09-09T12:26:23Z</time>
      </trkpt>
      <trkpt lat="41.84133" lon="9.19148">
        <ele>1835.55</ele>
        <time>2019-09-09T12:26:09Z</time>
      </trkpt>
      <trkpt lat="41.84133" lon="9.19154">
        <ele>1836.62</ele>
        <time>2019-09-09T12:26:04Z</time>
      </trkpt>
      <trkpt lat="41.84136" lon="9.19165">
        <ele>1839.79</ele>
        <time>2019-09-09T12:25:49Z</time>
      </trkpt>
      <trkpt lat="41.84143" lon="9.19173">
        <ele>1843.34</ele>
        <time>2019-09-09T12:25:34Z</time>
      </trkpt>
      <trkpt lat="41.84151" lon="9.19183">
        <ele>1846.83</ele>
        <time>2019-09-09T12:25:17Z</time>
      </trkpt>
      <trkpt lat="41.84155" lon="9.19193">
        <ele>1849.03</ele>
        <time>2019-09-09T12:25:03Z</time>
      </trkpt>
      <trkpt lat="41.84162" lon="9.19204">
        <ele>1851.09</ele>
        <time>2019-09-09T12:24:47Z</time>
      </trkpt>
      <trkpt lat="41.84169" lon="9.19225">
        <ele>1853.61</ele>
        <time>2019-09-09T12:24:29Z</time>
      </trkpt>
      <trkpt lat="41.84174" lon="9.19242">
        <ele>1854.86</ele>
        <time>2019-09-09T12:24:15Z</time>
      </trkpt>
      <trkpt lat="41.84178" lon="9.19254">
        <ele>1857.24</ele>
        <time>2019-09-09T12:24:02Z</time>
      </trkpt>
      <trkpt lat="41.84183" lon="9.19272">
        <ele>1860</ele>
        <time>2019-09-09T12:23:44Z</time>
      </trkpt>
      <trkpt lat="41.84192" lon="9.19293">
        <ele>1861.2</ele>
        <time>2019-09-09T12:23:25Z</time>
      </trkpt>
      <trkpt lat="41.84194" lon="9.19294">
        <ele>1861.28</ele>
        <time>2019-09-09T12:23:23Z</time>
      </trkpt>
      <trkpt lat="41.84204" lon="9.19317">
        <ele>1861.48</ele>
        <time>2019-09-09T12:23:04Z</time>
      </trkpt>
      <trkpt lat="41.84206" lon="9.1932">
        <ele>1861.43</ele>
        <time>2019-09-09T12:23:01Z</time>
      </trkpt>
      <trkpt lat="41.84216" lon="9.19323">
        <ele>1862.45</ele>
        <time>2019-09-09T12:22:50Z</time>
      </trkpt>
      <trkpt lat="41.84227" lon="9.19337">
        <ele>1863.23</ele>
        <time>2019-09-09T12:22:33Z</time>
      </trkpt>
      <trkpt lat="41.84229" lon="9.19342">
        <ele>1863.93</ele>
        <time>2019-09-09T12:22:26Z</time>
      </trkpt>
      <trkpt lat="41.8424" lon="9.19348">
        <ele>1865.9</ele>
        <time>2019-09-09T12:22:10Z</time>
      </trkpt>
      <trkpt lat="41.84252" lon="9.19361">
        <ele>1867.47</ele>
        <time>2019-09-09T12:21:53Z</time>
      </trkpt>
      <trkpt lat="41.84256" lon="9.19363">
        <ele>1867.59</ele>
        <time>2019-09-09T12:21:48Z</time>
      </trkpt>
      <trkpt lat="41.84261" lon="9.19363">
        <ele>1867.31</ele>
        <time>2019-09-09T12:21:43Z</time>
      </trkpt>
      <trkpt lat="41.84264" lon="9.19366">
        <ele>1867.57</ele>
        <time>2019-09-09T12:21:39Z</time>
      </trkpt>
      <trkpt lat="41.84273" lon="9.19377">
        <ele>1868.99</ele>
        <time>2019-09-09T12:21:26Z</time>
      </trkpt>
      <trkpt lat="41.84291" lon="9.19385">
        <ele>1869.17</ele>
        <time>2019-09-09T12:21:08Z</time>
      </trkpt>
      <trkpt lat="41.84296" lon="9.19387">
        <ele>1869.22</ele>
        <time>2019-09-09T12:21:03Z</time>
      </trkpt>
      <trkpt lat="41.84312" lon="9.19395">
        <ele>1870.2</ele>
        <time>2019-09-09T12:20:47Z</time>
      </trkpt>
      <trkpt lat="41.84316" lon="9.19399">
        <ele>1871.08</ele>
        <time>2019-09-09T12:20:41Z</time>
      </trkpt>
      <trkpt lat="41.84333" lon="9.19405">
        <ele>1873.53</ele>
        <time>2019-09-09T12:20:23Z</time>
      </trkpt>
      <trkpt lat="41.84344" lon="9.19422">
        <ele>1874.58</ele>
        <time>2019-09-09T12:20:07Z</time>
      </trkpt>
      <trkpt lat="41.84347" lon="9.19428">
        <ele>1876.34</ele>
        <time>2019-09-09T12:19:59Z</time>
      </trkpt>
      <trkpt lat="41.84354" lon="9.1944">
        <ele>1878.07</ele>
        <time>2019-09-09T12:19:44Z</time>
      </trkpt>
      <trkpt lat="41.84356" lon="9.19441">
        <ele>1878.47</ele>
        <time>2019-09-09T12:19:41Z</time>
      </trkpt>
      <trkpt lat="41.84366" lon="9.19447">
        <ele>1880.68</ele>
        <time>2019-09-09T12:19:27Z</time>
      </trkpt>
      <trkpt lat="41.84365" lon="9.19463">
        <ele>1883.11</ele>
        <time>2019-09-09T12:19:11Z</time>
      </trkpt>
      <trkpt lat="41.84364" lon="9.1948">
        <ele>1885.32</ele>
        <time>2019-09-09T12:18:56Z</time>
      </trkpt>
      <trkpt lat="41.84366" lon="9.19486">
        <ele>1886.42</ele>
        <time>2019-09-09T12:18:49Z</time>
      </trkpt>
      <trkpt lat="41.84371" lon="9.19496">
        <ele>1888.37</ele>
        <time>2019-09-09T12:18:36Z</time>
      </trkpt>
      <trkpt lat="41.84386" lon="9.19509">
        <ele>1889.89</ele>
        <time>2019-09-09T12:18:17Z</time>
      </trkpt>
      <trkpt lat="41.844" lon="9.19534">
        <ele>1891.77</ele>
        <time>2019-09-09T12:17:55Z</time>
      </trkpt>
      <trkpt lat="41.84405" lon="9.19544">
        <ele>1892.34</ele>
        <time>2019-09-09T12:17:45Z</time>
      </trkpt>
      <trkpt lat="41.84413" lon="9.19561">
        <ele>1894.57</ele>
        <time>2019-09-09T12:17:28Z</time>
      </trkpt>
      <trkpt lat="41.84415" lon="9.19567">
        <ele>1894.85</ele>
        <time>2019-09-09T12:17:24Z</time>
      </trkpt>
      <trkpt lat="41.84428" lon="9.19586">
        <ele>1895.54</ele>
        <time>2019-09-09T12:17:06Z</time>
      </trkpt>
      <trkpt lat="41.84434" lon="9.19609">
        <ele>1896.36</ele>
        <time>2019-09-09T12:16:48Z</time>
      </trkpt>
      <trkpt lat="41.84435" lon="9.19612">
        <ele>1896.68</ele>
        <time>2019-09-09T12:16:46Z</time>
      </trkpt>
      <trkpt lat="41.84441" lon="9.19633">
        <ele>1898.5</ele>
        <time>2019-09-09T12:16:28Z</time>
      </trkpt>
      <trkpt lat="41.84441" lon="9.19652">
        <ele>1900.72</ele>
        <time>2019-09-09T12:16:11Z</time>
      </trkpt>
      <trkpt lat="41.84439" lon="9.19656">
        <ele>1901.32</ele>
        <time>2019-09-09T12:16:07Z</time>
      </trkpt>
      <trkpt lat="41.84439" lon="9.19664">
        <ele>1902.72</ele>
        <time>2019-09-09T12:15:59Z</time>
      </trkpt>
      <trkpt lat="41.84432" lon="9.19683">
        <ele>1904.87</ele>
        <time>2019-09-09T12:15:43Z</time>
      </trkpt>
      <trkpt lat="41.8443" lon="9.19692">
        <ele>1904.93</ele>
        <time>2019-09-09T12:15:33Z</time>
      </trkpt>
      <trkpt lat="41.84428" lon="9.19702">
        <ele>1907.23</ele>
        <time>2019-09-09T12:15:19Z</time>
      </trkpt>
      <trkpt lat="41.84425" lon="9.1971">
        <ele>1909.61</ele>
        <time>2019-09-09T12:15:06Z</time>
      </trkpt>
      <trkpt lat="41.84417" lon="9.19713">
        <ele>1912.66</ele>
        <time>2019-09-09T12:14:49Z</time>
      </trkpt>
      <trkpt lat="41.8442" lon="9.19726">
        <ele>1915.37</ele>
        <time>2019-09-09T12:14:34Z</time>
      </trkpt>
      <trkpt lat="41.84417" lon="9.19728">
        <ele>1916.51</ele>
        <time>2019-09-09T12:14:27Z</time>
      </trkpt>
      <trkpt lat="41.84414" lon="9.19739">
        <ele>1919.27</ele>
        <time>2019-09-09T12:14:12Z</time>
      </trkpt>
      <trkpt lat="41.84413" lon="9.19743">
        <ele>1919.92</ele>
        <time>2019-09-09T12:14:07Z</time>
      </trkpt>
      <trkpt lat="41.84408" lon="9.19752">
        <ele>1923.15</ele>
        <time>2019-09-09T12:13:51Z</time>
      </trkpt>
      <trkpt lat="41.84411" lon="9.19767">
        <ele>1926.02</ele>
        <time>2019-09-09T12:13:34Z</time>
      </trkpt>
      <trkpt lat="41.84408" lon="9.19775">
        <ele>1928.86</ele>
        <time>2019-09-09T12:13:19Z</time>
      </trkpt>
      <trkpt lat="41.84406" lon="9.19783">
        <ele>1931.15</ele>
        <time>2019-09-09T12:13:05Z</time>
      </trkpt>
      <trkpt lat="41.84406" lon="9.19797">
        <ele>1933.2</ele>
        <time>2019-09-09T12:12:49Z</time>
      </trkpt>
      <trkpt lat="41.8441" lon="9.1981">
        <ele>1934.24</ele>
        <time>2019-09-09T12:12:36Z</time>
      </trkpt>
      <trkpt lat="41.84415" lon="9.19817">
        <ele>1935.43</ele>
        <time>2019-09-09T12:12:20Z</time>
      </trkpt>
      <trkpt lat="41.84424" lon="9.19833">
        <ele>1937.38</ele>
        <time>2019-09-09T12:11:59Z</time>
      </trkpt>
      <trkpt lat="41.84431" lon="9.1984">
        <ele>1937.72</ele>
        <time>2019-09-09T12:11:51Z</time>
      </trkpt>
      <trkpt lat="41.84433" lon="9.19844">
        <ele>1937.93</ele>
        <time>2019-09-09T12:11:47Z</time>
      </trkpt>
      <trkpt lat="41.84435" lon="9.19857">
        <ele>1940.27</ele>
        <time>2019-09-09T12:11:32Z</time>
      </trkpt>
      <trkpt lat="41.84439" lon="9.19862">
        <ele>1941.73</ele>
        <time>2019-09-09T12:11:17Z</time>
      </trkpt>
      <trkpt lat="41.84445" lon="9.19868">
        <ele>1942.32</ele>
        <time>2019-09-09T12:10:49Z</time>
      </trkpt>
      <trkpt lat="41.84445" lon="9.19869">
        <ele>1942.97</ele>
        <time>2019-09-09T12:10:24Z</time>
      </trkpt>
      <trkpt lat="41.84444" lon="9.1987">
        <ele>1942.94</ele>
        <time>2019-09-09T12:09:52Z</time>
      </trkpt>
      <trkpt lat="41.84447" lon="9.19879">
        <ele>1944.09</ele>
        <time>2019-09-09T12:09:36Z</time>
      </trkpt>
      <trkpt lat="41.84446" lon="9.19884">
        <ele>1944.7</ele>
        <time>2019-09-09T12:09:17Z</time>
      </trkpt>
      <trkpt lat="41.8445" lon="9.19892">
        <ele>1945.87</ele>
        <time>2019-09-09T12:09:02Z</time>
      </trkpt>
      <trkpt lat="41.84449" lon="9.19903">
        <ele>1948.53</ele>
        <time>2019-09-09T12:08:48Z</time>
      </trkpt>
      <trkpt lat="41.84445" lon="9.1991">
        <ele>1951.02</ele>
        <time>2019-09-09T12:08:33Z</time>
      </trkpt>
      <trkpt lat="41.84446" lon="9.19919">
        <ele>1953.4</ele>
        <time>2019-09-09T12:08:18Z</time>
      </trkpt>
      <trkpt lat="41.84449" lon="9.1993">
        <ele>1956.04</ele>
        <time>2019-09-09T12:08:03Z</time>
      </trkpt>
      <trkpt lat="41.84446" lon="9.19936">
        <ele>1957.92</ele>
        <time>2019-09-09T12:07:48Z</time>
      </trkpt>
      <trkpt lat="41.84448" lon="9.19946">
        <ele>1960.61</ele>
        <time>2019-09-09T12:07:33Z</time>
      </trkpt>
      <trkpt lat="41.84447" lon="9.19952">
        <ele>1962.43</ele>
        <time>2019-09-09T12:07:20Z</time>
      </trkpt>
      <trkpt lat="41.84452" lon="9.19964">
        <ele>1963.67</ele>
        <time>2019-09-09T12:07:04Z</time>
      </trkpt>
      <trkpt lat="41.84458" lon="9.19974">
        <ele>1964.25</ele>
        <time>2019-09-09T12:06:50Z</time>
      </trkpt>
      <trkpt lat="41.84459" lon="9.19976">
        <ele>1964.55</ele>
        <time>2019-09-09T12:06:48Z</time>
      </trkpt>
      <trkpt lat="41.84461" lon="9.19985">
        <ele>1967.13</ele>
        <time>2019-09-09T12:06:32Z</time>
      </trkpt>
      <trkpt lat="41.84463" lon="9.19995">
        <ele>1969.18</ele>
        <time>2019-09-09T12:06:15Z</time>
      </trkpt>
      <trkpt lat="41.84467" lon="9.20004">
        <ele>1971.12</ele>
        <time>2019-09-09T12:06:01Z</time>
      </trkpt>
      <trkpt lat="41.84463" lon="9.20007">
        <ele>1973.07</ele>
        <time>2019-09-09T12:05:50Z</time>
      </trkpt>
      <trkpt lat="41.84465" lon="9.20015">
        <ele>1974.55</ele>
        <time>2019-09-09T12:05:38Z</time>
      </trkpt>
      <trkpt lat="41.84464" lon="9.2002">
        <ele>1977.29</ele>
        <time>2019-09-09T12:05:25Z</time>
      </trkpt>
      <trkpt lat="41.84462" lon="9.20026">
        <ele>1978.49</ele>
        <time>2019-09-09T12:05:14Z</time>
      </trkpt>
      <trkpt lat="41.84459" lon="9.20032">
        <ele>1980.59</ele>
        <time>2019-09-09T12:05:05Z</time>
      </trkpt>
      <trkpt lat="41.84462" lon="9.2004">
        <ele>1982.7</ele>
        <time>2019-09-09T12:04:49Z</time>
      </trkpt>
      <trkpt lat="41.84466" lon="9.2005">
        <ele>1984.31</ele>
        <time>2019-09-09T12:04:36Z</time>
      </trkpt>
      <trkpt lat="41.84466" lon="9.20059">
        <ele>1986.89</ele>
        <time>2019-09-09T12:04:23Z</time>
      </trkpt>
      <trkpt lat="41.84465" lon="9.20066">
        <ele>1988.62</ele>
        <time>2019-09-09T12:04:11Z</time>
      </trkpt>
      <trkpt lat="41.8447" lon="9.20081">
        <ele>1990.84</ele>
        <time>2019-09-09T12:03:56Z</time>
      </trkpt>
      <trkpt lat="41.8447" lon="9.20095">
        <ele>1994.32</ele>
        <time>2019-09-09T12:03:42Z</time>
      </trkpt>
      <trkpt lat="41.84468" lon="9.20101">
        <ele>1996.7</ele>
        <time>2019-09-09T12:03:29Z</time>
      </trkpt>
      <trkpt lat="41.84469" lon="9.2011">
        <ele>1999.33</ele>
        <time>2019-09-09T12:03:14Z</time>
      </trkpt>
      <trkpt lat="41.84472" lon="9.20123">
        <ele>2000.98</ele>
        <time>2019-09-09T12:02:59Z</time>
      </trkpt>
      <trkpt lat="41.8448" lon="9.20138">
        <ele>2002.05</ele>
        <time>2019-09-09T12:02:45Z</time>
      </trkpt>
      <trkpt lat="41.84481" lon="9.20139">
        <ele>2002.06</ele>
        <time>2019-09-09T12:02:43Z</time>
      </trkpt>
      <trkpt lat="41.84484" lon="9.20147">
        <ele>2003.3</ele>
        <time>2019-09-09T12:02:31Z</time>
      </trkpt>
      <trkpt lat="41.8449" lon="9.20163">
        <ele>2004.47</ele>
        <time>2019-09-09T12:02:14Z</time>
      </trkpt>
      <trkpt lat="41.84495" lon="9.20173">
        <ele>2005.67</ele>
        <time>2019-09-09T12:02:03Z</time>
      </trkpt>
      <trkpt lat="41.84499" lon="9.20178">
        <ele>2006.61</ele>
        <time>2019-09-09T12:01:55Z</time>
      </trkpt>
      <trkpt lat="41.84502" lon="9.20193">
        <ele>2008.15</ele>
        <time>2019-09-09T12:01:40Z</time>
      </trkpt>
      <trkpt lat="41.84504" lon="9.2021">
        <ele>2010.37</ele>
        <time>2019-09-09T12:01:25Z</time>
      </trkpt>
      <trkpt lat="41.84508" lon="9.20222">
        <ele>2010.95</ele>
        <time>2019-09-09T12:01:12Z</time>
      </trkpt>
      <trkpt lat="41.84512" lon="9.20233">
        <ele>2011.76</ele>
        <time>2019-09-09T12:01:00Z</time>
      </trkpt>
      <trkpt lat="41.84518" lon="9.20245">
        <ele>2011.67</ele>
        <time>2019-09-09T12:00:50Z</time>
      </trkpt>
      <trkpt lat="41.84525" lon="9.20252">
        <ele>2010.99</ele>
        <time>2019-09-09T12:00:39Z</time>
      </trkpt>
      <trkpt lat="41.84531" lon="9.20259">
        <ele>2009.75</ele>
        <time>2019-09-09T12:00:26Z</time>
      </trkpt>
      <trkpt lat="41.84542" lon="9.20269">
        <ele>2009.57</ele>
        <time>2019-09-09T12:00:09Z</time>
      </trkpt>
      <trkpt lat="41.84555" lon="9.20282">
        <ele>2010.75</ele>
        <time>2019-09-09T11:59:53Z</time>
      </trkpt>
      <trkpt lat="41.84568" lon="9.20294">
        <ele>2011.76</ele>
        <time>2019-09-09T11:59:37Z</time>
      </trkpt>
      <trkpt lat="41.84573" lon="9.20301">
        <ele>2013.14</ele>
        <time>2019-09-09T11:59:26Z</time>
      </trkpt>
      <trkpt lat="41.84589" lon="9.20312">
        <ele>2014.33</ele>
        <time>2019-09-09T11:59:08Z</time>
      </trkpt>
      <trkpt lat="41.84589" lon="9.20314">
        <ele>2014.67</ele>
        <time>2019-09-09T11:59:06Z</time>
      </trkpt>
      <trkpt lat="41.84598" lon="9.20323">
        <ele>2015.69</ele>
        <time>2019-09-09T11:58:53Z</time>
      </trkpt>
      <trkpt lat="41.84604" lon="9.20336">
        <ele>2019.27</ele>
        <time>2019-09-09T11:58:34Z</time>
      </trkpt>
      <trkpt lat="41.84608" lon="9.20347">
        <ele>2022.27</ele>
        <time>2019-09-09T11:58:20Z</time>
      </trkpt>
      <trkpt lat="41.84603" lon="9.20354">
        <ele>2025.59</ele>
        <time>2019-09-09T11:58:04Z</time>
      </trkpt>
      <trkpt lat="41.84601" lon="9.20361">
        <ele>2026.96</ele>
        <time>2019-09-09T11:57:47Z</time>
      </trkpt>
      <trkpt lat="41.84601" lon="9.20362">
        <ele>2026.85</ele>
        <time>2019-09-09T11:57:25Z</time>
      </trkpt>
      <trkpt lat="41.846" lon="9.20361">
        <ele>2026.56</ele>
        <time>2019-09-09T11:56:54Z</time>
      </trkpt>
      <trkpt lat="41.84598" lon="9.20357">
        <ele>2026.63</ele>
        <time>2019-09-09T11:56:39Z</time>
      </trkpt>
      <trkpt lat="41.84602" lon="9.2036">
        <ele>2026.07</ele>
        <time>2019-09-09T11:56:27Z</time>
      </trkpt>
      <trkpt lat="41.84603" lon="9.20363">
        <ele>2026.38</ele>
        <time>2019-09-09T11:56:14Z</time>
      </trkpt>
      <trkpt lat="41.84604" lon="9.20364">
        <ele>2026.29</ele>
        <time>2019-09-09T11:55:52Z</time>
      </trkpt>
      <trkpt lat="41.84603" lon="9.20366">
        <ele>2025.71</ele>
        <time>2019-09-09T11:55:34Z</time>
      </trkpt>
      <trkpt lat="41.84597" lon="9.20372">
        <ele>2023.89</ele>
        <time>2019-09-09T11:55:15Z</time>
      </trkpt>
      <trkpt lat="41.84591" lon="9.20371">
        <ele>2022.37</ele>
        <time>2019-09-09T11:55:00Z</time>
      </trkpt>
      <trkpt lat="41.84592" lon="9.20376">
        <ele>2023.16</ele>
        <time>2019-09-09T11:54:39Z</time>
      </trkpt>
      <trkpt lat="41.84591" lon="9.20377">
        <ele>2023.24</ele>
        <time>2019-09-09T11:54:14Z</time>
      </trkpt>
      <trkpt lat="41.84591" lon="9.20377">
        <ele>2022.12</ele>
        <time>2019-09-09T11:53:33Z</time>
      </trkpt>
      <trkpt lat="41.84591" lon="9.20375">
        <ele>2021.79</ele>
        <time>2019-09-09T11:52:56Z</time>
      </trkpt>
      <trkpt lat="41.84591" lon="9.20375">
        <ele>2021.6</ele>
        <time>2019-09-09T11:52:36Z</time>
      </trkpt>
      <trkpt lat="41.84592" lon="9.20374">
        <ele>2021.18</ele>
        <time>2019-09-09T11:52:15Z</time>
      </trkpt>
      <trkpt lat="41.84592" lon="9.20375">
        <ele>2021.21</ele>
        <time>2019-09-09T11:51:42Z</time>
      </trkpt>
      <trkpt lat="41.84592" lon="9.20376">
        <ele>2021.04</ele>
        <time>2019-09-09T11:51:16Z</time>
      </trkpt>
      <trkpt lat="41.84592" lon="9.20376">
        <ele>2021.16</ele>
        <time>2019-09-09T11:50:39Z</time>
      </trkpt>
      <trkpt lat="41.84592" lon="9.20376">
        <ele>2020.6</ele>
        <time>2019-09-09T11:49:36Z</time>
      </trkpt>
      <trkpt lat="41.84592" lon="9.20376">
        <ele>2020.1</ele>
        <time>2019-09-09T11:48:48Z</time>
      </trkpt>
      <trkpt lat="41.84593" lon="9.20376">
        <ele>2018.64</ele>
        <time>2019-09-09T11:48:16Z</time>
      </trkpt>
      <trkpt lat="41.84593" lon="9.20375">
        <ele>2018.05</ele>
        <time>2019-09-09T11:47:22Z</time>
      </trkpt>
      <trkpt lat="41.84593" lon="9.20376">
        <ele>2019.19</ele>
        <time>2019-09-09T11:46:31Z</time>
      </trkpt>
      <trkpt lat="41.84593" lon="9.20376">
        <ele>2019.84</ele>
        <time>2019-09-09T11:45:36Z</time>
      </trkpt>
      <trkpt lat="41.84593" lon="9.20376">
        <ele>2020.62</ele>
        <time>2019-09-09T11:44:35Z</time>
      </trkpt>
      <trkpt lat="41.84592" lon="9.20376">
        <ele>2021.42</ele>
        <time>2019-09-09T11:43:45Z</time>
      </trkpt>
      <trkpt lat="41.84592" lon="9.20376">
        <ele>2022.68</ele>
        <time>2019-09-09T11:42:45Z</time>
      </trkpt>
      <trkpt lat="41.84592" lon="9.20377">
        <ele>2023.92</ele>
        <time>2019-09-09T11:41:35Z</time>
      </trkpt>
      <trkpt lat="41.84591" lon="9.20377">
        <ele>2024.51</ele>
        <time>2019-09-09T11:40:46Z</time>
      </trkpt>
      <trkpt lat="41.84591" lon="9.20377">
        <ele>2024.68</ele>
        <time>2019-09-09T11:40:02Z</time>
      </trkpt>
      <trkpt lat="41.84591" lon="9.20377">
        <ele>2024.38</ele>
        <time>2019-09-09T11:39:13Z</time>
      </trkpt>
      <trkpt lat="41.84592" lon="9.20377">
        <ele>2023.64</ele>
        <time>2019-09-09T11:38:22Z</time>
      </trkpt>
      <trkpt lat="41.84592" lon="9.20376">
        <ele>2023.55</ele>
        <time>2019-09-09T11:37:10Z</time>
      </trkpt>
      <trkpt lat="41.84592" lon="9.20377">
        <ele>2024.22</ele>
        <time>2019-09-09T11:36:11Z</time>
      </trkpt>
      <trkpt lat="41.84592" lon="9.20377">
        <ele>2023.88</ele>
        <time>2019-09-09T11:35:09Z</time>
      </trkpt>
      <trkpt lat="41.84592" lon="9.20376">
        <ele>2023.63</ele>
        <time>2019-09-09T11:34:22Z</time>
      </trkpt>
      <trkpt lat="41.84592" lon="9.20376">
        <ele>2023.33</ele>
        <time>2019-09-09T11:33:24Z</time>
      </trkpt>
      <trkpt lat="41.84592" lon="9.20376">
        <ele>2023.37</ele>
        <time>2019-09-09T11:32:18Z</time>
      </trkpt>
      <trkpt lat="41.84592" lon="9.20376">
        <ele>2023.59</ele>
        <time>2019-09-09T11:31:18Z</time>
      </trkpt>
      <trkpt lat="41.84592" lon="9.20376">
        <ele>2023.73</ele>
        <time>2019-09-09T11:30:27Z</time>
      </trkpt>
      <trkpt lat="41.84592" lon="9.20375">
        <ele>2023.68</ele>
        <time>2019-09-09T11:29:47Z</time>
      </trkpt>
      <trkpt lat="41.84592" lon="9.20375">
        <ele>2022.33</ele>
        <time>2019-09-09T11:29:12Z</time>
      </trkpt>
      <trkpt lat="41.84591" lon="9.20375">
        <ele>2021.11</ele>
        <time>2019-09-09T11:28:32Z</time>
      </trkpt>
      <trkpt lat="41.8459" lon="9.20372">
        <ele>2017.79</ele>
        <time>2019-09-09T11:28:01Z</time>
      </trkpt>
      <trkpt lat="41.84591" lon="9.20373">
        <ele>2018.43</ele>
        <time>2019-09-09T11:27:21Z</time>
      </trkpt>
      <trkpt lat="41.84592" lon="9.20374">
        <ele>2018.7</ele>
        <time>2019-09-09T11:26:50Z</time>
      </trkpt>
      <trkpt lat="41.8459" lon="9.20375">
        <ele>2018.54</ele>
        <time>2019-09-09T11:26:18Z</time>
      </trkpt>
      <trkpt lat="41.84593" lon="9.20375">
        <ele>2017.86</ele>
        <time>2019-09-09T11:25:46Z</time>
      </trkpt>
      <trkpt lat="41.84592" lon="9.20375">
        <ele>2016.99</ele>
        <time>2019-09-09T11:25:14Z</time>
      </trkpt>
      <trkpt lat="41.84592" lon="9.20373">
        <ele>2016.08</ele>
        <time>2019-09-09T11:24:38Z</time>
      </trkpt>
      <trkpt lat="41.8459" lon="9.20373">
        <ele>2015.69</ele>
        <time>2019-09-09T11:24:03Z</time>
      </trkpt>
      <trkpt lat="41.84591" lon="9.20372">
        <ele>2015.45</ele>
        <time>2019-09-09T11:23:30Z</time>
      </trkpt>
      <trkpt lat="41.84588" lon="9.20371">
        <ele>2015.27</ele>
        <time>2019-09-09T11:22:56Z</time>
      </trkpt>
      <trkpt lat="41.84589" lon="9.20372">
        <ele>2015.49</ele>
        <time>2019-09-09T11:22:25Z</time>
      </trkpt>
      <trkpt lat="41.84588" lon="9.20372">
        <ele>2015.97</ele>
        <time>2019-09-09T11:21:55Z</time>
      </trkpt>
      <trkpt lat="41.84589" lon="9.20372">
        <ele>2016.18</ele>
        <time>2019-09-09T11:21:24Z</time>
      </trkpt>
      <trkpt lat="41.84589" lon="9.20371">
        <ele>2016.45</ele>
        <time>2019-09-09T11:20:49Z</time>
      </trkpt>
      <trkpt lat="41.84589" lon="9.20372">
        <ele>2016.61</ele>
        <time>2019-09-09T11:20:17Z</time>
      </trkpt>
      <trkpt lat="41.84589" lon="9.20371">
        <ele>2017.02</ele>
        <time>2019-09-09T11:19:43Z</time>
      </trkpt>
      <trkpt lat="41.8459" lon="9.20373">
        <ele>2017.28</ele>
        <time>2019-09-09T11:19:09Z</time>
      </trkpt>
      <trkpt lat="41.84589" lon="9.20373">
        <ele>2017.52</ele>
        <time>2019-09-09T11:18:38Z</time>
      </trkpt>
      <trkpt lat="41.8459" lon="9.20374">
        <ele>2017.68</ele>
        <time>2019-09-09T11:18:04Z</time>
      </trkpt>
      <trkpt lat="41.8459" lon="9.20373">
        <ele>2017.76</ele>
        <time>2019-09-09T11:17:32Z</time>
      </trkpt>
      <trkpt lat="41.8459" lon="9.20374">
        <ele>2018.07</ele>
        <time>2019-09-09T11:16:58Z</time>
      </trkpt>
      <trkpt lat="41.8459" lon="9.20375">
        <ele>2018.56</ele>
        <time>2019-09-09T11:16:23Z</time>
      </trkpt>
      <trkpt lat="41.84589" lon="9.20374">
        <ele>2019.33</ele>
        <time>2019-09-09T11:15:51Z</time>
      </trkpt>
      <trkpt lat="41.8459" lon="9.20375">
        <ele>2020.38</ele>
        <time>2019-09-09T11:15:16Z</time>
      </trkpt>
      <trkpt lat="41.8459" lon="9.20374">
        <ele>2021.56</ele>
        <time>2019-09-09T11:14:43Z</time>
      </trkpt>
      <trkpt lat="41.8459" lon="9.20375">
        <ele>2021.44</ele>
        <time>2019-09-09T11:14:10Z</time>
      </trkpt>
      <trkpt lat="41.84589" lon="9.20376">
        <ele>2021.24</ele>
        <time>2019-09-09T11:13:36Z</time>
      </trkpt>
      <trkpt lat="41.8459" lon="9.20374">
        <ele>2020.99</ele>
        <time>2019-09-09T11:13:03Z</time>
      </trkpt>
      <trkpt lat="41.84592" lon="9.20373">
        <ele>2021.22</ele>
        <time>2019-09-09T11:12:33Z</time>
      </trkpt>
      <trkpt lat="41.84592" lon="9.20372">
        <ele>2021.29</ele>
        <time>2019-09-09T11:12:07Z</time>
      </trkpt>
      <trkpt lat="41.84592" lon="9.20373">
        <ele>2022.01</ele>
        <time>2019-09-09T11:11:48Z</time>
      </trkpt>
      <trkpt lat="41.84591" lon="9.20374">
        <ele>2022</ele>
        <time>2019-09-09T11:11:32Z</time>
      </trkpt>
      <trkpt lat="41.84591" lon="9.20376">
        <ele>2021.53</ele>
        <time>2019-09-09T11:11:19Z</time>
      </trkpt>
      <trkpt lat="41.84597" lon="9.20379">
        <ele>2020.37</ele>
        <time>2019-09-09T11:11:05Z</time>
      </trkpt>
      <trkpt lat="41.84602" lon="9.20384">
        <ele>2018.75</ele>
        <time>2019-09-09T11:10:50Z</time>
      </trkpt>
      <trkpt lat="41.84607" lon="9.2039">
        <ele>2017.21</ele>
        <time>2019-09-09T11:10:35Z</time>
      </trkpt>
      <trkpt lat="41.84615" lon="9.20402">
        <ele>2019.14</ele>
        <time>2019-09-09T11:10:17Z</time>
      </trkpt>
      <trkpt lat="41.84622" lon="9.2041">
        <ele>2019.13</ele>
        <time>2019-09-09T11:10:01Z</time>
      </trkpt>
      <trkpt lat="41.84625" lon="9.20414">
        <ele>2017.95</ele>
        <time>2019-09-09T11:09:47Z</time>
      </trkpt>
      <trkpt lat="41.84625" lon="9.2042">
        <ele>2016.51</ele>
        <time>2019-09-09T11:09:32Z</time>
      </trkpt>
      <trkpt lat="41.84624" lon="9.20423">
        <ele>2015.1</ele>
        <time>2019-09-09T11:09:18Z</time>
      </trkpt>
      <trkpt lat="41.84622" lon="9.20424">
        <ele>2013.98</ele>
        <time>2019-09-09T11:09:03Z</time>
      </trkpt>
      <trkpt lat="41.84624" lon="9.20429">
        <ele>2011.26</ele>
        <time>2019-09-09T11:08:48Z</time>
      </trkpt>
      <trkpt lat="41.84624" lon="9.20432">
        <ele>2009.63</ele>
        <time>2019-09-09T11:08:31Z</time>
      </trkpt>
      <trkpt lat="41.84626" lon="9.20435">
        <ele>2007.7</ele>
        <time>2019-09-09T11:08:17Z</time>
      </trkpt>
      <trkpt lat="41.84625" lon="9.20437">
        <ele>2006.47</ele>
        <time>2019-09-09T11:08:04Z</time>
      </trkpt>
      <trkpt lat="41.84622" lon="9.20437">
        <ele>2005.52</ele>
        <time>2019-09-09T11:07:51Z</time>
      </trkpt>
      <trkpt lat="41.8462" lon="9.20437">
        <ele>2004.68</ele>
        <time>2019-09-09T11:07:40Z</time>
      </trkpt>
      <trkpt lat="41.84618" lon="9.20439">
        <ele>2003.9</ele>
        <time>2019-09-09T11:07:26Z</time>
      </trkpt>
      <trkpt lat="41.84617" lon="9.20441">
        <ele>2002.89</ele>
        <time>2019-09-09T11:07:13Z</time>
      </trkpt>
      <trkpt lat="41.8462" lon="9.20445">
        <ele>2001.31</ele>
        <time>2019-09-09T11:07:00Z</time>
      </trkpt>
      <trkpt lat="41.84623" lon="9.20454">
        <ele>1999.51</ele>
        <time>2019-09-09T11:06:44Z</time>
      </trkpt>
      <trkpt lat="41.84626" lon="9.20458">
        <ele>1998.68</ele>
        <time>2019-09-09T11:06:31Z</time>
      </trkpt>
      <trkpt lat="41.84625" lon="9.20462">
        <ele>1997.51</ele>
        <time>2019-09-09T11:06:17Z</time>
      </trkpt>
      <trkpt lat="41.84623" lon="9.20461">
        <ele>1996.46</ele>
        <time>2019-09-09T11:06:04Z</time>
      </trkpt>
      <trkpt lat="41.84621" lon="9.20463">
        <ele>1995.3</ele>
        <time>2019-09-09T11:05:50Z</time>
      </trkpt>
      <trkpt lat="41.8462" lon="9.20465">
        <ele>1995.59</ele>
        <time>2019-09-09T11:05:20Z</time>
      </trkpt>
      <trkpt lat="41.84621" lon="9.20465">
        <ele>1995.52</ele>
        <time>2019-09-09T11:05:00Z</time>
      </trkpt>
      <trkpt lat="41.84622" lon="9.20468">
        <ele>1994.34</ele>
        <time>2019-09-09T11:04:47Z</time>
      </trkpt>
      <trkpt lat="41.84621" lon="9.20473">
        <ele>1993.57</ele>
        <time>2019-09-09T11:04:33Z</time>
      </trkpt>
      <trkpt lat="41.84626" lon="9.20476">
        <ele>1992.87</ele>
        <time>2019-09-09T11:04:19Z</time>
      </trkpt>
      <trkpt lat="41.84627" lon="9.2048">
        <ele>1991.1</ele>
        <time>2019-09-09T11:04:04Z</time>
      </trkpt>
      <trkpt lat="41.84632" lon="9.20487">
        <ele>1987.6</ele>
        <time>2019-09-09T11:03:50Z</time>
      </trkpt>
      <trkpt lat="41.84637" lon="9.20491">
        <ele>1986.36</ele>
        <time>2019-09-09T11:03:36Z</time>
      </trkpt>
      <trkpt lat="41.84641" lon="9.20493">
        <ele>1988.04</ele>
        <time>2019-09-09T11:03:20Z</time>
      </trkpt>
      <trkpt lat="41.84642" lon="9.20494">
        <ele>1989.7</ele>
        <time>2019-09-09T11:03:05Z</time>
      </trkpt>
      <trkpt lat="41.84646" lon="9.20498">
        <ele>1991.12</ele>
        <time>2019-09-09T11:02:52Z</time>
      </trkpt>
      <trkpt lat="41.84647" lon="9.20506">
        <ele>1991.25</ele>
        <time>2019-09-09T11:02:38Z</time>
      </trkpt>
      <trkpt lat="41.84653" lon="9.20513">
        <ele>1989.25</ele>
        <time>2019-09-09T11:02:20Z</time>
      </trkpt>
      <trkpt lat="41.84658" lon="9.20519">
        <ele>1988.06</ele>
        <time>2019-09-09T11:02:06Z</time>
      </trkpt>
      <trkpt lat="41.84661" lon="9.20521">
        <ele>1989.03</ele>
        <time>2019-09-09T11:01:51Z</time>
      </trkpt>
      <trkpt lat="41.84662" lon="9.20524">
        <ele>1988.85</ele>
        <time>2019-09-09T11:01:35Z</time>
      </trkpt>
      <trkpt lat="41.84661" lon="9.20525">
        <ele>1988.23</ele>
        <time>2019-09-09T11:01:18Z</time>
      </trkpt>
      <trkpt lat="41.84664" lon="9.20527">
        <ele>1989.39</ele>
        <time>2019-09-09T11:01:04Z</time>
      </trkpt>
      <trkpt lat="41.84664" lon="9.20529">
        <ele>1988.87</ele>
        <time>2019-09-09T11:00:45Z</time>
      </trkpt>
      <trkpt lat="41.84665" lon="9.20532">
        <ele>1989.07</ele>
        <time>2019-09-09T11:00:29Z</time>
      </trkpt>
      <trkpt lat="41.84667" lon="9.20538">
        <ele>1988.53</ele>
        <time>2019-09-09T11:00:16Z</time>
      </trkpt>
      <trkpt lat="41.8467" lon="9.20543">
        <ele>1988.4</ele>
        <time>2019-09-09T11:00:02Z</time>
      </trkpt>
      <trkpt lat="41.84673" lon="9.20545">
        <ele>1989.71</ele>
        <time>2019-09-09T10:59:46Z</time>
      </trkpt>
      <trkpt lat="41.84675" lon="9.20548">
        <ele>1990.16</ele>
        <time>2019-09-09T10:59:28Z</time>
      </trkpt>
      <trkpt lat="41.84679" lon="9.20555">
        <ele>1990.08</ele>
        <time>2019-09-09T10:59:15Z</time>
      </trkpt>
      <trkpt lat="41.84682" lon="9.20561">
        <ele>1989.19</ele>
        <time>2019-09-09T10:59:01Z</time>
      </trkpt>
      <trkpt lat="41.84681" lon="9.20566">
        <ele>1987.71</ele>
        <time>2019-09-09T10:58:46Z</time>
      </trkpt>
      <trkpt lat="41.84685" lon="9.20577">
        <ele>1987.72</ele>
        <time>2019-09-09T10:58:30Z</time>
      </trkpt>
      <trkpt lat="41.84688" lon="9.20583">
        <ele>1988.34</ele>
        <time>2019-09-09T10:58:13Z</time>
      </trkpt>
      <trkpt lat="41.84688" lon="9.20589">
        <ele>1986.21</ele>
        <time>2019-09-09T10:57:58Z</time>
      </trkpt>
      <trkpt lat="41.84688" lon="9.20594">
        <ele>1983.6</ele>
        <time>2019-09-09T10:57:45Z</time>
      </trkpt>
      <trkpt lat="41.84693" lon="9.20599">
        <ele>1980.48</ele>
        <time>2019-09-09T10:57:30Z</time>
      </trkpt>
      <trkpt lat="41.84691" lon="9.20601">
        <ele>1977.88</ele>
        <time>2019-09-09T10:57:16Z</time>
      </trkpt>
      <trkpt lat="41.84691" lon="9.20604">
        <ele>1975.19</ele>
        <time>2019-09-09T10:57:02Z</time>
      </trkpt>
      <trkpt lat="41.84694" lon="9.20604">
        <ele>1973.06</ele>
        <time>2019-09-09T10:56:49Z</time>
      </trkpt>
      <trkpt lat="41.84696" lon="9.20608">
        <ele>1972.24</ele>
        <time>2019-09-09T10:56:31Z</time>
      </trkpt>
      <trkpt lat="41.84702" lon="9.20613">
        <ele>1971.27</ele>
        <time>2019-09-09T10:56:16Z</time>
      </trkpt>
      <trkpt lat="41.84705" lon="9.20617">
        <ele>1969.25</ele>
        <time>2019-09-09T10:56:01Z</time>
      </trkpt>
      <trkpt lat="41.84708" lon="9.20621">
        <ele>1967.62</ele>
        <time>2019-09-09T10:55:45Z</time>
      </trkpt>
      <trkpt lat="41.84708" lon="9.20626">
        <ele>1965.71</ele>
        <time>2019-09-09T10:55:28Z</time>
      </trkpt>
      <trkpt lat="41.84707" lon="9.20628">
        <ele>1963.82</ele>
        <time>2019-09-09T10:55:13Z</time>
      </trkpt>
      <trkpt lat="41.84711" lon="9.20636">
        <ele>1962.4</ele>
        <time>2019-09-09T10:54:55Z</time>
      </trkpt>
      <trkpt lat="41.84712" lon="9.20639">
        <ele>1961.17</ele>
        <time>2019-09-09T10:54:42Z</time>
      </trkpt>
      <trkpt lat="41.84714" lon="9.20642">
        <ele>1960.34</ele>
        <time>2019-09-09T10:54:29Z</time>
      </trkpt>
      <trkpt lat="41.84712" lon="9.20642">
        <ele>1958.47</ele>
        <time>2019-09-09T10:54:16Z</time>
      </trkpt>
      <trkpt lat="41.84713" lon="9.20645">
        <ele>1957.33</ele>
        <time>2019-09-09T10:54:01Z</time>
      </trkpt>
      <trkpt lat="41.84714" lon="9.20649">
        <ele>1956.42</ele>
        <time>2019-09-09T10:53:44Z</time>
      </trkpt>
      <trkpt lat="41.84724" lon="9.20662">
        <ele>1956.15</ele>
        <time>2019-09-09T10:53:27Z</time>
      </trkpt>
      <trkpt lat="41.84725" lon="9.20665">
        <ele>1955.91</ele>
        <time>2019-09-09T10:53:24Z</time>
      </trkpt>
      <trkpt lat="41.84727" lon="9.20674">
        <ele>1955.42</ele>
        <time>2019-09-09T10:53:09Z</time>
      </trkpt>
      <trkpt lat="41.84727" lon="9.20678">
        <ele>1954.02</ele>
        <time>2019-09-09T10:52:56Z</time>
      </trkpt>
      <trkpt lat="41.84729" lon="9.20686">
        <ele>1950.43</ele>
        <time>2019-09-09T10:52:40Z</time>
      </trkpt>
      <trkpt lat="41.84732" lon="9.20693">
        <ele>1947.02</ele>
        <time>2019-09-09T10:52:26Z</time>
      </trkpt>
      <trkpt lat="41.84733" lon="9.20703">
        <ele>1944.15</ele>
        <time>2019-09-09T10:52:09Z</time>
      </trkpt>
      <trkpt lat="41.84732" lon="9.2071">
        <ele>1941.51</ele>
        <time>2019-09-09T10:51:55Z</time>
      </trkpt>
      <trkpt lat="41.84734" lon="9.20717">
        <ele>1939.8</ele>
        <time>2019-09-09T10:51:40Z</time>
      </trkpt>
      <trkpt lat="41.84736" lon="9.20723">
        <ele>1939.49</ele>
        <time>2019-09-09T10:51:15Z</time>
      </trkpt>
      <trkpt lat="41.84736" lon="9.20725">
        <ele>1939.03</ele>
        <time>2019-09-09T10:50:56Z</time>
      </trkpt>
      <trkpt lat="41.84738" lon="9.20729">
        <ele>1935.19</ele>
        <time>2019-09-09T10:50:44Z</time>
      </trkpt>
      <trkpt lat="41.84738" lon="9.20734">
        <ele>1934.67</ele>
        <time>2019-09-09T10:50:29Z</time>
      </trkpt>
      <trkpt lat="41.84738" lon="9.2074">
        <ele>1934.06</ele>
        <time>2019-09-09T10:50:13Z</time>
      </trkpt>
      <trkpt lat="41.84736" lon="9.20743">
        <ele>1932.34</ele>
        <time>2019-09-09T10:50:03Z</time>
      </trkpt>
      <trkpt lat="41.84735" lon="9.20748">
        <ele>1931.16</ele>
        <time>2019-09-09T10:49:50Z</time>
      </trkpt>
      <trkpt lat="41.84732" lon="9.20749">
        <ele>1929.47</ele>
        <time>2019-09-09T10:49:35Z</time>
      </trkpt>
      <trkpt lat="41.84728" lon="9.20743">
        <ele>1928.06</ele>
        <time>2019-09-09T10:49:21Z</time>
      </trkpt>
      <trkpt lat="41.84724" lon="9.20739">
        <ele>1927.43</ele>
        <time>2019-09-09T10:49:06Z</time>
      </trkpt>
      <trkpt lat="41.84723" lon="9.20743">
        <ele>1926.26</ele>
        <time>2019-09-09T10:48:50Z</time>
      </trkpt>
      <trkpt lat="41.84722" lon="9.20747">
        <ele>1924.5</ele>
        <time>2019-09-09T10:48:36Z</time>
      </trkpt>
      <trkpt lat="41.84719" lon="9.20751">
        <ele>1923.55</ele>
        <time>2019-09-09T10:48:24Z</time>
      </trkpt>
      <trkpt lat="41.84717" lon="9.20752">
        <ele>1922.37</ele>
        <time>2019-09-09T10:48:10Z</time>
      </trkpt>
      <trkpt lat="41.84714" lon="9.2075">
        <ele>1921.11</ele>
        <time>2019-09-09T10:47:55Z</time>
      </trkpt>
      <trkpt lat="41.84712" lon="9.20754">
        <ele>1919.35</ele>
        <time>2019-09-09T10:47:41Z</time>
      </trkpt>
      <trkpt lat="41.8471" lon="9.20753">
        <ele>1917.97</ele>
        <time>2019-09-09T10:47:23Z</time>
      </trkpt>
      <trkpt lat="41.84709" lon="9.20754">
        <ele>1916.96</ele>
        <time>2019-09-09T10:47:11Z</time>
      </trkpt>
      <trkpt lat="41.84707" lon="9.2075">
        <ele>1915.91</ele>
        <time>2019-09-09T10:46:58Z</time>
      </trkpt>
      <trkpt lat="41.84705" lon="9.20749">
        <ele>1915.02</ele>
        <time>2019-09-09T10:46:44Z</time>
      </trkpt>
      <trkpt lat="41.84702" lon="9.20747">
        <ele>1914.78</ele>
        <time>2019-09-09T10:46:30Z</time>
      </trkpt>
      <trkpt lat="41.84702" lon="9.20743">
        <ele>1916.14</ele>
        <time>2019-09-09T10:46:11Z</time>
      </trkpt>
      <trkpt lat="41.84701" lon="9.20746">
        <ele>1914.92</ele>
        <time>2019-09-09T10:45:59Z</time>
      </trkpt>
      <trkpt lat="41.84702" lon="9.20751">
        <ele>1913.7</ele>
        <time>2019-09-09T10:45:44Z</time>
      </trkpt>
      <trkpt lat="41.84701" lon="9.20754">
        <ele>1912.18</ele>
        <time>2019-09-09T10:45:27Z</time>
      </trkpt>
      <trkpt lat="41.84699" lon="9.20753">
        <ele>1910.78</ele>
        <time>2019-09-09T10:45:12Z</time>
      </trkpt>
      <trkpt lat="41.84696" lon="9.20751">
        <ele>1909.9</ele>
        <time>2019-09-09T10:44:59Z</time>
      </trkpt>
      <trkpt lat="41.84693" lon="9.20745">
        <ele>1908.5</ele>
        <time>2019-09-09T10:44:46Z</time>
      </trkpt>
      <trkpt lat="41.84693" lon="9.20744">
        <ele>1907.19</ele>
        <time>2019-09-09T10:44:27Z</time>
      </trkpt>
      <trkpt lat="41.8469" lon="9.20747">
        <ele>1906.16</ele>
        <time>2019-09-09T10:44:11Z</time>
      </trkpt>
      <trkpt lat="41.84688" lon="9.20749">
        <ele>1904.36</ele>
        <time>2019-09-09T10:43:56Z</time>
      </trkpt>
      <trkpt lat="41.84684" lon="9.20751">
        <ele>1902.67</ele>
        <time>2019-09-09T10:43:41Z</time>
      </trkpt>
      <trkpt lat="41.84683" lon="9.20754">
        <ele>1901.25</ele>
        <time>2019-09-09T10:43:24Z</time>
      </trkpt>
      <trkpt lat="41.84682" lon="9.20755">
        <ele>1900.24</ele>
        <time>2019-09-09T10:43:09Z</time>
      </trkpt>
      <trkpt lat="41.84678" lon="9.20755">
        <ele>1898.37</ele>
        <time>2019-09-09T10:42:55Z</time>
      </trkpt>
      <trkpt lat="41.84678" lon="9.20759">
        <ele>1897.16</ele>
        <time>2019-09-09T10:42:42Z</time>
      </trkpt>
      <trkpt lat="41.84678" lon="9.20765">
        <ele>1895.63</ele>
        <time>2019-09-09T10:42:27Z</time>
      </trkpt>
      <trkpt lat="41.84677" lon="9.20769">
        <ele>1894.29</ele>
        <time>2019-09-09T10:42:13Z</time>
      </trkpt>
      <trkpt lat="41.84674" lon="9.20774">
        <ele>1892.5</ele>
        <time>2019-09-09T10:41:58Z</time>
      </trkpt>
      <trkpt lat="41.84673" lon="9.20777">
        <ele>1890.46</ele>
        <time>2019-09-09T10:41:45Z</time>
      </trkpt>
      <trkpt lat="41.8467" lon="9.20782">
        <ele>1887.8</ele>
        <time>2019-09-09T10:41:31Z</time>
      </trkpt>
      <trkpt lat="41.84668" lon="9.20785">
        <ele>1886.07</ele>
        <time>2019-09-09T10:41:16Z</time>
      </trkpt>
      <trkpt lat="41.84667" lon="9.20782">
        <ele>1885.54</ele>
        <time>2019-09-09T10:41:03Z</time>
      </trkpt>
      <trkpt lat="41.84665" lon="9.20774">
        <ele>1886.04</ele>
        <time>2019-09-09T10:40:49Z</time>
      </trkpt>
      <trkpt lat="41.84663" lon="9.20769">
        <ele>1884.64</ele>
        <time>2019-09-09T10:40:34Z</time>
      </trkpt>
      <trkpt lat="41.8466" lon="9.20768">
        <ele>1882.73</ele>
        <time>2019-09-09T10:40:18Z</time>
      </trkpt>
      <trkpt lat="41.84657" lon="9.2077">
        <ele>1881.64</ele>
        <time>2019-09-09T10:40:05Z</time>
      </trkpt>
      <trkpt lat="41.84654" lon="9.20768">
        <ele>1880.09</ele>
        <time>2019-09-09T10:39:53Z</time>
      </trkpt>
      <trkpt lat="41.84654" lon="9.20773">
        <ele>1878.35</ele>
        <time>2019-09-09T10:39:38Z</time>
      </trkpt>
      <trkpt lat="41.84653" lon="9.20776">
        <ele>1877.22</ele>
        <time>2019-09-09T10:39:24Z</time>
      </trkpt>
      <trkpt lat="41.84653" lon="9.20782">
        <ele>1875.6</ele>
        <time>2019-09-09T10:39:11Z</time>
      </trkpt>
      <trkpt lat="41.84653" lon="9.20786">
        <ele>1875.11</ele>
        <time>2019-09-09T10:38:57Z</time>
      </trkpt>
      <trkpt lat="41.84653" lon="9.20791">
        <ele>1872.13</ele>
        <time>2019-09-09T10:38:40Z</time>
      </trkpt>
      <trkpt lat="41.84652" lon="9.20794">
        <ele>1870.64</ele>
        <time>2019-09-09T10:38:26Z</time>
      </trkpt>
      <trkpt lat="41.8465" lon="9.20797">
        <ele>1869.36</ele>
        <time>2019-09-09T10:38:10Z</time>
      </trkpt>
      <trkpt lat="41.84648" lon="9.20798">
        <ele>1868.5</ele>
        <time>2019-09-09T10:37:54Z</time>
      </trkpt>
      <trkpt lat="41.84645" lon="9.20804">
        <ele>1866.48</ele>
        <time>2019-09-09T10:37:38Z</time>
      </trkpt>
      <trkpt lat="41.84643" lon="9.20802">
        <ele>1865.36</ele>
        <time>2019-09-09T10:37:24Z</time>
      </trkpt>
      <trkpt lat="41.84641" lon="9.208">
        <ele>1863.7</ele>
        <time>2019-09-09T10:37:10Z</time>
      </trkpt>
      <trkpt lat="41.84639" lon="9.20798">
        <ele>1862.68</ele>
        <time>2019-09-09T10:36:57Z</time>
      </trkpt>
      <trkpt lat="41.84636" lon="9.20799">
        <ele>1862.05</ele>
        <time>2019-09-09T10:36:45Z</time>
      </trkpt>
      <trkpt lat="41.84634" lon="9.208">
        <ele>1859.92</ele>
        <time>2019-09-09T10:36:32Z</time>
      </trkpt>
      <trkpt lat="41.84632" lon="9.20803">
        <ele>1858.45</ele>
        <time>2019-09-09T10:36:18Z</time>
      </trkpt>
      <trkpt lat="41.8463" lon="9.20801">
        <ele>1856.83</ele>
        <time>2019-09-09T10:36:05Z</time>
      </trkpt>
      <trkpt lat="41.84628" lon="9.20797">
        <ele>1855.09</ele>
        <time>2019-09-09T10:35:51Z</time>
      </trkpt>
      <trkpt lat="41.84625" lon="9.20795">
        <ele>1854.19</ele>
        <time>2019-09-09T10:35:39Z</time>
      </trkpt>
      <trkpt lat="41.84622" lon="9.20796">
        <ele>1852.94</ele>
        <time>2019-09-09T10:35:22Z</time>
      </trkpt>
      <trkpt lat="41.84617" lon="9.20794">
        <ele>1851.89</ele>
        <time>2019-09-09T10:35:09Z</time>
      </trkpt>
      <trkpt lat="41.84615" lon="9.20793">
        <ele>1850.86</ele>
        <time>2019-09-09T10:34:55Z</time>
      </trkpt>
      <trkpt lat="41.84612" lon="9.20795">
        <ele>1849.46</ele>
        <time>2019-09-09T10:34:43Z</time>
      </trkpt>
      <trkpt lat="41.84609" lon="9.20796">
        <ele>1848.81</ele>
        <time>2019-09-09T10:34:30Z</time>
      </trkpt>
      <trkpt lat="41.84605" lon="9.20796">
        <ele>1847.43</ele>
        <time>2019-09-09T10:34:16Z</time>
      </trkpt>
      <trkpt lat="41.84602" lon="9.20796">
        <ele>1845.55</ele>
        <time>2019-09-09T10:34:04Z</time>
      </trkpt>
      <trkpt lat="41.84601" lon="9.20799">
        <ele>1844.25</ele>
        <time>2019-09-09T10:33:51Z</time>
      </trkpt>
      <trkpt lat="41.84597" lon="9.208">
        <ele>1841.75</ele>
        <time>2019-09-09T10:33:36Z</time>
      </trkpt>
      <trkpt lat="41.84597" lon="9.20806">
        <ele>1839.83</ele>
        <time>2019-09-09T10:33:18Z</time>
      </trkpt>
      <trkpt lat="41.84594" lon="9.20806">
        <ele>1839.18</ele>
        <time>2019-09-09T10:33:05Z</time>
      </trkpt>
      <trkpt lat="41.8459" lon="9.20804">
        <ele>1838.04</ele>
        <time>2019-09-09T10:32:54Z</time>
      </trkpt>
      <trkpt lat="41.84588" lon="9.20806">
        <ele>1835.87</ele>
        <time>2019-09-09T10:32:41Z</time>
      </trkpt>
      <trkpt lat="41.84586" lon="9.20809">
        <ele>1833.94</ele>
        <time>2019-09-09T10:32:25Z</time>
      </trkpt>
      <trkpt lat="41.84585" lon="9.20813">
        <ele>1832.12</ele>
        <time>2019-09-09T10:32:08Z</time>
      </trkpt>
      <trkpt lat="41.84583" lon="9.20814">
        <ele>1830.62</ele>
        <time>2019-09-09T10:31:56Z</time>
      </trkpt>
      <trkpt lat="41.84582" lon="9.20818">
        <ele>1829.89</ele>
        <time>2019-09-09T10:31:44Z</time>
      </trkpt>
      <trkpt lat="41.84579" lon="9.20818">
        <ele>1828.35</ele>
        <time>2019-09-09T10:31:30Z</time>
      </trkpt>
      <trkpt lat="41.84576" lon="9.2082">
        <ele>1826.63</ele>
        <time>2019-09-09T10:31:13Z</time>
      </trkpt>
      <trkpt lat="41.84574" lon="9.20822">
        <ele>1824.78</ele>
        <time>2019-09-09T10:30:58Z</time>
      </trkpt>
      <trkpt lat="41.84572" lon="9.20826">
        <ele>1823.96</ele>
        <time>2019-09-09T10:30:46Z</time>
      </trkpt>
      <trkpt lat="41.8457" lon="9.20825">
        <ele>1822.43</ele>
        <time>2019-09-09T10:30:34Z</time>
      </trkpt>
      <trkpt lat="41.84567" lon="9.20824">
        <ele>1820.68</ele>
        <time>2019-09-09T10:30:20Z</time>
      </trkpt>
      <trkpt lat="41.84565" lon="9.20822">
        <ele>1819.48</ele>
        <time>2019-09-09T10:30:05Z</time>
      </trkpt>
      <trkpt lat="41.84563" lon="9.2082">
        <ele>1818.31</ele>
        <time>2019-09-09T10:29:51Z</time>
      </trkpt>
      <trkpt lat="41.8456" lon="9.20816">
        <ele>1817.72</ele>
        <time>2019-09-09T10:29:41Z</time>
      </trkpt>
      <trkpt lat="41.84555" lon="9.20812">
        <ele>1816.63</ele>
        <time>2019-09-09T10:29:27Z</time>
      </trkpt>
      <trkpt lat="41.84551" lon="9.20808">
        <ele>1814.56</ele>
        <time>2019-09-09T10:29:14Z</time>
      </trkpt>
      <trkpt lat="41.84547" lon="9.20808">
        <ele>1812.28</ele>
        <time>2019-09-09T10:28:58Z</time>
      </trkpt>
      <trkpt lat="41.84545" lon="9.20807">
        <ele>1810.5</ele>
        <time>2019-09-09T10:28:43Z</time>
      </trkpt>
      <trkpt lat="41.84544" lon="9.2081">
        <ele>1808.98</ele>
        <time>2019-09-09T10:28:31Z</time>
      </trkpt>
      <trkpt lat="41.84543" lon="9.20815">
        <ele>1808.27</ele>
        <time>2019-09-09T10:28:19Z</time>
      </trkpt>
      <trkpt lat="41.84542" lon="9.20818">
        <ele>1806.81</ele>
        <time>2019-09-09T10:28:04Z</time>
      </trkpt>
      <trkpt lat="41.84539" lon="9.20821">
        <ele>1805.75</ele>
        <time>2019-09-09T10:27:51Z</time>
      </trkpt>
      <trkpt lat="41.84536" lon="9.20821">
        <ele>1804.02</ele>
        <time>2019-09-09T10:27:38Z</time>
      </trkpt>
      <trkpt lat="41.84533" lon="9.20819">
        <ele>1800.93</ele>
        <time>2019-09-09T10:27:22Z</time>
      </trkpt>
      <trkpt lat="41.84531" lon="9.20822">
        <ele>1799.56</ele>
        <time>2019-09-09T10:27:08Z</time>
      </trkpt>
      <trkpt lat="41.84529" lon="9.20824">
        <ele>1797.63</ele>
        <time>2019-09-09T10:26:54Z</time>
      </trkpt>
      <trkpt lat="41.84527" lon="9.20827">
        <ele>1796.69</ele>
        <time>2019-09-09T10:26:38Z</time>
      </trkpt>
      <trkpt lat="41.84526" lon="9.20831">
        <ele>1795.13</ele>
        <time>2019-09-09T10:26:22Z</time>
      </trkpt>
      <trkpt lat="41.84525" lon="9.20837">
        <ele>1793.97</ele>
        <time>2019-09-09T10:26:07Z</time>
      </trkpt>
      <trkpt lat="41.84522" lon="9.20839">
        <ele>1791.73</ele>
        <time>2019-09-09T10:25:54Z</time>
      </trkpt>
      <trkpt lat="41.84519" lon="9.20839">
        <ele>1789.86</ele>
        <time>2019-09-09T10:25:42Z</time>
      </trkpt>
      <trkpt lat="41.84516" lon="9.20842">
        <ele>1787.6</ele>
        <time>2019-09-09T10:25:30Z</time>
      </trkpt>
      <trkpt lat="41.84513" lon="9.20842">
        <ele>1786.63</ele>
        <time>2019-09-09T10:25:17Z</time>
      </trkpt>
      <trkpt lat="41.84512" lon="9.20839">
        <ele>1786.33</ele>
        <time>2019-09-09T10:24:58Z</time>
      </trkpt>
      <trkpt lat="41.84509" lon="9.20842">
        <ele>1784.64</ele>
        <time>2019-09-09T10:24:46Z</time>
      </trkpt>
      <trkpt lat="41.84508" lon="9.20845">
        <ele>1781.78</ele>
        <time>2019-09-09T10:24:32Z</time>
      </trkpt>
      <trkpt lat="41.84506" lon="9.2085">
        <ele>1779.82</ele>
        <time>2019-09-09T10:24:18Z</time>
      </trkpt>
      <trkpt lat="41.84506" lon="9.20855">
        <ele>1779.12</ele>
        <time>2019-09-09T10:24:05Z</time>
      </trkpt>
      <trkpt lat="41.84507" lon="9.20859">
        <ele>1779.29</ele>
        <time>2019-09-09T10:23:44Z</time>
      </trkpt>
      <trkpt lat="41.84505" lon="9.20863">
        <ele>1777.41</ele>
        <time>2019-09-09T10:23:27Z</time>
      </trkpt>
      <trkpt lat="41.84504" lon="9.20865">
        <ele>1775.72</ele>
        <time>2019-09-09T10:23:15Z</time>
      </trkpt>
      <trkpt lat="41.845" lon="9.20864">
        <ele>1773.92</ele>
        <time>2019-09-09T10:23:00Z</time>
      </trkpt>
      <trkpt lat="41.84498" lon="9.20867">
        <ele>1772.04</ele>
        <time>2019-09-09T10:22:47Z</time>
      </trkpt>
      <trkpt lat="41.84495" lon="9.20869">
        <ele>1769.61</ele>
        <time>2019-09-09T10:22:33Z</time>
      </trkpt>
      <trkpt lat="41.84493" lon="9.20871">
        <ele>1767.63</ele>
        <time>2019-09-09T10:22:18Z</time>
      </trkpt>
      <trkpt lat="41.84493" lon="9.20874">
        <ele>1766.38</ele>
        <time>2019-09-09T10:22:04Z</time>
      </trkpt>
      <trkpt lat="41.84492" lon="9.20877">
        <ele>1765.22</ele>
        <time>2019-09-09T10:21:46Z</time>
      </trkpt>
      <trkpt lat="41.8449" lon="9.20878">
        <ele>1763.93</ele>
        <time>2019-09-09T10:21:31Z</time>
      </trkpt>
      <trkpt lat="41.84489" lon="9.20882">
        <ele>1762.81</ele>
        <time>2019-09-09T10:21:01Z</time>
      </trkpt>
      <trkpt lat="41.84489" lon="9.20883">
        <ele>1761.93</ele>
        <time>2019-09-09T10:20:41Z</time>
      </trkpt>
      <trkpt lat="41.84487" lon="9.20882">
        <ele>1761.17</ele>
        <time>2019-09-09T10:20:28Z</time>
      </trkpt>
      <trkpt lat="41.84486" lon="9.20886">
        <ele>1759.97</ele>
        <time>2019-09-09T10:20:14Z</time>
      </trkpt>
      <trkpt lat="41.84485" lon="9.20891">
        <ele>1758.56</ele>
        <time>2019-09-09T10:19:59Z</time>
      </trkpt>
      <trkpt lat="41.8448" lon="9.20887">
        <ele>1757.69</ele>
        <time>2019-09-09T10:19:45Z</time>
      </trkpt>
      <trkpt lat="41.84478" lon="9.20886">
        <ele>1756.26</ele>
        <time>2019-09-09T10:19:31Z</time>
      </trkpt>
      <trkpt lat="41.84474" lon="9.20886">
        <ele>1754.28</ele>
        <time>2019-09-09T10:19:15Z</time>
      </trkpt>
      <trkpt lat="41.84472" lon="9.20886">
        <ele>1752.9</ele>
        <time>2019-09-09T10:19:04Z</time>
      </trkpt>
      <trkpt lat="41.84469" lon="9.20886">
        <ele>1751.2</ele>
        <time>2019-09-09T10:18:51Z</time>
      </trkpt>
      <trkpt lat="41.84466" lon="9.20888">
        <ele>1750.51</ele>
        <time>2019-09-09T10:18:37Z</time>
      </trkpt>
      <trkpt lat="41.84466" lon="9.20893">
        <ele>1749.25</ele>
        <time>2019-09-09T10:18:26Z</time>
      </trkpt>
      <trkpt lat="41.84464" lon="9.20894">
        <ele>1747.81</ele>
        <time>2019-09-09T10:18:14Z</time>
      </trkpt>
      <trkpt lat="41.84461" lon="9.20896">
        <ele>1746</ele>
        <time>2019-09-09T10:18:01Z</time>
      </trkpt>
      <trkpt lat="41.84458" lon="9.20897">
        <ele>1744.92</ele>
        <time>2019-09-09T10:17:48Z</time>
      </trkpt>
      <trkpt lat="41.84455" lon="9.20897">
        <ele>1743.95</ele>
        <time>2019-09-09T10:17:34Z</time>
      </trkpt>
      <trkpt lat="41.84452" lon="9.20895">
        <ele>1743.29</ele>
        <time>2019-09-09T10:17:21Z</time>
      </trkpt>
      <trkpt lat="41.84448" lon="9.20893">
        <ele>1741.65</ele>
        <time>2019-09-09T10:17:07Z</time>
      </trkpt>
      <trkpt lat="41.84446" lon="9.20897">
        <ele>1739.81</ele>
        <time>2019-09-09T10:16:54Z</time>
      </trkpt>
      <trkpt lat="41.84444" lon="9.20902">
        <ele>1737.78</ele>
        <time>2019-09-09T10:16:41Z</time>
      </trkpt>
      <trkpt lat="41.84442" lon="9.20907">
        <ele>1735.87</ele>
        <time>2019-09-09T10:16:26Z</time>
      </trkpt>
      <trkpt lat="41.84441" lon="9.20913">
        <ele>1734.06</ele>
        <time>2019-09-09T10:16:14Z</time>
      </trkpt>
      <trkpt lat="41.8444" lon="9.20922">
        <ele>1731.95</ele>
        <time>2019-09-09T10:16:00Z</time>
      </trkpt>
      <trkpt lat="41.84439" lon="9.20929">
        <ele>1729.98</ele>
        <time>2019-09-09T10:15:47Z</time>
      </trkpt>
      <trkpt lat="41.84437" lon="9.20933">
        <ele>1729.06</ele>
        <time>2019-09-09T10:15:37Z</time>
      </trkpt>
      <trkpt lat="41.84433" lon="9.20938">
        <ele>1728.05</ele>
        <time>2019-09-09T10:15:21Z</time>
      </trkpt>
      <trkpt lat="41.84435" lon="9.2094">
        <ele>1727.85</ele>
        <time>2019-09-09T10:14:59Z</time>
      </trkpt>
      <trkpt lat="41.84434" lon="9.2094">
        <ele>1728.75</ele>
        <time>2019-09-09T10:14:20Z</time>
      </trkpt>
      <trkpt lat="41.84434" lon="9.2094">
        <ele>1729.43</ele>
        <time>2019-09-09T10:13:38Z</time>
      </trkpt>
      <trkpt lat="41.84433" lon="9.20939">
        <ele>1729.44</ele>
        <time>2019-09-09T10:13:10Z</time>
      </trkpt>
      <trkpt lat="41.84432" lon="9.20939">
        <ele>1729.7</ele>
        <time>2019-09-09T10:12:38Z</time>
      </trkpt>
      <trkpt lat="41.84433" lon="9.20941">
        <ele>1730.14</ele>
        <time>2019-09-09T10:11:56Z</time>
      </trkpt>
      <trkpt lat="41.84433" lon="9.20941">
        <ele>1729.84</ele>
        <time>2019-09-09T10:11:43Z</time>
      </trkpt>
      <trkpt lat="41.84433" lon="9.20941">
        <ele>1729.97</ele>
        <time>2019-09-09T10:11:28Z</time>
      </trkpt>
      <trkpt lat="41.84433" lon="9.20943">
        <ele>1729.27</ele>
        <time>2019-09-09T10:11:12Z</time>
      </trkpt>
      <trkpt lat="41.84428" lon="9.20952">
        <ele>1727.57</ele>
        <time>2019-09-09T10:10:56Z</time>
      </trkpt>
      <trkpt lat="41.84424" lon="9.20957">
        <ele>1726.31</ele>
        <time>2019-09-09T10:10:43Z</time>
      </trkpt>
      <trkpt lat="41.84419" lon="9.20958">
        <ele>1723.97</ele>
        <time>2019-09-09T10:10:29Z</time>
      </trkpt>
      <trkpt lat="41.84415" lon="9.20962">
        <ele>1721.71</ele>
        <time>2019-09-09T10:10:15Z</time>
      </trkpt>
      <trkpt lat="41.84411" lon="9.20972">
        <ele>1720.6</ele>
        <time>2019-09-09T10:10:01Z</time>
      </trkpt>
      <trkpt lat="41.8441" lon="9.20979">
        <ele>1719.29</ele>
        <time>2019-09-09T10:09:46Z</time>
      </trkpt>
      <trkpt lat="41.84407" lon="9.20987">
        <ele>1717.78</ele>
        <time>2019-09-09T10:09:33Z</time>
      </trkpt>
      <trkpt lat="41.84404" lon="9.20994">
        <ele>1716.14</ele>
        <time>2019-09-09T10:09:19Z</time>
      </trkpt>
      <trkpt lat="41.84402" lon="9.20999">
        <ele>1714.71</ele>
        <time>2019-09-09T10:09:06Z</time>
      </trkpt>
      <trkpt lat="41.844" lon="9.21005">
        <ele>1712.86</ele>
        <time>2019-09-09T10:08:53Z</time>
      </trkpt>
      <trkpt lat="41.84396" lon="9.2101">
        <ele>1710.81</ele>
        <time>2019-09-09T10:08:38Z</time>
      </trkpt>
      <trkpt lat="41.84392" lon="9.21016">
        <ele>1709.28</ele>
        <time>2019-09-09T10:08:25Z</time>
      </trkpt>
      <trkpt lat="41.84389" lon="9.2102">
        <ele>1707.48</ele>
        <time>2019-09-09T10:08:12Z</time>
      </trkpt>
      <trkpt lat="41.84384" lon="9.21028">
        <ele>1705.73</ele>
        <time>2019-09-09T10:07:57Z</time>
      </trkpt>
      <trkpt lat="41.84381" lon="9.21034">
        <ele>1704.14</ele>
        <time>2019-09-09T10:07:45Z</time>
      </trkpt>
      <trkpt lat="41.84377" lon="9.21039">
        <ele>1702.62</ele>
        <time>2019-09-09T10:07:32Z</time>
      </trkpt>
      <trkpt lat="41.84375" lon="9.21051">
        <ele>1702.18</ele>
        <time>2019-09-09T10:07:18Z</time>
      </trkpt>
      <trkpt lat="41.84372" lon="9.21056">
        <ele>1701.19</ele>
        <time>2019-09-09T10:07:07Z</time>
      </trkpt>
      <trkpt lat="41.84368" lon="9.21061">
        <ele>1699.74</ele>
        <time>2019-09-09T10:06:55Z</time>
      </trkpt>
      <trkpt lat="41.84363" lon="9.21067">
        <ele>1698.4</ele>
        <time>2019-09-09T10:06:42Z</time>
      </trkpt>
      <trkpt lat="41.84358" lon="9.21072">
        <ele>1696.42</ele>
        <time>2019-09-09T10:06:28Z</time>
      </trkpt>
      <trkpt lat="41.84354" lon="9.21076">
        <ele>1694.97</ele>
        <time>2019-09-09T10:06:15Z</time>
      </trkpt>
      <trkpt lat="41.8435" lon="9.21081">
        <ele>1693.37</ele>
        <time>2019-09-09T10:06:02Z</time>
      </trkpt>
      <trkpt lat="41.84347" lon="9.21082">
        <ele>1691.92</ele>
        <time>2019-09-09T10:05:49Z</time>
      </trkpt>
      <trkpt lat="41.84346" lon="9.21086">
        <ele>1690.57</ele>
        <time>2019-09-09T10:05:37Z</time>
      </trkpt>
      <trkpt lat="41.84343" lon="9.21091">
        <ele>1688.75</ele>
        <time>2019-09-09T10:05:23Z</time>
      </trkpt>
      <trkpt lat="41.8434" lon="9.21094">
        <ele>1686.77</ele>
        <time>2019-09-09T10:05:07Z</time>
      </trkpt>
      <trkpt lat="41.84338" lon="9.21092">
        <ele>1685.51</ele>
        <time>2019-09-09T10:04:55Z</time>
      </trkpt>
      <trkpt lat="41.84335" lon="9.21095">
        <ele>1684.24</ele>
        <time>2019-09-09T10:04:44Z</time>
      </trkpt>
      <trkpt lat="41.84332" lon="9.21098">
        <ele>1682.41</ele>
        <time>2019-09-09T10:04:30Z</time>
      </trkpt>
      <trkpt lat="41.84328" lon="9.21095">
        <ele>1680.65</ele>
        <time>2019-09-09T10:04:16Z</time>
      </trkpt>
      <trkpt lat="41.84325" lon="9.21092">
        <ele>1679.08</ele>
        <time>2019-09-09T10:04:01Z</time>
      </trkpt>
      <trkpt lat="41.84322" lon="9.21088">
        <ele>1677.67</ele>
        <time>2019-09-09T10:03:49Z</time>
      </trkpt>
      <trkpt lat="41.84319" lon="9.21092">
        <ele>1675.52</ele>
        <time>2019-09-09T10:03:35Z</time>
      </trkpt>
      <trkpt lat="41.84316" lon="9.21093">
        <ele>1674.12</ele>
        <time>2019-09-09T10:03:23Z</time>
      </trkpt>
      <trkpt lat="41.84314" lon="9.21089">
        <ele>1672.75</ele>
        <time>2019-09-09T10:03:09Z</time>
      </trkpt>
      <trkpt lat="41.84311" lon="9.21084">
        <ele>1670.99</ele>
        <time>2019-09-09T10:02:54Z</time>
      </trkpt>
      <trkpt lat="41.84309" lon="9.21089">
        <ele>1669.12</ele>
        <time>2019-09-09T10:02:39Z</time>
      </trkpt>
      <trkpt lat="41.84306" lon="9.21091">
        <ele>1667.28</ele>
        <time>2019-09-09T10:02:25Z</time>
      </trkpt>
      <trkpt lat="41.84303" lon="9.21095">
        <ele>1664.99</ele>
        <time>2019-09-09T10:02:09Z</time>
      </trkpt>
      <trkpt lat="41.843" lon="9.21094">
        <ele>1663.62</ele>
        <time>2019-09-09T10:01:55Z</time>
      </trkpt>
      <trkpt lat="41.84298" lon="9.21094">
        <ele>1661.99</ele>
        <time>2019-09-09T10:01:43Z</time>
      </trkpt>
      <trkpt lat="41.84298" lon="9.211">
        <ele>1660.44</ele>
        <time>2019-09-09T10:01:29Z</time>
      </trkpt>
      <trkpt lat="41.84295" lon="9.211">
        <ele>1658.96</ele>
        <time>2019-09-09T10:01:17Z</time>
      </trkpt>
      <trkpt lat="41.84293" lon="9.211">
        <ele>1657.2</ele>
        <time>2019-09-09T10:01:05Z</time>
      </trkpt>
      <trkpt lat="41.84291" lon="9.21102">
        <ele>1655.51</ele>
        <time>2019-09-09T10:00:52Z</time>
      </trkpt>
      <trkpt lat="41.84288" lon="9.21101">
        <ele>1653.42</ele>
        <time>2019-09-09T10:00:38Z</time>
      </trkpt>
      <trkpt lat="41.84286" lon="9.21109">
        <ele>1651.46</ele>
        <time>2019-09-09T10:00:24Z</time>
      </trkpt>
      <trkpt lat="41.84284" lon="9.21112">
        <ele>1649.99</ele>
        <time>2019-09-09T10:00:11Z</time>
      </trkpt>
      <trkpt lat="41.84283" lon="9.21118">
        <ele>1649.04</ele>
        <time>2019-09-09T09:59:59Z</time>
      </trkpt>
      <trkpt lat="41.8428" lon="9.21117">
        <ele>1647.08</ele>
        <time>2019-09-09T09:59:46Z</time>
      </trkpt>
      <trkpt lat="41.84277" lon="9.21116">
        <ele>1645.03</ele>
        <time>2019-09-09T09:59:33Z</time>
      </trkpt>
      <trkpt lat="41.84274" lon="9.21114">
        <ele>1643.54</ele>
        <time>2019-09-09T09:59:22Z</time>
      </trkpt>
      <trkpt lat="41.84271" lon="9.21114">
        <ele>1641.16</ele>
        <time>2019-09-09T09:59:09Z</time>
      </trkpt>
      <trkpt lat="41.84268" lon="9.21115">
        <ele>1639.65</ele>
        <time>2019-09-09T09:58:55Z</time>
      </trkpt>
      <trkpt lat="41.84266" lon="9.21115">
        <ele>1637.66</ele>
        <time>2019-09-09T09:58:40Z</time>
      </trkpt>
      <trkpt lat="41.84262" lon="9.21118">
        <ele>1635.98</ele>
        <time>2019-09-09T09:58:27Z</time>
      </trkpt>
      <trkpt lat="41.84261" lon="9.21121">
        <ele>1634.7</ele>
        <time>2019-09-09T09:57:58Z</time>
      </trkpt>
      <trkpt lat="41.84261" lon="9.21121">
        <ele>1634.14</ele>
        <time>2019-09-09T09:57:33Z</time>
      </trkpt>
      <trkpt lat="41.84261" lon="9.21124">
        <ele>1634.04</ele>
        <time>2019-09-09T09:56:48Z</time>
      </trkpt>
      <trkpt lat="41.84261" lon="9.21125">
        <ele>1633.86</ele>
        <time>2019-09-09T09:56:28Z</time>
      </trkpt>
      <trkpt lat="41.84258" lon="9.21129">
        <ele>1631.93</ele>
        <time>2019-09-09T09:56:16Z</time>
      </trkpt>
      <trkpt lat="41.84254" lon="9.21131">
        <ele>1629.88</ele>
        <time>2019-09-09T09:56:02Z</time>
      </trkpt>
      <trkpt lat="41.84251" lon="9.21132">
        <ele>1627.68</ele>
        <time>2019-09-09T09:55:48Z</time>
      </trkpt>
      <trkpt lat="41.84248" lon="9.2113">
        <ele>1626.62</ele>
        <time>2019-09-09T09:55:34Z</time>
      </trkpt>
      <trkpt lat="41.84245" lon="9.21129">
        <ele>1624.74</ele>
        <time>2019-09-09T09:55:20Z</time>
      </trkpt>
      <trkpt lat="41.84243" lon="9.21125">
        <ele>1623.01</ele>
        <time>2019-09-09T09:55:08Z</time>
      </trkpt>
      <trkpt lat="41.84239" lon="9.21124">
        <ele>1620.95</ele>
        <time>2019-09-09T09:54:55Z</time>
      </trkpt>
      <trkpt lat="41.84236" lon="9.21124">
        <ele>1619.41</ele>
        <time>2019-09-09T09:54:40Z</time>
      </trkpt>
      <trkpt lat="41.84235" lon="9.21122">
        <ele>1618.92</ele>
        <time>2019-09-09T09:54:30Z</time>
      </trkpt>
      <trkpt lat="41.84233" lon="9.21123">
        <ele>1617.79</ele>
        <time>2019-09-09T09:54:19Z</time>
      </trkpt>
      <trkpt lat="41.84229" lon="9.21125">
        <ele>1615.81</ele>
        <time>2019-09-09T09:54:06Z</time>
      </trkpt>
      <trkpt lat="41.84227" lon="9.21127">
        <ele>1614.21</ele>
        <time>2019-09-09T09:53:53Z</time>
      </trkpt>
      <trkpt lat="41.84224" lon="9.21128">
        <ele>1612.64</ele>
        <time>2019-09-09T09:53:41Z</time>
      </trkpt>
      <trkpt lat="41.84222" lon="9.21124">
        <ele>1610.83</ele>
        <time>2019-09-09T09:53:26Z</time>
      </trkpt>
      <trkpt lat="41.84219" lon="9.21124">
        <ele>1609.47</ele>
        <time>2019-09-09T09:53:14Z</time>
      </trkpt>
      <trkpt lat="41.84218" lon="9.2112">
        <ele>1608.05</ele>
        <time>2019-09-09T09:53:00Z</time>
      </trkpt>
      <trkpt lat="41.84215" lon="9.21123">
        <ele>1606.34</ele>
        <time>2019-09-09T09:52:48Z</time>
      </trkpt>
      <trkpt lat="41.84214" lon="9.21128">
        <ele>1604.94</ele>
        <time>2019-09-09T09:52:35Z</time>
      </trkpt>
      <trkpt lat="41.8421" lon="9.21127">
        <ele>1602.91</ele>
        <time>2019-09-09T09:52:20Z</time>
      </trkpt>
      <trkpt lat="41.84207" lon="9.21132">
        <ele>1601.12</ele>
        <time>2019-09-09T09:52:05Z</time>
      </trkpt>
      <trkpt lat="41.84204" lon="9.2113">
        <ele>1599.4</ele>
        <time>2019-09-09T09:51:51Z</time>
      </trkpt>
      <trkpt lat="41.84201" lon="9.21137">
        <ele>1597.37</ele>
        <time>2019-09-09T09:51:37Z</time>
      </trkpt>
      <trkpt lat="41.84198" lon="9.21138">
        <ele>1595.86</ele>
        <time>2019-09-09T09:51:22Z</time>
      </trkpt>
      <trkpt lat="41.84196" lon="9.21134">
        <ele>1594.04</ele>
        <time>2019-09-09T09:51:07Z</time>
      </trkpt>
      <trkpt lat="41.84194" lon="9.21132">
        <ele>1592</ele>
        <time>2019-09-09T09:50:54Z</time>
      </trkpt>
      <trkpt lat="41.84191" lon="9.21135">
        <ele>1590.32</ele>
        <time>2019-09-09T09:50:41Z</time>
      </trkpt>
      <trkpt lat="41.84189" lon="9.21138">
        <ele>1588.89</ele>
        <time>2019-09-09T09:50:28Z</time>
      </trkpt>
      <trkpt lat="41.84187" lon="9.2114">
        <ele>1586.92</ele>
        <time>2019-09-09T09:50:15Z</time>
      </trkpt>
      <trkpt lat="41.84183" lon="9.21145">
        <ele>1584.14</ele>
        <time>2019-09-09T09:49:59Z</time>
      </trkpt>
      <trkpt lat="41.84181" lon="9.21154">
        <ele>1582.79</ele>
        <time>2019-09-09T09:49:44Z</time>
      </trkpt>
      <trkpt lat="41.8418" lon="9.21167">
        <ele>1582.07</ele>
        <time>2019-09-09T09:49:29Z</time>
      </trkpt>
      <trkpt lat="41.84177" lon="9.21169">
        <ele>1580.56</ele>
        <time>2019-09-09T09:49:15Z</time>
      </trkpt>
      <trkpt lat="41.84176" lon="9.21175">
        <ele>1579.19</ele>
        <time>2019-09-09T09:49:03Z</time>
      </trkpt>
      <trkpt lat="41.84175" lon="9.21182">
        <ele>1577.53</ele>
        <time>2019-09-09T09:48:49Z</time>
      </trkpt>
      <trkpt lat="41.84175" lon="9.21188">
        <ele>1576.46</ele>
        <time>2019-09-09T09:48:38Z</time>
      </trkpt>
      <trkpt lat="41.84175" lon="9.21193">
        <ele>1574.72</ele>
        <time>2019-09-09T09:48:25Z</time>
      </trkpt>
      <trkpt lat="41.84175" lon="9.21202">
        <ele>1573.33</ele>
        <time>2019-09-09T09:48:11Z</time>
      </trkpt>
      <trkpt lat="41.84176" lon="9.21209">
        <ele>1571.97</ele>
        <time>2019-09-09T09:47:59Z</time>
      </trkpt>
      <trkpt lat="41.84184" lon="9.21223">
        <ele>1570.02</ele>
        <time>2019-09-09T09:47:42Z</time>
      </trkpt>
      <trkpt lat="41.84189" lon="9.21233">
        <ele>1568.45</ele>
        <time>2019-09-09T09:47:28Z</time>
      </trkpt>
      <trkpt lat="41.84192" lon="9.21239">
        <ele>1566.41</ele>
        <time>2019-09-09T09:47:16Z</time>
      </trkpt>
      <trkpt lat="41.84195" lon="9.21246">
        <ele>1565.43</ele>
        <time>2019-09-09T09:47:03Z</time>
      </trkpt>
      <trkpt lat="41.84195" lon="9.21252">
        <ele>1563.35</ele>
        <time>2019-09-09T09:46:51Z</time>
      </trkpt>
      <trkpt lat="41.84194" lon="9.21262">
        <ele>1562.39</ele>
        <time>2019-09-09T09:46:37Z</time>
      </trkpt>
      <trkpt lat="41.84195" lon="9.21272">
        <ele>1561.42</ele>
        <time>2019-09-09T09:46:21Z</time>
      </trkpt>
      <trkpt lat="41.84195" lon="9.21278">
        <ele>1559.59</ele>
        <time>2019-09-09T09:46:09Z</time>
      </trkpt>
      <trkpt lat="41.84193" lon="9.21281">
        <ele>1557.6</ele>
        <time>2019-09-09T09:45:55Z</time>
      </trkpt>
      <trkpt lat="41.84193" lon="9.2129">
        <ele>1557.05</ele>
        <time>2019-09-09T09:45:40Z</time>
      </trkpt>
      <trkpt lat="41.84192" lon="9.21303">
        <ele>1556.45</ele>
        <time>2019-09-09T09:45:26Z</time>
      </trkpt>
      <trkpt lat="41.84194" lon="9.21313">
        <ele>1556.48</ele>
        <time>2019-09-09T09:45:09Z</time>
      </trkpt>
      <trkpt lat="41.84193" lon="9.21321">
        <ele>1556.34</ele>
        <time>2019-09-09T09:44:55Z</time>
      </trkpt>
      <trkpt lat="41.84194" lon="9.2133">
        <ele>1556.37</ele>
        <time>2019-09-09T09:44:42Z</time>
      </trkpt>
      <trkpt lat="41.84194" lon="9.21341">
        <ele>1557.2</ele>
        <time>2019-09-09T09:44:29Z</time>
      </trkpt>
      <trkpt lat="41.84192" lon="9.21353">
        <ele>1556.68</ele>
        <time>2019-09-09T09:44:14Z</time>
      </trkpt>
      <trkpt lat="41.84191" lon="9.21359">
        <ele>1555.76</ele>
        <time>2019-09-09T09:44:05Z</time>
      </trkpt>
      <trkpt lat="41.84188" lon="9.21365">
        <ele>1554.16</ele>
        <time>2019-09-09T09:43:50Z</time>
      </trkpt>
      <trkpt lat="41.84185" lon="9.2137">
        <ele>1552.59</ele>
        <time>2019-09-09T09:43:34Z</time>
      </trkpt>
      <trkpt lat="41.84183" lon="9.21374">
        <ele>1551.63</ele>
        <time>2019-09-09T09:43:22Z</time>
      </trkpt>
      <trkpt lat="41.84181" lon="9.21382">
        <ele>1550.4</ele>
        <time>2019-09-09T09:43:09Z</time>
      </trkpt>
      <trkpt lat="41.84178" lon="9.21392">
        <ele>1549.18</ele>
        <time>2019-09-09T09:42:55Z</time>
      </trkpt>
      <trkpt lat="41.84176" lon="9.21398">
        <ele>1547.65</ele>
        <time>2019-09-09T09:42:41Z</time>
      </trkpt>
      <trkpt lat="41.84171" lon="9.21406">
        <ele>1545.8</ele>
        <time>2019-09-09T09:42:26Z</time>
      </trkpt>
      <trkpt lat="41.84166" lon="9.21413">
        <ele>1544.07</ele>
        <time>2019-09-09T09:42:11Z</time>
      </trkpt>
      <trkpt lat="41.84163" lon="9.21423">
        <ele>1543.46</ele>
        <time>2019-09-09T09:41:57Z</time>
      </trkpt>
      <trkpt lat="41.8416" lon="9.2143">
        <ele>1542.02</ele>
        <time>2019-09-09T09:41:42Z</time>
      </trkpt>
      <trkpt lat="41.84156" lon="9.21437">
        <ele>1540.8</ele>
        <time>2019-09-09T09:41:27Z</time>
      </trkpt>
      <trkpt lat="41.84151" lon="9.21446">
        <ele>1539.51</ele>
        <time>2019-09-09T09:41:13Z</time>
      </trkpt>
      <trkpt lat="41.84148" lon="9.21448">
        <ele>1538.93</ele>
        <time>2019-09-09T09:40:58Z</time>
      </trkpt>
      <trkpt lat="41.84147" lon="9.2145">
        <ele>1538.67</ele>
        <time>2019-09-09T09:40:41Z</time>
      </trkpt>
      <trkpt lat="41.84144" lon="9.21453">
        <ele>1537.48</ele>
        <time>2019-09-09T09:40:27Z</time>
      </trkpt>
      <trkpt lat="41.84144" lon="9.21452">
        <ele>1537.36</ele>
        <time>2019-09-09T09:40:08Z</time>
      </trkpt>
      <trkpt lat="41.84145" lon="9.21451">
        <ele>1537.17</ele>
        <time>2019-09-09T09:39:44Z</time>
      </trkpt>
      <trkpt lat="41.84145" lon="9.21451">
        <ele>1537.52</ele>
        <time>2019-09-09T09:39:26Z</time>
      </trkpt>
      <trkpt lat="41.84145" lon="9.2145">
        <ele>1535.73</ele>
        <time>2019-09-09T09:39:08Z</time>
      </trkpt>
      <trkpt lat="41.84146" lon="9.2145">
        <ele>1536.06</ele>
        <time>2019-09-09T09:38:29Z</time>
      </trkpt>
      <trkpt lat="41.84145" lon="9.21451">
        <ele>1536.1</ele>
        <time>2019-09-09T09:37:59Z</time>
      </trkpt>
      <trkpt lat="41.84145" lon="9.21451">
        <ele>1536.19</ele>
        <time>2019-09-09T09:37:26Z</time>
      </trkpt>
      <trkpt lat="41.84145" lon="9.2145">
        <ele>1536.17</ele>
        <time>2019-09-09T09:37:11Z</time>
      </trkpt>
      <trkpt lat="41.84144" lon="9.21451">
        <ele>1536.44</ele>
        <time>2019-09-09T09:36:28Z</time>
      </trkpt>
      <trkpt lat="41.84143" lon="9.21451">
        <ele>1535.87</ele>
        <time>2019-09-09T09:35:40Z</time>
      </trkpt>
      <trkpt lat="41.84142" lon="9.2145">
        <ele>1535.6</ele>
        <time>2019-09-09T09:34:55Z</time>
      </trkpt>
      <trkpt lat="41.84143" lon="9.2145">
        <ele>1535.35</ele>
        <time>2019-09-09T09:34:19Z</time>
      </trkpt>
      <trkpt lat="41.84144" lon="9.21449">
        <ele>1534.92</ele>
        <time>2019-09-09T09:33:22Z</time>
      </trkpt>
      <trkpt lat="41.84145" lon="9.21449">
        <ele>1534.36</ele>
        <time>2019-09-09T09:32:36Z</time>
      </trkpt>
      <trkpt lat="41.84145" lon="9.2145">
        <ele>1535.64</ele>
        <time>2019-09-09T09:31:36Z</time>
      </trkpt>
      <trkpt lat="41.84145" lon="9.21451">
        <ele>1536.08</ele>
        <time>2019-09-09T09:30:45Z</time>
      </trkpt>
      <trkpt lat="41.84145" lon="9.21449">
        <ele>1536.48</ele>
        <time>2019-09-09T09:29:50Z</time>
      </trkpt>
      <trkpt lat="41.84146" lon="9.21449">
        <ele>1536.36</ele>
        <time>2019-09-09T09:29:07Z</time>
      </trkpt>
      <trkpt lat="41.84144" lon="9.21449">
        <ele>1536.86</ele>
        <time>2019-09-09T09:28:38Z</time>
      </trkpt>
      <trkpt lat="41.84144" lon="9.2145">
        <ele>1536.82</ele>
        <time>2019-09-09T09:28:05Z</time>
      </trkpt>
      <trkpt lat="41.84143" lon="9.2145">
        <ele>1537.65</ele>
        <time>2019-09-09T09:27:44Z</time>
      </trkpt>
      <trkpt lat="41.84143" lon="9.21445">
        <ele>1536.93</ele>
        <time>2019-09-09T09:27:29Z</time>
      </trkpt>
      <trkpt lat="41.84143" lon="9.21439">
        <ele>1538.89</ele>
        <time>2019-09-09T09:27:16Z</time>
      </trkpt>
      <trkpt lat="41.84144" lon="9.21429">
        <ele>1538.79</ele>
        <time>2019-09-09T09:27:01Z</time>
      </trkpt>
      <trkpt lat="41.84148" lon="9.21417">
        <ele>1536.81</ele>
        <time>2019-09-09T09:26:45Z</time>
      </trkpt>
      <trkpt lat="41.84149" lon="9.21407">
        <ele>1536.56</ele>
        <time>2019-09-09T09:26:32Z</time>
      </trkpt>
      <trkpt lat="41.84148" lon="9.214">
        <ele>1534.79</ele>
        <time>2019-09-09T09:26:16Z</time>
      </trkpt>
      <trkpt lat="41.84146" lon="9.21393">
        <ele>1533.43</ele>
        <time>2019-09-09T09:26:03Z</time>
      </trkpt>
      <trkpt lat="41.84145" lon="9.21386">
        <ele>1533.42</ele>
        <time>2019-09-09T09:25:48Z</time>
      </trkpt>
      <trkpt lat="41.84143" lon="9.21376">
        <ele>1532.57</ele>
        <time>2019-09-09T09:25:35Z</time>
      </trkpt>
      <trkpt lat="41.84142" lon="9.2137">
        <ele>1531.3</ele>
        <time>2019-09-09T09:25:22Z</time>
      </trkpt>
      <trkpt lat="41.84141" lon="9.21362">
        <ele>1530.58</ele>
        <time>2019-09-09T09:25:09Z</time>
      </trkpt>
      <trkpt lat="41.8414" lon="9.21351">
        <ele>1529.67</ele>
        <time>2019-09-09T09:24:54Z</time>
      </trkpt>
      <trkpt lat="41.84137" lon="9.21343">
        <ele>1529.61</ele>
        <time>2019-09-09T09:24:43Z</time>
      </trkpt>
      <trkpt lat="41.84131" lon="9.21339">
        <ele>1529.53</ele>
        <time>2019-09-09T09:24:29Z</time>
      </trkpt>
      <trkpt lat="41.84122" lon="9.21331">
        <ele>1529.47</ele>
        <time>2019-09-09T09:24:15Z</time>
      </trkpt>
      <trkpt lat="41.84115" lon="9.21321">
        <ele>1530.26</ele>
        <time>2019-09-09T09:24:00Z</time>
      </trkpt>
      <trkpt lat="41.84115" lon="9.21315">
        <ele>1531.16</ele>
        <time>2019-09-09T09:23:48Z</time>
      </trkpt>
      <trkpt lat="41.84113" lon="9.2131">
        <ele>1531.17</ele>
        <time>2019-09-09T09:23:36Z</time>
      </trkpt>
      <trkpt lat="41.84109" lon="9.21304">
        <ele>1530.34</ele>
        <time>2019-09-09T09:23:19Z</time>
      </trkpt>
      <trkpt lat="41.84106" lon="9.21298">
        <ele>1528.93</ele>
        <time>2019-09-09T09:23:03Z</time>
      </trkpt>
      <trkpt lat="41.84101" lon="9.21294">
        <ele>1528.03</ele>
        <time>2019-09-09T09:22:50Z</time>
      </trkpt>
      <trkpt lat="41.84097" lon="9.21291">
        <ele>1527.38</ele>
        <time>2019-09-09T09:22:36Z</time>
      </trkpt>
      <trkpt lat="41.84095" lon="9.21287">
        <ele>1527.61</ele>
        <time>2019-09-09T09:22:20Z</time>
      </trkpt>
      <trkpt lat="41.84095" lon="9.21289">
        <ele>1527.21</ele>
        <time>2019-09-09T09:22:08Z</time>
      </trkpt>
      <trkpt lat="41.84092" lon="9.21294">
        <ele>1525.8</ele>
        <time>2019-09-09T09:21:54Z</time>
      </trkpt>
      <trkpt lat="41.84088" lon="9.21296">
        <ele>1524.55</ele>
        <time>2019-09-09T09:21:42Z</time>
      </trkpt>
      <trkpt lat="41.84081" lon="9.21293">
        <ele>1524.86</ele>
        <time>2019-09-09T09:21:28Z</time>
      </trkpt>
      <trkpt lat="41.8407" lon="9.2129">
        <ele>1525.35</ele>
        <time>2019-09-09T09:21:14Z</time>
      </trkpt>
      <trkpt lat="41.84064" lon="9.21291">
        <ele>1526.72</ele>
        <time>2019-09-09T09:21:00Z</time>
      </trkpt>
      <trkpt lat="41.84058" lon="9.2129">
        <ele>1528.62</ele>
        <time>2019-09-09T09:20:45Z</time>
      </trkpt>
      <trkpt lat="41.84051" lon="9.21287">
        <ele>1529.23</ele>
        <time>2019-09-09T09:20:31Z</time>
      </trkpt>
      <trkpt lat="41.8404" lon="9.21274">
        <ele>1528.24</ele>
        <time>2019-09-09T09:20:15Z</time>
      </trkpt>
      <trkpt lat="41.84033" lon="9.21265">
        <ele>1526.83</ele>
        <time>2019-09-09T09:20:00Z</time>
      </trkpt>
      <trkpt lat="41.84033" lon="9.21255">
        <ele>1524.77</ele>
        <time>2019-09-09T09:19:47Z</time>
      </trkpt>
      <trkpt lat="41.84034" lon="9.21248">
        <ele>1524.71</ele>
        <time>2019-09-09T09:19:32Z</time>
      </trkpt>
      <trkpt lat="41.84034" lon="9.21238">
        <ele>1523.3</ele>
        <time>2019-09-09T09:19:16Z</time>
      </trkpt>
      <trkpt lat="41.84032" lon="9.21231">
        <ele>1523.03</ele>
        <time>2019-09-09T09:18:59Z</time>
      </trkpt>
      <trkpt lat="41.84023" lon="9.21226">
        <ele>1523.43</ele>
        <time>2019-09-09T09:18:42Z</time>
      </trkpt>
      <trkpt lat="41.8401" lon="9.21214">
        <ele>1524.43</ele>
        <time>2019-09-09T09:18:22Z</time>
      </trkpt>
      <trkpt lat="41.84005" lon="9.2121">
        <ele>1523.88</ele>
        <time>2019-09-09T09:18:05Z</time>
      </trkpt>
      <trkpt lat="41.84004" lon="9.21209">
        <ele>1523.95</ele>
        <time>2019-09-09T09:17:28Z</time>
      </trkpt>
      <trkpt lat="41.84004" lon="9.21209">
        <ele>1524.09</ele>
        <time>2019-09-09T09:17:04Z</time>
      </trkpt>
      <trkpt lat="41.84004" lon="9.21208">
        <ele>1524.49</ele>
        <time>2019-09-09T09:16:42Z</time>
      </trkpt>
      <trkpt lat="41.84005" lon="9.21209">
        <ele>1524.15</ele>
        <time>2019-09-09T09:16:10Z</time>
      </trkpt>
      <trkpt lat="41.84001" lon="9.21205">
        <ele>1523.68</ele>
        <time>2019-09-09T09:15:52Z</time>
      </trkpt>
      <trkpt lat="41.83997" lon="9.21194">
        <ele>1523.45</ele>
        <time>2019-09-09T09:15:38Z</time>
      </trkpt>
      <trkpt lat="41.83993" lon="9.21184">
        <ele>1523.28</ele>
        <time>2019-09-09T09:15:23Z</time>
      </trkpt>
      <trkpt lat="41.83987" lon="9.21177">
        <ele>1521.98</ele>
        <time>2019-09-09T09:15:09Z</time>
      </trkpt>
      <trkpt lat="41.8398" lon="9.21173">
        <ele>1520.11</ele>
        <time>2019-09-09T09:14:55Z</time>
      </trkpt>
      <trkpt lat="41.83973" lon="9.21169">
        <ele>1518.13</ele>
        <time>2019-09-09T09:14:41Z</time>
      </trkpt>
      <trkpt lat="41.83968" lon="9.21169">
        <ele>1516.82</ele>
        <time>2019-09-09T09:14:28Z</time>
      </trkpt>
      <trkpt lat="41.83965" lon="9.21173">
        <ele>1515.12</ele>
        <time>2019-09-09T09:14:13Z</time>
      </trkpt>
      <trkpt lat="41.83959" lon="9.21174">
        <ele>1513.61</ele>
        <time>2019-09-09T09:14:01Z</time>
      </trkpt>
      <trkpt lat="41.83952" lon="9.21173">
        <ele>1511.47</ele>
        <time>2019-09-09T09:13:46Z</time>
      </trkpt>
      <trkpt lat="41.83947" lon="9.21174">
        <ele>1510.16</ele>
        <time>2019-09-09T09:13:34Z</time>
      </trkpt>
      <trkpt lat="41.83942" lon="9.21171">
        <ele>1508.44</ele>
        <time>2019-09-09T09:13:20Z</time>
      </trkpt>
      <trkpt lat="41.83935" lon="9.21173">
        <ele>1506.44</ele>
        <time>2019-09-09T09:13:05Z</time>
      </trkpt>
      <trkpt lat="41.8393" lon="9.2117">
        <ele>1505.03</ele>
        <time>2019-09-09T09:12:51Z</time>
      </trkpt>
      <trkpt lat="41.83925" lon="9.2117">
        <ele>1503.38</ele>
        <time>2019-09-09T09:12:36Z</time>
      </trkpt>
      <trkpt lat="41.8392" lon="9.21172">
        <ele>1501.42</ele>
        <time>2019-09-09T09:12:21Z</time>
      </trkpt>
      <trkpt lat="41.83915" lon="9.21172">
        <ele>1499.54</ele>
        <time>2019-09-09T09:12:06Z</time>
      </trkpt>
      <trkpt lat="41.83912" lon="9.21176">
        <ele>1498.23</ele>
        <time>2019-09-09T09:11:53Z</time>
      </trkpt>
      <trkpt lat="41.83909" lon="9.21173">
        <ele>1497.08</ele>
        <time>2019-09-09T09:11:40Z</time>
      </trkpt>
      <trkpt lat="41.83906" lon="9.21179">
        <ele>1496.16</ele>
        <time>2019-09-09T09:11:24Z</time>
      </trkpt>
      <trkpt lat="41.83902" lon="9.21181">
        <ele>1494.68</ele>
        <time>2019-09-09T09:11:10Z</time>
      </trkpt>
      <trkpt lat="41.83898" lon="9.21184">
        <ele>1492.42</ele>
        <time>2019-09-09T09:10:55Z</time>
      </trkpt>
      <trkpt lat="41.83893" lon="9.21183">
        <ele>1490.14</ele>
        <time>2019-09-09T09:10:41Z</time>
      </trkpt>
      <trkpt lat="41.83888" lon="9.21183">
        <ele>1488.36</ele>
        <time>2019-09-09T09:10:27Z</time>
      </trkpt>
      <trkpt lat="41.83883" lon="9.21177">
        <ele>1486.99</ele>
        <time>2019-09-09T09:10:12Z</time>
      </trkpt>
      <trkpt lat="41.83879" lon="9.21176">
        <ele>1485.69</ele>
        <time>2019-09-09T09:09:58Z</time>
      </trkpt>
      <trkpt lat="41.83876" lon="9.21177">
        <ele>1483.71</ele>
        <time>2019-09-09T09:09:44Z</time>
      </trkpt>
      <trkpt lat="41.83873" lon="9.21177">
        <ele>1482.2</ele>
        <time>2019-09-09T09:09:31Z</time>
      </trkpt>
      <trkpt lat="41.83869" lon="9.21178">
        <ele>1480.63</ele>
        <time>2019-09-09T09:09:19Z</time>
      </trkpt>
      <trkpt lat="41.83862" lon="9.21175">
        <ele>1478.9</ele>
        <time>2019-09-09T09:09:06Z</time>
      </trkpt>
      <trkpt lat="41.83856" lon="9.21179">
        <ele>1477.43</ele>
        <time>2019-09-09T09:08:52Z</time>
      </trkpt>
      <trkpt lat="41.83856" lon="9.21184">
        <ele>1475.78</ele>
        <time>2019-09-09T09:08:39Z</time>
      </trkpt>
      <trkpt lat="41.83849" lon="9.21179">
        <ele>1474.71</ele>
        <time>2019-09-09T09:08:23Z</time>
      </trkpt>
      <trkpt lat="41.83844" lon="9.21178">
        <ele>1472.81</ele>
        <time>2019-09-09T09:08:09Z</time>
      </trkpt>
      <trkpt lat="41.83838" lon="9.21176">
        <ele>1470.73</ele>
        <time>2019-09-09T09:07:55Z</time>
      </trkpt>
      <trkpt lat="41.83833" lon="9.21177">
        <ele>1468.37</ele>
        <time>2019-09-09T09:07:41Z</time>
      </trkpt>
      <trkpt lat="41.83828" lon="9.21177">
        <ele>1466.51</ele>
        <time>2019-09-09T09:07:27Z</time>
      </trkpt>
      <trkpt lat="41.83823" lon="9.21175">
        <ele>1464.58</ele>
        <time>2019-09-09T09:07:13Z</time>
      </trkpt>
      <trkpt lat="41.83818" lon="9.21176">
        <ele>1462.88</ele>
        <time>2019-09-09T09:07:01Z</time>
      </trkpt>
      <trkpt lat="41.83812" lon="9.21181">
        <ele>1460.72</ele>
        <time>2019-09-09T09:06:44Z</time>
      </trkpt>
      <trkpt lat="41.83808" lon="9.21183">
        <ele>1459.29</ele>
        <time>2019-09-09T09:06:31Z</time>
      </trkpt>
      <trkpt lat="41.83804" lon="9.21189">
        <ele>1457.48</ele>
        <time>2019-09-09T09:06:15Z</time>
      </trkpt>
      <trkpt lat="41.83801" lon="9.21196">
        <ele>1456.14</ele>
        <time>2019-09-09T09:06:02Z</time>
      </trkpt>
      <trkpt lat="41.83798" lon="9.21199">
        <ele>1454.53</ele>
        <time>2019-09-09T09:05:49Z</time>
      </trkpt>
      <trkpt lat="41.83792" lon="9.21195">
        <ele>1452.19</ele>
        <time>2019-09-09T09:05:33Z</time>
      </trkpt>
      <trkpt lat="41.83782" lon="9.21184">
        <ele>1450.42</ele>
        <time>2019-09-09T09:05:15Z</time>
      </trkpt>
      <trkpt lat="41.83777" lon="9.21184">
        <ele>1448.5</ele>
        <time>2019-09-09T09:05:04Z</time>
      </trkpt>
      <trkpt lat="41.83772" lon="9.2118">
        <ele>1447.17</ele>
        <time>2019-09-09T09:04:51Z</time>
      </trkpt>
      <trkpt lat="41.83766" lon="9.21182">
        <ele>1445.66</ele>
        <time>2019-09-09T09:04:38Z</time>
      </trkpt>
      <trkpt lat="41.83763" lon="9.21178">
        <ele>1443.79</ele>
        <time>2019-09-09T09:04:25Z</time>
      </trkpt>
      <trkpt lat="41.83757" lon="9.21181">
        <ele>1442.83</ele>
        <time>2019-09-09T09:04:12Z</time>
      </trkpt>
      <trkpt lat="41.83753" lon="9.21187">
        <ele>1441.3</ele>
        <time>2019-09-09T09:03:58Z</time>
      </trkpt>
      <trkpt lat="41.8375" lon="9.21193">
        <ele>1439.46</ele>
        <time>2019-09-09T09:03:44Z</time>
      </trkpt>
      <trkpt lat="41.83747" lon="9.21195">
        <ele>1437.91</ele>
        <time>2019-09-09T09:03:33Z</time>
      </trkpt>
      <trkpt lat="41.83745" lon="9.212">
        <ele>1435.94</ele>
        <time>2019-09-09T09:03:19Z</time>
      </trkpt>
      <trkpt lat="41.83746" lon="9.21205">
        <ele>1434.83</ele>
        <time>2019-09-09T09:03:06Z</time>
      </trkpt>
      <trkpt lat="41.83746" lon="9.21211">
        <ele>1432.83</ele>
        <time>2019-09-09T09:02:52Z</time>
      </trkpt>
      <trkpt lat="41.83745" lon="9.21213">
        <ele>1431.29</ele>
        <time>2019-09-09T09:02:39Z</time>
      </trkpt>
      <trkpt lat="41.83743" lon="9.21215">
        <ele>1430.04</ele>
        <time>2019-09-09T09:02:26Z</time>
      </trkpt>
      <trkpt lat="41.83741" lon="9.2122">
        <ele>1428.74</ele>
        <time>2019-09-09T09:02:13Z</time>
      </trkpt>
      <trkpt lat="41.83743" lon="9.21232">
        <ele>1427.28</ele>
        <time>2019-09-09T09:01:58Z</time>
      </trkpt>
      <trkpt lat="41.83743" lon="9.21249">
        <ele>1427</ele>
        <time>2019-09-09T09:01:44Z</time>
      </trkpt>
      <trkpt lat="41.83744" lon="9.21264">
        <ele>1426.23</ele>
        <time>2019-09-09T09:01:28Z</time>
      </trkpt>
      <trkpt lat="41.83739" lon="9.21271">
        <ele>1425.01</ele>
        <time>2019-09-09T09:01:14Z</time>
      </trkpt>
      <trkpt lat="41.83734" lon="9.21281">
        <ele>1423.63</ele>
        <time>2019-09-09T09:01:00Z</time>
      </trkpt>
      <trkpt lat="41.83729" lon="9.2129">
        <ele>1421.94</ele>
        <time>2019-09-09T09:00:45Z</time>
      </trkpt>
      <trkpt lat="41.83724" lon="9.21293">
        <ele>1420.42</ele>
        <time>2019-09-09T09:00:33Z</time>
      </trkpt>
      <trkpt lat="41.83718" lon="9.21298">
        <ele>1418.41</ele>
        <time>2019-09-09T09:00:19Z</time>
      </trkpt>
      <trkpt lat="41.83712" lon="9.21302">
        <ele>1416.45</ele>
        <time>2019-09-09T09:00:05Z</time>
      </trkpt>
      <trkpt lat="41.83707" lon="9.21302">
        <ele>1414.57</ele>
        <time>2019-09-09T08:59:51Z</time>
      </trkpt>
      <trkpt lat="41.83704" lon="9.21307">
        <ele>1413.28</ele>
        <time>2019-09-09T08:59:36Z</time>
      </trkpt>
      <trkpt lat="41.83697" lon="9.21313">
        <ele>1411.42</ele>
        <time>2019-09-09T08:59:21Z</time>
      </trkpt>
      <trkpt lat="41.83691" lon="9.2132">
        <ele>1408.87</ele>
        <time>2019-09-09T08:59:03Z</time>
      </trkpt>
      <trkpt lat="41.83685" lon="9.21329">
        <ele>1407.1</ele>
        <time>2019-09-09T08:58:47Z</time>
      </trkpt>
      <trkpt lat="41.83681" lon="9.21337">
        <ele>1404.69</ele>
        <time>2019-09-09T08:58:30Z</time>
      </trkpt>
      <trkpt lat="41.83675" lon="9.21344">
        <ele>1400.9</ele>
        <time>2019-09-09T08:58:16Z</time>
      </trkpt>
      <trkpt lat="41.8367" lon="9.21349">
        <ele>1399.27</ele>
        <time>2019-09-09T08:58:03Z</time>
      </trkpt>
      <trkpt lat="41.83666" lon="9.21342">
        <ele>1397.48</ele>
        <time>2019-09-09T08:57:48Z</time>
      </trkpt>
      <trkpt lat="41.8366" lon="9.21348">
        <ele>1396.51</ele>
        <time>2019-09-09T08:57:33Z</time>
      </trkpt>
      <trkpt lat="41.83653" lon="9.21351">
        <ele>1394.2</ele>
        <time>2019-09-09T08:57:13Z</time>
      </trkpt>
      <trkpt lat="41.83647" lon="9.21356">
        <ele>1390.8</ele>
        <time>2019-09-09T08:56:54Z</time>
      </trkpt>
      <trkpt lat="41.83638" lon="9.21361">
        <ele>1387.68</ele>
        <time>2019-09-09T08:56:36Z</time>
      </trkpt>
      <trkpt lat="41.83629" lon="9.21367">
        <ele>1385.19</ele>
        <time>2019-09-09T08:56:18Z</time>
      </trkpt>
      <trkpt lat="41.83622" lon="9.21365">
        <ele>1382.53</ele>
        <time>2019-09-09T08:55:58Z</time>
      </trkpt>
      <trkpt lat="41.83617" lon="9.21371">
        <ele>1381.99</ele>
        <time>2019-09-09T08:55:42Z</time>
      </trkpt>
      <trkpt lat="41.83609" lon="9.21374">
        <ele>1381.62</ele>
        <time>2019-09-09T08:55:23Z</time>
      </trkpt>
      <trkpt lat="41.83604" lon="9.21371">
        <ele>1382.82</ele>
        <time>2019-09-09T08:55:05Z</time>
      </trkpt>
      <trkpt lat="41.83597" lon="9.21372">
        <ele>1381.08</ele>
        <time>2019-09-09T08:54:47Z</time>
      </trkpt>
      <trkpt lat="41.83588" lon="9.2138">
        <ele>1378.46</ele>
        <time>2019-09-09T08:54:24Z</time>
      </trkpt>
      <trkpt lat="41.8358" lon="9.21382">
        <ele>1375.88</ele>
        <time>2019-09-09T08:54:04Z</time>
      </trkpt>
      <trkpt lat="41.83569" lon="9.21382">
        <ele>1371.59</ele>
        <time>2019-09-09T08:53:41Z</time>
      </trkpt>
      <trkpt lat="41.83562" lon="9.2138">
        <ele>1369.45</ele>
        <time>2019-09-09T08:53:26Z</time>
      </trkpt>
      <trkpt lat="41.83555" lon="9.21381">
        <ele>1368.4</ele>
        <time>2019-09-09T08:53:10Z</time>
      </trkpt>
      <trkpt lat="41.83548" lon="9.21386">
        <ele>1365.9</ele>
        <time>2019-09-09T08:52:52Z</time>
      </trkpt>
      <trkpt lat="41.8354" lon="9.21388">
        <ele>1363.83</ele>
        <time>2019-09-09T08:52:35Z</time>
      </trkpt>
      <trkpt lat="41.83532" lon="9.2139">
        <ele>1362.53</ele>
        <time>2019-09-09T08:52:20Z</time>
      </trkpt>
      <trkpt lat="41.83525" lon="9.21391">
        <ele>1358.81</ele>
        <time>2019-09-09T08:52:06Z</time>
      </trkpt>
      <trkpt lat="41.83517" lon="9.21391">
        <ele>1356.99</ele>
        <time>2019-09-09T08:51:51Z</time>
      </trkpt>
      <trkpt lat="41.83511" lon="9.21387">
        <ele>1355.44</ele>
        <time>2019-09-09T08:51:37Z</time>
      </trkpt>
      <trkpt lat="41.83504" lon="9.21385">
        <ele>1353.01</ele>
        <time>2019-09-09T08:51:23Z</time>
      </trkpt>
      <trkpt lat="41.83499" lon="9.21379">
        <ele>1351.37</ele>
        <time>2019-09-09T08:51:10Z</time>
      </trkpt>
      <trkpt lat="41.83491" lon="9.21381">
        <ele>1348.68</ele>
        <time>2019-09-09T08:50:55Z</time>
      </trkpt>
      <trkpt lat="41.83484" lon="9.21387">
        <ele>1346.43</ele>
        <time>2019-09-09T08:50:42Z</time>
      </trkpt>
      <trkpt lat="41.83482" lon="9.21395">
        <ele>1344.71</ele>
        <time>2019-09-09T08:50:30Z</time>
      </trkpt>
      <trkpt lat="41.83481" lon="9.21395">
        <ele>1344.37</ele>
        <time>2019-09-09T08:50:28Z</time>
      </trkpt>
      <trkpt lat="41.83479" lon="9.214">
        <ele>1343.16</ele>
        <time>2019-09-09T08:50:14Z</time>
      </trkpt>
      <trkpt lat="41.83472" lon="9.21403">
        <ele>1340.97</ele>
        <time>2019-09-09T08:49:59Z</time>
      </trkpt>
      <trkpt lat="41.83466" lon="9.21403">
        <ele>1339.52</ele>
        <time>2019-09-09T08:49:45Z</time>
      </trkpt>
      <trkpt lat="41.8346" lon="9.21401">
        <ele>1338.05</ele>
        <time>2019-09-09T08:49:31Z</time>
      </trkpt>
      <trkpt lat="41.83457" lon="9.21403">
        <ele>1337.16</ele>
        <time>2019-09-09T08:49:18Z</time>
      </trkpt>
      <trkpt lat="41.83456" lon="9.21405">
        <ele>1337.05</ele>
        <time>2019-09-09T08:48:49Z</time>
      </trkpt>
      <trkpt lat="41.83456" lon="9.21405">
        <ele>1337.99</ele>
        <time>2019-09-09T08:48:32Z</time>
      </trkpt>
      <trkpt lat="41.83457" lon="9.21405">
        <ele>1338.11</ele>
        <time>2019-09-09T08:48:06Z</time>
      </trkpt>
      <trkpt lat="41.83456" lon="9.21409">
        <ele>1338.66</ele>
        <time>2019-09-09T08:47:52Z</time>
      </trkpt>
      <trkpt lat="41.83458" lon="9.21413">
        <ele>1337.96</ele>
        <time>2019-09-09T08:47:37Z</time>
      </trkpt>
      <trkpt lat="41.8346" lon="9.21415">
        <ele>1336.4</ele>
        <time>2019-09-09T08:47:24Z</time>
      </trkpt>
      <trkpt lat="41.83462" lon="9.21419">
        <ele>1334.94</ele>
        <time>2019-09-09T08:47:11Z</time>
      </trkpt>
      <trkpt lat="41.83464" lon="9.21424">
        <ele>1333.72</ele>
        <time>2019-09-09T08:46:56Z</time>
      </trkpt>
      <trkpt lat="41.83462" lon="9.21431">
        <ele>1335.55</ele>
        <time>2019-09-09T08:46:42Z</time>
      </trkpt>
      <trkpt lat="41.83465" lon="9.21437">
        <ele>1335.21</ele>
        <time>2019-09-09T08:46:28Z</time>
      </trkpt>
      <trkpt lat="41.83465" lon="9.21448">
        <ele>1336.86</ele>
        <time>2019-09-09T08:46:09Z</time>
      </trkpt>
      <trkpt lat="41.83459" lon="9.21451">
        <ele>1337.85</ele>
        <time>2019-09-09T08:45:55Z</time>
      </trkpt>
      <trkpt lat="41.83449" lon="9.21455">
        <ele>1339.28</ele>
        <time>2019-09-09T08:45:41Z</time>
      </trkpt>
      <trkpt lat="41.83448" lon="9.21456">
        <ele>1339.4</ele>
        <time>2019-09-09T08:45:40Z</time>
      </trkpt>
      <trkpt lat="41.83435" lon="9.21462">
        <ele>1340.83</ele>
        <time>2019-09-09T08:45:22Z</time>
      </trkpt>
      <trkpt lat="41.83432" lon="9.21462">
        <ele>1340.86</ele>
        <time>2019-09-09T08:45:20Z</time>
      </trkpt>
      <trkpt lat="41.83423" lon="9.21462">
        <ele>1338.95</ele>
        <time>2019-09-09T08:45:06Z</time>
      </trkpt>
      <trkpt lat="41.83417" lon="9.21467">
        <ele>1337.49</ele>
        <time>2019-09-09T08:44:54Z</time>
      </trkpt>
      <trkpt lat="41.83407" lon="9.21462">
        <ele>1335.99</ele>
        <time>2019-09-09T08:44:38Z</time>
      </trkpt>
      <trkpt lat="41.83398" lon="9.2146">
        <ele>1337.25</ele>
        <time>2019-09-09T08:44:22Z</time>
      </trkpt>
      <trkpt lat="41.8339" lon="9.21464">
        <ele>1335.58</ele>
        <time>2019-09-09T08:44:09Z</time>
      </trkpt>
      <trkpt lat="41.83383" lon="9.21464">
        <ele>1336.94</ele>
        <time>2019-09-09T08:43:54Z</time>
      </trkpt>
      <trkpt lat="41.83375" lon="9.21462">
        <ele>1338.77</ele>
        <time>2019-09-09T08:43:39Z</time>
      </trkpt>
      <trkpt lat="41.83369" lon="9.2146">
        <ele>1337.7</ele>
        <time>2019-09-09T08:43:27Z</time>
      </trkpt>
      <trkpt lat="41.83358" lon="9.21457">
        <ele>1339.91</ele>
        <time>2019-09-09T08:43:12Z</time>
      </trkpt>
      <trkpt lat="41.83353" lon="9.21452">
        <ele>1339.83</ele>
        <time>2019-09-09T08:43:02Z</time>
      </trkpt>
      <trkpt lat="41.83348" lon="9.21446">
        <ele>1339.9</ele>
        <time>2019-09-09T08:42:49Z</time>
      </trkpt>
      <trkpt lat="41.83345" lon="9.21436">
        <ele>1341.32</ele>
        <time>2019-09-09T08:42:28Z</time>
      </trkpt>
      <trkpt lat="41.83335" lon="9.21433">
        <ele>1343.25</ele>
        <time>2019-09-09T08:42:14Z</time>
      </trkpt>
      <trkpt lat="41.83328" lon="9.21429">
        <ele>1343.06</ele>
        <time>2019-09-09T08:42:00Z</time>
      </trkpt>
      <trkpt lat="41.83314" lon="9.21419">
        <ele>1343.88</ele>
        <time>2019-09-09T08:41:38Z</time>
      </trkpt>
      <trkpt lat="41.83304" lon="9.21412">
        <ele>1342.16</ele>
        <time>2019-09-09T08:41:21Z</time>
      </trkpt>
      <trkpt lat="41.83301" lon="9.21406">
        <ele>1341.76</ele>
        <time>2019-09-09T08:41:14Z</time>
      </trkpt>
      <trkpt lat="41.8329" lon="9.214">
        <ele>1341.08</ele>
        <time>2019-09-09T08:40:55Z</time>
      </trkpt>
      <trkpt lat="41.83279" lon="9.21392">
        <ele>1339.35</ele>
        <time>2019-09-09T08:40:36Z</time>
      </trkpt>
      <trkpt lat="41.83268" lon="9.21381">
        <ele>1338.37</ele>
        <time>2019-09-09T08:40:17Z</time>
      </trkpt>
      <trkpt lat="41.83261" lon="9.21368">
        <ele>1337.22</ele>
        <time>2019-09-09T08:39:58Z</time>
      </trkpt>
      <trkpt lat="41.83252" lon="9.21357">
        <ele>1334.97</ele>
        <time>2019-09-09T08:39:39Z</time>
      </trkpt>
      <trkpt lat="41.83243" lon="9.2135">
        <ele>1331.92</ele>
        <time>2019-09-09T08:39:21Z</time>
      </trkpt>
      <trkpt lat="41.83233" lon="9.21341">
        <ele>1330.05</ele>
        <time>2019-09-09T08:39:04Z</time>
      </trkpt>
      <trkpt lat="41.83219" lon="9.21338">
        <ele>1329.38</ele>
        <time>2019-09-09T08:38:46Z</time>
      </trkpt>
      <trkpt lat="41.83217" lon="9.21337">
        <ele>1329.34</ele>
        <time>2019-09-09T08:38:44Z</time>
      </trkpt>
      <trkpt lat="41.83207" lon="9.21339">
        <ele>1329.7</ele>
        <time>2019-09-09T08:38:28Z</time>
      </trkpt>
      <trkpt lat="41.83199" lon="9.21339">
        <ele>1329.8</ele>
        <time>2019-09-09T08:38:12Z</time>
      </trkpt>
      <trkpt lat="41.8319" lon="9.21337">
        <ele>1330.59</ele>
        <time>2019-09-09T08:37:56Z</time>
      </trkpt>
      <trkpt lat="41.83183" lon="9.21335">
        <ele>1332.8</ele>
        <time>2019-09-09T08:37:41Z</time>
      </trkpt>
      <trkpt lat="41.83176" lon="9.21331">
        <ele>1335.07</ele>
        <time>2019-09-09T08:37:27Z</time>
      </trkpt>
      <trkpt lat="41.83169" lon="9.2133">
        <ele>1335.41</ele>
        <time>2019-09-09T08:37:13Z</time>
      </trkpt>
      <trkpt lat="41.83161" lon="9.21327">
        <ele>1335.57</ele>
        <time>2019-09-09T08:36:59Z</time>
      </trkpt>
      <trkpt lat="41.83154" lon="9.2133">
        <ele>1336.44</ele>
        <time>2019-09-09T08:36:41Z</time>
      </trkpt>
      <trkpt lat="41.83146" lon="9.21324">
        <ele>1338.66</ele>
        <time>2019-09-09T08:36:24Z</time>
      </trkpt>
      <trkpt lat="41.8314" lon="9.21327">
        <ele>1340.1</ele>
        <time>2019-09-09T08:36:08Z</time>
      </trkpt>
      <trkpt lat="41.83133" lon="9.21328">
        <ele>1341.91</ele>
        <time>2019-09-09T08:35:51Z</time>
      </trkpt>
      <trkpt lat="41.83123" lon="9.21324">
        <ele>1340.61</ele>
        <time>2019-09-09T08:35:32Z</time>
      </trkpt>
      <trkpt lat="41.83114" lon="9.21323">
        <ele>1338.46</ele>
        <time>2019-09-09T08:35:17Z</time>
      </trkpt>
      <trkpt lat="41.83105" lon="9.21315">
        <ele>1336.83</ele>
        <time>2019-09-09T08:35:02Z</time>
      </trkpt>
      <trkpt lat="41.83106" lon="9.213">
        <ele>1337.34</ele>
        <time>2019-09-09T08:34:47Z</time>
      </trkpt>
      <trkpt lat="41.831" lon="9.21287">
        <ele>1340.19</ele>
        <time>2019-09-09T08:34:30Z</time>
      </trkpt>
      <trkpt lat="41.83101" lon="9.21283">
        <ele>1340.84</ele>
        <time>2019-09-09T08:34:16Z</time>
      </trkpt>
      <trkpt lat="41.83102" lon="9.21278">
        <ele>1340.74</ele>
        <time>2019-09-09T08:34:00Z</time>
      </trkpt>
      <trkpt lat="41.83103" lon="9.21274">
        <ele>1340.76</ele>
        <time>2019-09-09T08:33:41Z</time>
      </trkpt>
      <trkpt lat="41.83103" lon="9.21276">
        <ele>1342.18</ele>
        <time>2019-09-09T08:32:58Z</time>
      </trkpt>
      <trkpt lat="41.83103" lon="9.21275">
        <ele>1342.91</ele>
        <time>2019-09-09T08:32:24Z</time>
      </trkpt>
      <trkpt lat="41.83103" lon="9.21278">
        <ele>1342.32</ele>
        <time>2019-09-09T08:31:14Z</time>
      </trkpt>
      <trkpt lat="41.83105" lon="9.2128">
        <ele>1344.47</ele>
        <time>2019-09-09T08:30:31Z</time>
      </trkpt>
      <trkpt lat="41.83104" lon="9.21278">
        <ele>1345.72</ele>
        <time>2019-09-09T08:30:17Z</time>
      </trkpt>
      <trkpt lat="41.831" lon="9.2128">
        <ele>1346.23</ele>
        <time>2019-09-09T08:30:03Z</time>
      </trkpt>
      <trkpt lat="41.83084" lon="9.21268">
        <ele>1347.73</ele>
        <time>2019-09-09T08:29:45Z</time>
      </trkpt>
      <trkpt lat="41.83084" lon="9.21268">
        <ele>1348.11</ele>
        <time>2019-09-09T08:29:44Z</time>
      </trkpt>
      <trkpt lat="41.83072" lon="9.21259">
        <ele>1350.9</ele>
        <time>2019-09-09T08:29:27Z</time>
      </trkpt>
      <trkpt lat="41.83053" lon="9.21255">
        <ele>1352.28</ele>
        <time>2019-09-09T08:29:09Z</time>
      </trkpt>
      <trkpt lat="41.83047" lon="9.21248">
        <ele>1353.88</ele>
        <time>2019-09-09T08:29:00Z</time>
      </trkpt>
      <trkpt lat="41.83038" lon="9.21245">
        <ele>1355.92</ele>
        <time>2019-09-09T08:28:46Z</time>
      </trkpt>
      <trkpt lat="41.83025" lon="9.21241">
        <ele>1352.04</ele>
        <time>2019-09-09T08:28:32Z</time>
      </trkpt>
      <trkpt lat="41.83023" lon="9.21242">
        <ele>1351.96</ele>
        <time>2019-09-09T08:28:30Z</time>
      </trkpt>
      <trkpt lat="41.8301" lon="9.21242">
        <ele>1351.82</ele>
        <time>2019-09-09T08:28:12Z</time>
      </trkpt>
      <trkpt lat="41.82998" lon="9.21246">
        <ele>1352.18</ele>
        <time>2019-09-09T08:27:56Z</time>
      </trkpt>
      <trkpt lat="41.8299" lon="9.21247">
        <ele>1350.47</ele>
        <time>2019-09-09T08:27:42Z</time>
      </trkpt>
      <trkpt lat="41.82983" lon="9.21248">
        <ele>1347.26</ele>
        <time>2019-09-09T08:27:27Z</time>
      </trkpt>
      <trkpt lat="41.82979" lon="9.21251">
        <ele>1347.78</ele>
        <time>2019-09-09T08:27:15Z</time>
      </trkpt>
      <trkpt lat="41.82971" lon="9.21253">
        <ele>1349.79</ele>
        <time>2019-09-09T08:26:58Z</time>
      </trkpt>
      <trkpt lat="41.82962" lon="9.21252">
        <ele>1353.95</ele>
        <time>2019-09-09T08:26:38Z</time>
      </trkpt>
      <trkpt lat="41.82953" lon="9.21249">
        <ele>1358.15</ele>
        <time>2019-09-09T08:26:19Z</time>
      </trkpt>
      <trkpt lat="41.82949" lon="9.21248">
        <ele>1361.32</ele>
        <time>2019-09-09T08:26:02Z</time>
      </trkpt>
      <trkpt lat="41.82944" lon="9.21243">
        <ele>1364.9</ele>
        <time>2019-09-09T08:25:45Z</time>
      </trkpt>
      <trkpt lat="41.82936" lon="9.21232">
        <ele>1367.31</ele>
        <time>2019-09-09T08:25:33Z</time>
      </trkpt>
      <trkpt lat="41.82927" lon="9.21221">
        <ele>1370.33</ele>
        <time>2019-09-09T08:25:14Z</time>
      </trkpt>
      <trkpt lat="41.82918" lon="9.21218">
        <ele>1373.19</ele>
        <time>2019-09-09T08:24:59Z</time>
      </trkpt>
      <trkpt lat="41.82917" lon="9.21218">
        <ele>1373.58</ele>
        <time>2019-09-09T08:24:58Z</time>
      </trkpt>
      <trkpt lat="41.82906" lon="9.21218">
        <ele>1375.18</ele>
        <time>2019-09-09T08:24:39Z</time>
      </trkpt>
      <trkpt lat="41.82896" lon="9.21209">
        <ele>1377.79</ele>
        <time>2019-09-09T08:24:22Z</time>
      </trkpt>
      <trkpt lat="41.8288" lon="9.21201">
        <ele>1380.25</ele>
        <time>2019-09-09T08:24:00Z</time>
      </trkpt>
      <trkpt lat="41.82864" lon="9.21195">
        <ele>1381.12</ele>
        <time>2019-09-09T08:23:39Z</time>
      </trkpt>
      <trkpt lat="41.82851" lon="9.21192">
        <ele>1379.88</ele>
        <time>2019-09-09T08:23:24Z</time>
      </trkpt>
      <trkpt lat="41.82838" lon="9.21192">
        <ele>1376.15</ele>
        <time>2019-09-09T08:23:08Z</time>
      </trkpt>
      <trkpt lat="41.82833" lon="9.21188">
        <ele>1376.25</ele>
        <time>2019-09-09T08:23:02Z</time>
      </trkpt>
      <trkpt lat="41.82831" lon="9.21187">
        <ele>1376.99</ele>
        <time>2019-09-09T08:22:59Z</time>
      </trkpt>
      <trkpt lat="41.82822" lon="9.21185">
        <ele>1379.18</ele>
        <time>2019-09-09T08:22:51Z</time>
      </trkpt>
      <trkpt lat="41.82805" lon="9.21192">
        <ele>1386.09</ele>
        <time>2019-09-09T08:22:33Z</time>
      </trkpt>
      <trkpt lat="41.82798" lon="9.21199">
        <ele>1389.36</ele>
        <time>2019-09-09T08:22:25Z</time>
      </trkpt>
      <trkpt lat="41.82788" lon="9.21222">
        <ele>1391.49</ele>
        <time>2019-09-09T08:22:09Z</time>
      </trkpt>
      <trkpt lat="41.82777" lon="9.21231">
        <ele>1389.11</ele>
        <time>2019-09-09T08:21:55Z</time>
      </trkpt>
      <trkpt lat="41.82763" lon="9.21234">
        <ele>1389.31</ele>
        <time>2019-09-09T08:21:37Z</time>
      </trkpt>
      <trkpt lat="41.82761" lon="9.21234">
        <ele>1389.35</ele>
        <time>2019-09-09T08:21:35Z</time>
      </trkpt>
      <trkpt lat="41.82753" lon="9.21243">
        <ele>1389.68</ele>
        <time>2019-09-09T08:21:17Z</time>
      </trkpt>
      <trkpt lat="41.82746" lon="9.21252">
        <ele>1390.79</ele>
        <time>2019-09-09T08:20:59Z</time>
      </trkpt>
      <trkpt lat="41.82736" lon="9.21263">
        <ele>1390.83</ele>
        <time>2019-09-09T08:20:40Z</time>
      </trkpt>
      <trkpt lat="41.82734" lon="9.21268">
        <ele>1391.63</ele>
        <time>2019-09-09T08:20:22Z</time>
      </trkpt>
      <trkpt lat="41.82733" lon="9.21279">
        <ele>1393.33</ele>
        <time>2019-09-09T08:19:59Z</time>
      </trkpt>
      <trkpt lat="41.82731" lon="9.21282">
        <ele>1393.7</ele>
        <time>2019-09-09T08:19:42Z</time>
      </trkpt>
      <trkpt lat="41.8273" lon="9.21292">
        <ele>1396.03</ele>
        <time>2019-09-09T08:19:24Z</time>
      </trkpt>
      <trkpt lat="41.82722" lon="9.21298">
        <ele>1396.28</ele>
        <time>2019-09-09T08:19:06Z</time>
      </trkpt>
      <trkpt lat="41.82715" lon="9.21302">
        <ele>1396.27</ele>
        <time>2019-09-09T08:18:45Z</time>
      </trkpt>
      <trkpt lat="41.82709" lon="9.213">
        <ele>1395.67</ele>
        <time>2019-09-09T08:18:28Z</time>
      </trkpt>
      <trkpt lat="41.82706" lon="9.21296">
        <ele>1396.23</ele>
        <time>2019-09-09T08:18:14Z</time>
      </trkpt>
      <trkpt lat="41.82708" lon="9.21298">
        <ele>1397.34</ele>
        <time>2019-09-09T08:17:49Z</time>
      </trkpt>
      <trkpt lat="41.82705" lon="9.21297">
        <ele>1399.21</ele>
        <time>2019-09-09T08:17:24Z</time>
      </trkpt>
      <trkpt lat="41.82703" lon="9.21294">
        <ele>1404.81</ele>
        <time>2019-09-09T08:16:55Z</time>
      </trkpt>
      <trkpt lat="41.82702" lon="9.21296">
        <ele>1404.12</ele>
        <time>2019-09-09T08:16:30Z</time>
      </trkpt>
      <trkpt lat="41.82704" lon="9.21298">
        <ele>1403.78</ele>
        <time>2019-09-09T08:15:57Z</time>
      </trkpt>
      <trkpt lat="41.82707" lon="9.21296">
        <ele>1405.4</ele>
        <time>2019-09-09T08:15:28Z</time>
      </trkpt>
      <trkpt lat="41.82703" lon="9.21298">
        <ele>1408.18</ele>
        <time>2019-09-09T08:15:00Z</time>
      </trkpt>
      <trkpt lat="41.82702" lon="9.21297">
        <ele>1411.8</ele>
        <time>2019-09-09T08:14:37Z</time>
      </trkpt>
      <trkpt lat="41.82696" lon="9.21293">
        <ele>1418.45</ele>
        <time>2019-09-09T08:14:18Z</time>
      </trkpt>
      <trkpt lat="41.82683" lon="9.21285">
        <ele>1420.1</ele>
        <time>2019-09-09T08:13:58Z</time>
      </trkpt>
      <trkpt lat="41.82674" lon="9.2128">
        <ele>1420.97</ele>
        <time>2019-09-09T08:13:40Z</time>
      </trkpt>
      <trkpt lat="41.8266" lon="9.21261">
        <ele>1422.07</ele>
        <time>2019-09-09T08:13:21Z</time>
      </trkpt>
      <trkpt lat="41.82651" lon="9.21241">
        <ele>1421.79</ele>
        <time>2019-09-09T08:13:00Z</time>
      </trkpt>
      <trkpt lat="41.82645" lon="9.21226">
        <ele>1423.7</ele>
        <time>2019-09-09T08:12:48Z</time>
      </trkpt>
      <trkpt lat="41.82634" lon="9.21209">
        <ele>1425.16</ele>
        <time>2019-09-09T08:12:32Z</time>
      </trkpt>
      <trkpt lat="41.82624" lon="9.21196">
        <ele>1424.63</ele>
        <time>2019-09-09T08:12:18Z</time>
      </trkpt>
      <trkpt lat="41.82603" lon="9.21186">
        <ele>1424.04</ele>
        <time>2019-09-09T08:12:00Z</time>
      </trkpt>
      <trkpt lat="41.82587" lon="9.21179">
        <ele>1421.21</ele>
        <time>2019-09-09T08:11:44Z</time>
      </trkpt>
      <trkpt lat="41.8257" lon="9.21175">
        <ele>1421.29</ele>
        <time>2019-09-09T08:11:28Z</time>
      </trkpt>
      <trkpt lat="41.82559" lon="9.21172">
        <ele>1421.7</ele>
        <time>2019-09-09T08:11:18Z</time>
      </trkpt>
      <trkpt lat="41.82555" lon="9.21173">
        <ele>1420.79</ele>
        <time>2019-09-09T08:11:14Z</time>
      </trkpt>
      <trkpt lat="41.82543" lon="9.21165">
        <ele>1417.19</ele>
        <time>2019-09-09T08:10:58Z</time>
      </trkpt>
      <trkpt lat="41.8253" lon="9.21154">
        <ele>1415.88</ele>
        <time>2019-09-09T08:10:45Z</time>
      </trkpt>
      <trkpt lat="41.82512" lon="9.21145">
        <ele>1414.44</ele>
        <time>2019-09-09T08:10:28Z</time>
      </trkpt>
      <trkpt lat="41.82493" lon="9.21137">
        <ele>1412.95</ele>
        <time>2019-09-09T08:10:11Z</time>
      </trkpt>
      <trkpt lat="41.82475" lon="9.21128">
        <ele>1410.65</ele>
        <time>2019-09-09T08:09:54Z</time>
      </trkpt>
      <trkpt lat="41.82457" lon="9.2112">
        <ele>1406.97</ele>
        <time>2019-09-09T08:09:36Z</time>
      </trkpt>
      <trkpt lat="41.82451" lon="9.21117">
        <ele>1406.51</ele>
        <time>2019-09-09T08:09:31Z</time>
      </trkpt>
      <trkpt lat="41.82436" lon="9.21115">
        <ele>1403.28</ele>
        <time>2019-09-09T08:09:18Z</time>
      </trkpt>
      <trkpt lat="41.82417" lon="9.21111">
        <ele>1401.6</ele>
        <time>2019-09-09T08:09:01Z</time>
      </trkpt>
      <trkpt lat="41.82401" lon="9.21103">
        <ele>1401.62</ele>
        <time>2019-09-09T08:08:43Z</time>
      </trkpt>
      <trkpt lat="41.82383" lon="9.21098">
        <ele>1407.41</ele>
        <time>2019-09-09T08:08:23Z</time>
      </trkpt>
      <trkpt lat="41.82365" lon="9.21099">
        <ele>1410.48</ele>
        <time>2019-09-09T08:08:08Z</time>
      </trkpt>
      <trkpt lat="41.82348" lon="9.21098">
        <ele>1408.32</ele>
        <time>2019-09-09T08:07:50Z</time>
      </trkpt>
      <trkpt lat="41.82331" lon="9.211">
        <ele>1405.52</ele>
        <time>2019-09-09T08:07:35Z</time>
      </trkpt>
      <trkpt lat="41.82325" lon="9.21102">
        <ele>1404.48</ele>
        <time>2019-09-09T08:07:30Z</time>
      </trkpt>
      <trkpt lat="41.82309" lon="9.21106">
        <ele>1403.54</ele>
        <time>2019-09-09T08:07:13Z</time>
      </trkpt>
      <trkpt lat="41.82298" lon="9.21102">
        <ele>1403.89</ele>
        <time>2019-09-09T08:06:54Z</time>
      </trkpt>
      <trkpt lat="41.82293" lon="9.21097">
        <ele>1404.01</ele>
        <time>2019-09-09T08:06:37Z</time>
      </trkpt>
      <trkpt lat="41.82282" lon="9.21081">
        <ele>1399.4</ele>
        <time>2019-09-09T08:06:18Z</time>
      </trkpt>
      <trkpt lat="41.8227" lon="9.21064">
        <ele>1395.55</ele>
        <time>2019-09-09T08:06:00Z</time>
      </trkpt>
      <trkpt lat="41.82257" lon="9.21052">
        <ele>1393.38</ele>
        <time>2019-09-09T08:05:44Z</time>
      </trkpt>
      <trkpt lat="41.82254" lon="9.21046">
        <ele>1392.81</ele>
        <time>2019-09-09T08:05:39Z</time>
      </trkpt>
      <trkpt lat="41.82245" lon="9.21037">
        <ele>1391.54</ele>
        <time>2019-09-09T08:05:26Z</time>
      </trkpt>
      <trkpt lat="41.82231" lon="9.21029">
        <ele>1390.64</ele>
        <time>2019-09-09T08:05:09Z</time>
      </trkpt>
      <trkpt lat="41.82218" lon="9.21018">
        <ele>1390.56</ele>
        <time>2019-09-09T08:04:52Z</time>
      </trkpt>
      <trkpt lat="41.82207" lon="9.21007">
        <ele>1390.25</ele>
        <time>2019-09-09T08:04:37Z</time>
      </trkpt>
      <trkpt lat="41.82199" lon="9.21">
        <ele>1388.6</ele>
        <time>2019-09-09T08:04:24Z</time>
      </trkpt>
      <trkpt lat="41.82189" lon="9.20989">
        <ele>1387.16</ele>
        <time>2019-09-09T08:04:09Z</time>
      </trkpt>
      <trkpt lat="41.82178" lon="9.20982">
        <ele>1386.98</ele>
        <time>2019-09-09T08:03:49Z</time>
      </trkpt>
      <trkpt lat="41.82163" lon="9.20978">
        <ele>1383.24</ele>
        <time>2019-09-09T08:03:31Z</time>
      </trkpt>
      <trkpt lat="41.82149" lon="9.20973">
        <ele>1380.73</ele>
        <time>2019-09-09T08:03:13Z</time>
      </trkpt>
      <trkpt lat="41.82135" lon="9.20978">
        <ele>1378.45</ele>
        <time>2019-09-09T08:02:56Z</time>
      </trkpt>
      <trkpt lat="41.82127" lon="9.20976">
        <ele>1377.45</ele>
        <time>2019-09-09T08:02:48Z</time>
      </trkpt>
      <trkpt lat="41.82122" lon="9.20976">
        <ele>1378.19</ele>
        <time>2019-09-09T08:02:44Z</time>
      </trkpt>
      <trkpt lat="41.82111" lon="9.20975">
        <ele>1377.6</ele>
        <time>2019-09-09T08:02:30Z</time>
      </trkpt>
      <trkpt lat="41.82098" lon="9.20979">
        <ele>1376.88</ele>
        <time>2019-09-09T08:02:12Z</time>
      </trkpt>
      <trkpt lat="41.82086" lon="9.20977">
        <ele>1375.63</ele>
        <time>2019-09-09T08:01:52Z</time>
      </trkpt>
      <trkpt lat="41.82077" lon="9.20972">
        <ele>1372.1</ele>
        <time>2019-09-09T08:01:37Z</time>
      </trkpt>
      <trkpt lat="41.82063" lon="9.20961">
        <ele>1370.1</ele>
        <time>2019-09-09T08:01:22Z</time>
      </trkpt>
      <trkpt lat="41.82053" lon="9.20954">
        <ele>1369.03</ele>
        <time>2019-09-09T08:01:10Z</time>
      </trkpt>
      <trkpt lat="41.82034" lon="9.20952">
        <ele>1368.6</ele>
        <time>2019-09-09T08:00:54Z</time>
      </trkpt>
      <trkpt lat="41.82027" lon="9.20954">
        <ele>1369.49</ele>
        <time>2019-09-09T08:00:48Z</time>
      </trkpt>
      <trkpt lat="41.8202" lon="9.20956">
        <ele>1369.32</ele>
        <time>2019-09-09T08:00:41Z</time>
      </trkpt>
      <trkpt lat="41.82007" lon="9.20955">
        <ele>1366.72</ele>
        <time>2019-09-09T08:00:21Z</time>
      </trkpt>
      <trkpt lat="41.81992" lon="9.20953">
        <ele>1366.13</ele>
        <time>2019-09-09T08:00:03Z</time>
      </trkpt>
      <trkpt lat="41.81983" lon="9.20954">
        <ele>1364.26</ele>
        <time>2019-09-09T07:59:44Z</time>
      </trkpt>
      <trkpt lat="41.81973" lon="9.20955">
        <ele>1363.83</ele>
        <time>2019-09-09T07:59:29Z</time>
      </trkpt>
      <trkpt lat="41.81959" lon="9.20955">
        <ele>1361.05</ele>
        <time>2019-09-09T07:59:13Z</time>
      </trkpt>
      <trkpt lat="41.81958" lon="9.20955">
        <ele>1361.03</ele>
        <time>2019-09-09T07:59:12Z</time>
      </trkpt>
      <trkpt lat="41.81943" lon="9.20959">
        <ele>1361.5</ele>
        <time>2019-09-09T07:58:56Z</time>
      </trkpt>
      <trkpt lat="41.81938" lon="9.20959">
        <ele>1361.31</ele>
        <time>2019-09-09T07:58:51Z</time>
      </trkpt>
      <trkpt lat="41.81923" lon="9.20957">
        <ele>1359.06</ele>
        <time>2019-09-09T07:58:36Z</time>
      </trkpt>
      <trkpt lat="41.81909" lon="9.20965">
        <ele>1356.63</ele>
        <time>2019-09-09T07:58:17Z</time>
      </trkpt>
      <trkpt lat="41.81901" lon="9.20969">
        <ele>1355.96</ele>
        <time>2019-09-09T07:58:02Z</time>
      </trkpt>
      <trkpt lat="41.81888" lon="9.20962">
        <ele>1355.58</ele>
        <time>2019-09-09T07:57:43Z</time>
      </trkpt>
      <trkpt lat="41.81879" lon="9.20947">
        <ele>1354.58</ele>
        <time>2019-09-09T07:57:26Z</time>
      </trkpt>
      <trkpt lat="41.81875" lon="9.20937">
        <ele>1352.58</ele>
        <time>2019-09-09T07:57:08Z</time>
      </trkpt>
      <trkpt lat="41.81867" lon="9.20926">
        <ele>1349.95</ele>
        <time>2019-09-09T07:56:50Z</time>
      </trkpt>
      <trkpt lat="41.81859" lon="9.20915">
        <ele>1347.65</ele>
        <time>2019-09-09T07:56:32Z</time>
      </trkpt>
      <trkpt lat="41.81857" lon="9.20911">
        <ele>1346.05</ele>
        <time>2019-09-09T07:56:17Z</time>
      </trkpt>
      <trkpt lat="41.81847" lon="9.209">
        <ele>1342.42</ele>
        <time>2019-09-09T07:55:56Z</time>
      </trkpt>
      <trkpt lat="41.81837" lon="9.20891">
        <ele>1339.84</ele>
        <time>2019-09-09T07:55:40Z</time>
      </trkpt>
      <trkpt lat="41.81836" lon="9.20891">
        <ele>1339.57</ele>
        <time>2019-09-09T07:55:38Z</time>
      </trkpt>
      <trkpt lat="41.8183" lon="9.20886">
        <ele>1338.36</ele>
        <time>2019-09-09T07:55:20Z</time>
      </trkpt>
      <trkpt lat="41.81826" lon="9.20881">
        <ele>1337.87</ele>
        <time>2019-09-09T07:55:03Z</time>
      </trkpt>
      <trkpt lat="41.81823" lon="9.20876">
        <ele>1336.47</ele>
        <time>2019-09-09T07:54:48Z</time>
      </trkpt>
      <trkpt lat="41.81818" lon="9.20871">
        <ele>1335.45</ele>
        <time>2019-09-09T07:54:33Z</time>
      </trkpt>
      <trkpt lat="41.81815" lon="9.20868">
        <ele>1335.42</ele>
        <time>2019-09-09T07:54:20Z</time>
      </trkpt>
      <trkpt lat="41.81812" lon="9.20863">
        <ele>1336.01</ele>
        <time>2019-09-09T07:54:04Z</time>
      </trkpt>
      <trkpt lat="41.81813" lon="9.2086">
        <ele>1336.06</ele>
        <time>2019-09-09T07:53:51Z</time>
      </trkpt>
      <trkpt lat="41.81811" lon="9.20851">
        <ele>1336.31</ele>
        <time>2019-09-09T07:53:34Z</time>
      </trkpt>
      <trkpt lat="41.81807" lon="9.20839">
        <ele>1336.4</ele>
        <time>2019-09-09T07:53:19Z</time>
      </trkpt>
      <trkpt lat="41.81808" lon="9.20833">
        <ele>1336.9</ele>
        <time>2019-09-09T07:53:01Z</time>
      </trkpt>
      <trkpt lat="41.81808" lon="9.20821">
        <ele>1336.31</ele>
        <time>2019-09-09T07:52:41Z</time>
      </trkpt>
      <trkpt lat="41.81801" lon="9.20808">
        <ele>1336.95</ele>
        <time>2019-09-09T07:52:22Z</time>
      </trkpt>
      <trkpt lat="41.81802" lon="9.20802">
        <ele>1338.3</ele>
        <time>2019-09-09T07:51:56Z</time>
      </trkpt>
      <trkpt lat="41.81803" lon="9.20801">
        <ele>1338.25</ele>
        <time>2019-09-09T07:51:32Z</time>
      </trkpt>
      <trkpt lat="41.81804" lon="9.20804">
        <ele>1338.6</ele>
        <time>2019-09-09T07:51:03Z</time>
      </trkpt>
      <trkpt lat="41.81801" lon="9.20801">
        <ele>1341.97</ele>
        <time>2019-09-09T07:50:35Z</time>
      </trkpt>
      <trkpt lat="41.81799" lon="9.20803">
        <ele>1344.23</ele>
        <time>2019-09-09T07:50:06Z</time>
      </trkpt>
      <trkpt lat="41.81793" lon="9.20804">
        <ele>1345.24</ele>
        <time>2019-09-09T07:49:37Z</time>
      </trkpt>
      <trkpt lat="41.81797" lon="9.20804">
        <ele>1346.04</ele>
        <time>2019-09-09T07:49:07Z</time>
      </trkpt>
      <trkpt lat="41.81798" lon="9.20807">
        <ele>1347.36</ele>
        <time>2019-09-09T07:48:38Z</time>
      </trkpt>
      <trkpt lat="41.818" lon="9.20808">
        <ele>1348.69</ele>
        <time>2019-09-09T07:48:12Z</time>
      </trkpt>
      <trkpt lat="41.81803" lon="9.2081">
        <ele>1351.52</ele>
        <time>2019-09-09T07:47:39Z</time>
      </trkpt>
      <trkpt lat="41.81797" lon="9.20807">
        <ele>1354.72</ele>
        <time>2019-09-09T07:47:15Z</time>
      </trkpt>
      <trkpt lat="41.81798" lon="9.20807">
        <ele>1357.07</ele>
        <time>2019-09-09T07:46:56Z</time>
      </trkpt>
      <trkpt lat="41.81796" lon="9.20809">
        <ele>1360.08</ele>
        <time>2019-09-09T07:46:34Z</time>
      </trkpt>
      <trkpt lat="41.81792" lon="9.20811">
        <ele>1363.58</ele>
        <time>2019-09-09T07:46:08Z</time>
      </trkpt>
      <trkpt lat="41.81784" lon="9.20818">
        <ele>1365.43</ele>
        <time>2019-09-09T07:45:50Z</time>
      </trkpt>
      <trkpt lat="41.81776" lon="9.20821">
        <ele>1366.96</ele>
        <time>2019-09-09T07:45:32Z</time>
      </trkpt>
      <trkpt lat="41.81765" lon="9.20822">
        <ele>1368.85</ele>
        <time>2019-09-09T07:45:14Z</time>
      </trkpt>
      <trkpt lat="41.8176" lon="9.20824">
        <ele>1371.09</ele>
        <time>2019-09-09T07:44:57Z</time>
      </trkpt>
      <trkpt lat="41.81755" lon="9.20828">
        <ele>1372.61</ele>
        <time>2019-09-09T07:44:41Z</time>
      </trkpt>
      <trkpt lat="41.81748" lon="9.20827">
        <ele>1375.64</ele>
        <time>2019-09-09T07:44:23Z</time>
      </trkpt>
      <trkpt lat="41.81748" lon="9.20835">
        <ele>1379.11</ele>
        <time>2019-09-09T07:44:05Z</time>
      </trkpt>
      <trkpt lat="41.81748" lon="9.20847">
        <ele>1385.51</ele>
        <time>2019-09-09T07:43:49Z</time>
      </trkpt>
      <trkpt lat="41.81744" lon="9.20857">
        <ele>1389.51</ele>
        <time>2019-09-09T07:43:31Z</time>
      </trkpt>
      <trkpt lat="41.81738" lon="9.20863">
        <ele>1396.31</ele>
        <time>2019-09-09T07:43:11Z</time>
      </trkpt>
      <trkpt lat="41.81739" lon="9.20874">
        <ele>1404.88</ele>
        <time>2019-09-09T07:42:52Z</time>
      </trkpt>
      <trkpt lat="41.81735" lon="9.20888">
        <ele>1408</ele>
        <time>2019-09-09T07:42:40Z</time>
      </trkpt>
      <trkpt lat="41.81726" lon="9.20909">
        <ele>1410.31</ele>
        <time>2019-09-09T07:42:24Z</time>
      </trkpt>
      <trkpt lat="41.81717" lon="9.20916">
        <ele>1411.36</ele>
        <time>2019-09-09T07:42:06Z</time>
      </trkpt>
      <trkpt lat="41.81709" lon="9.20935">
        <ele>1413.14</ele>
        <time>2019-09-09T07:41:48Z</time>
      </trkpt>
      <trkpt lat="41.81701" lon="9.20941">
        <ele>1413.06</ele>
        <time>2019-09-09T07:41:31Z</time>
      </trkpt>
      <trkpt lat="41.81693" lon="9.20947">
        <ele>1412.95</ele>
        <time>2019-09-09T07:41:13Z</time>
      </trkpt>
      <trkpt lat="41.81688" lon="9.20951">
        <ele>1413.35</ele>
        <time>2019-09-09T07:40:59Z</time>
      </trkpt>
      <trkpt lat="41.81689" lon="9.20966">
        <ele>1414.66</ele>
        <time>2019-09-09T07:40:42Z</time>
      </trkpt>
      <trkpt lat="41.81686" lon="9.20983">
        <ele>1416.16</ele>
        <time>2019-09-09T07:40:24Z</time>
      </trkpt>
      <trkpt lat="41.81681" lon="9.20991">
        <ele>1417.08</ele>
        <time>2019-09-09T07:40:07Z</time>
      </trkpt>
      <trkpt lat="41.81676" lon="9.21003">
        <ele>1417.77</ele>
        <time>2019-09-09T07:39:53Z</time>
      </trkpt>
      <trkpt lat="41.8167" lon="9.21005">
        <ele>1420.97</ele>
        <time>2019-09-09T07:39:37Z</time>
      </trkpt>
      <trkpt lat="41.81665" lon="9.21004">
        <ele>1423.98</ele>
        <time>2019-09-09T07:39:18Z</time>
      </trkpt>
      <trkpt lat="41.81661" lon="9.21005">
        <ele>1434.09</ele>
        <time>2019-09-09T07:38:39Z</time>
      </trkpt>
      <trkpt lat="41.81659" lon="9.21018">
        <ele>1441.37</ele>
        <time>2019-09-09T07:38:20Z</time>
      </trkpt>
      <trkpt lat="41.81649" lon="9.21024">
        <ele>1449.2</ele>
        <time>2019-09-09T07:38:02Z</time>
      </trkpt>
      <trkpt lat="41.81638" lon="9.21033">
        <ele>1455.63</ele>
        <time>2019-09-09T07:37:42Z</time>
      </trkpt>
      <trkpt lat="41.81632" lon="9.21032">
        <ele>1460.77</ele>
        <time>2019-09-09T07:37:24Z</time>
      </trkpt>
      <trkpt lat="41.81632" lon="9.21037">
        <ele>1469.12</ele>
        <time>2019-09-09T07:37:08Z</time>
      </trkpt>
      <trkpt lat="41.81637" lon="9.2105">
        <ele>1475.59</ele>
        <time>2019-09-09T07:36:52Z</time>
      </trkpt>
      <trkpt lat="41.81641" lon="9.21076">
        <ele>1481.61</ele>
        <time>2019-09-09T07:36:33Z</time>
      </trkpt>
      <trkpt lat="41.81639" lon="9.21085">
        <ele>1483.48</ele>
        <time>2019-09-09T07:36:15Z</time>
      </trkpt>
      <trkpt lat="41.81639" lon="9.21099">
        <ele>1483.48</ele>
        <time>2019-09-09T07:36:04Z</time>
      </trkpt>
      <trkpt lat="41.81635" lon="9.21108">
        <ele>1483.17</ele>
        <time>2019-09-09T07:35:52Z</time>
      </trkpt>
      <trkpt lat="41.81635" lon="9.21126">
        <ele>1481.14</ele>
        <time>2019-09-09T07:35:39Z</time>
      </trkpt>
      <trkpt lat="41.81635" lon="9.21143">
        <ele>1481.18</ele>
        <time>2019-09-09T07:35:30Z</time>
      </trkpt>
      <trkpt lat="41.81633" lon="9.21147">
        <ele>1481.26</ele>
        <time>2019-09-09T07:35:27Z</time>
      </trkpt>
      <trkpt lat="41.81629" lon="9.2116">
        <ele>1481.86</ele>
        <time>2019-09-09T07:35:11Z</time>
      </trkpt>
      <trkpt lat="41.81625" lon="9.21173">
        <ele>1482.74</ele>
        <time>2019-09-09T07:34:55Z</time>
      </trkpt>
      <trkpt lat="41.81621" lon="9.2118">
        <ele>1484.36</ele>
        <time>2019-09-09T07:34:36Z</time>
      </trkpt>
      <trkpt lat="41.8162" lon="9.21187">
        <ele>1485.5</ele>
        <time>2019-09-09T07:34:14Z</time>
      </trkpt>
      <trkpt lat="41.8162" lon="9.21185">
        <ele>1490.44</ele>
        <time>2019-09-09T07:33:39Z</time>
      </trkpt>
      <trkpt lat="41.81615" lon="9.21189">
        <ele>1493.66</ele>
        <time>2019-09-09T07:33:17Z</time>
      </trkpt>
      <trkpt lat="41.8161" lon="9.2119">
        <ele>1495.01</ele>
        <time>2019-09-09T07:33:00Z</time>
      </trkpt>
      <trkpt lat="41.81605" lon="9.21188">
        <ele>1495.81</ele>
        <time>2019-09-09T07:32:44Z</time>
      </trkpt>
      <trkpt lat="41.81599" lon="9.21183">
        <ele>1497.28</ele>
        <time>2019-09-09T07:32:28Z</time>
      </trkpt>
      <trkpt lat="41.81594" lon="9.21179">
        <ele>1501.15</ele>
        <time>2019-09-09T07:32:11Z</time>
      </trkpt>
      <trkpt lat="41.81587" lon="9.21175">
        <ele>1504.21</ele>
        <time>2019-09-09T07:31:56Z</time>
      </trkpt>
      <trkpt lat="41.8158" lon="9.21166">
        <ele>1506.08</ele>
        <time>2019-09-09T07:31:38Z</time>
      </trkpt>
      <trkpt lat="41.81571" lon="9.21158">
        <ele>1506.4</ele>
        <time>2019-09-09T07:31:20Z</time>
      </trkpt>
      <trkpt lat="41.81556" lon="9.2116">
        <ele>1506.65</ele>
        <time>2019-09-09T07:31:03Z</time>
      </trkpt>
      <trkpt lat="41.81545" lon="9.21157">
        <ele>1508.02</ele>
        <time>2019-09-09T07:30:46Z</time>
      </trkpt>
      <trkpt lat="41.81537" lon="9.21155">
        <ele>1508.76</ele>
        <time>2019-09-09T07:30:27Z</time>
      </trkpt>
      <trkpt lat="41.81526" lon="9.21149">
        <ele>1510.14</ele>
        <time>2019-09-09T07:30:11Z</time>
      </trkpt>
      <trkpt lat="41.81518" lon="9.21143">
        <ele>1511.1</ele>
        <time>2019-09-09T07:29:54Z</time>
      </trkpt>
      <trkpt lat="41.81512" lon="9.21135">
        <ele>1512.44</ele>
        <time>2019-09-09T07:29:38Z</time>
      </trkpt>
      <trkpt lat="41.8151" lon="9.21136">
        <ele>1514.84</ele>
        <time>2019-09-09T07:29:02Z</time>
      </trkpt>
      <trkpt lat="41.81506" lon="9.21136">
        <ele>1518.66</ele>
        <time>2019-09-09T07:28:47Z</time>
      </trkpt>
      <trkpt lat="41.81501" lon="9.21136">
        <ele>1522.77</ele>
        <time>2019-09-09T07:28:31Z</time>
      </trkpt>
      <trkpt lat="41.81497" lon="9.21134">
        <ele>1526.41</ele>
        <time>2019-09-09T07:28:18Z</time>
      </trkpt>
      <trkpt lat="41.81498" lon="9.21139">
        <ele>1529.18</ele>
        <time>2019-09-09T07:28:01Z</time>
      </trkpt>
      <trkpt lat="41.81496" lon="9.21139">
        <ele>1533</ele>
        <time>2019-09-09T07:27:41Z</time>
      </trkpt>
      <trkpt lat="41.81493" lon="9.21143">
        <ele>1536.53</ele>
        <time>2019-09-09T07:27:26Z</time>
      </trkpt>
      <trkpt lat="41.81488" lon="9.21153">
        <ele>1540.18</ele>
        <time>2019-09-09T07:27:10Z</time>
      </trkpt>
      <trkpt lat="41.81482" lon="9.21162">
        <ele>1541.14</ele>
        <time>2019-09-09T07:26:55Z</time>
      </trkpt>
      <trkpt lat="41.81474" lon="9.21175">
        <ele>1541.85</ele>
        <time>2019-09-09T07:26:35Z</time>
      </trkpt>
      <trkpt lat="41.81466" lon="9.21182">
        <ele>1543.93</ele>
        <time>2019-09-09T07:26:18Z</time>
      </trkpt>
      <trkpt lat="41.81458" lon="9.21188">
        <ele>1544.46</ele>
        <time>2019-09-09T07:26:00Z</time>
      </trkpt>
      <trkpt lat="41.81455" lon="9.21191">
        <ele>1545.27</ele>
        <time>2019-09-09T07:25:44Z</time>
      </trkpt>
      <trkpt lat="41.81452" lon="9.21198">
        <ele>1546.93</ele>
        <time>2019-09-09T07:25:25Z</time>
      </trkpt>
      <trkpt lat="41.81448" lon="9.21201">
        <ele>1548.65</ele>
        <time>2019-09-09T07:25:07Z</time>
      </trkpt>
      <trkpt lat="41.81449" lon="9.21208">
        <ele>1552.16</ele>
        <time>2019-09-09T07:24:53Z</time>
      </trkpt>
      <trkpt lat="41.81452" lon="9.21213">
        <ele>1555.14</ele>
        <time>2019-09-09T07:24:38Z</time>
      </trkpt>
      <trkpt lat="41.81458" lon="9.21216">
        <ele>1556.93</ele>
        <time>2019-09-09T07:24:25Z</time>
      </trkpt>
      <trkpt lat="41.81456" lon="9.2122">
        <ele>1558.43</ele>
        <time>2019-09-09T07:24:12Z</time>
      </trkpt>
      <trkpt lat="41.81448" lon="9.21225">
        <ele>1561.57</ele>
        <time>2019-09-09T07:23:56Z</time>
      </trkpt>
      <trkpt lat="41.81443" lon="9.21227">
        <ele>1564.11</ele>
        <time>2019-09-09T07:23:41Z</time>
      </trkpt>
      <trkpt lat="41.81438" lon="9.2123">
        <ele>1565.75</ele>
        <time>2019-09-09T07:23:25Z</time>
      </trkpt>
      <trkpt lat="41.81434" lon="9.21236">
        <ele>1568.19</ele>
        <time>2019-09-09T07:23:06Z</time>
      </trkpt>
      <trkpt lat="41.81433" lon="9.21242">
        <ele>1569.26</ele>
        <time>2019-09-09T07:22:47Z</time>
      </trkpt>
      <trkpt lat="41.81431" lon="9.21248">
        <ele>1570.94</ele>
        <time>2019-09-09T07:22:28Z</time>
      </trkpt>
      <trkpt lat="41.81429" lon="9.21258">
        <ele>1572.5</ele>
        <time>2019-09-09T07:22:08Z</time>
      </trkpt>
      <trkpt lat="41.81428" lon="9.21263">
        <ele>1573.84</ele>
        <time>2019-09-09T07:21:50Z</time>
      </trkpt>
      <trkpt lat="41.81428" lon="9.21269">
        <ele>1575.53</ele>
        <time>2019-09-09T07:21:30Z</time>
      </trkpt>
      <trkpt lat="41.81424" lon="9.21275">
        <ele>1576.4</ele>
        <time>2019-09-09T07:21:10Z</time>
      </trkpt>
      <trkpt lat="41.81417" lon="9.21275">
        <ele>1578.33</ele>
        <time>2019-09-09T07:20:56Z</time>
      </trkpt>
      <trkpt lat="41.81413" lon="9.21281">
        <ele>1580.32</ele>
        <time>2019-09-09T07:20:43Z</time>
      </trkpt>
      <trkpt lat="41.81412" lon="9.21285">
        <ele>1581.72</ele>
        <time>2019-09-09T07:20:29Z</time>
      </trkpt>
      <trkpt lat="41.81411" lon="9.2129">
        <ele>1583.14</ele>
        <time>2019-09-09T07:20:14Z</time>
      </trkpt>
      <trkpt lat="41.81409" lon="9.21294">
        <ele>1584.65</ele>
        <time>2019-09-09T07:19:58Z</time>
      </trkpt>
      <trkpt lat="41.81406" lon="9.21299">
        <ele>1585.54</ele>
        <time>2019-09-09T07:19:45Z</time>
      </trkpt>
      <trkpt lat="41.81409" lon="9.21304">
        <ele>1586.67</ele>
        <time>2019-09-09T07:19:31Z</time>
      </trkpt>
      <trkpt lat="41.81406" lon="9.2131">
        <ele>1589.41</ele>
        <time>2019-09-09T07:19:17Z</time>
      </trkpt>
      <trkpt lat="41.81407" lon="9.21317">
        <ele>1591.28</ele>
        <time>2019-09-09T07:19:01Z</time>
      </trkpt>
      <trkpt lat="41.81403" lon="9.21324">
        <ele>1594.1</ele>
        <time>2019-09-09T07:18:43Z</time>
      </trkpt>
      <trkpt lat="41.81397" lon="9.21331">
        <ele>1597.93</ele>
        <time>2019-09-09T07:18:29Z</time>
      </trkpt>
      <trkpt lat="41.81391" lon="9.21339">
        <ele>1600.71</ele>
        <time>2019-09-09T07:18:15Z</time>
      </trkpt>
      <trkpt lat="41.8138" lon="9.2134">
        <ele>1603.67</ele>
        <time>2019-09-09T07:18:00Z</time>
      </trkpt>
      <trkpt lat="41.81378" lon="9.21345">
        <ele>1607.03</ele>
        <time>2019-09-09T07:17:47Z</time>
      </trkpt>
      <trkpt lat="41.81369" lon="9.21348">
        <ele>1608.89</ele>
        <time>2019-09-09T07:17:31Z</time>
      </trkpt>
      <trkpt lat="41.81357" lon="9.21343">
        <ele>1610.49</ele>
        <time>2019-09-09T07:17:17Z</time>
      </trkpt>
      <trkpt lat="41.81349" lon="9.21335">
        <ele>1612.7</ele>
        <time>2019-09-09T07:17:04Z</time>
      </trkpt>
      <trkpt lat="41.81344" lon="9.21329">
        <ele>1613.62</ele>
        <time>2019-09-09T07:16:50Z</time>
      </trkpt>
      <trkpt lat="41.81333" lon="9.21322">
        <ele>1615.06</ele>
        <time>2019-09-09T07:16:36Z</time>
      </trkpt>
      <trkpt lat="41.81329" lon="9.21321">
        <ele>1615.61</ele>
        <time>2019-09-09T07:16:33Z</time>
      </trkpt>
      <trkpt lat="41.81322" lon="9.21325">
        <ele>1616.54</ele>
        <time>2019-09-09T07:16:22Z</time>
      </trkpt>
      <trkpt lat="41.81314" lon="9.21328">
        <ele>1617.15</ele>
        <time>2019-09-09T07:16:02Z</time>
      </trkpt>
      <trkpt lat="41.81308" lon="9.21333">
        <ele>1617.97</ele>
        <time>2019-09-09T07:15:48Z</time>
      </trkpt>
      <trkpt lat="41.81302" lon="9.21333">
        <ele>1618.43</ele>
        <time>2019-09-09T07:15:32Z</time>
      </trkpt>
      <trkpt lat="41.81299" lon="9.21333">
        <ele>1618.5</ele>
        <time>2019-09-09T07:15:28Z</time>
      </trkpt>
      <trkpt lat="41.81294" lon="9.21334">
        <ele>1618.93</ele>
        <time>2019-09-09T07:15:23Z</time>
      </trkpt>
      <trkpt lat="41.8129" lon="9.21339">
        <ele>1619.5</ele>
        <time>2019-09-09T07:15:14Z</time>
      </trkpt>
      <trkpt lat="41.81286" lon="9.2134">
        <ele>1618.97</ele>
        <time>2019-09-09T07:15:00Z</time>
      </trkpt>
      <trkpt lat="41.81279" lon="9.21343">
        <ele>1620.41</ele>
        <time>2019-09-09T07:14:45Z</time>
      </trkpt>
      <trkpt lat="41.81277" lon="9.21349">
        <ele>1621.44</ele>
        <time>2019-09-09T07:14:30Z</time>
      </trkpt>
      <trkpt lat="41.81276" lon="9.21355">
        <ele>1622.5</ele>
        <time>2019-09-09T07:14:13Z</time>
      </trkpt>
      <trkpt lat="41.81273" lon="9.21357">
        <ele>1623.43</ele>
        <time>2019-09-09T07:13:57Z</time>
      </trkpt>
      <trkpt lat="41.81262" lon="9.21357">
        <ele>1624.92</ele>
        <time>2019-09-09T07:13:43Z</time>
      </trkpt>
      <trkpt lat="41.81259" lon="9.21358">
        <ele>1625.78</ele>
        <time>2019-09-09T07:13:38Z</time>
      </trkpt>
      <trkpt lat="41.81253" lon="9.21361">
        <ele>1627.2</ele>
        <time>2019-09-09T07:13:27Z</time>
      </trkpt>
      <trkpt lat="41.81248" lon="9.21364">
        <ele>1629.21</ele>
        <time>2019-09-09T07:13:13Z</time>
      </trkpt>
      <trkpt lat="41.81245" lon="9.2137">
        <ele>1630.22</ele>
        <time>2019-09-09T07:13:01Z</time>
      </trkpt>
      <trkpt lat="41.81248" lon="9.21375">
        <ele>1632.02</ele>
        <time>2019-09-09T07:12:46Z</time>
      </trkpt>
      <trkpt lat="41.81245" lon="9.21377">
        <ele>1633.64</ele>
        <time>2019-09-09T07:12:28Z</time>
      </trkpt>
      <trkpt lat="41.81247" lon="9.21381">
        <ele>1635.69</ele>
        <time>2019-09-09T07:12:15Z</time>
      </trkpt>
      <trkpt lat="41.8125" lon="9.21383">
        <ele>1638.95</ele>
        <time>2019-09-09T07:12:00Z</time>
      </trkpt>
      <trkpt lat="41.81247" lon="9.21386">
        <ele>1641.61</ele>
        <time>2019-09-09T07:11:46Z</time>
      </trkpt>
      <trkpt lat="41.81249" lon="9.2139">
        <ele>1644.1</ele>
        <time>2019-09-09T07:11:31Z</time>
      </trkpt>
      <trkpt lat="41.81244" lon="9.21396">
        <ele>1647.56</ele>
        <time>2019-09-09T07:11:15Z</time>
      </trkpt>
      <trkpt lat="41.81242" lon="9.21399">
        <ele>1650.37</ele>
        <time>2019-09-09T07:11:03Z</time>
      </trkpt>
      <trkpt lat="41.81238" lon="9.214">
        <ele>1653.18</ele>
        <time>2019-09-09T07:10:49Z</time>
      </trkpt>
      <trkpt lat="41.81233" lon="9.21406">
        <ele>1655.48</ele>
        <time>2019-09-09T07:10:34Z</time>
      </trkpt>
      <trkpt lat="41.81224" lon="9.21408">
        <ele>1655.86</ele>
        <time>2019-09-09T07:10:21Z</time>
      </trkpt>
      <trkpt lat="41.81217" lon="9.21406">
        <ele>1655.55</ele>
        <time>2019-09-09T07:10:08Z</time>
      </trkpt>
      <trkpt lat="41.81212" lon="9.21407">
        <ele>1655.8</ele>
        <time>2019-09-09T07:09:53Z</time>
      </trkpt>
      <trkpt lat="41.81201" lon="9.21413">
        <ele>1656.58</ele>
        <time>2019-09-09T07:09:39Z</time>
      </trkpt>
      <trkpt lat="41.81195" lon="9.21415">
        <ele>1655.74</ele>
        <time>2019-09-09T07:09:28Z</time>
      </trkpt>
      <trkpt lat="41.81187" lon="9.2142">
        <ele>1656.2</ele>
        <time>2019-09-09T07:09:15Z</time>
      </trkpt>
      <trkpt lat="41.81182" lon="9.21426">
        <ele>1657.63</ele>
        <time>2019-09-09T07:09:00Z</time>
      </trkpt>
      <trkpt lat="41.81175" lon="9.21422">
        <ele>1660.01</ele>
        <time>2019-09-09T07:08:46Z</time>
      </trkpt>
      <trkpt lat="41.81169" lon="9.21416">
        <ele>1663.47</ele>
        <time>2019-09-09T07:08:31Z</time>
      </trkpt>
      <trkpt lat="41.81163" lon="9.21422">
        <ele>1665.01</ele>
        <time>2019-09-09T07:08:16Z</time>
      </trkpt>
      <trkpt lat="41.81163" lon="9.21424">
        <ele>1662.66</ele>
        <time>2019-09-09T07:08:01Z</time>
      </trkpt>
      <trkpt lat="41.81153" lon="9.21428">
        <ele>1666.87</ele>
        <time>2019-09-09T07:07:45Z</time>
      </trkpt>
      <trkpt lat="41.81149" lon="9.21433">
        <ele>1671.22</ele>
        <time>2019-09-09T07:07:32Z</time>
      </trkpt>
      <trkpt lat="41.81147" lon="9.21434">
        <ele>1672</ele>
        <time>2019-09-09T07:07:14Z</time>
      </trkpt>
      <trkpt lat="41.81144" lon="9.21437">
        <ele>1673.59</ele>
        <time>2019-09-09T07:07:00Z</time>
      </trkpt>
      <trkpt lat="41.81139" lon="9.21439">
        <ele>1675.07</ele>
        <time>2019-09-09T07:06:46Z</time>
      </trkpt>
      <trkpt lat="41.81134" lon="9.2144">
        <ele>1675.65</ele>
        <time>2019-09-09T07:06:33Z</time>
      </trkpt>
      <trkpt lat="41.81131" lon="9.21443">
        <ele>1676.61</ele>
        <time>2019-09-09T07:06:19Z</time>
      </trkpt>
      <trkpt lat="41.81125" lon="9.21444">
        <ele>1676.86</ele>
        <time>2019-09-09T07:06:04Z</time>
      </trkpt>
      <trkpt lat="41.81119" lon="9.2144">
        <ele>1677.03</ele>
        <time>2019-09-09T07:05:51Z</time>
      </trkpt>
      <trkpt lat="41.8111" lon="9.21438">
        <ele>1678.56</ele>
        <time>2019-09-09T07:05:36Z</time>
      </trkpt>
      <trkpt lat="41.811" lon="9.21436">
        <ele>1680.2</ele>
        <time>2019-09-09T07:05:21Z</time>
      </trkpt>
      <trkpt lat="41.81093" lon="9.21433">
        <ele>1681.66</ele>
        <time>2019-09-09T07:05:08Z</time>
      </trkpt>
      <trkpt lat="41.81089" lon="9.21426">
        <ele>1680.75</ele>
        <time>2019-09-09T07:04:53Z</time>
      </trkpt>
      <trkpt lat="41.81086" lon="9.21419">
        <ele>1678.86</ele>
        <time>2019-09-09T07:04:38Z</time>
      </trkpt>
      <trkpt lat="41.81084" lon="9.21411">
        <ele>1677.76</ele>
        <time>2019-09-09T07:04:24Z</time>
      </trkpt>
      <trkpt lat="41.8108" lon="9.21402">
        <ele>1677.25</ele>
        <time>2019-09-09T07:04:08Z</time>
      </trkpt>
      <trkpt lat="41.81074" lon="9.21399">
        <ele>1676.64</ele>
        <time>2019-09-09T07:03:53Z</time>
      </trkpt>
      <trkpt lat="41.81066" lon="9.21396">
        <ele>1676.03</ele>
        <time>2019-09-09T07:03:39Z</time>
      </trkpt>
      <trkpt lat="41.81057" lon="9.2139">
        <ele>1674.79</ele>
        <time>2019-09-09T07:03:25Z</time>
      </trkpt>
      <trkpt lat="41.81053" lon="9.21386">
        <ele>1673.8</ele>
        <time>2019-09-09T07:03:13Z</time>
      </trkpt>
      <trkpt lat="41.81048" lon="9.21381">
        <ele>1673.04</ele>
        <time>2019-09-09T07:02:58Z</time>
      </trkpt>
      <trkpt lat="41.81047" lon="9.21381">
        <ele>1673.04</ele>
        <time>2019-09-09T07:02:55Z</time>
      </trkpt>
      <trkpt lat="41.8104" lon="9.21378">
        <ele>1673.52</ele>
        <time>2019-09-09T07:02:41Z</time>
      </trkpt>
      <trkpt lat="41.81028" lon="9.2138">
        <ele>1673.31</ele>
        <time>2019-09-09T07:02:25Z</time>
      </trkpt>
      <trkpt lat="41.81021" lon="9.21381">
        <ele>1672</ele>
        <time>2019-09-09T07:02:11Z</time>
      </trkpt>
      <trkpt lat="41.81017" lon="9.21385">
        <ele>1671.3</ele>
        <time>2019-09-09T07:01:57Z</time>
      </trkpt>
      <trkpt lat="41.81011" lon="9.21385">
        <ele>1669.95</ele>
        <time>2019-09-09T07:01:44Z</time>
      </trkpt>
      <trkpt lat="41.81002" lon="9.21389">
        <ele>1668.72</ele>
        <time>2019-09-09T07:01:29Z</time>
      </trkpt>
      <trkpt lat="41.80995" lon="9.21389">
        <ele>1666.9</ele>
        <time>2019-09-09T07:01:15Z</time>
      </trkpt>
      <trkpt lat="41.80988" lon="9.21393">
        <ele>1664.91</ele>
        <time>2019-09-09T07:01:00Z</time>
      </trkpt>
      <trkpt lat="41.80979" lon="9.2139">
        <ele>1663.02</ele>
        <time>2019-09-09T07:00:43Z</time>
      </trkpt>
      <trkpt lat="41.80972" lon="9.21387">
        <ele>1661.25</ele>
        <time>2019-09-09T07:00:27Z</time>
      </trkpt>
      <trkpt lat="41.80965" lon="9.21384">
        <ele>1660.08</ele>
        <time>2019-09-09T07:00:14Z</time>
      </trkpt>
      <trkpt lat="41.80956" lon="9.21382">
        <ele>1657.93</ele>
        <time>2019-09-09T06:59:57Z</time>
      </trkpt>
      <trkpt lat="41.80945" lon="9.21381">
        <ele>1656.51</ele>
        <time>2019-09-09T06:59:41Z</time>
      </trkpt>
      <trkpt lat="41.80936" lon="9.21378">
        <ele>1655.1</ele>
        <time>2019-09-09T06:59:27Z</time>
      </trkpt>
      <trkpt lat="41.80926" lon="9.21376">
        <ele>1653.44</ele>
        <time>2019-09-09T06:59:13Z</time>
      </trkpt>
      <trkpt lat="41.80919" lon="9.21376">
        <ele>1651.78</ele>
        <time>2019-09-09T06:59:00Z</time>
      </trkpt>
      <trkpt lat="41.80914" lon="9.21375">
        <ele>1650.35</ele>
        <time>2019-09-09T06:58:41Z</time>
      </trkpt>
      <trkpt lat="41.80914" lon="9.21373">
        <ele>1649.29</ele>
        <time>2019-09-09T06:58:07Z</time>
      </trkpt>
      <trkpt lat="41.80915" lon="9.21372">
        <ele>1648.39</ele>
        <time>2019-09-09T06:57:28Z</time>
      </trkpt>
      <trkpt lat="41.80915" lon="9.21374">
        <ele>1648.36</ele>
        <time>2019-09-09T06:56:56Z</time>
      </trkpt>
      <trkpt lat="41.80915" lon="9.21375">
        <ele>1648.52</ele>
        <time>2019-09-09T06:56:15Z</time>
      </trkpt>
      <trkpt lat="41.80916" lon="9.21375">
        <ele>1648.76</ele>
        <time>2019-09-09T06:55:50Z</time>
      </trkpt>
      <trkpt lat="41.80917" lon="9.21378">
        <ele>1649.33</ele>
        <time>2019-09-09T06:55:35Z</time>
      </trkpt>
      <trkpt lat="41.80912" lon="9.2138">
        <ele>1649</ele>
        <time>2019-09-09T06:55:19Z</time>
      </trkpt>
      <trkpt lat="41.80906" lon="9.21379">
        <ele>1648.64</ele>
        <time>2019-09-09T06:55:05Z</time>
      </trkpt>
      <trkpt lat="41.80902" lon="9.21374">
        <ele>1648.44</ele>
        <time>2019-09-09T06:54:51Z</time>
      </trkpt>
      <trkpt lat="41.809" lon="9.21377">
        <ele>1647.74</ele>
        <time>2019-09-09T06:54:37Z</time>
      </trkpt>
      <trkpt lat="41.80897" lon="9.21382">
        <ele>1646.92</ele>
        <time>2019-09-09T06:54:22Z</time>
      </trkpt>
      <trkpt lat="41.80896" lon="9.21383">
        <ele>1646.89</ele>
        <time>2019-09-09T06:54:05Z</time>
      </trkpt>
      <trkpt lat="41.80894" lon="9.21387">
        <ele>1646.78</ele>
        <time>2019-09-09T06:53:46Z</time>
      </trkpt>
      <trkpt lat="41.80895" lon="9.21387">
        <ele>1646.12</ele>
        <time>2019-09-09T06:53:26Z</time>
      </trkpt>
      <trkpt lat="41.80895" lon="9.21384">
        <ele>1646.84</ele>
        <time>2019-09-09T06:53:03Z</time>
      </trkpt>
      <trkpt lat="41.80896" lon="9.21386">
        <ele>1647.24</ele>
        <time>2019-09-09T06:52:45Z</time>
      </trkpt>
      <trkpt lat="41.80896" lon="9.21383">
        <ele>1647.33</ele>
        <time>2019-09-09T06:52:31Z</time>
      </trkpt>
      <trkpt lat="41.80892" lon="9.21381">
        <ele>1645.84</ele>
        <time>2019-09-09T06:52:17Z</time>
      </trkpt>
      <trkpt lat="41.80884" lon="9.21375">
        <ele>1643.36</ele>
        <time>2019-09-09T06:52:02Z</time>
      </trkpt>
      <trkpt lat="41.80875" lon="9.21365">
        <ele>1640.39</ele>
        <time>2019-09-09T06:51:45Z</time>
      </trkpt>
      <trkpt lat="41.80864" lon="9.21361">
        <ele>1637.75</ele>
        <time>2019-09-09T06:51:29Z</time>
      </trkpt>
      <trkpt lat="41.80858" lon="9.21359">
        <ele>1636.04</ele>
        <time>2019-09-09T06:51:19Z</time>
      </trkpt>
      <trkpt lat="41.8085" lon="9.21357">
        <ele>1633.52</ele>
        <time>2019-09-09T06:51:04Z</time>
      </trkpt>
      <trkpt lat="41.80842" lon="9.21355">
        <ele>1630.99</ele>
        <time>2019-09-09T06:50:50Z</time>
      </trkpt>
      <trkpt lat="41.80833" lon="9.21353">
        <ele>1628.2</ele>
        <time>2019-09-09T06:50:36Z</time>
      </trkpt>
      <trkpt lat="41.80832" lon="9.21353">
        <ele>1628.06</ele>
        <time>2019-09-09T06:50:35Z</time>
      </trkpt>
      <trkpt lat="41.80823" lon="9.21353">
        <ele>1625.82</ele>
        <time>2019-09-09T06:50:21Z</time>
      </trkpt>
      <trkpt lat="41.80816" lon="9.21354">
        <ele>1624.25</ele>
        <time>2019-09-09T06:50:07Z</time>
      </trkpt>
      <trkpt lat="41.80812" lon="9.21357">
        <ele>1623.56</ele>
        <time>2019-09-09T06:49:52Z</time>
      </trkpt>
      <trkpt lat="41.808" lon="9.21361">
        <ele>1621.89</ele>
        <time>2019-09-09T06:49:36Z</time>
      </trkpt>
      <trkpt lat="41.80795" lon="9.2136">
        <ele>1620.11</ele>
        <time>2019-09-09T06:49:24Z</time>
      </trkpt>
      <trkpt lat="41.8079" lon="9.21362">
        <ele>1618.37</ele>
        <time>2019-09-09T06:49:11Z</time>
      </trkpt>
      <trkpt lat="41.80785" lon="9.2136">
        <ele>1615.75</ele>
        <time>2019-09-09T06:48:57Z</time>
      </trkpt>
      <trkpt lat="41.80779" lon="9.21359">
        <ele>1613.51</ele>
        <time>2019-09-09T06:48:42Z</time>
      </trkpt>
      <trkpt lat="41.80778" lon="9.21368">
        <ele>1611.42</ele>
        <time>2019-09-09T06:48:27Z</time>
      </trkpt>
      <trkpt lat="41.80776" lon="9.21373">
        <ele>1609.74</ele>
        <time>2019-09-09T06:48:15Z</time>
      </trkpt>
      <trkpt lat="41.8077" lon="9.21372">
        <ele>1607.28</ele>
        <time>2019-09-09T06:48:00Z</time>
      </trkpt>
      <trkpt lat="41.80765" lon="9.21371">
        <ele>1605.05</ele>
        <time>2019-09-09T06:47:46Z</time>
      </trkpt>
      <trkpt lat="41.80762" lon="9.21377">
        <ele>1603.17</ele>
        <time>2019-09-09T06:47:31Z</time>
      </trkpt>
      <trkpt lat="41.80757" lon="9.21376">
        <ele>1601.39</ele>
        <time>2019-09-09T06:47:16Z</time>
      </trkpt>
      <trkpt lat="41.80753" lon="9.21383">
        <ele>1599.54</ele>
        <time>2019-09-09T06:47:01Z</time>
      </trkpt>
      <trkpt lat="41.80748" lon="9.21388">
        <ele>1597.4</ele>
        <time>2019-09-09T06:46:47Z</time>
      </trkpt>
      <trkpt lat="41.80741" lon="9.21387">
        <ele>1595.17</ele>
        <time>2019-09-09T06:46:32Z</time>
      </trkpt>
      <trkpt lat="41.80735" lon="9.21394">
        <ele>1592.71</ele>
        <time>2019-09-09T06:46:16Z</time>
      </trkpt>
      <trkpt lat="41.80727" lon="9.21393">
        <ele>1590.39</ele>
        <time>2019-09-09T06:46:00Z</time>
      </trkpt>
      <trkpt lat="41.80719" lon="9.21397">
        <ele>1587.73</ele>
        <time>2019-09-09T06:45:45Z</time>
      </trkpt>
      <trkpt lat="41.80714" lon="9.21408">
        <ele>1584.95</ele>
        <time>2019-09-09T06:45:28Z</time>
      </trkpt>
      <trkpt lat="41.80711" lon="9.21412">
        <ele>1583.08</ele>
        <time>2019-09-09T06:45:16Z</time>
      </trkpt>
      <trkpt lat="41.80707" lon="9.21419">
        <ele>1580.43</ele>
        <time>2019-09-09T06:45:00Z</time>
      </trkpt>
      <trkpt lat="41.807" lon="9.21425">
        <ele>1577.99</ele>
        <time>2019-09-09T06:44:46Z</time>
      </trkpt>
      <trkpt lat="41.80694" lon="9.21428">
        <ele>1575.91</ele>
        <time>2019-09-09T06:44:32Z</time>
      </trkpt>
      <trkpt lat="41.80685" lon="9.21429">
        <ele>1573.71</ele>
        <time>2019-09-09T06:44:16Z</time>
      </trkpt>
      <trkpt lat="41.80674" lon="9.21429">
        <ele>1571.59</ele>
        <time>2019-09-09T06:44:00Z</time>
      </trkpt>
      <trkpt lat="41.80666" lon="9.21425">
        <ele>1568.63</ele>
        <time>2019-09-09T06:43:44Z</time>
      </trkpt>
      <trkpt lat="41.80658" lon="9.21428">
        <ele>1566.42</ele>
        <time>2019-09-09T06:43:29Z</time>
      </trkpt>
      <trkpt lat="41.8065" lon="9.21427">
        <ele>1563.83</ele>
        <time>2019-09-09T06:43:14Z</time>
      </trkpt>
      <trkpt lat="41.80643" lon="9.21423">
        <ele>1561.15</ele>
        <time>2019-09-09T06:42:59Z</time>
      </trkpt>
      <trkpt lat="41.80638" lon="9.21423">
        <ele>1559.09</ele>
        <time>2019-09-09T06:42:44Z</time>
      </trkpt>
      <trkpt lat="41.80633" lon="9.21429">
        <ele>1556.86</ele>
        <time>2019-09-09T06:42:29Z</time>
      </trkpt>
      <trkpt lat="41.80629" lon="9.21435">
        <ele>1554.86</ele>
        <time>2019-09-09T06:42:14Z</time>
      </trkpt>
      <trkpt lat="41.80626" lon="9.21447">
        <ele>1553.93</ele>
        <time>2019-09-09T06:41:58Z</time>
      </trkpt>
      <trkpt lat="41.8062" lon="9.21451">
        <ele>1552.07</ele>
        <time>2019-09-09T06:41:42Z</time>
      </trkpt>
      <trkpt lat="41.80615" lon="9.2146">
        <ele>1551.14</ele>
        <time>2019-09-09T06:41:26Z</time>
      </trkpt>
      <trkpt lat="41.80608" lon="9.21466">
        <ele>1549.46</ele>
        <time>2019-09-09T06:41:12Z</time>
      </trkpt>
      <trkpt lat="41.80602" lon="9.21471">
        <ele>1547.98</ele>
        <time>2019-09-09T06:41:00Z</time>
      </trkpt>
      <trkpt lat="41.80598" lon="9.21478">
        <ele>1546.58</ele>
        <time>2019-09-09T06:40:46Z</time>
      </trkpt>
      <trkpt lat="41.80601" lon="9.21484">
        <ele>1543.58</ele>
        <time>2019-09-09T06:40:33Z</time>
      </trkpt>
      <trkpt lat="41.8059" lon="9.21488">
        <ele>1542.85</ele>
        <time>2019-09-09T06:40:19Z</time>
      </trkpt>
      <trkpt lat="41.80588" lon="9.21489">
        <ele>1543.11</ele>
        <time>2019-09-09T06:40:17Z</time>
      </trkpt>
      <trkpt lat="41.80581" lon="9.21492">
        <ele>1542.11</ele>
        <time>2019-09-09T06:40:02Z</time>
      </trkpt>
      <trkpt lat="41.80572" lon="9.21494">
        <ele>1540.83</ele>
        <time>2019-09-09T06:39:48Z</time>
      </trkpt>
      <trkpt lat="41.80569" lon="9.21494">
        <ele>1539.57</ele>
        <time>2019-09-09T06:39:35Z</time>
      </trkpt>
      <trkpt lat="41.80564" lon="9.21495">
        <ele>1537.42</ele>
        <time>2019-09-09T06:39:20Z</time>
      </trkpt>
      <trkpt lat="41.8056" lon="9.21499">
        <ele>1536.5</ele>
        <time>2019-09-09T06:39:03Z</time>
      </trkpt>
      <trkpt lat="41.80552" lon="9.21504">
        <ele>1537.05</ele>
        <time>2019-09-09T06:38:48Z</time>
      </trkpt>
      <trkpt lat="41.80549" lon="9.21506">
        <ele>1537.23</ele>
        <time>2019-09-09T06:38:45Z</time>
      </trkpt>
      <trkpt lat="41.80546" lon="9.21505">
        <ele>1537.87</ele>
        <time>2019-09-09T06:38:37Z</time>
      </trkpt>
      <trkpt lat="41.80539" lon="9.21509">
        <ele>1538.17</ele>
        <time>2019-09-09T06:38:23Z</time>
      </trkpt>
      <trkpt lat="41.80529" lon="9.21508">
        <ele>1538.54</ele>
        <time>2019-09-09T06:38:09Z</time>
      </trkpt>
      <trkpt lat="41.80523" lon="9.21508">
        <ele>1537.27</ele>
        <time>2019-09-09T06:37:57Z</time>
      </trkpt>
      <trkpt lat="41.80513" lon="9.21507">
        <ele>1536.4</ele>
        <time>2019-09-09T06:37:42Z</time>
      </trkpt>
      <trkpt lat="41.80507" lon="9.21505">
        <ele>1536.21</ele>
        <time>2019-09-09T06:37:29Z</time>
      </trkpt>
      <trkpt lat="41.80498" lon="9.21501">
        <ele>1536.3</ele>
        <time>2019-09-09T06:37:14Z</time>
      </trkpt>
      <trkpt lat="41.80492" lon="9.21501">
        <ele>1534.81</ele>
        <time>2019-09-09T06:37:00Z</time>
      </trkpt>
      <trkpt lat="41.80486" lon="9.21499">
        <ele>1532.69</ele>
        <time>2019-09-09T06:36:45Z</time>
      </trkpt>
      <trkpt lat="41.8048" lon="9.21493">
        <ele>1532.45</ele>
        <time>2019-09-09T06:36:31Z</time>
      </trkpt>
      <trkpt lat="41.80477" lon="9.21488">
        <ele>1533.36</ele>
        <time>2019-09-09T06:36:19Z</time>
      </trkpt>
      <trkpt lat="41.80471" lon="9.21486">
        <ele>1532.76</ele>
        <time>2019-09-09T06:36:06Z</time>
      </trkpt>
      <trkpt lat="41.80469" lon="9.21486">
        <ele>1532.74</ele>
        <time>2019-09-09T06:36:03Z</time>
      </trkpt>
      <trkpt lat="41.80462" lon="9.21486">
        <ele>1531.16</ele>
        <time>2019-09-09T06:35:50Z</time>
      </trkpt>
      <trkpt lat="41.8046" lon="9.21481">
        <ele>1529.69</ele>
        <time>2019-09-09T06:35:37Z</time>
      </trkpt>
      <trkpt lat="41.80458" lon="9.21479">
        <ele>1527.4</ele>
        <time>2019-09-09T06:35:20Z</time>
      </trkpt>
      <trkpt lat="41.80457" lon="9.21483">
        <ele>1526.65</ele>
        <time>2019-09-09T06:35:09Z</time>
      </trkpt>
      <trkpt lat="41.80455" lon="9.21485">
        <ele>1525.37</ele>
        <time>2019-09-09T06:34:52Z</time>
      </trkpt>
      <trkpt lat="41.80448" lon="9.21483">
        <ele>1524.07</ele>
        <time>2019-09-09T06:34:39Z</time>
      </trkpt>
      <trkpt lat="41.80441" lon="9.21478">
        <ele>1523.41</ele>
        <time>2019-09-09T06:34:24Z</time>
      </trkpt>
      <trkpt lat="41.8044" lon="9.21474">
        <ele>1523</ele>
        <time>2019-09-09T06:34:19Z</time>
      </trkpt>
      <trkpt lat="41.80438" lon="9.21475">
        <ele>1521.26</ele>
        <time>2019-09-09T06:34:07Z</time>
      </trkpt>
      <trkpt lat="41.80434" lon="9.21472">
        <ele>1520</ele>
        <time>2019-09-09T06:33:53Z</time>
      </trkpt>
      <trkpt lat="41.8043" lon="9.21463">
        <ele>1518.43</ele>
        <time>2019-09-09T06:33:39Z</time>
      </trkpt>
      <trkpt lat="41.80427" lon="9.21457">
        <ele>1516.31</ele>
        <time>2019-09-09T06:33:25Z</time>
      </trkpt>
      <trkpt lat="41.80423" lon="9.21454">
        <ele>1515.97</ele>
        <time>2019-09-09T06:33:11Z</time>
      </trkpt>
      <trkpt lat="41.80419" lon="9.21449">
        <ele>1512.19</ele>
        <time>2019-09-09T06:32:54Z</time>
      </trkpt>
      <trkpt lat="41.80417" lon="9.21448">
        <ele>1510.28</ele>
        <time>2019-09-09T06:32:42Z</time>
      </trkpt>
      <trkpt lat="41.80414" lon="9.21448">
        <ele>1509.52</ele>
        <time>2019-09-09T06:32:27Z</time>
      </trkpt>
      <trkpt lat="41.80411" lon="9.21445">
        <ele>1506.12</ele>
        <time>2019-09-09T06:32:14Z</time>
      </trkpt>
      <trkpt lat="41.80407" lon="9.2144">
        <ele>1505.08</ele>
        <time>2019-09-09T06:32:01Z</time>
      </trkpt>
      <trkpt lat="41.80405" lon="9.21438">
        <ele>1501.81</ele>
        <time>2019-09-09T06:31:47Z</time>
      </trkpt>
      <trkpt lat="41.80401" lon="9.2144">
        <ele>1500.31</ele>
        <time>2019-09-09T06:31:34Z</time>
      </trkpt>
      <trkpt lat="41.80397" lon="9.21443">
        <ele>1498.84</ele>
        <time>2019-09-09T06:31:20Z</time>
      </trkpt>
      <trkpt lat="41.8039" lon="9.21446">
        <ele>1498.03</ele>
        <time>2019-09-09T06:31:06Z</time>
      </trkpt>
      <trkpt lat="41.80388" lon="9.21435">
        <ele>1496.92</ele>
        <time>2019-09-09T06:30:52Z</time>
      </trkpt>
      <trkpt lat="41.80386" lon="9.21428">
        <ele>1495.38</ele>
        <time>2019-09-09T06:30:38Z</time>
      </trkpt>
      <trkpt lat="41.80383" lon="9.21426">
        <ele>1493.21</ele>
        <time>2019-09-09T06:30:25Z</time>
      </trkpt>
      <trkpt lat="41.80377" lon="9.21418">
        <ele>1491.27</ele>
        <time>2019-09-09T06:30:10Z</time>
      </trkpt>
      <trkpt lat="41.8037" lon="9.21416">
        <ele>1489.11</ele>
        <time>2019-09-09T06:29:56Z</time>
      </trkpt>
      <trkpt lat="41.80367" lon="9.21416">
        <ele>1487.4</ele>
        <time>2019-09-09T06:29:43Z</time>
      </trkpt>
      <trkpt lat="41.80362" lon="9.21414">
        <ele>1484.97</ele>
        <time>2019-09-09T06:29:27Z</time>
      </trkpt>
      <trkpt lat="41.80359" lon="9.21412">
        <ele>1482.67</ele>
        <time>2019-09-09T06:29:14Z</time>
      </trkpt>
      <trkpt lat="41.80353" lon="9.2141">
        <ele>1480.18</ele>
        <time>2019-09-09T06:28:59Z</time>
      </trkpt>
      <trkpt lat="41.80349" lon="9.2141">
        <ele>1480.1</ele>
        <time>2019-09-09T06:28:48Z</time>
      </trkpt>
      <trkpt lat="41.80349" lon="9.21402">
        <ele>1477.69</ele>
        <time>2019-09-09T06:28:33Z</time>
      </trkpt>
      <trkpt lat="41.80348" lon="9.21397">
        <ele>1474.41</ele>
        <time>2019-09-09T06:28:18Z</time>
      </trkpt>
      <trkpt lat="41.80343" lon="9.21397">
        <ele>1472.4</ele>
        <time>2019-09-09T06:28:05Z</time>
      </trkpt>
      <trkpt lat="41.80341" lon="9.21397">
        <ele>1470</ele>
        <time>2019-09-09T06:27:52Z</time>
      </trkpt>
      <trkpt lat="41.80338" lon="9.21397">
        <ele>1467.99</ele>
        <time>2019-09-09T06:27:39Z</time>
      </trkpt>
      <trkpt lat="41.80334" lon="9.21398">
        <ele>1467.18</ele>
        <time>2019-09-09T06:27:26Z</time>
      </trkpt>
      <trkpt lat="41.8033" lon="9.21395">
        <ele>1465</ele>
        <time>2019-09-09T06:27:13Z</time>
      </trkpt>
      <trkpt lat="41.80322" lon="9.21391">
        <ele>1464.12</ele>
        <time>2019-09-09T06:26:57Z</time>
      </trkpt>
      <trkpt lat="41.80317" lon="9.21387">
        <ele>1463.13</ele>
        <time>2019-09-09T06:26:44Z</time>
      </trkpt>
      <trkpt lat="41.8032" lon="9.21392">
        <ele>1462.76</ele>
        <time>2019-09-09T06:26:31Z</time>
      </trkpt>
      <trkpt lat="41.80318" lon="9.21399">
        <ele>1461.21</ele>
        <time>2019-09-09T06:26:17Z</time>
      </trkpt>
      <trkpt lat="41.80318" lon="9.21404">
        <ele>1459.89</ele>
        <time>2019-09-09T06:26:04Z</time>
      </trkpt>
      <trkpt lat="41.80317" lon="9.21408">
        <ele>1458.21</ele>
        <time>2019-09-09T06:25:51Z</time>
      </trkpt>
      <trkpt lat="41.80314" lon="9.21414">
        <ele>1456.44</ele>
        <time>2019-09-09T06:25:37Z</time>
      </trkpt>
      <trkpt lat="41.80311" lon="9.21415">
        <ele>1454.98</ele>
        <time>2019-09-09T06:25:24Z</time>
      </trkpt>
      <trkpt lat="41.80308" lon="9.21418">
        <ele>1453.4</ele>
        <time>2019-09-09T06:25:09Z</time>
      </trkpt>
      <trkpt lat="41.80308" lon="9.21423">
        <ele>1452.01</ele>
        <time>2019-09-09T06:24:56Z</time>
      </trkpt>
      <trkpt lat="41.80305" lon="9.21424">
        <ele>1450.74</ele>
        <time>2019-09-09T06:24:41Z</time>
      </trkpt>
      <trkpt lat="41.80308" lon="9.21432">
        <ele>1449.03</ele>
        <time>2019-09-09T06:24:27Z</time>
      </trkpt>
      <trkpt lat="41.80305" lon="9.21435">
        <ele>1447.94</ele>
        <time>2019-09-09T06:24:14Z</time>
      </trkpt>
      <trkpt lat="41.80304" lon="9.2144">
        <ele>1446.29</ele>
        <time>2019-09-09T06:24:01Z</time>
      </trkpt>
      <trkpt lat="41.80304" lon="9.21443">
        <ele>1445.38</ele>
        <time>2019-09-09T06:23:50Z</time>
      </trkpt>
      <trkpt lat="41.803" lon="9.21446">
        <ele>1444.46</ele>
        <time>2019-09-09T06:23:37Z</time>
      </trkpt>
      <trkpt lat="41.80292" lon="9.21447">
        <ele>1441.52</ele>
        <time>2019-09-09T06:23:22Z</time>
      </trkpt>
      <trkpt lat="41.80289" lon="9.21451">
        <ele>1439.08</ele>
        <time>2019-09-09T06:23:07Z</time>
      </trkpt>
      <trkpt lat="41.80285" lon="9.21457">
        <ele>1436.51</ele>
        <time>2019-09-09T06:22:53Z</time>
      </trkpt>
      <trkpt lat="41.80272" lon="9.21458">
        <ele>1434.52</ele>
        <time>2019-09-09T06:22:38Z</time>
      </trkpt>
      <trkpt lat="41.80262" lon="9.21459">
        <ele>1424.79</ele>
        <time>2019-09-09T06:22:24Z</time>
      </trkpt>
      <trkpt lat="41.80255" lon="9.21462">
        <ele>1419.73</ele>
        <time>2019-09-09T06:22:10Z</time>
      </trkpt>
      <trkpt lat="41.80244" lon="9.21466">
        <ele>1418.55</ele>
        <time>2019-09-09T06:21:57Z</time>
      </trkpt>
      <trkpt lat="41.80242" lon="9.21468">
        <ele>1418.94</ele>
        <time>2019-09-09T06:21:53Z</time>
      </trkpt>
      <trkpt lat="41.80241" lon="9.2147">
        <ele>1420.26</ele>
        <time>2019-09-09T06:21:37Z</time>
      </trkpt>
      <trkpt lat="41.80233" lon="9.2147">
        <ele>1420.55</ele>
        <time>2019-09-09T06:21:16Z</time>
      </trkpt>
      <trkpt lat="41.80236" lon="9.21472">
        <ele>1420.42</ele>
        <time>2019-09-09T06:20:53Z</time>
      </trkpt>
      <trkpt lat="41.80238" lon="9.21474">
        <ele>1420.33</ele>
        <time>2019-09-09T06:20:32Z</time>
      </trkpt>
      <trkpt lat="41.80234" lon="9.21475">
        <ele>1420.39</ele>
        <time>2019-09-09T06:20:07Z</time>
      </trkpt>
      <trkpt lat="41.80232" lon="9.21475">
        <ele>1420.63</ele>
        <time>2019-09-09T06:19:38Z</time>
      </trkpt>
      <trkpt lat="41.80232" lon="9.21472">
        <ele>1419.8</ele>
        <time>2019-09-09T06:19:20Z</time>
      </trkpt>
      <trkpt lat="41.80233" lon="9.21471">
        <ele>1419.4</ele>
        <time>2019-09-09T06:18:49Z</time>
      </trkpt>
      <trkpt lat="41.80233" lon="9.21471">
        <ele>1419.32</ele>
        <time>2019-09-09T06:18:24Z</time>
      </trkpt>
      <trkpt lat="41.80231" lon="9.21471">
        <ele>1421.28</ele>
        <time>2019-09-09T06:17:58Z</time>
      </trkpt>
      <trkpt lat="41.80232" lon="9.21473">
        <ele>1420.59</ele>
        <time>2019-09-09T06:17:29Z</time>
      </trkpt>
      <trkpt lat="41.80233" lon="9.21472">
        <ele>1420.33</ele>
        <time>2019-09-09T06:17:07Z</time>
      </trkpt>
      <trkpt lat="41.80234" lon="9.21474">
        <ele>1422.41</ele>
        <time>2019-09-09T06:16:33Z</time>
      </trkpt>
      <trkpt lat="41.80237" lon="9.21474">
        <ele>1425.01</ele>
        <time>2019-09-09T06:15:57Z</time>
      </trkpt>
      <trkpt lat="41.80238" lon="9.21474">
        <ele>1426.03</ele>
        <time>2019-09-09T06:15:30Z</time>
      </trkpt>
      <trkpt lat="41.80242" lon="9.21476">
        <ele>1428.42</ele>
        <time>2019-09-09T06:14:59Z</time>
      </trkpt>
      <trkpt lat="41.80239" lon="9.21483">
        <ele>1430.37</ele>
        <time>2019-09-09T06:14:47Z</time>
      </trkpt>
      <trkpt lat="41.80239" lon="9.21483">
        <ele>1430.6</ele>
        <time>2019-09-09T06:14:46Z</time>
      </trkpt>
      <trkpt lat="41.80236" lon="9.21485">
        <ele>1432.05</ele>
        <time>2019-09-09T06:14:34Z</time>
      </trkpt>
      <trkpt lat="41.80234" lon="9.21489">
        <ele>1435.17</ele>
        <time>2019-09-09T06:14:19Z</time>
      </trkpt>
      <trkpt lat="41.80232" lon="9.21485">
        <ele>1435.72</ele>
        <time>2019-09-09T06:14:08Z</time>
      </trkpt>
      <trkpt lat="41.80236" lon="9.21483">
        <ele>1435.3</ele>
        <time>2019-09-09T06:13:44Z</time>
      </trkpt>
      <trkpt lat="41.8023" lon="9.21486">
        <ele>1436.39</ele>
        <time>2019-09-09T06:13:28Z</time>
      </trkpt>
      <trkpt lat="41.80227" lon="9.21486">
        <ele>1436.55</ele>
        <time>2019-09-09T06:13:10Z</time>
      </trkpt>
      <trkpt lat="41.80228" lon="9.21485">
        <ele>1436.67</ele>
        <time>2019-09-09T06:13:00Z</time>
      </trkpt>
      <trkpt lat="41.80228" lon="9.21488">
        <ele>1438.23</ele>
        <time>2019-09-09T06:12:38Z</time>
      </trkpt>
      <trkpt lat="41.80228" lon="9.21487">
        <ele>1438.72</ele>
        <time>2019-09-09T06:12:20Z</time>
      </trkpt>
      <trkpt lat="41.80227" lon="9.21487">
        <ele>1438.68</ele>
        <time>2019-09-09T06:12:04Z</time>
      </trkpt>
      <trkpt lat="41.80229" lon="9.21491">
        <ele>1439.45</ele>
        <time>2019-09-09T06:11:38Z</time>
      </trkpt>
      <trkpt lat="41.80229" lon="9.21495">
        <ele>1440.63</ele>
        <time>2019-09-09T06:11:16Z</time>
      </trkpt>
      <trkpt lat="41.80229" lon="9.21497">
        <ele>1441.97</ele>
        <time>2019-09-09T06:10:50Z</time>
      </trkpt>
      <trkpt lat="41.80227" lon="9.21498">
        <ele>1441.88</ele>
        <time>2019-09-09T06:10:23Z</time>
      </trkpt>
      <trkpt lat="41.80226" lon="9.21499">
        <ele>1442.89</ele>
        <time>2019-09-09T06:10:04Z</time>
      </trkpt>
      <trkpt lat="41.80223" lon="9.21501">
        <ele>1444.69</ele>
        <time>2019-09-09T06:09:47Z</time>
      </trkpt>
      <trkpt lat="41.80221" lon="9.215">
        <ele>1444.65</ele>
        <time>2019-09-09T06:09:28Z</time>
      </trkpt>
      <trkpt lat="41.8022" lon="9.21501">
        <ele>1445.31</ele>
        <time>2019-09-09T06:09:13Z</time>
      </trkpt>
      <trkpt lat="41.80219" lon="9.21498">
        <ele>1446.24</ele>
        <time>2019-09-09T06:08:46Z</time>
      </trkpt>
      <trkpt lat="41.80219" lon="9.21496">
        <ele>1446.9</ele>
        <time>2019-09-09T06:08:19Z</time>
      </trkpt>
      <trkpt lat="41.80218" lon="9.21499">
        <ele>1448.74</ele>
        <time>2019-09-09T06:07:52Z</time>
      </trkpt>
      <trkpt lat="41.80217" lon="9.21494">
        <ele>1448.69</ele>
        <time>2019-09-09T06:07:40Z</time>
      </trkpt>
      <trkpt lat="41.80216" lon="9.21486">
        <ele>1447.58</ele>
        <time>2019-09-09T06:07:23Z</time>
      </trkpt>
      <trkpt lat="41.80212" lon="9.21488">
        <ele>1445.21</ele>
        <time>2019-09-09T06:07:06Z</time>
      </trkpt>
      <trkpt lat="41.80209" lon="9.21492">
        <ele>1444.21</ele>
        <time>2019-09-09T06:06:47Z</time>
      </trkpt>
      <trkpt lat="41.80207" lon="9.21495">
        <ele>1443.24</ele>
        <time>2019-09-09T06:06:29Z</time>
      </trkpt>
      <trkpt lat="41.80205" lon="9.21498">
        <ele>1441.4</ele>
        <time>2019-09-09T06:06:13Z</time>
      </trkpt>
      <trkpt lat="41.80203" lon="9.21499">
        <ele>1438.97</ele>
        <time>2019-09-09T06:05:58Z</time>
      </trkpt>
      <trkpt lat="41.80202" lon="9.21499">
        <ele>1437.77</ele>
        <time>2019-09-09T06:05:41Z</time>
      </trkpt>
      <trkpt lat="41.80199" lon="9.21499">
        <ele>1437.19</ele>
        <time>2019-09-09T06:05:24Z</time>
      </trkpt>
      <trkpt lat="41.80196" lon="9.21501">
        <ele>1435.19</ele>
        <time>2019-09-09T06:05:10Z</time>
      </trkpt>
      <trkpt lat="41.80193" lon="9.21504">
        <ele>1435.24</ele>
        <time>2019-09-09T06:04:56Z</time>
      </trkpt>
      <trkpt lat="41.80188" lon="9.21505">
        <ele>1433.92</ele>
        <time>2019-09-09T06:04:44Z</time>
      </trkpt>
      <trkpt lat="41.80183" lon="9.21509">
        <ele>1432.99</ele>
        <time>2019-09-09T06:04:29Z</time>
      </trkpt>
      <trkpt lat="41.8018" lon="9.21514">
        <ele>1431.93</ele>
        <time>2019-09-09T06:04:15Z</time>
      </trkpt>
      <trkpt lat="41.80177" lon="9.21517">
        <ele>1430.65</ele>
        <time>2019-09-09T06:04:01Z</time>
      </trkpt>
      <trkpt lat="41.80175" lon="9.21515">
        <ele>1427.47</ele>
        <time>2019-09-09T06:03:51Z</time>
      </trkpt>
      <trkpt lat="41.80169" lon="9.21513">
        <ele>1421.93</ele>
        <time>2019-09-09T06:03:37Z</time>
      </trkpt>
      <trkpt lat="41.80153" lon="9.21513">
        <ele>1417.92</ele>
        <time>2019-09-09T06:03:23Z</time>
      </trkpt>
      <trkpt lat="41.80137" lon="9.21518">
        <ele>1417.98</ele>
        <time>2019-09-09T06:03:09Z</time>
      </trkpt>
      <trkpt lat="41.80131" lon="9.21517">
        <ele>1419.22</ele>
        <time>2019-09-09T06:03:00Z</time>
      </trkpt>
      <trkpt lat="41.80128" lon="9.21516">
        <ele>1419.3</ele>
        <time>2019-09-09T06:02:56Z</time>
      </trkpt>
      <trkpt lat="41.80124" lon="9.21513">
        <ele>1418.28</ele>
        <time>2019-09-09T06:02:40Z</time>
      </trkpt>
      <trkpt lat="41.80113" lon="9.21513">
        <ele>1417.96</ele>
        <time>2019-09-09T06:02:23Z</time>
      </trkpt>
      <trkpt lat="41.80109" lon="9.21516">
        <ele>1415.89</ele>
        <time>2019-09-09T06:02:07Z</time>
      </trkpt>
      <trkpt lat="41.80108" lon="9.21519">
        <ele>1414.4</ele>
        <time>2019-09-09T06:01:51Z</time>
      </trkpt>
      <trkpt lat="41.80108" lon="9.21519">
        <ele>1413.79</ele>
        <time>2019-09-09T06:01:34Z</time>
      </trkpt>
      <trkpt lat="41.8011" lon="9.21524">
        <ele>1412.94</ele>
        <time>2019-09-09T06:01:20Z</time>
      </trkpt>
      <trkpt lat="41.80112" lon="9.21527">
        <ele>1412.1</ele>
        <time>2019-09-09T06:01:03Z</time>
      </trkpt>
      <trkpt lat="41.80115" lon="9.21531">
        <ele>1410.53</ele>
        <time>2019-09-09T06:00:49Z</time>
      </trkpt>
      <trkpt lat="41.80121" lon="9.21541">
        <ele>1409.48</ele>
        <time>2019-09-09T06:00:35Z</time>
      </trkpt>
      <trkpt lat="41.80123" lon="9.2155">
        <ele>1409.76</ele>
        <time>2019-09-09T06:00:29Z</time>
      </trkpt>
      <trkpt lat="41.80124" lon="9.21554">
        <ele>1409.61</ele>
        <time>2019-09-09T06:00:17Z</time>
      </trkpt>
      <trkpt lat="41.80124" lon="9.21557">
        <ele>1409.59</ele>
        <time>2019-09-09T05:59:59Z</time>
      </trkpt>
      <trkpt lat="41.80124" lon="9.21562">
        <ele>1408.39</ele>
        <time>2019-09-09T05:59:47Z</time>
      </trkpt>
      <trkpt lat="41.8012" lon="9.21565">
        <ele>1405.65</ele>
        <time>2019-09-09T05:59:32Z</time>
      </trkpt>
      <trkpt lat="41.80122" lon="9.21569">
        <ele>1404.1</ele>
        <time>2019-09-09T05:59:12Z</time>
      </trkpt>
      <trkpt lat="41.80124" lon="9.21571">
        <ele>1404.01</ele>
        <time>2019-09-09T05:58:56Z</time>
      </trkpt>
      <trkpt lat="41.80125" lon="9.21575">
        <ele>1404.52</ele>
        <time>2019-09-09T05:58:42Z</time>
      </trkpt>
      <trkpt lat="41.80131" lon="9.21577">
        <ele>1403.9</ele>
        <time>2019-09-09T05:58:27Z</time>
      </trkpt>
      <trkpt lat="41.80132" lon="9.21583">
        <ele>1401</ele>
        <time>2019-09-09T05:58:13Z</time>
      </trkpt>
      <trkpt lat="41.80134" lon="9.21586">
        <ele>1398.67</ele>
        <time>2019-09-09T05:58:00Z</time>
      </trkpt>
      <trkpt lat="41.8013" lon="9.21594">
        <ele>1396.9</ele>
        <time>2019-09-09T05:57:47Z</time>
      </trkpt>
      <trkpt lat="41.80127" lon="9.21604">
        <ele>1396.33</ele>
        <time>2019-09-09T05:57:29Z</time>
      </trkpt>
      <trkpt lat="41.80128" lon="9.21607">
        <ele>1396.21</ele>
        <time>2019-09-09T05:57:13Z</time>
      </trkpt>
      <trkpt lat="41.80127" lon="9.21614">
        <ele>1395.97</ele>
        <time>2019-09-09T05:57:00Z</time>
      </trkpt>
      <trkpt lat="41.80126" lon="9.21618">
        <ele>1395.82</ele>
        <time>2019-09-09T05:56:44Z</time>
      </trkpt>
      <trkpt lat="41.80124" lon="9.21621">
        <ele>1395.83</ele>
        <time>2019-09-09T05:56:24Z</time>
      </trkpt>
      <trkpt lat="41.80124" lon="9.21621">
        <ele>1395.64</ele>
        <time>2019-09-09T05:55:57Z</time>
      </trkpt>
      <trkpt lat="41.80125" lon="9.2162">
        <ele>1395.33</ele>
        <time>2019-09-09T05:55:40Z</time>
      </trkpt>
      <trkpt lat="41.80125" lon="9.21618">
        <ele>1394.86</ele>
        <time>2019-09-09T05:55:20Z</time>
      </trkpt>
      <trkpt lat="41.80124" lon="9.21617">
        <ele>1392.97</ele>
        <time>2019-09-09T05:54:52Z</time>
      </trkpt>
      <trkpt lat="41.80123" lon="9.21618">
        <ele>1392.64</ele>
        <time>2019-09-09T05:54:30Z</time>
      </trkpt>
      <trkpt lat="41.80122" lon="9.21617">
        <ele>1391.91</ele>
        <time>2019-09-09T05:54:09Z</time>
      </trkpt>
      <trkpt lat="41.80118" lon="9.21621">
        <ele>1389.41</ele>
        <time>2019-09-09T05:53:56Z</time>
      </trkpt>
      <trkpt lat="41.80108" lon="9.21626">
        <ele>1388.64</ele>
        <time>2019-09-09T05:53:43Z</time>
      </trkpt>
      <trkpt lat="41.80102" lon="9.2163">
        <ele>1387.47</ele>
        <time>2019-09-09T05:53:27Z</time>
      </trkpt>
      <trkpt lat="41.80093" lon="9.21636">
        <ele>1387.36</ele>
        <time>2019-09-09T05:53:14Z</time>
      </trkpt>
      <trkpt lat="41.80084" lon="9.21646">
        <ele>1389.06</ele>
        <time>2019-09-09T05:53:01Z</time>
      </trkpt>
      <trkpt lat="41.80082" lon="9.21648">
        <ele>1390.29</ele>
        <time>2019-09-09T05:52:57Z</time>
      </trkpt>
      <trkpt lat="41.80077" lon="9.2165">
        <ele>1393.54</ele>
        <time>2019-09-09T05:52:43Z</time>
      </trkpt>
      <trkpt lat="41.80072" lon="9.21656">
        <ele>1396.19</ele>
        <time>2019-09-09T05:52:31Z</time>
      </trkpt>
      <trkpt lat="41.80069" lon="9.21664">
        <ele>1399.11</ele>
        <time>2019-09-09T05:52:16Z</time>
      </trkpt>
      <trkpt lat="41.80067" lon="9.21661">
        <ele>1399.75</ele>
        <time>2019-09-09T05:51:56Z</time>
      </trkpt>
      <trkpt lat="41.80068" lon="9.21662">
        <ele>1400.39</ele>
        <time>2019-09-09T05:51:34Z</time>
      </trkpt>
      <trkpt lat="41.80067" lon="9.21669">
        <ele>1400.92</ele>
        <time>2019-09-09T05:51:14Z</time>
      </trkpt>
      <trkpt lat="41.80069" lon="9.21675">
        <ele>1403.75</ele>
        <time>2019-09-09T05:51:01Z</time>
      </trkpt>
      <trkpt lat="41.80065" lon="9.21678">
        <ele>1407.73</ele>
        <time>2019-09-09T05:50:46Z</time>
      </trkpt>
      <trkpt lat="41.80063" lon="9.21683">
        <ele>1410.81</ele>
        <time>2019-09-09T05:50:31Z</time>
      </trkpt>
      <trkpt lat="41.80061" lon="9.21678">
        <ele>1412.83</ele>
        <time>2019-09-09T05:50:15Z</time>
      </trkpt>
      <trkpt lat="41.80059" lon="9.21672">
        <ele>1414.75</ele>
        <time>2019-09-09T05:49:58Z</time>
      </trkpt>
      <trkpt lat="41.80055" lon="9.21668">
        <ele>1417.89</ele>
        <time>2019-09-09T05:49:41Z</time>
      </trkpt>
      <trkpt lat="41.80054" lon="9.21664">
        <ele>1421.28</ele>
        <time>2019-09-09T05:49:28Z</time>
      </trkpt>
      <trkpt lat="41.80055" lon="9.21664">
        <ele>1424.74</ele>
        <time>2019-09-09T05:49:15Z</time>
      </trkpt>
      <trkpt lat="41.80055" lon="9.21664">
        <ele>1425.15</ele>
        <time>2019-09-09T05:49:14Z</time>
      </trkpt>
      <trkpt lat="41.80055" lon="9.21668">
        <ele>1426.69</ele>
        <time>2019-09-09T05:48:50Z</time>
      </trkpt>
      <trkpt lat="41.80051" lon="9.21669">
        <ele>1427.02</ele>
        <time>2019-09-09T05:48:36Z</time>
      </trkpt>
      <trkpt lat="41.80048" lon="9.21667">
        <ele>1426.88</ele>
        <time>2019-09-09T05:48:16Z</time>
      </trkpt>
      <trkpt lat="41.80046" lon="9.21665">
        <ele>1426.94</ele>
        <time>2019-09-09T05:47:58Z</time>
      </trkpt>
      <trkpt lat="41.80043" lon="9.21667">
        <ele>1429.85</ele>
        <time>2019-09-09T05:47:44Z</time>
      </trkpt>
      <trkpt lat="41.80043" lon="9.21672">
        <ele>1432.37</ele>
        <time>2019-09-09T05:47:30Z</time>
      </trkpt>
      <trkpt lat="41.80042" lon="9.2168">
        <ele>1433.49</ele>
        <time>2019-09-09T05:47:14Z</time>
      </trkpt>
      <trkpt lat="41.80041" lon="9.21688">
        <ele>1435.07</ele>
        <time>2019-09-09T05:46:57Z</time>
      </trkpt>
      <trkpt lat="41.8004" lon="9.21695">
        <ele>1437.21</ele>
        <time>2019-09-09T05:46:44Z</time>
      </trkpt>
      <trkpt lat="41.80041" lon="9.21705">
        <ele>1440.13</ele>
        <time>2019-09-09T05:46:28Z</time>
      </trkpt>
      <trkpt lat="41.8004" lon="9.21714">
        <ele>1441.34</ele>
        <time>2019-09-09T05:46:13Z</time>
      </trkpt>
      <trkpt lat="41.80039" lon="9.21723">
        <ele>1442.28</ele>
        <time>2019-09-09T05:46:02Z</time>
      </trkpt>
      <trkpt lat="41.80041" lon="9.2173">
        <ele>1443.32</ele>
        <time>2019-09-09T05:45:48Z</time>
      </trkpt>
      <trkpt lat="41.80041" lon="9.21731">
        <ele>1443.46</ele>
        <time>2019-09-09T05:45:47Z</time>
      </trkpt>
      <trkpt lat="41.80041" lon="9.21746">
        <ele>1445.77</ele>
        <time>2019-09-09T05:45:30Z</time>
      </trkpt>
      <trkpt lat="41.8004" lon="9.21754">
        <ele>1445.42</ele>
        <time>2019-09-09T05:45:08Z</time>
      </trkpt>
      <trkpt lat="41.80038" lon="9.21752">
        <ele>1445.55</ele>
        <time>2019-09-09T05:44:49Z</time>
      </trkpt>
      <trkpt lat="41.80035" lon="9.21751">
        <ele>1447.47</ele>
        <time>2019-09-09T05:44:32Z</time>
      </trkpt>
      <trkpt lat="41.80032" lon="9.21748">
        <ele>1449.63</ele>
        <time>2019-09-09T05:44:15Z</time>
      </trkpt>
      <trkpt lat="41.80032" lon="9.21749">
        <ele>1450.1</ele>
        <time>2019-09-09T05:43:57Z</time>
      </trkpt>
      <trkpt lat="41.80033" lon="9.2175">
        <ele>1449.77</ele>
        <time>2019-09-09T05:43:21Z</time>
      </trkpt>
      <trkpt lat="41.80033" lon="9.21752">
        <ele>1449.08</ele>
        <time>2019-09-09T05:42:49Z</time>
      </trkpt>
      <trkpt lat="41.80033" lon="9.21752">
        <ele>1448.79</ele>
        <time>2019-09-09T05:42:26Z</time>
      </trkpt>
      <trkpt lat="41.80032" lon="9.21753">
        <ele>1448.6</ele>
        <time>2019-09-09T05:42:07Z</time>
      </trkpt>
      <trkpt lat="41.80031" lon="9.21752">
        <ele>1447.88</ele>
        <time>2019-09-09T05:41:52Z</time>
      </trkpt>
      <trkpt lat="41.80029" lon="9.21753">
        <ele>1446.11</ele>
        <time>2019-09-09T05:41:39Z</time>
      </trkpt>
      <trkpt lat="41.80027" lon="9.21759">
        <ele>1444.22</ele>
        <time>2019-09-09T05:41:23Z</time>
      </trkpt>
      <trkpt lat="41.80025" lon="9.21761">
        <ele>1442.54</ele>
        <time>2019-09-09T05:41:09Z</time>
      </trkpt>
      <trkpt lat="41.80024" lon="9.21766">
        <ele>1441.08</ele>
        <time>2019-09-09T05:40:50Z</time>
      </trkpt>
      <trkpt lat="41.80017" lon="9.21766">
        <ele>1440.75</ele>
        <time>2019-09-09T05:40:30Z</time>
      </trkpt>
      <trkpt lat="41.80014" lon="9.21769">
        <ele>1440.28</ele>
        <time>2019-09-09T05:40:13Z</time>
      </trkpt>
      <trkpt lat="41.80013" lon="9.21769">
        <ele>1438.89</ele>
        <time>2019-09-09T05:39:46Z</time>
      </trkpt>
      <trkpt lat="41.80015" lon="9.2177">
        <ele>1437.22</ele>
        <time>2019-09-09T05:39:06Z</time>
      </trkpt>
      <trkpt lat="41.80015" lon="9.21771">
        <ele>1435.12</ele>
        <time>2019-09-09T05:38:46Z</time>
      </trkpt>
      <trkpt lat="41.80017" lon="9.21774">
        <ele>1432.84</ele>
        <time>2019-09-09T05:38:27Z</time>
      </trkpt>
      <trkpt lat="41.80015" lon="9.21776">
        <ele>1429.94</ele>
        <time>2019-09-09T05:38:12Z</time>
      </trkpt>
      <trkpt lat="41.80013" lon="9.21778">
        <ele>1427.31</ele>
        <time>2019-09-09T05:37:57Z</time>
      </trkpt>
      <trkpt lat="41.80008" lon="9.21777">
        <ele>1426.22</ele>
        <time>2019-09-09T05:37:44Z</time>
      </trkpt>
      <trkpt lat="41.80005" lon="9.21777">
        <ele>1423.92</ele>
        <time>2019-09-09T05:37:27Z</time>
      </trkpt>
      <trkpt lat="41.80002" lon="9.21784">
        <ele>1423.38</ele>
        <time>2019-09-09T05:37:09Z</time>
      </trkpt>
      <trkpt lat="41.79997" lon="9.21789">
        <ele>1421.87</ele>
        <time>2019-09-09T05:36:48Z</time>
      </trkpt>
      <trkpt lat="41.79998" lon="9.21782">
        <ele>1415.74</ele>
        <time>2019-09-09T05:36:31Z</time>
      </trkpt>
      <trkpt lat="41.79998" lon="9.21779">
        <ele>1411.05</ele>
        <time>2019-09-09T05:36:17Z</time>
      </trkpt>
      <trkpt lat="41.79998" lon="9.21786">
        <ele>1405.37</ele>
        <time>2019-09-09T05:36:00Z</time>
      </trkpt>
      <trkpt lat="41.80001" lon="9.21798">
        <ele>1398.84</ele>
        <time>2019-09-09T05:35:44Z</time>
      </trkpt>
      <trkpt lat="41.80001" lon="9.21796">
        <ele>1397.33</ele>
        <time>2019-09-09T05:35:27Z</time>
      </trkpt>
      <trkpt lat="41.79998" lon="9.21801">
        <ele>1396.91</ele>
        <time>2019-09-09T05:35:10Z</time>
      </trkpt>
      <trkpt lat="41.79993" lon="9.21803">
        <ele>1396.4</ele>
        <time>2019-09-09T05:34:52Z</time>
      </trkpt>
      <trkpt lat="41.7999" lon="9.21802">
        <ele>1396.56</ele>
        <time>2019-09-09T05:34:33Z</time>
      </trkpt>
      <trkpt lat="41.79982" lon="9.21795">
        <ele>1396.4</ele>
        <time>2019-09-09T05:34:13Z</time>
      </trkpt>
      <trkpt lat="41.79981" lon="9.21794">
        <ele>1396.5</ele>
        <time>2019-09-09T05:34:09Z</time>
      </trkpt>
      <trkpt lat="41.79977" lon="9.21794">
        <ele>1394.88</ele>
        <time>2019-09-09T05:33:50Z</time>
      </trkpt>
      <trkpt lat="41.79975" lon="9.218">
        <ele>1390.6</ele>
        <time>2019-09-09T05:33:36Z</time>
      </trkpt>
      <trkpt lat="41.79972" lon="9.21807">
        <ele>1383.87</ele>
        <time>2019-09-09T05:33:21Z</time>
      </trkpt>
      <trkpt lat="41.79973" lon="9.21808">
        <ele>1376.92</ele>
        <time>2019-09-09T05:33:04Z</time>
      </trkpt>
      <trkpt lat="41.79972" lon="9.21802">
        <ele>1367.88</ele>
        <time>2019-09-09T05:32:50Z</time>
      </trkpt>
      <trkpt lat="41.79971" lon="9.21806">
        <ele>1362.25</ele>
        <time>2019-09-09T05:32:35Z</time>
      </trkpt>
      <trkpt lat="41.79968" lon="9.21802">
        <ele>1359.53</ele>
        <time>2019-09-09T05:32:20Z</time>
      </trkpt>
      <trkpt lat="41.79963" lon="9.2181">
        <ele>1357.39</ele>
        <time>2019-09-09T05:31:57Z</time>
      </trkpt>
      <trkpt lat="41.7996" lon="9.21809">
        <ele>1356.6</ele>
        <time>2019-09-09T05:31:32Z</time>
      </trkpt>
      <trkpt lat="41.79955" lon="9.2181">
        <ele>1354.84</ele>
        <time>2019-09-09T05:31:15Z</time>
      </trkpt>
      <trkpt lat="41.79955" lon="9.21814">
        <ele>1349.63</ele>
        <time>2019-09-09T05:31:01Z</time>
      </trkpt>
      <trkpt lat="41.79951" lon="9.21815">
        <ele>1342.43</ele>
        <time>2019-09-09T05:30:47Z</time>
      </trkpt>
      <trkpt lat="41.79948" lon="9.21816">
        <ele>1337.34</ele>
        <time>2019-09-09T05:30:31Z</time>
      </trkpt>
      <trkpt lat="41.79944" lon="9.21812">
        <ele>1329.35</ele>
        <time>2019-09-09T05:30:15Z</time>
      </trkpt>
      <trkpt lat="41.7994" lon="9.21809">
        <ele>1327.59</ele>
        <time>2019-09-09T05:30:01Z</time>
      </trkpt>
      <trkpt lat="41.79937" lon="9.21808">
        <ele>1330.87</ele>
        <time>2019-09-09T05:29:46Z</time>
      </trkpt>
      <trkpt lat="41.79935" lon="9.21805">
        <ele>1332.66</ele>
        <time>2019-09-09T05:29:31Z</time>
      </trkpt>
      <trkpt lat="41.7993" lon="9.21805">
        <ele>1330.89</ele>
        <time>2019-09-09T05:29:15Z</time>
      </trkpt>
      <trkpt lat="41.79929" lon="9.21797">
        <ele>1333.23</ele>
        <time>2019-09-09T05:28:56Z</time>
      </trkpt>
      <trkpt lat="41.79926" lon="9.21792">
        <ele>1331.83</ele>
        <time>2019-09-09T05:28:39Z</time>
      </trkpt>
      <trkpt lat="41.79925" lon="9.21787">
        <ele>1329.79</ele>
        <time>2019-09-09T05:28:23Z</time>
      </trkpt>
      <trkpt lat="41.79922" lon="9.21781">
        <ele>1327.34</ele>
        <time>2019-09-09T05:28:04Z</time>
      </trkpt>
      <trkpt lat="41.79918" lon="9.21782">
        <ele>1330.84</ele>
        <time>2019-09-09T05:27:48Z</time>
      </trkpt>
      <trkpt lat="41.79918" lon="9.21776">
        <ele>1335.8</ele>
        <time>2019-09-09T05:27:28Z</time>
      </trkpt>
      <trkpt lat="41.79912" lon="9.21772">
        <ele>1334.88</ele>
        <time>2019-09-09T05:27:09Z</time>
      </trkpt>
      <trkpt lat="41.79907" lon="9.21775">
        <ele>1333.92</ele>
        <time>2019-09-09T05:26:52Z</time>
      </trkpt>
      <trkpt lat="41.79902" lon="9.21777">
        <ele>1332.85</ele>
        <time>2019-09-09T05:26:36Z</time>
      </trkpt>
      <trkpt lat="41.79897" lon="9.21788">
        <ele>1332.25</ele>
        <time>2019-09-09T05:26:16Z</time>
      </trkpt>
      <trkpt lat="41.79894" lon="9.21796">
        <ele>1331.02</ele>
        <time>2019-09-09T05:25:54Z</time>
      </trkpt>
      <trkpt lat="41.79891" lon="9.21796">
        <ele>1330.21</ele>
        <time>2019-09-09T05:25:43Z</time>
      </trkpt>
      <trkpt lat="41.79884" lon="9.21795">
        <ele>1329.14</ele>
        <time>2019-09-09T05:25:26Z</time>
      </trkpt>
      <trkpt lat="41.79882" lon="9.21794">
        <ele>1328.14</ele>
        <time>2019-09-09T05:25:11Z</time>
      </trkpt>
      <trkpt lat="41.79878" lon="9.21797">
        <ele>1326.68</ele>
        <time>2019-09-09T05:24:56Z</time>
      </trkpt>
      <trkpt lat="41.79876" lon="9.21796">
        <ele>1324.84</ele>
        <time>2019-09-09T05:24:43Z</time>
      </trkpt>
      <trkpt lat="41.79871" lon="9.21798">
        <ele>1320.79</ele>
        <time>2019-09-09T05:24:27Z</time>
      </trkpt>
      <trkpt lat="41.79869" lon="9.21801">
        <ele>1318.04</ele>
        <time>2019-09-09T05:24:15Z</time>
      </trkpt>
      <trkpt lat="41.79864" lon="9.21803">
        <ele>1316.61</ele>
        <time>2019-09-09T05:23:57Z</time>
      </trkpt>
      <trkpt lat="41.79862" lon="9.21805">
        <ele>1316.27</ele>
        <time>2019-09-09T05:23:42Z</time>
      </trkpt>
      <trkpt lat="41.79858" lon="9.2181">
        <ele>1316.22</ele>
        <time>2019-09-09T05:23:24Z</time>
      </trkpt>
      <trkpt lat="41.79855" lon="9.21813">
        <ele>1314.83</ele>
        <time>2019-09-09T05:23:09Z</time>
      </trkpt>
      <trkpt lat="41.79851" lon="9.21816">
        <ele>1312.62</ele>
        <time>2019-09-09T05:22:56Z</time>
      </trkpt>
      <trkpt lat="41.79845" lon="9.21822">
        <ele>1308.86</ele>
        <time>2019-09-09T05:22:42Z</time>
      </trkpt>
      <trkpt lat="41.79838" lon="9.21826">
        <ele>1305.8</ele>
        <time>2019-09-09T05:22:26Z</time>
      </trkpt>
      <trkpt lat="41.7983" lon="9.21832">
        <ele>1303.92</ele>
        <time>2019-09-09T05:22:12Z</time>
      </trkpt>
      <trkpt lat="41.79823" lon="9.21841">
        <ele>1301.62</ele>
        <time>2019-09-09T05:21:59Z</time>
      </trkpt>
      <trkpt lat="41.79817" lon="9.2185">
        <ele>1299.56</ele>
        <time>2019-09-09T05:21:46Z</time>
      </trkpt>
      <trkpt lat="41.79813" lon="9.21853">
        <ele>1295.93</ele>
        <time>2019-09-09T05:21:31Z</time>
      </trkpt>
      <trkpt lat="41.79809" lon="9.21867">
        <ele>1294.66</ele>
        <time>2019-09-09T05:21:16Z</time>
      </trkpt>
      <trkpt lat="41.79803" lon="9.21876">
        <ele>1294.99</ele>
        <time>2019-09-09T05:21:04Z</time>
      </trkpt>
      <trkpt lat="41.798" lon="9.21887">
        <ele>1292.44</ele>
        <time>2019-09-09T05:20:48Z</time>
      </trkpt>
      <trkpt lat="41.79798" lon="9.219">
        <ele>1290.77</ele>
        <time>2019-09-09T05:20:34Z</time>
      </trkpt>
      <trkpt lat="41.79796" lon="9.21911">
        <ele>1288.83</ele>
        <time>2019-09-09T05:20:19Z</time>
      </trkpt>
      <trkpt lat="41.79795" lon="9.21919">
        <ele>1288.47</ele>
        <time>2019-09-09T05:20:06Z</time>
      </trkpt>
      <trkpt lat="41.79793" lon="9.21923">
        <ele>1288.43</ele>
        <time>2019-09-09T05:19:50Z</time>
      </trkpt>
      <trkpt lat="41.79793" lon="9.21923">
        <ele>1288.97</ele>
        <time>2019-09-09T05:19:31Z</time>
      </trkpt>
      <trkpt lat="41.79794" lon="9.21925">
        <ele>1289.82</ele>
        <time>2019-09-09T05:19:13Z</time>
      </trkpt>
      <trkpt lat="41.79794" lon="9.21929">
        <ele>1290.49</ele>
        <time>2019-09-09T05:18:51Z</time>
      </trkpt>
      <trkpt lat="41.79795" lon="9.21937">
        <ele>1291.8</ele>
        <time>2019-09-09T05:18:36Z</time>
      </trkpt>
      <trkpt lat="41.79794" lon="9.21943">
        <ele>1291.22</ele>
        <time>2019-09-09T05:18:22Z</time>
      </trkpt>
      <trkpt lat="41.79793" lon="9.21951">
        <ele>1290.03</ele>
        <time>2019-09-09T05:18:07Z</time>
      </trkpt>
      <trkpt lat="41.7979" lon="9.21953">
        <ele>1289.73</ele>
        <time>2019-09-09T05:17:55Z</time>
      </trkpt>
      <trkpt lat="41.7979" lon="9.21961">
        <ele>1287.73</ele>
        <time>2019-09-09T05:17:41Z</time>
      </trkpt>
      <trkpt lat="41.79792" lon="9.21964">
        <ele>1284.99</ele>
        <time>2019-09-09T05:17:28Z</time>
      </trkpt>
      <trkpt lat="41.79795" lon="9.21965">
        <ele>1282.44</ele>
        <time>2019-09-09T05:17:17Z</time>
      </trkpt>
      <trkpt lat="41.79796" lon="9.21971">
        <ele>1279.36</ele>
        <time>2019-09-09T05:17:02Z</time>
      </trkpt>
      <trkpt lat="41.79792" lon="9.21974">
        <ele>1275.95</ele>
        <time>2019-09-09T05:16:48Z</time>
      </trkpt>
      <trkpt lat="41.79789" lon="9.21973">
        <ele>1272.59</ele>
        <time>2019-09-09T05:16:33Z</time>
      </trkpt>
      <trkpt lat="41.79785" lon="9.21974">
        <ele>1269.3</ele>
        <time>2019-09-09T05:16:17Z</time>
      </trkpt>
      <trkpt lat="41.79784" lon="9.2198">
        <ele>1265.72</ele>
        <time>2019-09-09T05:16:03Z</time>
      </trkpt>
      <trkpt lat="41.79781" lon="9.21979">
        <ele>1261.28</ele>
        <time>2019-09-09T05:15:50Z</time>
      </trkpt>
      <trkpt lat="41.79778" lon="9.21983">
        <ele>1260.04</ele>
        <time>2019-09-09T05:15:35Z</time>
      </trkpt>
      <trkpt lat="41.79776" lon="9.21985">
        <ele>1258.61</ele>
        <time>2019-09-09T05:15:22Z</time>
      </trkpt>
      <trkpt lat="41.79772" lon="9.21983">
        <ele>1257.08</ele>
        <time>2019-09-09T05:15:05Z</time>
      </trkpt>
      <trkpt lat="41.79767" lon="9.21987">
        <ele>1254.45</ele>
        <time>2019-09-09T05:14:51Z</time>
      </trkpt>
      <trkpt lat="41.79765" lon="9.21992">
        <ele>1251.38</ele>
        <time>2019-09-09T05:14:37Z</time>
      </trkpt>
      <trkpt lat="41.79764" lon="9.21996">
        <ele>1249.46</ele>
        <time>2019-09-09T05:14:25Z</time>
      </trkpt>
      <trkpt lat="41.79763" lon="9.21997">
        <ele>1247.83</ele>
        <time>2019-09-09T05:14:12Z</time>
      </trkpt>
      <trkpt lat="41.7976" lon="9.22001">
        <ele>1246.12</ele>
        <time>2019-09-09T05:13:55Z</time>
      </trkpt>
      <trkpt lat="41.79758" lon="9.22002">
        <ele>1244.57</ele>
        <time>2019-09-09T05:13:41Z</time>
      </trkpt>
      <trkpt lat="41.79756" lon="9.22005">
        <ele>1242.71</ele>
        <time>2019-09-09T05:13:27Z</time>
      </trkpt>
      <trkpt lat="41.79753" lon="9.22007">
        <ele>1241.07</ele>
        <time>2019-09-09T05:13:10Z</time>
      </trkpt>
      <trkpt lat="41.79751" lon="9.22011">
        <ele>1239.19</ele>
        <time>2019-09-09T05:12:57Z</time>
      </trkpt>
      <trkpt lat="41.79748" lon="9.22013">
        <ele>1237.51</ele>
        <time>2019-09-09T05:12:43Z</time>
      </trkpt>
      <trkpt lat="41.79744" lon="9.22018">
        <ele>1235.83</ele>
        <time>2019-09-09T05:12:30Z</time>
      </trkpt>
      <trkpt lat="41.79744" lon="9.22021">
        <ele>1234.1</ele>
        <time>2019-09-09T05:12:18Z</time>
      </trkpt>
      <trkpt lat="41.79746" lon="9.22027">
        <ele>1231.11</ele>
        <time>2019-09-09T05:12:04Z</time>
      </trkpt>
      <trkpt lat="41.79745" lon="9.22033">
        <ele>1228.49</ele>
        <time>2019-09-09T05:11:50Z</time>
      </trkpt>
      <trkpt lat="41.79748" lon="9.22046">
        <ele>1226.3</ele>
        <time>2019-09-09T05:11:35Z</time>
      </trkpt>
      <trkpt lat="41.79749" lon="9.22051">
        <ele>1225.97</ele>
        <time>2019-09-09T05:11:19Z</time>
      </trkpt>
      <trkpt lat="41.79748" lon="9.22062">
        <ele>1225.04</ele>
        <time>2019-09-09T05:11:03Z</time>
      </trkpt>
      <trkpt lat="41.79751" lon="9.22071">
        <ele>1222.63</ele>
        <time>2019-09-09T05:10:49Z</time>
      </trkpt>
      <trkpt lat="41.79748" lon="9.22077">
        <ele>1220.98</ele>
        <time>2019-09-09T05:10:34Z</time>
      </trkpt>
      <trkpt lat="41.79745" lon="9.22092">
        <ele>1222.77</ele>
        <time>2019-09-09T05:10:20Z</time>
      </trkpt>
      <trkpt lat="41.79746" lon="9.22104">
        <ele>1221.59</ele>
        <time>2019-09-09T05:10:07Z</time>
      </trkpt>
      <trkpt lat="41.7974" lon="9.22106">
        <ele>1223.49</ele>
        <time>2019-09-09T05:09:52Z</time>
      </trkpt>
      <trkpt lat="41.79738" lon="9.22111">
        <ele>1225.82</ele>
        <time>2019-09-09T05:09:37Z</time>
      </trkpt>
      <trkpt lat="41.79739" lon="9.22122">
        <ele>1228.65</ele>
        <time>2019-09-09T05:09:23Z</time>
      </trkpt>
      <trkpt lat="41.79737" lon="9.22127">
        <ele>1231.86</ele>
        <time>2019-09-09T05:09:10Z</time>
      </trkpt>
      <trkpt lat="41.79735" lon="9.22134">
        <ele>1231.53</ele>
        <time>2019-09-09T05:08:57Z</time>
      </trkpt>
      <trkpt lat="41.79731" lon="9.22138">
        <ele>1229.41</ele>
        <time>2019-09-09T05:08:44Z</time>
      </trkpt>
      <trkpt lat="41.79731" lon="9.22145">
        <ele>1227.96</ele>
        <time>2019-09-09T05:08:31Z</time>
      </trkpt>
      <trkpt lat="41.79727" lon="9.22159">
        <ele>1226.83</ele>
        <time>2019-09-09T05:08:14Z</time>
      </trkpt>
      <trkpt lat="41.79723" lon="9.22172">
        <ele>1227.2</ele>
        <time>2019-09-09T05:07:59Z</time>
      </trkpt>
      <trkpt lat="41.79724" lon="9.22176">
        <ele>1227.69</ele>
        <time>2019-09-09T05:07:54Z</time>
      </trkpt>
      <trkpt lat="41.79723" lon="9.22187">
        <ele>1225.46</ele>
        <time>2019-09-09T05:07:37Z</time>
      </trkpt>
      <trkpt lat="41.79719" lon="9.222">
        <ele>1221.68</ele>
        <time>2019-09-09T05:07:22Z</time>
      </trkpt>
      <trkpt lat="41.79715" lon="9.22224">
        <ele>1220.79</ele>
        <time>2019-09-09T05:07:00Z</time>
      </trkpt>
      <trkpt lat="41.79716" lon="9.22235">
        <ele>1220.1</ele>
        <time>2019-09-09T05:06:45Z</time>
      </trkpt>
      <trkpt lat="41.79709" lon="9.2225">
        <ele>1217.6</ele>
        <time>2019-09-09T05:06:29Z</time>
      </trkpt>
      <trkpt lat="41.79703" lon="9.22273">
        <ele>1215.32</ele>
        <time>2019-09-09T05:06:15Z</time>
      </trkpt>
      <trkpt lat="41.79696" lon="9.22288">
        <ele>1214.75</ele>
        <time>2019-09-09T05:06:02Z</time>
      </trkpt>
      <trkpt lat="41.79687" lon="9.22313">
        <ele>1213.09</ele>
        <time>2019-09-09T05:05:46Z</time>
      </trkpt>
      <trkpt lat="41.79685" lon="9.22325">
        <ele>1212.25</ele>
        <time>2019-09-09T05:05:36Z</time>
      </trkpt>
      <trkpt lat="41.79679" lon="9.22335">
        <ele>1211.4</ele>
        <time>2019-09-09T05:05:25Z</time>
      </trkpt>
      <trkpt lat="41.79671" lon="9.22351">
        <ele>1211.05</ele>
        <time>2019-09-09T05:05:08Z</time>
      </trkpt>
      <trkpt lat="41.7966" lon="9.22363">
        <ele>1209.52</ele>
        <time>2019-09-09T05:04:54Z</time>
      </trkpt>
      <trkpt lat="41.79649" lon="9.22375">
        <ele>1211.44</ele>
        <time>2019-09-09T05:04:40Z</time>
      </trkpt>
      <trkpt lat="41.7963" lon="9.22397">
        <ele>1213.12</ele>
        <time>2019-09-09T05:04:21Z</time>
      </trkpt>
      <trkpt lat="41.79618" lon="9.22419">
        <ele>1214.58</ele>
        <time>2019-09-09T05:04:04Z</time>
      </trkpt>
      <trkpt lat="41.79597" lon="9.22433">
        <ele>1217.66</ele>
        <time>2019-09-09T05:03:45Z</time>
      </trkpt>
      <trkpt lat="41.7959" lon="9.2244">
        <ele>1218.95</ele>
        <time>2019-09-09T05:03:36Z</time>
      </trkpt>
      <trkpt lat="41.79592" lon="9.22452">
        <ele>1219.63</ele>
        <time>2019-09-09T05:03:23Z</time>
      </trkpt>
      <trkpt lat="41.79593" lon="9.22474">
        <ele>1220.33</ele>
        <time>2019-09-09T05:03:04Z</time>
      </trkpt>
      <trkpt lat="41.79593" lon="9.22494">
        <ele>1219.74</ele>
        <time>2019-09-09T05:02:51Z</time>
      </trkpt>
      <trkpt lat="41.79589" lon="9.22499">
        <ele>1218.85</ele>
        <time>2019-09-09T05:02:40Z</time>
      </trkpt>
      <trkpt lat="41.79591" lon="9.22537">
        <ele>1215.37</ele>
        <time>2019-09-09T05:02:17Z</time>
      </trkpt>
      <trkpt lat="41.7959" lon="9.22543">
        <ele>1215.46</ele>
        <time>2019-09-09T05:02:13Z</time>
      </trkpt>
      <trkpt lat="41.7959" lon="9.22549">
        <ele>1215.04</ele>
        <time>2019-09-09T05:02:09Z</time>
      </trkpt>
      <trkpt lat="41.79592" lon="9.22562">
        <ele>1214.11</ele>
        <time>2019-09-09T05:02:00Z</time>
      </trkpt>
      <trkpt lat="41.79591" lon="9.22572">
        <ele>1213.47</ele>
        <time>2019-09-09T05:01:53Z</time>
      </trkpt>
      <trkpt lat="41.79589" lon="9.22583">
        <ele>1212.35</ele>
        <time>2019-09-09T05:01:46Z</time>
      </trkpt>
      <trkpt lat="41.79589" lon="9.22611">
        <ele>1211.11</ele>
        <time>2019-09-09T05:01:28Z</time>
      </trkpt>
      <trkpt lat="41.79589" lon="9.22635">
        <ele>1210.62</ele>
        <time>2019-09-09T05:01:14Z</time>
      </trkpt>
      <trkpt lat="41.79586" lon="9.22662">
        <ele>1205.61</ele>
        <time>2019-09-09T05:00:57Z</time>
      </trkpt>
      <trkpt lat="41.79583" lon="9.22668">
        <ele>1203.94</ele>
        <time>2019-09-09T05:00:52Z</time>
      </trkpt>
      <trkpt lat="41.79577" lon="9.22684">
        <ele>1201.72</ele>
        <time>2019-09-09T05:00:35Z</time>
      </trkpt>
      <trkpt lat="41.79574" lon="9.22695">
        <ele>1200.49</ele>
        <time>2019-09-09T05:00:19Z</time>
      </trkpt>
      <trkpt lat="41.79566" lon="9.22711">
        <ele>1201.28</ele>
        <time>2019-09-09T05:00:03Z</time>
      </trkpt>
      <trkpt lat="41.79554" lon="9.22734">
        <ele>1203.63</ele>
        <time>2019-09-09T04:59:46Z</time>
      </trkpt>
      <trkpt lat="41.79547" lon="9.22745">
        <ele>1201.11</ele>
        <time>2019-09-09T04:59:28Z</time>
      </trkpt>
      <trkpt lat="41.79542" lon="9.22753">
        <ele>1199.96</ele>
        <time>2019-09-09T04:59:13Z</time>
      </trkpt>
      <trkpt lat="41.79538" lon="9.22754">
        <ele>1196.64</ele>
        <time>2019-09-09T04:58:54Z</time>
      </trkpt>
      <trkpt lat="41.79532" lon="9.22771">
        <ele>1196.97</ele>
        <time>2019-09-09T04:58:40Z</time>
      </trkpt>
      <trkpt lat="41.79522" lon="9.22789">
        <ele>1197.96</ele>
        <time>2019-09-09T04:58:24Z</time>
      </trkpt>
      <trkpt lat="41.79519" lon="9.22804">
        <ele>1199.16</ele>
        <time>2019-09-09T04:58:14Z</time>
      </trkpt>
      <trkpt lat="41.79519" lon="9.22815">
        <ele>1198.85</ele>
        <time>2019-09-09T04:58:07Z</time>
      </trkpt>
      <trkpt lat="41.7952" lon="9.22838">
        <ele>1198.73</ele>
        <time>2019-09-09T04:57:53Z</time>
      </trkpt>
      <trkpt lat="41.79507" lon="9.22856">
        <ele>1197.69</ele>
        <time>2019-09-09T04:57:36Z</time>
      </trkpt>
      <trkpt lat="41.79488" lon="9.22883">
        <ele>1195.02</ele>
        <time>2019-09-09T04:57:14Z</time>
      </trkpt>
      <trkpt lat="41.79475" lon="9.22888">
        <ele>1192.92</ele>
        <time>2019-09-09T04:57:05Z</time>
      </trkpt>
      <trkpt lat="41.7947" lon="9.22904">
        <ele>1192.01</ele>
        <time>2019-09-09T04:56:51Z</time>
      </trkpt>
      <trkpt lat="41.7947" lon="9.22917">
        <ele>1191.28</ele>
        <time>2019-09-09T04:56:42Z</time>
      </trkpt>
      <trkpt lat="41.79469" lon="9.22919">
        <ele>1191.11</ele>
        <time>2019-09-09T04:56:40Z</time>
      </trkpt>
      <trkpt lat="41.79469" lon="9.22922">
        <ele>1191.16</ele>
        <time>2019-09-09T04:56:38Z</time>
      </trkpt>
      <trkpt lat="41.79469" lon="9.2293">
        <ele>1191.69</ele>
        <time>2019-09-09T04:56:33Z</time>
      </trkpt>
      <trkpt lat="41.7947" lon="9.22935">
        <ele>1192.51</ele>
        <time>2019-09-09T04:56:18Z</time>
      </trkpt>
      <trkpt lat="41.79475" lon="9.22932">
        <ele>1197.48</ele>
        <time>2019-09-09T04:55:46Z</time>
      </trkpt>
      <trkpt lat="41.79485" lon="9.22933">
        <ele>1198.23</ele>
        <time>2019-09-09T04:55:32Z</time>
      </trkpt>
      <trkpt lat="41.79489" lon="9.22927">
        <ele>1196.9</ele>
        <time>2019-09-09T04:55:27Z</time>
      </trkpt>
      <trkpt lat="41.79488" lon="9.22924">
        <ele>1195.44</ele>
        <time>2019-09-09T04:55:04Z</time>
      </trkpt>
      <trkpt lat="41.79488" lon="9.22923">
        <ele>1195.5</ele>
        <time>2019-09-09T04:54:41Z</time>
      </trkpt>
      <trkpt lat="41.79488" lon="9.22924">
        <ele>1198.51</ele>
        <time>2019-09-09T04:54:17Z</time>
      </trkpt>
      <trkpt lat="41.79497" lon="9.22936">
        <ele>1204.3</ele>
        <time>2019-09-09T04:53:48Z</time>
      </trkpt>
      <trkpt lat="41.79497" lon="9.22936">
        <ele>1204.3</ele>
        <time>2019-09-09T04:53:48Z</time>
      </trkpt>
    </trkseg>
  </trk>
  <trk>
    <name><![CDATA[2019-09-09 15:52:46]]></name>
    <trkseg>
      <trkpt lat="41.79497" lon="9.22936">
        <ele>1204.3</ele>
        <time>2019-09-09T04:53:48Z</time>
      </trkpt>
      <trkpt lat="41.79488" lon="9.22924">
        <ele>1198.51</ele>
        <time>2019-09-09T04:54:17Z</time>
      </trkpt>
      <trkpt lat="41.79488" lon="9.22923">
        <ele>1195.5</ele>
        <time>2019-09-09T04:54:41Z</time>
      </trkpt>
      <trkpt lat="41.79488" lon="9.22924">
        <ele>1195.44</ele>
        <time>2019-09-09T04:55:04Z</time>
      </trkpt>
      <trkpt lat="41.79489" lon="9.22927">
        <ele>1196.9</ele>
        <time>2019-09-09T04:55:27Z</time>
      </trkpt>
      <trkpt lat="41.79485" lon="9.22933">
        <ele>1198.23</ele>
        <time>2019-09-09T04:55:32Z</time>
      </trkpt>
      <trkpt lat="41.79475" lon="9.22932">
        <ele>1197.48</ele>
        <time>2019-09-09T04:55:46Z</time>
      </trkpt>
      <trkpt lat="41.7947" lon="9.22935">
        <ele>1192.51</ele>
        <time>2019-09-09T04:56:18Z</time>
      </trkpt>
      <trkpt lat="41.79469" lon="9.2293">
        <ele>1191.69</ele>
        <time>2019-09-09T04:56:33Z</time>
      </trkpt>
      <trkpt lat="41.79469" lon="9.22922">
        <ele>1191.16</ele>
        <time>2019-09-09T04:56:38Z</time>
      </trkpt>
      <trkpt lat="41.79469" lon="9.22919">
        <ele>1191.11</ele>
        <time>2019-09-09T04:56:40Z</time>
      </trkpt>
      <trkpt lat="41.7947" lon="9.22917">
        <ele>1191.28</ele>
        <time>2019-09-09T04:56:42Z</time>
      </trkpt>
      <trkpt lat="41.7947" lon="9.22904">
        <ele>1192.01</ele>
        <time>2019-09-09T04:56:51Z</time>
      </trkpt>
      <trkpt lat="41.79475" lon="9.22888">
        <ele>1192.92</ele>
        <time>2019-09-09T04:57:05Z</time>
      </trkpt>
      <trkpt lat="41.79488" lon="9.22883">
        <ele>1195.02</ele>
        <time>2019-09-09T04:57:14Z</time>
      </trkpt>
      <trkpt lat="41.79507" lon="9.22856">
        <ele>1197.69</ele>
        <time>2019-09-09T04:57:36Z</time>
      </trkpt>
      <trkpt lat="41.7952" lon="9.22838">
        <ele>1198.73</ele>
        <time>2019-09-09T04:57:53Z</time>
      </trkpt>
      <trkpt lat="41.79519" lon="9.22815">
        <ele>1198.85</ele>
        <time>2019-09-09T04:58:07Z</time>
      </trkpt>
      <trkpt lat="41.79519" lon="9.22804">
        <ele>1199.16</ele>
        <time>2019-09-09T04:58:14Z</time>
      </trkpt>
      <trkpt lat="41.79522" lon="9.22789">
        <ele>1197.96</ele>
        <time>2019-09-09T04:58:24Z</time>
      </trkpt>
      <trkpt lat="41.79532" lon="9.22771">
        <ele>1196.97</ele>
        <time>2019-09-09T04:58:40Z</time>
      </trkpt>
      <trkpt lat="41.79538" lon="9.22754">
        <ele>1196.64</ele>
        <time>2019-09-09T04:58:54Z</time>
      </trkpt>
      <trkpt lat="41.79542" lon="9.22753">
        <ele>1199.96</ele>
        <time>2019-09-09T04:59:13Z</time>
      </trkpt>
      <trkpt lat="41.79547" lon="9.22745">
        <ele>1201.11</ele>
        <time>2019-09-09T04:59:28Z</time>
      </trkpt>
      <trkpt lat="41.79554" lon="9.22734">
        <ele>1203.63</ele>
        <time>2019-09-09T04:59:46Z</time>
      </trkpt>
      <trkpt lat="41.79566" lon="9.22711">
        <ele>1201.28</ele>
        <time>2019-09-09T05:00:03Z</time>
      </trkpt>
      <trkpt lat="41.79574" lon="9.22695">
        <ele>1200.49</ele>
        <time>2019-09-09T05:00:19Z</time>
      </trkpt>
      <trkpt lat="41.79577" lon="9.22684">
        <ele>1201.72</ele>
        <time>2019-09-09T05:00:35Z</time>
      </trkpt>
      <trkpt lat="41.79583" lon="9.22668">
        <ele>1203.94</ele>
        <time>2019-09-09T05:00:52Z</time>
      </trkpt>
      <trkpt lat="41.79586" lon="9.22662">
        <ele>1205.61</ele>
        <time>2019-09-09T05:00:57Z</time>
      </trkpt>
      <trkpt lat="41.79589" lon="9.22635">
        <ele>1210.62</ele>
        <time>2019-09-09T05:01:14Z</time>
      </trkpt>
      <trkpt lat="41.79589" lon="9.22611">
        <ele>1211.11</ele>
        <time>2019-09-09T05:01:28Z</time>
      </trkpt>
      <trkpt lat="41.79589" lon="9.22583">
        <ele>1212.35</ele>
        <time>2019-09-09T05:01:46Z</time>
      </trkpt>
      <trkpt lat="41.79591" lon="9.22572">
        <ele>1213.47</ele>
        <time>2019-09-09T05:01:53Z</time>
      </trkpt>
      <trkpt lat="41.79592" lon="9.22562">
        <ele>1214.11</ele>
        <time>2019-09-09T05:02:00Z</time>
      </trkpt>
      <trkpt lat="41.7959" lon="9.22549">
        <ele>1215.04</ele>
        <time>2019-09-09T05:02:09Z</time>
      </trkpt>
      <trkpt lat="41.7959" lon="9.22543">
        <ele>1215.46</ele>
        <time>2019-09-09T05:02:13Z</time>
      </trkpt>
      <trkpt lat="41.79591" lon="9.22537">
        <ele>1215.37</ele>
        <time>2019-09-09T05:02:17Z</time>
      </trkpt>
      <trkpt lat="41.79589" lon="9.22499">
        <ele>1218.85</ele>
        <time>2019-09-09T05:02:40Z</time>
      </trkpt>
      <trkpt lat="41.79593" lon="9.22494">
        <ele>1219.74</ele>
        <time>2019-09-09T05:02:51Z</time>
      </trkpt>
      <trkpt lat="41.79593" lon="9.22474">
        <ele>1220.33</ele>
        <time>2019-09-09T05:03:04Z</time>
      </trkpt>
      <trkpt lat="41.79592" lon="9.22452">
        <ele>1219.63</ele>
        <time>2019-09-09T05:03:23Z</time>
      </trkpt>
      <trkpt lat="41.7959" lon="9.2244">
        <ele>1218.95</ele>
        <time>2019-09-09T05:03:36Z</time>
      </trkpt>
      <trkpt lat="41.79597" lon="9.22433">
        <ele>1217.66</ele>
        <time>2019-09-09T05:03:45Z</time>
      </trkpt>
      <trkpt lat="41.79618" lon="9.22419">
        <ele>1214.58</ele>
        <time>2019-09-09T05:04:04Z</time>
      </trkpt>
      <trkpt lat="41.7963" lon="9.22397">
        <ele>1213.12</ele>
        <time>2019-09-09T05:04:21Z</time>
      </trkpt>
      <trkpt lat="41.79649" lon="9.22375">
        <ele>1211.44</ele>
        <time>2019-09-09T05:04:40Z</time>
      </trkpt>
      <trkpt lat="41.7966" lon="9.22363">
        <ele>1209.52</ele>
        <time>2019-09-09T05:04:54Z</time>
      </trkpt>
      <trkpt lat="41.79671" lon="9.22351">
        <ele>1211.05</ele>
        <time>2019-09-09T05:05:08Z</time>
      </trkpt>
      <trkpt lat="41.79679" lon="9.22335">
        <ele>1211.4</ele>
        <time>2019-09-09T05:05:25Z</time>
      </trkpt>
      <trkpt lat="41.79685" lon="9.22325">
        <ele>1212.25</ele>
        <time>2019-09-09T05:05:36Z</time>
      </trkpt>
      <trkpt lat="41.79687" lon="9.22313">
        <ele>1213.09</ele>
        <time>2019-09-09T05:05:46Z</time>
      </trkpt>
      <trkpt lat="41.79696" lon="9.22288">
        <ele>1214.75</ele>
        <time>2019-09-09T05:06:02Z</time>
      </trkpt>
      <trkpt lat="41.79703" lon="9.22273">
        <ele>1215.32</ele>
        <time>2019-09-09T05:06:15Z</time>
      </trkpt>
      <trkpt lat="41.79709" lon="9.2225">
        <ele>1217.6</ele>
        <time>2019-09-09T05:06:29Z</time>
      </trkpt>
      <trkpt lat="41.79716" lon="9.22235">
        <ele>1220.1</ele>
        <time>2019-09-09T05:06:45Z</time>
      </trkpt>
      <trkpt lat="41.79715" lon="9.22224">
        <ele>1220.79</ele>
        <time>2019-09-09T05:07:00Z</time>
      </trkpt>
      <trkpt lat="41.79719" lon="9.222">
        <ele>1221.68</ele>
        <time>2019-09-09T05:07:22Z</time>
      </trkpt>
      <trkpt lat="41.79723" lon="9.22187">
        <ele>1225.46</ele>
        <time>2019-09-09T05:07:37Z</time>
      </trkpt>
      <trkpt lat="41.79724" lon="9.22176">
        <ele>1227.69</ele>
        <time>2019-09-09T05:07:54Z</time>
      </trkpt>
      <trkpt lat="41.79723" lon="9.22172">
        <ele>1227.2</ele>
        <time>2019-09-09T05:07:59Z</time>
      </trkpt>
      <trkpt lat="41.79727" lon="9.22159">
        <ele>1226.83</ele>
        <time>2019-09-09T05:08:14Z</time>
      </trkpt>
      <trkpt lat="41.79731" lon="9.22145">
        <ele>1227.96</ele>
        <time>2019-09-09T05:08:31Z</time>
      </trkpt>
      <trkpt lat="41.79731" lon="9.22138">
        <ele>1229.41</ele>
        <time>2019-09-09T05:08:44Z</time>
      </trkpt>
      <trkpt lat="41.79735" lon="9.22134">
        <ele>1231.53</ele>
        <time>2019-09-09T05:08:57Z</time>
      </trkpt>
      <trkpt lat="41.79737" lon="9.22127">
        <ele>1231.86</ele>
        <time>2019-09-09T05:09:10Z</time>
      </trkpt>
      <trkpt lat="41.79739" lon="9.22122">
        <ele>1228.65</ele>
        <time>2019-09-09T05:09:23Z</time>
      </trkpt>
      <trkpt lat="41.79738" lon="9.22111">
        <ele>1225.82</ele>
        <time>2019-09-09T05:09:37Z</time>
      </trkpt>
      <trkpt lat="41.7974" lon="9.22106">
        <ele>1223.49</ele>
        <time>2019-09-09T05:09:52Z</time>
      </trkpt>
      <trkpt lat="41.79746" lon="9.22104">
        <ele>1221.59</ele>
        <time>2019-09-09T05:10:07Z</time>
      </trkpt>
      <trkpt lat="41.79745" lon="9.22092">
        <ele>1222.77</ele>
        <time>2019-09-09T05:10:20Z</time>
      </trkpt>
      <trkpt lat="41.79748" lon="9.22077">
        <ele>1220.98</ele>
        <time>2019-09-09T05:10:34Z</time>
      </trkpt>
      <trkpt lat="41.79751" lon="9.22071">
        <ele>1222.63</ele>
        <time>2019-09-09T05:10:49Z</time>
      </trkpt>
      <trkpt lat="41.79748" lon="9.22062">
        <ele>1225.04</ele>
        <time>2019-09-09T05:11:03Z</time>
      </trkpt>
      <trkpt lat="41.79749" lon="9.22051">
        <ele>1225.97</ele>
        <time>2019-09-09T05:11:19Z</time>
      </trkpt>
      <trkpt lat="41.79748" lon="9.22046">
        <ele>1226.3</ele>
        <time>2019-09-09T05:11:35Z</time>
      </trkpt>
      <trkpt lat="41.79745" lon="9.22033">
        <ele>1228.49</ele>
        <time>2019-09-09T05:11:50Z</time>
      </trkpt>
      <trkpt lat="41.79746" lon="9.22027">
        <ele>1231.11</ele>
        <time>2019-09-09T05:12:04Z</time>
      </trkpt>
      <trkpt lat="41.79744" lon="9.22021">
        <ele>1234.1</ele>
        <time>2019-09-09T05:12:18Z</time>
      </trkpt>
      <trkpt lat="41.79744" lon="9.22018">
        <ele>1235.83</ele>
        <time>2019-09-09T05:12:30Z</time>
      </trkpt>
      <trkpt lat="41.79748" lon="9.22013">
        <ele>1237.51</ele>
        <time>2019-09-09T05:12:43Z</time>
      </trkpt>
      <trkpt lat="41.79751" lon="9.22011">
        <ele>1239.19</ele>
        <time>2019-09-09T05:12:57Z</time>
      </trkpt>
      <trkpt lat="41.79753" lon="9.22007">
        <ele>1241.07</ele>
        <time>2019-09-09T05:13:10Z</time>
      </trkpt>
      <trkpt lat="41.79756" lon="9.22005">
        <ele>1242.71</ele>
        <time>2019-09-09T05:13:27Z</time>
      </trkpt>
      <trkpt lat="41.79758" lon="9.22002">
        <ele>1244.57</ele>
        <time>2019-09-09T05:13:41Z</time>
      </trkpt>
      <trkpt lat="41.7976" lon="9.22001">
        <ele>1246.12</ele>
        <time>2019-09-09T05:13:55Z</time>
      </trkpt>
      <trkpt lat="41.79763" lon="9.21997">
        <ele>1247.83</ele>
        <time>2019-09-09T05:14:12Z</time>
      </trkpt>
      <trkpt lat="41.79764" lon="9.21996">
        <ele>1249.46</ele>
        <time>2019-09-09T05:14:25Z</time>
      </trkpt>
      <trkpt lat="41.79765" lon="9.21992">
        <ele>1251.38</ele>
        <time>2019-09-09T05:14:37Z</time>
      </trkpt>
      <trkpt lat="41.79767" lon="9.21987">
        <ele>1254.45</ele>
        <time>2019-09-09T05:14:51Z</time>
      </trkpt>
      <trkpt lat="41.79772" lon="9.21983">
        <ele>1257.08</ele>
        <time>2019-09-09T05:15:05Z</time>
      </trkpt>
      <trkpt lat="41.79776" lon="9.21985">
        <ele>1258.61</ele>
        <time>2019-09-09T05:15:22Z</time>
      </trkpt>
      <trkpt lat="41.79778" lon="9.21983">
        <ele>1260.04</ele>
        <time>2019-09-09T05:15:35Z</time>
      </trkpt>
      <trkpt lat="41.79781" lon="9.21979">
        <ele>1261.28</ele>
        <time>2019-09-09T05:15:50Z</time>
      </trkpt>
      <trkpt lat="41.79784" lon="9.2198">
        <ele>1265.72</ele>
        <time>2019-09-09T05:16:03Z</time>
      </trkpt>
      <trkpt lat="41.79785" lon="9.21974">
        <ele>1269.3</ele>
        <time>2019-09-09T05:16:17Z</time>
      </trkpt>
      <trkpt lat="41.79789" lon="9.21973">
        <ele>1272.59</ele>
        <time>2019-09-09T05:16:33Z</time>
      </trkpt>
      <trkpt lat="41.79792" lon="9.21974">
        <ele>1275.95</ele>
        <time>2019-09-09T05:16:48Z</time>
      </trkpt>
      <trkpt lat="41.79796" lon="9.21971">
        <ele>1279.36</ele>
        <time>2019-09-09T05:17:02Z</time>
      </trkpt>
      <trkpt lat="41.79795" lon="9.21965">
        <ele>1282.44</ele>
        <time>2019-09-09T05:17:17Z</time>
      </trkpt>
      <trkpt lat="41.79792" lon="9.21964">
        <ele>1284.99</ele>
        <time>2019-09-09T05:17:28Z</time>
      </trkpt>
      <trkpt lat="41.7979" lon="9.21961">
        <ele>1287.73</ele>
        <time>2019-09-09T05:17:41Z</time>
      </trkpt>
      <trkpt lat="41.7979" lon="9.21953">
        <ele>1289.73</ele>
        <time>2019-09-09T05:17:55Z</time>
      </trkpt>
      <trkpt lat="41.79793" lon="9.21951">
        <ele>1290.03</ele>
        <time>2019-09-09T05:18:07Z</time>
      </trkpt>
      <trkpt lat="41.79794" lon="9.21943">
        <ele>1291.22</ele>
        <time>2019-09-09T05:18:22Z</time>
      </trkpt>
      <trkpt lat="41.79795" lon="9.21937">
        <ele>1291.8</ele>
        <time>2019-09-09T05:18:36Z</time>
      </trkpt>
      <trkpt lat="41.79794" lon="9.21929">
        <ele>1290.49</ele>
        <time>2019-09-09T05:18:51Z</time>
      </trkpt>
      <trkpt lat="41.79794" lon="9.21925">
        <ele>1289.82</ele>
        <time>2019-09-09T05:19:13Z</time>
      </trkpt>
      <trkpt lat="41.79793" lon="9.21923">
        <ele>1288.97</ele>
        <time>2019-09-09T05:19:31Z</time>
      </trkpt>
      <trkpt lat="41.79793" lon="9.21923">
        <ele>1288.43</ele>
        <time>2019-09-09T05:19:50Z</time>
      </trkpt>
      <trkpt lat="41.79795" lon="9.21919">
        <ele>1288.47</ele>
        <time>2019-09-09T05:20:06Z</time>
      </trkpt>
      <trkpt lat="41.79796" lon="9.21911">
        <ele>1288.83</ele>
        <time>2019-09-09T05:20:19Z</time>
      </trkpt>
      <trkpt lat="41.79798" lon="9.219">
        <ele>1290.77</ele>
        <time>2019-09-09T05:20:34Z</time>
      </trkpt>
      <trkpt lat="41.798" lon="9.21887">
        <ele>1292.44</ele>
        <time>2019-09-09T05:20:48Z</time>
      </trkpt>
      <trkpt lat="41.79803" lon="9.21876">
        <ele>1294.99</ele>
        <time>2019-09-09T05:21:04Z</time>
      </trkpt>
      <trkpt lat="41.79809" lon="9.21867">
        <ele>1294.66</ele>
        <time>2019-09-09T05:21:16Z</time>
      </trkpt>
      <trkpt lat="41.79813" lon="9.21853">
        <ele>1295.93</ele>
        <time>2019-09-09T05:21:31Z</time>
      </trkpt>
      <trkpt lat="41.79817" lon="9.2185">
        <ele>1299.56</ele>
        <time>2019-09-09T05:21:46Z</time>
      </trkpt>
      <trkpt lat="41.79823" lon="9.21841">
        <ele>1301.62</ele>
        <time>2019-09-09T05:21:59Z</time>
      </trkpt>
      <trkpt lat="41.7983" lon="9.21832">
        <ele>1303.92</ele>
        <time>2019-09-09T05:22:12Z</time>
      </trkpt>
      <trkpt lat="41.79838" lon="9.21826">
        <ele>1305.8</ele>
        <time>2019-09-09T05:22:26Z</time>
      </trkpt>
      <trkpt lat="41.79845" lon="9.21822">
        <ele>1308.86</ele>
        <time>2019-09-09T05:22:42Z</time>
      </trkpt>
      <trkpt lat="41.79851" lon="9.21816">
        <ele>1312.62</ele>
        <time>2019-09-09T05:22:56Z</time>
      </trkpt>
      <trkpt lat="41.79855" lon="9.21813">
        <ele>1314.83</ele>
        <time>2019-09-09T05:23:09Z</time>
      </trkpt>
      <trkpt lat="41.79858" lon="9.2181">
        <ele>1316.22</ele>
        <time>2019-09-09T05:23:24Z</time>
      </trkpt>
      <trkpt lat="41.79862" lon="9.21805">
        <ele>1316.27</ele>
        <time>2019-09-09T05:23:42Z</time>
      </trkpt>
      <trkpt lat="41.79864" lon="9.21803">
        <ele>1316.61</ele>
        <time>2019-09-09T05:23:57Z</time>
      </trkpt>
      <trkpt lat="41.79869" lon="9.21801">
        <ele>1318.04</ele>
        <time>2019-09-09T05:24:15Z</time>
      </trkpt>
      <trkpt lat="41.79871" lon="9.21798">
        <ele>1320.79</ele>
        <time>2019-09-09T05:24:27Z</time>
      </trkpt>
      <trkpt lat="41.79876" lon="9.21796">
        <ele>1324.84</ele>
        <time>2019-09-09T05:24:43Z</time>
      </trkpt>
      <trkpt lat="41.79878" lon="9.21797">
        <ele>1326.68</ele>
        <time>2019-09-09T05:24:56Z</time>
      </trkpt>
      <trkpt lat="41.79882" lon="9.21794">
        <ele>1328.14</ele>
        <time>2019-09-09T05:25:11Z</time>
      </trkpt>
      <trkpt lat="41.79884" lon="9.21795">
        <ele>1329.14</ele>
        <time>2019-09-09T05:25:26Z</time>
      </trkpt>
      <trkpt lat="41.79891" lon="9.21796">
        <ele>1330.21</ele>
        <time>2019-09-09T05:25:43Z</time>
      </trkpt>
      <trkpt lat="41.79894" lon="9.21796">
        <ele>1331.02</ele>
        <time>2019-09-09T05:25:54Z</time>
      </trkpt>
      <trkpt lat="41.79897" lon="9.21788">
        <ele>1332.25</ele>
        <time>2019-09-09T05:26:16Z</time>
      </trkpt>
      <trkpt lat="41.79902" lon="9.21777">
        <ele>1332.85</ele>
        <time>2019-09-09T05:26:36Z</time>
      </trkpt>
      <trkpt lat="41.79907" lon="9.21775">
        <ele>1333.92</ele>
        <time>2019-09-09T05:26:52Z</time>
      </trkpt>
      <trkpt lat="41.79912" lon="9.21772">
        <ele>1334.88</ele>
        <time>2019-09-09T05:27:09Z</time>
      </trkpt>
      <trkpt lat="41.79918" lon="9.21776">
        <ele>1335.8</ele>
        <time>2019-09-09T05:27:28Z</time>
      </trkpt>
      <trkpt lat="41.79918" lon="9.21782">
        <ele>1330.84</ele>
        <time>2019-09-09T05:27:48Z</time>
      </trkpt>
      <trkpt lat="41.79922" lon="9.21781">
        <ele>1327.34</ele>
        <time>2019-09-09T05:28:04Z</time>
      </trkpt>
      <trkpt lat="41.79925" lon="9.21787">
        <ele>1329.79</ele>
        <time>2019-09-09T05:28:23Z</time>
      </trkpt>
      <trkpt lat="41.79926" lon="9.21792">
        <ele>1331.83</ele>
        <time>2019-09-09T05:28:39Z</time>
      </trkpt>
      <trkpt lat="41.79929" lon="9.21797">
        <ele>1333.23</ele>
        <time>2019-09-09T05:28:56Z</time>
      </trkpt>
      <trkpt lat="41.7993" lon="9.21805">
        <ele>1330.89</ele>
        <time>2019-09-09T05:29:15Z</time>
      </trkpt>
      <trkpt lat="41.79935" lon="9.21805">
        <ele>1332.66</ele>
        <time>2019-09-09T05:29:31Z</time>
      </trkpt>
      <trkpt lat="41.79937" lon="9.21808">
        <ele>1330.87</ele>
        <time>2019-09-09T05:29:46Z</time>
      </trkpt>
      <trkpt lat="41.7994" lon="9.21809">
        <ele>1327.59</ele>
        <time>2019-09-09T05:30:01Z</time>
      </trkpt>
      <trkpt lat="41.79944" lon="9.21812">
        <ele>1329.35</ele>
        <time>2019-09-09T05:30:15Z</time>
      </trkpt>
      <trkpt lat="41.79948" lon="9.21816">
        <ele>1337.34</ele>
        <time>2019-09-09T05:30:31Z</time>
      </trkpt>
      <trkpt lat="41.79951" lon="9.21815">
        <ele>1342.43</ele>
        <time>2019-09-09T05:30:47Z</time>
      </trkpt>
      <trkpt lat="41.79955" lon="9.21814">
        <ele>1349.63</ele>
        <time>2019-09-09T05:31:01Z</time>
      </trkpt>
      <trkpt lat="41.79955" lon="9.2181">
        <ele>1354.84</ele>
        <time>2019-09-09T05:31:15Z</time>
      </trkpt>
      <trkpt lat="41.7996" lon="9.21809">
        <ele>1356.6</ele>
        <time>2019-09-09T05:31:32Z</time>
      </trkpt>
      <trkpt lat="41.79963" lon="9.2181">
        <ele>1357.39</ele>
        <time>2019-09-09T05:31:57Z</time>
      </trkpt>
      <trkpt lat="41.79968" lon="9.21802">
        <ele>1359.53</ele>
        <time>2019-09-09T05:32:20Z</time>
      </trkpt>
      <trkpt lat="41.79971" lon="9.21806">
        <ele>1362.25</ele>
        <time>2019-09-09T05:32:35Z</time>
      </trkpt>
      <trkpt lat="41.79972" lon="9.21802">
        <ele>1367.88</ele>
        <time>2019-09-09T05:32:50Z</time>
      </trkpt>
      <trkpt lat="41.79973" lon="9.21808">
        <ele>1376.92</ele>
        <time>2019-09-09T05:33:04Z</time>
      </trkpt>
      <trkpt lat="41.79972" lon="9.21807">
        <ele>1383.87</ele>
        <time>2019-09-09T05:33:21Z</time>
      </trkpt>
      <trkpt lat="41.79975" lon="9.218">
        <ele>1390.6</ele>
        <time>2019-09-09T05:33:36Z</time>
      </trkpt>
      <trkpt lat="41.79977" lon="9.21794">
        <ele>1394.88</ele>
        <time>2019-09-09T05:33:50Z</time>
      </trkpt>
      <trkpt lat="41.79981" lon="9.21794">
        <ele>1396.5</ele>
        <time>2019-09-09T05:34:09Z</time>
      </trkpt>
      <trkpt lat="41.79982" lon="9.21795">
        <ele>1396.4</ele>
        <time>2019-09-09T05:34:13Z</time>
      </trkpt>
      <trkpt lat="41.7999" lon="9.21802">
        <ele>1396.56</ele>
        <time>2019-09-09T05:34:33Z</time>
      </trkpt>
      <trkpt lat="41.79993" lon="9.21803">
        <ele>1396.4</ele>
        <time>2019-09-09T05:34:52Z</time>
      </trkpt>
      <trkpt lat="41.79998" lon="9.21801">
        <ele>1396.91</ele>
        <time>2019-09-09T05:35:10Z</time>
      </trkpt>
      <trkpt lat="41.80001" lon="9.21796">
        <ele>1397.33</ele>
        <time>2019-09-09T05:35:27Z</time>
      </trkpt>
      <trkpt lat="41.80001" lon="9.21798">
        <ele>1398.84</ele>
        <time>2019-09-09T05:35:44Z</time>
      </trkpt>
      <trkpt lat="41.79998" lon="9.21786">
        <ele>1405.37</ele>
        <time>2019-09-09T05:36:00Z</time>
      </trkpt>
      <trkpt lat="41.79998" lon="9.21779">
        <ele>1411.05</ele>
        <time>2019-09-09T05:36:17Z</time>
      </trkpt>
      <trkpt lat="41.79998" lon="9.21782">
        <ele>1415.74</ele>
        <time>2019-09-09T05:36:31Z</time>
      </trkpt>
      <trkpt lat="41.79997" lon="9.21789">
        <ele>1421.87</ele>
        <time>2019-09-09T05:36:48Z</time>
      </trkpt>
      <trkpt lat="41.80002" lon="9.21784">
        <ele>1423.38</ele>
        <time>2019-09-09T05:37:09Z</time>
      </trkpt>
      <trkpt lat="41.80005" lon="9.21777">
        <ele>1423.92</ele>
        <time>2019-09-09T05:37:27Z</time>
      </trkpt>
      <trkpt lat="41.80008" lon="9.21777">
        <ele>1426.22</ele>
        <time>2019-09-09T05:37:44Z</time>
      </trkpt>
      <trkpt lat="41.80013" lon="9.21778">
        <ele>1427.31</ele>
        <time>2019-09-09T05:37:57Z</time>
      </trkpt>
      <trkpt lat="41.80015" lon="9.21776">
        <ele>1429.94</ele>
        <time>2019-09-09T05:38:12Z</time>
      </trkpt>
      <trkpt lat="41.80017" lon="9.21774">
        <ele>1432.84</ele>
        <time>2019-09-09T05:38:27Z</time>
      </trkpt>
      <trkpt lat="41.80015" lon="9.21771">
        <ele>1435.12</ele>
        <time>2019-09-09T05:38:46Z</time>
      </trkpt>
      <trkpt lat="41.80015" lon="9.2177">
        <ele>1437.22</ele>
        <time>2019-09-09T05:39:06Z</time>
      </trkpt>
      <trkpt lat="41.80013" lon="9.21769">
        <ele>1438.89</ele>
        <time>2019-09-09T05:39:46Z</time>
      </trkpt>
      <trkpt lat="41.80014" lon="9.21769">
        <ele>1440.28</ele>
        <time>2019-09-09T05:40:13Z</time>
      </trkpt>
      <trkpt lat="41.80017" lon="9.21766">
        <ele>1440.75</ele>
        <time>2019-09-09T05:40:30Z</time>
      </trkpt>
      <trkpt lat="41.80024" lon="9.21766">
        <ele>1441.08</ele>
        <time>2019-09-09T05:40:50Z</time>
      </trkpt>
      <trkpt lat="41.80025" lon="9.21761">
        <ele>1442.54</ele>
        <time>2019-09-09T05:41:09Z</time>
      </trkpt>
      <trkpt lat="41.80027" lon="9.21759">
        <ele>1444.22</ele>
        <time>2019-09-09T05:41:23Z</time>
      </trkpt>
      <trkpt lat="41.80029" lon="9.21753">
        <ele>1446.11</ele>
        <time>2019-09-09T05:41:39Z</time>
      </trkpt>
      <trkpt lat="41.80031" lon="9.21752">
        <ele>1447.88</ele>
        <time>2019-09-09T05:41:52Z</time>
      </trkpt>
      <trkpt lat="41.80032" lon="9.21753">
        <ele>1448.6</ele>
        <time>2019-09-09T05:42:07Z</time>
      </trkpt>
      <trkpt lat="41.80033" lon="9.21752">
        <ele>1448.79</ele>
        <time>2019-09-09T05:42:26Z</time>
      </trkpt>
      <trkpt lat="41.80033" lon="9.21752">
        <ele>1449.08</ele>
        <time>2019-09-09T05:42:49Z</time>
      </trkpt>
      <trkpt lat="41.80033" lon="9.2175">
        <ele>1449.77</ele>
        <time>2019-09-09T05:43:21Z</time>
      </trkpt>
      <trkpt lat="41.80032" lon="9.21749">
        <ele>1450.1</ele>
        <time>2019-09-09T05:43:57Z</time>
      </trkpt>
      <trkpt lat="41.80032" lon="9.21748">
        <ele>1449.63</ele>
        <time>2019-09-09T05:44:15Z</time>
      </trkpt>
      <trkpt lat="41.80035" lon="9.21751">
        <ele>1447.47</ele>
        <time>2019-09-09T05:44:32Z</time>
      </trkpt>
      <trkpt lat="41.80038" lon="9.21752">
        <ele>1445.55</ele>
        <time>2019-09-09T05:44:49Z</time>
      </trkpt>
      <trkpt lat="41.8004" lon="9.21754">
        <ele>1445.42</ele>
        <time>2019-09-09T05:45:08Z</time>
      </trkpt>
      <trkpt lat="41.80041" lon="9.21746">
        <ele>1445.77</ele>
        <time>2019-09-09T05:45:30Z</time>
      </trkpt>
      <trkpt lat="41.80041" lon="9.21731">
        <ele>1443.46</ele>
        <time>2019-09-09T05:45:47Z</time>
      </trkpt>
      <trkpt lat="41.80041" lon="9.2173">
        <ele>1443.32</ele>
        <time>2019-09-09T05:45:48Z</time>
      </trkpt>
      <trkpt lat="41.80039" lon="9.21723">
        <ele>1442.28</ele>
        <time>2019-09-09T05:46:02Z</time>
      </trkpt>
      <trkpt lat="41.8004" lon="9.21714">
        <ele>1441.34</ele>
        <time>2019-09-09T05:46:13Z</time>
      </trkpt>
      <trkpt lat="41.80041" lon="9.21705">
        <ele>1440.13</ele>
        <time>2019-09-09T05:46:28Z</time>
      </trkpt>
      <trkpt lat="41.8004" lon="9.21695">
        <ele>1437.21</ele>
        <time>2019-09-09T05:46:44Z</time>
      </trkpt>
      <trkpt lat="41.80041" lon="9.21688">
        <ele>1435.07</ele>
        <time>2019-09-09T05:46:57Z</time>
      </trkpt>
      <trkpt lat="41.80042" lon="9.2168">
        <ele>1433.49</ele>
        <time>2019-09-09T05:47:14Z</time>
      </trkpt>
      <trkpt lat="41.80043" lon="9.21672">
        <ele>1432.37</ele>
        <time>2019-09-09T05:47:30Z</time>
      </trkpt>
      <trkpt lat="41.80043" lon="9.21667">
        <ele>1429.85</ele>
        <time>2019-09-09T05:47:44Z</time>
      </trkpt>
      <trkpt lat="41.80046" lon="9.21665">
        <ele>1426.94</ele>
        <time>2019-09-09T05:47:58Z</time>
      </trkpt>
      <trkpt lat="41.80048" lon="9.21667">
        <ele>1426.88</ele>
        <time>2019-09-09T05:48:16Z</time>
      </trkpt>
      <trkpt lat="41.80051" lon="9.21669">
        <ele>1427.02</ele>
        <time>2019-09-09T05:48:36Z</time>
      </trkpt>
      <trkpt lat="41.80055" lon="9.21668">
        <ele>1426.69</ele>
        <time>2019-09-09T05:48:50Z</time>
      </trkpt>
      <trkpt lat="41.80055" lon="9.21664">
        <ele>1425.15</ele>
        <time>2019-09-09T05:49:14Z</time>
      </trkpt>
      <trkpt lat="41.80055" lon="9.21664">
        <ele>1424.74</ele>
        <time>2019-09-09T05:49:15Z</time>
      </trkpt>
      <trkpt lat="41.80054" lon="9.21664">
        <ele>1421.28</ele>
        <time>2019-09-09T05:49:28Z</time>
      </trkpt>
      <trkpt lat="41.80055" lon="9.21668">
        <ele>1417.89</ele>
        <time>2019-09-09T05:49:41Z</time>
      </trkpt>
      <trkpt lat="41.80059" lon="9.21672">
        <ele>1414.75</ele>
        <time>2019-09-09T05:49:58Z</time>
      </trkpt>
      <trkpt lat="41.80061" lon="9.21678">
        <ele>1412.83</ele>
        <time>2019-09-09T05:50:15Z</time>
      </trkpt>
      <trkpt lat="41.80063" lon="9.21683">
        <ele>1410.81</ele>
        <time>2019-09-09T05:50:31Z</time>
      </trkpt>
      <trkpt lat="41.80065" lon="9.21678">
        <ele>1407.73</ele>
        <time>2019-09-09T05:50:46Z</time>
      </trkpt>
      <trkpt lat="41.80069" lon="9.21675">
        <ele>1403.75</ele>
        <time>2019-09-09T05:51:01Z</time>
      </trkpt>
      <trkpt lat="41.80067" lon="9.21669">
        <ele>1400.92</ele>
        <time>2019-09-09T05:51:14Z</time>
      </trkpt>
      <trkpt lat="41.80068" lon="9.21662">
        <ele>1400.39</ele>
        <time>2019-09-09T05:51:34Z</time>
      </trkpt>
      <trkpt lat="41.80067" lon="9.21661">
        <ele>1399.75</ele>
        <time>2019-09-09T05:51:56Z</time>
      </trkpt>
      <trkpt lat="41.80069" lon="9.21664">
        <ele>1399.11</ele>
        <time>2019-09-09T05:52:16Z</time>
      </trkpt>
      <trkpt lat="41.80072" lon="9.21656">
        <ele>1396.19</ele>
        <time>2019-09-09T05:52:31Z</time>
      </trkpt>
      <trkpt lat="41.80077" lon="9.2165">
        <ele>1393.54</ele>
        <time>2019-09-09T05:52:43Z</time>
      </trkpt>
      <trkpt lat="41.80082" lon="9.21648">
        <ele>1390.29</ele>
        <time>2019-09-09T05:52:57Z</time>
      </trkpt>
      <trkpt lat="41.80084" lon="9.21646">
        <ele>1389.06</ele>
        <time>2019-09-09T05:53:01Z</time>
      </trkpt>
      <trkpt lat="41.80093" lon="9.21636">
        <ele>1387.36</ele>
        <time>2019-09-09T05:53:14Z</time>
      </trkpt>
      <trkpt lat="41.80102" lon="9.2163">
        <ele>1387.47</ele>
        <time>2019-09-09T05:53:27Z</time>
      </trkpt>
      <trkpt lat="41.80108" lon="9.21626">
        <ele>1388.64</ele>
        <time>2019-09-09T05:53:43Z</time>
      </trkpt>
      <trkpt lat="41.80118" lon="9.21621">
        <ele>1389.41</ele>
        <time>2019-09-09T05:53:56Z</time>
      </trkpt>
      <trkpt lat="41.80122" lon="9.21617">
        <ele>1391.91</ele>
        <time>2019-09-09T05:54:09Z</time>
      </trkpt>
      <trkpt lat="41.80123" lon="9.21618">
        <ele>1392.64</ele>
        <time>2019-09-09T05:54:30Z</time>
      </trkpt>
      <trkpt lat="41.80124" lon="9.21617">
        <ele>1392.97</ele>
        <time>2019-09-09T05:54:52Z</time>
      </trkpt>
      <trkpt lat="41.80125" lon="9.21618">
        <ele>1394.86</ele>
        <time>2019-09-09T05:55:20Z</time>
      </trkpt>
      <trkpt lat="41.80125" lon="9.2162">
        <ele>1395.33</ele>
        <time>2019-09-09T05:55:40Z</time>
      </trkpt>
      <trkpt lat="41.80124" lon="9.21621">
        <ele>1395.64</ele>
        <time>2019-09-09T05:55:57Z</time>
      </trkpt>
      <trkpt lat="41.80124" lon="9.21621">
        <ele>1395.83</ele>
        <time>2019-09-09T05:56:24Z</time>
      </trkpt>
      <trkpt lat="41.80126" lon="9.21618">
        <ele>1395.82</ele>
        <time>2019-09-09T05:56:44Z</time>
      </trkpt>
      <trkpt lat="41.80127" lon="9.21614">
        <ele>1395.97</ele>
        <time>2019-09-09T05:57:00Z</time>
      </trkpt>
      <trkpt lat="41.80128" lon="9.21607">
        <ele>1396.21</ele>
        <time>2019-09-09T05:57:13Z</time>
      </trkpt>
      <trkpt lat="41.80127" lon="9.21604">
        <ele>1396.33</ele>
        <time>2019-09-09T05:57:29Z</time>
      </trkpt>
      <trkpt lat="41.8013" lon="9.21594">
        <ele>1396.9</ele>
        <time>2019-09-09T05:57:47Z</time>
      </trkpt>
      <trkpt lat="41.80134" lon="9.21586">
        <ele>1398.67</ele>
        <time>2019-09-09T05:58:00Z</time>
      </trkpt>
      <trkpt lat="41.80132" lon="9.21583">
        <ele>1401</ele>
        <time>2019-09-09T05:58:13Z</time>
      </trkpt>
      <trkpt lat="41.80131" lon="9.21577">
        <ele>1403.9</ele>
        <time>2019-09-09T05:58:27Z</time>
      </trkpt>
      <trkpt lat="41.80125" lon="9.21575">
        <ele>1404.52</ele>
        <time>2019-09-09T05:58:42Z</time>
      </trkpt>
      <trkpt lat="41.80124" lon="9.21571">
        <ele>1404.01</ele>
        <time>2019-09-09T05:58:56Z</time>
      </trkpt>
      <trkpt lat="41.80122" lon="9.21569">
        <ele>1404.1</ele>
        <time>2019-09-09T05:59:12Z</time>
      </trkpt>
      <trkpt lat="41.8012" lon="9.21565">
        <ele>1405.65</ele>
        <time>2019-09-09T05:59:32Z</time>
      </trkpt>
      <trkpt lat="41.80124" lon="9.21562">
        <ele>1408.39</ele>
        <time>2019-09-09T05:59:47Z</time>
      </trkpt>
      <trkpt lat="41.80124" lon="9.21557">
        <ele>1409.59</ele>
        <time>2019-09-09T05:59:59Z</time>
      </trkpt>
      <trkpt lat="41.80124" lon="9.21554">
        <ele>1409.61</ele>
        <time>2019-09-09T06:00:17Z</time>
      </trkpt>
      <trkpt lat="41.80123" lon="9.2155">
        <ele>1409.76</ele>
        <time>2019-09-09T06:00:29Z</time>
      </trkpt>
      <trkpt lat="41.80121" lon="9.21541">
        <ele>1409.48</ele>
        <time>2019-09-09T06:00:35Z</time>
      </trkpt>
      <trkpt lat="41.80115" lon="9.21531">
        <ele>1410.53</ele>
        <time>2019-09-09T06:00:49Z</time>
      </trkpt>
      <trkpt lat="41.80112" lon="9.21527">
        <ele>1412.1</ele>
        <time>2019-09-09T06:01:03Z</time>
      </trkpt>
      <trkpt lat="41.8011" lon="9.21524">
        <ele>1412.94</ele>
        <time>2019-09-09T06:01:20Z</time>
      </trkpt>
      <trkpt lat="41.80108" lon="9.21519">
        <ele>1413.79</ele>
        <time>2019-09-09T06:01:34Z</time>
      </trkpt>
      <trkpt lat="41.80108" lon="9.21519">
        <ele>1414.4</ele>
        <time>2019-09-09T06:01:51Z</time>
      </trkpt>
      <trkpt lat="41.80109" lon="9.21516">
        <ele>1415.89</ele>
        <time>2019-09-09T06:02:07Z</time>
      </trkpt>
      <trkpt lat="41.80113" lon="9.21513">
        <ele>1417.96</ele>
        <time>2019-09-09T06:02:23Z</time>
      </trkpt>
      <trkpt lat="41.80124" lon="9.21513">
        <ele>1418.28</ele>
        <time>2019-09-09T06:02:40Z</time>
      </trkpt>
      <trkpt lat="41.80128" lon="9.21516">
        <ele>1419.3</ele>
        <time>2019-09-09T06:02:56Z</time>
      </trkpt>
      <trkpt lat="41.80131" lon="9.21517">
        <ele>1419.22</ele>
        <time>2019-09-09T06:03:00Z</time>
      </trkpt>
      <trkpt lat="41.80137" lon="9.21518">
        <ele>1417.98</ele>
        <time>2019-09-09T06:03:09Z</time>
      </trkpt>
      <trkpt lat="41.80153" lon="9.21513">
        <ele>1417.92</ele>
        <time>2019-09-09T06:03:23Z</time>
      </trkpt>
      <trkpt lat="41.80169" lon="9.21513">
        <ele>1421.93</ele>
        <time>2019-09-09T06:03:37Z</time>
      </trkpt>
      <trkpt lat="41.80175" lon="9.21515">
        <ele>1427.47</ele>
        <time>2019-09-09T06:03:51Z</time>
      </trkpt>
      <trkpt lat="41.80177" lon="9.21517">
        <ele>1430.65</ele>
        <time>2019-09-09T06:04:01Z</time>
      </trkpt>
      <trkpt lat="41.8018" lon="9.21514">
        <ele>1431.93</ele>
        <time>2019-09-09T06:04:15Z</time>
      </trkpt>
      <trkpt lat="41.80183" lon="9.21509">
        <ele>1432.99</ele>
        <time>2019-09-09T06:04:29Z</time>
      </trkpt>
      <trkpt lat="41.80188" lon="9.21505">
        <ele>1433.92</ele>
        <time>2019-09-09T06:04:44Z</time>
      </trkpt>
      <trkpt lat="41.80193" lon="9.21504">
        <ele>1435.24</ele>
        <time>2019-09-09T06:04:56Z</time>
      </trkpt>
      <trkpt lat="41.80196" lon="9.21501">
        <ele>1435.19</ele>
        <time>2019-09-09T06:05:10Z</time>
      </trkpt>
      <trkpt lat="41.80199" lon="9.21499">
        <ele>1437.19</ele>
        <time>2019-09-09T06:05:24Z</time>
      </trkpt>
      <trkpt lat="41.80202" lon="9.21499">
        <ele>1437.77</ele>
        <time>2019-09-09T06:05:41Z</time>
      </trkpt>
      <trkpt lat="41.80203" lon="9.21499">
        <ele>1438.97</ele>
        <time>2019-09-09T06:05:58Z</time>
      </trkpt>
      <trkpt lat="41.80205" lon="9.21498">
        <ele>1441.4</ele>
        <time>2019-09-09T06:06:13Z</time>
      </trkpt>
      <trkpt lat="41.80207" lon="9.21495">
        <ele>1443.24</ele>
        <time>2019-09-09T06:06:29Z</time>
      </trkpt>
      <trkpt lat="41.80209" lon="9.21492">
        <ele>1444.21</ele>
        <time>2019-09-09T06:06:47Z</time>
      </trkpt>
      <trkpt lat="41.80212" lon="9.21488">
        <ele>1445.21</ele>
        <time>2019-09-09T06:07:06Z</time>
      </trkpt>
      <trkpt lat="41.80216" lon="9.21486">
        <ele>1447.58</ele>
        <time>2019-09-09T06:07:23Z</time>
      </trkpt>
      <trkpt lat="41.80217" lon="9.21494">
        <ele>1448.69</ele>
        <time>2019-09-09T06:07:40Z</time>
      </trkpt>
      <trkpt lat="41.80218" lon="9.21499">
        <ele>1448.74</ele>
        <time>2019-09-09T06:07:52Z</time>
      </trkpt>
      <trkpt lat="41.80219" lon="9.21496">
        <ele>1446.9</ele>
        <time>2019-09-09T06:08:19Z</time>
      </trkpt>
      <trkpt lat="41.80219" lon="9.21498">
        <ele>1446.24</ele>
        <time>2019-09-09T06:08:46Z</time>
      </trkpt>
      <trkpt lat="41.8022" lon="9.21501">
        <ele>1445.31</ele>
        <time>2019-09-09T06:09:13Z</time>
      </trkpt>
      <trkpt lat="41.80221" lon="9.215">
        <ele>1444.65</ele>
        <time>2019-09-09T06:09:28Z</time>
      </trkpt>
      <trkpt lat="41.80223" lon="9.21501">
        <ele>1444.69</ele>
        <time>2019-09-09T06:09:47Z</time>
      </trkpt>
      <trkpt lat="41.80226" lon="9.21499">
        <ele>1442.89</ele>
        <time>2019-09-09T06:10:04Z</time>
      </trkpt>
      <trkpt lat="41.80227" lon="9.21498">
        <ele>1441.88</ele>
        <time>2019-09-09T06:10:23Z</time>
      </trkpt>
      <trkpt lat="41.80229" lon="9.21497">
        <ele>1441.97</ele>
        <time>2019-09-09T06:10:50Z</time>
      </trkpt>
      <trkpt lat="41.80229" lon="9.21495">
        <ele>1440.63</ele>
        <time>2019-09-09T06:11:16Z</time>
      </trkpt>
      <trkpt lat="41.80229" lon="9.21491">
        <ele>1439.45</ele>
        <time>2019-09-09T06:11:38Z</time>
      </trkpt>
      <trkpt lat="41.80227" lon="9.21487">
        <ele>1438.68</ele>
        <time>2019-09-09T06:12:04Z</time>
      </trkpt>
      <trkpt lat="41.80228" lon="9.21487">
        <ele>1438.72</ele>
        <time>2019-09-09T06:12:20Z</time>
      </trkpt>
      <trkpt lat="41.80228" lon="9.21488">
        <ele>1438.23</ele>
        <time>2019-09-09T06:12:38Z</time>
      </trkpt>
      <trkpt lat="41.80228" lon="9.21485">
        <ele>1436.67</ele>
        <time>2019-09-09T06:13:00Z</time>
      </trkpt>
      <trkpt lat="41.80227" lon="9.21486">
        <ele>1436.55</ele>
        <time>2019-09-09T06:13:10Z</time>
      </trkpt>
      <trkpt lat="41.8023" lon="9.21486">
        <ele>1436.39</ele>
        <time>2019-09-09T06:13:28Z</time>
      </trkpt>
      <trkpt lat="41.80236" lon="9.21483">
        <ele>1435.3</ele>
        <time>2019-09-09T06:13:44Z</time>
      </trkpt>
      <trkpt lat="41.80232" lon="9.21485">
        <ele>1435.72</ele>
        <time>2019-09-09T06:14:08Z</time>
      </trkpt>
      <trkpt lat="41.80234" lon="9.21489">
        <ele>1435.17</ele>
        <time>2019-09-09T06:14:19Z</time>
      </trkpt>
      <trkpt lat="41.80236" lon="9.21485">
        <ele>1432.05</ele>
        <time>2019-09-09T06:14:34Z</time>
      </trkpt>
      <trkpt lat="41.80239" lon="9.21483">
        <ele>1430.6</ele>
        <time>2019-09-09T06:14:46Z</time>
      </trkpt>
      <trkpt lat="41.80239" lon="9.21483">
        <ele>1430.37</ele>
        <time>2019-09-09T06:14:47Z</time>
      </trkpt>
      <trkpt lat="41.80242" lon="9.21476">
        <ele>1428.42</ele>
        <time>2019-09-09T06:14:59Z</time>
      </trkpt>
      <trkpt lat="41.80238" lon="9.21474">
        <ele>1426.03</ele>
        <time>2019-09-09T06:15:30Z</time>
      </trkpt>
      <trkpt lat="41.80237" lon="9.21474">
        <ele>1425.01</ele>
        <time>2019-09-09T06:15:57Z</time>
      </trkpt>
      <trkpt lat="41.80234" lon="9.21474">
        <ele>1422.41</ele>
        <time>2019-09-09T06:16:33Z</time>
      </trkpt>
      <trkpt lat="41.80233" lon="9.21472">
        <ele>1420.33</ele>
        <time>2019-09-09T06:17:07Z</time>
      </trkpt>
      <trkpt lat="41.80232" lon="9.21473">
        <ele>1420.59</ele>
        <time>2019-09-09T06:17:29Z</time>
      </trkpt>
      <trkpt lat="41.80231" lon="9.21471">
        <ele>1421.28</ele>
        <time>2019-09-09T06:17:58Z</time>
      </trkpt>
      <trkpt lat="41.80233" lon="9.21471">
        <ele>1419.32</ele>
        <time>2019-09-09T06:18:24Z</time>
      </trkpt>
      <trkpt lat="41.80233" lon="9.21471">
        <ele>1419.4</ele>
        <time>2019-09-09T06:18:49Z</time>
      </trkpt>
      <trkpt lat="41.80232" lon="9.21472">
        <ele>1419.8</ele>
        <time>2019-09-09T06:19:20Z</time>
      </trkpt>
      <trkpt lat="41.80232" lon="9.21475">
        <ele>1420.63</ele>
        <time>2019-09-09T06:19:38Z</time>
      </trkpt>
      <trkpt lat="41.80234" lon="9.21475">
        <ele>1420.39</ele>
        <time>2019-09-09T06:20:07Z</time>
      </trkpt>
      <trkpt lat="41.80238" lon="9.21474">
        <ele>1420.33</ele>
        <time>2019-09-09T06:20:32Z</time>
      </trkpt>
      <trkpt lat="41.80236" lon="9.21472">
        <ele>1420.42</ele>
        <time>2019-09-09T06:20:53Z</time>
      </trkpt>
      <trkpt lat="41.80233" lon="9.2147">
        <ele>1420.55</ele>
        <time>2019-09-09T06:21:16Z</time>
      </trkpt>
      <trkpt lat="41.80241" lon="9.2147">
        <ele>1420.26</ele>
        <time>2019-09-09T06:21:37Z</time>
      </trkpt>
      <trkpt lat="41.80242" lon="9.21468">
        <ele>1418.94</ele>
        <time>2019-09-09T06:21:53Z</time>
      </trkpt>
      <trkpt lat="41.80244" lon="9.21466">
        <ele>1418.55</ele>
        <time>2019-09-09T06:21:57Z</time>
      </trkpt>
      <trkpt lat="41.80255" lon="9.21462">
        <ele>1419.73</ele>
        <time>2019-09-09T06:22:10Z</time>
      </trkpt>
      <trkpt lat="41.80262" lon="9.21459">
        <ele>1424.79</ele>
        <time>2019-09-09T06:22:24Z</time>
      </trkpt>
      <trkpt lat="41.80272" lon="9.21458">
        <ele>1434.52</ele>
        <time>2019-09-09T06:22:38Z</time>
      </trkpt>
      <trkpt lat="41.80285" lon="9.21457">
        <ele>1436.51</ele>
        <time>2019-09-09T06:22:53Z</time>
      </trkpt>
      <trkpt lat="41.80289" lon="9.21451">
        <ele>1439.08</ele>
        <time>2019-09-09T06:23:07Z</time>
      </trkpt>
      <trkpt lat="41.80292" lon="9.21447">
        <ele>1441.52</ele>
        <time>2019-09-09T06:23:22Z</time>
      </trkpt>
      <trkpt lat="41.803" lon="9.21446">
        <ele>1444.46</ele>
        <time>2019-09-09T06:23:37Z</time>
      </trkpt>
      <trkpt lat="41.80304" lon="9.21443">
        <ele>1445.38</ele>
        <time>2019-09-09T06:23:50Z</time>
      </trkpt>
      <trkpt lat="41.80304" lon="9.2144">
        <ele>1446.29</ele>
        <time>2019-09-09T06:24:01Z</time>
      </trkpt>
      <trkpt lat="41.80305" lon="9.21435">
        <ele>1447.94</ele>
        <time>2019-09-09T06:24:14Z</time>
      </trkpt>
      <trkpt lat="41.80308" lon="9.21432">
        <ele>1449.03</ele>
        <time>2019-09-09T06:24:27Z</time>
      </trkpt>
      <trkpt lat="41.80305" lon="9.21424">
        <ele>1450.74</ele>
        <time>2019-09-09T06:24:41Z</time>
      </trkpt>
      <trkpt lat="41.80308" lon="9.21423">
        <ele>1452.01</ele>
        <time>2019-09-09T06:24:56Z</time>
      </trkpt>
      <trkpt lat="41.80308" lon="9.21418">
        <ele>1453.4</ele>
        <time>2019-09-09T06:25:09Z</time>
      </trkpt>
      <trkpt lat="41.80311" lon="9.21415">
        <ele>1454.98</ele>
        <time>2019-09-09T06:25:24Z</time>
      </trkpt>
      <trkpt lat="41.80314" lon="9.21414">
        <ele>1456.44</ele>
        <time>2019-09-09T06:25:37Z</time>
      </trkpt>
      <trkpt lat="41.80317" lon="9.21408">
        <ele>1458.21</ele>
        <time>2019-09-09T06:25:51Z</time>
      </trkpt>
      <trkpt lat="41.80318" lon="9.21404">
        <ele>1459.89</ele>
        <time>2019-09-09T06:26:04Z</time>
      </trkpt>
      <trkpt lat="41.80318" lon="9.21399">
        <ele>1461.21</ele>
        <time>2019-09-09T06:26:17Z</time>
      </trkpt>
      <trkpt lat="41.8032" lon="9.21392">
        <ele>1462.76</ele>
        <time>2019-09-09T06:26:31Z</time>
      </trkpt>
      <trkpt lat="41.80317" lon="9.21387">
        <ele>1463.13</ele>
        <time>2019-09-09T06:26:44Z</time>
      </trkpt>
      <trkpt lat="41.80322" lon="9.21391">
        <ele>1464.12</ele>
        <time>2019-09-09T06:26:57Z</time>
      </trkpt>
      <trkpt lat="41.8033" lon="9.21395">
        <ele>1465</ele>
        <time>2019-09-09T06:27:13Z</time>
      </trkpt>
      <trkpt lat="41.80334" lon="9.21398">
        <ele>1467.18</ele>
        <time>2019-09-09T06:27:26Z</time>
      </trkpt>
      <trkpt lat="41.80338" lon="9.21397">
        <ele>1467.99</ele>
        <time>2019-09-09T06:27:39Z</time>
      </trkpt>
      <trkpt lat="41.80341" lon="9.21397">
        <ele>1470</ele>
        <time>2019-09-09T06:27:52Z</time>
      </trkpt>
      <trkpt lat="41.80343" lon="9.21397">
        <ele>1472.4</ele>
        <time>2019-09-09T06:28:05Z</time>
      </trkpt>
      <trkpt lat="41.80348" lon="9.21397">
        <ele>1474.41</ele>
        <time>2019-09-09T06:28:18Z</time>
      </trkpt>
      <trkpt lat="41.80349" lon="9.21402">
        <ele>1477.69</ele>
        <time>2019-09-09T06:28:33Z</time>
      </trkpt>
      <trkpt lat="41.80349" lon="9.2141">
        <ele>1480.1</ele>
        <time>2019-09-09T06:28:48Z</time>
      </trkpt>
      <trkpt lat="41.80353" lon="9.2141">
        <ele>1480.18</ele>
        <time>2019-09-09T06:28:59Z</time>
      </trkpt>
      <trkpt lat="41.80359" lon="9.21412">
        <ele>1482.67</ele>
        <time>2019-09-09T06:29:14Z</time>
      </trkpt>
      <trkpt lat="41.80362" lon="9.21414">
        <ele>1484.97</ele>
        <time>2019-09-09T06:29:27Z</time>
      </trkpt>
      <trkpt lat="41.80367" lon="9.21416">
        <ele>1487.4</ele>
        <time>2019-09-09T06:29:43Z</time>
      </trkpt>
      <trkpt lat="41.8037" lon="9.21416">
        <ele>1489.11</ele>
        <time>2019-09-09T06:29:56Z</time>
      </trkpt>
      <trkpt lat="41.80377" lon="9.21418">
        <ele>1491.27</ele>
        <time>2019-09-09T06:30:10Z</time>
      </trkpt>
      <trkpt lat="41.80383" lon="9.21426">
        <ele>1493.21</ele>
        <time>2019-09-09T06:30:25Z</time>
      </trkpt>
      <trkpt lat="41.80386" lon="9.21428">
        <ele>1495.38</ele>
        <time>2019-09-09T06:30:38Z</time>
      </trkpt>
      <trkpt lat="41.80388" lon="9.21435">
        <ele>1496.92</ele>
        <time>2019-09-09T06:30:52Z</time>
      </trkpt>
      <trkpt lat="41.8039" lon="9.21446">
        <ele>1498.03</ele>
        <time>2019-09-09T06:31:06Z</time>
      </trkpt>
      <trkpt lat="41.80397" lon="9.21443">
        <ele>1498.84</ele>
        <time>2019-09-09T06:31:20Z</time>
      </trkpt>
      <trkpt lat="41.80401" lon="9.2144">
        <ele>1500.31</ele>
        <time>2019-09-09T06:31:34Z</time>
      </trkpt>
      <trkpt lat="41.80405" lon="9.21438">
        <ele>1501.81</ele>
        <time>2019-09-09T06:31:47Z</time>
      </trkpt>
      <trkpt lat="41.80407" lon="9.2144">
        <ele>1505.08</ele>
        <time>2019-09-09T06:32:01Z</time>
      </trkpt>
      <trkpt lat="41.80411" lon="9.21445">
        <ele>1506.12</ele>
        <time>2019-09-09T06:32:14Z</time>
      </trkpt>
      <trkpt lat="41.80414" lon="9.21448">
        <ele>1509.52</ele>
        <time>2019-09-09T06:32:27Z</time>
      </trkpt>
      <trkpt lat="41.80417" lon="9.21448">
        <ele>1510.28</ele>
        <time>2019-09-09T06:32:42Z</time>
      </trkpt>
      <trkpt lat="41.80419" lon="9.21449">
        <ele>1512.19</ele>
        <time>2019-09-09T06:32:54Z</time>
      </trkpt>
      <trkpt lat="41.80423" lon="9.21454">
        <ele>1515.97</ele>
        <time>2019-09-09T06:33:11Z</time>
      </trkpt>
      <trkpt lat="41.80427" lon="9.21457">
        <ele>1516.31</ele>
        <time>2019-09-09T06:33:25Z</time>
      </trkpt>
      <trkpt lat="41.8043" lon="9.21463">
        <ele>1518.43</ele>
        <time>2019-09-09T06:33:39Z</time>
      </trkpt>
      <trkpt lat="41.80434" lon="9.21472">
        <ele>1520</ele>
        <time>2019-09-09T06:33:53Z</time>
      </trkpt>
      <trkpt lat="41.80438" lon="9.21475">
        <ele>1521.26</ele>
        <time>2019-09-09T06:34:07Z</time>
      </trkpt>
      <trkpt lat="41.8044" lon="9.21474">
        <ele>1523</ele>
        <time>2019-09-09T06:34:19Z</time>
      </trkpt>
      <trkpt lat="41.80441" lon="9.21478">
        <ele>1523.41</ele>
        <time>2019-09-09T06:34:24Z</time>
      </trkpt>
      <trkpt lat="41.80448" lon="9.21483">
        <ele>1524.07</ele>
        <time>2019-09-09T06:34:39Z</time>
      </trkpt>
      <trkpt lat="41.80455" lon="9.21485">
        <ele>1525.37</ele>
        <time>2019-09-09T06:34:52Z</time>
      </trkpt>
      <trkpt lat="41.80457" lon="9.21483">
        <ele>1526.65</ele>
        <time>2019-09-09T06:35:09Z</time>
      </trkpt>
      <trkpt lat="41.80458" lon="9.21479">
        <ele>1527.4</ele>
        <time>2019-09-09T06:35:20Z</time>
      </trkpt>
      <trkpt lat="41.8046" lon="9.21481">
        <ele>1529.69</ele>
        <time>2019-09-09T06:35:37Z</time>
      </trkpt>
      <trkpt lat="41.80462" lon="9.21486">
        <ele>1531.16</ele>
        <time>2019-09-09T06:35:50Z</time>
      </trkpt>
      <trkpt lat="41.80469" lon="9.21486">
        <ele>1532.74</ele>
        <time>2019-09-09T06:36:03Z</time>
      </trkpt>
      <trkpt lat="41.80471" lon="9.21486">
        <ele>1532.76</ele>
        <time>2019-09-09T06:36:06Z</time>
      </trkpt>
      <trkpt lat="41.80477" lon="9.21488">
        <ele>1533.36</ele>
        <time>2019-09-09T06:36:19Z</time>
      </trkpt>
      <trkpt lat="41.8048" lon="9.21493">
        <ele>1532.45</ele>
        <time>2019-09-09T06:36:31Z</time>
      </trkpt>
      <trkpt lat="41.80486" lon="9.21499">
        <ele>1532.69</ele>
        <time>2019-09-09T06:36:45Z</time>
      </trkpt>
      <trkpt lat="41.80492" lon="9.21501">
        <ele>1534.81</ele>
        <time>2019-09-09T06:37:00Z</time>
      </trkpt>
      <trkpt lat="41.80498" lon="9.21501">
        <ele>1536.3</ele>
        <time>2019-09-09T06:37:14Z</time>
      </trkpt>
      <trkpt lat="41.80507" lon="9.21505">
        <ele>1536.21</ele>
        <time>2019-09-09T06:37:29Z</time>
      </trkpt>
      <trkpt lat="41.80513" lon="9.21507">
        <ele>1536.4</ele>
        <time>2019-09-09T06:37:42Z</time>
      </trkpt>
      <trkpt lat="41.80523" lon="9.21508">
        <ele>1537.27</ele>
        <time>2019-09-09T06:37:57Z</time>
      </trkpt>
      <trkpt lat="41.80529" lon="9.21508">
        <ele>1538.54</ele>
        <time>2019-09-09T06:38:09Z</time>
      </trkpt>
      <trkpt lat="41.80539" lon="9.21509">
        <ele>1538.17</ele>
        <time>2019-09-09T06:38:23Z</time>
      </trkpt>
      <trkpt lat="41.80546" lon="9.21505">
        <ele>1537.87</ele>
        <time>2019-09-09T06:38:37Z</time>
      </trkpt>
      <trkpt lat="41.80549" lon="9.21506">
        <ele>1537.23</ele>
        <time>2019-09-09T06:38:45Z</time>
      </trkpt>
      <trkpt lat="41.80552" lon="9.21504">
        <ele>1537.05</ele>
        <time>2019-09-09T06:38:48Z</time>
      </trkpt>
      <trkpt lat="41.8056" lon="9.21499">
        <ele>1536.5</ele>
        <time>2019-09-09T06:39:03Z</time>
      </trkpt>
      <trkpt lat="41.80564" lon="9.21495">
        <ele>1537.42</ele>
        <time>2019-09-09T06:39:20Z</time>
      </trkpt>
      <trkpt lat="41.80569" lon="9.21494">
        <ele>1539.57</ele>
        <time>2019-09-09T06:39:35Z</time>
      </trkpt>
      <trkpt lat="41.80572" lon="9.21494">
        <ele>1540.83</ele>
        <time>2019-09-09T06:39:48Z</time>
      </trkpt>
      <trkpt lat="41.80581" lon="9.21492">
        <ele>1542.11</ele>
        <time>2019-09-09T06:40:02Z</time>
      </trkpt>
      <trkpt lat="41.80588" lon="9.21489">
        <ele>1543.11</ele>
        <time>2019-09-09T06:40:17Z</time>
      </trkpt>
      <trkpt lat="41.8059" lon="9.21488">
        <ele>1542.85</ele>
        <time>2019-09-09T06:40:19Z</time>
      </trkpt>
      <trkpt lat="41.80601" lon="9.21484">
        <ele>1543.58</ele>
        <time>2019-09-09T06:40:33Z</time>
      </trkpt>
      <trkpt lat="41.80598" lon="9.21478">
        <ele>1546.58</ele>
        <time>2019-09-09T06:40:46Z</time>
      </trkpt>
      <trkpt lat="41.80602" lon="9.21471">
        <ele>1547.98</ele>
        <time>2019-09-09T06:41:00Z</time>
      </trkpt>
      <trkpt lat="41.80608" lon="9.21466">
        <ele>1549.46</ele>
        <time>2019-09-09T06:41:12Z</time>
      </trkpt>
      <trkpt lat="41.80615" lon="9.2146">
        <ele>1551.14</ele>
        <time>2019-09-09T06:41:26Z</time>
      </trkpt>
      <trkpt lat="41.8062" lon="9.21451">
        <ele>1552.07</ele>
        <time>2019-09-09T06:41:42Z</time>
      </trkpt>
      <trkpt lat="41.80626" lon="9.21447">
        <ele>1553.93</ele>
        <time>2019-09-09T06:41:58Z</time>
      </trkpt>
      <trkpt lat="41.80629" lon="9.21435">
        <ele>1554.86</ele>
        <time>2019-09-09T06:42:14Z</time>
      </trkpt>
      <trkpt lat="41.80633" lon="9.21429">
        <ele>1556.86</ele>
        <time>2019-09-09T06:42:29Z</time>
      </trkpt>
      <trkpt lat="41.80638" lon="9.21423">
        <ele>1559.09</ele>
        <time>2019-09-09T06:42:44Z</time>
      </trkpt>
      <trkpt lat="41.80643" lon="9.21423">
        <ele>1561.15</ele>
        <time>2019-09-09T06:42:59Z</time>
      </trkpt>
      <trkpt lat="41.8065" lon="9.21427">
        <ele>1563.83</ele>
        <time>2019-09-09T06:43:14Z</time>
      </trkpt>
      <trkpt lat="41.80658" lon="9.21428">
        <ele>1566.42</ele>
        <time>2019-09-09T06:43:29Z</time>
      </trkpt>
      <trkpt lat="41.80666" lon="9.21425">
        <ele>1568.63</ele>
        <time>2019-09-09T06:43:44Z</time>
      </trkpt>
      <trkpt lat="41.80674" lon="9.21429">
        <ele>1571.59</ele>
        <time>2019-09-09T06:44:00Z</time>
      </trkpt>
      <trkpt lat="41.80685" lon="9.21429">
        <ele>1573.71</ele>
        <time>2019-09-09T06:44:16Z</time>
      </trkpt>
      <trkpt lat="41.80694" lon="9.21428">
        <ele>1575.91</ele>
        <time>2019-09-09T06:44:32Z</time>
      </trkpt>
      <trkpt lat="41.807" lon="9.21425">
        <ele>1577.99</ele>
        <time>2019-09-09T06:44:46Z</time>
      </trkpt>
      <trkpt lat="41.80707" lon="9.21419">
        <ele>1580.43</ele>
        <time>2019-09-09T06:45:00Z</time>
      </trkpt>
      <trkpt lat="41.80711" lon="9.21412">
        <ele>1583.08</ele>
        <time>2019-09-09T06:45:16Z</time>
      </trkpt>
      <trkpt lat="41.80714" lon="9.21408">
        <ele>1584.95</ele>
        <time>2019-09-09T06:45:28Z</time>
      </trkpt>
      <trkpt lat="41.80719" lon="9.21397">
        <ele>1587.73</ele>
        <time>2019-09-09T06:45:45Z</time>
      </trkpt>
      <trkpt lat="41.80727" lon="9.21393">
        <ele>1590.39</ele>
        <time>2019-09-09T06:46:00Z</time>
      </trkpt>
      <trkpt lat="41.80735" lon="9.21394">
        <ele>1592.71</ele>
        <time>2019-09-09T06:46:16Z</time>
      </trkpt>
      <trkpt lat="41.80741" lon="9.21387">
        <ele>1595.17</ele>
        <time>2019-09-09T06:46:32Z</time>
      </trkpt>
      <trkpt lat="41.80748" lon="9.21388">
        <ele>1597.4</ele>
        <time>2019-09-09T06:46:47Z</time>
      </trkpt>
      <trkpt lat="41.80753" lon="9.21383">
        <ele>1599.54</ele>
        <time>2019-09-09T06:47:01Z</time>
      </trkpt>
      <trkpt lat="41.80757" lon="9.21376">
        <ele>1601.39</ele>
        <time>2019-09-09T06:47:16Z</time>
      </trkpt>
      <trkpt lat="41.80762" lon="9.21377">
        <ele>1603.17</ele>
        <time>2019-09-09T06:47:31Z</time>
      </trkpt>
      <trkpt lat="41.80765" lon="9.21371">
        <ele>1605.05</ele>
        <time>2019-09-09T06:47:46Z</time>
      </trkpt>
      <trkpt lat="41.8077" lon="9.21372">
        <ele>1607.28</ele>
        <time>2019-09-09T06:48:00Z</time>
      </trkpt>
      <trkpt lat="41.80776" lon="9.21373">
        <ele>1609.74</ele>
        <time>2019-09-09T06:48:15Z</time>
      </trkpt>
      <trkpt lat="41.80778" lon="9.21368">
        <ele>1611.42</ele>
        <time>2019-09-09T06:48:27Z</time>
      </trkpt>
      <trkpt lat="41.80779" lon="9.21359">
        <ele>1613.51</ele>
        <time>2019-09-09T06:48:42Z</time>
      </trkpt>
      <trkpt lat="41.80785" lon="9.2136">
        <ele>1615.75</ele>
        <time>2019-09-09T06:48:57Z</time>
      </trkpt>
      <trkpt lat="41.8079" lon="9.21362">
        <ele>1618.37</ele>
        <time>2019-09-09T06:49:11Z</time>
      </trkpt>
      <trkpt lat="41.80795" lon="9.2136">
        <ele>1620.11</ele>
        <time>2019-09-09T06:49:24Z</time>
      </trkpt>
      <trkpt lat="41.808" lon="9.21361">
        <ele>1621.89</ele>
        <time>2019-09-09T06:49:36Z</time>
      </trkpt>
      <trkpt lat="41.80812" lon="9.21357">
        <ele>1623.56</ele>
        <time>2019-09-09T06:49:52Z</time>
      </trkpt>
      <trkpt lat="41.80816" lon="9.21354">
        <ele>1624.25</ele>
        <time>2019-09-09T06:50:07Z</time>
      </trkpt>
      <trkpt lat="41.80823" lon="9.21353">
        <ele>1625.82</ele>
        <time>2019-09-09T06:50:21Z</time>
      </trkpt>
      <trkpt lat="41.80832" lon="9.21353">
        <ele>1628.06</ele>
        <time>2019-09-09T06:50:35Z</time>
      </trkpt>
      <trkpt lat="41.80833" lon="9.21353">
        <ele>1628.2</ele>
        <time>2019-09-09T06:50:36Z</time>
      </trkpt>
      <trkpt lat="41.80842" lon="9.21355">
        <ele>1630.99</ele>
        <time>2019-09-09T06:50:50Z</time>
      </trkpt>
      <trkpt lat="41.8085" lon="9.21357">
        <ele>1633.52</ele>
        <time>2019-09-09T06:51:04Z</time>
      </trkpt>
      <trkpt lat="41.80858" lon="9.21359">
        <ele>1636.04</ele>
        <time>2019-09-09T06:51:19Z</time>
      </trkpt>
      <trkpt lat="41.80864" lon="9.21361">
        <ele>1637.75</ele>
        <time>2019-09-09T06:51:29Z</time>
      </trkpt>
      <trkpt lat="41.80875" lon="9.21365">
        <ele>1640.39</ele>
        <time>2019-09-09T06:51:45Z</time>
      </trkpt>
      <trkpt lat="41.80884" lon="9.21375">
        <ele>1643.36</ele>
        <time>2019-09-09T06:52:02Z</time>
      </trkpt>
      <trkpt lat="41.80892" lon="9.21381">
        <ele>1645.84</ele>
        <time>2019-09-09T06:52:17Z</time>
      </trkpt>
      <trkpt lat="41.80896" lon="9.21383">
        <ele>1647.33</ele>
        <time>2019-09-09T06:52:31Z</time>
      </trkpt>
      <trkpt lat="41.80896" lon="9.21386">
        <ele>1647.24</ele>
        <time>2019-09-09T06:52:45Z</time>
      </trkpt>
      <trkpt lat="41.80895" lon="9.21384">
        <ele>1646.84</ele>
        <time>2019-09-09T06:53:03Z</time>
      </trkpt>
      <trkpt lat="41.80895" lon="9.21387">
        <ele>1646.12</ele>
        <time>2019-09-09T06:53:26Z</time>
      </trkpt>
      <trkpt lat="41.80894" lon="9.21387">
        <ele>1646.78</ele>
        <time>2019-09-09T06:53:46Z</time>
      </trkpt>
      <trkpt lat="41.80896" lon="9.21383">
        <ele>1646.89</ele>
        <time>2019-09-09T06:54:05Z</time>
      </trkpt>
      <trkpt lat="41.80897" lon="9.21382">
        <ele>1646.92</ele>
        <time>2019-09-09T06:54:22Z</time>
      </trkpt>
      <trkpt lat="41.809" lon="9.21377">
        <ele>1647.74</ele>
        <time>2019-09-09T06:54:37Z</time>
      </trkpt>
      <trkpt lat="41.80902" lon="9.21374">
        <ele>1648.44</ele>
        <time>2019-09-09T06:54:51Z</time>
      </trkpt>
      <trkpt lat="41.80906" lon="9.21379">
        <ele>1648.64</ele>
        <time>2019-09-09T06:55:05Z</time>
      </trkpt>
      <trkpt lat="41.80912" lon="9.2138">
        <ele>1649</ele>
        <time>2019-09-09T06:55:19Z</time>
      </trkpt>
      <trkpt lat="41.80917" lon="9.21378">
        <ele>1649.33</ele>
        <time>2019-09-09T06:55:35Z</time>
      </trkpt>
      <trkpt lat="41.80916" lon="9.21375">
        <ele>1648.76</ele>
        <time>2019-09-09T06:55:50Z</time>
      </trkpt>
      <trkpt lat="41.80915" lon="9.21375">
        <ele>1648.52</ele>
        <time>2019-09-09T06:56:15Z</time>
      </trkpt>
      <trkpt lat="41.80915" lon="9.21374">
        <ele>1648.36</ele>
        <time>2019-09-09T06:56:56Z</time>
      </trkpt>
      <trkpt lat="41.80915" lon="9.21372">
        <ele>1648.39</ele>
        <time>2019-09-09T06:57:28Z</time>
      </trkpt>
      <trkpt lat="41.80914" lon="9.21373">
        <ele>1649.29</ele>
        <time>2019-09-09T06:58:07Z</time>
      </trkpt>
      <trkpt lat="41.80914" lon="9.21375">
        <ele>1650.35</ele>
        <time>2019-09-09T06:58:41Z</time>
      </trkpt>
      <trkpt lat="41.80919" lon="9.21376">
        <ele>1651.78</ele>
        <time>2019-09-09T06:59:00Z</time>
      </trkpt>
      <trkpt lat="41.80926" lon="9.21376">
        <ele>1653.44</ele>
        <time>2019-09-09T06:59:13Z</time>
      </trkpt>
      <trkpt lat="41.80936" lon="9.21378">
        <ele>1655.1</ele>
        <time>2019-09-09T06:59:27Z</time>
      </trkpt>
      <trkpt lat="41.80945" lon="9.21381">
        <ele>1656.51</ele>
        <time>2019-09-09T06:59:41Z</time>
      </trkpt>
      <trkpt lat="41.80956" lon="9.21382">
        <ele>1657.93</ele>
        <time>2019-09-09T06:59:57Z</time>
      </trkpt>
      <trkpt lat="41.80965" lon="9.21384">
        <ele>1660.08</ele>
        <time>2019-09-09T07:00:14Z</time>
      </trkpt>
      <trkpt lat="41.80972" lon="9.21387">
        <ele>1661.25</ele>
        <time>2019-09-09T07:00:27Z</time>
      </trkpt>
      <trkpt lat="41.80979" lon="9.2139">
        <ele>1663.02</ele>
        <time>2019-09-09T07:00:43Z</time>
      </trkpt>
      <trkpt lat="41.80988" lon="9.21393">
        <ele>1664.91</ele>
        <time>2019-09-09T07:01:00Z</time>
      </trkpt>
      <trkpt lat="41.80995" lon="9.21389">
        <ele>1666.9</ele>
        <time>2019-09-09T07:01:15Z</time>
      </trkpt>
      <trkpt lat="41.81002" lon="9.21389">
        <ele>1668.72</ele>
        <time>2019-09-09T07:01:29Z</time>
      </trkpt>
      <trkpt lat="41.81011" lon="9.21385">
        <ele>1669.95</ele>
        <time>2019-09-09T07:01:44Z</time>
      </trkpt>
      <trkpt lat="41.81017" lon="9.21385">
        <ele>1671.3</ele>
        <time>2019-09-09T07:01:57Z</time>
      </trkpt>
      <trkpt lat="41.81021" lon="9.21381">
        <ele>1672</ele>
        <time>2019-09-09T07:02:11Z</time>
      </trkpt>
      <trkpt lat="41.81028" lon="9.2138">
        <ele>1673.31</ele>
        <time>2019-09-09T07:02:25Z</time>
      </trkpt>
      <trkpt lat="41.8104" lon="9.21378">
        <ele>1673.52</ele>
        <time>2019-09-09T07:02:41Z</time>
      </trkpt>
      <trkpt lat="41.81047" lon="9.21381">
        <ele>1673.04</ele>
        <time>2019-09-09T07:02:55Z</time>
      </trkpt>
      <trkpt lat="41.81048" lon="9.21381">
        <ele>1673.04</ele>
        <time>2019-09-09T07:02:58Z</time>
      </trkpt>
      <trkpt lat="41.81053" lon="9.21386">
        <ele>1673.8</ele>
        <time>2019-09-09T07:03:13Z</time>
      </trkpt>
      <trkpt lat="41.81057" lon="9.2139">
        <ele>1674.79</ele>
        <time>2019-09-09T07:03:25Z</time>
      </trkpt>
      <trkpt lat="41.81066" lon="9.21396">
        <ele>1676.03</ele>
        <time>2019-09-09T07:03:39Z</time>
      </trkpt>
      <trkpt lat="41.81074" lon="9.21399">
        <ele>1676.64</ele>
        <time>2019-09-09T07:03:53Z</time>
      </trkpt>
      <trkpt lat="41.8108" lon="9.21402">
        <ele>1677.25</ele>
        <time>2019-09-09T07:04:08Z</time>
      </trkpt>
      <trkpt lat="41.81084" lon="9.21411">
        <ele>1677.76</ele>
        <time>2019-09-09T07:04:24Z</time>
      </trkpt>
      <trkpt lat="41.81086" lon="9.21419">
        <ele>1678.86</ele>
        <time>2019-09-09T07:04:38Z</time>
      </trkpt>
      <trkpt lat="41.81089" lon="9.21426">
        <ele>1680.75</ele>
        <time>2019-09-09T07:04:53Z</time>
      </trkpt>
      <trkpt lat="41.81093" lon="9.21433">
        <ele>1681.66</ele>
        <time>2019-09-09T07:05:08Z</time>
      </trkpt>
      <trkpt lat="41.811" lon="9.21436">
        <ele>1680.2</ele>
        <time>2019-09-09T07:05:21Z</time>
      </trkpt>
      <trkpt lat="41.8111" lon="9.21438">
        <ele>1678.56</ele>
        <time>2019-09-09T07:05:36Z</time>
      </trkpt>
      <trkpt lat="41.81119" lon="9.2144">
        <ele>1677.03</ele>
        <time>2019-09-09T07:05:51Z</time>
      </trkpt>
      <trkpt lat="41.81125" lon="9.21444">
        <ele>1676.86</ele>
        <time>2019-09-09T07:06:04Z</time>
      </trkpt>
      <trkpt lat="41.81131" lon="9.21443">
        <ele>1676.61</ele>
        <time>2019-09-09T07:06:19Z</time>
      </trkpt>
      <trkpt lat="41.81134" lon="9.2144">
        <ele>1675.65</ele>
        <time>2019-09-09T07:06:33Z</time>
      </trkpt>
      <trkpt lat="41.81139" lon="9.21439">
        <ele>1675.07</ele>
        <time>2019-09-09T07:06:46Z</time>
      </trkpt>
      <trkpt lat="41.81144" lon="9.21437">
        <ele>1673.59</ele>
        <time>2019-09-09T07:07:00Z</time>
      </trkpt>
      <trkpt lat="41.81147" lon="9.21434">
        <ele>1672</ele>
        <time>2019-09-09T07:07:14Z</time>
      </trkpt>
      <trkpt lat="41.81149" lon="9.21433">
        <ele>1671.22</ele>
        <time>2019-09-09T07:07:32Z</time>
      </trkpt>
      <trkpt lat="41.81153" lon="9.21428">
        <ele>1666.87</ele>
        <time>2019-09-09T07:07:45Z</time>
      </trkpt>
      <trkpt lat="41.81163" lon="9.21424">
        <ele>1662.66</ele>
        <time>2019-09-09T07:08:01Z</time>
      </trkpt>
      <trkpt lat="41.81163" lon="9.21422">
        <ele>1665.01</ele>
        <time>2019-09-09T07:08:16Z</time>
      </trkpt>
      <trkpt lat="41.81169" lon="9.21416">
        <ele>1663.47</ele>
        <time>2019-09-09T07:08:31Z</time>
      </trkpt>
      <trkpt lat="41.81175" lon="9.21422">
        <ele>1660.01</ele>
        <time>2019-09-09T07:08:46Z</time>
      </trkpt>
      <trkpt lat="41.81182" lon="9.21426">
        <ele>1657.63</ele>
        <time>2019-09-09T07:09:00Z</time>
      </trkpt>
      <trkpt lat="41.81187" lon="9.2142">
        <ele>1656.2</ele>
        <time>2019-09-09T07:09:15Z</time>
      </trkpt>
      <trkpt lat="41.81195" lon="9.21415">
        <ele>1655.74</ele>
        <time>2019-09-09T07:09:28Z</time>
      </trkpt>
      <trkpt lat="41.81201" lon="9.21413">
        <ele>1656.58</ele>
        <time>2019-09-09T07:09:39Z</time>
      </trkpt>
      <trkpt lat="41.81212" lon="9.21407">
        <ele>1655.8</ele>
        <time>2019-09-09T07:09:53Z</time>
      </trkpt>
      <trkpt lat="41.81217" lon="9.21406">
        <ele>1655.55</ele>
        <time>2019-09-09T07:10:08Z</time>
      </trkpt>
      <trkpt lat="41.81224" lon="9.21408">
        <ele>1655.86</ele>
        <time>2019-09-09T07:10:21Z</time>
      </trkpt>
      <trkpt lat="41.81233" lon="9.21406">
        <ele>1655.48</ele>
        <time>2019-09-09T07:10:34Z</time>
      </trkpt>
      <trkpt lat="41.81238" lon="9.214">
        <ele>1653.18</ele>
        <time>2019-09-09T07:10:49Z</time>
      </trkpt>
      <trkpt lat="41.81242" lon="9.21399">
        <ele>1650.37</ele>
        <time>2019-09-09T07:11:03Z</time>
      </trkpt>
      <trkpt lat="41.81244" lon="9.21396">
        <ele>1647.56</ele>
        <time>2019-09-09T07:11:15Z</time>
      </trkpt>
      <trkpt lat="41.81249" lon="9.2139">
        <ele>1644.1</ele>
        <time>2019-09-09T07:11:31Z</time>
      </trkpt>
      <trkpt lat="41.81247" lon="9.21386">
        <ele>1641.61</ele>
        <time>2019-09-09T07:11:46Z</time>
      </trkpt>
      <trkpt lat="41.8125" lon="9.21383">
        <ele>1638.95</ele>
        <time>2019-09-09T07:12:00Z</time>
      </trkpt>
      <trkpt lat="41.81247" lon="9.21381">
        <ele>1635.69</ele>
        <time>2019-09-09T07:12:15Z</time>
      </trkpt>
      <trkpt lat="41.81245" lon="9.21377">
        <ele>1633.64</ele>
        <time>2019-09-09T07:12:28Z</time>
      </trkpt>
      <trkpt lat="41.81248" lon="9.21375">
        <ele>1632.02</ele>
        <time>2019-09-09T07:12:46Z</time>
      </trkpt>
      <trkpt lat="41.81245" lon="9.2137">
        <ele>1630.22</ele>
        <time>2019-09-09T07:13:01Z</time>
      </trkpt>
      <trkpt lat="41.81248" lon="9.21364">
        <ele>1629.21</ele>
        <time>2019-09-09T07:13:13Z</time>
      </trkpt>
      <trkpt lat="41.81253" lon="9.21361">
        <ele>1627.2</ele>
        <time>2019-09-09T07:13:27Z</time>
      </trkpt>
      <trkpt lat="41.81259" lon="9.21358">
        <ele>1625.78</ele>
        <time>2019-09-09T07:13:38Z</time>
      </trkpt>
      <trkpt lat="41.81262" lon="9.21357">
        <ele>1624.92</ele>
        <time>2019-09-09T07:13:43Z</time>
      </trkpt>
      <trkpt lat="41.81273" lon="9.21357">
        <ele>1623.43</ele>
        <time>2019-09-09T07:13:57Z</time>
      </trkpt>
      <trkpt lat="41.81276" lon="9.21355">
        <ele>1622.5</ele>
        <time>2019-09-09T07:14:13Z</time>
      </trkpt>
      <trkpt lat="41.81277" lon="9.21349">
        <ele>1621.44</ele>
        <time>2019-09-09T07:14:30Z</time>
      </trkpt>
      <trkpt lat="41.81279" lon="9.21343">
        <ele>1620.41</ele>
        <time>2019-09-09T07:14:45Z</time>
      </trkpt>
      <trkpt lat="41.81286" lon="9.2134">
        <ele>1618.97</ele>
        <time>2019-09-09T07:15:00Z</time>
      </trkpt>
      <trkpt lat="41.8129" lon="9.21339">
        <ele>1619.5</ele>
        <time>2019-09-09T07:15:14Z</time>
      </trkpt>
      <trkpt lat="41.81294" lon="9.21334">
        <ele>1618.93</ele>
        <time>2019-09-09T07:15:23Z</time>
      </trkpt>
      <trkpt lat="41.81299" lon="9.21333">
        <ele>1618.5</ele>
        <time>2019-09-09T07:15:28Z</time>
      </trkpt>
      <trkpt lat="41.81302" lon="9.21333">
        <ele>1618.43</ele>
        <time>2019-09-09T07:15:32Z</time>
      </trkpt>
      <trkpt lat="41.81308" lon="9.21333">
        <ele>1617.97</ele>
        <time>2019-09-09T07:15:48Z</time>
      </trkpt>
      <trkpt lat="41.81314" lon="9.21328">
        <ele>1617.15</ele>
        <time>2019-09-09T07:16:02Z</time>
      </trkpt>
      <trkpt lat="41.81322" lon="9.21325">
        <ele>1616.54</ele>
        <time>2019-09-09T07:16:22Z</time>
      </trkpt>
      <trkpt lat="41.81329" lon="9.21321">
        <ele>1615.61</ele>
        <time>2019-09-09T07:16:33Z</time>
      </trkpt>
      <trkpt lat="41.81333" lon="9.21322">
        <ele>1615.06</ele>
        <time>2019-09-09T07:16:36Z</time>
      </trkpt>
      <trkpt lat="41.81344" lon="9.21329">
        <ele>1613.62</ele>
        <time>2019-09-09T07:16:50Z</time>
      </trkpt>
      <trkpt lat="41.81349" lon="9.21335">
        <ele>1612.7</ele>
        <time>2019-09-09T07:17:04Z</time>
      </trkpt>
      <trkpt lat="41.81357" lon="9.21343">
        <ele>1610.49</ele>
        <time>2019-09-09T07:17:17Z</time>
      </trkpt>
      <trkpt lat="41.81369" lon="9.21348">
        <ele>1608.89</ele>
        <time>2019-09-09T07:17:31Z</time>
      </trkpt>
      <trkpt lat="41.81378" lon="9.21345">
        <ele>1607.03</ele>
        <time>2019-09-09T07:17:47Z</time>
      </trkpt>
      <trkpt lat="41.8138" lon="9.2134">
        <ele>1603.67</ele>
        <time>2019-09-09T07:18:00Z</time>
      </trkpt>
      <trkpt lat="41.81391" lon="9.21339">
        <ele>1600.71</ele>
        <time>2019-09-09T07:18:15Z</time>
      </trkpt>
      <trkpt lat="41.81397" lon="9.21331">
        <ele>1597.93</ele>
        <time>2019-09-09T07:18:29Z</time>
      </trkpt>
      <trkpt lat="41.81403" lon="9.21324">
        <ele>1594.1</ele>
        <time>2019-09-09T07:18:43Z</time>
      </trkpt>
      <trkpt lat="41.81407" lon="9.21317">
        <ele>1591.28</ele>
        <time>2019-09-09T07:19:01Z</time>
      </trkpt>
      <trkpt lat="41.81406" lon="9.2131">
        <ele>1589.41</ele>
        <time>2019-09-09T07:19:17Z</time>
      </trkpt>
      <trkpt lat="41.81409" lon="9.21304">
        <ele>1586.67</ele>
        <time>2019-09-09T07:19:31Z</time>
      </trkpt>
      <trkpt lat="41.81406" lon="9.21299">
        <ele>1585.54</ele>
        <time>2019-09-09T07:19:45Z</time>
      </trkpt>
      <trkpt lat="41.81409" lon="9.21294">
        <ele>1584.65</ele>
        <time>2019-09-09T07:19:58Z</time>
      </trkpt>
      <trkpt lat="41.81411" lon="9.2129">
        <ele>1583.14</ele>
        <time>2019-09-09T07:20:14Z</time>
      </trkpt>
      <trkpt lat="41.81412" lon="9.21285">
        <ele>1581.72</ele>
        <time>2019-09-09T07:20:29Z</time>
      </trkpt>
      <trkpt lat="41.81413" lon="9.21281">
        <ele>1580.32</ele>
        <time>2019-09-09T07:20:43Z</time>
      </trkpt>
      <trkpt lat="41.81417" lon="9.21275">
        <ele>1578.33</ele>
        <time>2019-09-09T07:20:56Z</time>
      </trkpt>
      <trkpt lat="41.81424" lon="9.21275">
        <ele>1576.4</ele>
        <time>2019-09-09T07:21:10Z</time>
      </trkpt>
      <trkpt lat="41.81428" lon="9.21269">
        <ele>1575.53</ele>
        <time>2019-09-09T07:21:30Z</time>
      </trkpt>
      <trkpt lat="41.81428" lon="9.21263">
        <ele>1573.84</ele>
        <time>2019-09-09T07:21:50Z</time>
      </trkpt>
      <trkpt lat="41.81429" lon="9.21258">
        <ele>1572.5</ele>
        <time>2019-09-09T07:22:08Z</time>
      </trkpt>
      <trkpt lat="41.81431" lon="9.21248">
        <ele>1570.94</ele>
        <time>2019-09-09T07:22:28Z</time>
      </trkpt>
      <trkpt lat="41.81433" lon="9.21242">
        <ele>1569.26</ele>
        <time>2019-09-09T07:22:47Z</time>
      </trkpt>
      <trkpt lat="41.81434" lon="9.21236">
        <ele>1568.19</ele>
        <time>2019-09-09T07:23:06Z</time>
      </trkpt>
      <trkpt lat="41.81438" lon="9.2123">
        <ele>1565.75</ele>
        <time>2019-09-09T07:23:25Z</time>
      </trkpt>
      <trkpt lat="41.81443" lon="9.21227">
        <ele>1564.11</ele>
        <time>2019-09-09T07:23:41Z</time>
      </trkpt>
      <trkpt lat="41.81448" lon="9.21225">
        <ele>1561.57</ele>
        <time>2019-09-09T07:23:56Z</time>
      </trkpt>
      <trkpt lat="41.81456" lon="9.2122">
        <ele>1558.43</ele>
        <time>2019-09-09T07:24:12Z</time>
      </trkpt>
      <trkpt lat="41.81458" lon="9.21216">
        <ele>1556.93</ele>
        <time>2019-09-09T07:24:25Z</time>
      </trkpt>
      <trkpt lat="41.81452" lon="9.21213">
        <ele>1555.14</ele>
        <time>2019-09-09T07:24:38Z</time>
      </trkpt>
      <trkpt lat="41.81449" lon="9.21208">
        <ele>1552.16</ele>
        <time>2019-09-09T07:24:53Z</time>
      </trkpt>
      <trkpt lat="41.81448" lon="9.21201">
        <ele>1548.65</ele>
        <time>2019-09-09T07:25:07Z</time>
      </trkpt>
      <trkpt lat="41.81452" lon="9.21198">
        <ele>1546.93</ele>
        <time>2019-09-09T07:25:25Z</time>
      </trkpt>
      <trkpt lat="41.81455" lon="9.21191">
        <ele>1545.27</ele>
        <time>2019-09-09T07:25:44Z</time>
      </trkpt>
      <trkpt lat="41.81458" lon="9.21188">
        <ele>1544.46</ele>
        <time>2019-09-09T07:26:00Z</time>
      </trkpt>
      <trkpt lat="41.81466" lon="9.21182">
        <ele>1543.93</ele>
        <time>2019-09-09T07:26:18Z</time>
      </trkpt>
      <trkpt lat="41.81474" lon="9.21175">
        <ele>1541.85</ele>
        <time>2019-09-09T07:26:35Z</time>
      </trkpt>
      <trkpt lat="41.81482" lon="9.21162">
        <ele>1541.14</ele>
        <time>2019-09-09T07:26:55Z</time>
      </trkpt>
      <trkpt lat="41.81488" lon="9.21153">
        <ele>1540.18</ele>
        <time>2019-09-09T07:27:10Z</time>
      </trkpt>
      <trkpt lat="41.81493" lon="9.21143">
        <ele>1536.53</ele>
        <time>2019-09-09T07:27:26Z</time>
      </trkpt>
      <trkpt lat="41.81496" lon="9.21139">
        <ele>1533</ele>
        <time>2019-09-09T07:27:41Z</time>
      </trkpt>
      <trkpt lat="41.81498" lon="9.21139">
        <ele>1529.18</ele>
        <time>2019-09-09T07:28:01Z</time>
      </trkpt>
      <trkpt lat="41.81497" lon="9.21134">
        <ele>1526.41</ele>
        <time>2019-09-09T07:28:18Z</time>
      </trkpt>
      <trkpt lat="41.81501" lon="9.21136">
        <ele>1522.77</ele>
        <time>2019-09-09T07:28:31Z</time>
      </trkpt>
      <trkpt lat="41.81506" lon="9.21136">
        <ele>1518.66</ele>
        <time>2019-09-09T07:28:47Z</time>
      </trkpt>
      <trkpt lat="41.8151" lon="9.21136">
        <ele>1514.84</ele>
        <time>2019-09-09T07:29:02Z</time>
      </trkpt>
      <trkpt lat="41.81512" lon="9.21135">
        <ele>1512.44</ele>
        <time>2019-09-09T07:29:38Z</time>
      </trkpt>
      <trkpt lat="41.81518" lon="9.21143">
        <ele>1511.1</ele>
        <time>2019-09-09T07:29:54Z</time>
      </trkpt>
      <trkpt lat="41.81526" lon="9.21149">
        <ele>1510.14</ele>
        <time>2019-09-09T07:30:11Z</time>
      </trkpt>
      <trkpt lat="41.81537" lon="9.21155">
        <ele>1508.76</ele>
        <time>2019-09-09T07:30:27Z</time>
      </trkpt>
      <trkpt lat="41.81545" lon="9.21157">
        <ele>1508.02</ele>
        <time>2019-09-09T07:30:46Z</time>
      </trkpt>
      <trkpt lat="41.81556" lon="9.2116">
        <ele>1506.65</ele>
        <time>2019-09-09T07:31:03Z</time>
      </trkpt>
      <trkpt lat="41.81571" lon="9.21158">
        <ele>1506.4</ele>
        <time>2019-09-09T07:31:20Z</time>
      </trkpt>
      <trkpt lat="41.8158" lon="9.21166">
        <ele>1506.08</ele>
        <time>2019-09-09T07:31:38Z</time>
      </trkpt>
      <trkpt lat="41.81587" lon="9.21175">
        <ele>1504.21</ele>
        <time>2019-09-09T07:31:56Z</time>
      </trkpt>
      <trkpt lat="41.81594" lon="9.21179">
        <ele>1501.15</ele>
        <time>2019-09-09T07:32:11Z</time>
      </trkpt>
      <trkpt lat="41.81599" lon="9.21183">
        <ele>1497.28</ele>
        <time>2019-09-09T07:32:28Z</time>
      </trkpt>
      <trkpt lat="41.81605" lon="9.21188">
        <ele>1495.81</ele>
        <time>2019-09-09T07:32:44Z</time>
      </trkpt>
      <trkpt lat="41.8161" lon="9.2119">
        <ele>1495.01</ele>
        <time>2019-09-09T07:33:00Z</time>
      </trkpt>
      <trkpt lat="41.81615" lon="9.21189">
        <ele>1493.66</ele>
        <time>2019-09-09T07:33:17Z</time>
      </trkpt>
      <trkpt lat="41.8162" lon="9.21185">
        <ele>1490.44</ele>
        <time>2019-09-09T07:33:39Z</time>
      </trkpt>
      <trkpt lat="41.8162" lon="9.21187">
        <ele>1485.5</ele>
        <time>2019-09-09T07:34:14Z</time>
      </trkpt>
      <trkpt lat="41.81621" lon="9.2118">
        <ele>1484.36</ele>
        <time>2019-09-09T07:34:36Z</time>
      </trkpt>
      <trkpt lat="41.81625" lon="9.21173">
        <ele>1482.74</ele>
        <time>2019-09-09T07:34:55Z</time>
      </trkpt>
      <trkpt lat="41.81629" lon="9.2116">
        <ele>1481.86</ele>
        <time>2019-09-09T07:35:11Z</time>
      </trkpt>
      <trkpt lat="41.81633" lon="9.21147">
        <ele>1481.26</ele>
        <time>2019-09-09T07:35:27Z</time>
      </trkpt>
      <trkpt lat="41.81635" lon="9.21143">
        <ele>1481.18</ele>
        <time>2019-09-09T07:35:30Z</time>
      </trkpt>
      <trkpt lat="41.81635" lon="9.21126">
        <ele>1481.14</ele>
        <time>2019-09-09T07:35:39Z</time>
      </trkpt>
      <trkpt lat="41.81635" lon="9.21108">
        <ele>1483.17</ele>
        <time>2019-09-09T07:35:52Z</time>
      </trkpt>
      <trkpt lat="41.81639" lon="9.21099">
        <ele>1483.48</ele>
        <time>2019-09-09T07:36:04Z</time>
      </trkpt>
      <trkpt lat="41.81639" lon="9.21085">
        <ele>1483.48</ele>
        <time>2019-09-09T07:36:15Z</time>
      </trkpt>
      <trkpt lat="41.81641" lon="9.21076">
        <ele>1481.61</ele>
        <time>2019-09-09T07:36:33Z</time>
      </trkpt>
      <trkpt lat="41.81637" lon="9.2105">
        <ele>1475.59</ele>
        <time>2019-09-09T07:36:52Z</time>
      </trkpt>
      <trkpt lat="41.81632" lon="9.21037">
        <ele>1469.12</ele>
        <time>2019-09-09T07:37:08Z</time>
      </trkpt>
      <trkpt lat="41.81632" lon="9.21032">
        <ele>1460.77</ele>
        <time>2019-09-09T07:37:24Z</time>
      </trkpt>
      <trkpt lat="41.81638" lon="9.21033">
        <ele>1455.63</ele>
        <time>2019-09-09T07:37:42Z</time>
      </trkpt>
      <trkpt lat="41.81649" lon="9.21024">
        <ele>1449.2</ele>
        <time>2019-09-09T07:38:02Z</time>
      </trkpt>
      <trkpt lat="41.81659" lon="9.21018">
        <ele>1441.37</ele>
        <time>2019-09-09T07:38:20Z</time>
      </trkpt>
      <trkpt lat="41.81661" lon="9.21005">
        <ele>1434.09</ele>
        <time>2019-09-09T07:38:39Z</time>
      </trkpt>
      <trkpt lat="41.81665" lon="9.21004">
        <ele>1423.98</ele>
        <time>2019-09-09T07:39:18Z</time>
      </trkpt>
      <trkpt lat="41.8167" lon="9.21005">
        <ele>1420.97</ele>
        <time>2019-09-09T07:39:37Z</time>
      </trkpt>
      <trkpt lat="41.81676" lon="9.21003">
        <ele>1417.77</ele>
        <time>2019-09-09T07:39:53Z</time>
      </trkpt>
      <trkpt lat="41.81681" lon="9.20991">
        <ele>1417.08</ele>
        <time>2019-09-09T07:40:07Z</time>
      </trkpt>
      <trkpt lat="41.81686" lon="9.20983">
        <ele>1416.16</ele>
        <time>2019-09-09T07:40:24Z</time>
      </trkpt>
      <trkpt lat="41.81689" lon="9.20966">
        <ele>1414.66</ele>
        <time>2019-09-09T07:40:42Z</time>
      </trkpt>
      <trkpt lat="41.81688" lon="9.20951">
        <ele>1413.35</ele>
        <time>2019-09-09T07:40:59Z</time>
      </trkpt>
      <trkpt lat="41.81693" lon="9.20947">
        <ele>1412.95</ele>
        <time>2019-09-09T07:41:13Z</time>
      </trkpt>
      <trkpt lat="41.81701" lon="9.20941">
        <ele>1413.06</ele>
        <time>2019-09-09T07:41:31Z</time>
      </trkpt>
      <trkpt lat="41.81709" lon="9.20935">
        <ele>1413.14</ele>
        <time>2019-09-09T07:41:48Z</time>
      </trkpt>
      <trkpt lat="41.81717" lon="9.20916">
        <ele>1411.36</ele>
        <time>2019-09-09T07:42:06Z</time>
      </trkpt>
      <trkpt lat="41.81726" lon="9.20909">
        <ele>1410.31</ele>
        <time>2019-09-09T07:42:24Z</time>
      </trkpt>
      <trkpt lat="41.81735" lon="9.20888">
        <ele>1408</ele>
        <time>2019-09-09T07:42:40Z</time>
      </trkpt>
      <trkpt lat="41.81739" lon="9.20874">
        <ele>1404.88</ele>
        <time>2019-09-09T07:42:52Z</time>
      </trkpt>
      <trkpt lat="41.81738" lon="9.20863">
        <ele>1396.31</ele>
        <time>2019-09-09T07:43:11Z</time>
      </trkpt>
      <trkpt lat="41.81744" lon="9.20857">
        <ele>1389.51</ele>
        <time>2019-09-09T07:43:31Z</time>
      </trkpt>
      <trkpt lat="41.81748" lon="9.20847">
        <ele>1385.51</ele>
        <time>2019-09-09T07:43:49Z</time>
      </trkpt>
      <trkpt lat="41.81748" lon="9.20835">
        <ele>1379.11</ele>
        <time>2019-09-09T07:44:05Z</time>
      </trkpt>
      <trkpt lat="41.81748" lon="9.20827">
        <ele>1375.64</ele>
        <time>2019-09-09T07:44:23Z</time>
      </trkpt>
      <trkpt lat="41.81755" lon="9.20828">
        <ele>1372.61</ele>
        <time>2019-09-09T07:44:41Z</time>
      </trkpt>
      <trkpt lat="41.8176" lon="9.20824">
        <ele>1371.09</ele>
        <time>2019-09-09T07:44:57Z</time>
      </trkpt>
      <trkpt lat="41.81765" lon="9.20822">
        <ele>1368.85</ele>
        <time>2019-09-09T07:45:14Z</time>
      </trkpt>
      <trkpt lat="41.81776" lon="9.20821">
        <ele>1366.96</ele>
        <time>2019-09-09T07:45:32Z</time>
      </trkpt>
      <trkpt lat="41.81784" lon="9.20818">
        <ele>1365.43</ele>
        <time>2019-09-09T07:45:50Z</time>
      </trkpt>
      <trkpt lat="41.81792" lon="9.20811">
        <ele>1363.58</ele>
        <time>2019-09-09T07:46:08Z</time>
      </trkpt>
      <trkpt lat="41.81796" lon="9.20809">
        <ele>1360.08</ele>
        <time>2019-09-09T07:46:34Z</time>
      </trkpt>
      <trkpt lat="41.81798" lon="9.20807">
        <ele>1357.07</ele>
        <time>2019-09-09T07:46:56Z</time>
      </trkpt>
      <trkpt lat="41.81797" lon="9.20807">
        <ele>1354.72</ele>
        <time>2019-09-09T07:47:15Z</time>
      </trkpt>
      <trkpt lat="41.81803" lon="9.2081">
        <ele>1351.52</ele>
        <time>2019-09-09T07:47:39Z</time>
      </trkpt>
      <trkpt lat="41.818" lon="9.20808">
        <ele>1348.69</ele>
        <time>2019-09-09T07:48:12Z</time>
      </trkpt>
      <trkpt lat="41.81798" lon="9.20807">
        <ele>1347.36</ele>
        <time>2019-09-09T07:48:38Z</time>
      </trkpt>
      <trkpt lat="41.81797" lon="9.20804">
        <ele>1346.04</ele>
        <time>2019-09-09T07:49:07Z</time>
      </trkpt>
      <trkpt lat="41.81793" lon="9.20804">
        <ele>1345.24</ele>
        <time>2019-09-09T07:49:37Z</time>
      </trkpt>
      <trkpt lat="41.81799" lon="9.20803">
        <ele>1344.23</ele>
        <time>2019-09-09T07:50:06Z</time>
      </trkpt>
      <trkpt lat="41.81801" lon="9.20801">
        <ele>1341.97</ele>
        <time>2019-09-09T07:50:35Z</time>
      </trkpt>
      <trkpt lat="41.81804" lon="9.20804">
        <ele>1338.6</ele>
        <time>2019-09-09T07:51:03Z</time>
      </trkpt>
      <trkpt lat="41.81803" lon="9.20801">
        <ele>1338.25</ele>
        <time>2019-09-09T07:51:32Z</time>
      </trkpt>
      <trkpt lat="41.81802" lon="9.20802">
        <ele>1338.3</ele>
        <time>2019-09-09T07:51:56Z</time>
      </trkpt>
      <trkpt lat="41.81801" lon="9.20808">
        <ele>1336.95</ele>
        <time>2019-09-09T07:52:22Z</time>
      </trkpt>
      <trkpt lat="41.81808" lon="9.20821">
        <ele>1336.31</ele>
        <time>2019-09-09T07:52:41Z</time>
      </trkpt>
      <trkpt lat="41.81808" lon="9.20833">
        <ele>1336.9</ele>
        <time>2019-09-09T07:53:01Z</time>
      </trkpt>
      <trkpt lat="41.81807" lon="9.20839">
        <ele>1336.4</ele>
        <time>2019-09-09T07:53:19Z</time>
      </trkpt>
      <trkpt lat="41.81811" lon="9.20851">
        <ele>1336.31</ele>
        <time>2019-09-09T07:53:34Z</time>
      </trkpt>
      <trkpt lat="41.81813" lon="9.2086">
        <ele>1336.06</ele>
        <time>2019-09-09T07:53:51Z</time>
      </trkpt>
      <trkpt lat="41.81812" lon="9.20863">
        <ele>1336.01</ele>
        <time>2019-09-09T07:54:04Z</time>
      </trkpt>
      <trkpt lat="41.81815" lon="9.20868">
        <ele>1335.42</ele>
        <time>2019-09-09T07:54:20Z</time>
      </trkpt>
      <trkpt lat="41.81818" lon="9.20871">
        <ele>1335.45</ele>
        <time>2019-09-09T07:54:33Z</time>
      </trkpt>
      <trkpt lat="41.81823" lon="9.20876">
        <ele>1336.47</ele>
        <time>2019-09-09T07:54:48Z</time>
      </trkpt>
      <trkpt lat="41.81826" lon="9.20881">
        <ele>1337.87</ele>
        <time>2019-09-09T07:55:03Z</time>
      </trkpt>
      <trkpt lat="41.8183" lon="9.20886">
        <ele>1338.36</ele>
        <time>2019-09-09T07:55:20Z</time>
      </trkpt>
      <trkpt lat="41.81836" lon="9.20891">
        <ele>1339.57</ele>
        <time>2019-09-09T07:55:38Z</time>
      </trkpt>
      <trkpt lat="41.81837" lon="9.20891">
        <ele>1339.84</ele>
        <time>2019-09-09T07:55:40Z</time>
      </trkpt>
      <trkpt lat="41.81847" lon="9.209">
        <ele>1342.42</ele>
        <time>2019-09-09T07:55:56Z</time>
      </trkpt>
      <trkpt lat="41.81857" lon="9.20911">
        <ele>1346.05</ele>
        <time>2019-09-09T07:56:17Z</time>
      </trkpt>
      <trkpt lat="41.81859" lon="9.20915">
        <ele>1347.65</ele>
        <time>2019-09-09T07:56:32Z</time>
      </trkpt>
      <trkpt lat="41.81867" lon="9.20926">
        <ele>1349.95</ele>
        <time>2019-09-09T07:56:50Z</time>
      </trkpt>
      <trkpt lat="41.81875" lon="9.20937">
        <ele>1352.58</ele>
        <time>2019-09-09T07:57:08Z</time>
      </trkpt>
      <trkpt lat="41.81879" lon="9.20947">
        <ele>1354.58</ele>
        <time>2019-09-09T07:57:26Z</time>
      </trkpt>
      <trkpt lat="41.81888" lon="9.20962">
        <ele>1355.58</ele>
        <time>2019-09-09T07:57:43Z</time>
      </trkpt>
      <trkpt lat="41.81901" lon="9.20969">
        <ele>1355.96</ele>
        <time>2019-09-09T07:58:02Z</time>
      </trkpt>
      <trkpt lat="41.81909" lon="9.20965">
        <ele>1356.63</ele>
        <time>2019-09-09T07:58:17Z</time>
      </trkpt>
      <trkpt lat="41.81923" lon="9.20957">
        <ele>1359.06</ele>
        <time>2019-09-09T07:58:36Z</time>
      </trkpt>
      <trkpt lat="41.81938" lon="9.20959">
        <ele>1361.31</ele>
        <time>2019-09-09T07:58:51Z</time>
      </trkpt>
      <trkpt lat="41.81943" lon="9.20959">
        <ele>1361.5</ele>
        <time>2019-09-09T07:58:56Z</time>
      </trkpt>
      <trkpt lat="41.81958" lon="9.20955">
        <ele>1361.03</ele>
        <time>2019-09-09T07:59:12Z</time>
      </trkpt>
      <trkpt lat="41.81959" lon="9.20955">
        <ele>1361.05</ele>
        <time>2019-09-09T07:59:13Z</time>
      </trkpt>
      <trkpt lat="41.81973" lon="9.20955">
        <ele>1363.83</ele>
        <time>2019-09-09T07:59:29Z</time>
      </trkpt>
      <trkpt lat="41.81983" lon="9.20954">
        <ele>1364.26</ele>
        <time>2019-09-09T07:59:44Z</time>
      </trkpt>
      <trkpt lat="41.81992" lon="9.20953">
        <ele>1366.13</ele>
        <time>2019-09-09T08:00:03Z</time>
      </trkpt>
      <trkpt lat="41.82007" lon="9.20955">
        <ele>1366.72</ele>
        <time>2019-09-09T08:00:21Z</time>
      </trkpt>
      <trkpt lat="41.8202" lon="9.20956">
        <ele>1369.32</ele>
        <time>2019-09-09T08:00:41Z</time>
      </trkpt>
      <trkpt lat="41.82027" lon="9.20954">
        <ele>1369.49</ele>
        <time>2019-09-09T08:00:48Z</time>
      </trkpt>
      <trkpt lat="41.82034" lon="9.20952">
        <ele>1368.6</ele>
        <time>2019-09-09T08:00:54Z</time>
      </trkpt>
      <trkpt lat="41.82053" lon="9.20954">
        <ele>1369.03</ele>
        <time>2019-09-09T08:01:10Z</time>
      </trkpt>
      <trkpt lat="41.82063" lon="9.20961">
        <ele>1370.1</ele>
        <time>2019-09-09T08:01:22Z</time>
      </trkpt>
      <trkpt lat="41.82077" lon="9.20972">
        <ele>1372.1</ele>
        <time>2019-09-09T08:01:37Z</time>
      </trkpt>
      <trkpt lat="41.82086" lon="9.20977">
        <ele>1375.63</ele>
        <time>2019-09-09T08:01:52Z</time>
      </trkpt>
      <trkpt lat="41.82098" lon="9.20979">
        <ele>1376.88</ele>
        <time>2019-09-09T08:02:12Z</time>
      </trkpt>
      <trkpt lat="41.82111" lon="9.20975">
        <ele>1377.6</ele>
        <time>2019-09-09T08:02:30Z</time>
      </trkpt>
      <trkpt lat="41.82122" lon="9.20976">
        <ele>1378.19</ele>
        <time>2019-09-09T08:02:44Z</time>
      </trkpt>
      <trkpt lat="41.82127" lon="9.20976">
        <ele>1377.45</ele>
        <time>2019-09-09T08:02:48Z</time>
      </trkpt>
      <trkpt lat="41.82135" lon="9.20978">
        <ele>1378.45</ele>
        <time>2019-09-09T08:02:56Z</time>
      </trkpt>
      <trkpt lat="41.82149" lon="9.20973">
        <ele>1380.73</ele>
        <time>2019-09-09T08:03:13Z</time>
      </trkpt>
      <trkpt lat="41.82163" lon="9.20978">
        <ele>1383.24</ele>
        <time>2019-09-09T08:03:31Z</time>
      </trkpt>
      <trkpt lat="41.82178" lon="9.20982">
        <ele>1386.98</ele>
        <time>2019-09-09T08:03:49Z</time>
      </trkpt>
      <trkpt lat="41.82189" lon="9.20989">
        <ele>1387.16</ele>
        <time>2019-09-09T08:04:09Z</time>
      </trkpt>
      <trkpt lat="41.82199" lon="9.21">
        <ele>1388.6</ele>
        <time>2019-09-09T08:04:24Z</time>
      </trkpt>
      <trkpt lat="41.82207" lon="9.21007">
        <ele>1390.25</ele>
        <time>2019-09-09T08:04:37Z</time>
      </trkpt>
      <trkpt lat="41.82218" lon="9.21018">
        <ele>1390.56</ele>
        <time>2019-09-09T08:04:52Z</time>
      </trkpt>
      <trkpt lat="41.82231" lon="9.21029">
        <ele>1390.64</ele>
        <time>2019-09-09T08:05:09Z</time>
      </trkpt>
      <trkpt lat="41.82245" lon="9.21037">
        <ele>1391.54</ele>
        <time>2019-09-09T08:05:26Z</time>
      </trkpt>
      <trkpt lat="41.82254" lon="9.21046">
        <ele>1392.81</ele>
        <time>2019-09-09T08:05:39Z</time>
      </trkpt>
      <trkpt lat="41.82257" lon="9.21052">
        <ele>1393.38</ele>
        <time>2019-09-09T08:05:44Z</time>
      </trkpt>
      <trkpt lat="41.8227" lon="9.21064">
        <ele>1395.55</ele>
        <time>2019-09-09T08:06:00Z</time>
      </trkpt>
      <trkpt lat="41.82282" lon="9.21081">
        <ele>1399.4</ele>
        <time>2019-09-09T08:06:18Z</time>
      </trkpt>
      <trkpt lat="41.82293" lon="9.21097">
        <ele>1404.01</ele>
        <time>2019-09-09T08:06:37Z</time>
      </trkpt>
      <trkpt lat="41.82298" lon="9.21102">
        <ele>1403.89</ele>
        <time>2019-09-09T08:06:54Z</time>
      </trkpt>
      <trkpt lat="41.82309" lon="9.21106">
        <ele>1403.54</ele>
        <time>2019-09-09T08:07:13Z</time>
      </trkpt>
      <trkpt lat="41.82325" lon="9.21102">
        <ele>1404.48</ele>
        <time>2019-09-09T08:07:30Z</time>
      </trkpt>
      <trkpt lat="41.82331" lon="9.211">
        <ele>1405.52</ele>
        <time>2019-09-09T08:07:35Z</time>
      </trkpt>
      <trkpt lat="41.82348" lon="9.21098">
        <ele>1408.32</ele>
        <time>2019-09-09T08:07:50Z</time>
      </trkpt>
      <trkpt lat="41.82365" lon="9.21099">
        <ele>1410.48</ele>
        <time>2019-09-09T08:08:08Z</time>
      </trkpt>
      <trkpt lat="41.82383" lon="9.21098">
        <ele>1407.41</ele>
        <time>2019-09-09T08:08:23Z</time>
      </trkpt>
      <trkpt lat="41.82401" lon="9.21103">
        <ele>1401.62</ele>
        <time>2019-09-09T08:08:43Z</time>
      </trkpt>
      <trkpt lat="41.82417" lon="9.21111">
        <ele>1401.6</ele>
        <time>2019-09-09T08:09:01Z</time>
      </trkpt>
      <trkpt lat="41.82436" lon="9.21115">
        <ele>1403.28</ele>
        <time>2019-09-09T08:09:18Z</time>
      </trkpt>
      <trkpt lat="41.82451" lon="9.21117">
        <ele>1406.51</ele>
        <time>2019-09-09T08:09:31Z</time>
      </trkpt>
      <trkpt lat="41.82457" lon="9.2112">
        <ele>1406.97</ele>
        <time>2019-09-09T08:09:36Z</time>
      </trkpt>
      <trkpt lat="41.82475" lon="9.21128">
        <ele>1410.65</ele>
        <time>2019-09-09T08:09:54Z</time>
      </trkpt>
      <trkpt lat="41.82493" lon="9.21137">
        <ele>1412.95</ele>
        <time>2019-09-09T08:10:11Z</time>
      </trkpt>
      <trkpt lat="41.82512" lon="9.21145">
        <ele>1414.44</ele>
        <time>2019-09-09T08:10:28Z</time>
      </trkpt>
      <trkpt lat="41.8253" lon="9.21154">
        <ele>1415.88</ele>
        <time>2019-09-09T08:10:45Z</time>
      </trkpt>
      <trkpt lat="41.82543" lon="9.21165">
        <ele>1417.19</ele>
        <time>2019-09-09T08:10:58Z</time>
      </trkpt>
      <trkpt lat="41.82555" lon="9.21173">
        <ele>1420.79</ele>
        <time>2019-09-09T08:11:14Z</time>
      </trkpt>
      <trkpt lat="41.82559" lon="9.21172">
        <ele>1421.7</ele>
        <time>2019-09-09T08:11:18Z</time>
      </trkpt>
      <trkpt lat="41.8257" lon="9.21175">
        <ele>1421.29</ele>
        <time>2019-09-09T08:11:28Z</time>
      </trkpt>
      <trkpt lat="41.82587" lon="9.21179">
        <ele>1421.21</ele>
        <time>2019-09-09T08:11:44Z</time>
      </trkpt>
      <trkpt lat="41.82603" lon="9.21186">
        <ele>1424.04</ele>
        <time>2019-09-09T08:12:00Z</time>
      </trkpt>
      <trkpt lat="41.82624" lon="9.21196">
        <ele>1424.63</ele>
        <time>2019-09-09T08:12:18Z</time>
      </trkpt>
      <trkpt lat="41.82634" lon="9.21209">
        <ele>1425.16</ele>
        <time>2019-09-09T08:12:32Z</time>
      </trkpt>
      <trkpt lat="41.82645" lon="9.21226">
        <ele>1423.7</ele>
        <time>2019-09-09T08:12:48Z</time>
      </trkpt>
      <trkpt lat="41.82651" lon="9.21241">
        <ele>1421.79</ele>
        <time>2019-09-09T08:13:00Z</time>
      </trkpt>
      <trkpt lat="41.8266" lon="9.21261">
        <ele>1422.07</ele>
        <time>2019-09-09T08:13:21Z</time>
      </trkpt>
      <trkpt lat="41.82674" lon="9.2128">
        <ele>1420.97</ele>
        <time>2019-09-09T08:13:40Z</time>
      </trkpt>
      <trkpt lat="41.82683" lon="9.21285">
        <ele>1420.1</ele>
        <time>2019-09-09T08:13:58Z</time>
      </trkpt>
      <trkpt lat="41.82696" lon="9.21293">
        <ele>1418.45</ele>
        <time>2019-09-09T08:14:18Z</time>
      </trkpt>
      <trkpt lat="41.82702" lon="9.21297">
        <ele>1411.8</ele>
        <time>2019-09-09T08:14:37Z</time>
      </trkpt>
      <trkpt lat="41.82703" lon="9.21298">
        <ele>1408.18</ele>
        <time>2019-09-09T08:15:00Z</time>
      </trkpt>
      <trkpt lat="41.82707" lon="9.21296">
        <ele>1405.4</ele>
        <time>2019-09-09T08:15:28Z</time>
      </trkpt>
      <trkpt lat="41.82704" lon="9.21298">
        <ele>1403.78</ele>
        <time>2019-09-09T08:15:57Z</time>
      </trkpt>
      <trkpt lat="41.82702" lon="9.21296">
        <ele>1404.12</ele>
        <time>2019-09-09T08:16:30Z</time>
      </trkpt>
      <trkpt lat="41.82703" lon="9.21294">
        <ele>1404.81</ele>
        <time>2019-09-09T08:16:55Z</time>
      </trkpt>
      <trkpt lat="41.82705" lon="9.21297">
        <ele>1399.21</ele>
        <time>2019-09-09T08:17:24Z</time>
      </trkpt>
      <trkpt lat="41.82708" lon="9.21298">
        <ele>1397.34</ele>
        <time>2019-09-09T08:17:49Z</time>
      </trkpt>
      <trkpt lat="41.82706" lon="9.21296">
        <ele>1396.23</ele>
        <time>2019-09-09T08:18:14Z</time>
      </trkpt>
      <trkpt lat="41.82709" lon="9.213">
        <ele>1395.67</ele>
        <time>2019-09-09T08:18:28Z</time>
      </trkpt>
      <trkpt lat="41.82715" lon="9.21302">
        <ele>1396.27</ele>
        <time>2019-09-09T08:18:45Z</time>
      </trkpt>
      <trkpt lat="41.82722" lon="9.21298">
        <ele>1396.28</ele>
        <time>2019-09-09T08:19:06Z</time>
      </trkpt>
      <trkpt lat="41.8273" lon="9.21292">
        <ele>1396.03</ele>
        <time>2019-09-09T08:19:24Z</time>
      </trkpt>
      <trkpt lat="41.82731" lon="9.21282">
        <ele>1393.7</ele>
        <time>2019-09-09T08:19:42Z</time>
      </trkpt>
      <trkpt lat="41.82733" lon="9.21279">
        <ele>1393.33</ele>
        <time>2019-09-09T08:19:59Z</time>
      </trkpt>
      <trkpt lat="41.82734" lon="9.21268">
        <ele>1391.63</ele>
        <time>2019-09-09T08:20:22Z</time>
      </trkpt>
      <trkpt lat="41.82736" lon="9.21263">
        <ele>1390.83</ele>
        <time>2019-09-09T08:20:40Z</time>
      </trkpt>
      <trkpt lat="41.82746" lon="9.21252">
        <ele>1390.79</ele>
        <time>2019-09-09T08:20:59Z</time>
      </trkpt>
      <trkpt lat="41.82753" lon="9.21243">
        <ele>1389.68</ele>
        <time>2019-09-09T08:21:17Z</time>
      </trkpt>
      <trkpt lat="41.82761" lon="9.21234">
        <ele>1389.35</ele>
        <time>2019-09-09T08:21:35Z</time>
      </trkpt>
      <trkpt lat="41.82763" lon="9.21234">
        <ele>1389.31</ele>
        <time>2019-09-09T08:21:37Z</time>
      </trkpt>
      <trkpt lat="41.82777" lon="9.21231">
        <ele>1389.11</ele>
        <time>2019-09-09T08:21:55Z</time>
      </trkpt>
      <trkpt lat="41.82788" lon="9.21222">
        <ele>1391.49</ele>
        <time>2019-09-09T08:22:09Z</time>
      </trkpt>
      <trkpt lat="41.82798" lon="9.21199">
        <ele>1389.36</ele>
        <time>2019-09-09T08:22:25Z</time>
      </trkpt>
      <trkpt lat="41.82805" lon="9.21192">
        <ele>1386.09</ele>
        <time>2019-09-09T08:22:33Z</time>
      </trkpt>
      <trkpt lat="41.82822" lon="9.21185">
        <ele>1379.18</ele>
        <time>2019-09-09T08:22:51Z</time>
      </trkpt>
      <trkpt lat="41.82831" lon="9.21187">
        <ele>1376.99</ele>
        <time>2019-09-09T08:22:59Z</time>
      </trkpt>
      <trkpt lat="41.82833" lon="9.21188">
        <ele>1376.25</ele>
        <time>2019-09-09T08:23:02Z</time>
      </trkpt>
      <trkpt lat="41.82838" lon="9.21192">
        <ele>1376.15</ele>
        <time>2019-09-09T08:23:08Z</time>
      </trkpt>
      <trkpt lat="41.82851" lon="9.21192">
        <ele>1379.88</ele>
        <time>2019-09-09T08:23:24Z</time>
      </trkpt>
      <trkpt lat="41.82864" lon="9.21195">
        <ele>1381.12</ele>
        <time>2019-09-09T08:23:39Z</time>
      </trkpt>
      <trkpt lat="41.8288" lon="9.21201">
        <ele>1380.25</ele>
        <time>2019-09-09T08:24:00Z</time>
      </trkpt>
      <trkpt lat="41.82896" lon="9.21209">
        <ele>1377.79</ele>
        <time>2019-09-09T08:24:22Z</time>
      </trkpt>
      <trkpt lat="41.82906" lon="9.21218">
        <ele>1375.18</ele>
        <time>2019-09-09T08:24:39Z</time>
      </trkpt>
      <trkpt lat="41.82917" lon="9.21218">
        <ele>1373.58</ele>
        <time>2019-09-09T08:24:58Z</time>
      </trkpt>
      <trkpt lat="41.82918" lon="9.21218">
        <ele>1373.19</ele>
        <time>2019-09-09T08:24:59Z</time>
      </trkpt>
      <trkpt lat="41.82927" lon="9.21221">
        <ele>1370.33</ele>
        <time>2019-09-09T08:25:14Z</time>
      </trkpt>
      <trkpt lat="41.82936" lon="9.21232">
        <ele>1367.31</ele>
        <time>2019-09-09T08:25:33Z</time>
      </trkpt>
      <trkpt lat="41.82944" lon="9.21243">
        <ele>1364.9</ele>
        <time>2019-09-09T08:25:45Z</time>
      </trkpt>
      <trkpt lat="41.82949" lon="9.21248">
        <ele>1361.32</ele>
        <time>2019-09-09T08:26:02Z</time>
      </trkpt>
      <trkpt lat="41.82953" lon="9.21249">
        <ele>1358.15</ele>
        <time>2019-09-09T08:26:19Z</time>
      </trkpt>
      <trkpt lat="41.82962" lon="9.21252">
        <ele>1353.95</ele>
        <time>2019-09-09T08:26:38Z</time>
      </trkpt>
      <trkpt lat="41.82971" lon="9.21253">
        <ele>1349.79</ele>
        <time>2019-09-09T08:26:58Z</time>
      </trkpt>
      <trkpt lat="41.82979" lon="9.21251">
        <ele>1347.78</ele>
        <time>2019-09-09T08:27:15Z</time>
      </trkpt>
      <trkpt lat="41.82983" lon="9.21248">
        <ele>1347.26</ele>
        <time>2019-09-09T08:27:27Z</time>
      </trkpt>
      <trkpt lat="41.8299" lon="9.21247">
        <ele>1350.47</ele>
        <time>2019-09-09T08:27:42Z</time>
      </trkpt>
      <trkpt lat="41.82998" lon="9.21246">
        <ele>1352.18</ele>
        <time>2019-09-09T08:27:56Z</time>
      </trkpt>
      <trkpt lat="41.8301" lon="9.21242">
        <ele>1351.82</ele>
        <time>2019-09-09T08:28:12Z</time>
      </trkpt>
      <trkpt lat="41.83023" lon="9.21242">
        <ele>1351.96</ele>
        <time>2019-09-09T08:28:30Z</time>
      </trkpt>
      <trkpt lat="41.83025" lon="9.21241">
        <ele>1352.04</ele>
        <time>2019-09-09T08:28:32Z</time>
      </trkpt>
      <trkpt lat="41.83038" lon="9.21245">
        <ele>1355.92</ele>
        <time>2019-09-09T08:28:46Z</time>
      </trkpt>
      <trkpt lat="41.83047" lon="9.21248">
        <ele>1353.88</ele>
        <time>2019-09-09T08:29:00Z</time>
      </trkpt>
      <trkpt lat="41.83053" lon="9.21255">
        <ele>1352.28</ele>
        <time>2019-09-09T08:29:09Z</time>
      </trkpt>
      <trkpt lat="41.83072" lon="9.21259">
        <ele>1350.9</ele>
        <time>2019-09-09T08:29:27Z</time>
      </trkpt>
      <trkpt lat="41.83084" lon="9.21268">
        <ele>1348.11</ele>
        <time>2019-09-09T08:29:44Z</time>
      </trkpt>
      <trkpt lat="41.83084" lon="9.21268">
        <ele>1347.73</ele>
        <time>2019-09-09T08:29:45Z</time>
      </trkpt>
      <trkpt lat="41.831" lon="9.2128">
        <ele>1346.23</ele>
        <time>2019-09-09T08:30:03Z</time>
      </trkpt>
      <trkpt lat="41.83104" lon="9.21278">
        <ele>1345.72</ele>
        <time>2019-09-09T08:30:17Z</time>
      </trkpt>
      <trkpt lat="41.83105" lon="9.2128">
        <ele>1344.47</ele>
        <time>2019-09-09T08:30:31Z</time>
      </trkpt>
      <trkpt lat="41.83103" lon="9.21278">
        <ele>1342.32</ele>
        <time>2019-09-09T08:31:14Z</time>
      </trkpt>
      <trkpt lat="41.83103" lon="9.21275">
        <ele>1342.91</ele>
        <time>2019-09-09T08:32:24Z</time>
      </trkpt>
      <trkpt lat="41.83103" lon="9.21276">
        <ele>1342.18</ele>
        <time>2019-09-09T08:32:58Z</time>
      </trkpt>
      <trkpt lat="41.83103" lon="9.21274">
        <ele>1340.76</ele>
        <time>2019-09-09T08:33:41Z</time>
      </trkpt>
      <trkpt lat="41.83102" lon="9.21278">
        <ele>1340.74</ele>
        <time>2019-09-09T08:34:00Z</time>
      </trkpt>
      <trkpt lat="41.83101" lon="9.21283">
        <ele>1340.84</ele>
        <time>2019-09-09T08:34:16Z</time>
      </trkpt>
      <trkpt lat="41.831" lon="9.21287">
        <ele>1340.19</ele>
        <time>2019-09-09T08:34:30Z</time>
      </trkpt>
      <trkpt lat="41.83106" lon="9.213">
        <ele>1337.34</ele>
        <time>2019-09-09T08:34:47Z</time>
      </trkpt>
      <trkpt lat="41.83105" lon="9.21315">
        <ele>1336.83</ele>
        <time>2019-09-09T08:35:02Z</time>
      </trkpt>
      <trkpt lat="41.83114" lon="9.21323">
        <ele>1338.46</ele>
        <time>2019-09-09T08:35:17Z</time>
      </trkpt>
      <trkpt lat="41.83123" lon="9.21324">
        <ele>1340.61</ele>
        <time>2019-09-09T08:35:32Z</time>
      </trkpt>
      <trkpt lat="41.83133" lon="9.21328">
        <ele>1341.91</ele>
        <time>2019-09-09T08:35:51Z</time>
      </trkpt>
      <trkpt lat="41.8314" lon="9.21327">
        <ele>1340.1</ele>
        <time>2019-09-09T08:36:08Z</time>
      </trkpt>
      <trkpt lat="41.83146" lon="9.21324">
        <ele>1338.66</ele>
        <time>2019-09-09T08:36:24Z</time>
      </trkpt>
      <trkpt lat="41.83154" lon="9.2133">
        <ele>1336.44</ele>
        <time>2019-09-09T08:36:41Z</time>
      </trkpt>
      <trkpt lat="41.83161" lon="9.21327">
        <ele>1335.57</ele>
        <time>2019-09-09T08:36:59Z</time>
      </trkpt>
      <trkpt lat="41.83169" lon="9.2133">
        <ele>1335.41</ele>
        <time>2019-09-09T08:37:13Z</time>
      </trkpt>
      <trkpt lat="41.83176" lon="9.21331">
        <ele>1335.07</ele>
        <time>2019-09-09T08:37:27Z</time>
      </trkpt>
      <trkpt lat="41.83183" lon="9.21335">
        <ele>1332.8</ele>
        <time>2019-09-09T08:37:41Z</time>
      </trkpt>
      <trkpt lat="41.8319" lon="9.21337">
        <ele>1330.59</ele>
        <time>2019-09-09T08:37:56Z</time>
      </trkpt>
      <trkpt lat="41.83199" lon="9.21339">
        <ele>1329.8</ele>
        <time>2019-09-09T08:38:12Z</time>
      </trkpt>
      <trkpt lat="41.83207" lon="9.21339">
        <ele>1329.7</ele>
        <time>2019-09-09T08:38:28Z</time>
      </trkpt>
      <trkpt lat="41.83217" lon="9.21337">
        <ele>1329.34</ele>
        <time>2019-09-09T08:38:44Z</time>
      </trkpt>
      <trkpt lat="41.83219" lon="9.21338">
        <ele>1329.38</ele>
        <time>2019-09-09T08:38:46Z</time>
      </trkpt>
      <trkpt lat="41.83233" lon="9.21341">
        <ele>1330.05</ele>
        <time>2019-09-09T08:39:04Z</time>
      </trkpt>
      <trkpt lat="41.83243" lon="9.2135">
        <ele>1331.92</ele>
        <time>2019-09-09T08:39:21Z</time>
      </trkpt>
      <trkpt lat="41.83252" lon="9.21357">
        <ele>1334.97</ele>
        <time>2019-09-09T08:39:39Z</time>
      </trkpt>
      <trkpt lat="41.83261" lon="9.21368">
        <ele>1337.22</ele>
        <time>2019-09-09T08:39:58Z</time>
      </trkpt>
      <trkpt lat="41.83268" lon="9.21381">
        <ele>1338.37</ele>
        <time>2019-09-09T08:40:17Z</time>
      </trkpt>
      <trkpt lat="41.83279" lon="9.21392">
        <ele>1339.35</ele>
        <time>2019-09-09T08:40:36Z</time>
      </trkpt>
      <trkpt lat="41.8329" lon="9.214">
        <ele>1341.08</ele>
        <time>2019-09-09T08:40:55Z</time>
      </trkpt>
      <trkpt lat="41.83301" lon="9.21406">
        <ele>1341.76</ele>
        <time>2019-09-09T08:41:14Z</time>
      </trkpt>
      <trkpt lat="41.83304" lon="9.21412">
        <ele>1342.16</ele>
        <time>2019-09-09T08:41:21Z</time>
      </trkpt>
      <trkpt lat="41.83314" lon="9.21419">
        <ele>1343.88</ele>
        <time>2019-09-09T08:41:38Z</time>
      </trkpt>
      <trkpt lat="41.83328" lon="9.21429">
        <ele>1343.06</ele>
        <time>2019-09-09T08:42:00Z</time>
      </trkpt>
      <trkpt lat="41.83335" lon="9.21433">
        <ele>1343.25</ele>
        <time>2019-09-09T08:42:14Z</time>
      </trkpt>
      <trkpt lat="41.83345" lon="9.21436">
        <ele>1341.32</ele>
        <time>2019-09-09T08:42:28Z</time>
      </trkpt>
      <trkpt lat="41.83348" lon="9.21446">
        <ele>1339.9</ele>
        <time>2019-09-09T08:42:49Z</time>
      </trkpt>
      <trkpt lat="41.83353" lon="9.21452">
        <ele>1339.83</ele>
        <time>2019-09-09T08:43:02Z</time>
      </trkpt>
      <trkpt lat="41.83358" lon="9.21457">
        <ele>1339.91</ele>
        <time>2019-09-09T08:43:12Z</time>
      </trkpt>
      <trkpt lat="41.83369" lon="9.2146">
        <ele>1337.7</ele>
        <time>2019-09-09T08:43:27Z</time>
      </trkpt>
      <trkpt lat="41.83375" lon="9.21462">
        <ele>1338.77</ele>
        <time>2019-09-09T08:43:39Z</time>
      </trkpt>
      <trkpt lat="41.83383" lon="9.21464">
        <ele>1336.94</ele>
        <time>2019-09-09T08:43:54Z</time>
      </trkpt>
      <trkpt lat="41.8339" lon="9.21464">
        <ele>1335.58</ele>
        <time>2019-09-09T08:44:09Z</time>
      </trkpt>
      <trkpt lat="41.83398" lon="9.2146">
        <ele>1337.25</ele>
        <time>2019-09-09T08:44:22Z</time>
      </trkpt>
      <trkpt lat="41.83407" lon="9.21462">
        <ele>1335.99</ele>
        <time>2019-09-09T08:44:38Z</time>
      </trkpt>
      <trkpt lat="41.83417" lon="9.21467">
        <ele>1337.49</ele>
        <time>2019-09-09T08:44:54Z</time>
      </trkpt>
      <trkpt lat="41.83423" lon="9.21462">
        <ele>1338.95</ele>
        <time>2019-09-09T08:45:06Z</time>
      </trkpt>
      <trkpt lat="41.83432" lon="9.21462">
        <ele>1340.86</ele>
        <time>2019-09-09T08:45:20Z</time>
      </trkpt>
      <trkpt lat="41.83435" lon="9.21462">
        <ele>1340.83</ele>
        <time>2019-09-09T08:45:22Z</time>
      </trkpt>
      <trkpt lat="41.83448" lon="9.21456">
        <ele>1339.4</ele>
        <time>2019-09-09T08:45:40Z</time>
      </trkpt>
      <trkpt lat="41.83449" lon="9.21455">
        <ele>1339.28</ele>
        <time>2019-09-09T08:45:41Z</time>
      </trkpt>
      <trkpt lat="41.83459" lon="9.21451">
        <ele>1337.85</ele>
        <time>2019-09-09T08:45:55Z</time>
      </trkpt>
      <trkpt lat="41.83465" lon="9.21448">
        <ele>1336.86</ele>
        <time>2019-09-09T08:46:09Z</time>
      </trkpt>
      <trkpt lat="41.83465" lon="9.21437">
        <ele>1335.21</ele>
        <time>2019-09-09T08:46:28Z</time>
      </trkpt>
      <trkpt lat="41.83462" lon="9.21431">
        <ele>1335.55</ele>
        <time>2019-09-09T08:46:42Z</time>
      </trkpt>
      <trkpt lat="41.83464" lon="9.21424">
        <ele>1333.72</ele>
        <time>2019-09-09T08:46:56Z</time>
      </trkpt>
      <trkpt lat="41.83462" lon="9.21419">
        <ele>1334.94</ele>
        <time>2019-09-09T08:47:11Z</time>
      </trkpt>
      <trkpt lat="41.8346" lon="9.21415">
        <ele>1336.4</ele>
        <time>2019-09-09T08:47:24Z</time>
      </trkpt>
      <trkpt lat="41.83458" lon="9.21413">
        <ele>1337.96</ele>
        <time>2019-09-09T08:47:37Z</time>
      </trkpt>
      <trkpt lat="41.83456" lon="9.21409">
        <ele>1338.66</ele>
        <time>2019-09-09T08:47:52Z</time>
      </trkpt>
      <trkpt lat="41.83457" lon="9.21405">
        <ele>1338.11</ele>
        <time>2019-09-09T08:48:06Z</time>
      </trkpt>
      <trkpt lat="41.83456" lon="9.21405">
        <ele>1337.99</ele>
        <time>2019-09-09T08:48:32Z</time>
      </trkpt>
      <trkpt lat="41.83456" lon="9.21405">
        <ele>1337.05</ele>
        <time>2019-09-09T08:48:49Z</time>
      </trkpt>
      <trkpt lat="41.83457" lon="9.21403">
        <ele>1337.16</ele>
        <time>2019-09-09T08:49:18Z</time>
      </trkpt>
      <trkpt lat="41.8346" lon="9.21401">
        <ele>1338.05</ele>
        <time>2019-09-09T08:49:31Z</time>
      </trkpt>
      <trkpt lat="41.83466" lon="9.21403">
        <ele>1339.52</ele>
        <time>2019-09-09T08:49:45Z</time>
      </trkpt>
      <trkpt lat="41.83472" lon="9.21403">
        <ele>1340.97</ele>
        <time>2019-09-09T08:49:59Z</time>
      </trkpt>
      <trkpt lat="41.83479" lon="9.214">
        <ele>1343.16</ele>
        <time>2019-09-09T08:50:14Z</time>
      </trkpt>
      <trkpt lat="41.83481" lon="9.21395">
        <ele>1344.37</ele>
        <time>2019-09-09T08:50:28Z</time>
      </trkpt>
      <trkpt lat="41.83482" lon="9.21395">
        <ele>1344.71</ele>
        <time>2019-09-09T08:50:30Z</time>
      </trkpt>
      <trkpt lat="41.83484" lon="9.21387">
        <ele>1346.43</ele>
        <time>2019-09-09T08:50:42Z</time>
      </trkpt>
      <trkpt lat="41.83491" lon="9.21381">
        <ele>1348.68</ele>
        <time>2019-09-09T08:50:55Z</time>
      </trkpt>
      <trkpt lat="41.83499" lon="9.21379">
        <ele>1351.37</ele>
        <time>2019-09-09T08:51:10Z</time>
      </trkpt>
      <trkpt lat="41.83504" lon="9.21385">
        <ele>1353.01</ele>
        <time>2019-09-09T08:51:23Z</time>
      </trkpt>
      <trkpt lat="41.83511" lon="9.21387">
        <ele>1355.44</ele>
        <time>2019-09-09T08:51:37Z</time>
      </trkpt>
      <trkpt lat="41.83517" lon="9.21391">
        <ele>1356.99</ele>
        <time>2019-09-09T08:51:51Z</time>
      </trkpt>
      <trkpt lat="41.83525" lon="9.21391">
        <ele>1358.81</ele>
        <time>2019-09-09T08:52:06Z</time>
      </trkpt>
      <trkpt lat="41.83532" lon="9.2139">
        <ele>1362.53</ele>
        <time>2019-09-09T08:52:20Z</time>
      </trkpt>
      <trkpt lat="41.8354" lon="9.21388">
        <ele>1363.83</ele>
        <time>2019-09-09T08:52:35Z</time>
      </trkpt>
      <trkpt lat="41.83548" lon="9.21386">
        <ele>1365.9</ele>
        <time>2019-09-09T08:52:52Z</time>
      </trkpt>
      <trkpt lat="41.83555" lon="9.21381">
        <ele>1368.4</ele>
        <time>2019-09-09T08:53:10Z</time>
      </trkpt>
      <trkpt lat="41.83562" lon="9.2138">
        <ele>1369.45</ele>
        <time>2019-09-09T08:53:26Z</time>
      </trkpt>
      <trkpt lat="41.83569" lon="9.21382">
        <ele>1371.59</ele>
        <time>2019-09-09T08:53:41Z</time>
      </trkpt>
      <trkpt lat="41.8358" lon="9.21382">
        <ele>1375.88</ele>
        <time>2019-09-09T08:54:04Z</time>
      </trkpt>
      <trkpt lat="41.83588" lon="9.2138">
        <ele>1378.46</ele>
        <time>2019-09-09T08:54:24Z</time>
      </trkpt>
      <trkpt lat="41.83597" lon="9.21372">
        <ele>1381.08</ele>
        <time>2019-09-09T08:54:47Z</time>
      </trkpt>
      <trkpt lat="41.83604" lon="9.21371">
        <ele>1382.82</ele>
        <time>2019-09-09T08:55:05Z</time>
      </trkpt>
      <trkpt lat="41.83609" lon="9.21374">
        <ele>1381.62</ele>
        <time>2019-09-09T08:55:23Z</time>
      </trkpt>
      <trkpt lat="41.83617" lon="9.21371">
        <ele>1381.99</ele>
        <time>2019-09-09T08:55:42Z</time>
      </trkpt>
      <trkpt lat="41.83622" lon="9.21365">
        <ele>1382.53</ele>
        <time>2019-09-09T08:55:58Z</time>
      </trkpt>
      <trkpt lat="41.83629" lon="9.21367">
        <ele>1385.19</ele>
        <time>2019-09-09T08:56:18Z</time>
      </trkpt>
      <trkpt lat="41.83638" lon="9.21361">
        <ele>1387.68</ele>
        <time>2019-09-09T08:56:36Z</time>
      </trkpt>
      <trkpt lat="41.83647" lon="9.21356">
        <ele>1390.8</ele>
        <time>2019-09-09T08:56:54Z</time>
      </trkpt>
      <trkpt lat="41.83653" lon="9.21351">
        <ele>1394.2</ele>
        <time>2019-09-09T08:57:13Z</time>
      </trkpt>
      <trkpt lat="41.8366" lon="9.21348">
        <ele>1396.51</ele>
        <time>2019-09-09T08:57:33Z</time>
      </trkpt>
      <trkpt lat="41.83666" lon="9.21342">
        <ele>1397.48</ele>
        <time>2019-09-09T08:57:48Z</time>
      </trkpt>
      <trkpt lat="41.8367" lon="9.21349">
        <ele>1399.27</ele>
        <time>2019-09-09T08:58:03Z</time>
      </trkpt>
      <trkpt lat="41.83675" lon="9.21344">
        <ele>1400.9</ele>
        <time>2019-09-09T08:58:16Z</time>
      </trkpt>
      <trkpt lat="41.83681" lon="9.21337">
        <ele>1404.69</ele>
        <time>2019-09-09T08:58:30Z</time>
      </trkpt>
      <trkpt lat="41.83685" lon="9.21329">
        <ele>1407.1</ele>
        <time>2019-09-09T08:58:47Z</time>
      </trkpt>
      <trkpt lat="41.83691" lon="9.2132">
        <ele>1408.87</ele>
        <time>2019-09-09T08:59:03Z</time>
      </trkpt>
      <trkpt lat="41.83697" lon="9.21313">
        <ele>1411.42</ele>
        <time>2019-09-09T08:59:21Z</time>
      </trkpt>
      <trkpt lat="41.83704" lon="9.21307">
        <ele>1413.28</ele>
        <time>2019-09-09T08:59:36Z</time>
      </trkpt>
      <trkpt lat="41.83707" lon="9.21302">
        <ele>1414.57</ele>
        <time>2019-09-09T08:59:51Z</time>
      </trkpt>
      <trkpt lat="41.83712" lon="9.21302">
        <ele>1416.45</ele>
        <time>2019-09-09T09:00:05Z</time>
      </trkpt>
      <trkpt lat="41.83718" lon="9.21298">
        <ele>1418.41</ele>
        <time>2019-09-09T09:00:19Z</time>
      </trkpt>
      <trkpt lat="41.83724" lon="9.21293">
        <ele>1420.42</ele>
        <time>2019-09-09T09:00:33Z</time>
      </trkpt>
      <trkpt lat="41.83729" lon="9.2129">
        <ele>1421.94</ele>
        <time>2019-09-09T09:00:45Z</time>
      </trkpt>
      <trkpt lat="41.83734" lon="9.21281">
        <ele>1423.63</ele>
        <time>2019-09-09T09:01:00Z</time>
      </trkpt>
      <trkpt lat="41.83739" lon="9.21271">
        <ele>1425.01</ele>
        <time>2019-09-09T09:01:14Z</time>
      </trkpt>
      <trkpt lat="41.83744" lon="9.21264">
        <ele>1426.23</ele>
        <time>2019-09-09T09:01:28Z</time>
      </trkpt>
      <trkpt lat="41.83743" lon="9.21249">
        <ele>1427</ele>
        <time>2019-09-09T09:01:44Z</time>
      </trkpt>
      <trkpt lat="41.83743" lon="9.21232">
        <ele>1427.28</ele>
        <time>2019-09-09T09:01:58Z</time>
      </trkpt>
      <trkpt lat="41.83741" lon="9.2122">
        <ele>1428.74</ele>
        <time>2019-09-09T09:02:13Z</time>
      </trkpt>
      <trkpt lat="41.83743" lon="9.21215">
        <ele>1430.04</ele>
        <time>2019-09-09T09:02:26Z</time>
      </trkpt>
      <trkpt lat="41.83745" lon="9.21213">
        <ele>1431.29</ele>
        <time>2019-09-09T09:02:39Z</time>
      </trkpt>
      <trkpt lat="41.83746" lon="9.21211">
        <ele>1432.83</ele>
        <time>2019-09-09T09:02:52Z</time>
      </trkpt>
      <trkpt lat="41.83746" lon="9.21205">
        <ele>1434.83</ele>
        <time>2019-09-09T09:03:06Z</time>
      </trkpt>
      <trkpt lat="41.83745" lon="9.212">
        <ele>1435.94</ele>
        <time>2019-09-09T09:03:19Z</time>
      </trkpt>
      <trkpt lat="41.83747" lon="9.21195">
        <ele>1437.91</ele>
        <time>2019-09-09T09:03:33Z</time>
      </trkpt>
      <trkpt lat="41.8375" lon="9.21193">
        <ele>1439.46</ele>
        <time>2019-09-09T09:03:44Z</time>
      </trkpt>
      <trkpt lat="41.83753" lon="9.21187">
        <ele>1441.3</ele>
        <time>2019-09-09T09:03:58Z</time>
      </trkpt>
      <trkpt lat="41.83757" lon="9.21181">
        <ele>1442.83</ele>
        <time>2019-09-09T09:04:12Z</time>
      </trkpt>
      <trkpt lat="41.83763" lon="9.21178">
        <ele>1443.79</ele>
        <time>2019-09-09T09:04:25Z</time>
      </trkpt>
      <trkpt lat="41.83766" lon="9.21182">
        <ele>1445.66</ele>
        <time>2019-09-09T09:04:38Z</time>
      </trkpt>
      <trkpt lat="41.83772" lon="9.2118">
        <ele>1447.17</ele>
        <time>2019-09-09T09:04:51Z</time>
      </trkpt>
      <trkpt lat="41.83777" lon="9.21184">
        <ele>1448.5</ele>
        <time>2019-09-09T09:05:04Z</time>
      </trkpt>
      <trkpt lat="41.83782" lon="9.21184">
        <ele>1450.42</ele>
        <time>2019-09-09T09:05:15Z</time>
      </trkpt>
      <trkpt lat="41.83792" lon="9.21195">
        <ele>1452.19</ele>
        <time>2019-09-09T09:05:33Z</time>
      </trkpt>
      <trkpt lat="41.83798" lon="9.21199">
        <ele>1454.53</ele>
        <time>2019-09-09T09:05:49Z</time>
      </trkpt>
      <trkpt lat="41.83801" lon="9.21196">
        <ele>1456.14</ele>
        <time>2019-09-09T09:06:02Z</time>
      </trkpt>
      <trkpt lat="41.83804" lon="9.21189">
        <ele>1457.48</ele>
        <time>2019-09-09T09:06:15Z</time>
      </trkpt>
      <trkpt lat="41.83808" lon="9.21183">
        <ele>1459.29</ele>
        <time>2019-09-09T09:06:31Z</time>
      </trkpt>
      <trkpt lat="41.83812" lon="9.21181">
        <ele>1460.72</ele>
        <time>2019-09-09T09:06:44Z</time>
      </trkpt>
      <trkpt lat="41.83818" lon="9.21176">
        <ele>1462.88</ele>
        <time>2019-09-09T09:07:01Z</time>
      </trkpt>
      <trkpt lat="41.83823" lon="9.21175">
        <ele>1464.58</ele>
        <time>2019-09-09T09:07:13Z</time>
      </trkpt>
      <trkpt lat="41.83828" lon="9.21177">
        <ele>1466.51</ele>
        <time>2019-09-09T09:07:27Z</time>
      </trkpt>
      <trkpt lat="41.83833" lon="9.21177">
        <ele>1468.37</ele>
        <time>2019-09-09T09:07:41Z</time>
      </trkpt>
      <trkpt lat="41.83838" lon="9.21176">
        <ele>1470.73</ele>
        <time>2019-09-09T09:07:55Z</time>
      </trkpt>
      <trkpt lat="41.83844" lon="9.21178">
        <ele>1472.81</ele>
        <time>2019-09-09T09:08:09Z</time>
      </trkpt>
      <trkpt lat="41.83849" lon="9.21179">
        <ele>1474.71</ele>
        <time>2019-09-09T09:08:23Z</time>
      </trkpt>
      <trkpt lat="41.83856" lon="9.21184">
        <ele>1475.78</ele>
        <time>2019-09-09T09:08:39Z</time>
      </trkpt>
      <trkpt lat="41.83856" lon="9.21179">
        <ele>1477.43</ele>
        <time>2019-09-09T09:08:52Z</time>
      </trkpt>
      <trkpt lat="41.83862" lon="9.21175">
        <ele>1478.9</ele>
        <time>2019-09-09T09:09:06Z</time>
      </trkpt>
      <trkpt lat="41.83869" lon="9.21178">
        <ele>1480.63</ele>
        <time>2019-09-09T09:09:19Z</time>
      </trkpt>
      <trkpt lat="41.83873" lon="9.21177">
        <ele>1482.2</ele>
        <time>2019-09-09T09:09:31Z</time>
      </trkpt>
      <trkpt lat="41.83876" lon="9.21177">
        <ele>1483.71</ele>
        <time>2019-09-09T09:09:44Z</time>
      </trkpt>
      <trkpt lat="41.83879" lon="9.21176">
        <ele>1485.69</ele>
        <time>2019-09-09T09:09:58Z</time>
      </trkpt>
      <trkpt lat="41.83883" lon="9.21177">
        <ele>1486.99</ele>
        <time>2019-09-09T09:10:12Z</time>
      </trkpt>
      <trkpt lat="41.83888" lon="9.21183">
        <ele>1488.36</ele>
        <time>2019-09-09T09:10:27Z</time>
      </trkpt>
      <trkpt lat="41.83893" lon="9.21183">
        <ele>1490.14</ele>
        <time>2019-09-09T09:10:41Z</time>
      </trkpt>
      <trkpt lat="41.83898" lon="9.21184">
        <ele>1492.42</ele>
        <time>2019-09-09T09:10:55Z</time>
      </trkpt>
      <trkpt lat="41.83902" lon="9.21181">
        <ele>1494.68</ele>
        <time>2019-09-09T09:11:10Z</time>
      </trkpt>
      <trkpt lat="41.83906" lon="9.21179">
        <ele>1496.16</ele>
        <time>2019-09-09T09:11:24Z</time>
      </trkpt>
      <trkpt lat="41.83909" lon="9.21173">
        <ele>1497.08</ele>
        <time>2019-09-09T09:11:40Z</time>
      </trkpt>
      <trkpt lat="41.83912" lon="9.21176">
        <ele>1498.23</ele>
        <time>2019-09-09T09:11:53Z</time>
      </trkpt>
      <trkpt lat="41.83915" lon="9.21172">
        <ele>1499.54</ele>
        <time>2019-09-09T09:12:06Z</time>
      </trkpt>
      <trkpt lat="41.8392" lon="9.21172">
        <ele>1501.42</ele>
        <time>2019-09-09T09:12:21Z</time>
      </trkpt>
      <trkpt lat="41.83925" lon="9.2117">
        <ele>1503.38</ele>
        <time>2019-09-09T09:12:36Z</time>
      </trkpt>
      <trkpt lat="41.8393" lon="9.2117">
        <ele>1505.03</ele>
        <time>2019-09-09T09:12:51Z</time>
      </trkpt>
      <trkpt lat="41.83935" lon="9.21173">
        <ele>1506.44</ele>
        <time>2019-09-09T09:13:05Z</time>
      </trkpt>
      <trkpt lat="41.83942" lon="9.21171">
        <ele>1508.44</ele>
        <time>2019-09-09T09:13:20Z</time>
      </trkpt>
      <trkpt lat="41.83947" lon="9.21174">
        <ele>1510.16</ele>
        <time>2019-09-09T09:13:34Z</time>
      </trkpt>
      <trkpt lat="41.83952" lon="9.21173">
        <ele>1511.47</ele>
        <time>2019-09-09T09:13:46Z</time>
      </trkpt>
      <trkpt lat="41.83959" lon="9.21174">
        <ele>1513.61</ele>
        <time>2019-09-09T09:14:01Z</time>
      </trkpt>
      <trkpt lat="41.83965" lon="9.21173">
        <ele>1515.12</ele>
        <time>2019-09-09T09:14:13Z</time>
      </trkpt>
      <trkpt lat="41.83968" lon="9.21169">
        <ele>1516.82</ele>
        <time>2019-09-09T09:14:28Z</time>
      </trkpt>
      <trkpt lat="41.83973" lon="9.21169">
        <ele>1518.13</ele>
        <time>2019-09-09T09:14:41Z</time>
      </trkpt>
      <trkpt lat="41.8398" lon="9.21173">
        <ele>1520.11</ele>
        <time>2019-09-09T09:14:55Z</time>
      </trkpt>
      <trkpt lat="41.83987" lon="9.21177">
        <ele>1521.98</ele>
        <time>2019-09-09T09:15:09Z</time>
      </trkpt>
      <trkpt lat="41.83993" lon="9.21184">
        <ele>1523.28</ele>
        <time>2019-09-09T09:15:23Z</time>
      </trkpt>
      <trkpt lat="41.83997" lon="9.21194">
        <ele>1523.45</ele>
        <time>2019-09-09T09:15:38Z</time>
      </trkpt>
      <trkpt lat="41.84001" lon="9.21205">
        <ele>1523.68</ele>
        <time>2019-09-09T09:15:52Z</time>
      </trkpt>
      <trkpt lat="41.84005" lon="9.21209">
        <ele>1524.15</ele>
        <time>2019-09-09T09:16:10Z</time>
      </trkpt>
      <trkpt lat="41.84004" lon="9.21208">
        <ele>1524.49</ele>
        <time>2019-09-09T09:16:42Z</time>
      </trkpt>
      <trkpt lat="41.84004" lon="9.21209">
        <ele>1524.09</ele>
        <time>2019-09-09T09:17:04Z</time>
      </trkpt>
      <trkpt lat="41.84004" lon="9.21209">
        <ele>1523.95</ele>
        <time>2019-09-09T09:17:28Z</time>
      </trkpt>
      <trkpt lat="41.84005" lon="9.2121">
        <ele>1523.88</ele>
        <time>2019-09-09T09:18:05Z</time>
      </trkpt>
      <trkpt lat="41.8401" lon="9.21214">
        <ele>1524.43</ele>
        <time>2019-09-09T09:18:22Z</time>
      </trkpt>
      <trkpt lat="41.84023" lon="9.21226">
        <ele>1523.43</ele>
        <time>2019-09-09T09:18:42Z</time>
      </trkpt>
      <trkpt lat="41.84032" lon="9.21231">
        <ele>1523.03</ele>
        <time>2019-09-09T09:18:59Z</time>
      </trkpt>
      <trkpt lat="41.84034" lon="9.21238">
        <ele>1523.3</ele>
        <time>2019-09-09T09:19:16Z</time>
      </trkpt>
      <trkpt lat="41.84034" lon="9.21248">
        <ele>1524.71</ele>
        <time>2019-09-09T09:19:32Z</time>
      </trkpt>
      <trkpt lat="41.84033" lon="9.21255">
        <ele>1524.77</ele>
        <time>2019-09-09T09:19:47Z</time>
      </trkpt>
      <trkpt lat="41.84033" lon="9.21265">
        <ele>1526.83</ele>
        <time>2019-09-09T09:20:00Z</time>
      </trkpt>
      <trkpt lat="41.8404" lon="9.21274">
        <ele>1528.24</ele>
        <time>2019-09-09T09:20:15Z</time>
      </trkpt>
      <trkpt lat="41.84051" lon="9.21287">
        <ele>1529.23</ele>
        <time>2019-09-09T09:20:31Z</time>
      </trkpt>
      <trkpt lat="41.84058" lon="9.2129">
        <ele>1528.62</ele>
        <time>2019-09-09T09:20:45Z</time>
      </trkpt>
      <trkpt lat="41.84064" lon="9.21291">
        <ele>1526.72</ele>
        <time>2019-09-09T09:21:00Z</time>
      </trkpt>
      <trkpt lat="41.8407" lon="9.2129">
        <ele>1525.35</ele>
        <time>2019-09-09T09:21:14Z</time>
      </trkpt>
      <trkpt lat="41.84081" lon="9.21293">
        <ele>1524.86</ele>
        <time>2019-09-09T09:21:28Z</time>
      </trkpt>
      <trkpt lat="41.84088" lon="9.21296">
        <ele>1524.55</ele>
        <time>2019-09-09T09:21:42Z</time>
      </trkpt>
      <trkpt lat="41.84092" lon="9.21294">
        <ele>1525.8</ele>
        <time>2019-09-09T09:21:54Z</time>
      </trkpt>
      <trkpt lat="41.84095" lon="9.21289">
        <ele>1527.21</ele>
        <time>2019-09-09T09:22:08Z</time>
      </trkpt>
      <trkpt lat="41.84095" lon="9.21287">
        <ele>1527.61</ele>
        <time>2019-09-09T09:22:20Z</time>
      </trkpt>
      <trkpt lat="41.84097" lon="9.21291">
        <ele>1527.38</ele>
        <time>2019-09-09T09:22:36Z</time>
      </trkpt>
      <trkpt lat="41.84101" lon="9.21294">
        <ele>1528.03</ele>
        <time>2019-09-09T09:22:50Z</time>
      </trkpt>
      <trkpt lat="41.84106" lon="9.21298">
        <ele>1528.93</ele>
        <time>2019-09-09T09:23:03Z</time>
      </trkpt>
      <trkpt lat="41.84109" lon="9.21304">
        <ele>1530.34</ele>
        <time>2019-09-09T09:23:19Z</time>
      </trkpt>
      <trkpt lat="41.84113" lon="9.2131">
        <ele>1531.17</ele>
        <time>2019-09-09T09:23:36Z</time>
      </trkpt>
      <trkpt lat="41.84115" lon="9.21315">
        <ele>1531.16</ele>
        <time>2019-09-09T09:23:48Z</time>
      </trkpt>
      <trkpt lat="41.84115" lon="9.21321">
        <ele>1530.26</ele>
        <time>2019-09-09T09:24:00Z</time>
      </trkpt>
      <trkpt lat="41.84122" lon="9.21331">
        <ele>1529.47</ele>
        <time>2019-09-09T09:24:15Z</time>
      </trkpt>
      <trkpt lat="41.84131" lon="9.21339">
        <ele>1529.53</ele>
        <time>2019-09-09T09:24:29Z</time>
      </trkpt>
      <trkpt lat="41.84137" lon="9.21343">
        <ele>1529.61</ele>
        <time>2019-09-09T09:24:43Z</time>
      </trkpt>
      <trkpt lat="41.8414" lon="9.21351">
        <ele>1529.67</ele>
        <time>2019-09-09T09:24:54Z</time>
      </trkpt>
      <trkpt lat="41.84141" lon="9.21362">
        <ele>1530.58</ele>
        <time>2019-09-09T09:25:09Z</time>
      </trkpt>
      <trkpt lat="41.84142" lon="9.2137">
        <ele>1531.3</ele>
        <time>2019-09-09T09:25:22Z</time>
      </trkpt>
      <trkpt lat="41.84143" lon="9.21376">
        <ele>1532.57</ele>
        <time>2019-09-09T09:25:35Z</time>
      </trkpt>
      <trkpt lat="41.84145" lon="9.21386">
        <ele>1533.42</ele>
        <time>2019-09-09T09:25:48Z</time>
      </trkpt>
      <trkpt lat="41.84146" lon="9.21393">
        <ele>1533.43</ele>
        <time>2019-09-09T09:26:03Z</time>
      </trkpt>
      <trkpt lat="41.84148" lon="9.214">
        <ele>1534.79</ele>
        <time>2019-09-09T09:26:16Z</time>
      </trkpt>
      <trkpt lat="41.84149" lon="9.21407">
        <ele>1536.56</ele>
        <time>2019-09-09T09:26:32Z</time>
      </trkpt>
      <trkpt lat="41.84148" lon="9.21417">
        <ele>1536.81</ele>
        <time>2019-09-09T09:26:45Z</time>
      </trkpt>
      <trkpt lat="41.84144" lon="9.21429">
        <ele>1538.79</ele>
        <time>2019-09-09T09:27:01Z</time>
      </trkpt>
      <trkpt lat="41.84143" lon="9.21439">
        <ele>1538.89</ele>
        <time>2019-09-09T09:27:16Z</time>
      </trkpt>
      <trkpt lat="41.84143" lon="9.21445">
        <ele>1536.93</ele>
        <time>2019-09-09T09:27:29Z</time>
      </trkpt>
      <trkpt lat="41.84143" lon="9.2145">
        <ele>1537.65</ele>
        <time>2019-09-09T09:27:44Z</time>
      </trkpt>
      <trkpt lat="41.84144" lon="9.2145">
        <ele>1536.82</ele>
        <time>2019-09-09T09:28:05Z</time>
      </trkpt>
      <trkpt lat="41.84144" lon="9.21449">
        <ele>1536.86</ele>
        <time>2019-09-09T09:28:38Z</time>
      </trkpt>
      <trkpt lat="41.84146" lon="9.21449">
        <ele>1536.36</ele>
        <time>2019-09-09T09:29:07Z</time>
      </trkpt>
      <trkpt lat="41.84145" lon="9.21449">
        <ele>1536.48</ele>
        <time>2019-09-09T09:29:50Z</time>
      </trkpt>
      <trkpt lat="41.84145" lon="9.21451">
        <ele>1536.08</ele>
        <time>2019-09-09T09:30:45Z</time>
      </trkpt>
      <trkpt lat="41.84145" lon="9.2145">
        <ele>1535.64</ele>
        <time>2019-09-09T09:31:36Z</time>
      </trkpt>
      <trkpt lat="41.84145" lon="9.21449">
        <ele>1534.36</ele>
        <time>2019-09-09T09:32:36Z</time>
      </trkpt>
      <trkpt lat="41.84144" lon="9.21449">
        <ele>1534.92</ele>
        <time>2019-09-09T09:33:22Z</time>
      </trkpt>
      <trkpt lat="41.84143" lon="9.2145">
        <ele>1535.35</ele>
        <time>2019-09-09T09:34:19Z</time>
      </trkpt>
      <trkpt lat="41.84142" lon="9.2145">
        <ele>1535.6</ele>
        <time>2019-09-09T09:34:55Z</time>
      </trkpt>
      <trkpt lat="41.84143" lon="9.21451">
        <ele>1535.87</ele>
        <time>2019-09-09T09:35:40Z</time>
      </trkpt>
      <trkpt lat="41.84144" lon="9.21451">
        <ele>1536.44</ele>
        <time>2019-09-09T09:36:28Z</time>
      </trkpt>
      <trkpt lat="41.84145" lon="9.2145">
        <ele>1536.17</ele>
        <time>2019-09-09T09:37:11Z</time>
      </trkpt>
      <trkpt lat="41.84145" lon="9.21451">
        <ele>1536.19</ele>
        <time>2019-09-09T09:37:26Z</time>
      </trkpt>
      <trkpt lat="41.84145" lon="9.21451">
        <ele>1536.1</ele>
        <time>2019-09-09T09:37:59Z</time>
      </trkpt>
      <trkpt lat="41.84146" lon="9.2145">
        <ele>1536.06</ele>
        <time>2019-09-09T09:38:29Z</time>
      </trkpt>
      <trkpt lat="41.84145" lon="9.2145">
        <ele>1535.73</ele>
        <time>2019-09-09T09:39:08Z</time>
      </trkpt>
      <trkpt lat="41.84145" lon="9.21451">
        <ele>1537.52</ele>
        <time>2019-09-09T09:39:26Z</time>
      </trkpt>
      <trkpt lat="41.84145" lon="9.21451">
        <ele>1537.17</ele>
        <time>2019-09-09T09:39:44Z</time>
      </trkpt>
      <trkpt lat="41.84144" lon="9.21452">
        <ele>1537.36</ele>
        <time>2019-09-09T09:40:08Z</time>
      </trkpt>
      <trkpt lat="41.84144" lon="9.21453">
        <ele>1537.48</ele>
        <time>2019-09-09T09:40:27Z</time>
      </trkpt>
      <trkpt lat="41.84147" lon="9.2145">
        <ele>1538.67</ele>
        <time>2019-09-09T09:40:41Z</time>
      </trkpt>
      <trkpt lat="41.84148" lon="9.21448">
        <ele>1538.93</ele>
        <time>2019-09-09T09:40:58Z</time>
      </trkpt>
      <trkpt lat="41.84151" lon="9.21446">
        <ele>1539.51</ele>
        <time>2019-09-09T09:41:13Z</time>
      </trkpt>
      <trkpt lat="41.84156" lon="9.21437">
        <ele>1540.8</ele>
        <time>2019-09-09T09:41:27Z</time>
      </trkpt>
      <trkpt lat="41.8416" lon="9.2143">
        <ele>1542.02</ele>
        <time>2019-09-09T09:41:42Z</time>
      </trkpt>
      <trkpt lat="41.84163" lon="9.21423">
        <ele>1543.46</ele>
        <time>2019-09-09T09:41:57Z</time>
      </trkpt>
      <trkpt lat="41.84166" lon="9.21413">
        <ele>1544.07</ele>
        <time>2019-09-09T09:42:11Z</time>
      </trkpt>
      <trkpt lat="41.84171" lon="9.21406">
        <ele>1545.8</ele>
        <time>2019-09-09T09:42:26Z</time>
      </trkpt>
      <trkpt lat="41.84176" lon="9.21398">
        <ele>1547.65</ele>
        <time>2019-09-09T09:42:41Z</time>
      </trkpt>
      <trkpt lat="41.84178" lon="9.21392">
        <ele>1549.18</ele>
        <time>2019-09-09T09:42:55Z</time>
      </trkpt>
      <trkpt lat="41.84181" lon="9.21382">
        <ele>1550.4</ele>
        <time>2019-09-09T09:43:09Z</time>
      </trkpt>
      <trkpt lat="41.84183" lon="9.21374">
        <ele>1551.63</ele>
        <time>2019-09-09T09:43:22Z</time>
      </trkpt>
      <trkpt lat="41.84185" lon="9.2137">
        <ele>1552.59</ele>
        <time>2019-09-09T09:43:34Z</time>
      </trkpt>
      <trkpt lat="41.84188" lon="9.21365">
        <ele>1554.16</ele>
        <time>2019-09-09T09:43:50Z</time>
      </trkpt>
      <trkpt lat="41.84191" lon="9.21359">
        <ele>1555.76</ele>
        <time>2019-09-09T09:44:05Z</time>
      </trkpt>
      <trkpt lat="41.84192" lon="9.21353">
        <ele>1556.68</ele>
        <time>2019-09-09T09:44:14Z</time>
      </trkpt>
      <trkpt lat="41.84194" lon="9.21341">
        <ele>1557.2</ele>
        <time>2019-09-09T09:44:29Z</time>
      </trkpt>
      <trkpt lat="41.84194" lon="9.2133">
        <ele>1556.37</ele>
        <time>2019-09-09T09:44:42Z</time>
      </trkpt>
      <trkpt lat="41.84193" lon="9.21321">
        <ele>1556.34</ele>
        <time>2019-09-09T09:44:55Z</time>
      </trkpt>
      <trkpt lat="41.84194" lon="9.21313">
        <ele>1556.48</ele>
        <time>2019-09-09T09:45:09Z</time>
      </trkpt>
      <trkpt lat="41.84192" lon="9.21303">
        <ele>1556.45</ele>
        <time>2019-09-09T09:45:26Z</time>
      </trkpt>
      <trkpt lat="41.84193" lon="9.2129">
        <ele>1557.05</ele>
        <time>2019-09-09T09:45:40Z</time>
      </trkpt>
      <trkpt lat="41.84193" lon="9.21281">
        <ele>1557.6</ele>
        <time>2019-09-09T09:45:55Z</time>
      </trkpt>
      <trkpt lat="41.84195" lon="9.21278">
        <ele>1559.59</ele>
        <time>2019-09-09T09:46:09Z</time>
      </trkpt>
      <trkpt lat="41.84195" lon="9.21272">
        <ele>1561.42</ele>
        <time>2019-09-09T09:46:21Z</time>
      </trkpt>
      <trkpt lat="41.84194" lon="9.21262">
        <ele>1562.39</ele>
        <time>2019-09-09T09:46:37Z</time>
      </trkpt>
      <trkpt lat="41.84195" lon="9.21252">
        <ele>1563.35</ele>
        <time>2019-09-09T09:46:51Z</time>
      </trkpt>
      <trkpt lat="41.84195" lon="9.21246">
        <ele>1565.43</ele>
        <time>2019-09-09T09:47:03Z</time>
      </trkpt>
      <trkpt lat="41.84192" lon="9.21239">
        <ele>1566.41</ele>
        <time>2019-09-09T09:47:16Z</time>
      </trkpt>
      <trkpt lat="41.84189" lon="9.21233">
        <ele>1568.45</ele>
        <time>2019-09-09T09:47:28Z</time>
      </trkpt>
      <trkpt lat="41.84184" lon="9.21223">
        <ele>1570.02</ele>
        <time>2019-09-09T09:47:42Z</time>
      </trkpt>
      <trkpt lat="41.84176" lon="9.21209">
        <ele>1571.97</ele>
        <time>2019-09-09T09:47:59Z</time>
      </trkpt>
      <trkpt lat="41.84175" lon="9.21202">
        <ele>1573.33</ele>
        <time>2019-09-09T09:48:11Z</time>
      </trkpt>
      <trkpt lat="41.84175" lon="9.21193">
        <ele>1574.72</ele>
        <time>2019-09-09T09:48:25Z</time>
      </trkpt>
      <trkpt lat="41.84175" lon="9.21188">
        <ele>1576.46</ele>
        <time>2019-09-09T09:48:38Z</time>
      </trkpt>
      <trkpt lat="41.84175" lon="9.21182">
        <ele>1577.53</ele>
        <time>2019-09-09T09:48:49Z</time>
      </trkpt>
      <trkpt lat="41.84176" lon="9.21175">
        <ele>1579.19</ele>
        <time>2019-09-09T09:49:03Z</time>
      </trkpt>
      <trkpt lat="41.84177" lon="9.21169">
        <ele>1580.56</ele>
        <time>2019-09-09T09:49:15Z</time>
      </trkpt>
      <trkpt lat="41.8418" lon="9.21167">
        <ele>1582.07</ele>
        <time>2019-09-09T09:49:29Z</time>
      </trkpt>
      <trkpt lat="41.84181" lon="9.21154">
        <ele>1582.79</ele>
        <time>2019-09-09T09:49:44Z</time>
      </trkpt>
      <trkpt lat="41.84183" lon="9.21145">
        <ele>1584.14</ele>
        <time>2019-09-09T09:49:59Z</time>
      </trkpt>
      <trkpt lat="41.84187" lon="9.2114">
        <ele>1586.92</ele>
        <time>2019-09-09T09:50:15Z</time>
      </trkpt>
      <trkpt lat="41.84189" lon="9.21138">
        <ele>1588.89</ele>
        <time>2019-09-09T09:50:28Z</time>
      </trkpt>
      <trkpt lat="41.84191" lon="9.21135">
        <ele>1590.32</ele>
        <time>2019-09-09T09:50:41Z</time>
      </trkpt>
      <trkpt lat="41.84194" lon="9.21132">
        <ele>1592</ele>
        <time>2019-09-09T09:50:54Z</time>
      </trkpt>
      <trkpt lat="41.84196" lon="9.21134">
        <ele>1594.04</ele>
        <time>2019-09-09T09:51:07Z</time>
      </trkpt>
      <trkpt lat="41.84198" lon="9.21138">
        <ele>1595.86</ele>
        <time>2019-09-09T09:51:22Z</time>
      </trkpt>
      <trkpt lat="41.84201" lon="9.21137">
        <ele>1597.37</ele>
        <time>2019-09-09T09:51:37Z</time>
      </trkpt>
      <trkpt lat="41.84204" lon="9.2113">
        <ele>1599.4</ele>
        <time>2019-09-09T09:51:51Z</time>
      </trkpt>
      <trkpt lat="41.84207" lon="9.21132">
        <ele>1601.12</ele>
        <time>2019-09-09T09:52:05Z</time>
      </trkpt>
      <trkpt lat="41.8421" lon="9.21127">
        <ele>1602.91</ele>
        <time>2019-09-09T09:52:20Z</time>
      </trkpt>
      <trkpt lat="41.84214" lon="9.21128">
        <ele>1604.94</ele>
        <time>2019-09-09T09:52:35Z</time>
      </trkpt>
      <trkpt lat="41.84215" lon="9.21123">
        <ele>1606.34</ele>
        <time>2019-09-09T09:52:48Z</time>
      </trkpt>
      <trkpt lat="41.84218" lon="9.2112">
        <ele>1608.05</ele>
        <time>2019-09-09T09:53:00Z</time>
      </trkpt>
      <trkpt lat="41.84219" lon="9.21124">
        <ele>1609.47</ele>
        <time>2019-09-09T09:53:14Z</time>
      </trkpt>
      <trkpt lat="41.84222" lon="9.21124">
        <ele>1610.83</ele>
        <time>2019-09-09T09:53:26Z</time>
      </trkpt>
      <trkpt lat="41.84224" lon="9.21128">
        <ele>1612.64</ele>
        <time>2019-09-09T09:53:41Z</time>
      </trkpt>
      <trkpt lat="41.84227" lon="9.21127">
        <ele>1614.21</ele>
        <time>2019-09-09T09:53:53Z</time>
      </trkpt>
      <trkpt lat="41.84229" lon="9.21125">
        <ele>1615.81</ele>
        <time>2019-09-09T09:54:06Z</time>
      </trkpt>
      <trkpt lat="41.84233" lon="9.21123">
        <ele>1617.79</ele>
        <time>2019-09-09T09:54:19Z</time>
      </trkpt>
      <trkpt lat="41.84235" lon="9.21122">
        <ele>1618.92</ele>
        <time>2019-09-09T09:54:30Z</time>
      </trkpt>
      <trkpt lat="41.84236" lon="9.21124">
        <ele>1619.41</ele>
        <time>2019-09-09T09:54:40Z</time>
      </trkpt>
      <trkpt lat="41.84239" lon="9.21124">
        <ele>1620.95</ele>
        <time>2019-09-09T09:54:55Z</time>
      </trkpt>
      <trkpt lat="41.84243" lon="9.21125">
        <ele>1623.01</ele>
        <time>2019-09-09T09:55:08Z</time>
      </trkpt>
      <trkpt lat="41.84245" lon="9.21129">
        <ele>1624.74</ele>
        <time>2019-09-09T09:55:20Z</time>
      </trkpt>
      <trkpt lat="41.84248" lon="9.2113">
        <ele>1626.62</ele>
        <time>2019-09-09T09:55:34Z</time>
      </trkpt>
      <trkpt lat="41.84251" lon="9.21132">
        <ele>1627.68</ele>
        <time>2019-09-09T09:55:48Z</time>
      </trkpt>
      <trkpt lat="41.84254" lon="9.21131">
        <ele>1629.88</ele>
        <time>2019-09-09T09:56:02Z</time>
      </trkpt>
      <trkpt lat="41.84258" lon="9.21129">
        <ele>1631.93</ele>
        <time>2019-09-09T09:56:16Z</time>
      </trkpt>
      <trkpt lat="41.84261" lon="9.21125">
        <ele>1633.86</ele>
        <time>2019-09-09T09:56:28Z</time>
      </trkpt>
      <trkpt lat="41.84261" lon="9.21124">
        <ele>1634.04</ele>
        <time>2019-09-09T09:56:48Z</time>
      </trkpt>
      <trkpt lat="41.84261" lon="9.21121">
        <ele>1634.14</ele>
        <time>2019-09-09T09:57:33Z</time>
      </trkpt>
      <trkpt lat="41.84261" lon="9.21121">
        <ele>1634.7</ele>
        <time>2019-09-09T09:57:58Z</time>
      </trkpt>
      <trkpt lat="41.84262" lon="9.21118">
        <ele>1635.98</ele>
        <time>2019-09-09T09:58:27Z</time>
      </trkpt>
      <trkpt lat="41.84266" lon="9.21115">
        <ele>1637.66</ele>
        <time>2019-09-09T09:58:40Z</time>
      </trkpt>
      <trkpt lat="41.84268" lon="9.21115">
        <ele>1639.65</ele>
        <time>2019-09-09T09:58:55Z</time>
      </trkpt>
      <trkpt lat="41.84271" lon="9.21114">
        <ele>1641.16</ele>
        <time>2019-09-09T09:59:09Z</time>
      </trkpt>
      <trkpt lat="41.84274" lon="9.21114">
        <ele>1643.54</ele>
        <time>2019-09-09T09:59:22Z</time>
      </trkpt>
      <trkpt lat="41.84277" lon="9.21116">
        <ele>1645.03</ele>
        <time>2019-09-09T09:59:33Z</time>
      </trkpt>
      <trkpt lat="41.8428" lon="9.21117">
        <ele>1647.08</ele>
        <time>2019-09-09T09:59:46Z</time>
      </trkpt>
      <trkpt lat="41.84283" lon="9.21118">
        <ele>1649.04</ele>
        <time>2019-09-09T09:59:59Z</time>
      </trkpt>
      <trkpt lat="41.84284" lon="9.21112">
        <ele>1649.99</ele>
        <time>2019-09-09T10:00:11Z</time>
      </trkpt>
      <trkpt lat="41.84286" lon="9.21109">
        <ele>1651.46</ele>
        <time>2019-09-09T10:00:24Z</time>
      </trkpt>
      <trkpt lat="41.84288" lon="9.21101">
        <ele>1653.42</ele>
        <time>2019-09-09T10:00:38Z</time>
      </trkpt>
      <trkpt lat="41.84291" lon="9.21102">
        <ele>1655.51</ele>
        <time>2019-09-09T10:00:52Z</time>
      </trkpt>
      <trkpt lat="41.84293" lon="9.211">
        <ele>1657.2</ele>
        <time>2019-09-09T10:01:05Z</time>
      </trkpt>
      <trkpt lat="41.84295" lon="9.211">
        <ele>1658.96</ele>
        <time>2019-09-09T10:01:17Z</time>
      </trkpt>
      <trkpt lat="41.84298" lon="9.211">
        <ele>1660.44</ele>
        <time>2019-09-09T10:01:29Z</time>
      </trkpt>
      <trkpt lat="41.84298" lon="9.21094">
        <ele>1661.99</ele>
        <time>2019-09-09T10:01:43Z</time>
      </trkpt>
      <trkpt lat="41.843" lon="9.21094">
        <ele>1663.62</ele>
        <time>2019-09-09T10:01:55Z</time>
      </trkpt>
      <trkpt lat="41.84303" lon="9.21095">
        <ele>1664.99</ele>
        <time>2019-09-09T10:02:09Z</time>
      </trkpt>
      <trkpt lat="41.84306" lon="9.21091">
        <ele>1667.28</ele>
        <time>2019-09-09T10:02:25Z</time>
      </trkpt>
      <trkpt lat="41.84309" lon="9.21089">
        <ele>1669.12</ele>
        <time>2019-09-09T10:02:39Z</time>
      </trkpt>
      <trkpt lat="41.84311" lon="9.21084">
        <ele>1670.99</ele>
        <time>2019-09-09T10:02:54Z</time>
      </trkpt>
      <trkpt lat="41.84314" lon="9.21089">
        <ele>1672.75</ele>
        <time>2019-09-09T10:03:09Z</time>
      </trkpt>
      <trkpt lat="41.84316" lon="9.21093">
        <ele>1674.12</ele>
        <time>2019-09-09T10:03:23Z</time>
      </trkpt>
      <trkpt lat="41.84319" lon="9.21092">
        <ele>1675.52</ele>
        <time>2019-09-09T10:03:35Z</time>
      </trkpt>
      <trkpt lat="41.84322" lon="9.21088">
        <ele>1677.67</ele>
        <time>2019-09-09T10:03:49Z</time>
      </trkpt>
      <trkpt lat="41.84325" lon="9.21092">
        <ele>1679.08</ele>
        <time>2019-09-09T10:04:01Z</time>
      </trkpt>
      <trkpt lat="41.84328" lon="9.21095">
        <ele>1680.65</ele>
        <time>2019-09-09T10:04:16Z</time>
      </trkpt>
      <trkpt lat="41.84332" lon="9.21098">
        <ele>1682.41</ele>
        <time>2019-09-09T10:04:30Z</time>
      </trkpt>
      <trkpt lat="41.84335" lon="9.21095">
        <ele>1684.24</ele>
        <time>2019-09-09T10:04:44Z</time>
      </trkpt>
      <trkpt lat="41.84338" lon="9.21092">
        <ele>1685.51</ele>
        <time>2019-09-09T10:04:55Z</time>
      </trkpt>
      <trkpt lat="41.8434" lon="9.21094">
        <ele>1686.77</ele>
        <time>2019-09-09T10:05:07Z</time>
      </trkpt>
      <trkpt lat="41.84343" lon="9.21091">
        <ele>1688.75</ele>
        <time>2019-09-09T10:05:23Z</time>
      </trkpt>
      <trkpt lat="41.84346" lon="9.21086">
        <ele>1690.57</ele>
        <time>2019-09-09T10:05:37Z</time>
      </trkpt>
      <trkpt lat="41.84347" lon="9.21082">
        <ele>1691.92</ele>
        <time>2019-09-09T10:05:49Z</time>
      </trkpt>
      <trkpt lat="41.8435" lon="9.21081">
        <ele>1693.37</ele>
        <time>2019-09-09T10:06:02Z</time>
      </trkpt>
      <trkpt lat="41.84354" lon="9.21076">
        <ele>1694.97</ele>
        <time>2019-09-09T10:06:15Z</time>
      </trkpt>
      <trkpt lat="41.84358" lon="9.21072">
        <ele>1696.42</ele>
        <time>2019-09-09T10:06:28Z</time>
      </trkpt>
      <trkpt lat="41.84363" lon="9.21067">
        <ele>1698.4</ele>
        <time>2019-09-09T10:06:42Z</time>
      </trkpt>
      <trkpt lat="41.84368" lon="9.21061">
        <ele>1699.74</ele>
        <time>2019-09-09T10:06:55Z</time>
      </trkpt>
      <trkpt lat="41.84372" lon="9.21056">
        <ele>1701.19</ele>
        <time>2019-09-09T10:07:07Z</time>
      </trkpt>
      <trkpt lat="41.84375" lon="9.21051">
        <ele>1702.18</ele>
        <time>2019-09-09T10:07:18Z</time>
      </trkpt>
      <trkpt lat="41.84377" lon="9.21039">
        <ele>1702.62</ele>
        <time>2019-09-09T10:07:32Z</time>
      </trkpt>
      <trkpt lat="41.84381" lon="9.21034">
        <ele>1704.14</ele>
        <time>2019-09-09T10:07:45Z</time>
      </trkpt>
      <trkpt lat="41.84384" lon="9.21028">
        <ele>1705.73</ele>
        <time>2019-09-09T10:07:57Z</time>
      </trkpt>
      <trkpt lat="41.84389" lon="9.2102">
        <ele>1707.48</ele>
        <time>2019-09-09T10:08:12Z</time>
      </trkpt>
      <trkpt lat="41.84392" lon="9.21016">
        <ele>1709.28</ele>
        <time>2019-09-09T10:08:25Z</time>
      </trkpt>
      <trkpt lat="41.84396" lon="9.2101">
        <ele>1710.81</ele>
        <time>2019-09-09T10:08:38Z</time>
      </trkpt>
      <trkpt lat="41.844" lon="9.21005">
        <ele>1712.86</ele>
        <time>2019-09-09T10:08:53Z</time>
      </trkpt>
      <trkpt lat="41.84402" lon="9.20999">
        <ele>1714.71</ele>
        <time>2019-09-09T10:09:06Z</time>
      </trkpt>
      <trkpt lat="41.84404" lon="9.20994">
        <ele>1716.14</ele>
        <time>2019-09-09T10:09:19Z</time>
      </trkpt>
      <trkpt lat="41.84407" lon="9.20987">
        <ele>1717.78</ele>
        <time>2019-09-09T10:09:33Z</time>
      </trkpt>
      <trkpt lat="41.8441" lon="9.20979">
        <ele>1719.29</ele>
        <time>2019-09-09T10:09:46Z</time>
      </trkpt>
      <trkpt lat="41.84411" lon="9.20972">
        <ele>1720.6</ele>
        <time>2019-09-09T10:10:01Z</time>
      </trkpt>
      <trkpt lat="41.84415" lon="9.20962">
        <ele>1721.71</ele>
        <time>2019-09-09T10:10:15Z</time>
      </trkpt>
      <trkpt lat="41.84419" lon="9.20958">
        <ele>1723.97</ele>
        <time>2019-09-09T10:10:29Z</time>
      </trkpt>
      <trkpt lat="41.84424" lon="9.20957">
        <ele>1726.31</ele>
        <time>2019-09-09T10:10:43Z</time>
      </trkpt>
      <trkpt lat="41.84428" lon="9.20952">
        <ele>1727.57</ele>
        <time>2019-09-09T10:10:56Z</time>
      </trkpt>
      <trkpt lat="41.84433" lon="9.20943">
        <ele>1729.27</ele>
        <time>2019-09-09T10:11:12Z</time>
      </trkpt>
      <trkpt lat="41.84433" lon="9.20941">
        <ele>1729.97</ele>
        <time>2019-09-09T10:11:28Z</time>
      </trkpt>
      <trkpt lat="41.84433" lon="9.20941">
        <ele>1729.84</ele>
        <time>2019-09-09T10:11:43Z</time>
      </trkpt>
      <trkpt lat="41.84433" lon="9.20941">
        <ele>1730.14</ele>
        <time>2019-09-09T10:11:56Z</time>
      </trkpt>
      <trkpt lat="41.84432" lon="9.20939">
        <ele>1729.7</ele>
        <time>2019-09-09T10:12:38Z</time>
      </trkpt>
      <trkpt lat="41.84433" lon="9.20939">
        <ele>1729.44</ele>
        <time>2019-09-09T10:13:10Z</time>
      </trkpt>
      <trkpt lat="41.84434" lon="9.2094">
        <ele>1729.43</ele>
        <time>2019-09-09T10:13:38Z</time>
      </trkpt>
      <trkpt lat="41.84434" lon="9.2094">
        <ele>1728.75</ele>
        <time>2019-09-09T10:14:20Z</time>
      </trkpt>
      <trkpt lat="41.84435" lon="9.2094">
        <ele>1727.85</ele>
        <time>2019-09-09T10:14:59Z</time>
      </trkpt>
      <trkpt lat="41.84433" lon="9.20938">
        <ele>1728.05</ele>
        <time>2019-09-09T10:15:21Z</time>
      </trkpt>
      <trkpt lat="41.84437" lon="9.20933">
        <ele>1729.06</ele>
        <time>2019-09-09T10:15:37Z</time>
      </trkpt>
      <trkpt lat="41.84439" lon="9.20929">
        <ele>1729.98</ele>
        <time>2019-09-09T10:15:47Z</time>
      </trkpt>
      <trkpt lat="41.8444" lon="9.20922">
        <ele>1731.95</ele>
        <time>2019-09-09T10:16:00Z</time>
      </trkpt>
      <trkpt lat="41.84441" lon="9.20913">
        <ele>1734.06</ele>
        <time>2019-09-09T10:16:14Z</time>
      </trkpt>
      <trkpt lat="41.84442" lon="9.20907">
        <ele>1735.87</ele>
        <time>2019-09-09T10:16:26Z</time>
      </trkpt>
      <trkpt lat="41.84444" lon="9.20902">
        <ele>1737.78</ele>
        <time>2019-09-09T10:16:41Z</time>
      </trkpt>
      <trkpt lat="41.84446" lon="9.20897">
        <ele>1739.81</ele>
        <time>2019-09-09T10:16:54Z</time>
      </trkpt>
      <trkpt lat="41.84448" lon="9.20893">
        <ele>1741.65</ele>
        <time>2019-09-09T10:17:07Z</time>
      </trkpt>
      <trkpt lat="41.84452" lon="9.20895">
        <ele>1743.29</ele>
        <time>2019-09-09T10:17:21Z</time>
      </trkpt>
      <trkpt lat="41.84455" lon="9.20897">
        <ele>1743.95</ele>
        <time>2019-09-09T10:17:34Z</time>
      </trkpt>
      <trkpt lat="41.84458" lon="9.20897">
        <ele>1744.92</ele>
        <time>2019-09-09T10:17:48Z</time>
      </trkpt>
      <trkpt lat="41.84461" lon="9.20896">
        <ele>1746</ele>
        <time>2019-09-09T10:18:01Z</time>
      </trkpt>
      <trkpt lat="41.84464" lon="9.20894">
        <ele>1747.81</ele>
        <time>2019-09-09T10:18:14Z</time>
      </trkpt>
      <trkpt lat="41.84466" lon="9.20893">
        <ele>1749.25</ele>
        <time>2019-09-09T10:18:26Z</time>
      </trkpt>
      <trkpt lat="41.84466" lon="9.20888">
        <ele>1750.51</ele>
        <time>2019-09-09T10:18:37Z</time>
      </trkpt>
      <trkpt lat="41.84469" lon="9.20886">
        <ele>1751.2</ele>
        <time>2019-09-09T10:18:51Z</time>
      </trkpt>
      <trkpt lat="41.84472" lon="9.20886">
        <ele>1752.9</ele>
        <time>2019-09-09T10:19:04Z</time>
      </trkpt>
      <trkpt lat="41.84474" lon="9.20886">
        <ele>1754.28</ele>
        <time>2019-09-09T10:19:15Z</time>
      </trkpt>
      <trkpt lat="41.84478" lon="9.20886">
        <ele>1756.26</ele>
        <time>2019-09-09T10:19:31Z</time>
      </trkpt>
      <trkpt lat="41.8448" lon="9.20887">
        <ele>1757.69</ele>
        <time>2019-09-09T10:19:45Z</time>
      </trkpt>
      <trkpt lat="41.84485" lon="9.20891">
        <ele>1758.56</ele>
        <time>2019-09-09T10:19:59Z</time>
      </trkpt>
      <trkpt lat="41.84486" lon="9.20886">
        <ele>1759.97</ele>
        <time>2019-09-09T10:20:14Z</time>
      </trkpt>
      <trkpt lat="41.84487" lon="9.20882">
        <ele>1761.17</ele>
        <time>2019-09-09T10:20:28Z</time>
      </trkpt>
      <trkpt lat="41.84489" lon="9.20883">
        <ele>1761.93</ele>
        <time>2019-09-09T10:20:41Z</time>
      </trkpt>
      <trkpt lat="41.84489" lon="9.20882">
        <ele>1762.81</ele>
        <time>2019-09-09T10:21:01Z</time>
      </trkpt>
      <trkpt lat="41.8449" lon="9.20878">
        <ele>1763.93</ele>
        <time>2019-09-09T10:21:31Z</time>
      </trkpt>
      <trkpt lat="41.84492" lon="9.20877">
        <ele>1765.22</ele>
        <time>2019-09-09T10:21:46Z</time>
      </trkpt>
      <trkpt lat="41.84493" lon="9.20874">
        <ele>1766.38</ele>
        <time>2019-09-09T10:22:04Z</time>
      </trkpt>
      <trkpt lat="41.84493" lon="9.20871">
        <ele>1767.63</ele>
        <time>2019-09-09T10:22:18Z</time>
      </trkpt>
      <trkpt lat="41.84495" lon="9.20869">
        <ele>1769.61</ele>
        <time>2019-09-09T10:22:33Z</time>
      </trkpt>
      <trkpt lat="41.84498" lon="9.20867">
        <ele>1772.04</ele>
        <time>2019-09-09T10:22:47Z</time>
      </trkpt>
      <trkpt lat="41.845" lon="9.20864">
        <ele>1773.92</ele>
        <time>2019-09-09T10:23:00Z</time>
      </trkpt>
      <trkpt lat="41.84504" lon="9.20865">
        <ele>1775.72</ele>
        <time>2019-09-09T10:23:15Z</time>
      </trkpt>
      <trkpt lat="41.84505" lon="9.20863">
        <ele>1777.41</ele>
        <time>2019-09-09T10:23:27Z</time>
      </trkpt>
      <trkpt lat="41.84507" lon="9.20859">
        <ele>1779.29</ele>
        <time>2019-09-09T10:23:44Z</time>
      </trkpt>
      <trkpt lat="41.84506" lon="9.20855">
        <ele>1779.12</ele>
        <time>2019-09-09T10:24:05Z</time>
      </trkpt>
      <trkpt lat="41.84506" lon="9.2085">
        <ele>1779.82</ele>
        <time>2019-09-09T10:24:18Z</time>
      </trkpt>
      <trkpt lat="41.84508" lon="9.20845">
        <ele>1781.78</ele>
        <time>2019-09-09T10:24:32Z</time>
      </trkpt>
      <trkpt lat="41.84509" lon="9.20842">
        <ele>1784.64</ele>
        <time>2019-09-09T10:24:46Z</time>
      </trkpt>
      <trkpt lat="41.84512" lon="9.20839">
        <ele>1786.33</ele>
        <time>2019-09-09T10:24:58Z</time>
      </trkpt>
      <trkpt lat="41.84513" lon="9.20842">
        <ele>1786.63</ele>
        <time>2019-09-09T10:25:17Z</time>
      </trkpt>
      <trkpt lat="41.84516" lon="9.20842">
        <ele>1787.6</ele>
        <time>2019-09-09T10:25:30Z</time>
      </trkpt>
      <trkpt lat="41.84519" lon="9.20839">
        <ele>1789.86</ele>
        <time>2019-09-09T10:25:42Z</time>
      </trkpt>
      <trkpt lat="41.84522" lon="9.20839">
        <ele>1791.73</ele>
        <time>2019-09-09T10:25:54Z</time>
      </trkpt>
      <trkpt lat="41.84525" lon="9.20837">
        <ele>1793.97</ele>
        <time>2019-09-09T10:26:07Z</time>
      </trkpt>
      <trkpt lat="41.84526" lon="9.20831">
        <ele>1795.13</ele>
        <time>2019-09-09T10:26:22Z</time>
      </trkpt>
      <trkpt lat="41.84527" lon="9.20827">
        <ele>1796.69</ele>
        <time>2019-09-09T10:26:38Z</time>
      </trkpt>
      <trkpt lat="41.84529" lon="9.20824">
        <ele>1797.63</ele>
        <time>2019-09-09T10:26:54Z</time>
      </trkpt>
      <trkpt lat="41.84531" lon="9.20822">
        <ele>1799.56</ele>
        <time>2019-09-09T10:27:08Z</time>
      </trkpt>
      <trkpt lat="41.84533" lon="9.20819">
        <ele>1800.93</ele>
        <time>2019-09-09T10:27:22Z</time>
      </trkpt>
      <trkpt lat="41.84536" lon="9.20821">
        <ele>1804.02</ele>
        <time>2019-09-09T10:27:38Z</time>
      </trkpt>
      <trkpt lat="41.84539" lon="9.20821">
        <ele>1805.75</ele>
        <time>2019-09-09T10:27:51Z</time>
      </trkpt>
      <trkpt lat="41.84542" lon="9.20818">
        <ele>1806.81</ele>
        <time>2019-09-09T10:28:04Z</time>
      </trkpt>
      <trkpt lat="41.84543" lon="9.20815">
        <ele>1808.27</ele>
        <time>2019-09-09T10:28:19Z</time>
      </trkpt>
      <trkpt lat="41.84544" lon="9.2081">
        <ele>1808.98</ele>
        <time>2019-09-09T10:28:31Z</time>
      </trkpt>
      <trkpt lat="41.84545" lon="9.20807">
        <ele>1810.5</ele>
        <time>2019-09-09T10:28:43Z</time>
      </trkpt>
      <trkpt lat="41.84547" lon="9.20808">
        <ele>1812.28</ele>
        <time>2019-09-09T10:28:58Z</time>
      </trkpt>
      <trkpt lat="41.84551" lon="9.20808">
        <ele>1814.56</ele>
        <time>2019-09-09T10:29:14Z</time>
      </trkpt>
      <trkpt lat="41.84555" lon="9.20812">
        <ele>1816.63</ele>
        <time>2019-09-09T10:29:27Z</time>
      </trkpt>
      <trkpt lat="41.8456" lon="9.20816">
        <ele>1817.72</ele>
        <time>2019-09-09T10:29:41Z</time>
      </trkpt>
      <trkpt lat="41.84563" lon="9.2082">
        <ele>1818.31</ele>
        <time>2019-09-09T10:29:51Z</time>
      </trkpt>
      <trkpt lat="41.84565" lon="9.20822">
        <ele>1819.48</ele>
        <time>2019-09-09T10:30:05Z</time>
      </trkpt>
      <trkpt lat="41.84567" lon="9.20824">
        <ele>1820.68</ele>
        <time>2019-09-09T10:30:20Z</time>
      </trkpt>
      <trkpt lat="41.8457" lon="9.20825">
        <ele>1822.43</ele>
        <time>2019-09-09T10:30:34Z</time>
      </trkpt>
      <trkpt lat="41.84572" lon="9.20826">
        <ele>1823.96</ele>
        <time>2019-09-09T10:30:46Z</time>
      </trkpt>
      <trkpt lat="41.84574" lon="9.20822">
        <ele>1824.78</ele>
        <time>2019-09-09T10:30:58Z</time>
      </trkpt>
      <trkpt lat="41.84576" lon="9.2082">
        <ele>1826.63</ele>
        <time>2019-09-09T10:31:13Z</time>
      </trkpt>
      <trkpt lat="41.84579" lon="9.20818">
        <ele>1828.35</ele>
        <time>2019-09-09T10:31:30Z</time>
      </trkpt>
      <trkpt lat="41.84582" lon="9.20818">
        <ele>1829.89</ele>
        <time>2019-09-09T10:31:44Z</time>
      </trkpt>
      <trkpt lat="41.84583" lon="9.20814">
        <ele>1830.62</ele>
        <time>2019-09-09T10:31:56Z</time>
      </trkpt>
      <trkpt lat="41.84585" lon="9.20813">
        <ele>1832.12</ele>
        <time>2019-09-09T10:32:08Z</time>
      </trkpt>
      <trkpt lat="41.84586" lon="9.20809">
        <ele>1833.94</ele>
        <time>2019-09-09T10:32:25Z</time>
      </trkpt>
      <trkpt lat="41.84588" lon="9.20806">
        <ele>1835.87</ele>
        <time>2019-09-09T10:32:41Z</time>
      </trkpt>
      <trkpt lat="41.8459" lon="9.20804">
        <ele>1838.04</ele>
        <time>2019-09-09T10:32:54Z</time>
      </trkpt>
      <trkpt lat="41.84594" lon="9.20806">
        <ele>1839.18</ele>
        <time>2019-09-09T10:33:05Z</time>
      </trkpt>
      <trkpt lat="41.84597" lon="9.20806">
        <ele>1839.83</ele>
        <time>2019-09-09T10:33:18Z</time>
      </trkpt>
      <trkpt lat="41.84597" lon="9.208">
        <ele>1841.75</ele>
        <time>2019-09-09T10:33:36Z</time>
      </trkpt>
      <trkpt lat="41.84601" lon="9.20799">
        <ele>1844.25</ele>
        <time>2019-09-09T10:33:51Z</time>
      </trkpt>
      <trkpt lat="41.84602" lon="9.20796">
        <ele>1845.55</ele>
        <time>2019-09-09T10:34:04Z</time>
      </trkpt>
      <trkpt lat="41.84605" lon="9.20796">
        <ele>1847.43</ele>
        <time>2019-09-09T10:34:16Z</time>
      </trkpt>
      <trkpt lat="41.84609" lon="9.20796">
        <ele>1848.81</ele>
        <time>2019-09-09T10:34:30Z</time>
      </trkpt>
      <trkpt lat="41.84612" lon="9.20795">
        <ele>1849.46</ele>
        <time>2019-09-09T10:34:43Z</time>
      </trkpt>
      <trkpt lat="41.84615" lon="9.20793">
        <ele>1850.86</ele>
        <time>2019-09-09T10:34:55Z</time>
      </trkpt>
      <trkpt lat="41.84617" lon="9.20794">
        <ele>1851.89</ele>
        <time>2019-09-09T10:35:09Z</time>
      </trkpt>
      <trkpt lat="41.84622" lon="9.20796">
        <ele>1852.94</ele>
        <time>2019-09-09T10:35:22Z</time>
      </trkpt>
      <trkpt lat="41.84625" lon="9.20795">
        <ele>1854.19</ele>
        <time>2019-09-09T10:35:39Z</time>
      </trkpt>
      <trkpt lat="41.84628" lon="9.20797">
        <ele>1855.09</ele>
        <time>2019-09-09T10:35:51Z</time>
      </trkpt>
      <trkpt lat="41.8463" lon="9.20801">
        <ele>1856.83</ele>
        <time>2019-09-09T10:36:05Z</time>
      </trkpt>
      <trkpt lat="41.84632" lon="9.20803">
        <ele>1858.45</ele>
        <time>2019-09-09T10:36:18Z</time>
      </trkpt>
      <trkpt lat="41.84634" lon="9.208">
        <ele>1859.92</ele>
        <time>2019-09-09T10:36:32Z</time>
      </trkpt>
      <trkpt lat="41.84636" lon="9.20799">
        <ele>1862.05</ele>
        <time>2019-09-09T10:36:45Z</time>
      </trkpt>
      <trkpt lat="41.84639" lon="9.20798">
        <ele>1862.68</ele>
        <time>2019-09-09T10:36:57Z</time>
      </trkpt>
      <trkpt lat="41.84641" lon="9.208">
        <ele>1863.7</ele>
        <time>2019-09-09T10:37:10Z</time>
      </trkpt>
      <trkpt lat="41.84643" lon="9.20802">
        <ele>1865.36</ele>
        <time>2019-09-09T10:37:24Z</time>
      </trkpt>
      <trkpt lat="41.84645" lon="9.20804">
        <ele>1866.48</ele>
        <time>2019-09-09T10:37:38Z</time>
      </trkpt>
      <trkpt lat="41.84648" lon="9.20798">
        <ele>1868.5</ele>
        <time>2019-09-09T10:37:54Z</time>
      </trkpt>
      <trkpt lat="41.8465" lon="9.20797">
        <ele>1869.36</ele>
        <time>2019-09-09T10:38:10Z</time>
      </trkpt>
      <trkpt lat="41.84652" lon="9.20794">
        <ele>1870.64</ele>
        <time>2019-09-09T10:38:26Z</time>
      </trkpt>
      <trkpt lat="41.84653" lon="9.20791">
        <ele>1872.13</ele>
        <time>2019-09-09T10:38:40Z</time>
      </trkpt>
      <trkpt lat="41.84653" lon="9.20786">
        <ele>1875.11</ele>
        <time>2019-09-09T10:38:57Z</time>
      </trkpt>
      <trkpt lat="41.84653" lon="9.20782">
        <ele>1875.6</ele>
        <time>2019-09-09T10:39:11Z</time>
      </trkpt>
      <trkpt lat="41.84653" lon="9.20776">
        <ele>1877.22</ele>
        <time>2019-09-09T10:39:24Z</time>
      </trkpt>
      <trkpt lat="41.84654" lon="9.20773">
        <ele>1878.35</ele>
        <time>2019-09-09T10:39:38Z</time>
      </trkpt>
      <trkpt lat="41.84654" lon="9.20768">
        <ele>1880.09</ele>
        <time>2019-09-09T10:39:53Z</time>
      </trkpt>
      <trkpt lat="41.84657" lon="9.2077">
        <ele>1881.64</ele>
        <time>2019-09-09T10:40:05Z</time>
      </trkpt>
      <trkpt lat="41.8466" lon="9.20768">
        <ele>1882.73</ele>
        <time>2019-09-09T10:40:18Z</time>
      </trkpt>
      <trkpt lat="41.84663" lon="9.20769">
        <ele>1884.64</ele>
        <time>2019-09-09T10:40:34Z</time>
      </trkpt>
      <trkpt lat="41.84665" lon="9.20774">
        <ele>1886.04</ele>
        <time>2019-09-09T10:40:49Z</time>
      </trkpt>
      <trkpt lat="41.84667" lon="9.20782">
        <ele>1885.54</ele>
        <time>2019-09-09T10:41:03Z</time>
      </trkpt>
      <trkpt lat="41.84668" lon="9.20785">
        <ele>1886.07</ele>
        <time>2019-09-09T10:41:16Z</time>
      </trkpt>
      <trkpt lat="41.8467" lon="9.20782">
        <ele>1887.8</ele>
        <time>2019-09-09T10:41:31Z</time>
      </trkpt>
      <trkpt lat="41.84673" lon="9.20777">
        <ele>1890.46</ele>
        <time>2019-09-09T10:41:45Z</time>
      </trkpt>
      <trkpt lat="41.84674" lon="9.20774">
        <ele>1892.5</ele>
        <time>2019-09-09T10:41:58Z</time>
      </trkpt>
      <trkpt lat="41.84677" lon="9.20769">
        <ele>1894.29</ele>
        <time>2019-09-09T10:42:13Z</time>
      </trkpt>
      <trkpt lat="41.84678" lon="9.20765">
        <ele>1895.63</ele>
        <time>2019-09-09T10:42:27Z</time>
      </trkpt>
      <trkpt lat="41.84678" lon="9.20759">
        <ele>1897.16</ele>
        <time>2019-09-09T10:42:42Z</time>
      </trkpt>
      <trkpt lat="41.84678" lon="9.20755">
        <ele>1898.37</ele>
        <time>2019-09-09T10:42:55Z</time>
      </trkpt>
      <trkpt lat="41.84682" lon="9.20755">
        <ele>1900.24</ele>
        <time>2019-09-09T10:43:09Z</time>
      </trkpt>
      <trkpt lat="41.84683" lon="9.20754">
        <ele>1901.25</ele>
        <time>2019-09-09T10:43:24Z</time>
      </trkpt>
      <trkpt lat="41.84684" lon="9.20751">
        <ele>1902.67</ele>
        <time>2019-09-09T10:43:41Z</time>
      </trkpt>
      <trkpt lat="41.84688" lon="9.20749">
        <ele>1904.36</ele>
        <time>2019-09-09T10:43:56Z</time>
      </trkpt>
      <trkpt lat="41.8469" lon="9.20747">
        <ele>1906.16</ele>
        <time>2019-09-09T10:44:11Z</time>
      </trkpt>
      <trkpt lat="41.84693" lon="9.20744">
        <ele>1907.19</ele>
        <time>2019-09-09T10:44:27Z</time>
      </trkpt>
      <trkpt lat="41.84693" lon="9.20745">
        <ele>1908.5</ele>
        <time>2019-09-09T10:44:46Z</time>
      </trkpt>
      <trkpt lat="41.84696" lon="9.20751">
        <ele>1909.9</ele>
        <time>2019-09-09T10:44:59Z</time>
      </trkpt>
      <trkpt lat="41.84699" lon="9.20753">
        <ele>1910.78</ele>
        <time>2019-09-09T10:45:12Z</time>
      </trkpt>
      <trkpt lat="41.84701" lon="9.20754">
        <ele>1912.18</ele>
        <time>2019-09-09T10:45:27Z</time>
      </trkpt>
      <trkpt lat="41.84702" lon="9.20751">
        <ele>1913.7</ele>
        <time>2019-09-09T10:45:44Z</time>
      </trkpt>
      <trkpt lat="41.84701" lon="9.20746">
        <ele>1914.92</ele>
        <time>2019-09-09T10:45:59Z</time>
      </trkpt>
      <trkpt lat="41.84702" lon="9.20743">
        <ele>1916.14</ele>
        <time>2019-09-09T10:46:11Z</time>
      </trkpt>
      <trkpt lat="41.84702" lon="9.20747">
        <ele>1914.78</ele>
        <time>2019-09-09T10:46:30Z</time>
      </trkpt>
      <trkpt lat="41.84705" lon="9.20749">
        <ele>1915.02</ele>
        <time>2019-09-09T10:46:44Z</time>
      </trkpt>
      <trkpt lat="41.84707" lon="9.2075">
        <ele>1915.91</ele>
        <time>2019-09-09T10:46:58Z</time>
      </trkpt>
      <trkpt lat="41.84709" lon="9.20754">
        <ele>1916.96</ele>
        <time>2019-09-09T10:47:11Z</time>
      </trkpt>
      <trkpt lat="41.8471" lon="9.20753">
        <ele>1917.97</ele>
        <time>2019-09-09T10:47:23Z</time>
      </trkpt>
      <trkpt lat="41.84712" lon="9.20754">
        <ele>1919.35</ele>
        <time>2019-09-09T10:47:41Z</time>
      </trkpt>
      <trkpt lat="41.84714" lon="9.2075">
        <ele>1921.11</ele>
        <time>2019-09-09T10:47:55Z</time>
      </trkpt>
      <trkpt lat="41.84717" lon="9.20752">
        <ele>1922.37</ele>
        <time>2019-09-09T10:48:10Z</time>
      </trkpt>
      <trkpt lat="41.84719" lon="9.20751">
        <ele>1923.55</ele>
        <time>2019-09-09T10:48:24Z</time>
      </trkpt>
      <trkpt lat="41.84722" lon="9.20747">
        <ele>1924.5</ele>
        <time>2019-09-09T10:48:36Z</time>
      </trkpt>
      <trkpt lat="41.84723" lon="9.20743">
        <ele>1926.26</ele>
        <time>2019-09-09T10:48:50Z</time>
      </trkpt>
      <trkpt lat="41.84724" lon="9.20739">
        <ele>1927.43</ele>
        <time>2019-09-09T10:49:06Z</time>
      </trkpt>
      <trkpt lat="41.84728" lon="9.20743">
        <ele>1928.06</ele>
        <time>2019-09-09T10:49:21Z</time>
      </trkpt>
      <trkpt lat="41.84732" lon="9.20749">
        <ele>1929.47</ele>
        <time>2019-09-09T10:49:35Z</time>
      </trkpt>
      <trkpt lat="41.84735" lon="9.20748">
        <ele>1931.16</ele>
        <time>2019-09-09T10:49:50Z</time>
      </trkpt>
      <trkpt lat="41.84736" lon="9.20743">
        <ele>1932.34</ele>
        <time>2019-09-09T10:50:03Z</time>
      </trkpt>
      <trkpt lat="41.84738" lon="9.2074">
        <ele>1934.06</ele>
        <time>2019-09-09T10:50:13Z</time>
      </trkpt>
      <trkpt lat="41.84738" lon="9.20734">
        <ele>1934.67</ele>
        <time>2019-09-09T10:50:29Z</time>
      </trkpt>
      <trkpt lat="41.84738" lon="9.20729">
        <ele>1935.19</ele>
        <time>2019-09-09T10:50:44Z</time>
      </trkpt>
      <trkpt lat="41.84736" lon="9.20725">
        <ele>1939.03</ele>
        <time>2019-09-09T10:50:56Z</time>
      </trkpt>
      <trkpt lat="41.84736" lon="9.20723">
        <ele>1939.49</ele>
        <time>2019-09-09T10:51:15Z</time>
      </trkpt>
      <trkpt lat="41.84734" lon="9.20717">
        <ele>1939.8</ele>
        <time>2019-09-09T10:51:40Z</time>
      </trkpt>
      <trkpt lat="41.84732" lon="9.2071">
        <ele>1941.51</ele>
        <time>2019-09-09T10:51:55Z</time>
      </trkpt>
      <trkpt lat="41.84733" lon="9.20703">
        <ele>1944.15</ele>
        <time>2019-09-09T10:52:09Z</time>
      </trkpt>
      <trkpt lat="41.84732" lon="9.20693">
        <ele>1947.02</ele>
        <time>2019-09-09T10:52:26Z</time>
      </trkpt>
      <trkpt lat="41.84729" lon="9.20686">
        <ele>1950.43</ele>
        <time>2019-09-09T10:52:40Z</time>
      </trkpt>
      <trkpt lat="41.84727" lon="9.20678">
        <ele>1954.02</ele>
        <time>2019-09-09T10:52:56Z</time>
      </trkpt>
      <trkpt lat="41.84727" lon="9.20674">
        <ele>1955.42</ele>
        <time>2019-09-09T10:53:09Z</time>
      </trkpt>
      <trkpt lat="41.84725" lon="9.20665">
        <ele>1955.91</ele>
        <time>2019-09-09T10:53:24Z</time>
      </trkpt>
      <trkpt lat="41.84724" lon="9.20662">
        <ele>1956.15</ele>
        <time>2019-09-09T10:53:27Z</time>
      </trkpt>
      <trkpt lat="41.84714" lon="9.20649">
        <ele>1956.42</ele>
        <time>2019-09-09T10:53:44Z</time>
      </trkpt>
      <trkpt lat="41.84713" lon="9.20645">
        <ele>1957.33</ele>
        <time>2019-09-09T10:54:01Z</time>
      </trkpt>
      <trkpt lat="41.84712" lon="9.20642">
        <ele>1958.47</ele>
        <time>2019-09-09T10:54:16Z</time>
      </trkpt>
      <trkpt lat="41.84714" lon="9.20642">
        <ele>1960.34</ele>
        <time>2019-09-09T10:54:29Z</time>
      </trkpt>
      <trkpt lat="41.84712" lon="9.20639">
        <ele>1961.17</ele>
        <time>2019-09-09T10:54:42Z</time>
      </trkpt>
      <trkpt lat="41.84711" lon="9.20636">
        <ele>1962.4</ele>
        <time>2019-09-09T10:54:55Z</time>
      </trkpt>
      <trkpt lat="41.84707" lon="9.20628">
        <ele>1963.82</ele>
        <time>2019-09-09T10:55:13Z</time>
      </trkpt>
      <trkpt lat="41.84708" lon="9.20626">
        <ele>1965.71</ele>
        <time>2019-09-09T10:55:28Z</time>
      </trkpt>
      <trkpt lat="41.84708" lon="9.20621">
        <ele>1967.62</ele>
        <time>2019-09-09T10:55:45Z</time>
      </trkpt>
      <trkpt lat="41.84705" lon="9.20617">
        <ele>1969.25</ele>
        <time>2019-09-09T10:56:01Z</time>
      </trkpt>
      <trkpt lat="41.84702" lon="9.20613">
        <ele>1971.27</ele>
        <time>2019-09-09T10:56:16Z</time>
      </trkpt>
      <trkpt lat="41.84696" lon="9.20608">
        <ele>1972.24</ele>
        <time>2019-09-09T10:56:31Z</time>
      </trkpt>
      <trkpt lat="41.84694" lon="9.20604">
        <ele>1973.06</ele>
        <time>2019-09-09T10:56:49Z</time>
      </trkpt>
      <trkpt lat="41.84691" lon="9.20604">
        <ele>1975.19</ele>
        <time>2019-09-09T10:57:02Z</time>
      </trkpt>
      <trkpt lat="41.84691" lon="9.20601">
        <ele>1977.88</ele>
        <time>2019-09-09T10:57:16Z</time>
      </trkpt>
      <trkpt lat="41.84693" lon="9.20599">
        <ele>1980.48</ele>
        <time>2019-09-09T10:57:30Z</time>
      </trkpt>
      <trkpt lat="41.84688" lon="9.20594">
        <ele>1983.6</ele>
        <time>2019-09-09T10:57:45Z</time>
      </trkpt>
      <trkpt lat="41.84688" lon="9.20589">
        <ele>1986.21</ele>
        <time>2019-09-09T10:57:58Z</time>
      </trkpt>
      <trkpt lat="41.84688" lon="9.20583">
        <ele>1988.34</ele>
        <time>2019-09-09T10:58:13Z</time>
      </trkpt>
      <trkpt lat="41.84685" lon="9.20577">
        <ele>1987.72</ele>
        <time>2019-09-09T10:58:30Z</time>
      </trkpt>
      <trkpt lat="41.84681" lon="9.20566">
        <ele>1987.71</ele>
        <time>2019-09-09T10:58:46Z</time>
      </trkpt>
      <trkpt lat="41.84682" lon="9.20561">
        <ele>1989.19</ele>
        <time>2019-09-09T10:59:01Z</time>
      </trkpt>
      <trkpt lat="41.84679" lon="9.20555">
        <ele>1990.08</ele>
        <time>2019-09-09T10:59:15Z</time>
      </trkpt>
      <trkpt lat="41.84675" lon="9.20548">
        <ele>1990.16</ele>
        <time>2019-09-09T10:59:28Z</time>
      </trkpt>
      <trkpt lat="41.84673" lon="9.20545">
        <ele>1989.71</ele>
        <time>2019-09-09T10:59:46Z</time>
      </trkpt>
      <trkpt lat="41.8467" lon="9.20543">
        <ele>1988.4</ele>
        <time>2019-09-09T11:00:02Z</time>
      </trkpt>
      <trkpt lat="41.84667" lon="9.20538">
        <ele>1988.53</ele>
        <time>2019-09-09T11:00:16Z</time>
      </trkpt>
      <trkpt lat="41.84665" lon="9.20532">
        <ele>1989.07</ele>
        <time>2019-09-09T11:00:29Z</time>
      </trkpt>
      <trkpt lat="41.84664" lon="9.20529">
        <ele>1988.87</ele>
        <time>2019-09-09T11:00:45Z</time>
      </trkpt>
      <trkpt lat="41.84664" lon="9.20527">
        <ele>1989.39</ele>
        <time>2019-09-09T11:01:04Z</time>
      </trkpt>
      <trkpt lat="41.84661" lon="9.20525">
        <ele>1988.23</ele>
        <time>2019-09-09T11:01:18Z</time>
      </trkpt>
      <trkpt lat="41.84662" lon="9.20524">
        <ele>1988.85</ele>
        <time>2019-09-09T11:01:35Z</time>
      </trkpt>
      <trkpt lat="41.84661" lon="9.20521">
        <ele>1989.03</ele>
        <time>2019-09-09T11:01:51Z</time>
      </trkpt>
      <trkpt lat="41.84658" lon="9.20519">
        <ele>1988.06</ele>
        <time>2019-09-09T11:02:06Z</time>
      </trkpt>
      <trkpt lat="41.84653" lon="9.20513">
        <ele>1989.25</ele>
        <time>2019-09-09T11:02:20Z</time>
      </trkpt>
      <trkpt lat="41.84647" lon="9.20506">
        <ele>1991.25</ele>
        <time>2019-09-09T11:02:38Z</time>
      </trkpt>
      <trkpt lat="41.84646" lon="9.20498">
        <ele>1991.12</ele>
        <time>2019-09-09T11:02:52Z</time>
      </trkpt>
      <trkpt lat="41.84642" lon="9.20494">
        <ele>1989.7</ele>
        <time>2019-09-09T11:03:05Z</time>
      </trkpt>
      <trkpt lat="41.84641" lon="9.20493">
        <ele>1988.04</ele>
        <time>2019-09-09T11:03:20Z</time>
      </trkpt>
      <trkpt lat="41.84637" lon="9.20491">
        <ele>1986.36</ele>
        <time>2019-09-09T11:03:36Z</time>
      </trkpt>
      <trkpt lat="41.84632" lon="9.20487">
        <ele>1987.6</ele>
        <time>2019-09-09T11:03:50Z</time>
      </trkpt>
      <trkpt lat="41.84627" lon="9.2048">
        <ele>1991.1</ele>
        <time>2019-09-09T11:04:04Z</time>
      </trkpt>
      <trkpt lat="41.84626" lon="9.20476">
        <ele>1992.87</ele>
        <time>2019-09-09T11:04:19Z</time>
      </trkpt>
      <trkpt lat="41.84621" lon="9.20473">
        <ele>1993.57</ele>
        <time>2019-09-09T11:04:33Z</time>
      </trkpt>
      <trkpt lat="41.84622" lon="9.20468">
        <ele>1994.34</ele>
        <time>2019-09-09T11:04:47Z</time>
      </trkpt>
      <trkpt lat="41.84621" lon="9.20465">
        <ele>1995.52</ele>
        <time>2019-09-09T11:05:00Z</time>
      </trkpt>
      <trkpt lat="41.8462" lon="9.20465">
        <ele>1995.59</ele>
        <time>2019-09-09T11:05:20Z</time>
      </trkpt>
      <trkpt lat="41.84621" lon="9.20463">
        <ele>1995.3</ele>
        <time>2019-09-09T11:05:50Z</time>
      </trkpt>
      <trkpt lat="41.84623" lon="9.20461">
        <ele>1996.46</ele>
        <time>2019-09-09T11:06:04Z</time>
      </trkpt>
      <trkpt lat="41.84625" lon="9.20462">
        <ele>1997.51</ele>
        <time>2019-09-09T11:06:17Z</time>
      </trkpt>
      <trkpt lat="41.84626" lon="9.20458">
        <ele>1998.68</ele>
        <time>2019-09-09T11:06:31Z</time>
      </trkpt>
      <trkpt lat="41.84623" lon="9.20454">
        <ele>1999.51</ele>
        <time>2019-09-09T11:06:44Z</time>
      </trkpt>
      <trkpt lat="41.8462" lon="9.20445">
        <ele>2001.31</ele>
        <time>2019-09-09T11:07:00Z</time>
      </trkpt>
      <trkpt lat="41.84617" lon="9.20441">
        <ele>2002.89</ele>
        <time>2019-09-09T11:07:13Z</time>
      </trkpt>
      <trkpt lat="41.84618" lon="9.20439">
        <ele>2003.9</ele>
        <time>2019-09-09T11:07:26Z</time>
      </trkpt>
      <trkpt lat="41.8462" lon="9.20437">
        <ele>2004.68</ele>
        <time>2019-09-09T11:07:40Z</time>
      </trkpt>
      <trkpt lat="41.84622" lon="9.20437">
        <ele>2005.52</ele>
        <time>2019-09-09T11:07:51Z</time>
      </trkpt>
      <trkpt lat="41.84625" lon="9.20437">
        <ele>2006.47</ele>
        <time>2019-09-09T11:08:04Z</time>
      </trkpt>
      <trkpt lat="41.84626" lon="9.20435">
        <ele>2007.7</ele>
        <time>2019-09-09T11:08:17Z</time>
      </trkpt>
      <trkpt lat="41.84624" lon="9.20432">
        <ele>2009.63</ele>
        <time>2019-09-09T11:08:31Z</time>
      </trkpt>
      <trkpt lat="41.84624" lon="9.20429">
        <ele>2011.26</ele>
        <time>2019-09-09T11:08:48Z</time>
      </trkpt>
      <trkpt lat="41.84622" lon="9.20424">
        <ele>2013.98</ele>
        <time>2019-09-09T11:09:03Z</time>
      </trkpt>
      <trkpt lat="41.84624" lon="9.20423">
        <ele>2015.1</ele>
        <time>2019-09-09T11:09:18Z</time>
      </trkpt>
      <trkpt lat="41.84625" lon="9.2042">
        <ele>2016.51</ele>
        <time>2019-09-09T11:09:32Z</time>
      </trkpt>
      <trkpt lat="41.84625" lon="9.20414">
        <ele>2017.95</ele>
        <time>2019-09-09T11:09:47Z</time>
      </trkpt>
      <trkpt lat="41.84622" lon="9.2041">
        <ele>2019.13</ele>
        <time>2019-09-09T11:10:01Z</time>
      </trkpt>
      <trkpt lat="41.84615" lon="9.20402">
        <ele>2019.14</ele>
        <time>2019-09-09T11:10:17Z</time>
      </trkpt>
      <trkpt lat="41.84607" lon="9.2039">
        <ele>2017.21</ele>
        <time>2019-09-09T11:10:35Z</time>
      </trkpt>
      <trkpt lat="41.84602" lon="9.20384">
        <ele>2018.75</ele>
        <time>2019-09-09T11:10:50Z</time>
      </trkpt>
      <trkpt lat="41.84597" lon="9.20379">
        <ele>2020.37</ele>
        <time>2019-09-09T11:11:05Z</time>
      </trkpt>
      <trkpt lat="41.84591" lon="9.20376">
        <ele>2021.53</ele>
        <time>2019-09-09T11:11:19Z</time>
      </trkpt>
      <trkpt lat="41.84591" lon="9.20374">
        <ele>2022</ele>
        <time>2019-09-09T11:11:32Z</time>
      </trkpt>
      <trkpt lat="41.84592" lon="9.20373">
        <ele>2022.01</ele>
        <time>2019-09-09T11:11:48Z</time>
      </trkpt>
      <trkpt lat="41.84592" lon="9.20372">
        <ele>2021.29</ele>
        <time>2019-09-09T11:12:07Z</time>
      </trkpt>
      <trkpt lat="41.84592" lon="9.20373">
        <ele>2021.22</ele>
        <time>2019-09-09T11:12:33Z</time>
      </trkpt>
      <trkpt lat="41.8459" lon="9.20374">
        <ele>2020.99</ele>
        <time>2019-09-09T11:13:03Z</time>
      </trkpt>
      <trkpt lat="41.84589" lon="9.20376">
        <ele>2021.24</ele>
        <time>2019-09-09T11:13:36Z</time>
      </trkpt>
      <trkpt lat="41.8459" lon="9.20375">
        <ele>2021.44</ele>
        <time>2019-09-09T11:14:10Z</time>
      </trkpt>
      <trkpt lat="41.8459" lon="9.20374">
        <ele>2021.56</ele>
        <time>2019-09-09T11:14:43Z</time>
      </trkpt>
      <trkpt lat="41.8459" lon="9.20375">
        <ele>2020.38</ele>
        <time>2019-09-09T11:15:16Z</time>
      </trkpt>
      <trkpt lat="41.84589" lon="9.20374">
        <ele>2019.33</ele>
        <time>2019-09-09T11:15:51Z</time>
      </trkpt>
      <trkpt lat="41.8459" lon="9.20375">
        <ele>2018.56</ele>
        <time>2019-09-09T11:16:23Z</time>
      </trkpt>
      <trkpt lat="41.8459" lon="9.20374">
        <ele>2018.07</ele>
        <time>2019-09-09T11:16:58Z</time>
      </trkpt>
      <trkpt lat="41.8459" lon="9.20373">
        <ele>2017.76</ele>
        <time>2019-09-09T11:17:32Z</time>
      </trkpt>
      <trkpt lat="41.8459" lon="9.20374">
        <ele>2017.68</ele>
        <time>2019-09-09T11:18:04Z</time>
      </trkpt>
      <trkpt lat="41.84589" lon="9.20373">
        <ele>2017.52</ele>
        <time>2019-09-09T11:18:38Z</time>
      </trkpt>
      <trkpt lat="41.8459" lon="9.20373">
        <ele>2017.28</ele>
        <time>2019-09-09T11:19:09Z</time>
      </trkpt>
      <trkpt lat="41.84589" lon="9.20371">
        <ele>2017.02</ele>
        <time>2019-09-09T11:19:43Z</time>
      </trkpt>
      <trkpt lat="41.84589" lon="9.20372">
        <ele>2016.61</ele>
        <time>2019-09-09T11:20:17Z</time>
      </trkpt>
      <trkpt lat="41.84589" lon="9.20371">
        <ele>2016.45</ele>
        <time>2019-09-09T11:20:49Z</time>
      </trkpt>
      <trkpt lat="41.84589" lon="9.20372">
        <ele>2016.18</ele>
        <time>2019-09-09T11:21:24Z</time>
      </trkpt>
      <trkpt lat="41.84588" lon="9.20372">
        <ele>2015.97</ele>
        <time>2019-09-09T11:21:55Z</time>
      </trkpt>
      <trkpt lat="41.84589" lon="9.20372">
        <ele>2015.49</ele>
        <time>2019-09-09T11:22:25Z</time>
      </trkpt>
      <trkpt lat="41.84588" lon="9.20371">
        <ele>2015.27</ele>
        <time>2019-09-09T11:22:56Z</time>
      </trkpt>
      <trkpt lat="41.84591" lon="9.20372">
        <ele>2015.45</ele>
        <time>2019-09-09T11:23:30Z</time>
      </trkpt>
      <trkpt lat="41.8459" lon="9.20373">
        <ele>2015.69</ele>
        <time>2019-09-09T11:24:03Z</time>
      </trkpt>
      <trkpt lat="41.84592" lon="9.20373">
        <ele>2016.08</ele>
        <time>2019-09-09T11:24:38Z</time>
      </trkpt>
      <trkpt lat="41.84592" lon="9.20375">
        <ele>2016.99</ele>
        <time>2019-09-09T11:25:14Z</time>
      </trkpt>
      <trkpt lat="41.84593" lon="9.20375">
        <ele>2017.86</ele>
        <time>2019-09-09T11:25:46Z</time>
      </trkpt>
      <trkpt lat="41.8459" lon="9.20375">
        <ele>2018.54</ele>
        <time>2019-09-09T11:26:18Z</time>
      </trkpt>
      <trkpt lat="41.84592" lon="9.20374">
        <ele>2018.7</ele>
        <time>2019-09-09T11:26:50Z</time>
      </trkpt>
      <trkpt lat="41.84591" lon="9.20373">
        <ele>2018.43</ele>
        <time>2019-09-09T11:27:21Z</time>
      </trkpt>
      <trkpt lat="41.8459" lon="9.20372">
        <ele>2017.79</ele>
        <time>2019-09-09T11:28:01Z</time>
      </trkpt>
      <trkpt lat="41.84591" lon="9.20375">
        <ele>2021.11</ele>
        <time>2019-09-09T11:28:32Z</time>
      </trkpt>
      <trkpt lat="41.84592" lon="9.20375">
        <ele>2022.33</ele>
        <time>2019-09-09T11:29:12Z</time>
      </trkpt>
      <trkpt lat="41.84592" lon="9.20375">
        <ele>2023.68</ele>
        <time>2019-09-09T11:29:47Z</time>
      </trkpt>
      <trkpt lat="41.84592" lon="9.20376">
        <ele>2023.73</ele>
        <time>2019-09-09T11:30:27Z</time>
      </trkpt>
      <trkpt lat="41.84592" lon="9.20376">
        <ele>2023.59</ele>
        <time>2019-09-09T11:31:18Z</time>
      </trkpt>
      <trkpt lat="41.84592" lon="9.20376">
        <ele>2023.37</ele>
        <time>2019-09-09T11:32:18Z</time>
      </trkpt>
      <trkpt lat="41.84592" lon="9.20376">
        <ele>2023.33</ele>
        <time>2019-09-09T11:33:24Z</time>
      </trkpt>
      <trkpt lat="41.84592" lon="9.20376">
        <ele>2023.63</ele>
        <time>2019-09-09T11:34:22Z</time>
      </trkpt>
      <trkpt lat="41.84592" lon="9.20377">
        <ele>2023.88</ele>
        <time>2019-09-09T11:35:09Z</time>
      </trkpt>
      <trkpt lat="41.84592" lon="9.20377">
        <ele>2024.22</ele>
        <time>2019-09-09T11:36:11Z</time>
      </trkpt>
      <trkpt lat="41.84592" lon="9.20376">
        <ele>2023.55</ele>
        <time>2019-09-09T11:37:10Z</time>
      </trkpt>
      <trkpt lat="41.84592" lon="9.20377">
        <ele>2023.64</ele>
        <time>2019-09-09T11:38:22Z</time>
      </trkpt>
      <trkpt lat="41.84591" lon="9.20377">
        <ele>2024.38</ele>
        <time>2019-09-09T11:39:13Z</time>
      </trkpt>
      <trkpt lat="41.84591" lon="9.20377">
        <ele>2024.68</ele>
        <time>2019-09-09T11:40:02Z</time>
      </trkpt>
      <trkpt lat="41.84591" lon="9.20377">
        <ele>2024.51</ele>
        <time>2019-09-09T11:40:46Z</time>
      </trkpt>
      <trkpt lat="41.84592" lon="9.20377">
        <ele>2023.92</ele>
        <time>2019-09-09T11:41:35Z</time>
      </trkpt>
      <trkpt lat="41.84592" lon="9.20376">
        <ele>2022.68</ele>
        <time>2019-09-09T11:42:45Z</time>
      </trkpt>
      <trkpt lat="41.84592" lon="9.20376">
        <ele>2021.42</ele>
        <time>2019-09-09T11:43:45Z</time>
      </trkpt>
      <trkpt lat="41.84593" lon="9.20376">
        <ele>2020.62</ele>
        <time>2019-09-09T11:44:35Z</time>
      </trkpt>
      <trkpt lat="41.84593" lon="9.20376">
        <ele>2019.84</ele>
        <time>2019-09-09T11:45:36Z</time>
      </trkpt>
      <trkpt lat="41.84593" lon="9.20376">
        <ele>2019.19</ele>
        <time>2019-09-09T11:46:31Z</time>
      </trkpt>
      <trkpt lat="41.84593" lon="9.20375">
        <ele>2018.05</ele>
        <time>2019-09-09T11:47:22Z</time>
      </trkpt>
      <trkpt lat="41.84593" lon="9.20376">
        <ele>2018.64</ele>
        <time>2019-09-09T11:48:16Z</time>
      </trkpt>
      <trkpt lat="41.84592" lon="9.20376">
        <ele>2020.1</ele>
        <time>2019-09-09T11:48:48Z</time>
      </trkpt>
      <trkpt lat="41.84592" lon="9.20376">
        <ele>2020.6</ele>
        <time>2019-09-09T11:49:36Z</time>
      </trkpt>
      <trkpt lat="41.84592" lon="9.20376">
        <ele>2021.16</ele>
        <time>2019-09-09T11:50:39Z</time>
      </trkpt>
      <trkpt lat="41.84592" lon="9.20376">
        <ele>2021.04</ele>
        <time>2019-09-09T11:51:16Z</time>
      </trkpt>
      <trkpt lat="41.84592" lon="9.20375">
        <ele>2021.21</ele>
        <time>2019-09-09T11:51:42Z</time>
      </trkpt>
      <trkpt lat="41.84592" lon="9.20374">
        <ele>2021.18</ele>
        <time>2019-09-09T11:52:15Z</time>
      </trkpt>
      <trkpt lat="41.84591" lon="9.20375">
        <ele>2021.6</ele>
        <time>2019-09-09T11:52:36Z</time>
      </trkpt>
      <trkpt lat="41.84591" lon="9.20375">
        <ele>2021.79</ele>
        <time>2019-09-09T11:52:56Z</time>
      </trkpt>
      <trkpt lat="41.84591" lon="9.20377">
        <ele>2022.12</ele>
        <time>2019-09-09T11:53:33Z</time>
      </trkpt>
      <trkpt lat="41.84591" lon="9.20377">
        <ele>2023.24</ele>
        <time>2019-09-09T11:54:14Z</time>
      </trkpt>
      <trkpt lat="41.84592" lon="9.20376">
        <ele>2023.16</ele>
        <time>2019-09-09T11:54:39Z</time>
      </trkpt>
      <trkpt lat="41.84591" lon="9.20371">
        <ele>2022.37</ele>
        <time>2019-09-09T11:55:00Z</time>
      </trkpt>
      <trkpt lat="41.84597" lon="9.20372">
        <ele>2023.89</ele>
        <time>2019-09-09T11:55:15Z</time>
      </trkpt>
      <trkpt lat="41.84603" lon="9.20366">
        <ele>2025.71</ele>
        <time>2019-09-09T11:55:34Z</time>
      </trkpt>
      <trkpt lat="41.84604" lon="9.20364">
        <ele>2026.29</ele>
        <time>2019-09-09T11:55:52Z</time>
      </trkpt>
      <trkpt lat="41.84603" lon="9.20363">
        <ele>2026.38</ele>
        <time>2019-09-09T11:56:14Z</time>
      </trkpt>
      <trkpt lat="41.84602" lon="9.2036">
        <ele>2026.07</ele>
        <time>2019-09-09T11:56:27Z</time>
      </trkpt>
      <trkpt lat="41.84598" lon="9.20357">
        <ele>2026.63</ele>
        <time>2019-09-09T11:56:39Z</time>
      </trkpt>
      <trkpt lat="41.846" lon="9.20361">
        <ele>2026.56</ele>
        <time>2019-09-09T11:56:54Z</time>
      </trkpt>
      <trkpt lat="41.84601" lon="9.20362">
        <ele>2026.85</ele>
        <time>2019-09-09T11:57:25Z</time>
      </trkpt>
      <trkpt lat="41.84601" lon="9.20361">
        <ele>2026.96</ele>
        <time>2019-09-09T11:57:47Z</time>
      </trkpt>
      <trkpt lat="41.84603" lon="9.20354">
        <ele>2025.59</ele>
        <time>2019-09-09T11:58:04Z</time>
      </trkpt>
      <trkpt lat="41.84608" lon="9.20347">
        <ele>2022.27</ele>
        <time>2019-09-09T11:58:20Z</time>
      </trkpt>
      <trkpt lat="41.84604" lon="9.20336">
        <ele>2019.27</ele>
        <time>2019-09-09T11:58:34Z</time>
      </trkpt>
      <trkpt lat="41.84598" lon="9.20323">
        <ele>2015.69</ele>
        <time>2019-09-09T11:58:53Z</time>
      </trkpt>
      <trkpt lat="41.84589" lon="9.20314">
        <ele>2014.67</ele>
        <time>2019-09-09T11:59:06Z</time>
      </trkpt>
      <trkpt lat="41.84589" lon="9.20312">
        <ele>2014.33</ele>
        <time>2019-09-09T11:59:08Z</time>
      </trkpt>
      <trkpt lat="41.84573" lon="9.20301">
        <ele>2013.14</ele>
        <time>2019-09-09T11:59:26Z</time>
      </trkpt>
      <trkpt lat="41.84568" lon="9.20294">
        <ele>2011.76</ele>
        <time>2019-09-09T11:59:37Z</time>
      </trkpt>
      <trkpt lat="41.84555" lon="9.20282">
        <ele>2010.75</ele>
        <time>2019-09-09T11:59:53Z</time>
      </trkpt>
      <trkpt lat="41.84542" lon="9.20269">
        <ele>2009.57</ele>
        <time>2019-09-09T12:00:09Z</time>
      </trkpt>
      <trkpt lat="41.84531" lon="9.20259">
        <ele>2009.75</ele>
        <time>2019-09-09T12:00:26Z</time>
      </trkpt>
      <trkpt lat="41.84525" lon="9.20252">
        <ele>2010.99</ele>
        <time>2019-09-09T12:00:39Z</time>
      </trkpt>
      <trkpt lat="41.84518" lon="9.20245">
        <ele>2011.67</ele>
        <time>2019-09-09T12:00:50Z</time>
      </trkpt>
      <trkpt lat="41.84512" lon="9.20233">
        <ele>2011.76</ele>
        <time>2019-09-09T12:01:00Z</time>
      </trkpt>
      <trkpt lat="41.84508" lon="9.20222">
        <ele>2010.95</ele>
        <time>2019-09-09T12:01:12Z</time>
      </trkpt>
      <trkpt lat="41.84504" lon="9.2021">
        <ele>2010.37</ele>
        <time>2019-09-09T12:01:25Z</time>
      </trkpt>
      <trkpt lat="41.84502" lon="9.20193">
        <ele>2008.15</ele>
        <time>2019-09-09T12:01:40Z</time>
      </trkpt>
      <trkpt lat="41.84499" lon="9.20178">
        <ele>2006.61</ele>
        <time>2019-09-09T12:01:55Z</time>
      </trkpt>
      <trkpt lat="41.84495" lon="9.20173">
        <ele>2005.67</ele>
        <time>2019-09-09T12:02:03Z</time>
      </trkpt>
      <trkpt lat="41.8449" lon="9.20163">
        <ele>2004.47</ele>
        <time>2019-09-09T12:02:14Z</time>
      </trkpt>
      <trkpt lat="41.84484" lon="9.20147">
        <ele>2003.3</ele>
        <time>2019-09-09T12:02:31Z</time>
      </trkpt>
      <trkpt lat="41.84481" lon="9.20139">
        <ele>2002.06</ele>
        <time>2019-09-09T12:02:43Z</time>
      </trkpt>
      <trkpt lat="41.8448" lon="9.20138">
        <ele>2002.05</ele>
        <time>2019-09-09T12:02:45Z</time>
      </trkpt>
      <trkpt lat="41.84472" lon="9.20123">
        <ele>2000.98</ele>
        <time>2019-09-09T12:02:59Z</time>
      </trkpt>
      <trkpt lat="41.84469" lon="9.2011">
        <ele>1999.33</ele>
        <time>2019-09-09T12:03:14Z</time>
      </trkpt>
      <trkpt lat="41.84468" lon="9.20101">
        <ele>1996.7</ele>
        <time>2019-09-09T12:03:29Z</time>
      </trkpt>
      <trkpt lat="41.8447" lon="9.20095">
        <ele>1994.32</ele>
        <time>2019-09-09T12:03:42Z</time>
      </trkpt>
      <trkpt lat="41.8447" lon="9.20081">
        <ele>1990.84</ele>
        <time>2019-09-09T12:03:56Z</time>
      </trkpt>
      <trkpt lat="41.84465" lon="9.20066">
        <ele>1988.62</ele>
        <time>2019-09-09T12:04:11Z</time>
      </trkpt>
      <trkpt lat="41.84466" lon="9.20059">
        <ele>1986.89</ele>
        <time>2019-09-09T12:04:23Z</time>
      </trkpt>
      <trkpt lat="41.84466" lon="9.2005">
        <ele>1984.31</ele>
        <time>2019-09-09T12:04:36Z</time>
      </trkpt>
      <trkpt lat="41.84462" lon="9.2004">
        <ele>1982.7</ele>
        <time>2019-09-09T12:04:49Z</time>
      </trkpt>
      <trkpt lat="41.84459" lon="9.20032">
        <ele>1980.59</ele>
        <time>2019-09-09T12:05:05Z</time>
      </trkpt>
      <trkpt lat="41.84462" lon="9.20026">
        <ele>1978.49</ele>
        <time>2019-09-09T12:05:14Z</time>
      </trkpt>
      <trkpt lat="41.84464" lon="9.2002">
        <ele>1977.29</ele>
        <time>2019-09-09T12:05:25Z</time>
      </trkpt>
      <trkpt lat="41.84465" lon="9.20015">
        <ele>1974.55</ele>
        <time>2019-09-09T12:05:38Z</time>
      </trkpt>
      <trkpt lat="41.84463" lon="9.20007">
        <ele>1973.07</ele>
        <time>2019-09-09T12:05:50Z</time>
      </trkpt>
      <trkpt lat="41.84467" lon="9.20004">
        <ele>1971.12</ele>
        <time>2019-09-09T12:06:01Z</time>
      </trkpt>
      <trkpt lat="41.84463" lon="9.19995">
        <ele>1969.18</ele>
        <time>2019-09-09T12:06:15Z</time>
      </trkpt>
      <trkpt lat="41.84461" lon="9.19985">
        <ele>1967.13</ele>
        <time>2019-09-09T12:06:32Z</time>
      </trkpt>
      <trkpt lat="41.84459" lon="9.19976">
        <ele>1964.55</ele>
        <time>2019-09-09T12:06:48Z</time>
      </trkpt>
      <trkpt lat="41.84458" lon="9.19974">
        <ele>1964.25</ele>
        <time>2019-09-09T12:06:50Z</time>
      </trkpt>
      <trkpt lat="41.84452" lon="9.19964">
        <ele>1963.67</ele>
        <time>2019-09-09T12:07:04Z</time>
      </trkpt>
      <trkpt lat="41.84447" lon="9.19952">
        <ele>1962.43</ele>
        <time>2019-09-09T12:07:20Z</time>
      </trkpt>
      <trkpt lat="41.84448" lon="9.19946">
        <ele>1960.61</ele>
        <time>2019-09-09T12:07:33Z</time>
      </trkpt>
      <trkpt lat="41.84446" lon="9.19936">
        <ele>1957.92</ele>
        <time>2019-09-09T12:07:48Z</time>
      </trkpt>
      <trkpt lat="41.84449" lon="9.1993">
        <ele>1956.04</ele>
        <time>2019-09-09T12:08:03Z</time>
      </trkpt>
      <trkpt lat="41.84446" lon="9.19919">
        <ele>1953.4</ele>
        <time>2019-09-09T12:08:18Z</time>
      </trkpt>
      <trkpt lat="41.84445" lon="9.1991">
        <ele>1951.02</ele>
        <time>2019-09-09T12:08:33Z</time>
      </trkpt>
      <trkpt lat="41.84449" lon="9.19903">
        <ele>1948.53</ele>
        <time>2019-09-09T12:08:48Z</time>
      </trkpt>
      <trkpt lat="41.8445" lon="9.19892">
        <ele>1945.87</ele>
        <time>2019-09-09T12:09:02Z</time>
      </trkpt>
      <trkpt lat="41.84446" lon="9.19884">
        <ele>1944.7</ele>
        <time>2019-09-09T12:09:17Z</time>
      </trkpt>
      <trkpt lat="41.84447" lon="9.19879">
        <ele>1944.09</ele>
        <time>2019-09-09T12:09:36Z</time>
      </trkpt>
      <trkpt lat="41.84444" lon="9.1987">
        <ele>1942.94</ele>
        <time>2019-09-09T12:09:52Z</time>
      </trkpt>
      <trkpt lat="41.84445" lon="9.19869">
        <ele>1942.97</ele>
        <time>2019-09-09T12:10:24Z</time>
      </trkpt>
      <trkpt lat="41.84445" lon="9.19868">
        <ele>1942.32</ele>
        <time>2019-09-09T12:10:49Z</time>
      </trkpt>
      <trkpt lat="41.84439" lon="9.19862">
        <ele>1941.73</ele>
        <time>2019-09-09T12:11:17Z</time>
      </trkpt>
      <trkpt lat="41.84435" lon="9.19857">
        <ele>1940.27</ele>
        <time>2019-09-09T12:11:32Z</time>
      </trkpt>
      <trkpt lat="41.84433" lon="9.19844">
        <ele>1937.93</ele>
        <time>2019-09-09T12:11:47Z</time>
      </trkpt>
      <trkpt lat="41.84431" lon="9.1984">
        <ele>1937.72</ele>
        <time>2019-09-09T12:11:51Z</time>
      </trkpt>
      <trkpt lat="41.84424" lon="9.19833">
        <ele>1937.38</ele>
        <time>2019-09-09T12:11:59Z</time>
      </trkpt>
      <trkpt lat="41.84415" lon="9.19817">
        <ele>1935.43</ele>
        <time>2019-09-09T12:12:20Z</time>
      </trkpt>
      <trkpt lat="41.8441" lon="9.1981">
        <ele>1934.24</ele>
        <time>2019-09-09T12:12:36Z</time>
      </trkpt>
      <trkpt lat="41.84406" lon="9.19797">
        <ele>1933.2</ele>
        <time>2019-09-09T12:12:49Z</time>
      </trkpt>
      <trkpt lat="41.84406" lon="9.19783">
        <ele>1931.15</ele>
        <time>2019-09-09T12:13:05Z</time>
      </trkpt>
      <trkpt lat="41.84408" lon="9.19775">
        <ele>1928.86</ele>
        <time>2019-09-09T12:13:19Z</time>
      </trkpt>
      <trkpt lat="41.84411" lon="9.19767">
        <ele>1926.02</ele>
        <time>2019-09-09T12:13:34Z</time>
      </trkpt>
      <trkpt lat="41.84408" lon="9.19752">
        <ele>1923.15</ele>
        <time>2019-09-09T12:13:51Z</time>
      </trkpt>
      <trkpt lat="41.84413" lon="9.19743">
        <ele>1919.92</ele>
        <time>2019-09-09T12:14:07Z</time>
      </trkpt>
      <trkpt lat="41.84414" lon="9.19739">
        <ele>1919.27</ele>
        <time>2019-09-09T12:14:12Z</time>
      </trkpt>
      <trkpt lat="41.84417" lon="9.19728">
        <ele>1916.51</ele>
        <time>2019-09-09T12:14:27Z</time>
      </trkpt>
      <trkpt lat="41.8442" lon="9.19726">
        <ele>1915.37</ele>
        <time>2019-09-09T12:14:34Z</time>
      </trkpt>
      <trkpt lat="41.84417" lon="9.19713">
        <ele>1912.66</ele>
        <time>2019-09-09T12:14:49Z</time>
      </trkpt>
      <trkpt lat="41.84425" lon="9.1971">
        <ele>1909.61</ele>
        <time>2019-09-09T12:15:06Z</time>
      </trkpt>
      <trkpt lat="41.84428" lon="9.19702">
        <ele>1907.23</ele>
        <time>2019-09-09T12:15:19Z</time>
      </trkpt>
      <trkpt lat="41.8443" lon="9.19692">
        <ele>1904.93</ele>
        <time>2019-09-09T12:15:33Z</time>
      </trkpt>
      <trkpt lat="41.84432" lon="9.19683">
        <ele>1904.87</ele>
        <time>2019-09-09T12:15:43Z</time>
      </trkpt>
      <trkpt lat="41.84439" lon="9.19664">
        <ele>1902.72</ele>
        <time>2019-09-09T12:15:59Z</time>
      </trkpt>
      <trkpt lat="41.84439" lon="9.19656">
        <ele>1901.32</ele>
        <time>2019-09-09T12:16:07Z</time>
      </trkpt>
      <trkpt lat="41.84441" lon="9.19652">
        <ele>1900.72</ele>
        <time>2019-09-09T12:16:11Z</time>
      </trkpt>
      <trkpt lat="41.84441" lon="9.19633">
        <ele>1898.5</ele>
        <time>2019-09-09T12:16:28Z</time>
      </trkpt>
      <trkpt lat="41.84435" lon="9.19612">
        <ele>1896.68</ele>
        <time>2019-09-09T12:16:46Z</time>
      </trkpt>
      <trkpt lat="41.84434" lon="9.19609">
        <ele>1896.36</ele>
        <time>2019-09-09T12:16:48Z</time>
      </trkpt>
      <trkpt lat="41.84428" lon="9.19586">
        <ele>1895.54</ele>
        <time>2019-09-09T12:17:06Z</time>
      </trkpt>
      <trkpt lat="41.84415" lon="9.19567">
        <ele>1894.85</ele>
        <time>2019-09-09T12:17:24Z</time>
      </trkpt>
      <trkpt lat="41.84413" lon="9.19561">
        <ele>1894.57</ele>
        <time>2019-09-09T12:17:28Z</time>
      </trkpt>
      <trkpt lat="41.84405" lon="9.19544">
        <ele>1892.34</ele>
        <time>2019-09-09T12:17:45Z</time>
      </trkpt>
      <trkpt lat="41.844" lon="9.19534">
        <ele>1891.77</ele>
        <time>2019-09-09T12:17:55Z</time>
      </trkpt>
      <trkpt lat="41.84386" lon="9.19509">
        <ele>1889.89</ele>
        <time>2019-09-09T12:18:17Z</time>
      </trkpt>
      <trkpt lat="41.84371" lon="9.19496">
        <ele>1888.37</ele>
        <time>2019-09-09T12:18:36Z</time>
      </trkpt>
      <trkpt lat="41.84366" lon="9.19486">
        <ele>1886.42</ele>
        <time>2019-09-09T12:18:49Z</time>
      </trkpt>
      <trkpt lat="41.84364" lon="9.1948">
        <ele>1885.32</ele>
        <time>2019-09-09T12:18:56Z</time>
      </trkpt>
      <trkpt lat="41.84365" lon="9.19463">
        <ele>1883.11</ele>
        <time>2019-09-09T12:19:11Z</time>
      </trkpt>
      <trkpt lat="41.84366" lon="9.19447">
        <ele>1880.68</ele>
        <time>2019-09-09T12:19:27Z</time>
      </trkpt>
      <trkpt lat="41.84356" lon="9.19441">
        <ele>1878.47</ele>
        <time>2019-09-09T12:19:41Z</time>
      </trkpt>
      <trkpt lat="41.84354" lon="9.1944">
        <ele>1878.07</ele>
        <time>2019-09-09T12:19:44Z</time>
      </trkpt>
      <trkpt lat="41.84347" lon="9.19428">
        <ele>1876.34</ele>
        <time>2019-09-09T12:19:59Z</time>
      </trkpt>
      <trkpt lat="41.84344" lon="9.19422">
        <ele>1874.58</ele>
        <time>2019-09-09T12:20:07Z</time>
      </trkpt>
      <trkpt lat="41.84333" lon="9.19405">
        <ele>1873.53</ele>
        <time>2019-09-09T12:20:23Z</time>
      </trkpt>
      <trkpt lat="41.84316" lon="9.19399">
        <ele>1871.08</ele>
        <time>2019-09-09T12:20:41Z</time>
      </trkpt>
      <trkpt lat="41.84312" lon="9.19395">
        <ele>1870.2</ele>
        <time>2019-09-09T12:20:47Z</time>
      </trkpt>
      <trkpt lat="41.84296" lon="9.19387">
        <ele>1869.22</ele>
        <time>2019-09-09T12:21:03Z</time>
      </trkpt>
      <trkpt lat="41.84291" lon="9.19385">
        <ele>1869.17</ele>
        <time>2019-09-09T12:21:08Z</time>
      </trkpt>
      <trkpt lat="41.84273" lon="9.19377">
        <ele>1868.99</ele>
        <time>2019-09-09T12:21:26Z</time>
      </trkpt>
      <trkpt lat="41.84264" lon="9.19366">
        <ele>1867.57</ele>
        <time>2019-09-09T12:21:39Z</time>
      </trkpt>
      <trkpt lat="41.84261" lon="9.19363">
        <ele>1867.31</ele>
        <time>2019-09-09T12:21:43Z</time>
      </trkpt>
      <trkpt lat="41.84256" lon="9.19363">
        <ele>1867.59</ele>
        <time>2019-09-09T12:21:48Z</time>
      </trkpt>
      <trkpt lat="41.84252" lon="9.19361">
        <ele>1867.47</ele>
        <time>2019-09-09T12:21:53Z</time>
      </trkpt>
      <trkpt lat="41.8424" lon="9.19348">
        <ele>1865.9</ele>
        <time>2019-09-09T12:22:10Z</time>
      </trkpt>
      <trkpt lat="41.84229" lon="9.19342">
        <ele>1863.93</ele>
        <time>2019-09-09T12:22:26Z</time>
      </trkpt>
      <trkpt lat="41.84227" lon="9.19337">
        <ele>1863.23</ele>
        <time>2019-09-09T12:22:33Z</time>
      </trkpt>
      <trkpt lat="41.84216" lon="9.19323">
        <ele>1862.45</ele>
        <time>2019-09-09T12:22:50Z</time>
      </trkpt>
      <trkpt lat="41.84206" lon="9.1932">
        <ele>1861.43</ele>
        <time>2019-09-09T12:23:01Z</time>
      </trkpt>
      <trkpt lat="41.84204" lon="9.19317">
        <ele>1861.48</ele>
        <time>2019-09-09T12:23:04Z</time>
      </trkpt>
      <trkpt lat="41.84194" lon="9.19294">
        <ele>1861.28</ele>
        <time>2019-09-09T12:23:23Z</time>
      </trkpt>
      <trkpt lat="41.84192" lon="9.19293">
        <ele>1861.2</ele>
        <time>2019-09-09T12:23:25Z</time>
      </trkpt>
      <trkpt lat="41.84183" lon="9.19272">
        <ele>1860</ele>
        <time>2019-09-09T12:23:44Z</time>
      </trkpt>
      <trkpt lat="41.84178" lon="9.19254">
        <ele>1857.24</ele>
        <time>2019-09-09T12:24:02Z</time>
      </trkpt>
      <trkpt lat="41.84174" lon="9.19242">
        <ele>1854.86</ele>
        <time>2019-09-09T12:24:15Z</time>
      </trkpt>
      <trkpt lat="41.84169" lon="9.19225">
        <ele>1853.61</ele>
        <time>2019-09-09T12:24:29Z</time>
      </trkpt>
      <trkpt lat="41.84162" lon="9.19204">
        <ele>1851.09</ele>
        <time>2019-09-09T12:24:47Z</time>
      </trkpt>
      <trkpt lat="41.84155" lon="9.19193">
        <ele>1849.03</ele>
        <time>2019-09-09T12:25:03Z</time>
      </trkpt>
      <trkpt lat="41.84151" lon="9.19183">
        <ele>1846.83</ele>
        <time>2019-09-09T12:25:17Z</time>
      </trkpt>
      <trkpt lat="41.84143" lon="9.19173">
        <ele>1843.34</ele>
        <time>2019-09-09T12:25:34Z</time>
      </trkpt>
      <trkpt lat="41.84136" lon="9.19165">
        <ele>1839.79</ele>
        <time>2019-09-09T12:25:49Z</time>
      </trkpt>
      <trkpt lat="41.84133" lon="9.19154">
        <ele>1836.62</ele>
        <time>2019-09-09T12:26:04Z</time>
      </trkpt>
      <trkpt lat="41.84133" lon="9.19148">
        <ele>1835.55</ele>
        <time>2019-09-09T12:26:09Z</time>
      </trkpt>
      <trkpt lat="41.84125" lon="9.19139">
        <ele>1832.67</ele>
        <time>2019-09-09T12:26:23Z</time>
      </trkpt>
      <trkpt lat="41.84121" lon="9.19134">
        <ele>1830.52</ele>
        <time>2019-09-09T12:26:37Z</time>
      </trkpt>
      <trkpt lat="41.84119" lon="9.19131">
        <ele>1829.19</ele>
        <time>2019-09-09T12:26:41Z</time>
      </trkpt>
      <trkpt lat="41.84115" lon="9.1912">
        <ele>1830.46</ele>
        <time>2019-09-09T12:26:52Z</time>
      </trkpt>
      <trkpt lat="41.84113" lon="9.19103">
        <ele>1831.02</ele>
        <time>2019-09-09T12:27:06Z</time>
      </trkpt>
      <trkpt lat="41.84111" lon="9.19091">
        <ele>1830.81</ele>
        <time>2019-09-09T12:27:20Z</time>
      </trkpt>
      <trkpt lat="41.84107" lon="9.19079">
        <ele>1828.91</ele>
        <time>2019-09-09T12:27:36Z</time>
      </trkpt>
      <trkpt lat="41.84109" lon="9.19069">
        <ele>1825.18</ele>
        <time>2019-09-09T12:27:53Z</time>
      </trkpt>
      <trkpt lat="41.84111" lon="9.19061">
        <ele>1821.79</ele>
        <time>2019-09-09T12:28:08Z</time>
      </trkpt>
      <trkpt lat="41.84112" lon="9.19056">
        <ele>1819.61</ele>
        <time>2019-09-09T12:28:22Z</time>
      </trkpt>
      <trkpt lat="41.84114" lon="9.19049">
        <ele>1816.73</ele>
        <time>2019-09-09T12:28:36Z</time>
      </trkpt>
      <trkpt lat="41.84113" lon="9.19046">
        <ele>1815.98</ele>
        <time>2019-09-09T12:28:50Z</time>
      </trkpt>
      <trkpt lat="41.84113" lon="9.19047">
        <ele>1815.62</ele>
        <time>2019-09-09T12:29:24Z</time>
      </trkpt>
      <trkpt lat="41.84115" lon="9.1904">
        <ele>1813.11</ele>
        <time>2019-09-09T12:29:41Z</time>
      </trkpt>
      <trkpt lat="41.84115" lon="9.19036">
        <ele>1811.72</ele>
        <time>2019-09-09T12:29:54Z</time>
      </trkpt>
      <trkpt lat="41.84116" lon="9.19032">
        <ele>1810.11</ele>
        <time>2019-09-09T12:30:06Z</time>
      </trkpt>
      <trkpt lat="41.84115" lon="9.19024">
        <ele>1809.37</ele>
        <time>2019-09-09T12:30:21Z</time>
      </trkpt>
      <trkpt lat="41.8411" lon="9.19015">
        <ele>1810.18</ele>
        <time>2019-09-09T12:30:36Z</time>
      </trkpt>
      <trkpt lat="41.84108" lon="9.19006">
        <ele>1809.62</ele>
        <time>2019-09-09T12:30:51Z</time>
      </trkpt>
      <trkpt lat="41.84109" lon="9.18996">
        <ele>1807.74</ele>
        <time>2019-09-09T12:31:05Z</time>
      </trkpt>
      <trkpt lat="41.84113" lon="9.18988">
        <ele>1804.43</ele>
        <time>2019-09-09T12:31:23Z</time>
      </trkpt>
      <trkpt lat="41.84116" lon="9.18982">
        <ele>1801.18</ele>
        <time>2019-09-09T12:31:38Z</time>
      </trkpt>
      <trkpt lat="41.84119" lon="9.18981">
        <ele>1799.23</ele>
        <time>2019-09-09T12:31:51Z</time>
      </trkpt>
      <trkpt lat="41.8412" lon="9.18971">
        <ele>1796.4</ele>
        <time>2019-09-09T12:32:08Z</time>
      </trkpt>
      <trkpt lat="41.84122" lon="9.18967">
        <ele>1793.96</ele>
        <time>2019-09-09T12:32:20Z</time>
      </trkpt>
      <trkpt lat="41.84129" lon="9.18964">
        <ele>1791.38</ele>
        <time>2019-09-09T12:32:38Z</time>
      </trkpt>
      <trkpt lat="41.84129" lon="9.18963">
        <ele>1791.84</ele>
        <time>2019-09-09T12:33:03Z</time>
      </trkpt>
      <trkpt lat="41.84129" lon="9.18963">
        <ele>1791.54</ele>
        <time>2019-09-09T12:33:22Z</time>
      </trkpt>
      <trkpt lat="41.84128" lon="9.18963">
        <ele>1791.12</ele>
        <time>2019-09-09T12:33:54Z</time>
      </trkpt>
      <trkpt lat="41.84129" lon="9.18964">
        <ele>1790.73</ele>
        <time>2019-09-09T12:34:21Z</time>
      </trkpt>
      <trkpt lat="41.84129" lon="9.18963">
        <ele>1792.89</ele>
        <time>2019-09-09T12:34:52Z</time>
      </trkpt>
      <trkpt lat="41.84129" lon="9.18962">
        <ele>1792.56</ele>
        <time>2019-09-09T12:35:17Z</time>
      </trkpt>
      <trkpt lat="41.84128" lon="9.18963">
        <ele>1791.71</ele>
        <time>2019-09-09T12:36:00Z</time>
      </trkpt>
      <trkpt lat="41.84129" lon="9.18964">
        <ele>1791.8</ele>
        <time>2019-09-09T12:36:36Z</time>
      </trkpt>
      <trkpt lat="41.8413" lon="9.18963">
        <ele>1791.37</ele>
        <time>2019-09-09T12:37:26Z</time>
      </trkpt>
      <trkpt lat="41.8413" lon="9.18963">
        <ele>1792.07</ele>
        <time>2019-09-09T12:37:54Z</time>
      </trkpt>
      <trkpt lat="41.84131" lon="9.18962">
        <ele>1791.95</ele>
        <time>2019-09-09T12:38:25Z</time>
      </trkpt>
      <trkpt lat="41.84136" lon="9.18961">
        <ele>1789.82</ele>
        <time>2019-09-09T12:38:42Z</time>
      </trkpt>
      <trkpt lat="41.84142" lon="9.18962">
        <ele>1788.13</ele>
        <time>2019-09-09T12:38:57Z</time>
      </trkpt>
      <trkpt lat="41.84145" lon="9.18952">
        <ele>1785.49</ele>
        <time>2019-09-09T12:39:13Z</time>
      </trkpt>
      <trkpt lat="41.84146" lon="9.18941">
        <ele>1783.95</ele>
        <time>2019-09-09T12:39:27Z</time>
      </trkpt>
      <trkpt lat="41.84147" lon="9.18938">
        <ele>1782.96</ele>
        <time>2019-09-09T12:39:44Z</time>
      </trkpt>
      <trkpt lat="41.8415" lon="9.18928">
        <ele>1780.76</ele>
        <time>2019-09-09T12:40:02Z</time>
      </trkpt>
      <trkpt lat="41.84149" lon="9.18916">
        <ele>1778.04</ele>
        <time>2019-09-09T12:40:18Z</time>
      </trkpt>
      <trkpt lat="41.84142" lon="9.18905">
        <ele>1776.55</ele>
        <time>2019-09-09T12:40:32Z</time>
      </trkpt>
      <trkpt lat="41.84136" lon="9.18893">
        <ele>1774.25</ele>
        <time>2019-09-09T12:40:48Z</time>
      </trkpt>
      <trkpt lat="41.84135" lon="9.18883">
        <ele>1772.4</ele>
        <time>2019-09-09T12:41:02Z</time>
      </trkpt>
      <trkpt lat="41.84135" lon="9.18882">
        <ele>1772.2</ele>
        <time>2019-09-09T12:41:03Z</time>
      </trkpt>
      <trkpt lat="41.84123" lon="9.18867">
        <ele>1772.81</ele>
        <time>2019-09-09T12:41:18Z</time>
      </trkpt>
      <trkpt lat="41.84121" lon="9.1885">
        <ele>1772.83</ele>
        <time>2019-09-09T12:41:35Z</time>
      </trkpt>
      <trkpt lat="41.84126" lon="9.18842">
        <ele>1769.65</ele>
        <time>2019-09-09T12:41:48Z</time>
      </trkpt>
      <trkpt lat="41.84131" lon="9.18829">
        <ele>1766.93</ele>
        <time>2019-09-09T12:42:03Z</time>
      </trkpt>
      <trkpt lat="41.84134" lon="9.18819">
        <ele>1764.21</ele>
        <time>2019-09-09T12:42:18Z</time>
      </trkpt>
      <trkpt lat="41.84139" lon="9.1881">
        <ele>1760.68</ele>
        <time>2019-09-09T12:42:34Z</time>
      </trkpt>
      <trkpt lat="41.84138" lon="9.18799">
        <ele>1758.48</ele>
        <time>2019-09-09T12:42:46Z</time>
      </trkpt>
      <trkpt lat="41.84136" lon="9.1879">
        <ele>1755.61</ele>
        <time>2019-09-09T12:42:59Z</time>
      </trkpt>
      <trkpt lat="41.8413" lon="9.18778">
        <ele>1752.56</ele>
        <time>2019-09-09T12:43:17Z</time>
      </trkpt>
      <trkpt lat="41.84128" lon="9.18767">
        <ele>1750.05</ele>
        <time>2019-09-09T12:43:28Z</time>
      </trkpt>
      <trkpt lat="41.84119" lon="9.18755">
        <ele>1747.75</ele>
        <time>2019-09-09T12:43:43Z</time>
      </trkpt>
      <trkpt lat="41.8411" lon="9.18742">
        <ele>1747.67</ele>
        <time>2019-09-09T12:43:58Z</time>
      </trkpt>
      <trkpt lat="41.84099" lon="9.18728">
        <ele>1746.63</ele>
        <time>2019-09-09T12:44:15Z</time>
      </trkpt>
      <trkpt lat="41.84091" lon="9.18716">
        <ele>1746.89</ele>
        <time>2019-09-09T12:44:32Z</time>
      </trkpt>
      <trkpt lat="41.84087" lon="9.18704">
        <ele>1746.64</ele>
        <time>2019-09-09T12:44:46Z</time>
      </trkpt>
      <trkpt lat="41.84083" lon="9.18689">
        <ele>1746.86</ele>
        <time>2019-09-09T12:45:00Z</time>
      </trkpt>
      <trkpt lat="41.84079" lon="9.18674">
        <ele>1746.89</ele>
        <time>2019-09-09T12:45:11Z</time>
      </trkpt>
      <trkpt lat="41.84077" lon="9.18652">
        <ele>1747.27</ele>
        <time>2019-09-09T12:45:28Z</time>
      </trkpt>
      <trkpt lat="41.84073" lon="9.18632">
        <ele>1747.64</ele>
        <time>2019-09-09T12:45:43Z</time>
      </trkpt>
      <trkpt lat="41.84068" lon="9.18611">
        <ele>1747.42</ele>
        <time>2019-09-09T12:46:00Z</time>
      </trkpt>
      <trkpt lat="41.84068" lon="9.18597">
        <ele>1747.75</ele>
        <time>2019-09-09T12:46:16Z</time>
      </trkpt>
      <trkpt lat="41.84073" lon="9.18588">
        <ele>1745.22</ele>
        <time>2019-09-09T12:46:29Z</time>
      </trkpt>
      <trkpt lat="41.84073" lon="9.18583">
        <ele>1745.17</ele>
        <time>2019-09-09T12:46:33Z</time>
      </trkpt>
      <trkpt lat="41.84068" lon="9.1856">
        <ele>1745.99</ele>
        <time>2019-09-09T12:46:49Z</time>
      </trkpt>
      <trkpt lat="41.84065" lon="9.18545">
        <ele>1746.81</ele>
        <time>2019-09-09T12:47:05Z</time>
      </trkpt>
      <trkpt lat="41.84063" lon="9.1853">
        <ele>1748.49</ele>
        <time>2019-09-09T12:47:20Z</time>
      </trkpt>
      <trkpt lat="41.84058" lon="9.18512">
        <ele>1750.31</ele>
        <time>2019-09-09T12:47:38Z</time>
      </trkpt>
      <trkpt lat="41.84055" lon="9.18487">
        <ele>1750.41</ele>
        <time>2019-09-09T12:47:55Z</time>
      </trkpt>
      <trkpt lat="41.84051" lon="9.18474">
        <ele>1749.95</ele>
        <time>2019-09-09T12:48:06Z</time>
      </trkpt>
      <trkpt lat="41.8405" lon="9.18449">
        <ele>1748.01</ele>
        <time>2019-09-09T12:48:24Z</time>
      </trkpt>
      <trkpt lat="41.84042" lon="9.18429">
        <ele>1746.43</ele>
        <time>2019-09-09T12:48:41Z</time>
      </trkpt>
      <trkpt lat="41.84029" lon="9.18402">
        <ele>1745.58</ele>
        <time>2019-09-09T12:49:01Z</time>
      </trkpt>
      <trkpt lat="41.84016" lon="9.18377">
        <ele>1744.82</ele>
        <time>2019-09-09T12:49:21Z</time>
      </trkpt>
      <trkpt lat="41.84014" lon="9.18362">
        <ele>1744.02</ele>
        <time>2019-09-09T12:49:41Z</time>
      </trkpt>
      <trkpt lat="41.84011" lon="9.18367">
        <ele>1744.64</ele>
        <time>2019-09-09T12:50:00Z</time>
      </trkpt>
      <trkpt lat="41.84012" lon="9.18363">
        <ele>1743.8</ele>
        <time>2019-09-09T12:50:13Z</time>
      </trkpt>
      <trkpt lat="41.84012" lon="9.18361">
        <ele>1743.17</ele>
        <time>2019-09-09T12:50:31Z</time>
      </trkpt>
      <trkpt lat="41.84013" lon="9.18358">
        <ele>1742.39</ele>
        <time>2019-09-09T12:50:55Z</time>
      </trkpt>
      <trkpt lat="41.84013" lon="9.18353">
        <ele>1741.6</ele>
        <time>2019-09-09T12:51:00Z</time>
      </trkpt>
      <trkpt lat="41.84016" lon="9.18328">
        <ele>1738.95</ele>
        <time>2019-09-09T12:51:19Z</time>
      </trkpt>
      <trkpt lat="41.84018" lon="9.18316">
        <ele>1737.47</ele>
        <time>2019-09-09T12:51:33Z</time>
      </trkpt>
      <trkpt lat="41.84019" lon="9.18312">
        <ele>1735.78</ele>
        <time>2019-09-09T12:51:36Z</time>
      </trkpt>
      <trkpt lat="41.84019" lon="9.18305">
        <ele>1734.58</ele>
        <time>2019-09-09T12:51:41Z</time>
      </trkpt>
      <trkpt lat="41.84032" lon="9.18272">
        <ele>1736.76</ele>
        <time>2019-09-09T12:52:04Z</time>
      </trkpt>
      <trkpt lat="41.84049" lon="9.18254">
        <ele>1737.58</ele>
        <time>2019-09-09T12:52:24Z</time>
      </trkpt>
      <trkpt lat="41.84055" lon="9.18241">
        <ele>1739.5</ele>
        <time>2019-09-09T12:52:40Z</time>
      </trkpt>
      <trkpt lat="41.84057" lon="9.18227">
        <ele>1742.46</ele>
        <time>2019-09-09T12:52:56Z</time>
      </trkpt>
      <trkpt lat="41.84058" lon="9.18216">
        <ele>1744.45</ele>
        <time>2019-09-09T12:53:10Z</time>
      </trkpt>
      <trkpt lat="41.84066" lon="9.18196">
        <ele>1750.54</ele>
        <time>2019-09-09T12:53:26Z</time>
      </trkpt>
      <trkpt lat="41.84078" lon="9.18175">
        <ele>1751.35</ele>
        <time>2019-09-09T12:53:45Z</time>
      </trkpt>
      <trkpt lat="41.84081" lon="9.18161">
        <ele>1752.3</ele>
        <time>2019-09-09T12:53:57Z</time>
      </trkpt>
      <trkpt lat="41.84087" lon="9.18146">
        <ele>1755.98</ele>
        <time>2019-09-09T12:54:11Z</time>
      </trkpt>
      <trkpt lat="41.84093" lon="9.18139">
        <ele>1757.47</ele>
        <time>2019-09-09T12:54:24Z</time>
      </trkpt>
      <trkpt lat="41.84104" lon="9.18132">
        <ele>1757.58</ele>
        <time>2019-09-09T12:54:42Z</time>
      </trkpt>
      <trkpt lat="41.84111" lon="9.18121">
        <ele>1758.74</ele>
        <time>2019-09-09T12:54:57Z</time>
      </trkpt>
      <trkpt lat="41.84122" lon="9.18113">
        <ele>1759.88</ele>
        <time>2019-09-09T12:55:13Z</time>
      </trkpt>
      <trkpt lat="41.8413" lon="9.18101">
        <ele>1762.02</ele>
        <time>2019-09-09T12:55:30Z</time>
      </trkpt>
      <trkpt lat="41.8413" lon="9.18088">
        <ele>1763.28</ele>
        <time>2019-09-09T12:55:44Z</time>
      </trkpt>
      <trkpt lat="41.84128" lon="9.18081">
        <ele>1763.39</ele>
        <time>2019-09-09T12:56:01Z</time>
      </trkpt>
      <trkpt lat="41.84126" lon="9.18081">
        <ele>1763.41</ele>
        <time>2019-09-09T12:56:17Z</time>
      </trkpt>
      <trkpt lat="41.84125" lon="9.18082">
        <ele>1762.32</ele>
        <time>2019-09-09T12:56:37Z</time>
      </trkpt>
      <trkpt lat="41.84126" lon="9.18082">
        <ele>1761.99</ele>
        <time>2019-09-09T12:57:15Z</time>
      </trkpt>
      <trkpt lat="41.84126" lon="9.18083">
        <ele>1761.77</ele>
        <time>2019-09-09T12:58:48Z</time>
      </trkpt>
      <trkpt lat="41.84126" lon="9.18082">
        <ele>1762.4</ele>
        <time>2019-09-09T13:00:07Z</time>
      </trkpt>
      <trkpt lat="41.84125" lon="9.18075">
        <ele>1762.05</ele>
        <time>2019-09-09T13:00:18Z</time>
      </trkpt>
      <trkpt lat="41.84129" lon="9.18068">
        <ele>1760.26</ele>
        <time>2019-09-09T13:00:38Z</time>
      </trkpt>
      <trkpt lat="41.84129" lon="9.18066">
        <ele>1759.98</ele>
        <time>2019-09-09T13:00:40Z</time>
      </trkpt>
      <trkpt lat="41.84123" lon="9.18046">
        <ele>1758.14</ele>
        <time>2019-09-09T13:00:57Z</time>
      </trkpt>
      <trkpt lat="41.84123" lon="9.1804">
        <ele>1757.57</ele>
        <time>2019-09-09T13:01:02Z</time>
      </trkpt>
      <trkpt lat="41.84118" lon="9.18017">
        <ele>1755.56</ele>
        <time>2019-09-09T13:01:23Z</time>
      </trkpt>
      <trkpt lat="41.84119" lon="9.18009">
        <ele>1754.42</ele>
        <time>2019-09-09T13:01:33Z</time>
      </trkpt>
      <trkpt lat="41.8412" lon="9.18">
        <ele>1753.98</ele>
        <time>2019-09-09T13:01:41Z</time>
      </trkpt>
      <trkpt lat="41.84129" lon="9.17978">
        <ele>1754.43</ele>
        <time>2019-09-09T13:02:01Z</time>
      </trkpt>
      <trkpt lat="41.84134" lon="9.17966">
        <ele>1755.92</ele>
        <time>2019-09-09T13:02:17Z</time>
      </trkpt>
      <trkpt lat="41.84139" lon="9.17952">
        <ele>1757.23</ele>
        <time>2019-09-09T13:02:32Z</time>
      </trkpt>
      <trkpt lat="41.84138" lon="9.17949">
        <ele>1757.25</ele>
        <time>2019-09-09T13:02:35Z</time>
      </trkpt>
      <trkpt lat="41.84138" lon="9.17924">
        <ele>1757.27</ele>
        <time>2019-09-09T13:02:54Z</time>
      </trkpt>
      <trkpt lat="41.84139" lon="9.17918">
        <ele>1757.04</ele>
        <time>2019-09-09T13:02:58Z</time>
      </trkpt>
      <trkpt lat="41.84135" lon="9.17889">
        <ele>1755.9</ele>
        <time>2019-09-09T13:03:17Z</time>
      </trkpt>
      <trkpt lat="41.84135" lon="9.17886">
        <ele>1755.7</ele>
        <time>2019-09-09T13:03:19Z</time>
      </trkpt>
      <trkpt lat="41.84137" lon="9.17881">
        <ele>1755.27</ele>
        <time>2019-09-09T13:03:23Z</time>
      </trkpt>
      <trkpt lat="41.84134" lon="9.17854">
        <ele>1753.03</ele>
        <time>2019-09-09T13:03:42Z</time>
      </trkpt>
      <trkpt lat="41.84132" lon="9.17829">
        <ele>1750.92</ele>
        <time>2019-09-09T13:04:00Z</time>
      </trkpt>
      <trkpt lat="41.84134" lon="9.17811">
        <ele>1748.88</ele>
        <time>2019-09-09T13:04:15Z</time>
      </trkpt>
      <trkpt lat="41.84136" lon="9.17809">
        <ele>1748.47</ele>
        <time>2019-09-09T13:04:18Z</time>
      </trkpt>
      <trkpt lat="41.84145" lon="9.17792">
        <ele>1746.4</ele>
        <time>2019-09-09T13:04:37Z</time>
      </trkpt>
      <trkpt lat="41.84152" lon="9.17783">
        <ele>1744.97</ele>
        <time>2019-09-09T13:04:54Z</time>
      </trkpt>
      <trkpt lat="41.84166" lon="9.17789">
        <ele>1743.3</ele>
        <time>2019-09-09T13:05:13Z</time>
      </trkpt>
      <trkpt lat="41.84179" lon="9.178">
        <ele>1741.39</ele>
        <time>2019-09-09T13:05:31Z</time>
      </trkpt>
      <trkpt lat="41.84188" lon="9.17798">
        <ele>1740.43</ele>
        <time>2019-09-09T13:05:40Z</time>
      </trkpt>
      <trkpt lat="41.84191" lon="9.17796">
        <ele>1740.27</ele>
        <time>2019-09-09T13:05:43Z</time>
      </trkpt>
      <trkpt lat="41.8421" lon="9.17791">
        <ele>1739.19</ele>
        <time>2019-09-09T13:06:02Z</time>
      </trkpt>
      <trkpt lat="41.84224" lon="9.17782">
        <ele>1740.06</ele>
        <time>2019-09-09T13:06:17Z</time>
      </trkpt>
      <trkpt lat="41.84239" lon="9.17771">
        <ele>1740.44</ele>
        <time>2019-09-09T13:06:33Z</time>
      </trkpt>
      <trkpt lat="41.84242" lon="9.17767">
        <ele>1740.97</ele>
        <time>2019-09-09T13:06:37Z</time>
      </trkpt>
      <trkpt lat="41.84244" lon="9.17763">
        <ele>1741.49</ele>
        <time>2019-09-09T13:06:40Z</time>
      </trkpt>
      <trkpt lat="41.84261" lon="9.17758">
        <ele>1740.7</ele>
        <time>2019-09-09T13:06:58Z</time>
      </trkpt>
      <trkpt lat="41.84268" lon="9.17754">
        <ele>1740.13</ele>
        <time>2019-09-09T13:07:06Z</time>
      </trkpt>
      <trkpt lat="41.84272" lon="9.1775">
        <ele>1740.11</ele>
        <time>2019-09-09T13:07:11Z</time>
      </trkpt>
      <trkpt lat="41.84276" lon="9.17747">
        <ele>1739.8</ele>
        <time>2019-09-09T13:07:15Z</time>
      </trkpt>
      <trkpt lat="41.8428" lon="9.17743">
        <ele>1739.41</ele>
        <time>2019-09-09T13:07:20Z</time>
      </trkpt>
      <trkpt lat="41.84296" lon="9.17729">
        <ele>1739.26</ele>
        <time>2019-09-09T13:07:37Z</time>
      </trkpt>
      <trkpt lat="41.84312" lon="9.17719">
        <ele>1739.28</ele>
        <time>2019-09-09T13:07:55Z</time>
      </trkpt>
      <trkpt lat="41.84318" lon="9.17715">
        <ele>1739</ele>
        <time>2019-09-09T13:08:01Z</time>
      </trkpt>
      <trkpt lat="41.84329" lon="9.1771">
        <ele>1737.68</ele>
        <time>2019-09-09T13:08:12Z</time>
      </trkpt>
      <trkpt lat="41.84348" lon="9.17712">
        <ele>1734.87</ele>
        <time>2019-09-09T13:08:30Z</time>
      </trkpt>
      <trkpt lat="41.84368" lon="9.17715">
        <ele>1732.26</ele>
        <time>2019-09-09T13:08:49Z</time>
      </trkpt>
      <trkpt lat="41.84387" lon="9.17709">
        <ele>1729.52</ele>
        <time>2019-09-09T13:09:07Z</time>
      </trkpt>
      <trkpt lat="41.84409" lon="9.17711">
        <ele>1727.19</ele>
        <time>2019-09-09T13:09:26Z</time>
      </trkpt>
      <trkpt lat="41.8443" lon="9.17707">
        <ele>1725.45</ele>
        <time>2019-09-09T13:09:45Z</time>
      </trkpt>
      <trkpt lat="41.8445" lon="9.177">
        <ele>1724.13</ele>
        <time>2019-09-09T13:10:04Z</time>
      </trkpt>
      <trkpt lat="41.84468" lon="9.17701">
        <ele>1723.75</ele>
        <time>2019-09-09T13:10:23Z</time>
      </trkpt>
      <trkpt lat="41.84473" lon="9.17703">
        <ele>1723.45</ele>
        <time>2019-09-09T13:10:40Z</time>
      </trkpt>
      <trkpt lat="41.84491" lon="9.17702">
        <ele>1722.12</ele>
        <time>2019-09-09T13:10:59Z</time>
      </trkpt>
      <trkpt lat="41.84499" lon="9.17703">
        <ele>1721.11</ele>
        <time>2019-09-09T13:11:08Z</time>
      </trkpt>
      <trkpt lat="41.84518" lon="9.17708">
        <ele>1719.62</ele>
        <time>2019-09-09T13:11:26Z</time>
      </trkpt>
      <trkpt lat="41.84543" lon="9.17705">
        <ele>1719.23</ele>
        <time>2019-09-09T13:11:47Z</time>
      </trkpt>
      <trkpt lat="41.84564" lon="9.17707">
        <ele>1720.73</ele>
        <time>2019-09-09T13:12:07Z</time>
      </trkpt>
      <trkpt lat="41.84584" lon="9.1771">
        <ele>1721.86</ele>
        <time>2019-09-09T13:12:25Z</time>
      </trkpt>
      <trkpt lat="41.84608" lon="9.17722">
        <ele>1722.9</ele>
        <time>2019-09-09T13:12:47Z</time>
      </trkpt>
      <trkpt lat="41.84631" lon="9.17724">
        <ele>1722.82</ele>
        <time>2019-09-09T13:13:07Z</time>
      </trkpt>
      <trkpt lat="41.84647" lon="9.1773">
        <ele>1722.81</ele>
        <time>2019-09-09T13:13:22Z</time>
      </trkpt>
      <trkpt lat="41.84655" lon="9.17725">
        <ele>1722.35</ele>
        <time>2019-09-09T13:13:33Z</time>
      </trkpt>
      <trkpt lat="41.84662" lon="9.17709">
        <ele>1721.36</ele>
        <time>2019-09-09T13:13:49Z</time>
      </trkpt>
      <trkpt lat="41.84665" lon="9.17696">
        <ele>1720.11</ele>
        <time>2019-09-09T13:14:00Z</time>
      </trkpt>
      <trkpt lat="41.84669" lon="9.17692">
        <ele>1719.86</ele>
        <time>2019-09-09T13:14:06Z</time>
      </trkpt>
      <trkpt lat="41.84679" lon="9.17677">
        <ele>1718.99</ele>
        <time>2019-09-09T13:14:25Z</time>
      </trkpt>
      <trkpt lat="41.8468" lon="9.17676">
        <ele>1718.88</ele>
        <time>2019-09-09T13:14:39Z</time>
      </trkpt>
      <trkpt lat="41.84681" lon="9.17676">
        <ele>1718.79</ele>
        <time>2019-09-09T13:14:58Z</time>
      </trkpt>
      <trkpt lat="41.8468" lon="9.17675">
        <ele>1718.59</ele>
        <time>2019-09-09T13:15:16Z</time>
      </trkpt>
      <trkpt lat="41.84681" lon="9.17673">
        <ele>1718.63</ele>
        <time>2019-09-09T13:15:33Z</time>
      </trkpt>
      <trkpt lat="41.84687" lon="9.17671">
        <ele>1717.64</ele>
        <time>2019-09-09T13:15:45Z</time>
      </trkpt>
      <trkpt lat="41.84695" lon="9.17669">
        <ele>1717.08</ele>
        <time>2019-09-09T13:16:01Z</time>
      </trkpt>
      <trkpt lat="41.84703" lon="9.17664">
        <ele>1715.6</ele>
        <time>2019-09-09T13:16:16Z</time>
      </trkpt>
      <trkpt lat="41.84704" lon="9.17663">
        <ele>1715.39</ele>
        <time>2019-09-09T13:16:17Z</time>
      </trkpt>
      <trkpt lat="41.84708" lon="9.17655">
        <ele>1713.8</ele>
        <time>2019-09-09T13:16:26Z</time>
      </trkpt>
      <trkpt lat="41.84711" lon="9.17647">
        <ele>1711.93</ele>
        <time>2019-09-09T13:16:34Z</time>
      </trkpt>
      <trkpt lat="41.84725" lon="9.17634">
        <ele>1709.3</ele>
        <time>2019-09-09T13:16:51Z</time>
      </trkpt>
      <trkpt lat="41.84727" lon="9.1763">
        <ele>1708.73</ele>
        <time>2019-09-09T13:16:55Z</time>
      </trkpt>
      <trkpt lat="41.84736" lon="9.17611">
        <ele>1706.03</ele>
        <time>2019-09-09T13:17:14Z</time>
      </trkpt>
      <trkpt lat="41.84743" lon="9.17602">
        <ele>1705.03</ele>
        <time>2019-09-09T13:17:29Z</time>
      </trkpt>
      <trkpt lat="41.84752" lon="9.1759">
        <ele>1705.12</ele>
        <time>2019-09-09T13:17:44Z</time>
      </trkpt>
      <trkpt lat="41.84763" lon="9.17571">
        <ele>1703.07</ele>
        <time>2019-09-09T13:18:03Z</time>
      </trkpt>
      <trkpt lat="41.84772" lon="9.17557">
        <ele>1700.5</ele>
        <time>2019-09-09T13:18:18Z</time>
      </trkpt>
      <trkpt lat="41.84782" lon="9.17542">
        <ele>1697.67</ele>
        <time>2019-09-09T13:18:36Z</time>
      </trkpt>
      <trkpt lat="41.84792" lon="9.17526">
        <ele>1696.07</ele>
        <time>2019-09-09T13:18:52Z</time>
      </trkpt>
      <trkpt lat="41.84799" lon="9.17516">
        <ele>1694.55</ele>
        <time>2019-09-09T13:19:05Z</time>
      </trkpt>
      <trkpt lat="41.84809" lon="9.17504">
        <ele>1692.43</ele>
        <time>2019-09-09T13:19:22Z</time>
      </trkpt>
      <trkpt lat="41.84817" lon="9.17492">
        <ele>1690.73</ele>
        <time>2019-09-09T13:19:37Z</time>
      </trkpt>
      <trkpt lat="41.84827" lon="9.17479">
        <ele>1689.45</ele>
        <time>2019-09-09T13:19:53Z</time>
      </trkpt>
      <trkpt lat="41.84837" lon="9.17467">
        <ele>1688.71</ele>
        <time>2019-09-09T13:20:09Z</time>
      </trkpt>
      <trkpt lat="41.84838" lon="9.17464">
        <ele>1688.46</ele>
        <time>2019-09-09T13:20:12Z</time>
      </trkpt>
      <trkpt lat="41.84842" lon="9.17448">
        <ele>1686.82</ele>
        <time>2019-09-09T13:20:27Z</time>
      </trkpt>
      <trkpt lat="41.84854" lon="9.17437">
        <ele>1685.26</ele>
        <time>2019-09-09T13:20:43Z</time>
      </trkpt>
      <trkpt lat="41.84865" lon="9.17423">
        <ele>1684.15</ele>
        <time>2019-09-09T13:21:00Z</time>
      </trkpt>
      <trkpt lat="41.84876" lon="9.17409">
        <ele>1683.94</ele>
        <time>2019-09-09T13:21:17Z</time>
      </trkpt>
      <trkpt lat="41.84883" lon="9.17403">
        <ele>1683.58</ele>
        <time>2019-09-09T13:21:26Z</time>
      </trkpt>
      <trkpt lat="41.84884" lon="9.17401">
        <ele>1683.56</ele>
        <time>2019-09-09T13:21:28Z</time>
      </trkpt>
      <trkpt lat="41.84896" lon="9.17386">
        <ele>1682.28</ele>
        <time>2019-09-09T13:21:46Z</time>
      </trkpt>
      <trkpt lat="41.84898" lon="9.17383">
        <ele>1681.74</ele>
        <time>2019-09-09T13:21:50Z</time>
      </trkpt>
      <trkpt lat="41.84906" lon="9.17371">
        <ele>1679.8</ele>
        <time>2019-09-09T13:22:06Z</time>
      </trkpt>
      <trkpt lat="41.84915" lon="9.1737">
        <ele>1678.47</ele>
        <time>2019-09-09T13:22:20Z</time>
      </trkpt>
      <trkpt lat="41.8492" lon="9.17361">
        <ele>1676.72</ele>
        <time>2019-09-09T13:22:35Z</time>
      </trkpt>
      <trkpt lat="41.84924" lon="9.17354">
        <ele>1674.32</ele>
        <time>2019-09-09T13:22:50Z</time>
      </trkpt>
      <trkpt lat="41.84925" lon="9.17344">
        <ele>1671.99</ele>
        <time>2019-09-09T13:23:02Z</time>
      </trkpt>
      <trkpt lat="41.84928" lon="9.17332">
        <ele>1669.24</ele>
        <time>2019-09-09T13:23:18Z</time>
      </trkpt>
      <trkpt lat="41.84932" lon="9.17327">
        <ele>1666.81</ele>
        <time>2019-09-09T13:23:33Z</time>
      </trkpt>
      <trkpt lat="41.84936" lon="9.1732">
        <ele>1664.25</ele>
        <time>2019-09-09T13:23:46Z</time>
      </trkpt>
      <trkpt lat="41.84937" lon="9.17312">
        <ele>1662.05</ele>
        <time>2019-09-09T13:24:00Z</time>
      </trkpt>
      <trkpt lat="41.8494" lon="9.17304">
        <ele>1659.61</ele>
        <time>2019-09-09T13:24:15Z</time>
      </trkpt>
      <trkpt lat="41.84941" lon="9.17293">
        <ele>1656.61</ele>
        <time>2019-09-09T13:24:31Z</time>
      </trkpt>
      <trkpt lat="41.84941" lon="9.17285">
        <ele>1654.34</ele>
        <time>2019-09-09T13:24:44Z</time>
      </trkpt>
      <trkpt lat="41.84941" lon="9.17284">
        <ele>1654.1</ele>
        <time>2019-09-09T13:24:45Z</time>
      </trkpt>
      <trkpt lat="41.84937" lon="9.1727">
        <ele>1652.01</ele>
        <time>2019-09-09T13:25:01Z</time>
      </trkpt>
      <trkpt lat="41.84938" lon="9.17262">
        <ele>1649.89</ele>
        <time>2019-09-09T13:25:14Z</time>
      </trkpt>
      <trkpt lat="41.84941" lon="9.17257">
        <ele>1648.43</ele>
        <time>2019-09-09T13:25:27Z</time>
      </trkpt>
      <trkpt lat="41.84942" lon="9.1725">
        <ele>1645.98</ele>
        <time>2019-09-09T13:25:39Z</time>
      </trkpt>
      <trkpt lat="41.84942" lon="9.17248">
        <ele>1645.52</ele>
        <time>2019-09-09T13:25:41Z</time>
      </trkpt>
      <trkpt lat="41.84943" lon="9.17245">
        <ele>1644.79</ele>
        <time>2019-09-09T13:25:57Z</time>
      </trkpt>
      <trkpt lat="41.84945" lon="9.17243">
        <ele>1645.28</ele>
        <time>2019-09-09T13:26:22Z</time>
      </trkpt>
      <trkpt lat="41.84945" lon="9.17237">
        <ele>1643.99</ele>
        <time>2019-09-09T13:26:34Z</time>
      </trkpt>
      <trkpt lat="41.8495" lon="9.17227">
        <ele>1641.42</ele>
        <time>2019-09-09T13:26:50Z</time>
      </trkpt>
      <trkpt lat="41.8495" lon="9.17225">
        <ele>1641.27</ele>
        <time>2019-09-09T13:26:51Z</time>
      </trkpt>
      <trkpt lat="41.84949" lon="9.17223">
        <ele>1641</ele>
        <time>2019-09-09T13:26:53Z</time>
      </trkpt>
      <trkpt lat="41.8495" lon="9.17211">
        <ele>1639.06</ele>
        <time>2019-09-09T13:27:07Z</time>
      </trkpt>
      <trkpt lat="41.84956" lon="9.17197">
        <ele>1636.03</ele>
        <time>2019-09-09T13:27:26Z</time>
      </trkpt>
      <trkpt lat="41.84963" lon="9.17186">
        <ele>1633.59</ele>
        <time>2019-09-09T13:27:42Z</time>
      </trkpt>
      <trkpt lat="41.84964" lon="9.17169">
        <ele>1631.02</ele>
        <time>2019-09-09T13:28:01Z</time>
      </trkpt>
      <trkpt lat="41.84969" lon="9.17162">
        <ele>1628.67</ele>
        <time>2019-09-09T13:28:16Z</time>
      </trkpt>
      <trkpt lat="41.84975" lon="9.17166">
        <ele>1627.51</ele>
        <time>2019-09-09T13:28:29Z</time>
      </trkpt>
      <trkpt lat="41.84975" lon="9.17167">
        <ele>1627.44</ele>
        <time>2019-09-09T13:28:50Z</time>
      </trkpt>
      <trkpt lat="41.84976" lon="9.17167">
        <ele>1627.4</ele>
        <time>2019-09-09T13:29:09Z</time>
      </trkpt>
      <trkpt lat="41.84976" lon="9.17167">
        <ele>1627.74</ele>
        <time>2019-09-09T13:29:37Z</time>
      </trkpt>
      <trkpt lat="41.84976" lon="9.17166">
        <ele>1626.91</ele>
        <time>2019-09-09T13:30:01Z</time>
      </trkpt>
      <trkpt lat="41.84976" lon="9.17165">
        <ele>1626.53</ele>
        <time>2019-09-09T13:30:27Z</time>
      </trkpt>
      <trkpt lat="41.84977" lon="9.17166">
        <ele>1626.39</ele>
        <time>2019-09-09T13:30:44Z</time>
      </trkpt>
      <trkpt lat="41.84977" lon="9.17165">
        <ele>1626.12</ele>
        <time>2019-09-09T13:31:04Z</time>
      </trkpt>
      <trkpt lat="41.84976" lon="9.17165">
        <ele>1626.04</ele>
        <time>2019-09-09T13:31:31Z</time>
      </trkpt>
      <trkpt lat="41.84976" lon="9.17165">
        <ele>1625.86</ele>
        <time>2019-09-09T13:32:07Z</time>
      </trkpt>
      <trkpt lat="41.84979" lon="9.1717">
        <ele>1625.47</ele>
        <time>2019-09-09T13:32:27Z</time>
      </trkpt>
      <trkpt lat="41.84998" lon="9.17186">
        <ele>1623.63</ele>
        <time>2019-09-09T13:32:49Z</time>
      </trkpt>
      <trkpt lat="41.8502" lon="9.17196">
        <ele>1623.34</ele>
        <time>2019-09-09T13:33:10Z</time>
      </trkpt>
      <trkpt lat="41.85042" lon="9.17199">
        <ele>1625.04</ele>
        <time>2019-09-09T13:33:29Z</time>
      </trkpt>
      <trkpt lat="41.85065" lon="9.17196">
        <ele>1625.33</ele>
        <time>2019-09-09T13:33:49Z</time>
      </trkpt>
      <trkpt lat="41.85081" lon="9.17204">
        <ele>1626.74</ele>
        <time>2019-09-09T13:34:07Z</time>
      </trkpt>
      <trkpt lat="41.85086" lon="9.17206">
        <ele>1627.81</ele>
        <time>2019-09-09T13:34:13Z</time>
      </trkpt>
      <trkpt lat="41.85105" lon="9.17187">
        <ele>1628.98</ele>
        <time>2019-09-09T13:34:33Z</time>
      </trkpt>
      <trkpt lat="41.85123" lon="9.17166">
        <ele>1627.32</ele>
        <time>2019-09-09T13:34:53Z</time>
      </trkpt>
      <trkpt lat="41.85147" lon="9.17142">
        <ele>1624.89</ele>
        <time>2019-09-09T13:35:17Z</time>
      </trkpt>
      <trkpt lat="41.85164" lon="9.17125">
        <ele>1622.92</ele>
        <time>2019-09-09T13:35:35Z</time>
      </trkpt>
      <trkpt lat="41.85167" lon="9.17102">
        <ele>1621.96</ele>
        <time>2019-09-09T13:35:52Z</time>
      </trkpt>
      <trkpt lat="41.85151" lon="9.17082">
        <ele>1620.28</ele>
        <time>2019-09-09T13:36:10Z</time>
      </trkpt>
      <trkpt lat="41.85147" lon="9.17047">
        <ele>1619.35</ele>
        <time>2019-09-09T13:36:33Z</time>
      </trkpt>
      <trkpt lat="41.8515" lon="9.17011">
        <ele>1617.37</ele>
        <time>2019-09-09T13:36:56Z</time>
      </trkpt>
      <trkpt lat="41.85168" lon="9.16988">
        <ele>1615.09</ele>
        <time>2019-09-09T13:37:18Z</time>
      </trkpt>
      <trkpt lat="41.85186" lon="9.16971">
        <ele>1613.93</ele>
        <time>2019-09-09T13:37:38Z</time>
      </trkpt>
      <trkpt lat="41.8518" lon="9.16948">
        <ele>1613.65</ele>
        <time>2019-09-09T13:37:53Z</time>
      </trkpt>
      <trkpt lat="41.85161" lon="9.16918">
        <ele>1610.83</ele>
        <time>2019-09-09T13:38:16Z</time>
      </trkpt>
      <trkpt lat="41.85143" lon="9.16896">
        <ele>1607.63</ele>
        <time>2019-09-09T13:38:37Z</time>
      </trkpt>
      <trkpt lat="41.85128" lon="9.16868">
        <ele>1603.85</ele>
        <time>2019-09-09T13:39:01Z</time>
      </trkpt>
      <trkpt lat="41.85123" lon="9.16836">
        <ele>1600.63</ele>
        <time>2019-09-09T13:39:23Z</time>
      </trkpt>
      <trkpt lat="41.85113" lon="9.168">
        <ele>1597.22</ele>
        <time>2019-09-09T13:39:48Z</time>
      </trkpt>
      <trkpt lat="41.85099" lon="9.16767">
        <ele>1594.6</ele>
        <time>2019-09-09T13:40:11Z</time>
      </trkpt>
      <trkpt lat="41.85093" lon="9.16758">
        <ele>1593.78</ele>
        <time>2019-09-09T13:40:19Z</time>
      </trkpt>
      <trkpt lat="41.85099" lon="9.16734">
        <ele>1591.49</ele>
        <time>2019-09-09T13:40:38Z</time>
      </trkpt>
      <trkpt lat="41.85114" lon="9.16707">
        <ele>1588.83</ele>
        <time>2019-09-09T13:41:00Z</time>
      </trkpt>
      <trkpt lat="41.85121" lon="9.16696">
        <ele>1587.77</ele>
        <time>2019-09-09T13:41:11Z</time>
      </trkpt>
      <trkpt lat="41.85126" lon="9.1669">
        <ele>1586.81</ele>
        <time>2019-09-09T13:41:17Z</time>
      </trkpt>
      <trkpt lat="41.85143" lon="9.16677">
        <ele>1584.85</ele>
        <time>2019-09-09T13:41:35Z</time>
      </trkpt>
      <trkpt lat="41.85163" lon="9.16673">
        <ele>1583.02</ele>
        <time>2019-09-09T13:41:52Z</time>
      </trkpt>
      <trkpt lat="41.85188" lon="9.16667">
        <ele>1581.7</ele>
        <time>2019-09-09T13:42:12Z</time>
      </trkpt>
      <trkpt lat="41.8521" lon="9.16655">
        <ele>1580.37</ele>
        <time>2019-09-09T13:42:33Z</time>
      </trkpt>
      <trkpt lat="41.85211" lon="9.16655">
        <ele>1580.31</ele>
        <time>2019-09-09T13:42:34Z</time>
      </trkpt>
      <trkpt lat="41.85233" lon="9.16652">
        <ele>1577.93</ele>
        <time>2019-09-09T13:42:55Z</time>
      </trkpt>
      <trkpt lat="41.8526" lon="9.16643">
        <ele>1575.1</ele>
        <time>2019-09-09T13:43:18Z</time>
      </trkpt>
      <trkpt lat="41.85287" lon="9.16633">
        <ele>1572.7</ele>
        <time>2019-09-09T13:43:39Z</time>
      </trkpt>
      <trkpt lat="41.85314" lon="9.16636">
        <ele>1570.46</ele>
        <time>2019-09-09T13:44:01Z</time>
      </trkpt>
      <trkpt lat="41.8534" lon="9.1664">
        <ele>1567.34</ele>
        <time>2019-09-09T13:44:23Z</time>
      </trkpt>
      <trkpt lat="41.85372" lon="9.16638">
        <ele>1564.34</ele>
        <time>2019-09-09T13:44:48Z</time>
      </trkpt>
      <trkpt lat="41.854" lon="9.16641">
        <ele>1561.85</ele>
        <time>2019-09-09T13:45:10Z</time>
      </trkpt>
      <trkpt lat="41.85428" lon="9.16643">
        <ele>1559.19</ele>
        <time>2019-09-09T13:45:33Z</time>
      </trkpt>
      <trkpt lat="41.8545" lon="9.16649">
        <ele>1556.58</ele>
        <time>2019-09-09T13:45:55Z</time>
      </trkpt>
      <trkpt lat="41.85457" lon="9.16653">
        <ele>1556</ele>
        <time>2019-09-09T13:46:13Z</time>
      </trkpt>
      <trkpt lat="41.85457" lon="9.16653">
        <ele>1556.17</ele>
        <time>2019-09-09T13:46:50Z</time>
      </trkpt>
      <trkpt lat="41.85458" lon="9.16653">
        <ele>1555.6</ele>
        <time>2019-09-09T13:47:22Z</time>
      </trkpt>
      <trkpt lat="41.85458" lon="9.16652">
        <ele>1554.77</ele>
        <time>2019-09-09T13:48:00Z</time>
      </trkpt>
      <trkpt lat="41.85458" lon="9.16652">
        <ele>1554.15</ele>
        <time>2019-09-09T13:48:26Z</time>
      </trkpt>
      <trkpt lat="41.85458" lon="9.16652">
        <ele>1553.84</ele>
        <time>2019-09-09T13:48:55Z</time>
      </trkpt>
      <trkpt lat="41.85458" lon="9.16652">
        <ele>1553.24</ele>
        <time>2019-09-09T13:49:24Z</time>
      </trkpt>
      <trkpt lat="41.85458" lon="9.16652">
        <ele>1553.3</ele>
        <time>2019-09-09T13:49:55Z</time>
      </trkpt>
      <trkpt lat="41.8546" lon="9.16652">
        <ele>1553.1</ele>
        <time>2019-09-09T13:50:28Z</time>
      </trkpt>
      <trkpt lat="41.85464" lon="9.16645">
        <ele>1550.75</ele>
        <time>2019-09-09T13:50:43Z</time>
      </trkpt>
      <trkpt lat="41.85472" lon="9.1664">
        <ele>1548.8</ele>
        <time>2019-09-09T13:50:56Z</time>
      </trkpt>
      <trkpt lat="41.85484" lon="9.16632">
        <ele>1546.53</ele>
        <time>2019-09-09T13:51:14Z</time>
      </trkpt>
      <trkpt lat="41.85493" lon="9.16623">
        <ele>1543.88</ele>
        <time>2019-09-09T13:51:28Z</time>
      </trkpt>
      <trkpt lat="41.85499" lon="9.1662">
        <ele>1543.02</ele>
        <time>2019-09-09T13:51:36Z</time>
      </trkpt>
      <trkpt lat="41.85508" lon="9.16612">
        <ele>1541.53</ele>
        <time>2019-09-09T13:51:47Z</time>
      </trkpt>
      <trkpt lat="41.85522" lon="9.16611">
        <ele>1539.53</ele>
        <time>2019-09-09T13:52:00Z</time>
      </trkpt>
      <trkpt lat="41.85524" lon="9.16608">
        <ele>1539.21</ele>
        <time>2019-09-09T13:52:04Z</time>
      </trkpt>
      <trkpt lat="41.85535" lon="9.166">
        <ele>1539.06</ele>
        <time>2019-09-09T13:52:16Z</time>
      </trkpt>
      <trkpt lat="41.85534" lon="9.16591">
        <ele>1537.77</ele>
        <time>2019-09-09T13:52:29Z</time>
      </trkpt>
    </trkseg>
  </trk>
  <trk>
    <name><![CDATA[2019-09-09 15:52:46]]></name>
    <trkseg>
      <trkpt lat="41.85534" lon="9.16591">
        <ele>1537.77</ele>
        <time>2019-09-09T13:52:29Z</time>
      </trkpt>
      <trkpt lat="41.85535" lon="9.166">
        <ele>1539.06</ele>
        <time>2019-09-09T13:52:16Z</time>
      </trkpt>
      <trkpt lat="41.85524" lon="9.16608">
        <ele>1539.21</ele>
        <time>2019-09-09T13:52:04Z</time>
      </trkpt>
      <trkpt lat="41.85522" lon="9.16611">
        <ele>1539.53</ele>
        <time>2019-09-09T13:52:00Z</time>
      </trkpt>
      <trkpt lat="41.85508" lon="9.16612">
        <ele>1541.53</ele>
        <time>2019-09-09T13:51:47Z</time>
      </trkpt>
      <trkpt lat="41.85499" lon="9.1662">
        <ele>1543.02</ele>
        <time>2019-09-09T13:51:36Z</time>
      </trkpt>
      <trkpt lat="41.85493" lon="9.16623">
        <ele>1543.88</ele>
        <time>2019-09-09T13:51:28Z</time>
      </trkpt>
      <trkpt lat="41.85484" lon="9.16632">
        <ele>1546.53</ele>
        <time>2019-09-09T13:51:14Z</time>
      </trkpt>
      <trkpt lat="41.85472" lon="9.1664">
        <ele>1548.8</ele>
        <time>2019-09-09T13:50:56Z</time>
      </trkpt>
      <trkpt lat="41.85464" lon="9.16645">
        <ele>1550.75</ele>
        <time>2019-09-09T13:50:43Z</time>
      </trkpt>
      <trkpt lat="41.8546" lon="9.16652">
        <ele>1553.1</ele>
        <time>2019-09-09T13:50:28Z</time>
      </trkpt>
      <trkpt lat="41.85458" lon="9.16652">
        <ele>1553.3</ele>
        <time>2019-09-09T13:49:55Z</time>
      </trkpt>
      <trkpt lat="41.85458" lon="9.16652">
        <ele>1553.24</ele>
        <time>2019-09-09T13:49:24Z</time>
      </trkpt>
      <trkpt lat="41.85458" lon="9.16652">
        <ele>1553.84</ele>
        <time>2019-09-09T13:48:55Z</time>
      </trkpt>
      <trkpt lat="41.85458" lon="9.16652">
        <ele>1554.15</ele>
        <time>2019-09-09T13:48:26Z</time>
      </trkpt>
      <trkpt lat="41.85458" lon="9.16652">
        <ele>1554.77</ele>
        <time>2019-09-09T13:48:00Z</time>
      </trkpt>
      <trkpt lat="41.85458" lon="9.16653">
        <ele>1555.6</ele>
        <time>2019-09-09T13:47:22Z</time>
      </trkpt>
      <trkpt lat="41.85457" lon="9.16653">
        <ele>1556.17</ele>
        <time>2019-09-09T13:46:50Z</time>
      </trkpt>
      <trkpt lat="41.85457" lon="9.16653">
        <ele>1556</ele>
        <time>2019-09-09T13:46:13Z</time>
      </trkpt>
      <trkpt lat="41.8545" lon="9.16649">
        <ele>1556.58</ele>
        <time>2019-09-09T13:45:55Z</time>
      </trkpt>
      <trkpt lat="41.85428" lon="9.16643">
        <ele>1559.19</ele>
        <time>2019-09-09T13:45:33Z</time>
      </trkpt>
      <trkpt lat="41.854" lon="9.16641">
        <ele>1561.85</ele>
        <time>2019-09-09T13:45:10Z</time>
      </trkpt>
      <trkpt lat="41.85372" lon="9.16638">
        <ele>1564.34</ele>
        <time>2019-09-09T13:44:48Z</time>
      </trkpt>
      <trkpt lat="41.8534" lon="9.1664">
        <ele>1567.34</ele>
        <time>2019-09-09T13:44:23Z</time>
      </trkpt>
      <trkpt lat="41.85314" lon="9.16636">
        <ele>1570.46</ele>
        <time>2019-09-09T13:44:01Z</time>
      </trkpt>
      <trkpt lat="41.85287" lon="9.16633">
        <ele>1572.7</ele>
        <time>2019-09-09T13:43:39Z</time>
      </trkpt>
      <trkpt lat="41.8526" lon="9.16643">
        <ele>1575.1</ele>
        <time>2019-09-09T13:43:18Z</time>
      </trkpt>
      <trkpt lat="41.85233" lon="9.16652">
        <ele>1577.93</ele>
        <time>2019-09-09T13:42:55Z</time>
      </trkpt>
      <trkpt lat="41.85211" lon="9.16655">
        <ele>1580.31</ele>
        <time>2019-09-09T13:42:34Z</time>
      </trkpt>
      <trkpt lat="41.8521" lon="9.16655">
        <ele>1580.37</ele>
        <time>2019-09-09T13:42:33Z</time>
      </trkpt>
      <trkpt lat="41.85188" lon="9.16667">
        <ele>1581.7</ele>
        <time>2019-09-09T13:42:12Z</time>
      </trkpt>
      <trkpt lat="41.85163" lon="9.16673">
        <ele>1583.02</ele>
        <time>2019-09-09T13:41:52Z</time>
      </trkpt>
      <trkpt lat="41.85143" lon="9.16677">
        <ele>1584.85</ele>
        <time>2019-09-09T13:41:35Z</time>
      </trkpt>
      <trkpt lat="41.85126" lon="9.1669">
        <ele>1586.81</ele>
        <time>2019-09-09T13:41:17Z</time>
      </trkpt>
      <trkpt lat="41.85121" lon="9.16696">
        <ele>1587.77</ele>
        <time>2019-09-09T13:41:11Z</time>
      </trkpt>
      <trkpt lat="41.85114" lon="9.16707">
        <ele>1588.83</ele>
        <time>2019-09-09T13:41:00Z</time>
      </trkpt>
      <trkpt lat="41.85099" lon="9.16734">
        <ele>1591.49</ele>
        <time>2019-09-09T13:40:38Z</time>
      </trkpt>
      <trkpt lat="41.85093" lon="9.16758">
        <ele>1593.78</ele>
        <time>2019-09-09T13:40:19Z</time>
      </trkpt>
      <trkpt lat="41.85099" lon="9.16767">
        <ele>1594.6</ele>
        <time>2019-09-09T13:40:11Z</time>
      </trkpt>
      <trkpt lat="41.85113" lon="9.168">
        <ele>1597.22</ele>
        <time>2019-09-09T13:39:48Z</time>
      </trkpt>
      <trkpt lat="41.85123" lon="9.16836">
        <ele>1600.63</ele>
        <time>2019-09-09T13:39:23Z</time>
      </trkpt>
      <trkpt lat="41.85128" lon="9.16868">
        <ele>1603.85</ele>
        <time>2019-09-09T13:39:01Z</time>
      </trkpt>
      <trkpt lat="41.85143" lon="9.16896">
        <ele>1607.63</ele>
        <time>2019-09-09T13:38:37Z</time>
      </trkpt>
      <trkpt lat="41.85161" lon="9.16918">
        <ele>1610.83</ele>
        <time>2019-09-09T13:38:16Z</time>
      </trkpt>
      <trkpt lat="41.8518" lon="9.16948">
        <ele>1613.65</ele>
        <time>2019-09-09T13:37:53Z</time>
      </trkpt>
      <trkpt lat="41.85186" lon="9.16971">
        <ele>1613.93</ele>
        <time>2019-09-09T13:37:38Z</time>
      </trkpt>
      <trkpt lat="41.85168" lon="9.16988">
        <ele>1615.09</ele>
        <time>2019-09-09T13:37:18Z</time>
      </trkpt>
      <trkpt lat="41.8515" lon="9.17011">
        <ele>1617.37</ele>
        <time>2019-09-09T13:36:56Z</time>
      </trkpt>
      <trkpt lat="41.85147" lon="9.17047">
        <ele>1619.35</ele>
        <time>2019-09-09T13:36:33Z</time>
      </trkpt>
      <trkpt lat="41.85151" lon="9.17082">
        <ele>1620.28</ele>
        <time>2019-09-09T13:36:10Z</time>
      </trkpt>
      <trkpt lat="41.85167" lon="9.17102">
        <ele>1621.96</ele>
        <time>2019-09-09T13:35:52Z</time>
      </trkpt>
      <trkpt lat="41.85164" lon="9.17125">
        <ele>1622.92</ele>
        <time>2019-09-09T13:35:35Z</time>
      </trkpt>
      <trkpt lat="41.85147" lon="9.17142">
        <ele>1624.89</ele>
        <time>2019-09-09T13:35:17Z</time>
      </trkpt>
      <trkpt lat="41.85123" lon="9.17166">
        <ele>1627.32</ele>
        <time>2019-09-09T13:34:53Z</time>
      </trkpt>
      <trkpt lat="41.85105" lon="9.17187">
        <ele>1628.98</ele>
        <time>2019-09-09T13:34:33Z</time>
      </trkpt>
      <trkpt lat="41.85086" lon="9.17206">
        <ele>1627.81</ele>
        <time>2019-09-09T13:34:13Z</time>
      </trkpt>
      <trkpt lat="41.85081" lon="9.17204">
        <ele>1626.74</ele>
        <time>2019-09-09T13:34:07Z</time>
      </trkpt>
      <trkpt lat="41.85065" lon="9.17196">
        <ele>1625.33</ele>
        <time>2019-09-09T13:33:49Z</time>
      </trkpt>
      <trkpt lat="41.85042" lon="9.17199">
        <ele>1625.04</ele>
        <time>2019-09-09T13:33:29Z</time>
      </trkpt>
      <trkpt lat="41.8502" lon="9.17196">
        <ele>1623.34</ele>
        <time>2019-09-09T13:33:10Z</time>
      </trkpt>
      <trkpt lat="41.84998" lon="9.17186">
        <ele>1623.63</ele>
        <time>2019-09-09T13:32:49Z</time>
      </trkpt>
      <trkpt lat="41.84979" lon="9.1717">
        <ele>1625.47</ele>
        <time>2019-09-09T13:32:27Z</time>
      </trkpt>
      <trkpt lat="41.84976" lon="9.17165">
        <ele>1625.86</ele>
        <time>2019-09-09T13:32:07Z</time>
      </trkpt>
      <trkpt lat="41.84976" lon="9.17165">
        <ele>1626.04</ele>
        <time>2019-09-09T13:31:31Z</time>
      </trkpt>
      <trkpt lat="41.84977" lon="9.17165">
        <ele>1626.12</ele>
        <time>2019-09-09T13:31:04Z</time>
      </trkpt>
      <trkpt lat="41.84977" lon="9.17166">
        <ele>1626.39</ele>
        <time>2019-09-09T13:30:44Z</time>
      </trkpt>
      <trkpt lat="41.84976" lon="9.17165">
        <ele>1626.53</ele>
        <time>2019-09-09T13:30:27Z</time>
      </trkpt>
      <trkpt lat="41.84976" lon="9.17166">
        <ele>1626.91</ele>
        <time>2019-09-09T13:30:01Z</time>
      </trkpt>
      <trkpt lat="41.84976" lon="9.17167">
        <ele>1627.74</ele>
        <time>2019-09-09T13:29:37Z</time>
      </trkpt>
      <trkpt lat="41.84976" lon="9.17167">
        <ele>1627.4</ele>
        <time>2019-09-09T13:29:09Z</time>
      </trkpt>
      <trkpt lat="41.84975" lon="9.17167">
        <ele>1627.44</ele>
        <time>2019-09-09T13:28:50Z</time>
      </trkpt>
      <trkpt lat="41.84975" lon="9.17166">
        <ele>1627.51</ele>
        <time>2019-09-09T13:28:29Z</time>
      </trkpt>
      <trkpt lat="41.84969" lon="9.17162">
        <ele>1628.67</ele>
        <time>2019-09-09T13:28:16Z</time>
      </trkpt>
      <trkpt lat="41.84964" lon="9.17169">
        <ele>1631.02</ele>
        <time>2019-09-09T13:28:01Z</time>
      </trkpt>
      <trkpt lat="41.84963" lon="9.17186">
        <ele>1633.59</ele>
        <time>2019-09-09T13:27:42Z</time>
      </trkpt>
      <trkpt lat="41.84956" lon="9.17197">
        <ele>1636.03</ele>
        <time>2019-09-09T13:27:26Z</time>
      </trkpt>
      <trkpt lat="41.8495" lon="9.17211">
        <ele>1639.06</ele>
        <time>2019-09-09T13:27:07Z</time>
      </trkpt>
      <trkpt lat="41.84949" lon="9.17223">
        <ele>1641</ele>
        <time>2019-09-09T13:26:53Z</time>
      </trkpt>
      <trkpt lat="41.8495" lon="9.17225">
        <ele>1641.27</ele>
        <time>2019-09-09T13:26:51Z</time>
      </trkpt>
      <trkpt lat="41.8495" lon="9.17227">
        <ele>1641.42</ele>
        <time>2019-09-09T13:26:50Z</time>
      </trkpt>
      <trkpt lat="41.84945" lon="9.17237">
        <ele>1643.99</ele>
        <time>2019-09-09T13:26:34Z</time>
      </trkpt>
      <trkpt lat="41.84945" lon="9.17243">
        <ele>1645.28</ele>
        <time>2019-09-09T13:26:22Z</time>
      </trkpt>
      <trkpt lat="41.84943" lon="9.17245">
        <ele>1644.79</ele>
        <time>2019-09-09T13:25:57Z</time>
      </trkpt>
      <trkpt lat="41.84942" lon="9.17248">
        <ele>1645.52</ele>
        <time>2019-09-09T13:25:41Z</time>
      </trkpt>
      <trkpt lat="41.84942" lon="9.1725">
        <ele>1645.98</ele>
        <time>2019-09-09T13:25:39Z</time>
      </trkpt>
      <trkpt lat="41.84941" lon="9.17257">
        <ele>1648.43</ele>
        <time>2019-09-09T13:25:27Z</time>
      </trkpt>
      <trkpt lat="41.84938" lon="9.17262">
        <ele>1649.89</ele>
        <time>2019-09-09T13:25:14Z</time>
      </trkpt>
      <trkpt lat="41.84937" lon="9.1727">
        <ele>1652.01</ele>
        <time>2019-09-09T13:25:01Z</time>
      </trkpt>
      <trkpt lat="41.84941" lon="9.17284">
        <ele>1654.1</ele>
        <time>2019-09-09T13:24:45Z</time>
      </trkpt>
      <trkpt lat="41.84941" lon="9.17285">
        <ele>1654.34</ele>
        <time>2019-09-09T13:24:44Z</time>
      </trkpt>
      <trkpt lat="41.84941" lon="9.17293">
        <ele>1656.61</ele>
        <time>2019-09-09T13:24:31Z</time>
      </trkpt>
      <trkpt lat="41.8494" lon="9.17304">
        <ele>1659.61</ele>
        <time>2019-09-09T13:24:15Z</time>
      </trkpt>
      <trkpt lat="41.84937" lon="9.17312">
        <ele>1662.05</ele>
        <time>2019-09-09T13:24:00Z</time>
      </trkpt>
      <trkpt lat="41.84936" lon="9.1732">
        <ele>1664.25</ele>
        <time>2019-09-09T13:23:46Z</time>
      </trkpt>
      <trkpt lat="41.84932" lon="9.17327">
        <ele>1666.81</ele>
        <time>2019-09-09T13:23:33Z</time>
      </trkpt>
      <trkpt lat="41.84928" lon="9.17332">
        <ele>1669.24</ele>
        <time>2019-09-09T13:23:18Z</time>
      </trkpt>
      <trkpt lat="41.84925" lon="9.17344">
        <ele>1671.99</ele>
        <time>2019-09-09T13:23:02Z</time>
      </trkpt>
      <trkpt lat="41.84924" lon="9.17354">
        <ele>1674.32</ele>
        <time>2019-09-09T13:22:50Z</time>
      </trkpt>
      <trkpt lat="41.8492" lon="9.17361">
        <ele>1676.72</ele>
        <time>2019-09-09T13:22:35Z</time>
      </trkpt>
      <trkpt lat="41.84915" lon="9.1737">
        <ele>1678.47</ele>
        <time>2019-09-09T13:22:20Z</time>
      </trkpt>
      <trkpt lat="41.84906" lon="9.17371">
        <ele>1679.8</ele>
        <time>2019-09-09T13:22:06Z</time>
      </trkpt>
      <trkpt lat="41.84898" lon="9.17383">
        <ele>1681.74</ele>
        <time>2019-09-09T13:21:50Z</time>
      </trkpt>
      <trkpt lat="41.84896" lon="9.17386">
        <ele>1682.28</ele>
        <time>2019-09-09T13:21:46Z</time>
      </trkpt>
      <trkpt lat="41.84884" lon="9.17401">
        <ele>1683.56</ele>
        <time>2019-09-09T13:21:28Z</time>
      </trkpt>
      <trkpt lat="41.84883" lon="9.17403">
        <ele>1683.58</ele>
        <time>2019-09-09T13:21:26Z</time>
      </trkpt>
      <trkpt lat="41.84876" lon="9.17409">
        <ele>1683.94</ele>
        <time>2019-09-09T13:21:17Z</time>
      </trkpt>
      <trkpt lat="41.84865" lon="9.17423">
        <ele>1684.15</ele>
        <time>2019-09-09T13:21:00Z</time>
      </trkpt>
      <trkpt lat="41.84854" lon="9.17437">
        <ele>1685.26</ele>
        <time>2019-09-09T13:20:43Z</time>
      </trkpt>
      <trkpt lat="41.84842" lon="9.17448">
        <ele>1686.82</ele>
        <time>2019-09-09T13:20:27Z</time>
      </trkpt>
      <trkpt lat="41.84838" lon="9.17464">
        <ele>1688.46</ele>
        <time>2019-09-09T13:20:12Z</time>
      </trkpt>
      <trkpt lat="41.84837" lon="9.17467">
        <ele>1688.71</ele>
        <time>2019-09-09T13:20:09Z</time>
      </trkpt>
      <trkpt lat="41.84827" lon="9.17479">
        <ele>1689.45</ele>
        <time>2019-09-09T13:19:53Z</time>
      </trkpt>
      <trkpt lat="41.84817" lon="9.17492">
        <ele>1690.73</ele>
        <time>2019-09-09T13:19:37Z</time>
      </trkpt>
      <trkpt lat="41.84809" lon="9.17504">
        <ele>1692.43</ele>
        <time>2019-09-09T13:19:22Z</time>
      </trkpt>
      <trkpt lat="41.84799" lon="9.17516">
        <ele>1694.55</ele>
        <time>2019-09-09T13:19:05Z</time>
      </trkpt>
      <trkpt lat="41.84792" lon="9.17526">
        <ele>1696.07</ele>
        <time>2019-09-09T13:18:52Z</time>
      </trkpt>
      <trkpt lat="41.84782" lon="9.17542">
        <ele>1697.67</ele>
        <time>2019-09-09T13:18:36Z</time>
      </trkpt>
      <trkpt lat="41.84772" lon="9.17557">
        <ele>1700.5</ele>
        <time>2019-09-09T13:18:18Z</time>
      </trkpt>
      <trkpt lat="41.84763" lon="9.17571">
        <ele>1703.07</ele>
        <time>2019-09-09T13:18:03Z</time>
      </trkpt>
      <trkpt lat="41.84752" lon="9.1759">
        <ele>1705.12</ele>
        <time>2019-09-09T13:17:44Z</time>
      </trkpt>
      <trkpt lat="41.84743" lon="9.17602">
        <ele>1705.03</ele>
        <time>2019-09-09T13:17:29Z</time>
      </trkpt>
      <trkpt lat="41.84736" lon="9.17611">
        <ele>1706.03</ele>
        <time>2019-09-09T13:17:14Z</time>
      </trkpt>
      <trkpt lat="41.84727" lon="9.1763">
        <ele>1708.73</ele>
        <time>2019-09-09T13:16:55Z</time>
      </trkpt>
      <trkpt lat="41.84725" lon="9.17634">
        <ele>1709.3</ele>
        <time>2019-09-09T13:16:51Z</time>
      </trkpt>
      <trkpt lat="41.84711" lon="9.17647">
        <ele>1711.93</ele>
        <time>2019-09-09T13:16:34Z</time>
      </trkpt>
      <trkpt lat="41.84708" lon="9.17655">
        <ele>1713.8</ele>
        <time>2019-09-09T13:16:26Z</time>
      </trkpt>
      <trkpt lat="41.84704" lon="9.17663">
        <ele>1715.39</ele>
        <time>2019-09-09T13:16:17Z</time>
      </trkpt>
      <trkpt lat="41.84703" lon="9.17664">
        <ele>1715.6</ele>
        <time>2019-09-09T13:16:16Z</time>
      </trkpt>
      <trkpt lat="41.84695" lon="9.17669">
        <ele>1717.08</ele>
        <time>2019-09-09T13:16:01Z</time>
      </trkpt>
      <trkpt lat="41.84687" lon="9.17671">
        <ele>1717.64</ele>
        <time>2019-09-09T13:15:45Z</time>
      </trkpt>
      <trkpt lat="41.84681" lon="9.17673">
        <ele>1718.63</ele>
        <time>2019-09-09T13:15:33Z</time>
      </trkpt>
      <trkpt lat="41.8468" lon="9.17675">
        <ele>1718.59</ele>
        <time>2019-09-09T13:15:16Z</time>
      </trkpt>
      <trkpt lat="41.84681" lon="9.17676">
        <ele>1718.79</ele>
        <time>2019-09-09T13:14:58Z</time>
      </trkpt>
      <trkpt lat="41.8468" lon="9.17676">
        <ele>1718.88</ele>
        <time>2019-09-09T13:14:39Z</time>
      </trkpt>
      <trkpt lat="41.84679" lon="9.17677">
        <ele>1718.99</ele>
        <time>2019-09-09T13:14:25Z</time>
      </trkpt>
      <trkpt lat="41.84669" lon="9.17692">
        <ele>1719.86</ele>
        <time>2019-09-09T13:14:06Z</time>
      </trkpt>
      <trkpt lat="41.84665" lon="9.17696">
        <ele>1720.11</ele>
        <time>2019-09-09T13:14:00Z</time>
      </trkpt>
      <trkpt lat="41.84662" lon="9.17709">
        <ele>1721.36</ele>
        <time>2019-09-09T13:13:49Z</time>
      </trkpt>
      <trkpt lat="41.84655" lon="9.17725">
        <ele>1722.35</ele>
        <time>2019-09-09T13:13:33Z</time>
      </trkpt>
      <trkpt lat="41.84647" lon="9.1773">
        <ele>1722.81</ele>
        <time>2019-09-09T13:13:22Z</time>
      </trkpt>
      <trkpt lat="41.84631" lon="9.17724">
        <ele>1722.82</ele>
        <time>2019-09-09T13:13:07Z</time>
      </trkpt>
      <trkpt lat="41.84608" lon="9.17722">
        <ele>1722.9</ele>
        <time>2019-09-09T13:12:47Z</time>
      </trkpt>
      <trkpt lat="41.84584" lon="9.1771">
        <ele>1721.86</ele>
        <time>2019-09-09T13:12:25Z</time>
      </trkpt>
      <trkpt lat="41.84564" lon="9.17707">
        <ele>1720.73</ele>
        <time>2019-09-09T13:12:07Z</time>
      </trkpt>
      <trkpt lat="41.84543" lon="9.17705">
        <ele>1719.23</ele>
        <time>2019-09-09T13:11:47Z</time>
      </trkpt>
      <trkpt lat="41.84518" lon="9.17708">
        <ele>1719.62</ele>
        <time>2019-09-09T13:11:26Z</time>
      </trkpt>
      <trkpt lat="41.84499" lon="9.17703">
        <ele>1721.11</ele>
        <time>2019-09-09T13:11:08Z</time>
      </trkpt>
      <trkpt lat="41.84491" lon="9.17702">
        <ele>1722.12</ele>
        <time>2019-09-09T13:10:59Z</time>
      </trkpt>
      <trkpt lat="41.84473" lon="9.17703">
        <ele>1723.45</ele>
        <time>2019-09-09T13:10:40Z</time>
      </trkpt>
      <trkpt lat="41.84468" lon="9.17701">
        <ele>1723.75</ele>
        <time>2019-09-09T13:10:23Z</time>
      </trkpt>
      <trkpt lat="41.8445" lon="9.177">
        <ele>1724.13</ele>
        <time>2019-09-09T13:10:04Z</time>
      </trkpt>
      <trkpt lat="41.8443" lon="9.17707">
        <ele>1725.45</ele>
        <time>2019-09-09T13:09:45Z</time>
      </trkpt>
      <trkpt lat="41.84409" lon="9.17711">
        <ele>1727.19</ele>
        <time>2019-09-09T13:09:26Z</time>
      </trkpt>
      <trkpt lat="41.84387" lon="9.17709">
        <ele>1729.52</ele>
        <time>2019-09-09T13:09:07Z</time>
      </trkpt>
      <trkpt lat="41.84368" lon="9.17715">
        <ele>1732.26</ele>
        <time>2019-09-09T13:08:49Z</time>
      </trkpt>
      <trkpt lat="41.84348" lon="9.17712">
        <ele>1734.87</ele>
        <time>2019-09-09T13:08:30Z</time>
      </trkpt>
      <trkpt lat="41.84329" lon="9.1771">
        <ele>1737.68</ele>
        <time>2019-09-09T13:08:12Z</time>
      </trkpt>
      <trkpt lat="41.84318" lon="9.17715">
        <ele>1739</ele>
        <time>2019-09-09T13:08:01Z</time>
      </trkpt>
      <trkpt lat="41.84312" lon="9.17719">
        <ele>1739.28</ele>
        <time>2019-09-09T13:07:55Z</time>
      </trkpt>
      <trkpt lat="41.84296" lon="9.17729">
        <ele>1739.26</ele>
        <time>2019-09-09T13:07:37Z</time>
      </trkpt>
      <trkpt lat="41.8428" lon="9.17743">
        <ele>1739.41</ele>
        <time>2019-09-09T13:07:20Z</time>
      </trkpt>
      <trkpt lat="41.84276" lon="9.17747">
        <ele>1739.8</ele>
        <time>2019-09-09T13:07:15Z</time>
      </trkpt>
      <trkpt lat="41.84272" lon="9.1775">
        <ele>1740.11</ele>
        <time>2019-09-09T13:07:11Z</time>
      </trkpt>
      <trkpt lat="41.84268" lon="9.17754">
        <ele>1740.13</ele>
        <time>2019-09-09T13:07:06Z</time>
      </trkpt>
      <trkpt lat="41.84261" lon="9.17758">
        <ele>1740.7</ele>
        <time>2019-09-09T13:06:58Z</time>
      </trkpt>
      <trkpt lat="41.84244" lon="9.17763">
        <ele>1741.49</ele>
        <time>2019-09-09T13:06:40Z</time>
      </trkpt>
      <trkpt lat="41.84242" lon="9.17767">
        <ele>1740.97</ele>
        <time>2019-09-09T13:06:37Z</time>
      </trkpt>
      <trkpt lat="41.84239" lon="9.17771">
        <ele>1740.44</ele>
        <time>2019-09-09T13:06:33Z</time>
      </trkpt>
      <trkpt lat="41.84224" lon="9.17782">
        <ele>1740.06</ele>
        <time>2019-09-09T13:06:17Z</time>
      </trkpt>
      <trkpt lat="41.8421" lon="9.17791">
        <ele>1739.19</ele>
        <time>2019-09-09T13:06:02Z</time>
      </trkpt>
      <trkpt lat="41.84191" lon="9.17796">
        <ele>1740.27</ele>
        <time>2019-09-09T13:05:43Z</time>
      </trkpt>
      <trkpt lat="41.84188" lon="9.17798">
        <ele>1740.43</ele>
        <time>2019-09-09T13:05:40Z</time>
      </trkpt>
      <trkpt lat="41.84179" lon="9.178">
        <ele>1741.39</ele>
        <time>2019-09-09T13:05:31Z</time>
      </trkpt>
      <trkpt lat="41.84166" lon="9.17789">
        <ele>1743.3</ele>
        <time>2019-09-09T13:05:13Z</time>
      </trkpt>
      <trkpt lat="41.84152" lon="9.17783">
        <ele>1744.97</ele>
        <time>2019-09-09T13:04:54Z</time>
      </trkpt>
      <trkpt lat="41.84145" lon="9.17792">
        <ele>1746.4</ele>
        <time>2019-09-09T13:04:37Z</time>
      </trkpt>
      <trkpt lat="41.84136" lon="9.17809">
        <ele>1748.47</ele>
        <time>2019-09-09T13:04:18Z</time>
      </trkpt>
      <trkpt lat="41.84134" lon="9.17811">
        <ele>1748.88</ele>
        <time>2019-09-09T13:04:15Z</time>
      </trkpt>
      <trkpt lat="41.84132" lon="9.17829">
        <ele>1750.92</ele>
        <time>2019-09-09T13:04:00Z</time>
      </trkpt>
      <trkpt lat="41.84134" lon="9.17854">
        <ele>1753.03</ele>
        <time>2019-09-09T13:03:42Z</time>
      </trkpt>
      <trkpt lat="41.84137" lon="9.17881">
        <ele>1755.27</ele>
        <time>2019-09-09T13:03:23Z</time>
      </trkpt>
      <trkpt lat="41.84135" lon="9.17886">
        <ele>1755.7</ele>
        <time>2019-09-09T13:03:19Z</time>
      </trkpt>
      <trkpt lat="41.84135" lon="9.17889">
        <ele>1755.9</ele>
        <time>2019-09-09T13:03:17Z</time>
      </trkpt>
      <trkpt lat="41.84139" lon="9.17918">
        <ele>1757.04</ele>
        <time>2019-09-09T13:02:58Z</time>
      </trkpt>
      <trkpt lat="41.84138" lon="9.17924">
        <ele>1757.27</ele>
        <time>2019-09-09T13:02:54Z</time>
      </trkpt>
      <trkpt lat="41.84138" lon="9.17949">
        <ele>1757.25</ele>
        <time>2019-09-09T13:02:35Z</time>
      </trkpt>
      <trkpt lat="41.84139" lon="9.17952">
        <ele>1757.23</ele>
        <time>2019-09-09T13:02:32Z</time>
      </trkpt>
      <trkpt lat="41.84134" lon="9.17966">
        <ele>1755.92</ele>
        <time>2019-09-09T13:02:17Z</time>
      </trkpt>
      <trkpt lat="41.84129" lon="9.17978">
        <ele>1754.43</ele>
        <time>2019-09-09T13:02:01Z</time>
      </trkpt>
      <trkpt lat="41.8412" lon="9.18">
        <ele>1753.98</ele>
        <time>2019-09-09T13:01:41Z</time>
      </trkpt>
      <trkpt lat="41.84119" lon="9.18009">
        <ele>1754.42</ele>
        <time>2019-09-09T13:01:33Z</time>
      </trkpt>
      <trkpt lat="41.84118" lon="9.18017">
        <ele>1755.56</ele>
        <time>2019-09-09T13:01:23Z</time>
      </trkpt>
      <trkpt lat="41.84123" lon="9.1804">
        <ele>1757.57</ele>
        <time>2019-09-09T13:01:02Z</time>
      </trkpt>
      <trkpt lat="41.84123" lon="9.18046">
        <ele>1758.14</ele>
        <time>2019-09-09T13:00:57Z</time>
      </trkpt>
      <trkpt lat="41.84129" lon="9.18066">
        <ele>1759.98</ele>
        <time>2019-09-09T13:00:40Z</time>
      </trkpt>
      <trkpt lat="41.84129" lon="9.18068">
        <ele>1760.26</ele>
        <time>2019-09-09T13:00:38Z</time>
      </trkpt>
      <trkpt lat="41.84125" lon="9.18075">
        <ele>1762.05</ele>
        <time>2019-09-09T13:00:18Z</time>
      </trkpt>
      <trkpt lat="41.84126" lon="9.18082">
        <ele>1762.4</ele>
        <time>2019-09-09T13:00:07Z</time>
      </trkpt>
      <trkpt lat="41.84126" lon="9.18083">
        <ele>1761.77</ele>
        <time>2019-09-09T12:58:48Z</time>
      </trkpt>
      <trkpt lat="41.84126" lon="9.18082">
        <ele>1761.99</ele>
        <time>2019-09-09T12:57:15Z</time>
      </trkpt>
      <trkpt lat="41.84125" lon="9.18082">
        <ele>1762.32</ele>
        <time>2019-09-09T12:56:37Z</time>
      </trkpt>
      <trkpt lat="41.84126" lon="9.18081">
        <ele>1763.41</ele>
        <time>2019-09-09T12:56:17Z</time>
      </trkpt>
      <trkpt lat="41.84128" lon="9.18081">
        <ele>1763.39</ele>
        <time>2019-09-09T12:56:01Z</time>
      </trkpt>
      <trkpt lat="41.8413" lon="9.18088">
        <ele>1763.28</ele>
        <time>2019-09-09T12:55:44Z</time>
      </trkpt>
      <trkpt lat="41.8413" lon="9.18101">
        <ele>1762.02</ele>
        <time>2019-09-09T12:55:30Z</time>
      </trkpt>
      <trkpt lat="41.84122" lon="9.18113">
        <ele>1759.88</ele>
        <time>2019-09-09T12:55:13Z</time>
      </trkpt>
      <trkpt lat="41.84111" lon="9.18121">
        <ele>1758.74</ele>
        <time>2019-09-09T12:54:57Z</time>
      </trkpt>
      <trkpt lat="41.84104" lon="9.18132">
        <ele>1757.58</ele>
        <time>2019-09-09T12:54:42Z</time>
      </trkpt>
      <trkpt lat="41.84093" lon="9.18139">
        <ele>1757.47</ele>
        <time>2019-09-09T12:54:24Z</time>
      </trkpt>
      <trkpt lat="41.84087" lon="9.18146">
        <ele>1755.98</ele>
        <time>2019-09-09T12:54:11Z</time>
      </trkpt>
      <trkpt lat="41.84081" lon="9.18161">
        <ele>1752.3</ele>
        <time>2019-09-09T12:53:57Z</time>
      </trkpt>
      <trkpt lat="41.84078" lon="9.18175">
        <ele>1751.35</ele>
        <time>2019-09-09T12:53:45Z</time>
      </trkpt>
      <trkpt lat="41.84066" lon="9.18196">
        <ele>1750.54</ele>
        <time>2019-09-09T12:53:26Z</time>
      </trkpt>
      <trkpt lat="41.84058" lon="9.18216">
        <ele>1744.45</ele>
        <time>2019-09-09T12:53:10Z</time>
      </trkpt>
      <trkpt lat="41.84057" lon="9.18227">
        <ele>1742.46</ele>
        <time>2019-09-09T12:52:56Z</time>
      </trkpt>
      <trkpt lat="41.84055" lon="9.18241">
        <ele>1739.5</ele>
        <time>2019-09-09T12:52:40Z</time>
      </trkpt>
      <trkpt lat="41.84049" lon="9.18254">
        <ele>1737.58</ele>
        <time>2019-09-09T12:52:24Z</time>
      </trkpt>
      <trkpt lat="41.84032" lon="9.18272">
        <ele>1736.76</ele>
        <time>2019-09-09T12:52:04Z</time>
      </trkpt>
      <trkpt lat="41.84019" lon="9.18305">
        <ele>1734.58</ele>
        <time>2019-09-09T12:51:41Z</time>
      </trkpt>
      <trkpt lat="41.84019" lon="9.18312">
        <ele>1735.78</ele>
        <time>2019-09-09T12:51:36Z</time>
      </trkpt>
      <trkpt lat="41.84018" lon="9.18316">
        <ele>1737.47</ele>
        <time>2019-09-09T12:51:33Z</time>
      </trkpt>
      <trkpt lat="41.84016" lon="9.18328">
        <ele>1738.95</ele>
        <time>2019-09-09T12:51:19Z</time>
      </trkpt>
      <trkpt lat="41.84013" lon="9.18353">
        <ele>1741.6</ele>
        <time>2019-09-09T12:51:00Z</time>
      </trkpt>
      <trkpt lat="41.84013" lon="9.18358">
        <ele>1742.39</ele>
        <time>2019-09-09T12:50:55Z</time>
      </trkpt>
      <trkpt lat="41.84012" lon="9.18361">
        <ele>1743.17</ele>
        <time>2019-09-09T12:50:31Z</time>
      </trkpt>
      <trkpt lat="41.84012" lon="9.18363">
        <ele>1743.8</ele>
        <time>2019-09-09T12:50:13Z</time>
      </trkpt>
      <trkpt lat="41.84011" lon="9.18367">
        <ele>1744.64</ele>
        <time>2019-09-09T12:50:00Z</time>
      </trkpt>
      <trkpt lat="41.84014" lon="9.18362">
        <ele>1744.02</ele>
        <time>2019-09-09T12:49:41Z</time>
      </trkpt>
      <trkpt lat="41.84016" lon="9.18377">
        <ele>1744.82</ele>
        <time>2019-09-09T12:49:21Z</time>
      </trkpt>
      <trkpt lat="41.84029" lon="9.18402">
        <ele>1745.58</ele>
        <time>2019-09-09T12:49:01Z</time>
      </trkpt>
      <trkpt lat="41.84042" lon="9.18429">
        <ele>1746.43</ele>
        <time>2019-09-09T12:48:41Z</time>
      </trkpt>
      <trkpt lat="41.8405" lon="9.18449">
        <ele>1748.01</ele>
        <time>2019-09-09T12:48:24Z</time>
      </trkpt>
      <trkpt lat="41.84051" lon="9.18474">
        <ele>1749.95</ele>
        <time>2019-09-09T12:48:06Z</time>
      </trkpt>
      <trkpt lat="41.84055" lon="9.18487">
        <ele>1750.41</ele>
        <time>2019-09-09T12:47:55Z</time>
      </trkpt>
      <trkpt lat="41.84058" lon="9.18512">
        <ele>1750.31</ele>
        <time>2019-09-09T12:47:38Z</time>
      </trkpt>
      <trkpt lat="41.84063" lon="9.1853">
        <ele>1748.49</ele>
        <time>2019-09-09T12:47:20Z</time>
      </trkpt>
      <trkpt lat="41.84065" lon="9.18545">
        <ele>1746.81</ele>
        <time>2019-09-09T12:47:05Z</time>
      </trkpt>
      <trkpt lat="41.84068" lon="9.1856">
        <ele>1745.99</ele>
        <time>2019-09-09T12:46:49Z</time>
      </trkpt>
      <trkpt lat="41.84073" lon="9.18583">
        <ele>1745.17</ele>
        <time>2019-09-09T12:46:33Z</time>
      </trkpt>
      <trkpt lat="41.84073" lon="9.18588">
        <ele>1745.22</ele>
        <time>2019-09-09T12:46:29Z</time>
      </trkpt>
      <trkpt lat="41.84068" lon="9.18597">
        <ele>1747.75</ele>
        <time>2019-09-09T12:46:16Z</time>
      </trkpt>
      <trkpt lat="41.84068" lon="9.18611">
        <ele>1747.42</ele>
        <time>2019-09-09T12:46:00Z</time>
      </trkpt>
      <trkpt lat="41.84073" lon="9.18632">
        <ele>1747.64</ele>
        <time>2019-09-09T12:45:43Z</time>
      </trkpt>
      <trkpt lat="41.84077" lon="9.18652">
        <ele>1747.27</ele>
        <time>2019-09-09T12:45:28Z</time>
      </trkpt>
      <trkpt lat="41.84079" lon="9.18674">
        <ele>1746.89</ele>
        <time>2019-09-09T12:45:11Z</time>
      </trkpt>
      <trkpt lat="41.84083" lon="9.18689">
        <ele>1746.86</ele>
        <time>2019-09-09T12:45:00Z</time>
      </trkpt>
      <trkpt lat="41.84087" lon="9.18704">
        <ele>1746.64</ele>
        <time>2019-09-09T12:44:46Z</time>
      </trkpt>
      <trkpt lat="41.84091" lon="9.18716">
        <ele>1746.89</ele>
        <time>2019-09-09T12:44:32Z</time>
      </trkpt>
      <trkpt lat="41.84099" lon="9.18728">
        <ele>1746.63</ele>
        <time>2019-09-09T12:44:15Z</time>
      </trkpt>
      <trkpt lat="41.8411" lon="9.18742">
        <ele>1747.67</ele>
        <time>2019-09-09T12:43:58Z</time>
      </trkpt>
      <trkpt lat="41.84119" lon="9.18755">
        <ele>1747.75</ele>
        <time>2019-09-09T12:43:43Z</time>
      </trkpt>
      <trkpt lat="41.84128" lon="9.18767">
        <ele>1750.05</ele>
        <time>2019-09-09T12:43:28Z</time>
      </trkpt>
      <trkpt lat="41.8413" lon="9.18778">
        <ele>1752.56</ele>
        <time>2019-09-09T12:43:17Z</time>
      </trkpt>
      <trkpt lat="41.84136" lon="9.1879">
        <ele>1755.61</ele>
        <time>2019-09-09T12:42:59Z</time>
      </trkpt>
      <trkpt lat="41.84138" lon="9.18799">
        <ele>1758.48</ele>
        <time>2019-09-09T12:42:46Z</time>
      </trkpt>
      <trkpt lat="41.84139" lon="9.1881">
        <ele>1760.68</ele>
        <time>2019-09-09T12:42:34Z</time>
      </trkpt>
      <trkpt lat="41.84134" lon="9.18819">
        <ele>1764.21</ele>
        <time>2019-09-09T12:42:18Z</time>
      </trkpt>
      <trkpt lat="41.84131" lon="9.18829">
        <ele>1766.93</ele>
        <time>2019-09-09T12:42:03Z</time>
      </trkpt>
      <trkpt lat="41.84126" lon="9.18842">
        <ele>1769.65</ele>
        <time>2019-09-09T12:41:48Z</time>
      </trkpt>
      <trkpt lat="41.84121" lon="9.1885">
        <ele>1772.83</ele>
        <time>2019-09-09T12:41:35Z</time>
      </trkpt>
      <trkpt lat="41.84123" lon="9.18867">
        <ele>1772.81</ele>
        <time>2019-09-09T12:41:18Z</time>
      </trkpt>
      <trkpt lat="41.84135" lon="9.18882">
        <ele>1772.2</ele>
        <time>2019-09-09T12:41:03Z</time>
      </trkpt>
      <trkpt lat="41.84135" lon="9.18883">
        <ele>1772.4</ele>
        <time>2019-09-09T12:41:02Z</time>
      </trkpt>
      <trkpt lat="41.84136" lon="9.18893">
        <ele>1774.25</ele>
        <time>2019-09-09T12:40:48Z</time>
      </trkpt>
      <trkpt lat="41.84142" lon="9.18905">
        <ele>1776.55</ele>
        <time>2019-09-09T12:40:32Z</time>
      </trkpt>
      <trkpt lat="41.84149" lon="9.18916">
        <ele>1778.04</ele>
        <time>2019-09-09T12:40:18Z</time>
      </trkpt>
      <trkpt lat="41.8415" lon="9.18928">
        <ele>1780.76</ele>
        <time>2019-09-09T12:40:02Z</time>
      </trkpt>
      <trkpt lat="41.84147" lon="9.18938">
        <ele>1782.96</ele>
        <time>2019-09-09T12:39:44Z</time>
      </trkpt>
      <trkpt lat="41.84146" lon="9.18941">
        <ele>1783.95</ele>
        <time>2019-09-09T12:39:27Z</time>
      </trkpt>
      <trkpt lat="41.84145" lon="9.18952">
        <ele>1785.49</ele>
        <time>2019-09-09T12:39:13Z</time>
      </trkpt>
      <trkpt lat="41.84142" lon="9.18962">
        <ele>1788.13</ele>
        <time>2019-09-09T12:38:57Z</time>
      </trkpt>
      <trkpt lat="41.84136" lon="9.18961">
        <ele>1789.82</ele>
        <time>2019-09-09T12:38:42Z</time>
      </trkpt>
      <trkpt lat="41.84131" lon="9.18962">
        <ele>1791.95</ele>
        <time>2019-09-09T12:38:25Z</time>
      </trkpt>
      <trkpt lat="41.8413" lon="9.18963">
        <ele>1792.07</ele>
        <time>2019-09-09T12:37:54Z</time>
      </trkpt>
      <trkpt lat="41.8413" lon="9.18963">
        <ele>1791.37</ele>
        <time>2019-09-09T12:37:26Z</time>
      </trkpt>
      <trkpt lat="41.84129" lon="9.18964">
        <ele>1791.8</ele>
        <time>2019-09-09T12:36:36Z</time>
      </trkpt>
      <trkpt lat="41.84128" lon="9.18963">
        <ele>1791.71</ele>
        <time>2019-09-09T12:36:00Z</time>
      </trkpt>
      <trkpt lat="41.84129" lon="9.18962">
        <ele>1792.56</ele>
        <time>2019-09-09T12:35:17Z</time>
      </trkpt>
      <trkpt lat="41.84129" lon="9.18963">
        <ele>1792.89</ele>
        <time>2019-09-09T12:34:52Z</time>
      </trkpt>
      <trkpt lat="41.84129" lon="9.18964">
        <ele>1790.73</ele>
        <time>2019-09-09T12:34:21Z</time>
      </trkpt>
      <trkpt lat="41.84128" lon="9.18963">
        <ele>1791.12</ele>
        <time>2019-09-09T12:33:54Z</time>
      </trkpt>
      <trkpt lat="41.84129" lon="9.18963">
        <ele>1791.54</ele>
        <time>2019-09-09T12:33:22Z</time>
      </trkpt>
      <trkpt lat="41.84129" lon="9.18963">
        <ele>1791.84</ele>
        <time>2019-09-09T12:33:03Z</time>
      </trkpt>
      <trkpt lat="41.84129" lon="9.18964">
        <ele>1791.38</ele>
        <time>2019-09-09T12:32:38Z</time>
      </trkpt>
      <trkpt lat="41.84122" lon="9.18967">
        <ele>1793.96</ele>
        <time>2019-09-09T12:32:20Z</time>
      </trkpt>
      <trkpt lat="41.8412" lon="9.18971">
        <ele>1796.4</ele>
        <time>2019-09-09T12:32:08Z</time>
      </trkpt>
      <trkpt lat="41.84119" lon="9.18981">
        <ele>1799.23</ele>
        <time>2019-09-09T12:31:51Z</time>
      </trkpt>
      <trkpt lat="41.84116" lon="9.18982">
        <ele>1801.18</ele>
        <time>2019-09-09T12:31:38Z</time>
      </trkpt>
      <trkpt lat="41.84113" lon="9.18988">
        <ele>1804.43</ele>
        <time>2019-09-09T12:31:23Z</time>
      </trkpt>
      <trkpt lat="41.84109" lon="9.18996">
        <ele>1807.74</ele>
        <time>2019-09-09T12:31:05Z</time>
      </trkpt>
      <trkpt lat="41.84108" lon="9.19006">
        <ele>1809.62</ele>
        <time>2019-09-09T12:30:51Z</time>
      </trkpt>
      <trkpt lat="41.8411" lon="9.19015">
        <ele>1810.18</ele>
        <time>2019-09-09T12:30:36Z</time>
      </trkpt>
      <trkpt lat="41.84115" lon="9.19024">
        <ele>1809.37</ele>
        <time>2019-09-09T12:30:21Z</time>
      </trkpt>
      <trkpt lat="41.84116" lon="9.19032">
        <ele>1810.11</ele>
        <time>2019-09-09T12:30:06Z</time>
      </trkpt>
      <trkpt lat="41.84115" lon="9.19036">
        <ele>1811.72</ele>
        <time>2019-09-09T12:29:54Z</time>
      </trkpt>
      <trkpt lat="41.84115" lon="9.1904">
        <ele>1813.11</ele>
        <time>2019-09-09T12:29:41Z</time>
      </trkpt>
      <trkpt lat="41.84113" lon="9.19047">
        <ele>1815.62</ele>
        <time>2019-09-09T12:29:24Z</time>
      </trkpt>
      <trkpt lat="41.84113" lon="9.19046">
        <ele>1815.98</ele>
        <time>2019-09-09T12:28:50Z</time>
      </trkpt>
      <trkpt lat="41.84114" lon="9.19049">
        <ele>1816.73</ele>
        <time>2019-09-09T12:28:36Z</time>
      </trkpt>
      <trkpt lat="41.84112" lon="9.19056">
        <ele>1819.61</ele>
        <time>2019-09-09T12:28:22Z</time>
      </trkpt>
      <trkpt lat="41.84111" lon="9.19061">
        <ele>1821.79</ele>
        <time>2019-09-09T12:28:08Z</time>
      </trkpt>
      <trkpt lat="41.84109" lon="9.19069">
        <ele>1825.18</ele>
        <time>2019-09-09T12:27:53Z</time>
      </trkpt>
      <trkpt lat="41.84107" lon="9.19079">
        <ele>1828.91</ele>
        <time>2019-09-09T12:27:36Z</time>
      </trkpt>
      <trkpt lat="41.84111" lon="9.19091">
        <ele>1830.81</ele>
        <time>2019-09-09T12:27:20Z</time>
      </trkpt>
      <trkpt lat="41.84113" lon="9.19103">
        <ele>1831.02</ele>
        <time>2019-09-09T12:27:06Z</time>
      </trkpt>
      <trkpt lat="41.84115" lon="9.1912">
        <ele>1830.46</ele>
        <time>2019-09-09T12:26:52Z</time>
      </trkpt>
      <trkpt lat="41.84119" lon="9.19131">
        <ele>1829.19</ele>
        <time>2019-09-09T12:26:41Z</time>
      </trkpt>
      <trkpt lat="41.84121" lon="9.19134">
        <ele>1830.52</ele>
        <time>2019-09-09T12:26:37Z</time>
      </trkpt>
      <trkpt lat="41.84125" lon="9.19139">
        <ele>1832.67</ele>
        <time>2019-09-09T12:26:23Z</time>
      </trkpt>
      <trkpt lat="41.84133" lon="9.19148">
        <ele>1835.55</ele>
        <time>2019-09-09T12:26:09Z</time>
      </trkpt>
      <trkpt lat="41.84133" lon="9.19154">
        <ele>1836.62</ele>
        <time>2019-09-09T12:26:04Z</time>
      </trkpt>
      <trkpt lat="41.84136" lon="9.19165">
        <ele>1839.79</ele>
        <time>2019-09-09T12:25:49Z</time>
      </trkpt>
      <trkpt lat="41.84143" lon="9.19173">
        <ele>1843.34</ele>
        <time>2019-09-09T12:25:34Z</time>
      </trkpt>
      <trkpt lat="41.84151" lon="9.19183">
        <ele>1846.83</ele>
        <time>2019-09-09T12:25:17Z</time>
      </trkpt>
      <trkpt lat="41.84155" lon="9.19193">
        <ele>1849.03</ele>
        <time>2019-09-09T12:25:03Z</time>
      </trkpt>
      <trkpt lat="41.84162" lon="9.19204">
        <ele>1851.09</ele>
        <time>2019-09-09T12:24:47Z</time>
      </trkpt>
      <trkpt lat="41.84169" lon="9.19225">
        <ele>1853.61</ele>
        <time>2019-09-09T12:24:29Z</time>
      </trkpt>
      <trkpt lat="41.84174" lon="9.19242">
        <ele>1854.86</ele>
        <time>2019-09-09T12:24:15Z</time>
      </trkpt>
      <trkpt lat="41.84178" lon="9.19254">
        <ele>1857.24</ele>
        <time>2019-09-09T12:24:02Z</time>
      </trkpt>
      <trkpt lat="41.84183" lon="9.19272">
        <ele>1860</ele>
        <time>2019-09-09T12:23:44Z</time>
      </trkpt>
      <trkpt lat="41.84192" lon="9.19293">
        <ele>1861.2</ele>
        <time>2019-09-09T12:23:25Z</time>
      </trkpt>
      <trkpt lat="41.84194" lon="9.19294">
        <ele>1861.28</ele>
        <time>2019-09-09T12:23:23Z</time>
      </trkpt>
      <trkpt lat="41.84204" lon="9.19317">
        <ele>1861.48</ele>
        <time>2019-09-09T12:23:04Z</time>
      </trkpt>
      <trkpt lat="41.84206" lon="9.1932">
        <ele>1861.43</ele>
        <time>2019-09-09T12:23:01Z</time>
      </trkpt>
      <trkpt lat="41.84216" lon="9.19323">
        <ele>1862.45</ele>
        <time>2019-09-09T12:22:50Z</time>
      </trkpt>
      <trkpt lat="41.84227" lon="9.19337">
        <ele>1863.23</ele>
        <time>2019-09-09T12:22:33Z</time>
      </trkpt>
      <trkpt lat="41.84229" lon="9.19342">
        <ele>1863.93</ele>
        <time>2019-09-09T12:22:26Z</time>
      </trkpt>
      <trkpt lat="41.8424" lon="9.19348">
        <ele>1865.9</ele>
        <time>2019-09-09T12:22:10Z</time>
      </trkpt>
      <trkpt lat="41.84252" lon="9.19361">
        <ele>1867.47</ele>
        <time>2019-09-09T12:21:53Z</time>
      </trkpt>
      <trkpt lat="41.84256" lon="9.19363">
        <ele>1867.59</ele>
        <time>2019-09-09T12:21:48Z</time>
      </trkpt>
      <trkpt lat="41.84261" lon="9.19363">
        <ele>1867.31</ele>
        <time>2019-09-09T12:21:43Z</time>
      </trkpt>
      <trkpt lat="41.84264" lon="9.19366">
        <ele>1867.57</ele>
        <time>2019-09-09T12:21:39Z</time>
      </trkpt>
      <trkpt lat="41.84273" lon="9.19377">
        <ele>1868.99</ele>
        <time>2019-09-09T12:21:26Z</time>
      </trkpt>
      <trkpt lat="41.84291" lon="9.19385">
        <ele>1869.17</ele>
        <time>2019-09-09T12:21:08Z</time>
      </trkpt>
      <trkpt lat="41.84296" lon="9.19387">
        <ele>1869.22</ele>
        <time>2019-09-09T12:21:03Z</time>
      </trkpt>
      <trkpt lat="41.84312" lon="9.19395">
        <ele>1870.2</ele>
        <time>2019-09-09T12:20:47Z</time>
      </trkpt>
      <trkpt lat="41.84316" lon="9.19399">
        <ele>1871.08</ele>
        <time>2019-09-09T12:20:41Z</time>
      </trkpt>
      <trkpt lat="41.84333" lon="9.19405">
        <ele>1873.53</ele>
        <time>2019-09-09T12:20:23Z</time>
      </trkpt>
      <trkpt lat="41.84344" lon="9.19422">
        <ele>1874.58</ele>
        <time>2019-09-09T12:20:07Z</time>
      </trkpt>
      <trkpt lat="41.84347" lon="9.19428">
        <ele>1876.34</ele>
        <time>2019-09-09T12:19:59Z</time>
      </trkpt>
      <trkpt lat="41.84354" lon="9.1944">
        <ele>1878.07</ele>
        <time>2019-09-09T12:19:44Z</time>
      </trkpt>
      <trkpt lat="41.84356" lon="9.19441">
        <ele>1878.47</ele>
        <time>2019-09-09T12:19:41Z</time>
      </trkpt>
      <trkpt lat="41.84366" lon="9.19447">
        <ele>1880.68</ele>
        <time>2019-09-09T12:19:27Z</time>
      </trkpt>
      <trkpt lat="41.84365" lon="9.19463">
        <ele>1883.11</ele>
        <time>2019-09-09T12:19:11Z</time>
      </trkpt>
      <trkpt lat="41.84364" lon="9.1948">
        <ele>1885.32</ele>
        <time>2019-09-09T12:18:56Z</time>
      </trkpt>
      <trkpt lat="41.84366" lon="9.19486">
        <ele>1886.42</ele>
        <time>2019-09-09T12:18:49Z</time>
      </trkpt>
      <trkpt lat="41.84371" lon="9.19496">
        <ele>1888.37</ele>
        <time>2019-09-09T12:18:36Z</time>
      </trkpt>
      <trkpt lat="41.84386" lon="9.19509">
        <ele>1889.89</ele>
        <time>2019-09-09T12:18:17Z</time>
      </trkpt>
      <trkpt lat="41.844" lon="9.19534">
        <ele>1891.77</ele>
        <time>2019-09-09T12:17:55Z</time>
      </trkpt>
      <trkpt lat="41.84405" lon="9.19544">
        <ele>1892.34</ele>
        <time>2019-09-09T12:17:45Z</time>
      </trkpt>
      <trkpt lat="41.84413" lon="9.19561">
        <ele>1894.57</ele>
        <time>2019-09-09T12:17:28Z</time>
      </trkpt>
      <trkpt lat="41.84415" lon="9.19567">
        <ele>1894.85</ele>
        <time>2019-09-09T12:17:24Z</time>
      </trkpt>
      <trkpt lat="41.84428" lon="9.19586">
        <ele>1895.54</ele>
        <time>2019-09-09T12:17:06Z</time>
      </trkpt>
      <trkpt lat="41.84434" lon="9.19609">
        <ele>1896.36</ele>
        <time>2019-09-09T12:16:48Z</time>
      </trkpt>
      <trkpt lat="41.84435" lon="9.19612">
        <ele>1896.68</ele>
        <time>2019-09-09T12:16:46Z</time>
      </trkpt>
      <trkpt lat="41.84441" lon="9.19633">
        <ele>1898.5</ele>
        <time>2019-09-09T12:16:28Z</time>
      </trkpt>
      <trkpt lat="41.84441" lon="9.19652">
        <ele>1900.72</ele>
        <time>2019-09-09T12:16:11Z</time>
      </trkpt>
      <trkpt lat="41.84439" lon="9.19656">
        <ele>1901.32</ele>
        <time>2019-09-09T12:16:07Z</time>
      </trkpt>
      <trkpt lat="41.84439" lon="9.19664">
        <ele>1902.72</ele>
        <time>2019-09-09T12:15:59Z</time>
      </trkpt>
      <trkpt lat="41.84432" lon="9.19683">
        <ele>1904.87</ele>
        <time>2019-09-09T12:15:43Z</time>
      </trkpt>
      <trkpt lat="41.8443" lon="9.19692">
        <ele>1904.93</ele>
        <time>2019-09-09T12:15:33Z</time>
      </trkpt>
      <trkpt lat="41.84428" lon="9.19702">
        <ele>1907.23</ele>
        <time>2019-09-09T12:15:19Z</time>
      </trkpt>
      <trkpt lat="41.84425" lon="9.1971">
        <ele>1909.61</ele>
        <time>2019-09-09T12:15:06Z</time>
      </trkpt>
      <trkpt lat="41.84417" lon="9.19713">
        <ele>1912.66</ele>
        <time>2019-09-09T12:14:49Z</time>
      </trkpt>
      <trkpt lat="41.8442" lon="9.19726">
        <ele>1915.37</ele>
        <time>2019-09-09T12:14:34Z</time>
      </trkpt>
      <trkpt lat="41.84417" lon="9.19728">
        <ele>1916.51</ele>
        <time>2019-09-09T12:14:27Z</time>
      </trkpt>
      <trkpt lat="41.84414" lon="9.19739">
        <ele>1919.27</ele>
        <time>2019-09-09T12:14:12Z</time>
      </trkpt>
      <trkpt lat="41.84413" lon="9.19743">
        <ele>1919.92</ele>
        <time>2019-09-09T12:14:07Z</time>
      </trkpt>
      <trkpt lat="41.84408" lon="9.19752">
        <ele>1923.15</ele>
        <time>2019-09-09T12:13:51Z</time>
      </trkpt>
      <trkpt lat="41.84411" lon="9.19767">
        <ele>1926.02</ele>
        <time>2019-09-09T12:13:34Z</time>
      </trkpt>
      <trkpt lat="41.84408" lon="9.19775">
        <ele>1928.86</ele>
        <time>2019-09-09T12:13:19Z</time>
      </trkpt>
      <trkpt lat="41.84406" lon="9.19783">
        <ele>1931.15</ele>
        <time>2019-09-09T12:13:05Z</time>
      </trkpt>
      <trkpt lat="41.84406" lon="9.19797">
        <ele>1933.2</ele>
        <time>2019-09-09T12:12:49Z</time>
      </trkpt>
      <trkpt lat="41.8441" lon="9.1981">
        <ele>1934.24</ele>
        <time>2019-09-09T12:12:36Z</time>
      </trkpt>
      <trkpt lat="41.84415" lon="9.19817">
        <ele>1935.43</ele>
        <time>2019-09-09T12:12:20Z</time>
      </trkpt>
      <trkpt lat="41.84424" lon="9.19833">
        <ele>1937.38</ele>
        <time>2019-09-09T12:11:59Z</time>
      </trkpt>
      <trkpt lat="41.84431" lon="9.1984">
        <ele>1937.72</ele>
        <time>2019-09-09T12:11:51Z</time>
      </trkpt>
      <trkpt lat="41.84433" lon="9.19844">
        <ele>1937.93</ele>
        <time>2019-09-09T12:11:47Z</time>
      </trkpt>
      <trkpt lat="41.84435" lon="9.19857">
        <ele>1940.27</ele>
        <time>2019-09-09T12:11:32Z</time>
      </trkpt>
      <trkpt lat="41.84439" lon="9.19862">
        <ele>1941.73</ele>
        <time>2019-09-09T12:11:17Z</time>
      </trkpt>
      <trkpt lat="41.84445" lon="9.19868">
        <ele>1942.32</ele>
        <time>2019-09-09T12:10:49Z</time>
      </trkpt>
      <trkpt lat="41.84445" lon="9.19869">
        <ele>1942.97</ele>
        <time>2019-09-09T12:10:24Z</time>
      </trkpt>
      <trkpt lat="41.84444" lon="9.1987">
        <ele>1942.94</ele>
        <time>2019-09-09T12:09:52Z</time>
      </trkpt>
      <trkpt lat="41.84447" lon="9.19879">
        <ele>1944.09</ele>
        <time>2019-09-09T12:09:36Z</time>
      </trkpt>
      <trkpt lat="41.84446" lon="9.19884">
        <ele>1944.7</ele>
        <time>2019-09-09T12:09:17Z</time>
      </trkpt>
      <trkpt lat="41.8445" lon="9.19892">
        <ele>1945.87</ele>
        <time>2019-09-09T12:09:02Z</time>
      </trkpt>
      <trkpt lat="41.84449" lon="9.19903">
        <ele>1948.53</ele>
        <time>2019-09-09T12:08:48Z</time>
      </trkpt>
      <trkpt lat="41.84445" lon="9.1991">
        <ele>1951.02</ele>
        <time>2019-09-09T12:08:33Z</time>
      </trkpt>
      <trkpt lat="41.84446" lon="9.19919">
        <ele>1953.4</ele>
        <time>2019-09-09T12:08:18Z</time>
      </trkpt>
      <trkpt lat="41.84449" lon="9.1993">
        <ele>1956.04</ele>
        <time>2019-09-09T12:08:03Z</time>
      </trkpt>
      <trkpt lat="41.84446" lon="9.19936">
        <ele>1957.92</ele>
        <time>2019-09-09T12:07:48Z</time>
      </trkpt>
      <trkpt lat="41.84448" lon="9.19946">
        <ele>1960.61</ele>
        <time>2019-09-09T12:07:33Z</time>
      </trkpt>
      <trkpt lat="41.84447" lon="9.19952">
        <ele>1962.43</ele>
        <time>2019-09-09T12:07:20Z</time>
      </trkpt>
      <trkpt lat="41.84452" lon="9.19964">
        <ele>1963.67</ele>
        <time>2019-09-09T12:07:04Z</time>
      </trkpt>
      <trkpt lat="41.84458" lon="9.19974">
        <ele>1964.25</ele>
        <time>2019-09-09T12:06:50Z</time>
      </trkpt>
      <trkpt lat="41.84459" lon="9.19976">
        <ele>1964.55</ele>
        <time>2019-09-09T12:06:48Z</time>
      </trkpt>
      <trkpt lat="41.84461" lon="9.19985">
        <ele>1967.13</ele>
        <time>2019-09-09T12:06:32Z</time>
      </trkpt>
      <trkpt lat="41.84463" lon="9.19995">
        <ele>1969.18</ele>
        <time>2019-09-09T12:06:15Z</time>
      </trkpt>
      <trkpt lat="41.84467" lon="9.20004">
        <ele>1971.12</ele>
        <time>2019-09-09T12:06:01Z</time>
      </trkpt>
      <trkpt lat="41.84463" lon="9.20007">
        <ele>1973.07</ele>
        <time>2019-09-09T12:05:50Z</time>
      </trkpt>
      <trkpt lat="41.84465" lon="9.20015">
        <ele>1974.55</ele>
        <time>2019-09-09T12:05:38Z</time>
      </trkpt>
      <trkpt lat="41.84464" lon="9.2002">
        <ele>1977.29</ele>
        <time>2019-09-09T12:05:25Z</time>
      </trkpt>
      <trkpt lat="41.84462" lon="9.20026">
        <ele>1978.49</ele>
        <time>2019-09-09T12:05:14Z</time>
      </trkpt>
      <trkpt lat="41.84459" lon="9.20032">
        <ele>1980.59</ele>
        <time>2019-09-09T12:05:05Z</time>
      </trkpt>
      <trkpt lat="41.84462" lon="9.2004">
        <ele>1982.7</ele>
        <time>2019-09-09T12:04:49Z</time>
      </trkpt>
      <trkpt lat="41.84466" lon="9.2005">
        <ele>1984.31</ele>
        <time>2019-09-09T12:04:36Z</time>
      </trkpt>
      <trkpt lat="41.84466" lon="9.20059">
        <ele>1986.89</ele>
        <time>2019-09-09T12:04:23Z</time>
      </trkpt>
      <trkpt lat="41.84465" lon="9.20066">
        <ele>1988.62</ele>
        <time>2019-09-09T12:04:11Z</time>
      </trkpt>
      <trkpt lat="41.8447" lon="9.20081">
        <ele>1990.84</ele>
        <time>2019-09-09T12:03:56Z</time>
      </trkpt>
      <trkpt lat="41.8447" lon="9.20095">
        <ele>1994.32</ele>
        <time>2019-09-09T12:03:42Z</time>
      </trkpt>
      <trkpt lat="41.84468" lon="9.20101">
        <ele>1996.7</ele>
        <time>2019-09-09T12:03:29Z</time>
      </trkpt>
      <trkpt lat="41.84469" lon="9.2011">
        <ele>1999.33</ele>
        <time>2019-09-09T12:03:14Z</time>
      </trkpt>
      <trkpt lat="41.84472" lon="9.20123">
        <ele>2000.98</ele>
        <time>2019-09-09T12:02:59Z</time>
      </trkpt>
      <trkpt lat="41.8448" lon="9.20138">
        <ele>2002.05</ele>
        <time>2019-09-09T12:02:45Z</time>
      </trkpt>
      <trkpt lat="41.84481" lon="9.20139">
        <ele>2002.06</ele>
        <time>2019-09-09T12:02:43Z</time>
      </trkpt>
      <trkpt lat="41.84484" lon="9.20147">
        <ele>2003.3</ele>
        <time>2019-09-09T12:02:31Z</time>
      </trkpt>
      <trkpt lat="41.8449" lon="9.20163">
        <ele>2004.47</ele>
        <time>2019-09-09T12:02:14Z</time>
      </trkpt>
      <trkpt lat="41.84495" lon="9.20173">
        <ele>2005.67</ele>
        <time>2019-09-09T12:02:03Z</time>
      </trkpt>
      <trkpt lat="41.84499" lon="9.20178">
        <ele>2006.61</ele>
        <time>2019-09-09T12:01:55Z</time>
      </trkpt>
      <trkpt lat="41.84502" lon="9.20193">
        <ele>2008.15</ele>
        <time>2019-09-09T12:01:40Z</time>
      </trkpt>
      <trkpt lat="41.84504" lon="9.2021">
        <ele>2010.37</ele>
        <time>2019-09-09T12:01:25Z</time>
      </trkpt>
      <trkpt lat="41.84508" lon="9.20222">
        <ele>2010.95</ele>
        <time>2019-09-09T12:01:12Z</time>
      </trkpt>
      <trkpt lat="41.84512" lon="9.20233">
        <ele>2011.76</ele>
        <time>2019-09-09T12:01:00Z</time>
      </trkpt>
      <trkpt lat="41.84518" lon="9.20245">
        <ele>2011.67</ele>
        <time>2019-09-09T12:00:50Z</time>
      </trkpt>
      <trkpt lat="41.84525" lon="9.20252">
        <ele>2010.99</ele>
        <time>2019-09-09T12:00:39Z</time>
      </trkpt>
      <trkpt lat="41.84531" lon="9.20259">
        <ele>2009.75</ele>
        <time>2019-09-09T12:00:26Z</time>
      </trkpt>
      <trkpt lat="41.84542" lon="9.20269">
        <ele>2009.57</ele>
        <time>2019-09-09T12:00:09Z</time>
      </trkpt>
      <trkpt lat="41.84555" lon="9.20282">
        <ele>2010.75</ele>
        <time>2019-09-09T11:59:53Z</time>
      </trkpt>
      <trkpt lat="41.84568" lon="9.20294">
        <ele>2011.76</ele>
        <time>2019-09-09T11:59:37Z</time>
      </trkpt>
      <trkpt lat="41.84573" lon="9.20301">
        <ele>2013.14</ele>
        <time>2019-09-09T11:59:26Z</time>
      </trkpt>
      <trkpt lat="41.84589" lon="9.20312">
        <ele>2014.33</ele>
        <time>2019-09-09T11:59:08Z</time>
      </trkpt>
      <trkpt lat="41.84589" lon="9.20314">
        <ele>2014.67</ele>
        <time>2019-09-09T11:59:06Z</time>
      </trkpt>
      <trkpt lat="41.84598" lon="9.20323">
        <ele>2015.69</ele>
        <time>2019-09-09T11:58:53Z</time>
      </trkpt>
      <trkpt lat="41.84604" lon="9.20336">
        <ele>2019.27</ele>
        <time>2019-09-09T11:58:34Z</time>
      </trkpt>
      <trkpt lat="41.84608" lon="9.20347">
        <ele>2022.27</ele>
        <time>2019-09-09T11:58:20Z</time>
      </trkpt>
      <trkpt lat="41.84603" lon="9.20354">
        <ele>2025.59</ele>
        <time>2019-09-09T11:58:04Z</time>
      </trkpt>
      <trkpt lat="41.84601" lon="9.20361">
        <ele>2026.96</ele>
        <time>2019-09-09T11:57:47Z</time>
      </trkpt>
      <trkpt lat="41.84601" lon="9.20362">
        <ele>2026.85</ele>
        <time>2019-09-09T11:57:25Z</time>
      </trkpt>
      <trkpt lat="41.846" lon="9.20361">
        <ele>2026.56</ele>
        <time>2019-09-09T11:56:54Z</time>
      </trkpt>
      <trkpt lat="41.84598" lon="9.20357">
        <ele>2026.63</ele>
        <time>2019-09-09T11:56:39Z</time>
      </trkpt>
      <trkpt lat="41.84602" lon="9.2036">
        <ele>2026.07</ele>
        <time>2019-09-09T11:56:27Z</time>
      </trkpt>
      <trkpt lat="41.84603" lon="9.20363">
        <ele>2026.38</ele>
        <time>2019-09-09T11:56:14Z</time>
      </trkpt>
      <trkpt lat="41.84604" lon="9.20364">
        <ele>2026.29</ele>
        <time>2019-09-09T11:55:52Z</time>
      </trkpt>
      <trkpt lat="41.84603" lon="9.20366">
        <ele>2025.71</ele>
        <time>2019-09-09T11:55:34Z</time>
      </trkpt>
      <trkpt lat="41.84597" lon="9.20372">
        <ele>2023.89</ele>
        <time>2019-09-09T11:55:15Z</time>
      </trkpt>
      <trkpt lat="41.84591" lon="9.20371">
        <ele>2022.37</ele>
        <time>2019-09-09T11:55:00Z</time>
      </trkpt>
      <trkpt lat="41.84592" lon="9.20376">
        <ele>2023.16</ele>
        <time>2019-09-09T11:54:39Z</time>
      </trkpt>
      <trkpt lat="41.84591" lon="9.20377">
        <ele>2023.24</ele>
        <time>2019-09-09T11:54:14Z</time>
      </trkpt>
      <trkpt lat="41.84591" lon="9.20377">
        <ele>2022.12</ele>
        <time>2019-09-09T11:53:33Z</time>
      </trkpt>
      <trkpt lat="41.84591" lon="9.20375">
        <ele>2021.79</ele>
        <time>2019-09-09T11:52:56Z</time>
      </trkpt>
      <trkpt lat="41.84591" lon="9.20375">
        <ele>2021.6</ele>
        <time>2019-09-09T11:52:36Z</time>
      </trkpt>
      <trkpt lat="41.84592" lon="9.20374">
        <ele>2021.18</ele>
        <time>2019-09-09T11:52:15Z</time>
      </trkpt>
      <trkpt lat="41.84592" lon="9.20375">
        <ele>2021.21</ele>
        <time>2019-09-09T11:51:42Z</time>
      </trkpt>
      <trkpt lat="41.84592" lon="9.20376">
        <ele>2021.04</ele>
        <time>2019-09-09T11:51:16Z</time>
      </trkpt>
      <trkpt lat="41.84592" lon="9.20376">
        <ele>2021.16</ele>
        <time>2019-09-09T11:50:39Z</time>
      </trkpt>
      <trkpt lat="41.84592" lon="9.20376">
        <ele>2020.6</ele>
        <time>2019-09-09T11:49:36Z</time>
      </trkpt>
      <trkpt lat="41.84592" lon="9.20376">
        <ele>2020.1</ele>
        <time>2019-09-09T11:48:48Z</time>
      </trkpt>
      <trkpt lat="41.84593" lon="9.20376">
        <ele>2018.64</ele>
        <time>2019-09-09T11:48:16Z</time>
      </trkpt>
      <trkpt lat="41.84593" lon="9.20375">
        <ele>2018.05</ele>
        <time>2019-09-09T11:47:22Z</time>
      </trkpt>
      <trkpt lat="41.84593" lon="9.20376">
        <ele>2019.19</ele>
        <time>2019-09-09T11:46:31Z</time>
      </trkpt>
      <trkpt lat="41.84593" lon="9.20376">
        <ele>2019.84</ele>
        <time>2019-09-09T11:45:36Z</time>
      </trkpt>
      <trkpt lat="41.84593" lon="9.20376">
        <ele>2020.62</ele>
        <time>2019-09-09T11:44:35Z</time>
      </trkpt>
      <trkpt lat="41.84592" lon="9.20376">
        <ele>2021.42</ele>
        <time>2019-09-09T11:43:45Z</time>
      </trkpt>
      <trkpt lat="41.84592" lon="9.20376">
        <ele>2022.68</ele>
        <time>2019-09-09T11:42:45Z</time>
      </trkpt>
      <trkpt lat="41.84592" lon="9.20377">
        <ele>2023.92</ele>
        <time>2019-09-09T11:41:35Z</time>
      </trkpt>
      <trkpt lat="41.84591" lon="9.20377">
        <ele>2024.51</ele>
        <time>2019-09-09T11:40:46Z</time>
      </trkpt>
      <trkpt lat="41.84591" lon="9.20377">
        <ele>2024.68</ele>
        <time>2019-09-09T11:40:02Z</time>
      </trkpt>
      <trkpt lat="41.84591" lon="9.20377">
        <ele>2024.38</ele>
        <time>2019-09-09T11:39:13Z</time>
      </trkpt>
      <trkpt lat="41.84592" lon="9.20377">
        <ele>2023.64</ele>
        <time>2019-09-09T11:38:22Z</time>
      </trkpt>
      <trkpt lat="41.84592" lon="9.20376">
        <ele>2023.55</ele>
        <time>2019-09-09T11:37:10Z</time>
      </trkpt>
      <trkpt lat="41.84592" lon="9.20377">
        <ele>2024.22</ele>
        <time>2019-09-09T11:36:11Z</time>
      </trkpt>
      <trkpt lat="41.84592" lon="9.20377">
        <ele>2023.88</ele>
        <time>2019-09-09T11:35:09Z</time>
      </trkpt>
      <trkpt lat="41.84592" lon="9.20376">
        <ele>2023.63</ele>
        <time>2019-09-09T11:34:22Z</time>
      </trkpt>
      <trkpt lat="41.84592" lon="9.20376">
        <ele>2023.33</ele>
        <time>2019-09-09T11:33:24Z</time>
      </trkpt>
      <trkpt lat="41.84592" lon="9.20376">
        <ele>2023.37</ele>
        <time>2019-09-09T11:32:18Z</time>
      </trkpt>
      <trkpt lat="41.84592" lon="9.20376">
        <ele>2023.59</ele>
        <time>2019-09-09T11:31:18Z</time>
      </trkpt>
      <trkpt lat="41.84592" lon="9.20376">
        <ele>2023.73</ele>
        <time>2019-09-09T11:30:27Z</time>
      </trkpt>
      <trkpt lat="41.84592" lon="9.20375">
        <ele>2023.68</ele>
        <time>2019-09-09T11:29:47Z</time>
      </trkpt>
      <trkpt lat="41.84592" lon="9.20375">
        <ele>2022.33</ele>
        <time>2019-09-09T11:29:12Z</time>
      </trkpt>
      <trkpt lat="41.84591" lon="9.20375">
        <ele>2021.11</ele>
        <time>2019-09-09T11:28:32Z</time>
      </trkpt>
      <trkpt lat="41.8459" lon="9.20372">
        <ele>2017.79</ele>
        <time>2019-09-09T11:28:01Z</time>
      </trkpt>
      <trkpt lat="41.84591" lon="9.20373">
        <ele>2018.43</ele>
        <time>2019-09-09T11:27:21Z</time>
      </trkpt>
      <trkpt lat="41.84592" lon="9.20374">
        <ele>2018.7</ele>
        <time>2019-09-09T11:26:50Z</time>
      </trkpt>
      <trkpt lat="41.8459" lon="9.20375">
        <ele>2018.54</ele>
        <time>2019-09-09T11:26:18Z</time>
      </trkpt>
      <trkpt lat="41.84593" lon="9.20375">
        <ele>2017.86</ele>
        <time>2019-09-09T11:25:46Z</time>
      </trkpt>
      <trkpt lat="41.84592" lon="9.20375">
        <ele>2016.99</ele>
        <time>2019-09-09T11:25:14Z</time>
      </trkpt>
      <trkpt lat="41.84592" lon="9.20373">
        <ele>2016.08</ele>
        <time>2019-09-09T11:24:38Z</time>
      </trkpt>
      <trkpt lat="41.8459" lon="9.20373">
        <ele>2015.69</ele>
        <time>2019-09-09T11:24:03Z</time>
      </trkpt>
      <trkpt lat="41.84591" lon="9.20372">
        <ele>2015.45</ele>
        <time>2019-09-09T11:23:30Z</time>
      </trkpt>
      <trkpt lat="41.84588" lon="9.20371">
        <ele>2015.27</ele>
        <time>2019-09-09T11:22:56Z</time>
      </trkpt>
      <trkpt lat="41.84589" lon="9.20372">
        <ele>2015.49</ele>
        <time>2019-09-09T11:22:25Z</time>
      </trkpt>
      <trkpt lat="41.84588" lon="9.20372">
        <ele>2015.97</ele>
        <time>2019-09-09T11:21:55Z</time>
      </trkpt>
      <trkpt lat="41.84589" lon="9.20372">
        <ele>2016.18</ele>
        <time>2019-09-09T11:21:24Z</time>
      </trkpt>
      <trkpt lat="41.84589" lon="9.20371">
        <ele>2016.45</ele>
        <time>2019-09-09T11:20:49Z</time>
      </trkpt>
      <trkpt lat="41.84589" lon="9.20372">
        <ele>2016.61</ele>
        <time>2019-09-09T11:20:17Z</time>
      </trkpt>
      <trkpt lat="41.84589" lon="9.20371">
        <ele>2017.02</ele>
        <time>2019-09-09T11:19:43Z</time>
      </trkpt>
      <trkpt lat="41.8459" lon="9.20373">
        <ele>2017.28</ele>
        <time>2019-09-09T11:19:09Z</time>
      </trkpt>
      <trkpt lat="41.84589" lon="9.20373">
        <ele>2017.52</ele>
        <time>2019-09-09T11:18:38Z</time>
      </trkpt>
      <trkpt lat="41.8459" lon="9.20374">
        <ele>2017.68</ele>
        <time>2019-09-09T11:18:04Z</time>
      </trkpt>
      <trkpt lat="41.8459" lon="9.20373">
        <ele>2017.76</ele>
        <time>2019-09-09T11:17:32Z</time>
      </trkpt>
      <trkpt lat="41.8459" lon="9.20374">
        <ele>2018.07</ele>
        <time>2019-09-09T11:16:58Z</time>
      </trkpt>
      <trkpt lat="41.8459" lon="9.20375">
        <ele>2018.56</ele>
        <time>2019-09-09T11:16:23Z</time>
      </trkpt>
      <trkpt lat="41.84589" lon="9.20374">
        <ele>2019.33</ele>
        <time>2019-09-09T11:15:51Z</time>
      </trkpt>
      <trkpt lat="41.8459" lon="9.20375">
        <ele>2020.38</ele>
        <time>2019-09-09T11:15:16Z</time>
      </trkpt>
      <trkpt lat="41.8459" lon="9.20374">
        <ele>2021.56</ele>
        <time>2019-09-09T11:14:43Z</time>
      </trkpt>
      <trkpt lat="41.8459" lon="9.20375">
        <ele>2021.44</ele>
        <time>2019-09-09T11:14:10Z</time>
      </trkpt>
      <trkpt lat="41.84589" lon="9.20376">
        <ele>2021.24</ele>
        <time>2019-09-09T11:13:36Z</time>
      </trkpt>
      <trkpt lat="41.8459" lon="9.20374">
        <ele>2020.99</ele>
        <time>2019-09-09T11:13:03Z</time>
      </trkpt>
      <trkpt lat="41.84592" lon="9.20373">
        <ele>2021.22</ele>
        <time>2019-09-09T11:12:33Z</time>
      </trkpt>
      <trkpt lat="41.84592" lon="9.20372">
        <ele>2021.29</ele>
        <time>2019-09-09T11:12:07Z</time>
      </trkpt>
      <trkpt lat="41.84592" lon="9.20373">
        <ele>2022.01</ele>
        <time>2019-09-09T11:11:48Z</time>
      </trkpt>
      <trkpt lat="41.84591" lon="9.20374">
        <ele>2022</ele>
        <time>2019-09-09T11:11:32Z</time>
      </trkpt>
      <trkpt lat="41.84591" lon="9.20376">
        <ele>2021.53</ele>
        <time>2019-09-09T11:11:19Z</time>
      </trkpt>
      <trkpt lat="41.84597" lon="9.20379">
        <ele>2020.37</ele>
        <time>2019-09-09T11:11:05Z</time>
      </trkpt>
      <trkpt lat="41.84602" lon="9.20384">
        <ele>2018.75</ele>
        <time>2019-09-09T11:10:50Z</time>
      </trkpt>
      <trkpt lat="41.84607" lon="9.2039">
        <ele>2017.21</ele>
        <time>2019-09-09T11:10:35Z</time>
      </trkpt>
      <trkpt lat="41.84615" lon="9.20402">
        <ele>2019.14</ele>
        <time>2019-09-09T11:10:17Z</time>
      </trkpt>
      <trkpt lat="41.84622" lon="9.2041">
        <ele>2019.13</ele>
        <time>2019-09-09T11:10:01Z</time>
      </trkpt>
      <trkpt lat="41.84625" lon="9.20414">
        <ele>2017.95</ele>
        <time>2019-09-09T11:09:47Z</time>
      </trkpt>
      <trkpt lat="41.84625" lon="9.2042">
        <ele>2016.51</ele>
        <time>2019-09-09T11:09:32Z</time>
      </trkpt>
      <trkpt lat="41.84624" lon="9.20423">
        <ele>2015.1</ele>
        <time>2019-09-09T11:09:18Z</time>
      </trkpt>
      <trkpt lat="41.84622" lon="9.20424">
        <ele>2013.98</ele>
        <time>2019-09-09T11:09:03Z</time>
      </trkpt>
      <trkpt lat="41.84624" lon="9.20429">
        <ele>2011.26</ele>
        <time>2019-09-09T11:08:48Z</time>
      </trkpt>
      <trkpt lat="41.84624" lon="9.20432">
        <ele>2009.63</ele>
        <time>2019-09-09T11:08:31Z</time>
      </trkpt>
      <trkpt lat="41.84626" lon="9.20435">
        <ele>2007.7</ele>
        <time>2019-09-09T11:08:17Z</time>
      </trkpt>
      <trkpt lat="41.84625" lon="9.20437">
        <ele>2006.47</ele>
        <time>2019-09-09T11:08:04Z</time>
      </trkpt>
      <trkpt lat="41.84622" lon="9.20437">
        <ele>2005.52</ele>
        <time>2019-09-09T11:07:51Z</time>
      </trkpt>
      <trkpt lat="41.8462" lon="9.20437">
        <ele>2004.68</ele>
        <time>2019-09-09T11:07:40Z</time>
      </trkpt>
      <trkpt lat="41.84618" lon="9.20439">
        <ele>2003.9</ele>
        <time>2019-09-09T11:07:26Z</time>
      </trkpt>
      <trkpt lat="41.84617" lon="9.20441">
        <ele>2002.89</ele>
        <time>2019-09-09T11:07:13Z</time>
      </trkpt>
      <trkpt lat="41.8462" lon="9.20445">
        <ele>2001.31</ele>
        <time>2019-09-09T11:07:00Z</time>
      </trkpt>
      <trkpt lat="41.84623" lon="9.20454">
        <ele>1999.51</ele>
        <time>2019-09-09T11:06:44Z</time>
      </trkpt>
      <trkpt lat="41.84626" lon="9.20458">
        <ele>1998.68</ele>
        <time>2019-09-09T11:06:31Z</time>
      </trkpt>
      <trkpt lat="41.84625" lon="9.20462">
        <ele>1997.51</ele>
        <time>2019-09-09T11:06:17Z</time>
      </trkpt>
      <trkpt lat="41.84623" lon="9.20461">
        <ele>1996.46</ele>
        <time>2019-09-09T11:06:04Z</time>
      </trkpt>
      <trkpt lat="41.84621" lon="9.20463">
        <ele>1995.3</ele>
        <time>2019-09-09T11:05:50Z</time>
      </trkpt>
      <trkpt lat="41.8462" lon="9.20465">
        <ele>1995.59</ele>
        <time>2019-09-09T11:05:20Z</time>
      </trkpt>
      <trkpt lat="41.84621" lon="9.20465">
        <ele>1995.52</ele>
        <time>2019-09-09T11:05:00Z</time>
      </trkpt>
      <trkpt lat="41.84622" lon="9.20468">
        <ele>1994.34</ele>
        <time>2019-09-09T11:04:47Z</time>
      </trkpt>
      <trkpt lat="41.84621" lon="9.20473">
        <ele>1993.57</ele>
        <time>2019-09-09T11:04:33Z</time>
      </trkpt>
      <trkpt lat="41.84626" lon="9.20476">
        <ele>1992.87</ele>
        <time>2019-09-09T11:04:19Z</time>
      </trkpt>
      <trkpt lat="41.84627" lon="9.2048">
        <ele>1991.1</ele>
        <time>2019-09-09T11:04:04Z</time>
      </trkpt>
      <trkpt lat="41.84632" lon="9.20487">
        <ele>1987.6</ele>
        <time>2019-09-09T11:03:50Z</time>
      </trkpt>
      <trkpt lat="41.84637" lon="9.20491">
        <ele>1986.36</ele>
        <time>2019-09-09T11:03:36Z</time>
      </trkpt>
      <trkpt lat="41.84641" lon="9.20493">
        <ele>1988.04</ele>
        <time>2019-09-09T11:03:20Z</time>
      </trkpt>
      <trkpt lat="41.84642" lon="9.20494">
        <ele>1989.7</ele>
        <time>2019-09-09T11:03:05Z</time>
      </trkpt>
      <trkpt lat="41.84646" lon="9.20498">
        <ele>1991.12</ele>
        <time>2019-09-09T11:02:52Z</time>
      </trkpt>
      <trkpt lat="41.84647" lon="9.20506">
        <ele>1991.25</ele>
        <time>2019-09-09T11:02:38Z</time>
      </trkpt>
      <trkpt lat="41.84653" lon="9.20513">
        <ele>1989.25</ele>
        <time>2019-09-09T11:02:20Z</time>
      </trkpt>
      <trkpt lat="41.84658" lon="9.20519">
        <ele>1988.06</ele>
        <time>2019-09-09T11:02:06Z</time>
      </trkpt>
      <trkpt lat="41.84661" lon="9.20521">
        <ele>1989.03</ele>
        <time>2019-09-09T11:01:51Z</time>
      </trkpt>
      <trkpt lat="41.84662" lon="9.20524">
        <ele>1988.85</ele>
        <time>2019-09-09T11:01:35Z</time>
      </trkpt>
      <trkpt lat="41.84661" lon="9.20525">
        <ele>1988.23</ele>
        <time>2019-09-09T11:01:18Z</time>
      </trkpt>
      <trkpt lat="41.84664" lon="9.20527">
        <ele>1989.39</ele>
        <time>2019-09-09T11:01:04Z</time>
      </trkpt>
      <trkpt lat="41.84664" lon="9.20529">
        <ele>1988.87</ele>
        <time>2019-09-09T11:00:45Z</time>
      </trkpt>
      <trkpt lat="41.84665" lon="9.20532">
        <ele>1989.07</ele>
        <time>2019-09-09T11:00:29Z</time>
      </trkpt>
      <trkpt lat="41.84667" lon="9.20538">
        <ele>1988.53</ele>
        <time>2019-09-09T11:00:16Z</time>
      </trkpt>
      <trkpt lat="41.8467" lon="9.20543">
        <ele>1988.4</ele>
        <time>2019-09-09T11:00:02Z</time>
      </trkpt>
      <trkpt lat="41.84673" lon="9.20545">
        <ele>1989.71</ele>
        <time>2019-09-09T10:59:46Z</time>
      </trkpt>
      <trkpt lat="41.84675" lon="9.20548">
        <ele>1990.16</ele>
        <time>2019-09-09T10:59:28Z</time>
      </trkpt>
      <trkpt lat="41.84679" lon="9.20555">
        <ele>1990.08</ele>
        <time>2019-09-09T10:59:15Z</time>
      </trkpt>
      <trkpt lat="41.84682" lon="9.20561">
        <ele>1989.19</ele>
        <time>2019-09-09T10:59:01Z</time>
      </trkpt>
      <trkpt lat="41.84681" lon="9.20566">
        <ele>1987.71</ele>
        <time>2019-09-09T10:58:46Z</time>
      </trkpt>
      <trkpt lat="41.84685" lon="9.20577">
        <ele>1987.72</ele>
        <time>2019-09-09T10:58:30Z</time>
      </trkpt>
      <trkpt lat="41.84688" lon="9.20583">
        <ele>1988.34</ele>
        <time>2019-09-09T10:58:13Z</time>
      </trkpt>
      <trkpt lat="41.84688" lon="9.20589">
        <ele>1986.21</ele>
        <time>2019-09-09T10:57:58Z</time>
      </trkpt>
      <trkpt lat="41.84688" lon="9.20594">
        <ele>1983.6</ele>
        <time>2019-09-09T10:57:45Z</time>
      </trkpt>
      <trkpt lat="41.84693" lon="9.20599">
        <ele>1980.48</ele>
        <time>2019-09-09T10:57:30Z</time>
      </trkpt>
      <trkpt lat="41.84691" lon="9.20601">
        <ele>1977.88</ele>
        <time>2019-09-09T10:57:16Z</time>
      </trkpt>
      <trkpt lat="41.84691" lon="9.20604">
        <ele>1975.19</ele>
        <time>2019-09-09T10:57:02Z</time>
      </trkpt>
      <trkpt lat="41.84694" lon="9.20604">
        <ele>1973.06</ele>
        <time>2019-09-09T10:56:49Z</time>
      </trkpt>
      <trkpt lat="41.84696" lon="9.20608">
        <ele>1972.24</ele>
        <time>2019-09-09T10:56:31Z</time>
      </trkpt>
      <trkpt lat="41.84702" lon="9.20613">
        <ele>1971.27</ele>
        <time>2019-09-09T10:56:16Z</time>
      </trkpt>
      <trkpt lat="41.84705" lon="9.20617">
        <ele>1969.25</ele>
        <time>2019-09-09T10:56:01Z</time>
      </trkpt>
      <trkpt lat="41.84708" lon="9.20621">
        <ele>1967.62</ele>
        <time>2019-09-09T10:55:45Z</time>
      </trkpt>
      <trkpt lat="41.84708" lon="9.20626">
        <ele>1965.71</ele>
        <time>2019-09-09T10:55:28Z</time>
      </trkpt>
      <trkpt lat="41.84707" lon="9.20628">
        <ele>1963.82</ele>
        <time>2019-09-09T10:55:13Z</time>
      </trkpt>
      <trkpt lat="41.84711" lon="9.20636">
        <ele>1962.4</ele>
        <time>2019-09-09T10:54:55Z</time>
      </trkpt>
      <trkpt lat="41.84712" lon="9.20639">
        <ele>1961.17</ele>
        <time>2019-09-09T10:54:42Z</time>
      </trkpt>
      <trkpt lat="41.84714" lon="9.20642">
        <ele>1960.34</ele>
        <time>2019-09-09T10:54:29Z</time>
      </trkpt>
      <trkpt lat="41.84712" lon="9.20642">
        <ele>1958.47</ele>
        <time>2019-09-09T10:54:16Z</time>
      </trkpt>
      <trkpt lat="41.84713" lon="9.20645">
        <ele>1957.33</ele>
        <time>2019-09-09T10:54:01Z</time>
      </trkpt>
      <trkpt lat="41.84714" lon="9.20649">
        <ele>1956.42</ele>
        <time>2019-09-09T10:53:44Z</time>
      </trkpt>
      <trkpt lat="41.84724" lon="9.20662">
        <ele>1956.15</ele>
        <time>2019-09-09T10:53:27Z</time>
      </trkpt>
      <trkpt lat="41.84725" lon="9.20665">
        <ele>1955.91</ele>
        <time>2019-09-09T10:53:24Z</time>
      </trkpt>
      <trkpt lat="41.84727" lon="9.20674">
        <ele>1955.42</ele>
        <time>2019-09-09T10:53:09Z</time>
      </trkpt>
      <trkpt lat="41.84727" lon="9.20678">
        <ele>1954.02</ele>
        <time>2019-09-09T10:52:56Z</time>
      </trkpt>
      <trkpt lat="41.84729" lon="9.20686">
        <ele>1950.43</ele>
        <time>2019-09-09T10:52:40Z</time>
      </trkpt>
      <trkpt lat="41.84732" lon="9.20693">
        <ele>1947.02</ele>
        <time>2019-09-09T10:52:26Z</time>
      </trkpt>
      <trkpt lat="41.84733" lon="9.20703">
        <ele>1944.15</ele>
        <time>2019-09-09T10:52:09Z</time>
      </trkpt>
      <trkpt lat="41.84732" lon="9.2071">
        <ele>1941.51</ele>
        <time>2019-09-09T10:51:55Z</time>
      </trkpt>
      <trkpt lat="41.84734" lon="9.20717">
        <ele>1939.8</ele>
        <time>2019-09-09T10:51:40Z</time>
      </trkpt>
      <trkpt lat="41.84736" lon="9.20723">
        <ele>1939.49</ele>
        <time>2019-09-09T10:51:15Z</time>
      </trkpt>
      <trkpt lat="41.84736" lon="9.20725">
        <ele>1939.03</ele>
        <time>2019-09-09T10:50:56Z</time>
      </trkpt>
      <trkpt lat="41.84738" lon="9.20729">
        <ele>1935.19</ele>
        <time>2019-09-09T10:50:44Z</time>
      </trkpt>
      <trkpt lat="41.84738" lon="9.20734">
        <ele>1934.67</ele>
        <time>2019-09-09T10:50:29Z</time>
      </trkpt>
      <trkpt lat="41.84738" lon="9.2074">
        <ele>1934.06</ele>
        <time>2019-09-09T10:50:13Z</time>
      </trkpt>
      <trkpt lat="41.84736" lon="9.20743">
        <ele>1932.34</ele>
        <time>2019-09-09T10:50:03Z</time>
      </trkpt>
      <trkpt lat="41.84735" lon="9.20748">
        <ele>1931.16</ele>
        <time>2019-09-09T10:49:50Z</time>
      </trkpt>
      <trkpt lat="41.84732" lon="9.20749">
        <ele>1929.47</ele>
        <time>2019-09-09T10:49:35Z</time>
      </trkpt>
      <trkpt lat="41.84728" lon="9.20743">
        <ele>1928.06</ele>
        <time>2019-09-09T10:49:21Z</time>
      </trkpt>
      <trkpt lat="41.84724" lon="9.20739">
        <ele>1927.43</ele>
        <time>2019-09-09T10:49:06Z</time>
      </trkpt>
      <trkpt lat="41.84723" lon="9.20743">
        <ele>1926.26</ele>
        <time>2019-09-09T10:48:50Z</time>
      </trkpt>
      <trkpt lat="41.84722" lon="9.20747">
        <ele>1924.5</ele>
        <time>2019-09-09T10:48:36Z</time>
      </trkpt>
      <trkpt lat="41.84719" lon="9.20751">
        <ele>1923.55</ele>
        <time>2019-09-09T10:48:24Z</time>
      </trkpt>
      <trkpt lat="41.84717" lon="9.20752">
        <ele>1922.37</ele>
        <time>2019-09-09T10:48:10Z</time>
      </trkpt>
      <trkpt lat="41.84714" lon="9.2075">
        <ele>1921.11</ele>
        <time>2019-09-09T10:47:55Z</time>
      </trkpt>
      <trkpt lat="41.84712" lon="9.20754">
        <ele>1919.35</ele>
        <time>2019-09-09T10:47:41Z</time>
      </trkpt>
      <trkpt lat="41.8471" lon="9.20753">
        <ele>1917.97</ele>
        <time>2019-09-09T10:47:23Z</time>
      </trkpt>
      <trkpt lat="41.84709" lon="9.20754">
        <ele>1916.96</ele>
        <time>2019-09-09T10:47:11Z</time>
      </trkpt>
      <trkpt lat="41.84707" lon="9.2075">
        <ele>1915.91</ele>
        <time>2019-09-09T10:46:58Z</time>
      </trkpt>
      <trkpt lat="41.84705" lon="9.20749">
        <ele>1915.02</ele>
        <time>2019-09-09T10:46:44Z</time>
      </trkpt>
      <trkpt lat="41.84702" lon="9.20747">
        <ele>1914.78</ele>
        <time>2019-09-09T10:46:30Z</time>
      </trkpt>
      <trkpt lat="41.84702" lon="9.20743">
        <ele>1916.14</ele>
        <time>2019-09-09T10:46:11Z</time>
      </trkpt>
      <trkpt lat="41.84701" lon="9.20746">
        <ele>1914.92</ele>
        <time>2019-09-09T10:45:59Z</time>
      </trkpt>
      <trkpt lat="41.84702" lon="9.20751">
        <ele>1913.7</ele>
        <time>2019-09-09T10:45:44Z</time>
      </trkpt>
      <trkpt lat="41.84701" lon="9.20754">
        <ele>1912.18</ele>
        <time>2019-09-09T10:45:27Z</time>
      </trkpt>
      <trkpt lat="41.84699" lon="9.20753">
        <ele>1910.78</ele>
        <time>2019-09-09T10:45:12Z</time>
      </trkpt>
      <trkpt lat="41.84696" lon="9.20751">
        <ele>1909.9</ele>
        <time>2019-09-09T10:44:59Z</time>
      </trkpt>
      <trkpt lat="41.84693" lon="9.20745">
        <ele>1908.5</ele>
        <time>2019-09-09T10:44:46Z</time>
      </trkpt>
      <trkpt lat="41.84693" lon="9.20744">
        <ele>1907.19</ele>
        <time>2019-09-09T10:44:27Z</time>
      </trkpt>
      <trkpt lat="41.8469" lon="9.20747">
        <ele>1906.16</ele>
        <time>2019-09-09T10:44:11Z</time>
      </trkpt>
      <trkpt lat="41.84688" lon="9.20749">
        <ele>1904.36</ele>
        <time>2019-09-09T10:43:56Z</time>
      </trkpt>
      <trkpt lat="41.84684" lon="9.20751">
        <ele>1902.67</ele>
        <time>2019-09-09T10:43:41Z</time>
      </trkpt>
      <trkpt lat="41.84683" lon="9.20754">
        <ele>1901.25</ele>
        <time>2019-09-09T10:43:24Z</time>
      </trkpt>
      <trkpt lat="41.84682" lon="9.20755">
        <ele>1900.24</ele>
        <time>2019-09-09T10:43:09Z</time>
      </trkpt>
      <trkpt lat="41.84678" lon="9.20755">
        <ele>1898.37</ele>
        <time>2019-09-09T10:42:55Z</time>
      </trkpt>
      <trkpt lat="41.84678" lon="9.20759">
        <ele>1897.16</ele>
        <time>2019-09-09T10:42:42Z</time>
      </trkpt>
      <trkpt lat="41.84678" lon="9.20765">
        <ele>1895.63</ele>
        <time>2019-09-09T10:42:27Z</time>
      </trkpt>
      <trkpt lat="41.84677" lon="9.20769">
        <ele>1894.29</ele>
        <time>2019-09-09T10:42:13Z</time>
      </trkpt>
      <trkpt lat="41.84674" lon="9.20774">
        <ele>1892.5</ele>
        <time>2019-09-09T10:41:58Z</time>
      </trkpt>
      <trkpt lat="41.84673" lon="9.20777">
        <ele>1890.46</ele>
        <time>2019-09-09T10:41:45Z</time>
      </trkpt>
      <trkpt lat="41.8467" lon="9.20782">
        <ele>1887.8</ele>
        <time>2019-09-09T10:41:31Z</time>
      </trkpt>
      <trkpt lat="41.84668" lon="9.20785">
        <ele>1886.07</ele>
        <time>2019-09-09T10:41:16Z</time>
      </trkpt>
      <trkpt lat="41.84667" lon="9.20782">
        <ele>1885.54</ele>
        <time>2019-09-09T10:41:03Z</time>
      </trkpt>
      <trkpt lat="41.84665" lon="9.20774">
        <ele>1886.04</ele>
        <time>2019-09-09T10:40:49Z</time>
      </trkpt>
      <trkpt lat="41.84663" lon="9.20769">
        <ele>1884.64</ele>
        <time>2019-09-09T10:40:34Z</time>
      </trkpt>
      <trkpt lat="41.8466" lon="9.20768">
        <ele>1882.73</ele>
        <time>2019-09-09T10:40:18Z</time>
      </trkpt>
      <trkpt lat="41.84657" lon="9.2077">
        <ele>1881.64</ele>
        <time>2019-09-09T10:40:05Z</time>
      </trkpt>
      <trkpt lat="41.84654" lon="9.20768">
        <ele>1880.09</ele>
        <time>2019-09-09T10:39:53Z</time>
      </trkpt>
      <trkpt lat="41.84654" lon="9.20773">
        <ele>1878.35</ele>
        <time>2019-09-09T10:39:38Z</time>
      </trkpt>
      <trkpt lat="41.84653" lon="9.20776">
        <ele>1877.22</ele>
        <time>2019-09-09T10:39:24Z</time>
      </trkpt>
      <trkpt lat="41.84653" lon="9.20782">
        <ele>1875.6</ele>
        <time>2019-09-09T10:39:11Z</time>
      </trkpt>
      <trkpt lat="41.84653" lon="9.20786">
        <ele>1875.11</ele>
        <time>2019-09-09T10:38:57Z</time>
      </trkpt>
      <trkpt lat="41.84653" lon="9.20791">
        <ele>1872.13</ele>
        <time>2019-09-09T10:38:40Z</time>
      </trkpt>
      <trkpt lat="41.84652" lon="9.20794">
        <ele>1870.64</ele>
        <time>2019-09-09T10:38:26Z</time>
      </trkpt>
      <trkpt lat="41.8465" lon="9.20797">
        <ele>1869.36</ele>
        <time>2019-09-09T10:38:10Z</time>
      </trkpt>
      <trkpt lat="41.84648" lon="9.20798">
        <ele>1868.5</ele>
        <time>2019-09-09T10:37:54Z</time>
      </trkpt>
      <trkpt lat="41.84645" lon="9.20804">
        <ele>1866.48</ele>
        <time>2019-09-09T10:37:38Z</time>
      </trkpt>
      <trkpt lat="41.84643" lon="9.20802">
        <ele>1865.36</ele>
        <time>2019-09-09T10:37:24Z</time>
      </trkpt>
      <trkpt lat="41.84641" lon="9.208">
        <ele>1863.7</ele>
        <time>2019-09-09T10:37:10Z</time>
      </trkpt>
      <trkpt lat="41.84639" lon="9.20798">
        <ele>1862.68</ele>
        <time>2019-09-09T10:36:57Z</time>
      </trkpt>
      <trkpt lat="41.84636" lon="9.20799">
        <ele>1862.05</ele>
        <time>2019-09-09T10:36:45Z</time>
      </trkpt>
      <trkpt lat="41.84634" lon="9.208">
        <ele>1859.92</ele>
        <time>2019-09-09T10:36:32Z</time>
      </trkpt>
      <trkpt lat="41.84632" lon="9.20803">
        <ele>1858.45</ele>
        <time>2019-09-09T10:36:18Z</time>
      </trkpt>
      <trkpt lat="41.8463" lon="9.20801">
        <ele>1856.83</ele>
        <time>2019-09-09T10:36:05Z</time>
      </trkpt>
      <trkpt lat="41.84628" lon="9.20797">
        <ele>1855.09</ele>
        <time>2019-09-09T10:35:51Z</time>
      </trkpt>
      <trkpt lat="41.84625" lon="9.20795">
        <ele>1854.19</ele>
        <time>2019-09-09T10:35:39Z</time>
      </trkpt>
      <trkpt lat="41.84622" lon="9.20796">
        <ele>1852.94</ele>
        <time>2019-09-09T10:35:22Z</time>
      </trkpt>
      <trkpt lat="41.84617" lon="9.20794">
        <ele>1851.89</ele>
        <time>2019-09-09T10:35:09Z</time>
      </trkpt>
      <trkpt lat="41.84615" lon="9.20793">
        <ele>1850.86</ele>
        <time>2019-09-09T10:34:55Z</time>
      </trkpt>
      <trkpt lat="41.84612" lon="9.20795">
        <ele>1849.46</ele>
        <time>2019-09-09T10:34:43Z</time>
      </trkpt>
      <trkpt lat="41.84609" lon="9.20796">
        <ele>1848.81</ele>
        <time>2019-09-09T10:34:30Z</time>
      </trkpt>
      <trkpt lat="41.84605" lon="9.20796">
        <ele>1847.43</ele>
        <time>2019-09-09T10:34:16Z</time>
      </trkpt>
      <trkpt lat="41.84602" lon="9.20796">
        <ele>1845.55</ele>
        <time>2019-09-09T10:34:04Z</time>
      </trkpt>
      <trkpt lat="41.84601" lon="9.20799">
        <ele>1844.25</ele>
        <time>2019-09-09T10:33:51Z</time>
      </trkpt>
      <trkpt lat="41.84597" lon="9.208">
        <ele>1841.75</ele>
        <time>2019-09-09T10:33:36Z</time>
      </trkpt>
      <trkpt lat="41.84597" lon="9.20806">
        <ele>1839.83</ele>
        <time>2019-09-09T10:33:18Z</time>
      </trkpt>
      <trkpt lat="41.84594" lon="9.20806">
        <ele>1839.18</ele>
        <time>2019-09-09T10:33:05Z</time>
      </trkpt>
      <trkpt lat="41.8459" lon="9.20804">
        <ele>1838.04</ele>
        <time>2019-09-09T10:32:54Z</time>
      </trkpt>
      <trkpt lat="41.84588" lon="9.20806">
        <ele>1835.87</ele>
        <time>2019-09-09T10:32:41Z</time>
      </trkpt>
      <trkpt lat="41.84586" lon="9.20809">
        <ele>1833.94</ele>
        <time>2019-09-09T10:32:25Z</time>
      </trkpt>
      <trkpt lat="41.84585" lon="9.20813">
        <ele>1832.12</ele>
        <time>2019-09-09T10:32:08Z</time>
      </trkpt>
      <trkpt lat="41.84583" lon="9.20814">
        <ele>1830.62</ele>
        <time>2019-09-09T10:31:56Z</time>
      </trkpt>
      <trkpt lat="41.84582" lon="9.20818">
        <ele>1829.89</ele>
        <time>2019-09-09T10:31:44Z</time>
      </trkpt>
      <trkpt lat="41.84579" lon="9.20818">
        <ele>1828.35</ele>
        <time>2019-09-09T10:31:30Z</time>
      </trkpt>
      <trkpt lat="41.84576" lon="9.2082">
        <ele>1826.63</ele>
        <time>2019-09-09T10:31:13Z</time>
      </trkpt>
      <trkpt lat="41.84574" lon="9.20822">
        <ele>1824.78</ele>
        <time>2019-09-09T10:30:58Z</time>
      </trkpt>
      <trkpt lat="41.84572" lon="9.20826">
        <ele>1823.96</ele>
        <time>2019-09-09T10:30:46Z</time>
      </trkpt>
      <trkpt lat="41.8457" lon="9.20825">
        <ele>1822.43</ele>
        <time>2019-09-09T10:30:34Z</time>
      </trkpt>
      <trkpt lat="41.84567" lon="9.20824">
        <ele>1820.68</ele>
        <time>2019-09-09T10:30:20Z</time>
      </trkpt>
      <trkpt lat="41.84565" lon="9.20822">
        <ele>1819.48</ele>
        <time>2019-09-09T10:30:05Z</time>
      </trkpt>
      <trkpt lat="41.84563" lon="9.2082">
        <ele>1818.31</ele>
        <time>2019-09-09T10:29:51Z</time>
      </trkpt>
      <trkpt lat="41.8456" lon="9.20816">
        <ele>1817.72</ele>
        <time>2019-09-09T10:29:41Z</time>
      </trkpt>
      <trkpt lat="41.84555" lon="9.20812">
        <ele>1816.63</ele>
        <time>2019-09-09T10:29:27Z</time>
      </trkpt>
      <trkpt lat="41.84551" lon="9.20808">
        <ele>1814.56</ele>
        <time>2019-09-09T10:29:14Z</time>
      </trkpt>
      <trkpt lat="41.84547" lon="9.20808">
        <ele>1812.28</ele>
        <time>2019-09-09T10:28:58Z</time>
      </trkpt>
      <trkpt lat="41.84545" lon="9.20807">
        <ele>1810.5</ele>
        <time>2019-09-09T10:28:43Z</time>
      </trkpt>
      <trkpt lat="41.84544" lon="9.2081">
        <ele>1808.98</ele>
        <time>2019-09-09T10:28:31Z</time>
      </trkpt>
      <trkpt lat="41.84543" lon="9.20815">
        <ele>1808.27</ele>
        <time>2019-09-09T10:28:19Z</time>
      </trkpt>
      <trkpt lat="41.84542" lon="9.20818">
        <ele>1806.81</ele>
        <time>2019-09-09T10:28:04Z</time>
      </trkpt>
      <trkpt lat="41.84539" lon="9.20821">
        <ele>1805.75</ele>
        <time>2019-09-09T10:27:51Z</time>
      </trkpt>
      <trkpt lat="41.84536" lon="9.20821">
        <ele>1804.02</ele>
        <time>2019-09-09T10:27:38Z</time>
      </trkpt>
      <trkpt lat="41.84533" lon="9.20819">
        <ele>1800.93</ele>
        <time>2019-09-09T10:27:22Z</time>
      </trkpt>
      <trkpt lat="41.84531" lon="9.20822">
        <ele>1799.56</ele>
        <time>2019-09-09T10:27:08Z</time>
      </trkpt>
      <trkpt lat="41.84529" lon="9.20824">
        <ele>1797.63</ele>
        <time>2019-09-09T10:26:54Z</time>
      </trkpt>
      <trkpt lat="41.84527" lon="9.20827">
        <ele>1796.69</ele>
        <time>2019-09-09T10:26:38Z</time>
      </trkpt>
      <trkpt lat="41.84526" lon="9.20831">
        <ele>1795.13</ele>
        <time>2019-09-09T10:26:22Z</time>
      </trkpt>
      <trkpt lat="41.84525" lon="9.20837">
        <ele>1793.97</ele>
        <time>2019-09-09T10:26:07Z</time>
      </trkpt>
      <trkpt lat="41.84522" lon="9.20839">
        <ele>1791.73</ele>
        <time>2019-09-09T10:25:54Z</time>
      </trkpt>
      <trkpt lat="41.84519" lon="9.20839">
        <ele>1789.86</ele>
        <time>2019-09-09T10:25:42Z</time>
      </trkpt>
      <trkpt lat="41.84516" lon="9.20842">
        <ele>1787.6</ele>
        <time>2019-09-09T10:25:30Z</time>
      </trkpt>
      <trkpt lat="41.84513" lon="9.20842">
        <ele>1786.63</ele>
        <time>2019-09-09T10:25:17Z</time>
      </trkpt>
      <trkpt lat="41.84512" lon="9.20839">
        <ele>1786.33</ele>
        <time>2019-09-09T10:24:58Z</time>
      </trkpt>
      <trkpt lat="41.84509" lon="9.20842">
        <ele>1784.64</ele>
        <time>2019-09-09T10:24:46Z</time>
      </trkpt>
      <trkpt lat="41.84508" lon="9.20845">
        <ele>1781.78</ele>
        <time>2019-09-09T10:24:32Z</time>
      </trkpt>
      <trkpt lat="41.84506" lon="9.2085">
        <ele>1779.82</ele>
        <time>2019-09-09T10:24:18Z</time>
      </trkpt>
      <trkpt lat="41.84506" lon="9.20855">
        <ele>1779.12</ele>
        <time>2019-09-09T10:24:05Z</time>
      </trkpt>
      <trkpt lat="41.84507" lon="9.20859">
        <ele>1779.29</ele>
        <time>2019-09-09T10:23:44Z</time>
      </trkpt>
      <trkpt lat="41.84505" lon="9.20863">
        <ele>1777.41</ele>
        <time>2019-09-09T10:23:27Z</time>
      </trkpt>
      <trkpt lat="41.84504" lon="9.20865">
        <ele>1775.72</ele>
        <time>2019-09-09T10:23:15Z</time>
      </trkpt>
      <trkpt lat="41.845" lon="9.20864">
        <ele>1773.92</ele>
        <time>2019-09-09T10:23:00Z</time>
      </trkpt>
      <trkpt lat="41.84498" lon="9.20867">
        <ele>1772.04</ele>
        <time>2019-09-09T10:22:47Z</time>
      </trkpt>
      <trkpt lat="41.84495" lon="9.20869">
        <ele>1769.61</ele>
        <time>2019-09-09T10:22:33Z</time>
      </trkpt>
      <trkpt lat="41.84493" lon="9.20871">
        <ele>1767.63</ele>
        <time>2019-09-09T10:22:18Z</time>
      </trkpt>
      <trkpt lat="41.84493" lon="9.20874">
        <ele>1766.38</ele>
        <time>2019-09-09T10:22:04Z</time>
      </trkpt>
      <trkpt lat="41.84492" lon="9.20877">
        <ele>1765.22</ele>
        <time>2019-09-09T10:21:46Z</time>
      </trkpt>
      <trkpt lat="41.8449" lon="9.20878">
        <ele>1763.93</ele>
        <time>2019-09-09T10:21:31Z</time>
      </trkpt>
      <trkpt lat="41.84489" lon="9.20882">
        <ele>1762.81</ele>
        <time>2019-09-09T10:21:01Z</time>
      </trkpt>
      <trkpt lat="41.84489" lon="9.20883">
        <ele>1761.93</ele>
        <time>2019-09-09T10:20:41Z</time>
      </trkpt>
      <trkpt lat="41.84487" lon="9.20882">
        <ele>1761.17</ele>
        <time>2019-09-09T10:20:28Z</time>
      </trkpt>
      <trkpt lat="41.84486" lon="9.20886">
        <ele>1759.97</ele>
        <time>2019-09-09T10:20:14Z</time>
      </trkpt>
      <trkpt lat="41.84485" lon="9.20891">
        <ele>1758.56</ele>
        <time>2019-09-09T10:19:59Z</time>
      </trkpt>
      <trkpt lat="41.8448" lon="9.20887">
        <ele>1757.69</ele>
        <time>2019-09-09T10:19:45Z</time>
      </trkpt>
      <trkpt lat="41.84478" lon="9.20886">
        <ele>1756.26</ele>
        <time>2019-09-09T10:19:31Z</time>
      </trkpt>
      <trkpt lat="41.84474" lon="9.20886">
        <ele>1754.28</ele>
        <time>2019-09-09T10:19:15Z</time>
      </trkpt>
      <trkpt lat="41.84472" lon="9.20886">
        <ele>1752.9</ele>
        <time>2019-09-09T10:19:04Z</time>
      </trkpt>
      <trkpt lat="41.84469" lon="9.20886">
        <ele>1751.2</ele>
        <time>2019-09-09T10:18:51Z</time>
      </trkpt>
      <trkpt lat="41.84466" lon="9.20888">
        <ele>1750.51</ele>
        <time>2019-09-09T10:18:37Z</time>
      </trkpt>
      <trkpt lat="41.84466" lon="9.20893">
        <ele>1749.25</ele>
        <time>2019-09-09T10:18:26Z</time>
      </trkpt>
      <trkpt lat="41.84464" lon="9.20894">
        <ele>1747.81</ele>
        <time>2019-09-09T10:18:14Z</time>
      </trkpt>
      <trkpt lat="41.84461" lon="9.20896">
        <ele>1746</ele>
        <time>2019-09-09T10:18:01Z</time>
      </trkpt>
      <trkpt lat="41.84458" lon="9.20897">
        <ele>1744.92</ele>
        <time>2019-09-09T10:17:48Z</time>
      </trkpt>
      <trkpt lat="41.84455" lon="9.20897">
        <ele>1743.95</ele>
        <time>2019-09-09T10:17:34Z</time>
      </trkpt>
      <trkpt lat="41.84452" lon="9.20895">
        <ele>1743.29</ele>
        <time>2019-09-09T10:17:21Z</time>
      </trkpt>
      <trkpt lat="41.84448" lon="9.20893">
        <ele>1741.65</ele>
        <time>2019-09-09T10:17:07Z</time>
      </trkpt>
      <trkpt lat="41.84446" lon="9.20897">
        <ele>1739.81</ele>
        <time>2019-09-09T10:16:54Z</time>
      </trkpt>
      <trkpt lat="41.84444" lon="9.20902">
        <ele>1737.78</ele>
        <time>2019-09-09T10:16:41Z</time>
      </trkpt>
      <trkpt lat="41.84442" lon="9.20907">
        <ele>1735.87</ele>
        <time>2019-09-09T10:16:26Z</time>
      </trkpt>
      <trkpt lat="41.84441" lon="9.20913">
        <ele>1734.06</ele>
        <time>2019-09-09T10:16:14Z</time>
      </trkpt>
      <trkpt lat="41.8444" lon="9.20922">
        <ele>1731.95</ele>
        <time>2019-09-09T10:16:00Z</time>
      </trkpt>
      <trkpt lat="41.84439" lon="9.20929">
        <ele>1729.98</ele>
        <time>2019-09-09T10:15:47Z</time>
      </trkpt>
      <trkpt lat="41.84437" lon="9.20933">
        <ele>1729.06</ele>
        <time>2019-09-09T10:15:37Z</time>
      </trkpt>
      <trkpt lat="41.84433" lon="9.20938">
        <ele>1728.05</ele>
        <time>2019-09-09T10:15:21Z</time>
      </trkpt>
      <trkpt lat="41.84435" lon="9.2094">
        <ele>1727.85</ele>
        <time>2019-09-09T10:14:59Z</time>
      </trkpt>
      <trkpt lat="41.84434" lon="9.2094">
        <ele>1728.75</ele>
        <time>2019-09-09T10:14:20Z</time>
      </trkpt>
      <trkpt lat="41.84434" lon="9.2094">
        <ele>1729.43</ele>
        <time>2019-09-09T10:13:38Z</time>
      </trkpt>
      <trkpt lat="41.84433" lon="9.20939">
        <ele>1729.44</ele>
        <time>2019-09-09T10:13:10Z</time>
      </trkpt>
      <trkpt lat="41.84432" lon="9.20939">
        <ele>1729.7</ele>
        <time>2019-09-09T10:12:38Z</time>
      </trkpt>
      <trkpt lat="41.84433" lon="9.20941">
        <ele>1730.14</ele>
        <time>2019-09-09T10:11:56Z</time>
      </trkpt>
      <trkpt lat="41.84433" lon="9.20941">
        <ele>1729.84</ele>
        <time>2019-09-09T10:11:43Z</time>
      </trkpt>
      <trkpt lat="41.84433" lon="9.20941">
        <ele>1729.97</ele>
        <time>2019-09-09T10:11:28Z</time>
      </trkpt>
      <trkpt lat="41.84433" lon="9.20943">
        <ele>1729.27</ele>
        <time>2019-09-09T10:11:12Z</time>
      </trkpt>
      <trkpt lat="41.84428" lon="9.20952">
        <ele>1727.57</ele>
        <time>2019-09-09T10:10:56Z</time>
      </trkpt>
      <trkpt lat="41.84424" lon="9.20957">
        <ele>1726.31</ele>
        <time>2019-09-09T10:10:43Z</time>
      </trkpt>
      <trkpt lat="41.84419" lon="9.20958">
        <ele>1723.97</ele>
        <time>2019-09-09T10:10:29Z</time>
      </trkpt>
      <trkpt lat="41.84415" lon="9.20962">
        <ele>1721.71</ele>
        <time>2019-09-09T10:10:15Z</time>
      </trkpt>
      <trkpt lat="41.84411" lon="9.20972">
        <ele>1720.6</ele>
        <time>2019-09-09T10:10:01Z</time>
      </trkpt>
      <trkpt lat="41.8441" lon="9.20979">
        <ele>1719.29</ele>
        <time>2019-09-09T10:09:46Z</time>
      </trkpt>
      <trkpt lat="41.84407" lon="9.20987">
        <ele>1717.78</ele>
        <time>2019-09-09T10:09:33Z</time>
      </trkpt>
      <trkpt lat="41.84404" lon="9.20994">
        <ele>1716.14</ele>
        <time>2019-09-09T10:09:19Z</time>
      </trkpt>
      <trkpt lat="41.84402" lon="9.20999">
        <ele>1714.71</ele>
        <time>2019-09-09T10:09:06Z</time>
      </trkpt>
      <trkpt lat="41.844" lon="9.21005">
        <ele>1712.86</ele>
        <time>2019-09-09T10:08:53Z</time>
      </trkpt>
      <trkpt lat="41.84396" lon="9.2101">
        <ele>1710.81</ele>
        <time>2019-09-09T10:08:38Z</time>
      </trkpt>
      <trkpt lat="41.84392" lon="9.21016">
        <ele>1709.28</ele>
        <time>2019-09-09T10:08:25Z</time>
      </trkpt>
      <trkpt lat="41.84389" lon="9.2102">
        <ele>1707.48</ele>
        <time>2019-09-09T10:08:12Z</time>
      </trkpt>
      <trkpt lat="41.84384" lon="9.21028">
        <ele>1705.73</ele>
        <time>2019-09-09T10:07:57Z</time>
      </trkpt>
      <trkpt lat="41.84381" lon="9.21034">
        <ele>1704.14</ele>
        <time>2019-09-09T10:07:45Z</time>
      </trkpt>
      <trkpt lat="41.84377" lon="9.21039">
        <ele>1702.62</ele>
        <time>2019-09-09T10:07:32Z</time>
      </trkpt>
      <trkpt lat="41.84375" lon="9.21051">
        <ele>1702.18</ele>
        <time>2019-09-09T10:07:18Z</time>
      </trkpt>
      <trkpt lat="41.84372" lon="9.21056">
        <ele>1701.19</ele>
        <time>2019-09-09T10:07:07Z</time>
      </trkpt>
      <trkpt lat="41.84368" lon="9.21061">
        <ele>1699.74</ele>
        <time>2019-09-09T10:06:55Z</time>
      </trkpt>
      <trkpt lat="41.84363" lon="9.21067">
        <ele>1698.4</ele>
        <time>2019-09-09T10:06:42Z</time>
      </trkpt>
      <trkpt lat="41.84358" lon="9.21072">
        <ele>1696.42</ele>
        <time>2019-09-09T10:06:28Z</time>
      </trkpt>
      <trkpt lat="41.84354" lon="9.21076">
        <ele>1694.97</ele>
        <time>2019-09-09T10:06:15Z</time>
      </trkpt>
      <trkpt lat="41.8435" lon="9.21081">
        <ele>1693.37</ele>
        <time>2019-09-09T10:06:02Z</time>
      </trkpt>
      <trkpt lat="41.84347" lon="9.21082">
        <ele>1691.92</ele>
        <time>2019-09-09T10:05:49Z</time>
      </trkpt>
      <trkpt lat="41.84346" lon="9.21086">
        <ele>1690.57</ele>
        <time>2019-09-09T10:05:37Z</time>
      </trkpt>
      <trkpt lat="41.84343" lon="9.21091">
        <ele>1688.75</ele>
        <time>2019-09-09T10:05:23Z</time>
      </trkpt>
      <trkpt lat="41.8434" lon="9.21094">
        <ele>1686.77</ele>
        <time>2019-09-09T10:05:07Z</time>
      </trkpt>
      <trkpt lat="41.84338" lon="9.21092">
        <ele>1685.51</ele>
        <time>2019-09-09T10:04:55Z</time>
      </trkpt>
      <trkpt lat="41.84335" lon="9.21095">
        <ele>1684.24</ele>
        <time>2019-09-09T10:04:44Z</time>
      </trkpt>
      <trkpt lat="41.84332" lon="9.21098">
        <ele>1682.41</ele>
        <time>2019-09-09T10:04:30Z</time>
      </trkpt>
      <trkpt lat="41.84328" lon="9.21095">
        <ele>1680.65</ele>
        <time>2019-09-09T10:04:16Z</time>
      </trkpt>
      <trkpt lat="41.84325" lon="9.21092">
        <ele>1679.08</ele>
        <time>2019-09-09T10:04:01Z</time>
      </trkpt>
      <trkpt lat="41.84322" lon="9.21088">
        <ele>1677.67</ele>
        <time>2019-09-09T10:03:49Z</time>
      </trkpt>
      <trkpt lat="41.84319" lon="9.21092">
        <ele>1675.52</ele>
        <time>2019-09-09T10:03:35Z</time>
      </trkpt>
      <trkpt lat="41.84316" lon="9.21093">
        <ele>1674.12</ele>
        <time>2019-09-09T10:03:23Z</time>
      </trkpt>
      <trkpt lat="41.84314" lon="9.21089">
        <ele>1672.75</ele>
        <time>2019-09-09T10:03:09Z</time>
      </trkpt>
      <trkpt lat="41.84311" lon="9.21084">
        <ele>1670.99</ele>
        <time>2019-09-09T10:02:54Z</time>
      </trkpt>
      <trkpt lat="41.84309" lon="9.21089">
        <ele>1669.12</ele>
        <time>2019-09-09T10:02:39Z</time>
      </trkpt>
      <trkpt lat="41.84306" lon="9.21091">
        <ele>1667.28</ele>
        <time>2019-09-09T10:02:25Z</time>
      </trkpt>
      <trkpt lat="41.84303" lon="9.21095">
        <ele>1664.99</ele>
        <time>2019-09-09T10:02:09Z</time>
      </trkpt>
      <trkpt lat="41.843" lon="9.21094">
        <ele>1663.62</ele>
        <time>2019-09-09T10:01:55Z</time>
      </trkpt>
      <trkpt lat="41.84298" lon="9.21094">
        <ele>1661.99</ele>
        <time>2019-09-09T10:01:43Z</time>
      </trkpt>
      <trkpt lat="41.84298" lon="9.211">
        <ele>1660.44</ele>
        <time>2019-09-09T10:01:29Z</time>
      </trkpt>
      <trkpt lat="41.84295" lon="9.211">
        <ele>1658.96</ele>
        <time>2019-09-09T10:01:17Z</time>
      </trkpt>
      <trkpt lat="41.84293" lon="9.211">
        <ele>1657.2</ele>
        <time>2019-09-09T10:01:05Z</time>
      </trkpt>
      <trkpt lat="41.84291" lon="9.21102">
        <ele>1655.51</ele>
        <time>2019-09-09T10:00:52Z</time>
      </trkpt>
      <trkpt lat="41.84288" lon="9.21101">
        <ele>1653.42</ele>
        <time>2019-09-09T10:00:38Z</time>
      </trkpt>
      <trkpt lat="41.84286" lon="9.21109">
        <ele>1651.46</ele>
        <time>2019-09-09T10:00:24Z</time>
      </trkpt>
      <trkpt lat="41.84284" lon="9.21112">
        <ele>1649.99</ele>
        <time>2019-09-09T10:00:11Z</time>
      </trkpt>
      <trkpt lat="41.84283" lon="9.21118">
        <ele>1649.04</ele>
        <time>2019-09-09T09:59:59Z</time>
      </trkpt>
      <trkpt lat="41.8428" lon="9.21117">
        <ele>1647.08</ele>
        <time>2019-09-09T09:59:46Z</time>
      </trkpt>
      <trkpt lat="41.84277" lon="9.21116">
        <ele>1645.03</ele>
        <time>2019-09-09T09:59:33Z</time>
      </trkpt>
      <trkpt lat="41.84274" lon="9.21114">
        <ele>1643.54</ele>
        <time>2019-09-09T09:59:22Z</time>
      </trkpt>
      <trkpt lat="41.84271" lon="9.21114">
        <ele>1641.16</ele>
        <time>2019-09-09T09:59:09Z</time>
      </trkpt>
      <trkpt lat="41.84268" lon="9.21115">
        <ele>1639.65</ele>
        <time>2019-09-09T09:58:55Z</time>
      </trkpt>
      <trkpt lat="41.84266" lon="9.21115">
        <ele>1637.66</ele>
        <time>2019-09-09T09:58:40Z</time>
      </trkpt>
      <trkpt lat="41.84262" lon="9.21118">
        <ele>1635.98</ele>
        <time>2019-09-09T09:58:27Z</time>
      </trkpt>
      <trkpt lat="41.84261" lon="9.21121">
        <ele>1634.7</ele>
        <time>2019-09-09T09:57:58Z</time>
      </trkpt>
      <trkpt lat="41.84261" lon="9.21121">
        <ele>1634.14</ele>
        <time>2019-09-09T09:57:33Z</time>
      </trkpt>
      <trkpt lat="41.84261" lon="9.21124">
        <ele>1634.04</ele>
        <time>2019-09-09T09:56:48Z</time>
      </trkpt>
      <trkpt lat="41.84261" lon="9.21125">
        <ele>1633.86</ele>
        <time>2019-09-09T09:56:28Z</time>
      </trkpt>
      <trkpt lat="41.84258" lon="9.21129">
        <ele>1631.93</ele>
        <time>2019-09-09T09:56:16Z</time>
      </trkpt>
      <trkpt lat="41.84254" lon="9.21131">
        <ele>1629.88</ele>
        <time>2019-09-09T09:56:02Z</time>
      </trkpt>
      <trkpt lat="41.84251" lon="9.21132">
        <ele>1627.68</ele>
        <time>2019-09-09T09:55:48Z</time>
      </trkpt>
      <trkpt lat="41.84248" lon="9.2113">
        <ele>1626.62</ele>
        <time>2019-09-09T09:55:34Z</time>
      </trkpt>
      <trkpt lat="41.84245" lon="9.21129">
        <ele>1624.74</ele>
        <time>2019-09-09T09:55:20Z</time>
      </trkpt>
      <trkpt lat="41.84243" lon="9.21125">
        <ele>1623.01</ele>
        <time>2019-09-09T09:55:08Z</time>
      </trkpt>
      <trkpt lat="41.84239" lon="9.21124">
        <ele>1620.95</ele>
        <time>2019-09-09T09:54:55Z</time>
      </trkpt>
      <trkpt lat="41.84236" lon="9.21124">
        <ele>1619.41</ele>
        <time>2019-09-09T09:54:40Z</time>
      </trkpt>
      <trkpt lat="41.84235" lon="9.21122">
        <ele>1618.92</ele>
        <time>2019-09-09T09:54:30Z</time>
      </trkpt>
      <trkpt lat="41.84233" lon="9.21123">
        <ele>1617.79</ele>
        <time>2019-09-09T09:54:19Z</time>
      </trkpt>
      <trkpt lat="41.84229" lon="9.21125">
        <ele>1615.81</ele>
        <time>2019-09-09T09:54:06Z</time>
      </trkpt>
      <trkpt lat="41.84227" lon="9.21127">
        <ele>1614.21</ele>
        <time>2019-09-09T09:53:53Z</time>
      </trkpt>
      <trkpt lat="41.84224" lon="9.21128">
        <ele>1612.64</ele>
        <time>2019-09-09T09:53:41Z</time>
      </trkpt>
      <trkpt lat="41.84222" lon="9.21124">
        <ele>1610.83</ele>
        <time>2019-09-09T09:53:26Z</time>
      </trkpt>
      <trkpt lat="41.84219" lon="9.21124">
        <ele>1609.47</ele>
        <time>2019-09-09T09:53:14Z</time>
      </trkpt>
      <trkpt lat="41.84218" lon="9.2112">
        <ele>1608.05</ele>
        <time>2019-09-09T09:53:00Z</time>
      </trkpt>
      <trkpt lat="41.84215" lon="9.21123">
        <ele>1606.34</ele>
        <time>2019-09-09T09:52:48Z</time>
      </trkpt>
      <trkpt lat="41.84214" lon="9.21128">
        <ele>1604.94</ele>
        <time>2019-09-09T09:52:35Z</time>
      </trkpt>
      <trkpt lat="41.8421" lon="9.21127">
        <ele>1602.91</ele>
        <time>2019-09-09T09:52:20Z</time>
      </trkpt>
      <trkpt lat="41.84207" lon="9.21132">
        <ele>1601.12</ele>
        <time>2019-09-09T09:52:05Z</time>
      </trkpt>
      <trkpt lat="41.84204" lon="9.2113">
        <ele>1599.4</ele>
        <time>2019-09-09T09:51:51Z</time>
      </trkpt>
      <trkpt lat="41.84201" lon="9.21137">
        <ele>1597.37</ele>
        <time>2019-09-09T09:51:37Z</time>
      </trkpt>
      <trkpt lat="41.84198" lon="9.21138">
        <ele>1595.86</ele>
        <time>2019-09-09T09:51:22Z</time>
      </trkpt>
      <trkpt lat="41.84196" lon="9.21134">
        <ele>1594.04</ele>
        <time>2019-09-09T09:51:07Z</time>
      </trkpt>
      <trkpt lat="41.84194" lon="9.21132">
        <ele>1592</ele>
        <time>2019-09-09T09:50:54Z</time>
      </trkpt>
      <trkpt lat="41.84191" lon="9.21135">
        <ele>1590.32</ele>
        <time>2019-09-09T09:50:41Z</time>
      </trkpt>
      <trkpt lat="41.84189" lon="9.21138">
        <ele>1588.89</ele>
        <time>2019-09-09T09:50:28Z</time>
      </trkpt>
      <trkpt lat="41.84187" lon="9.2114">
        <ele>1586.92</ele>
        <time>2019-09-09T09:50:15Z</time>
      </trkpt>
      <trkpt lat="41.84183" lon="9.21145">
        <ele>1584.14</ele>
        <time>2019-09-09T09:49:59Z</time>
      </trkpt>
      <trkpt lat="41.84181" lon="9.21154">
        <ele>1582.79</ele>
        <time>2019-09-09T09:49:44Z</time>
      </trkpt>
      <trkpt lat="41.8418" lon="9.21167">
        <ele>1582.07</ele>
        <time>2019-09-09T09:49:29Z</time>
      </trkpt>
      <trkpt lat="41.84177" lon="9.21169">
        <ele>1580.56</ele>
        <time>2019-09-09T09:49:15Z</time>
      </trkpt>
      <trkpt lat="41.84176" lon="9.21175">
        <ele>1579.19</ele>
        <time>2019-09-09T09:49:03Z</time>
      </trkpt>
      <trkpt lat="41.84175" lon="9.21182">
        <ele>1577.53</ele>
        <time>2019-09-09T09:48:49Z</time>
      </trkpt>
      <trkpt lat="41.84175" lon="9.21188">
        <ele>1576.46</ele>
        <time>2019-09-09T09:48:38Z</time>
      </trkpt>
      <trkpt lat="41.84175" lon="9.21193">
        <ele>1574.72</ele>
        <time>2019-09-09T09:48:25Z</time>
      </trkpt>
      <trkpt lat="41.84175" lon="9.21202">
        <ele>1573.33</ele>
        <time>2019-09-09T09:48:11Z</time>
      </trkpt>
      <trkpt lat="41.84176" lon="9.21209">
        <ele>1571.97</ele>
        <time>2019-09-09T09:47:59Z</time>
      </trkpt>
      <trkpt lat="41.84184" lon="9.21223">
        <ele>1570.02</ele>
        <time>2019-09-09T09:47:42Z</time>
      </trkpt>
      <trkpt lat="41.84189" lon="9.21233">
        <ele>1568.45</ele>
        <time>2019-09-09T09:47:28Z</time>
      </trkpt>
      <trkpt lat="41.84192" lon="9.21239">
        <ele>1566.41</ele>
        <time>2019-09-09T09:47:16Z</time>
      </trkpt>
      <trkpt lat="41.84195" lon="9.21246">
        <ele>1565.43</ele>
        <time>2019-09-09T09:47:03Z</time>
      </trkpt>
      <trkpt lat="41.84195" lon="9.21252">
        <ele>1563.35</ele>
        <time>2019-09-09T09:46:51Z</time>
      </trkpt>
      <trkpt lat="41.84194" lon="9.21262">
        <ele>1562.39</ele>
        <time>2019-09-09T09:46:37Z</time>
      </trkpt>
      <trkpt lat="41.84195" lon="9.21272">
        <ele>1561.42</ele>
        <time>2019-09-09T09:46:21Z</time>
      </trkpt>
      <trkpt lat="41.84195" lon="9.21278">
        <ele>1559.59</ele>
        <time>2019-09-09T09:46:09Z</time>
      </trkpt>
      <trkpt lat="41.84193" lon="9.21281">
        <ele>1557.6</ele>
        <time>2019-09-09T09:45:55Z</time>
      </trkpt>
      <trkpt lat="41.84193" lon="9.2129">
        <ele>1557.05</ele>
        <time>2019-09-09T09:45:40Z</time>
      </trkpt>
      <trkpt lat="41.84192" lon="9.21303">
        <ele>1556.45</ele>
        <time>2019-09-09T09:45:26Z</time>
      </trkpt>
      <trkpt lat="41.84194" lon="9.21313">
        <ele>1556.48</ele>
        <time>2019-09-09T09:45:09Z</time>
      </trkpt>
      <trkpt lat="41.84193" lon="9.21321">
        <ele>1556.34</ele>
        <time>2019-09-09T09:44:55Z</time>
      </trkpt>
      <trkpt lat="41.84194" lon="9.2133">
        <ele>1556.37</ele>
        <time>2019-09-09T09:44:42Z</time>
      </trkpt>
      <trkpt lat="41.84194" lon="9.21341">
        <ele>1557.2</ele>
        <time>2019-09-09T09:44:29Z</time>
      </trkpt>
      <trkpt lat="41.84192" lon="9.21353">
        <ele>1556.68</ele>
        <time>2019-09-09T09:44:14Z</time>
      </trkpt>
      <trkpt lat="41.84191" lon="9.21359">
        <ele>1555.76</ele>
        <time>2019-09-09T09:44:05Z</time>
      </trkpt>
      <trkpt lat="41.84188" lon="9.21365">
        <ele>1554.16</ele>
        <time>2019-09-09T09:43:50Z</time>
      </trkpt>
      <trkpt lat="41.84185" lon="9.2137">
        <ele>1552.59</ele>
        <time>2019-09-09T09:43:34Z</time>
      </trkpt>
      <trkpt lat="41.84183" lon="9.21374">
        <ele>1551.63</ele>
        <time>2019-09-09T09:43:22Z</time>
      </trkpt>
      <trkpt lat="41.84181" lon="9.21382">
        <ele>1550.4</ele>
        <time>2019-09-09T09:43:09Z</time>
      </trkpt>
      <trkpt lat="41.84178" lon="9.21392">
        <ele>1549.18</ele>
        <time>2019-09-09T09:42:55Z</time>
      </trkpt>
      <trkpt lat="41.84176" lon="9.21398">
        <ele>1547.65</ele>
        <time>2019-09-09T09:42:41Z</time>
      </trkpt>
      <trkpt lat="41.84171" lon="9.21406">
        <ele>1545.8</ele>
        <time>2019-09-09T09:42:26Z</time>
      </trkpt>
      <trkpt lat="41.84166" lon="9.21413">
        <ele>1544.07</ele>
        <time>2019-09-09T09:42:11Z</time>
      </trkpt>
      <trkpt lat="41.84163" lon="9.21423">
        <ele>1543.46</ele>
        <time>2019-09-09T09:41:57Z</time>
      </trkpt>
      <trkpt lat="41.8416" lon="9.2143">
        <ele>1542.02</ele>
        <time>2019-09-09T09:41:42Z</time>
      </trkpt>
      <trkpt lat="41.84156" lon="9.21437">
        <ele>1540.8</ele>
        <time>2019-09-09T09:41:27Z</time>
      </trkpt>
      <trkpt lat="41.84151" lon="9.21446">
        <ele>1539.51</ele>
        <time>2019-09-09T09:41:13Z</time>
      </trkpt>
      <trkpt lat="41.84148" lon="9.21448">
        <ele>1538.93</ele>
        <time>2019-09-09T09:40:58Z</time>
      </trkpt>
      <trkpt lat="41.84147" lon="9.2145">
        <ele>1538.67</ele>
        <time>2019-09-09T09:40:41Z</time>
      </trkpt>
      <trkpt lat="41.84144" lon="9.21453">
        <ele>1537.48</ele>
        <time>2019-09-09T09:40:27Z</time>
      </trkpt>
      <trkpt lat="41.84144" lon="9.21452">
        <ele>1537.36</ele>
        <time>2019-09-09T09:40:08Z</time>
      </trkpt>
      <trkpt lat="41.84145" lon="9.21451">
        <ele>1537.17</ele>
        <time>2019-09-09T09:39:44Z</time>
      </trkpt>
      <trkpt lat="41.84145" lon="9.21451">
        <ele>1537.52</ele>
        <time>2019-09-09T09:39:26Z</time>
      </trkpt>
      <trkpt lat="41.84145" lon="9.2145">
        <ele>1535.73</ele>
        <time>2019-09-09T09:39:08Z</time>
      </trkpt>
      <trkpt lat="41.84146" lon="9.2145">
        <ele>1536.06</ele>
        <time>2019-09-09T09:38:29Z</time>
      </trkpt>
      <trkpt lat="41.84145" lon="9.21451">
        <ele>1536.1</ele>
        <time>2019-09-09T09:37:59Z</time>
      </trkpt>
      <trkpt lat="41.84145" lon="9.21451">
        <ele>1536.19</ele>
        <time>2019-09-09T09:37:26Z</time>
      </trkpt>
      <trkpt lat="41.84145" lon="9.2145">
        <ele>1536.17</ele>
        <time>2019-09-09T09:37:11Z</time>
      </trkpt>
      <trkpt lat="41.84144" lon="9.21451">
        <ele>1536.44</ele>
        <time>2019-09-09T09:36:28Z</time>
      </trkpt>
      <trkpt lat="41.84143" lon="9.21451">
        <ele>1535.87</ele>
        <time>2019-09-09T09:35:40Z</time>
      </trkpt>
      <trkpt lat="41.84142" lon="9.2145">
        <ele>1535.6</ele>
        <time>2019-09-09T09:34:55Z</time>
      </trkpt>
      <trkpt lat="41.84143" lon="9.2145">
        <ele>1535.35</ele>
        <time>2019-09-09T09:34:19Z</time>
      </trkpt>
      <trkpt lat="41.84144" lon="9.21449">
        <ele>1534.92</ele>
        <time>2019-09-09T09:33:22Z</time>
      </trkpt>
      <trkpt lat="41.84145" lon="9.21449">
        <ele>1534.36</ele>
        <time>2019-09-09T09:32:36Z</time>
      </trkpt>
      <trkpt lat="41.84145" lon="9.2145">
        <ele>1535.64</ele>
        <time>2019-09-09T09:31:36Z</time>
      </trkpt>
      <trkpt lat="41.84145" lon="9.21451">
        <ele>1536.08</ele>
        <time>2019-09-09T09:30:45Z</time>
      </trkpt>
      <trkpt lat="41.84145" lon="9.21449">
        <ele>1536.48</ele>
        <time>2019-09-09T09:29:50Z</time>
      </trkpt>
      <trkpt lat="41.84146" lon="9.21449">
        <ele>1536.36</ele>
        <time>2019-09-09T09:29:07Z</time>
      </trkpt>
      <trkpt lat="41.84144" lon="9.21449">
        <ele>1536.86</ele>
        <time>2019-09-09T09:28:38Z</time>
      </trkpt>
      <trkpt lat="41.84144" lon="9.2145">
        <ele>1536.82</ele>
        <time>2019-09-09T09:28:05Z</time>
      </trkpt>
      <trkpt lat="41.84143" lon="9.2145">
        <ele>1537.65</ele>
        <time>2019-09-09T09:27:44Z</time>
      </trkpt>
      <trkpt lat="41.84143" lon="9.21445">
        <ele>1536.93</ele>
        <time>2019-09-09T09:27:29Z</time>
      </trkpt>
      <trkpt lat="41.84143" lon="9.21439">
        <ele>1538.89</ele>
        <time>2019-09-09T09:27:16Z</time>
      </trkpt>
      <trkpt lat="41.84144" lon="9.21429">
        <ele>1538.79</ele>
        <time>2019-09-09T09:27:01Z</time>
      </trkpt>
      <trkpt lat="41.84148" lon="9.21417">
        <ele>1536.81</ele>
        <time>2019-09-09T09:26:45Z</time>
      </trkpt>
      <trkpt lat="41.84149" lon="9.21407">
        <ele>1536.56</ele>
        <time>2019-09-09T09:26:32Z</time>
      </trkpt>
      <trkpt lat="41.84148" lon="9.214">
        <ele>1534.79</ele>
        <time>2019-09-09T09:26:16Z</time>
      </trkpt>
      <trkpt lat="41.84146" lon="9.21393">
        <ele>1533.43</ele>
        <time>2019-09-09T09:26:03Z</time>
      </trkpt>
      <trkpt lat="41.84145" lon="9.21386">
        <ele>1533.42</ele>
        <time>2019-09-09T09:25:48Z</time>
      </trkpt>
      <trkpt lat="41.84143" lon="9.21376">
        <ele>1532.57</ele>
        <time>2019-09-09T09:25:35Z</time>
      </trkpt>
      <trkpt lat="41.84142" lon="9.2137">
        <ele>1531.3</ele>
        <time>2019-09-09T09:25:22Z</time>
      </trkpt>
      <trkpt lat="41.84141" lon="9.21362">
        <ele>1530.58</ele>
        <time>2019-09-09T09:25:09Z</time>
      </trkpt>
      <trkpt lat="41.8414" lon="9.21351">
        <ele>1529.67</ele>
        <time>2019-09-09T09:24:54Z</time>
      </trkpt>
      <trkpt lat="41.84137" lon="9.21343">
        <ele>1529.61</ele>
        <time>2019-09-09T09:24:43Z</time>
      </trkpt>
      <trkpt lat="41.84131" lon="9.21339">
        <ele>1529.53</ele>
        <time>2019-09-09T09:24:29Z</time>
      </trkpt>
      <trkpt lat="41.84122" lon="9.21331">
        <ele>1529.47</ele>
        <time>2019-09-09T09:24:15Z</time>
      </trkpt>
      <trkpt lat="41.84115" lon="9.21321">
        <ele>1530.26</ele>
        <time>2019-09-09T09:24:00Z</time>
      </trkpt>
      <trkpt lat="41.84115" lon="9.21315">
        <ele>1531.16</ele>
        <time>2019-09-09T09:23:48Z</time>
      </trkpt>
      <trkpt lat="41.84113" lon="9.2131">
        <ele>1531.17</ele>
        <time>2019-09-09T09:23:36Z</time>
      </trkpt>
      <trkpt lat="41.84109" lon="9.21304">
        <ele>1530.34</ele>
        <time>2019-09-09T09:23:19Z</time>
      </trkpt>
      <trkpt lat="41.84106" lon="9.21298">
        <ele>1528.93</ele>
        <time>2019-09-09T09:23:03Z</time>
      </trkpt>
      <trkpt lat="41.84101" lon="9.21294">
        <ele>1528.03</ele>
        <time>2019-09-09T09:22:50Z</time>
      </trkpt>
      <trkpt lat="41.84097" lon="9.21291">
        <ele>1527.38</ele>
        <time>2019-09-09T09:22:36Z</time>
      </trkpt>
      <trkpt lat="41.84095" lon="9.21287">
        <ele>1527.61</ele>
        <time>2019-09-09T09:22:20Z</time>
      </trkpt>
      <trkpt lat="41.84095" lon="9.21289">
        <ele>1527.21</ele>
        <time>2019-09-09T09:22:08Z</time>
      </trkpt>
      <trkpt lat="41.84092" lon="9.21294">
        <ele>1525.8</ele>
        <time>2019-09-09T09:21:54Z</time>
      </trkpt>
      <trkpt lat="41.84088" lon="9.21296">
        <ele>1524.55</ele>
        <time>2019-09-09T09:21:42Z</time>
      </trkpt>
      <trkpt lat="41.84081" lon="9.21293">
        <ele>1524.86</ele>
        <time>2019-09-09T09:21:28Z</time>
      </trkpt>
      <trkpt lat="41.8407" lon="9.2129">
        <ele>1525.35</ele>
        <time>2019-09-09T09:21:14Z</time>
      </trkpt>
      <trkpt lat="41.84064" lon="9.21291">
        <ele>1526.72</ele>
        <time>2019-09-09T09:21:00Z</time>
      </trkpt>
      <trkpt lat="41.84058" lon="9.2129">
        <ele>1528.62</ele>
        <time>2019-09-09T09:20:45Z</time>
      </trkpt>
      <trkpt lat="41.84051" lon="9.21287">
        <ele>1529.23</ele>
        <time>2019-09-09T09:20:31Z</time>
      </trkpt>
      <trkpt lat="41.8404" lon="9.21274">
        <ele>1528.24</ele>
        <time>2019-09-09T09:20:15Z</time>
      </trkpt>
      <trkpt lat="41.84033" lon="9.21265">
        <ele>1526.83</ele>
        <time>2019-09-09T09:20:00Z</time>
      </trkpt>
      <trkpt lat="41.84033" lon="9.21255">
        <ele>1524.77</ele>
        <time>2019-09-09T09:19:47Z</time>
      </trkpt>
      <trkpt lat="41.84034" lon="9.21248">
        <ele>1524.71</ele>
        <time>2019-09-09T09:19:32Z</time>
      </trkpt>
      <trkpt lat="41.84034" lon="9.21238">
        <ele>1523.3</ele>
        <time>2019-09-09T09:19:16Z</time>
      </trkpt>
      <trkpt lat="41.84032" lon="9.21231">
        <ele>1523.03</ele>
        <time>2019-09-09T09:18:59Z</time>
      </trkpt>
      <trkpt lat="41.84023" lon="9.21226">
        <ele>1523.43</ele>
        <time>2019-09-09T09:18:42Z</time>
      </trkpt>
      <trkpt lat="41.8401" lon="9.21214">
        <ele>1524.43</ele>
        <time>2019-09-09T09:18:22Z</time>
      </trkpt>
      <trkpt lat="41.84005" lon="9.2121">
        <ele>1523.88</ele>
        <time>2019-09-09T09:18:05Z</time>
      </trkpt>
      <trkpt lat="41.84004" lon="9.21209">
        <ele>1523.95</ele>
        <time>2019-09-09T09:17:28Z</time>
      </trkpt>
      <trkpt lat="41.84004" lon="9.21209">
        <ele>1524.09</ele>
        <time>2019-09-09T09:17:04Z</time>
      </trkpt>
      <trkpt lat="41.84004" lon="9.21208">
        <ele>1524.49</ele>
        <time>2019-09-09T09:16:42Z</time>
      </trkpt>
      <trkpt lat="41.84005" lon="9.21209">
        <ele>1524.15</ele>
        <time>2019-09-09T09:16:10Z</time>
      </trkpt>
      <trkpt lat="41.84001" lon="9.21205">
        <ele>1523.68</ele>
        <time>2019-09-09T09:15:52Z</time>
      </trkpt>
      <trkpt lat="41.83997" lon="9.21194">
        <ele>1523.45</ele>
        <time>2019-09-09T09:15:38Z</time>
      </trkpt>
      <trkpt lat="41.83993" lon="9.21184">
        <ele>1523.28</ele>
        <time>2019-09-09T09:15:23Z</time>
      </trkpt>
      <trkpt lat="41.83987" lon="9.21177">
        <ele>1521.98</ele>
        <time>2019-09-09T09:15:09Z</time>
      </trkpt>
      <trkpt lat="41.8398" lon="9.21173">
        <ele>1520.11</ele>
        <time>2019-09-09T09:14:55Z</time>
      </trkpt>
      <trkpt lat="41.83973" lon="9.21169">
        <ele>1518.13</ele>
        <time>2019-09-09T09:14:41Z</time>
      </trkpt>
      <trkpt lat="41.83968" lon="9.21169">
        <ele>1516.82</ele>
        <time>2019-09-09T09:14:28Z</time>
      </trkpt>
      <trkpt lat="41.83965" lon="9.21173">
        <ele>1515.12</ele>
        <time>2019-09-09T09:14:13Z</time>
      </trkpt>
      <trkpt lat="41.83959" lon="9.21174">
        <ele>1513.61</ele>
        <time>2019-09-09T09:14:01Z</time>
      </trkpt>
      <trkpt lat="41.83952" lon="9.21173">
        <ele>1511.47</ele>
        <time>2019-09-09T09:13:46Z</time>
      </trkpt>
      <trkpt lat="41.83947" lon="9.21174">
        <ele>1510.16</ele>
        <time>2019-09-09T09:13:34Z</time>
      </trkpt>
      <trkpt lat="41.83942" lon="9.21171">
        <ele>1508.44</ele>
        <time>2019-09-09T09:13:20Z</time>
      </trkpt>
      <trkpt lat="41.83935" lon="9.21173">
        <ele>1506.44</ele>
        <time>2019-09-09T09:13:05Z</time>
      </trkpt>
      <trkpt lat="41.8393" lon="9.2117">
        <ele>1505.03</ele>
        <time>2019-09-09T09:12:51Z</time>
      </trkpt>
      <trkpt lat="41.83925" lon="9.2117">
        <ele>1503.38</ele>
        <time>2019-09-09T09:12:36Z</time>
      </trkpt>
      <trkpt lat="41.8392" lon="9.21172">
        <ele>1501.42</ele>
        <time>2019-09-09T09:12:21Z</time>
      </trkpt>
      <trkpt lat="41.83915" lon="9.21172">
        <ele>1499.54</ele>
        <time>2019-09-09T09:12:06Z</time>
      </trkpt>
      <trkpt lat="41.83912" lon="9.21176">
        <ele>1498.23</ele>
        <time>2019-09-09T09:11:53Z</time>
      </trkpt>
      <trkpt lat="41.83909" lon="9.21173">
        <ele>1497.08</ele>
        <time>2019-09-09T09:11:40Z</time>
      </trkpt>
      <trkpt lat="41.83906" lon="9.21179">
        <ele>1496.16</ele>
        <time>2019-09-09T09:11:24Z</time>
      </trkpt>
      <trkpt lat="41.83902" lon="9.21181">
        <ele>1494.68</ele>
        <time>2019-09-09T09:11:10Z</time>
      </trkpt>
      <trkpt lat="41.83898" lon="9.21184">
        <ele>1492.42</ele>
        <time>2019-09-09T09:10:55Z</time>
      </trkpt>
      <trkpt lat="41.83893" lon="9.21183">
        <ele>1490.14</ele>
        <time>2019-09-09T09:10:41Z</time>
      </trkpt>
      <trkpt lat="41.83888" lon="9.21183">
        <ele>1488.36</ele>
        <time>2019-09-09T09:10:27Z</time>
      </trkpt>
      <trkpt lat="41.83883" lon="9.21177">
        <ele>1486.99</ele>
        <time>2019-09-09T09:10:12Z</time>
      </trkpt>
      <trkpt lat="41.83879" lon="9.21176">
        <ele>1485.69</ele>
        <time>2019-09-09T09:09:58Z</time>
      </trkpt>
      <trkpt lat="41.83876" lon="9.21177">
        <ele>1483.71</ele>
        <time>2019-09-09T09:09:44Z</time>
      </trkpt>
      <trkpt lat="41.83873" lon="9.21177">
        <ele>1482.2</ele>
        <time>2019-09-09T09:09:31Z</time>
      </trkpt>
      <trkpt lat="41.83869" lon="9.21178">
        <ele>1480.63</ele>
        <time>2019-09-09T09:09:19Z</time>
      </trkpt>
      <trkpt lat="41.83862" lon="9.21175">
        <ele>1478.9</ele>
        <time>2019-09-09T09:09:06Z</time>
      </trkpt>
      <trkpt lat="41.83856" lon="9.21179">
        <ele>1477.43</ele>
        <time>2019-09-09T09:08:52Z</time>
      </trkpt>
      <trkpt lat="41.83856" lon="9.21184">
        <ele>1475.78</ele>
        <time>2019-09-09T09:08:39Z</time>
      </trkpt>
      <trkpt lat="41.83849" lon="9.21179">
        <ele>1474.71</ele>
        <time>2019-09-09T09:08:23Z</time>
      </trkpt>
      <trkpt lat="41.83844" lon="9.21178">
        <ele>1472.81</ele>
        <time>2019-09-09T09:08:09Z</time>
      </trkpt>
      <trkpt lat="41.83838" lon="9.21176">
        <ele>1470.73</ele>
        <time>2019-09-09T09:07:55Z</time>
      </trkpt>
      <trkpt lat="41.83833" lon="9.21177">
        <ele>1468.37</ele>
        <time>2019-09-09T09:07:41Z</time>
      </trkpt>
      <trkpt lat="41.83828" lon="9.21177">
        <ele>1466.51</ele>
        <time>2019-09-09T09:07:27Z</time>
      </trkpt>
      <trkpt lat="41.83823" lon="9.21175">
        <ele>1464.58</ele>
        <time>2019-09-09T09:07:13Z</time>
      </trkpt>
      <trkpt lat="41.83818" lon="9.21176">
        <ele>1462.88</ele>
        <time>2019-09-09T09:07:01Z</time>
      </trkpt>
      <trkpt lat="41.83812" lon="9.21181">
        <ele>1460.72</ele>
        <time>2019-09-09T09:06:44Z</time>
      </trkpt>
      <trkpt lat="41.83808" lon="9.21183">
        <ele>1459.29</ele>
        <time>2019-09-09T09:06:31Z</time>
      </trkpt>
      <trkpt lat="41.83804" lon="9.21189">
        <ele>1457.48</ele>
        <time>2019-09-09T09:06:15Z</time>
      </trkpt>
      <trkpt lat="41.83801" lon="9.21196">
        <ele>1456.14</ele>
        <time>2019-09-09T09:06:02Z</time>
      </trkpt>
      <trkpt lat="41.83798" lon="9.21199">
        <ele>1454.53</ele>
        <time>2019-09-09T09:05:49Z</time>
      </trkpt>
      <trkpt lat="41.83792" lon="9.21195">
        <ele>1452.19</ele>
        <time>2019-09-09T09:05:33Z</time>
      </trkpt>
      <trkpt lat="41.83782" lon="9.21184">
        <ele>1450.42</ele>
        <time>2019-09-09T09:05:15Z</time>
      </trkpt>
      <trkpt lat="41.83777" lon="9.21184">
        <ele>1448.5</ele>
        <time>2019-09-09T09:05:04Z</time>
      </trkpt>
      <trkpt lat="41.83772" lon="9.2118">
        <ele>1447.17</ele>
        <time>2019-09-09T09:04:51Z</time>
      </trkpt>
      <trkpt lat="41.83766" lon="9.21182">
        <ele>1445.66</ele>
        <time>2019-09-09T09:04:38Z</time>
      </trkpt>
      <trkpt lat="41.83763" lon="9.21178">
        <ele>1443.79</ele>
        <time>2019-09-09T09:04:25Z</time>
      </trkpt>
      <trkpt lat="41.83757" lon="9.21181">
        <ele>1442.83</ele>
        <time>2019-09-09T09:04:12Z</time>
      </trkpt>
      <trkpt lat="41.83753" lon="9.21187">
        <ele>1441.3</ele>
        <time>2019-09-09T09:03:58Z</time>
      </trkpt>
      <trkpt lat="41.8375" lon="9.21193">
        <ele>1439.46</ele>
        <time>2019-09-09T09:03:44Z</time>
      </trkpt>
      <trkpt lat="41.83747" lon="9.21195">
        <ele>1437.91</ele>
        <time>2019-09-09T09:03:33Z</time>
      </trkpt>
      <trkpt lat="41.83745" lon="9.212">
        <ele>1435.94</ele>
        <time>2019-09-09T09:03:19Z</time>
      </trkpt>
      <trkpt lat="41.83746" lon="9.21205">
        <ele>1434.83</ele>
        <time>2019-09-09T09:03:06Z</time>
      </trkpt>
      <trkpt lat="41.83746" lon="9.21211">
        <ele>1432.83</ele>
        <time>2019-09-09T09:02:52Z</time>
      </trkpt>
      <trkpt lat="41.83745" lon="9.21213">
        <ele>1431.29</ele>
        <time>2019-09-09T09:02:39Z</time>
      </trkpt>
      <trkpt lat="41.83743" lon="9.21215">
        <ele>1430.04</ele>
        <time>2019-09-09T09:02:26Z</time>
      </trkpt>
      <trkpt lat="41.83741" lon="9.2122">
        <ele>1428.74</ele>
        <time>2019-09-09T09:02:13Z</time>
      </trkpt>
      <trkpt lat="41.83743" lon="9.21232">
        <ele>1427.28</ele>
        <time>2019-09-09T09:01:58Z</time>
      </trkpt>
      <trkpt lat="41.83743" lon="9.21249">
        <ele>1427</ele>
        <time>2019-09-09T09:01:44Z</time>
      </trkpt>
      <trkpt lat="41.83744" lon="9.21264">
        <ele>1426.23</ele>
        <time>2019-09-09T09:01:28Z</time>
      </trkpt>
      <trkpt lat="41.83739" lon="9.21271">
        <ele>1425.01</ele>
        <time>2019-09-09T09:01:14Z</time>
      </trkpt>
      <trkpt lat="41.83734" lon="9.21281">
        <ele>1423.63</ele>
        <time>2019-09-09T09:01:00Z</time>
      </trkpt>
      <trkpt lat="41.83729" lon="9.2129">
        <ele>1421.94</ele>
        <time>2019-09-09T09:00:45Z</time>
      </trkpt>
      <trkpt lat="41.83724" lon="9.21293">
        <ele>1420.42</ele>
        <time>2019-09-09T09:00:33Z</time>
      </trkpt>
      <trkpt lat="41.83718" lon="9.21298">
        <ele>1418.41</ele>
        <time>2019-09-09T09:00:19Z</time>
      </trkpt>
      <trkpt lat="41.83712" lon="9.21302">
        <ele>1416.45</ele>
        <time>2019-09-09T09:00:05Z</time>
      </trkpt>
      <trkpt lat="41.83707" lon="9.21302">
        <ele>1414.57</ele>
        <time>2019-09-09T08:59:51Z</time>
      </trkpt>
      <trkpt lat="41.83704" lon="9.21307">
        <ele>1413.28</ele>
        <time>2019-09-09T08:59:36Z</time>
      </trkpt>
      <trkpt lat="41.83697" lon="9.21313">
        <ele>1411.42</ele>
        <time>2019-09-09T08:59:21Z</time>
      </trkpt>
      <trkpt lat="41.83691" lon="9.2132">
        <ele>1408.87</ele>
        <time>2019-09-09T08:59:03Z</time>
      </trkpt>
      <trkpt lat="41.83685" lon="9.21329">
        <ele>1407.1</ele>
        <time>2019-09-09T08:58:47Z</time>
      </trkpt>
      <trkpt lat="41.83681" lon="9.21337">
        <ele>1404.69</ele>
        <time>2019-09-09T08:58:30Z</time>
      </trkpt>
      <trkpt lat="41.83675" lon="9.21344">
        <ele>1400.9</ele>
        <time>2019-09-09T08:58:16Z</time>
      </trkpt>
      <trkpt lat="41.8367" lon="9.21349">
        <ele>1399.27</ele>
        <time>2019-09-09T08:58:03Z</time>
      </trkpt>
      <trkpt lat="41.83666" lon="9.21342">
        <ele>1397.48</ele>
        <time>2019-09-09T08:57:48Z</time>
      </trkpt>
      <trkpt lat="41.8366" lon="9.21348">
        <ele>1396.51</ele>
        <time>2019-09-09T08:57:33Z</time>
      </trkpt>
      <trkpt lat="41.83653" lon="9.21351">
        <ele>1394.2</ele>
        <time>2019-09-09T08:57:13Z</time>
      </trkpt>
      <trkpt lat="41.83647" lon="9.21356">
        <ele>1390.8</ele>
        <time>2019-09-09T08:56:54Z</time>
      </trkpt>
      <trkpt lat="41.83638" lon="9.21361">
        <ele>1387.68</ele>
        <time>2019-09-09T08:56:36Z</time>
      </trkpt>
      <trkpt lat="41.83629" lon="9.21367">
        <ele>1385.19</ele>
        <time>2019-09-09T08:56:18Z</time>
      </trkpt>
      <trkpt lat="41.83622" lon="9.21365">
        <ele>1382.53</ele>
        <time>2019-09-09T08:55:58Z</time>
      </trkpt>
      <trkpt lat="41.83617" lon="9.21371">
        <ele>1381.99</ele>
        <time>2019-09-09T08:55:42Z</time>
      </trkpt>
      <trkpt lat="41.83609" lon="9.21374">
        <ele>1381.62</ele>
        <time>2019-09-09T08:55:23Z</time>
      </trkpt>
      <trkpt lat="41.83604" lon="9.21371">
        <ele>1382.82</ele>
        <time>2019-09-09T08:55:05Z</time>
      </trkpt>
      <trkpt lat="41.83597" lon="9.21372">
        <ele>1381.08</ele>
        <time>2019-09-09T08:54:47Z</time>
      </trkpt>
      <trkpt lat="41.83588" lon="9.2138">
        <ele>1378.46</ele>
        <time>2019-09-09T08:54:24Z</time>
      </trkpt>
      <trkpt lat="41.8358" lon="9.21382">
        <ele>1375.88</ele>
        <time>2019-09-09T08:54:04Z</time>
      </trkpt>
      <trkpt lat="41.83569" lon="9.21382">
        <ele>1371.59</ele>
        <time>2019-09-09T08:53:41Z</time>
      </trkpt>
      <trkpt lat="41.83562" lon="9.2138">
        <ele>1369.45</ele>
        <time>2019-09-09T08:53:26Z</time>
      </trkpt>
      <trkpt lat="41.83555" lon="9.21381">
        <ele>1368.4</ele>
        <time>2019-09-09T08:53:10Z</time>
      </trkpt>
      <trkpt lat="41.83548" lon="9.21386">
        <ele>1365.9</ele>
        <time>2019-09-09T08:52:52Z</time>
      </trkpt>
      <trkpt lat="41.8354" lon="9.21388">
        <ele>1363.83</ele>
        <time>2019-09-09T08:52:35Z</time>
      </trkpt>
      <trkpt lat="41.83532" lon="9.2139">
        <ele>1362.53</ele>
        <time>2019-09-09T08:52:20Z</time>
      </trkpt>
      <trkpt lat="41.83525" lon="9.21391">
        <ele>1358.81</ele>
        <time>2019-09-09T08:52:06Z</time>
      </trkpt>
      <trkpt lat="41.83517" lon="9.21391">
        <ele>1356.99</ele>
        <time>2019-09-09T08:51:51Z</time>
      </trkpt>
      <trkpt lat="41.83511" lon="9.21387">
        <ele>1355.44</ele>
        <time>2019-09-09T08:51:37Z</time>
      </trkpt>
      <trkpt lat="41.83504" lon="9.21385">
        <ele>1353.01</ele>
        <time>2019-09-09T08:51:23Z</time>
      </trkpt>
      <trkpt lat="41.83499" lon="9.21379">
        <ele>1351.37</ele>
        <time>2019-09-09T08:51:10Z</time>
      </trkpt>
      <trkpt lat="41.83491" lon="9.21381">
        <ele>1348.68</ele>
        <time>2019-09-09T08:50:55Z</time>
      </trkpt>
      <trkpt lat="41.83484" lon="9.21387">
        <ele>1346.43</ele>
        <time>2019-09-09T08:50:42Z</time>
      </trkpt>
      <trkpt lat="41.83482" lon="9.21395">
        <ele>1344.71</ele>
        <time>2019-09-09T08:50:30Z</time>
      </trkpt>
      <trkpt lat="41.83481" lon="9.21395">
        <ele>1344.37</ele>
        <time>2019-09-09T08:50:28Z</time>
      </trkpt>
      <trkpt lat="41.83479" lon="9.214">
        <ele>1343.16</ele>
        <time>2019-09-09T08:50:14Z</time>
      </trkpt>
      <trkpt lat="41.83472" lon="9.21403">
        <ele>1340.97</ele>
        <time>2019-09-09T08:49:59Z</time>
      </trkpt>
      <trkpt lat="41.83466" lon="9.21403">
        <ele>1339.52</ele>
        <time>2019-09-09T08:49:45Z</time>
      </trkpt>
      <trkpt lat="41.8346" lon="9.21401">
        <ele>1338.05</ele>
        <time>2019-09-09T08:49:31Z</time>
      </trkpt>
      <trkpt lat="41.83457" lon="9.21403">
        <ele>1337.16</ele>
        <time>2019-09-09T08:49:18Z</time>
      </trkpt>
      <trkpt lat="41.83456" lon="9.21405">
        <ele>1337.05</ele>
        <time>2019-09-09T08:48:49Z</time>
      </trkpt>
      <trkpt lat="41.83456" lon="9.21405">
        <ele>1337.99</ele>
        <time>2019-09-09T08:48:32Z</time>
      </trkpt>
      <trkpt lat="41.83457" lon="9.21405">
        <ele>1338.11</ele>
        <time>2019-09-09T08:48:06Z</time>
      </trkpt>
      <trkpt lat="41.83456" lon="9.21409">
        <ele>1338.66</ele>
        <time>2019-09-09T08:47:52Z</time>
      </trkpt>
      <trkpt lat="41.83458" lon="9.21413">
        <ele>1337.96</ele>
        <time>2019-09-09T08:47:37Z</time>
      </trkpt>
      <trkpt lat="41.8346" lon="9.21415">
        <ele>1336.4</ele>
        <time>2019-09-09T08:47:24Z</time>
      </trkpt>
      <trkpt lat="41.83462" lon="9.21419">
        <ele>1334.94</ele>
        <time>2019-09-09T08:47:11Z</time>
      </trkpt>
      <trkpt lat="41.83464" lon="9.21424">
        <ele>1333.72</ele>
        <time>2019-09-09T08:46:56Z</time>
      </trkpt>
      <trkpt lat="41.83462" lon="9.21431">
        <ele>1335.55</ele>
        <time>2019-09-09T08:46:42Z</time>
      </trkpt>
      <trkpt lat="41.83465" lon="9.21437">
        <ele>1335.21</ele>
        <time>2019-09-09T08:46:28Z</time>
      </trkpt>
      <trkpt lat="41.83465" lon="9.21448">
        <ele>1336.86</ele>
        <time>2019-09-09T08:46:09Z</time>
      </trkpt>
      <trkpt lat="41.83459" lon="9.21451">
        <ele>1337.85</ele>
        <time>2019-09-09T08:45:55Z</time>
      </trkpt>
      <trkpt lat="41.83449" lon="9.21455">
        <ele>1339.28</ele>
        <time>2019-09-09T08:45:41Z</time>
      </trkpt>
      <trkpt lat="41.83448" lon="9.21456">
        <ele>1339.4</ele>
        <time>2019-09-09T08:45:40Z</time>
      </trkpt>
      <trkpt lat="41.83435" lon="9.21462">
        <ele>1340.83</ele>
        <time>2019-09-09T08:45:22Z</time>
      </trkpt>
      <trkpt lat="41.83432" lon="9.21462">
        <ele>1340.86</ele>
        <time>2019-09-09T08:45:20Z</time>
      </trkpt>
      <trkpt lat="41.83423" lon="9.21462">
        <ele>1338.95</ele>
        <time>2019-09-09T08:45:06Z</time>
      </trkpt>
      <trkpt lat="41.83417" lon="9.21467">
        <ele>1337.49</ele>
        <time>2019-09-09T08:44:54Z</time>
      </trkpt>
      <trkpt lat="41.83407" lon="9.21462">
        <ele>1335.99</ele>
        <time>2019-09-09T08:44:38Z</time>
      </trkpt>
      <trkpt lat="41.83398" lon="9.2146">
        <ele>1337.25</ele>
        <time>2019-09-09T08:44:22Z</time>
      </trkpt>
      <trkpt lat="41.8339" lon="9.21464">
        <ele>1335.58</ele>
        <time>2019-09-09T08:44:09Z</time>
      </trkpt>
      <trkpt lat="41.83383" lon="9.21464">
        <ele>1336.94</ele>
        <time>2019-09-09T08:43:54Z</time>
      </trkpt>
      <trkpt lat="41.83375" lon="9.21462">
        <ele>1338.77</ele>
        <time>2019-09-09T08:43:39Z</time>
      </trkpt>
      <trkpt lat="41.83369" lon="9.2146">
        <ele>1337.7</ele>
        <time>2019-09-09T08:43:27Z</time>
      </trkpt>
      <trkpt lat="41.83358" lon="9.21457">
        <ele>1339.91</ele>
        <time>2019-09-09T08:43:12Z</time>
      </trkpt>
      <trkpt lat="41.83353" lon="9.21452">
        <ele>1339.83</ele>
        <time>2019-09-09T08:43:02Z</time>
      </trkpt>
      <trkpt lat="41.83348" lon="9.21446">
        <ele>1339.9</ele>
        <time>2019-09-09T08:42:49Z</time>
      </trkpt>
      <trkpt lat="41.83345" lon="9.21436">
        <ele>1341.32</ele>
        <time>2019-09-09T08:42:28Z</time>
      </trkpt>
      <trkpt lat="41.83335" lon="9.21433">
        <ele>1343.25</ele>
        <time>2019-09-09T08:42:14Z</time>
      </trkpt>
      <trkpt lat="41.83328" lon="9.21429">
        <ele>1343.06</ele>
        <time>2019-09-09T08:42:00Z</time>
      </trkpt>
      <trkpt lat="41.83314" lon="9.21419">
        <ele>1343.88</ele>
        <time>2019-09-09T08:41:38Z</time>
      </trkpt>
      <trkpt lat="41.83304" lon="9.21412">
        <ele>1342.16</ele>
        <time>2019-09-09T08:41:21Z</time>
      </trkpt>
      <trkpt lat="41.83301" lon="9.21406">
        <ele>1341.76</ele>
        <time>2019-09-09T08:41:14Z</time>
      </trkpt>
      <trkpt lat="41.8329" lon="9.214">
        <ele>1341.08</ele>
        <time>2019-09-09T08:40:55Z</time>
      </trkpt>
      <trkpt lat="41.83279" lon="9.21392">
        <ele>1339.35</ele>
        <time>2019-09-09T08:40:36Z</time>
      </trkpt>
      <trkpt lat="41.83268" lon="9.21381">
        <ele>1338.37</ele>
        <time>2019-09-09T08:40:17Z</time>
      </trkpt>
      <trkpt lat="41.83261" lon="9.21368">
        <ele>1337.22</ele>
        <time>2019-09-09T08:39:58Z</time>
      </trkpt>
      <trkpt lat="41.83252" lon="9.21357">
        <ele>1334.97</ele>
        <time>2019-09-09T08:39:39Z</time>
      </trkpt>
      <trkpt lat="41.83243" lon="9.2135">
        <ele>1331.92</ele>
        <time>2019-09-09T08:39:21Z</time>
      </trkpt>
      <trkpt lat="41.83233" lon="9.21341">
        <ele>1330.05</ele>
        <time>2019-09-09T08:39:04Z</time>
      </trkpt>
      <trkpt lat="41.83219" lon="9.21338">
        <ele>1329.38</ele>
        <time>2019-09-09T08:38:46Z</time>
      </trkpt>
      <trkpt lat="41.83217" lon="9.21337">
        <ele>1329.34</ele>
        <time>2019-09-09T08:38:44Z</time>
      </trkpt>
      <trkpt lat="41.83207" lon="9.21339">
        <ele>1329.7</ele>
        <time>2019-09-09T08:38:28Z</time>
      </trkpt>
      <trkpt lat="41.83199" lon="9.21339">
        <ele>1329.8</ele>
        <time>2019-09-09T08:38:12Z</time>
      </trkpt>
      <trkpt lat="41.8319" lon="9.21337">
        <ele>1330.59</ele>
        <time>2019-09-09T08:37:56Z</time>
      </trkpt>
      <trkpt lat="41.83183" lon="9.21335">
        <ele>1332.8</ele>
        <time>2019-09-09T08:37:41Z</time>
      </trkpt>
      <trkpt lat="41.83176" lon="9.21331">
        <ele>1335.07</ele>
        <time>2019-09-09T08:37:27Z</time>
      </trkpt>
      <trkpt lat="41.83169" lon="9.2133">
        <ele>1335.41</ele>
        <time>2019-09-09T08:37:13Z</time>
      </trkpt>
      <trkpt lat="41.83161" lon="9.21327">
        <ele>1335.57</ele>
        <time>2019-09-09T08:36:59Z</time>
      </trkpt>
      <trkpt lat="41.83154" lon="9.2133">
        <ele>1336.44</ele>
        <time>2019-09-09T08:36:41Z</time>
      </trkpt>
      <trkpt lat="41.83146" lon="9.21324">
        <ele>1338.66</ele>
        <time>2019-09-09T08:36:24Z</time>
      </trkpt>
      <trkpt lat="41.8314" lon="9.21327">
        <ele>1340.1</ele>
        <time>2019-09-09T08:36:08Z</time>
      </trkpt>
      <trkpt lat="41.83133" lon="9.21328">
        <ele>1341.91</ele>
        <time>2019-09-09T08:35:51Z</time>
      </trkpt>
      <trkpt lat="41.83123" lon="9.21324">
        <ele>1340.61</ele>
        <time>2019-09-09T08:35:32Z</time>
      </trkpt>
      <trkpt lat="41.83114" lon="9.21323">
        <ele>1338.46</ele>
        <time>2019-09-09T08:35:17Z</time>
      </trkpt>
      <trkpt lat="41.83105" lon="9.21315">
        <ele>1336.83</ele>
        <time>2019-09-09T08:35:02Z</time>
      </trkpt>
      <trkpt lat="41.83106" lon="9.213">
        <ele>1337.34</ele>
        <time>2019-09-09T08:34:47Z</time>
      </trkpt>
      <trkpt lat="41.831" lon="9.21287">
        <ele>1340.19</ele>
        <time>2019-09-09T08:34:30Z</time>
      </trkpt>
      <trkpt lat="41.83101" lon="9.21283">
        <ele>1340.84</ele>
        <time>2019-09-09T08:34:16Z</time>
      </trkpt>
      <trkpt lat="41.83102" lon="9.21278">
        <ele>1340.74</ele>
        <time>2019-09-09T08:34:00Z</time>
      </trkpt>
      <trkpt lat="41.83103" lon="9.21274">
        <ele>1340.76</ele>
        <time>2019-09-09T08:33:41Z</time>
      </trkpt>
      <trkpt lat="41.83103" lon="9.21276">
        <ele>1342.18</ele>
        <time>2019-09-09T08:32:58Z</time>
      </trkpt>
      <trkpt lat="41.83103" lon="9.21275">
        <ele>1342.91</ele>
        <time>2019-09-09T08:32:24Z</time>
      </trkpt>
      <trkpt lat="41.83103" lon="9.21278">
        <ele>1342.32</ele>
        <time>2019-09-09T08:31:14Z</time>
      </trkpt>
      <trkpt lat="41.83105" lon="9.2128">
        <ele>1344.47</ele>
        <time>2019-09-09T08:30:31Z</time>
      </trkpt>
      <trkpt lat="41.83104" lon="9.21278">
        <ele>1345.72</ele>
        <time>2019-09-09T08:30:17Z</time>
      </trkpt>
      <trkpt lat="41.831" lon="9.2128">
        <ele>1346.23</ele>
        <time>2019-09-09T08:30:03Z</time>
      </trkpt>
      <trkpt lat="41.83084" lon="9.21268">
        <ele>1347.73</ele>
        <time>2019-09-09T08:29:45Z</time>
      </trkpt>
      <trkpt lat="41.83084" lon="9.21268">
        <ele>1348.11</ele>
        <time>2019-09-09T08:29:44Z</time>
      </trkpt>
      <trkpt lat="41.83072" lon="9.21259">
        <ele>1350.9</ele>
        <time>2019-09-09T08:29:27Z</time>
      </trkpt>
      <trkpt lat="41.83053" lon="9.21255">
        <ele>1352.28</ele>
        <time>2019-09-09T08:29:09Z</time>
      </trkpt>
      <trkpt lat="41.83047" lon="9.21248">
        <ele>1353.88</ele>
        <time>2019-09-09T08:29:00Z</time>
      </trkpt>
      <trkpt lat="41.83038" lon="9.21245">
        <ele>1355.92</ele>
        <time>2019-09-09T08:28:46Z</time>
      </trkpt>
      <trkpt lat="41.83025" lon="9.21241">
        <ele>1352.04</ele>
        <time>2019-09-09T08:28:32Z</time>
      </trkpt>
      <trkpt lat="41.83023" lon="9.21242">
        <ele>1351.96</ele>
        <time>2019-09-09T08:28:30Z</time>
      </trkpt>
      <trkpt lat="41.8301" lon="9.21242">
        <ele>1351.82</ele>
        <time>2019-09-09T08:28:12Z</time>
      </trkpt>
      <trkpt lat="41.82998" lon="9.21246">
        <ele>1352.18</ele>
        <time>2019-09-09T08:27:56Z</time>
      </trkpt>
      <trkpt lat="41.8299" lon="9.21247">
        <ele>1350.47</ele>
        <time>2019-09-09T08:27:42Z</time>
      </trkpt>
      <trkpt lat="41.82983" lon="9.21248">
        <ele>1347.26</ele>
        <time>2019-09-09T08:27:27Z</time>
      </trkpt>
      <trkpt lat="41.82979" lon="9.21251">
        <ele>1347.78</ele>
        <time>2019-09-09T08:27:15Z</time>
      </trkpt>
      <trkpt lat="41.82971" lon="9.21253">
        <ele>1349.79</ele>
        <time>2019-09-09T08:26:58Z</time>
      </trkpt>
      <trkpt lat="41.82962" lon="9.21252">
        <ele>1353.95</ele>
        <time>2019-09-09T08:26:38Z</time>
      </trkpt>
      <trkpt lat="41.82953" lon="9.21249">
        <ele>1358.15</ele>
        <time>2019-09-09T08:26:19Z</time>
      </trkpt>
      <trkpt lat="41.82949" lon="9.21248">
        <ele>1361.32</ele>
        <time>2019-09-09T08:26:02Z</time>
      </trkpt>
      <trkpt lat="41.82944" lon="9.21243">
        <ele>1364.9</ele>
        <time>2019-09-09T08:25:45Z</time>
      </trkpt>
      <trkpt lat="41.82936" lon="9.21232">
        <ele>1367.31</ele>
        <time>2019-09-09T08:25:33Z</time>
      </trkpt>
      <trkpt lat="41.82927" lon="9.21221">
        <ele>1370.33</ele>
        <time>2019-09-09T08:25:14Z</time>
      </trkpt>
      <trkpt lat="41.82918" lon="9.21218">
        <ele>1373.19</ele>
        <time>2019-09-09T08:24:59Z</time>
      </trkpt>
      <trkpt lat="41.82917" lon="9.21218">
        <ele>1373.58</ele>
        <time>2019-09-09T08:24:58Z</time>
      </trkpt>
      <trkpt lat="41.82906" lon="9.21218">
        <ele>1375.18</ele>
        <time>2019-09-09T08:24:39Z</time>
      </trkpt>
      <trkpt lat="41.82896" lon="9.21209">
        <ele>1377.79</ele>
        <time>2019-09-09T08:24:22Z</time>
      </trkpt>
      <trkpt lat="41.8288" lon="9.21201">
        <ele>1380.25</ele>
        <time>2019-09-09T08:24:00Z</time>
      </trkpt>
      <trkpt lat="41.82864" lon="9.21195">
        <ele>1381.12</ele>
        <time>2019-09-09T08:23:39Z</time>
      </trkpt>
      <trkpt lat="41.82851" lon="9.21192">
        <ele>1379.88</ele>
        <time>2019-09-09T08:23:24Z</time>
      </trkpt>
      <trkpt lat="41.82838" lon="9.21192">
        <ele>1376.15</ele>
        <time>2019-09-09T08:23:08Z</time>
      </trkpt>
      <trkpt lat="41.82833" lon="9.21188">
        <ele>1376.25</ele>
        <time>2019-09-09T08:23:02Z</time>
      </trkpt>
      <trkpt lat="41.82831" lon="9.21187">
        <ele>1376.99</ele>
        <time>2019-09-09T08:22:59Z</time>
      </trkpt>
      <trkpt lat="41.82822" lon="9.21185">
        <ele>1379.18</ele>
        <time>2019-09-09T08:22:51Z</time>
      </trkpt>
      <trkpt lat="41.82805" lon="9.21192">
        <ele>1386.09</ele>
        <time>2019-09-09T08:22:33Z</time>
      </trkpt>
      <trkpt lat="41.82798" lon="9.21199">
        <ele>1389.36</ele>
        <time>2019-09-09T08:22:25Z</time>
      </trkpt>
      <trkpt lat="41.82788" lon="9.21222">
        <ele>1391.49</ele>
        <time>2019-09-09T08:22:09Z</time>
      </trkpt>
      <trkpt lat="41.82777" lon="9.21231">
        <ele>1389.11</ele>
        <time>2019-09-09T08:21:55Z</time>
      </trkpt>
      <trkpt lat="41.82763" lon="9.21234">
        <ele>1389.31</ele>
        <time>2019-09-09T08:21:37Z</time>
      </trkpt>
      <trkpt lat="41.82761" lon="9.21234">
        <ele>1389.35</ele>
        <time>2019-09-09T08:21:35Z</time>
      </trkpt>
      <trkpt lat="41.82753" lon="9.21243">
        <ele>1389.68</ele>
        <time>2019-09-09T08:21:17Z</time>
      </trkpt>
      <trkpt lat="41.82746" lon="9.21252">
        <ele>1390.79</ele>
        <time>2019-09-09T08:20:59Z</time>
      </trkpt>
      <trkpt lat="41.82736" lon="9.21263">
        <ele>1390.83</ele>
        <time>2019-09-09T08:20:40Z</time>
      </trkpt>
      <trkpt lat="41.82734" lon="9.21268">
        <ele>1391.63</ele>
        <time>2019-09-09T08:20:22Z</time>
      </trkpt>
      <trkpt lat="41.82733" lon="9.21279">
        <ele>1393.33</ele>
        <time>2019-09-09T08:19:59Z</time>
      </trkpt>
      <trkpt lat="41.82731" lon="9.21282">
        <ele>1393.7</ele>
        <time>2019-09-09T08:19:42Z</time>
      </trkpt>
      <trkpt lat="41.8273" lon="9.21292">
        <ele>1396.03</ele>
        <time>2019-09-09T08:19:24Z</time>
      </trkpt>
      <trkpt lat="41.82722" lon="9.21298">
        <ele>1396.28</ele>
        <time>2019-09-09T08:19:06Z</time>
      </trkpt>
      <trkpt lat="41.82715" lon="9.21302">
        <ele>1396.27</ele>
        <time>2019-09-09T08:18:45Z</time>
      </trkpt>
      <trkpt lat="41.82709" lon="9.213">
        <ele>1395.67</ele>
        <time>2019-09-09T08:18:28Z</time>
      </trkpt>
      <trkpt lat="41.82706" lon="9.21296">
        <ele>1396.23</ele>
        <time>2019-09-09T08:18:14Z</time>
      </trkpt>
      <trkpt lat="41.82708" lon="9.21298">
        <ele>1397.34</ele>
        <time>2019-09-09T08:17:49Z</time>
      </trkpt>
      <trkpt lat="41.82705" lon="9.21297">
        <ele>1399.21</ele>
        <time>2019-09-09T08:17:24Z</time>
      </trkpt>
      <trkpt lat="41.82703" lon="9.21294">
        <ele>1404.81</ele>
        <time>2019-09-09T08:16:55Z</time>
      </trkpt>
      <trkpt lat="41.82702" lon="9.21296">
        <ele>1404.12</ele>
        <time>2019-09-09T08:16:30Z</time>
      </trkpt>
      <trkpt lat="41.82704" lon="9.21298">
        <ele>1403.78</ele>
        <time>2019-09-09T08:15:57Z</time>
      </trkpt>
      <trkpt lat="41.82707" lon="9.21296">
        <ele>1405.4</ele>
        <time>2019-09-09T08:15:28Z</time>
      </trkpt>
      <trkpt lat="41.82703" lon="9.21298">
        <ele>1408.18</ele>
        <time>2019-09-09T08:15:00Z</time>
      </trkpt>
      <trkpt lat="41.82702" lon="9.21297">
        <ele>1411.8</ele>
        <time>2019-09-09T08:14:37Z</time>
      </trkpt>
      <trkpt lat="41.82696" lon="9.21293">
        <ele>1418.45</ele>
        <time>2019-09-09T08:14:18Z</time>
      </trkpt>
      <trkpt lat="41.82683" lon="9.21285">
        <ele>1420.1</ele>
        <time>2019-09-09T08:13:58Z</time>
      </trkpt>
      <trkpt lat="41.82674" lon="9.2128">
        <ele>1420.97</ele>
        <time>2019-09-09T08:13:40Z</time>
      </trkpt>
      <trkpt lat="41.8266" lon="9.21261">
        <ele>1422.07</ele>
        <time>2019-09-09T08:13:21Z</time>
      </trkpt>
      <trkpt lat="41.82651" lon="9.21241">
        <ele>1421.79</ele>
        <time>2019-09-09T08:13:00Z</time>
      </trkpt>
      <trkpt lat="41.82645" lon="9.21226">
        <ele>1423.7</ele>
        <time>2019-09-09T08:12:48Z</time>
      </trkpt>
      <trkpt lat="41.82634" lon="9.21209">
        <ele>1425.16</ele>
        <time>2019-09-09T08:12:32Z</time>
      </trkpt>
      <trkpt lat="41.82624" lon="9.21196">
        <ele>1424.63</ele>
        <time>2019-09-09T08:12:18Z</time>
      </trkpt>
      <trkpt lat="41.82603" lon="9.21186">
        <ele>1424.04</ele>
        <time>2019-09-09T08:12:00Z</time>
      </trkpt>
      <trkpt lat="41.82587" lon="9.21179">
        <ele>1421.21</ele>
        <time>2019-09-09T08:11:44Z</time>
      </trkpt>
      <trkpt lat="41.8257" lon="9.21175">
        <ele>1421.29</ele>
        <time>2019-09-09T08:11:28Z</time>
      </trkpt>
      <trkpt lat="41.82559" lon="9.21172">
        <ele>1421.7</ele>
        <time>2019-09-09T08:11:18Z</time>
      </trkpt>
      <trkpt lat="41.82555" lon="9.21173">
        <ele>1420.79</ele>
        <time>2019-09-09T08:11:14Z</time>
      </trkpt>
      <trkpt lat="41.82543" lon="9.21165">
        <ele>1417.19</ele>
        <time>2019-09-09T08:10:58Z</time>
      </trkpt>
      <trkpt lat="41.8253" lon="9.21154">
        <ele>1415.88</ele>
        <time>2019-09-09T08:10:45Z</time>
      </trkpt>
      <trkpt lat="41.82512" lon="9.21145">
        <ele>1414.44</ele>
        <time>2019-09-09T08:10:28Z</time>
      </trkpt>
      <trkpt lat="41.82493" lon="9.21137">
        <ele>1412.95</ele>
        <time>2019-09-09T08:10:11Z</time>
      </trkpt>
      <trkpt lat="41.82475" lon="9.21128">
        <ele>1410.65</ele>
        <time>2019-09-09T08:09:54Z</time>
      </trkpt>
      <trkpt lat="41.82457" lon="9.2112">
        <ele>1406.97</ele>
        <time>2019-09-09T08:09:36Z</time>
      </trkpt>
      <trkpt lat="41.82451" lon="9.21117">
        <ele>1406.51</ele>
        <time>2019-09-09T08:09:31Z</time>
      </trkpt>
      <trkpt lat="41.82436" lon="9.21115">
        <ele>1403.28</ele>
        <time>2019-09-09T08:09:18Z</time>
      </trkpt>
      <trkpt lat="41.82417" lon="9.21111">
        <ele>1401.6</ele>
        <time>2019-09-09T08:09:01Z</time>
      </trkpt>
      <trkpt lat="41.82401" lon="9.21103">
        <ele>1401.62</ele>
        <time>2019-09-09T08:08:43Z</time>
      </trkpt>
      <trkpt lat="41.82383" lon="9.21098">
        <ele>1407.41</ele>
        <time>2019-09-09T08:08:23Z</time>
      </trkpt>
      <trkpt lat="41.82365" lon="9.21099">
        <ele>1410.48</ele>
        <time>2019-09-09T08:08:08Z</time>
      </trkpt>
      <trkpt lat="41.82348" lon="9.21098">
        <ele>1408.32</ele>
        <time>2019-09-09T08:07:50Z</time>
      </trkpt>
      <trkpt lat="41.82331" lon="9.211">
        <ele>1405.52</ele>
        <time>2019-09-09T08:07:35Z</time>
      </trkpt>
      <trkpt lat="41.82325" lon="9.21102">
        <ele>1404.48</ele>
        <time>2019-09-09T08:07:30Z</time>
      </trkpt>
      <trkpt lat="41.82309" lon="9.21106">
        <ele>1403.54</ele>
        <time>2019-09-09T08:07:13Z</time>
      </trkpt>
      <trkpt lat="41.82298" lon="9.21102">
        <ele>1403.89</ele>
        <time>2019-09-09T08:06:54Z</time>
      </trkpt>
      <trkpt lat="41.82293" lon="9.21097">
        <ele>1404.01</ele>
        <time>2019-09-09T08:06:37Z</time>
      </trkpt>
      <trkpt lat="41.82282" lon="9.21081">
        <ele>1399.4</ele>
        <time>2019-09-09T08:06:18Z</time>
      </trkpt>
      <trkpt lat="41.8227" lon="9.21064">
        <ele>1395.55</ele>
        <time>2019-09-09T08:06:00Z</time>
      </trkpt>
      <trkpt lat="41.82257" lon="9.21052">
        <ele>1393.38</ele>
        <time>2019-09-09T08:05:44Z</time>
      </trkpt>
      <trkpt lat="41.82254" lon="9.21046">
        <ele>1392.81</ele>
        <time>2019-09-09T08:05:39Z</time>
      </trkpt>
      <trkpt lat="41.82245" lon="9.21037">
        <ele>1391.54</ele>
        <time>2019-09-09T08:05:26Z</time>
      </trkpt>
      <trkpt lat="41.82231" lon="9.21029">
        <ele>1390.64</ele>
        <time>2019-09-09T08:05:09Z</time>
      </trkpt>
      <trkpt lat="41.82218" lon="9.21018">
        <ele>1390.56</ele>
        <time>2019-09-09T08:04:52Z</time>
      </trkpt>
      <trkpt lat="41.82207" lon="9.21007">
        <ele>1390.25</ele>
        <time>2019-09-09T08:04:37Z</time>
      </trkpt>
      <trkpt lat="41.82199" lon="9.21">
        <ele>1388.6</ele>
        <time>2019-09-09T08:04:24Z</time>
      </trkpt>
      <trkpt lat="41.82189" lon="9.20989">
        <ele>1387.16</ele>
        <time>2019-09-09T08:04:09Z</time>
      </trkpt>
      <trkpt lat="41.82178" lon="9.20982">
        <ele>1386.98</ele>
        <time>2019-09-09T08:03:49Z</time>
      </trkpt>
      <trkpt lat="41.82163" lon="9.20978">
        <ele>1383.24</ele>
        <time>2019-09-09T08:03:31Z</time>
      </trkpt>
      <trkpt lat="41.82149" lon="9.20973">
        <ele>1380.73</ele>
        <time>2019-09-09T08:03:13Z</time>
      </trkpt>
      <trkpt lat="41.82135" lon="9.20978">
        <ele>1378.45</ele>
        <time>2019-09-09T08:02:56Z</time>
      </trkpt>
      <trkpt lat="41.82127" lon="9.20976">
        <ele>1377.45</ele>
        <time>2019-09-09T08:02:48Z</time>
      </trkpt>
      <trkpt lat="41.82122" lon="9.20976">
        <ele>1378.19</ele>
        <time>2019-09-09T08:02:44Z</time>
      </trkpt>
      <trkpt lat="41.82111" lon="9.20975">
        <ele>1377.6</ele>
        <time>2019-09-09T08:02:30Z</time>
      </trkpt>
      <trkpt lat="41.82098" lon="9.20979">
        <ele>1376.88</ele>
        <time>2019-09-09T08:02:12Z</time>
      </trkpt>
      <trkpt lat="41.82086" lon="9.20977">
        <ele>1375.63</ele>
        <time>2019-09-09T08:01:52Z</time>
      </trkpt>
      <trkpt lat="41.82077" lon="9.20972">
        <ele>1372.1</ele>
        <time>2019-09-09T08:01:37Z</time>
      </trkpt>
      <trkpt lat="41.82063" lon="9.20961">
        <ele>1370.1</ele>
        <time>2019-09-09T08:01:22Z</time>
      </trkpt>
      <trkpt lat="41.82053" lon="9.20954">
        <ele>1369.03</ele>
        <time>2019-09-09T08:01:10Z</time>
      </trkpt>
      <trkpt lat="41.82034" lon="9.20952">
        <ele>1368.6</ele>
        <time>2019-09-09T08:00:54Z</time>
      </trkpt>
      <trkpt lat="41.82027" lon="9.20954">
        <ele>1369.49</ele>
        <time>2019-09-09T08:00:48Z</time>
      </trkpt>
      <trkpt lat="41.8202" lon="9.20956">
        <ele>1369.32</ele>
        <time>2019-09-09T08:00:41Z</time>
      </trkpt>
      <trkpt lat="41.82007" lon="9.20955">
        <ele>1366.72</ele>
        <time>2019-09-09T08:00:21Z</time>
      </trkpt>
      <trkpt lat="41.81992" lon="9.20953">
        <ele>1366.13</ele>
        <time>2019-09-09T08:00:03Z</time>
      </trkpt>
      <trkpt lat="41.81983" lon="9.20954">
        <ele>1364.26</ele>
        <time>2019-09-09T07:59:44Z</time>
      </trkpt>
      <trkpt lat="41.81973" lon="9.20955">
        <ele>1363.83</ele>
        <time>2019-09-09T07:59:29Z</time>
      </trkpt>
      <trkpt lat="41.81959" lon="9.20955">
        <ele>1361.05</ele>
        <time>2019-09-09T07:59:13Z</time>
      </trkpt>
      <trkpt lat="41.81958" lon="9.20955">
        <ele>1361.03</ele>
        <time>2019-09-09T07:59:12Z</time>
      </trkpt>
      <trkpt lat="41.81943" lon="9.20959">
        <ele>1361.5</ele>
        <time>2019-09-09T07:58:56Z</time>
      </trkpt>
      <trkpt lat="41.81938" lon="9.20959">
        <ele>1361.31</ele>
        <time>2019-09-09T07:58:51Z</time>
      </trkpt>
      <trkpt lat="41.81923" lon="9.20957">
        <ele>1359.06</ele>
        <time>2019-09-09T07:58:36Z</time>
      </trkpt>
      <trkpt lat="41.81909" lon="9.20965">
        <ele>1356.63</ele>
        <time>2019-09-09T07:58:17Z</time>
      </trkpt>
      <trkpt lat="41.81901" lon="9.20969">
        <ele>1355.96</ele>
        <time>2019-09-09T07:58:02Z</time>
      </trkpt>
      <trkpt lat="41.81888" lon="9.20962">
        <ele>1355.58</ele>
        <time>2019-09-09T07:57:43Z</time>
      </trkpt>
      <trkpt lat="41.81879" lon="9.20947">
        <ele>1354.58</ele>
        <time>2019-09-09T07:57:26Z</time>
      </trkpt>
      <trkpt lat="41.81875" lon="9.20937">
        <ele>1352.58</ele>
        <time>2019-09-09T07:57:08Z</time>
      </trkpt>
      <trkpt lat="41.81867" lon="9.20926">
        <ele>1349.95</ele>
        <time>2019-09-09T07:56:50Z</time>
      </trkpt>
      <trkpt lat="41.81859" lon="9.20915">
        <ele>1347.65</ele>
        <time>2019-09-09T07:56:32Z</time>
      </trkpt>
      <trkpt lat="41.81857" lon="9.20911">
        <ele>1346.05</ele>
        <time>2019-09-09T07:56:17Z</time>
      </trkpt>
      <trkpt lat="41.81847" lon="9.209">
        <ele>1342.42</ele>
        <time>2019-09-09T07:55:56Z</time>
      </trkpt>
      <trkpt lat="41.81837" lon="9.20891">
        <ele>1339.84</ele>
        <time>2019-09-09T07:55:40Z</time>
      </trkpt>
      <trkpt lat="41.81836" lon="9.20891">
        <ele>1339.57</ele>
        <time>2019-09-09T07:55:38Z</time>
      </trkpt>
      <trkpt lat="41.8183" lon="9.20886">
        <ele>1338.36</ele>
        <time>2019-09-09T07:55:20Z</time>
      </trkpt>
      <trkpt lat="41.81826" lon="9.20881">
        <ele>1337.87</ele>
        <time>2019-09-09T07:55:03Z</time>
      </trkpt>
      <trkpt lat="41.81823" lon="9.20876">
        <ele>1336.47</ele>
        <time>2019-09-09T07:54:48Z</time>
      </trkpt>
      <trkpt lat="41.81818" lon="9.20871">
        <ele>1335.45</ele>
        <time>2019-09-09T07:54:33Z</time>
      </trkpt>
      <trkpt lat="41.81815" lon="9.20868">
        <ele>1335.42</ele>
        <time>2019-09-09T07:54:20Z</time>
      </trkpt>
      <trkpt lat="41.81812" lon="9.20863">
        <ele>1336.01</ele>
        <time>2019-09-09T07:54:04Z</time>
      </trkpt>
      <trkpt lat="41.81813" lon="9.2086">
        <ele>1336.06</ele>
        <time>2019-09-09T07:53:51Z</time>
      </trkpt>
      <trkpt lat="41.81811" lon="9.20851">
        <ele>1336.31</ele>
        <time>2019-09-09T07:53:34Z</time>
      </trkpt>
      <trkpt lat="41.81807" lon="9.20839">
        <ele>1336.4</ele>
        <time>2019-09-09T07:53:19Z</time>
      </trkpt>
      <trkpt lat="41.81808" lon="9.20833">
        <ele>1336.9</ele>
        <time>2019-09-09T07:53:01Z</time>
      </trkpt>
      <trkpt lat="41.81808" lon="9.20821">
        <ele>1336.31</ele>
        <time>2019-09-09T07:52:41Z</time>
      </trkpt>
      <trkpt lat="41.81801" lon="9.20808">
        <ele>1336.95</ele>
        <time>2019-09-09T07:52:22Z</time>
      </trkpt>
      <trkpt lat="41.81802" lon="9.20802">
        <ele>1338.3</ele>
        <time>2019-09-09T07:51:56Z</time>
      </trkpt>
      <trkpt lat="41.81803" lon="9.20801">
        <ele>1338.25</ele>
        <time>2019-09-09T07:51:32Z</time>
      </trkpt>
      <trkpt lat="41.81804" lon="9.20804">
        <ele>1338.6</ele>
        <time>2019-09-09T07:51:03Z</time>
      </trkpt>
      <trkpt lat="41.81801" lon="9.20801">
        <ele>1341.97</ele>
        <time>2019-09-09T07:50:35Z</time>
      </trkpt>
      <trkpt lat="41.81799" lon="9.20803">
        <ele>1344.23</ele>
        <time>2019-09-09T07:50:06Z</time>
      </trkpt>
      <trkpt lat="41.81793" lon="9.20804">
        <ele>1345.24</ele>
        <time>2019-09-09T07:49:37Z</time>
      </trkpt>
      <trkpt lat="41.81797" lon="9.20804">
        <ele>1346.04</ele>
        <time>2019-09-09T07:49:07Z</time>
      </trkpt>
      <trkpt lat="41.81798" lon="9.20807">
        <ele>1347.36</ele>
        <time>2019-09-09T07:48:38Z</time>
      </trkpt>
      <trkpt lat="41.818" lon="9.20808">
        <ele>1348.69</ele>
        <time>2019-09-09T07:48:12Z</time>
      </trkpt>
      <trkpt lat="41.81803" lon="9.2081">
        <ele>1351.52</ele>
        <time>2019-09-09T07:47:39Z</time>
      </trkpt>
      <trkpt lat="41.81797" lon="9.20807">
        <ele>1354.72</ele>
        <time>2019-09-09T07:47:15Z</time>
      </trkpt>
      <trkpt lat="41.81798" lon="9.20807">
        <ele>1357.07</ele>
        <time>2019-09-09T07:46:56Z</time>
      </trkpt>
      <trkpt lat="41.81796" lon="9.20809">
        <ele>1360.08</ele>
        <time>2019-09-09T07:46:34Z</time>
      </trkpt>
      <trkpt lat="41.81792" lon="9.20811">
        <ele>1363.58</ele>
        <time>2019-09-09T07:46:08Z</time>
      </trkpt>
      <trkpt lat="41.81784" lon="9.20818">
        <ele>1365.43</ele>
        <time>2019-09-09T07:45:50Z</time>
      </trkpt>
      <trkpt lat="41.81776" lon="9.20821">
        <ele>1366.96</ele>
        <time>2019-09-09T07:45:32Z</time>
      </trkpt>
      <trkpt lat="41.81765" lon="9.20822">
        <ele>1368.85</ele>
        <time>2019-09-09T07:45:14Z</time>
      </trkpt>
      <trkpt lat="41.8176" lon="9.20824">
        <ele>1371.09</ele>
        <time>2019-09-09T07:44:57Z</time>
      </trkpt>
      <trkpt lat="41.81755" lon="9.20828">
        <ele>1372.61</ele>
        <time>2019-09-09T07:44:41Z</time>
      </trkpt>
      <trkpt lat="41.81748" lon="9.20827">
        <ele>1375.64</ele>
        <time>2019-09-09T07:44:23Z</time>
      </trkpt>
      <trkpt lat="41.81748" lon="9.20835">
        <ele>1379.11</ele>
        <time>2019-09-09T07:44:05Z</time>
      </trkpt>
      <trkpt lat="41.81748" lon="9.20847">
        <ele>1385.51</ele>
        <time>2019-09-09T07:43:49Z</time>
      </trkpt>
      <trkpt lat="41.81744" lon="9.20857">
        <ele>1389.51</ele>
        <time>2019-09-09T07:43:31Z</time>
      </trkpt>
      <trkpt lat="41.81738" lon="9.20863">
        <ele>1396.31</ele>
        <time>2019-09-09T07:43:11Z</time>
      </trkpt>
      <trkpt lat="41.81739" lon="9.20874">
        <ele>1404.88</ele>
        <time>2019-09-09T07:42:52Z</time>
      </trkpt>
      <trkpt lat="41.81735" lon="9.20888">
        <ele>1408</ele>
        <time>2019-09-09T07:42:40Z</time>
      </trkpt>
      <trkpt lat="41.81726" lon="9.20909">
        <ele>1410.31</ele>
        <time>2019-09-09T07:42:24Z</time>
      </trkpt>
      <trkpt lat="41.81717" lon="9.20916">
        <ele>1411.36</ele>
        <time>2019-09-09T07:42:06Z</time>
      </trkpt>
      <trkpt lat="41.81709" lon="9.20935">
        <ele>1413.14</ele>
        <time>2019-09-09T07:41:48Z</time>
      </trkpt>
      <trkpt lat="41.81701" lon="9.20941">
        <ele>1413.06</ele>
        <time>2019-09-09T07:41:31Z</time>
      </trkpt>
      <trkpt lat="41.81693" lon="9.20947">
        <ele>1412.95</ele>
        <time>2019-09-09T07:41:13Z</time>
      </trkpt>
      <trkpt lat="41.81688" lon="9.20951">
        <ele>1413.35</ele>
        <time>2019-09-09T07:40:59Z</time>
      </trkpt>
      <trkpt lat="41.81689" lon="9.20966">
        <ele>1414.66</ele>
        <time>2019-09-09T07:40:42Z</time>
      </trkpt>
      <trkpt lat="41.81686" lon="9.20983">
        <ele>1416.16</ele>
        <time>2019-09-09T07:40:24Z</time>
      </trkpt>
      <trkpt lat="41.81681" lon="9.20991">
        <ele>1417.08</ele>
        <time>2019-09-09T07:40:07Z</time>
      </trkpt>
      <trkpt lat="41.81676" lon="9.21003">
        <ele>1417.77</ele>
        <time>2019-09-09T07:39:53Z</time>
      </trkpt>
      <trkpt lat="41.8167" lon="9.21005">
        <ele>1420.97</ele>
        <time>2019-09-09T07:39:37Z</time>
      </trkpt>
      <trkpt lat="41.81665" lon="9.21004">
        <ele>1423.98</ele>
        <time>2019-09-09T07:39:18Z</time>
      </trkpt>
      <trkpt lat="41.81661" lon="9.21005">
        <ele>1434.09</ele>
        <time>2019-09-09T07:38:39Z</time>
      </trkpt>
      <trkpt lat="41.81659" lon="9.21018">
        <ele>1441.37</ele>
        <time>2019-09-09T07:38:20Z</time>
      </trkpt>
      <trkpt lat="41.81649" lon="9.21024">
        <ele>1449.2</ele>
        <time>2019-09-09T07:38:02Z</time>
      </trkpt>
      <trkpt lat="41.81638" lon="9.21033">
        <ele>1455.63</ele>
        <time>2019-09-09T07:37:42Z</time>
      </trkpt>
      <trkpt lat="41.81632" lon="9.21032">
        <ele>1460.77</ele>
        <time>2019-09-09T07:37:24Z</time>
      </trkpt>
      <trkpt lat="41.81632" lon="9.21037">
        <ele>1469.12</ele>
        <time>2019-09-09T07:37:08Z</time>
      </trkpt>
      <trkpt lat="41.81637" lon="9.2105">
        <ele>1475.59</ele>
        <time>2019-09-09T07:36:52Z</time>
      </trkpt>
      <trkpt lat="41.81641" lon="9.21076">
        <ele>1481.61</ele>
        <time>2019-09-09T07:36:33Z</time>
      </trkpt>
      <trkpt lat="41.81639" lon="9.21085">
        <ele>1483.48</ele>
        <time>2019-09-09T07:36:15Z</time>
      </trkpt>
      <trkpt lat="41.81639" lon="9.21099">
        <ele>1483.48</ele>
        <time>2019-09-09T07:36:04Z</time>
      </trkpt>
      <trkpt lat="41.81635" lon="9.21108">
        <ele>1483.17</ele>
        <time>2019-09-09T07:35:52Z</time>
      </trkpt>
      <trkpt lat="41.81635" lon="9.21126">
        <ele>1481.14</ele>
        <time>2019-09-09T07:35:39Z</time>
      </trkpt>
      <trkpt lat="41.81635" lon="9.21143">
        <ele>1481.18</ele>
        <time>2019-09-09T07:35:30Z</time>
      </trkpt>
      <trkpt lat="41.81633" lon="9.21147">
        <ele>1481.26</ele>
        <time>2019-09-09T07:35:27Z</time>
      </trkpt>
      <trkpt lat="41.81629" lon="9.2116">
        <ele>1481.86</ele>
        <time>2019-09-09T07:35:11Z</time>
      </trkpt>
      <trkpt lat="41.81625" lon="9.21173">
        <ele>1482.74</ele>
        <time>2019-09-09T07:34:55Z</time>
      </trkpt>
      <trkpt lat="41.81621" lon="9.2118">
        <ele>1484.36</ele>
        <time>2019-09-09T07:34:36Z</time>
      </trkpt>
      <trkpt lat="41.8162" lon="9.21187">
        <ele>1485.5</ele>
        <time>2019-09-09T07:34:14Z</time>
      </trkpt>
      <trkpt lat="41.8162" lon="9.21185">
        <ele>1490.44</ele>
        <time>2019-09-09T07:33:39Z</time>
      </trkpt>
      <trkpt lat="41.81615" lon="9.21189">
        <ele>1493.66</ele>
        <time>2019-09-09T07:33:17Z</time>
      </trkpt>
      <trkpt lat="41.8161" lon="9.2119">
        <ele>1495.01</ele>
        <time>2019-09-09T07:33:00Z</time>
      </trkpt>
      <trkpt lat="41.81605" lon="9.21188">
        <ele>1495.81</ele>
        <time>2019-09-09T07:32:44Z</time>
      </trkpt>
      <trkpt lat="41.81599" lon="9.21183">
        <ele>1497.28</ele>
        <time>2019-09-09T07:32:28Z</time>
      </trkpt>
      <trkpt lat="41.81594" lon="9.21179">
        <ele>1501.15</ele>
        <time>2019-09-09T07:32:11Z</time>
      </trkpt>
      <trkpt lat="41.81587" lon="9.21175">
        <ele>1504.21</ele>
        <time>2019-09-09T07:31:56Z</time>
      </trkpt>
      <trkpt lat="41.8158" lon="9.21166">
        <ele>1506.08</ele>
        <time>2019-09-09T07:31:38Z</time>
      </trkpt>
      <trkpt lat="41.81571" lon="9.21158">
        <ele>1506.4</ele>
        <time>2019-09-09T07:31:20Z</time>
      </trkpt>
      <trkpt lat="41.81556" lon="9.2116">
        <ele>1506.65</ele>
        <time>2019-09-09T07:31:03Z</time>
      </trkpt>
      <trkpt lat="41.81545" lon="9.21157">
        <ele>1508.02</ele>
        <time>2019-09-09T07:30:46Z</time>
      </trkpt>
      <trkpt lat="41.81537" lon="9.21155">
        <ele>1508.76</ele>
        <time>2019-09-09T07:30:27Z</time>
      </trkpt>
      <trkpt lat="41.81526" lon="9.21149">
        <ele>1510.14</ele>
        <time>2019-09-09T07:30:11Z</time>
      </trkpt>
      <trkpt lat="41.81518" lon="9.21143">
        <ele>1511.1</ele>
        <time>2019-09-09T07:29:54Z</time>
      </trkpt>
      <trkpt lat="41.81512" lon="9.21135">
        <ele>1512.44</ele>
        <time>2019-09-09T07:29:38Z</time>
      </trkpt>
      <trkpt lat="41.8151" lon="9.21136">
        <ele>1514.84</ele>
        <time>2019-09-09T07:29:02Z</time>
      </trkpt>
      <trkpt lat="41.81506" lon="9.21136">
        <ele>1518.66</ele>
        <time>2019-09-09T07:28:47Z</time>
      </trkpt>
      <trkpt lat="41.81501" lon="9.21136">
        <ele>1522.77</ele>
        <time>2019-09-09T07:28:31Z</time>
      </trkpt>
      <trkpt lat="41.81497" lon="9.21134">
        <ele>1526.41</ele>
        <time>2019-09-09T07:28:18Z</time>
      </trkpt>
      <trkpt lat="41.81498" lon="9.21139">
        <ele>1529.18</ele>
        <time>2019-09-09T07:28:01Z</time>
      </trkpt>
      <trkpt lat="41.81496" lon="9.21139">
        <ele>1533</ele>
        <time>2019-09-09T07:27:41Z</time>
      </trkpt>
      <trkpt lat="41.81493" lon="9.21143">
        <ele>1536.53</ele>
        <time>2019-09-09T07:27:26Z</time>
      </trkpt>
      <trkpt lat="41.81488" lon="9.21153">
        <ele>1540.18</ele>
        <time>2019-09-09T07:27:10Z</time>
      </trkpt>
      <trkpt lat="41.81482" lon="9.21162">
        <ele>1541.14</ele>
        <time>2019-09-09T07:26:55Z</time>
      </trkpt>
      <trkpt lat="41.81474" lon="9.21175">
        <ele>1541.85</ele>
        <time>2019-09-09T07:26:35Z</time>
      </trkpt>
      <trkpt lat="41.81466" lon="9.21182">
        <ele>1543.93</ele>
        <time>2019-09-09T07:26:18Z</time>
      </trkpt>
      <trkpt lat="41.81458" lon="9.21188">
        <ele>1544.46</ele>
        <time>2019-09-09T07:26:00Z</time>
      </trkpt>
      <trkpt lat="41.81455" lon="9.21191">
        <ele>1545.27</ele>
        <time>2019-09-09T07:25:44Z</time>
      </trkpt>
      <trkpt lat="41.81452" lon="9.21198">
        <ele>1546.93</ele>
        <time>2019-09-09T07:25:25Z</time>
      </trkpt>
      <trkpt lat="41.81448" lon="9.21201">
        <ele>1548.65</ele>
        <time>2019-09-09T07:25:07Z</time>
      </trkpt>
      <trkpt lat="41.81449" lon="9.21208">
        <ele>1552.16</ele>
        <time>2019-09-09T07:24:53Z</time>
      </trkpt>
      <trkpt lat="41.81452" lon="9.21213">
        <ele>1555.14</ele>
        <time>2019-09-09T07:24:38Z</time>
      </trkpt>
      <trkpt lat="41.81458" lon="9.21216">
        <ele>1556.93</ele>
        <time>2019-09-09T07:24:25Z</time>
      </trkpt>
      <trkpt lat="41.81456" lon="9.2122">
        <ele>1558.43</ele>
        <time>2019-09-09T07:24:12Z</time>
      </trkpt>
      <trkpt lat="41.81448" lon="9.21225">
        <ele>1561.57</ele>
        <time>2019-09-09T07:23:56Z</time>
      </trkpt>
      <trkpt lat="41.81443" lon="9.21227">
        <ele>1564.11</ele>
        <time>2019-09-09T07:23:41Z</time>
      </trkpt>
      <trkpt lat="41.81438" lon="9.2123">
        <ele>1565.75</ele>
        <time>2019-09-09T07:23:25Z</time>
      </trkpt>
      <trkpt lat="41.81434" lon="9.21236">
        <ele>1568.19</ele>
        <time>2019-09-09T07:23:06Z</time>
      </trkpt>
      <trkpt lat="41.81433" lon="9.21242">
        <ele>1569.26</ele>
        <time>2019-09-09T07:22:47Z</time>
      </trkpt>
      <trkpt lat="41.81431" lon="9.21248">
        <ele>1570.94</ele>
        <time>2019-09-09T07:22:28Z</time>
      </trkpt>
      <trkpt lat="41.81429" lon="9.21258">
        <ele>1572.5</ele>
        <time>2019-09-09T07:22:08Z</time>
      </trkpt>
      <trkpt lat="41.81428" lon="9.21263">
        <ele>1573.84</ele>
        <time>2019-09-09T07:21:50Z</time>
      </trkpt>
      <trkpt lat="41.81428" lon="9.21269">
        <ele>1575.53</ele>
        <time>2019-09-09T07:21:30Z</time>
      </trkpt>
      <trkpt lat="41.81424" lon="9.21275">
        <ele>1576.4</ele>
        <time>2019-09-09T07:21:10Z</time>
      </trkpt>
      <trkpt lat="41.81417" lon="9.21275">
        <ele>1578.33</ele>
        <time>2019-09-09T07:20:56Z</time>
      </trkpt>
      <trkpt lat="41.81413" lon="9.21281">
        <ele>1580.32</ele>
        <time>2019-09-09T07:20:43Z</time>
      </trkpt>
      <trkpt lat="41.81412" lon="9.21285">
        <ele>1581.72</ele>
        <time>2019-09-09T07:20:29Z</time>
      </trkpt>
      <trkpt lat="41.81411" lon="9.2129">
        <ele>1583.14</ele>
        <time>2019-09-09T07:20:14Z</time>
      </trkpt>
      <trkpt lat="41.81409" lon="9.21294">
        <ele>1584.65</ele>
        <time>2019-09-09T07:19:58Z</time>
      </trkpt>
      <trkpt lat="41.81406" lon="9.21299">
        <ele>1585.54</ele>
        <time>2019-09-09T07:19:45Z</time>
      </trkpt>
      <trkpt lat="41.81409" lon="9.21304">
        <ele>1586.67</ele>
        <time>2019-09-09T07:19:31Z</time>
      </trkpt>
      <trkpt lat="41.81406" lon="9.2131">
        <ele>1589.41</ele>
        <time>2019-09-09T07:19:17Z</time>
      </trkpt>
      <trkpt lat="41.81407" lon="9.21317">
        <ele>1591.28</ele>
        <time>2019-09-09T07:19:01Z</time>
      </trkpt>
      <trkpt lat="41.81403" lon="9.21324">
        <ele>1594.1</ele>
        <time>2019-09-09T07:18:43Z</time>
      </trkpt>
      <trkpt lat="41.81397" lon="9.21331">
        <ele>1597.93</ele>
        <time>2019-09-09T07:18:29Z</time>
      </trkpt>
      <trkpt lat="41.81391" lon="9.21339">
        <ele>1600.71</ele>
        <time>2019-09-09T07:18:15Z</time>
      </trkpt>
      <trkpt lat="41.8138" lon="9.2134">
        <ele>1603.67</ele>
        <time>2019-09-09T07:18:00Z</time>
      </trkpt>
      <trkpt lat="41.81378" lon="9.21345">
        <ele>1607.03</ele>
        <time>2019-09-09T07:17:47Z</time>
      </trkpt>
      <trkpt lat="41.81369" lon="9.21348">
        <ele>1608.89</ele>
        <time>2019-09-09T07:17:31Z</time>
      </trkpt>
      <trkpt lat="41.81357" lon="9.21343">
        <ele>1610.49</ele>
        <time>2019-09-09T07:17:17Z</time>
      </trkpt>
      <trkpt lat="41.81349" lon="9.21335">
        <ele>1612.7</ele>
        <time>2019-09-09T07:17:04Z</time>
      </trkpt>
      <trkpt lat="41.81344" lon="9.21329">
        <ele>1613.62</ele>
        <time>2019-09-09T07:16:50Z</time>
      </trkpt>
      <trkpt lat="41.81333" lon="9.21322">
        <ele>1615.06</ele>
        <time>2019-09-09T07:16:36Z</time>
      </trkpt>
      <trkpt lat="41.81329" lon="9.21321">
        <ele>1615.61</ele>
        <time>2019-09-09T07:16:33Z</time>
      </trkpt>
      <trkpt lat="41.81322" lon="9.21325">
        <ele>1616.54</ele>
        <time>2019-09-09T07:16:22Z</time>
      </trkpt>
      <trkpt lat="41.81314" lon="9.21328">
        <ele>1617.15</ele>
        <time>2019-09-09T07:16:02Z</time>
      </trkpt>
      <trkpt lat="41.81308" lon="9.21333">
        <ele>1617.97</ele>
        <time>2019-09-09T07:15:48Z</time>
      </trkpt>
      <trkpt lat="41.81302" lon="9.21333">
        <ele>1618.43</ele>
        <time>2019-09-09T07:15:32Z</time>
      </trkpt>
      <trkpt lat="41.81299" lon="9.21333">
        <ele>1618.5</ele>
        <time>2019-09-09T07:15:28Z</time>
      </trkpt>
      <trkpt lat="41.81294" lon="9.21334">
        <ele>1618.93</ele>
        <time>2019-09-09T07:15:23Z</time>
      </trkpt>
      <trkpt lat="41.8129" lon="9.21339">
        <ele>1619.5</ele>
        <time>2019-09-09T07:15:14Z</time>
      </trkpt>
      <trkpt lat="41.81286" lon="9.2134">
        <ele>1618.97</ele>
        <time>2019-09-09T07:15:00Z</time>
      </trkpt>
      <trkpt lat="41.81279" lon="9.21343">
        <ele>1620.41</ele>
        <time>2019-09-09T07:14:45Z</time>
      </trkpt>
      <trkpt lat="41.81277" lon="9.21349">
        <ele>1621.44</ele>
        <time>2019-09-09T07:14:30Z</time>
      </trkpt>
      <trkpt lat="41.81276" lon="9.21355">
        <ele>1622.5</ele>
        <time>2019-09-09T07:14:13Z</time>
      </trkpt>
      <trkpt lat="41.81273" lon="9.21357">
        <ele>1623.43</ele>
        <time>2019-09-09T07:13:57Z</time>
      </trkpt>
      <trkpt lat="41.81262" lon="9.21357">
        <ele>1624.92</ele>
        <time>2019-09-09T07:13:43Z</time>
      </trkpt>
      <trkpt lat="41.81259" lon="9.21358">
        <ele>1625.78</ele>
        <time>2019-09-09T07:13:38Z</time>
      </trkpt>
      <trkpt lat="41.81253" lon="9.21361">
        <ele>1627.2</ele>
        <time>2019-09-09T07:13:27Z</time>
      </trkpt>
      <trkpt lat="41.81248" lon="9.21364">
        <ele>1629.21</ele>
        <time>2019-09-09T07:13:13Z</time>
      </trkpt>
      <trkpt lat="41.81245" lon="9.2137">
        <ele>1630.22</ele>
        <time>2019-09-09T07:13:01Z</time>
      </trkpt>
      <trkpt lat="41.81248" lon="9.21375">
        <ele>1632.02</ele>
        <time>2019-09-09T07:12:46Z</time>
      </trkpt>
      <trkpt lat="41.81245" lon="9.21377">
        <ele>1633.64</ele>
        <time>2019-09-09T07:12:28Z</time>
      </trkpt>
      <trkpt lat="41.81247" lon="9.21381">
        <ele>1635.69</ele>
        <time>2019-09-09T07:12:15Z</time>
      </trkpt>
      <trkpt lat="41.8125" lon="9.21383">
        <ele>1638.95</ele>
        <time>2019-09-09T07:12:00Z</time>
      </trkpt>
      <trkpt lat="41.81247" lon="9.21386">
        <ele>1641.61</ele>
        <time>2019-09-09T07:11:46Z</time>
      </trkpt>
      <trkpt lat="41.81249" lon="9.2139">
        <ele>1644.1</ele>
        <time>2019-09-09T07:11:31Z</time>
      </trkpt>
      <trkpt lat="41.81244" lon="9.21396">
        <ele>1647.56</ele>
        <time>2019-09-09T07:11:15Z</time>
      </trkpt>
      <trkpt lat="41.81242" lon="9.21399">
        <ele>1650.37</ele>
        <time>2019-09-09T07:11:03Z</time>
      </trkpt>
      <trkpt lat="41.81238" lon="9.214">
        <ele>1653.18</ele>
        <time>2019-09-09T07:10:49Z</time>
      </trkpt>
      <trkpt lat="41.81233" lon="9.21406">
        <ele>1655.48</ele>
        <time>2019-09-09T07:10:34Z</time>
      </trkpt>
      <trkpt lat="41.81224" lon="9.21408">
        <ele>1655.86</ele>
        <time>2019-09-09T07:10:21Z</time>
      </trkpt>
      <trkpt lat="41.81217" lon="9.21406">
        <ele>1655.55</ele>
        <time>2019-09-09T07:10:08Z</time>
      </trkpt>
      <trkpt lat="41.81212" lon="9.21407">
        <ele>1655.8</ele>
        <time>2019-09-09T07:09:53Z</time>
      </trkpt>
      <trkpt lat="41.81201" lon="9.21413">
        <ele>1656.58</ele>
        <time>2019-09-09T07:09:39Z</time>
      </trkpt>
      <trkpt lat="41.81195" lon="9.21415">
        <ele>1655.74</ele>
        <time>2019-09-09T07:09:28Z</time>
      </trkpt>
      <trkpt lat="41.81187" lon="9.2142">
        <ele>1656.2</ele>
        <time>2019-09-09T07:09:15Z</time>
      </trkpt>
      <trkpt lat="41.81182" lon="9.21426">
        <ele>1657.63</ele>
        <time>2019-09-09T07:09:00Z</time>
      </trkpt>
      <trkpt lat="41.81175" lon="9.21422">
        <ele>1660.01</ele>
        <time>2019-09-09T07:08:46Z</time>
      </trkpt>
      <trkpt lat="41.81169" lon="9.21416">
        <ele>1663.47</ele>
        <time>2019-09-09T07:08:31Z</time>
      </trkpt>
      <trkpt lat="41.81163" lon="9.21422">
        <ele>1665.01</ele>
        <time>2019-09-09T07:08:16Z</time>
      </trkpt>
      <trkpt lat="41.81163" lon="9.21424">
        <ele>1662.66</ele>
        <time>2019-09-09T07:08:01Z</time>
      </trkpt>
      <trkpt lat="41.81153" lon="9.21428">
        <ele>1666.87</ele>
        <time>2019-09-09T07:07:45Z</time>
      </trkpt>
      <trkpt lat="41.81149" lon="9.21433">
        <ele>1671.22</ele>
        <time>2019-09-09T07:07:32Z</time>
      </trkpt>
      <trkpt lat="41.81147" lon="9.21434">
        <ele>1672</ele>
        <time>2019-09-09T07:07:14Z</time>
      </trkpt>
      <trkpt lat="41.81144" lon="9.21437">
        <ele>1673.59</ele>
        <time>2019-09-09T07:07:00Z</time>
      </trkpt>
      <trkpt lat="41.81139" lon="9.21439">
        <ele>1675.07</ele>
        <time>2019-09-09T07:06:46Z</time>
      </trkpt>
      <trkpt lat="41.81134" lon="9.2144">
        <ele>1675.65</ele>
        <time>2019-09-09T07:06:33Z</time>
      </trkpt>
      <trkpt lat="41.81131" lon="9.21443">
        <ele>1676.61</ele>
        <time>2019-09-09T07:06:19Z</time>
      </trkpt>
      <trkpt lat="41.81125" lon="9.21444">
        <ele>1676.86</ele>
        <time>2019-09-09T07:06:04Z</time>
      </trkpt>
      <trkpt lat="41.81119" lon="9.2144">
        <ele>1677.03</ele>
        <time>2019-09-09T07:05:51Z</time>
      </trkpt>
      <trkpt lat="41.8111" lon="9.21438">
        <ele>1678.56</ele>
        <time>2019-09-09T07:05:36Z</time>
      </trkpt>
      <trkpt lat="41.811" lon="9.21436">
        <ele>1680.2</ele>
        <time>2019-09-09T07:05:21Z</time>
      </trkpt>
      <trkpt lat="41.81093" lon="9.21433">
        <ele>1681.66</ele>
        <time>2019-09-09T07:05:08Z</time>
      </trkpt>
      <trkpt lat="41.81089" lon="9.21426">
        <ele>1680.75</ele>
        <time>2019-09-09T07:04:53Z</time>
      </trkpt>
      <trkpt lat="41.81086" lon="9.21419">
        <ele>1678.86</ele>
        <time>2019-09-09T07:04:38Z</time>
      </trkpt>
      <trkpt lat="41.81084" lon="9.21411">
        <ele>1677.76</ele>
        <time>2019-09-09T07:04:24Z</time>
      </trkpt>
      <trkpt lat="41.8108" lon="9.21402">
        <ele>1677.25</ele>
        <time>2019-09-09T07:04:08Z</time>
      </trkpt>
      <trkpt lat="41.81074" lon="9.21399">
        <ele>1676.64</ele>
        <time>2019-09-09T07:03:53Z</time>
      </trkpt>
      <trkpt lat="41.81066" lon="9.21396">
        <ele>1676.03</ele>
        <time>2019-09-09T07:03:39Z</time>
      </trkpt>
      <trkpt lat="41.81057" lon="9.2139">
        <ele>1674.79</ele>
        <time>2019-09-09T07:03:25Z</time>
      </trkpt>
      <trkpt lat="41.81053" lon="9.21386">
        <ele>1673.8</ele>
        <time>2019-09-09T07:03:13Z</time>
      </trkpt>
      <trkpt lat="41.81048" lon="9.21381">
        <ele>1673.04</ele>
        <time>2019-09-09T07:02:58Z</time>
      </trkpt>
      <trkpt lat="41.81047" lon="9.21381">
        <ele>1673.04</ele>
        <time>2019-09-09T07:02:55Z</time>
      </trkpt>
      <trkpt lat="41.8104" lon="9.21378">
        <ele>1673.52</ele>
        <time>2019-09-09T07:02:41Z</time>
      </trkpt>
      <trkpt lat="41.81028" lon="9.2138">
        <ele>1673.31</ele>
        <time>2019-09-09T07:02:25Z</time>
      </trkpt>
      <trkpt lat="41.81021" lon="9.21381">
        <ele>1672</ele>
        <time>2019-09-09T07:02:11Z</time>
      </trkpt>
      <trkpt lat="41.81017" lon="9.21385">
        <ele>1671.3</ele>
        <time>2019-09-09T07:01:57Z</time>
      </trkpt>
      <trkpt lat="41.81011" lon="9.21385">
        <ele>1669.95</ele>
        <time>2019-09-09T07:01:44Z</time>
      </trkpt>
      <trkpt lat="41.81002" lon="9.21389">
        <ele>1668.72</ele>
        <time>2019-09-09T07:01:29Z</time>
      </trkpt>
      <trkpt lat="41.80995" lon="9.21389">
        <ele>1666.9</ele>
        <time>2019-09-09T07:01:15Z</time>
      </trkpt>
      <trkpt lat="41.80988" lon="9.21393">
        <ele>1664.91</ele>
        <time>2019-09-09T07:01:00Z</time>
      </trkpt>
      <trkpt lat="41.80979" lon="9.2139">
        <ele>1663.02</ele>
        <time>2019-09-09T07:00:43Z</time>
      </trkpt>
      <trkpt lat="41.80972" lon="9.21387">
        <ele>1661.25</ele>
        <time>2019-09-09T07:00:27Z</time>
      </trkpt>
      <trkpt lat="41.80965" lon="9.21384">
        <ele>1660.08</ele>
        <time>2019-09-09T07:00:14Z</time>
      </trkpt>
      <trkpt lat="41.80956" lon="9.21382">
        <ele>1657.93</ele>
        <time>2019-09-09T06:59:57Z</time>
      </trkpt>
      <trkpt lat="41.80945" lon="9.21381">
        <ele>1656.51</ele>
        <time>2019-09-09T06:59:41Z</time>
      </trkpt>
      <trkpt lat="41.80936" lon="9.21378">
        <ele>1655.1</ele>
        <time>2019-09-09T06:59:27Z</time>
      </trkpt>
      <trkpt lat="41.80926" lon="9.21376">
        <ele>1653.44</ele>
        <time>2019-09-09T06:59:13Z</time>
      </trkpt>
      <trkpt lat="41.80919" lon="9.21376">
        <ele>1651.78</ele>
        <time>2019-09-09T06:59:00Z</time>
      </trkpt>
      <trkpt lat="41.80914" lon="9.21375">
        <ele>1650.35</ele>
        <time>2019-09-09T06:58:41Z</time>
      </trkpt>
      <trkpt lat="41.80914" lon="9.21373">
        <ele>1649.29</ele>
        <time>2019-09-09T06:58:07Z</time>
      </trkpt>
      <trkpt lat="41.80915" lon="9.21372">
        <ele>1648.39</ele>
        <time>2019-09-09T06:57:28Z</time>
      </trkpt>
      <trkpt lat="41.80915" lon="9.21374">
        <ele>1648.36</ele>
        <time>2019-09-09T06:56:56Z</time>
      </trkpt>
      <trkpt lat="41.80915" lon="9.21375">
        <ele>1648.52</ele>
        <time>2019-09-09T06:56:15Z</time>
      </trkpt>
      <trkpt lat="41.80916" lon="9.21375">
        <ele>1648.76</ele>
        <time>2019-09-09T06:55:50Z</time>
      </trkpt>
      <trkpt lat="41.80917" lon="9.21378">
        <ele>1649.33</ele>
        <time>2019-09-09T06:55:35Z</time>
      </trkpt>
      <trkpt lat="41.80912" lon="9.2138">
        <ele>1649</ele>
        <time>2019-09-09T06:55:19Z</time>
      </trkpt>
      <trkpt lat="41.80906" lon="9.21379">
        <ele>1648.64</ele>
        <time>2019-09-09T06:55:05Z</time>
      </trkpt>
      <trkpt lat="41.80902" lon="9.21374">
        <ele>1648.44</ele>
        <time>2019-09-09T06:54:51Z</time>
      </trkpt>
      <trkpt lat="41.809" lon="9.21377">
        <ele>1647.74</ele>
        <time>2019-09-09T06:54:37Z</time>
      </trkpt>
      <trkpt lat="41.80897" lon="9.21382">
        <ele>1646.92</ele>
        <time>2019-09-09T06:54:22Z</time>
      </trkpt>
      <trkpt lat="41.80896" lon="9.21383">
        <ele>1646.89</ele>
        <time>2019-09-09T06:54:05Z</time>
      </trkpt>
      <trkpt lat="41.80894" lon="9.21387">
        <ele>1646.78</ele>
        <time>2019-09-09T06:53:46Z</time>
      </trkpt>
      <trkpt lat="41.80895" lon="9.21387">
        <ele>1646.12</ele>
        <time>2019-09-09T06:53:26Z</time>
      </trkpt>
      <trkpt lat="41.80895" lon="9.21384">
        <ele>1646.84</ele>
        <time>2019-09-09T06:53:03Z</time>
      </trkpt>
      <trkpt lat="41.80896" lon="9.21386">
        <ele>1647.24</ele>
        <time>2019-09-09T06:52:45Z</time>
      </trkpt>
      <trkpt lat="41.80896" lon="9.21383">
        <ele>1647.33</ele>
        <time>2019-09-09T06:52:31Z</time>
      </trkpt>
      <trkpt lat="41.80892" lon="9.21381">
        <ele>1645.84</ele>
        <time>2019-09-09T06:52:17Z</time>
      </trkpt>
      <trkpt lat="41.80884" lon="9.21375">
        <ele>1643.36</ele>
        <time>2019-09-09T06:52:02Z</time>
      </trkpt>
      <trkpt lat="41.80875" lon="9.21365">
        <ele>1640.39</ele>
        <time>2019-09-09T06:51:45Z</time>
      </trkpt>
      <trkpt lat="41.80864" lon="9.21361">
        <ele>1637.75</ele>
        <time>2019-09-09T06:51:29Z</time>
      </trkpt>
      <trkpt lat="41.80858" lon="9.21359">
        <ele>1636.04</ele>
        <time>2019-09-09T06:51:19Z</time>
      </trkpt>
      <trkpt lat="41.8085" lon="9.21357">
        <ele>1633.52</ele>
        <time>2019-09-09T06:51:04Z</time>
      </trkpt>
      <trkpt lat="41.80842" lon="9.21355">
        <ele>1630.99</ele>
        <time>2019-09-09T06:50:50Z</time>
      </trkpt>
      <trkpt lat="41.80833" lon="9.21353">
        <ele>1628.2</ele>
        <time>2019-09-09T06:50:36Z</time>
      </trkpt>
      <trkpt lat="41.80832" lon="9.21353">
        <ele>1628.06</ele>
        <time>2019-09-09T06:50:35Z</time>
      </trkpt>
      <trkpt lat="41.80823" lon="9.21353">
        <ele>1625.82</ele>
        <time>2019-09-09T06:50:21Z</time>
      </trkpt>
      <trkpt lat="41.80816" lon="9.21354">
        <ele>1624.25</ele>
        <time>2019-09-09T06:50:07Z</time>
      </trkpt>
      <trkpt lat="41.80812" lon="9.21357">
        <ele>1623.56</ele>
        <time>2019-09-09T06:49:52Z</time>
      </trkpt>
      <trkpt lat="41.808" lon="9.21361">
        <ele>1621.89</ele>
        <time>2019-09-09T06:49:36Z</time>
      </trkpt>
      <trkpt lat="41.80795" lon="9.2136">
        <ele>1620.11</ele>
        <time>2019-09-09T06:49:24Z</time>
      </trkpt>
      <trkpt lat="41.8079" lon="9.21362">
        <ele>1618.37</ele>
        <time>2019-09-09T06:49:11Z</time>
      </trkpt>
      <trkpt lat="41.80785" lon="9.2136">
        <ele>1615.75</ele>
        <time>2019-09-09T06:48:57Z</time>
      </trkpt>
      <trkpt lat="41.80779" lon="9.21359">
        <ele>1613.51</ele>
        <time>2019-09-09T06:48:42Z</time>
      </trkpt>
      <trkpt lat="41.80778" lon="9.21368">
        <ele>1611.42</ele>
        <time>2019-09-09T06:48:27Z</time>
      </trkpt>
      <trkpt lat="41.80776" lon="9.21373">
        <ele>1609.74</ele>
        <time>2019-09-09T06:48:15Z</time>
      </trkpt>
      <trkpt lat="41.8077" lon="9.21372">
        <ele>1607.28</ele>
        <time>2019-09-09T06:48:00Z</time>
      </trkpt>
      <trkpt lat="41.80765" lon="9.21371">
        <ele>1605.05</ele>
        <time>2019-09-09T06:47:46Z</time>
      </trkpt>
      <trkpt lat="41.80762" lon="9.21377">
        <ele>1603.17</ele>
        <time>2019-09-09T06:47:31Z</time>
      </trkpt>
      <trkpt lat="41.80757" lon="9.21376">
        <ele>1601.39</ele>
        <time>2019-09-09T06:47:16Z</time>
      </trkpt>
      <trkpt lat="41.80753" lon="9.21383">
        <ele>1599.54</ele>
        <time>2019-09-09T06:47:01Z</time>
      </trkpt>
      <trkpt lat="41.80748" lon="9.21388">
        <ele>1597.4</ele>
        <time>2019-09-09T06:46:47Z</time>
      </trkpt>
      <trkpt lat="41.80741" lon="9.21387">
        <ele>1595.17</ele>
        <time>2019-09-09T06:46:32Z</time>
      </trkpt>
      <trkpt lat="41.80735" lon="9.21394">
        <ele>1592.71</ele>
        <time>2019-09-09T06:46:16Z</time>
      </trkpt>
      <trkpt lat="41.80727" lon="9.21393">
        <ele>1590.39</ele>
        <time>2019-09-09T06:46:00Z</time>
      </trkpt>
      <trkpt lat="41.80719" lon="9.21397">
        <ele>1587.73</ele>
        <time>2019-09-09T06:45:45Z</time>
      </trkpt>
      <trkpt lat="41.80714" lon="9.21408">
        <ele>1584.95</ele>
        <time>2019-09-09T06:45:28Z</time>
      </trkpt>
      <trkpt lat="41.80711" lon="9.21412">
        <ele>1583.08</ele>
        <time>2019-09-09T06:45:16Z</time>
      </trkpt>
      <trkpt lat="41.80707" lon="9.21419">
        <ele>1580.43</ele>
        <time>2019-09-09T06:45:00Z</time>
      </trkpt>
      <trkpt lat="41.807" lon="9.21425">
        <ele>1577.99</ele>
        <time>2019-09-09T06:44:46Z</time>
      </trkpt>
      <trkpt lat="41.80694" lon="9.21428">
        <ele>1575.91</ele>
        <time>2019-09-09T06:44:32Z</time>
      </trkpt>
      <trkpt lat="41.80685" lon="9.21429">
        <ele>1573.71</ele>
        <time>2019-09-09T06:44:16Z</time>
      </trkpt>
      <trkpt lat="41.80674" lon="9.21429">
        <ele>1571.59</ele>
        <time>2019-09-09T06:44:00Z</time>
      </trkpt>
      <trkpt lat="41.80666" lon="9.21425">
        <ele>1568.63</ele>
        <time>2019-09-09T06:43:44Z</time>
      </trkpt>
      <trkpt lat="41.80658" lon="9.21428">
        <ele>1566.42</ele>
        <time>2019-09-09T06:43:29Z</time>
      </trkpt>
      <trkpt lat="41.8065" lon="9.21427">
        <ele>1563.83</ele>
        <time>2019-09-09T06:43:14Z</time>
      </trkpt>
      <trkpt lat="41.80643" lon="9.21423">
        <ele>1561.15</ele>
        <time>2019-09-09T06:42:59Z</time>
      </trkpt>
      <trkpt lat="41.80638" lon="9.21423">
        <ele>1559.09</ele>
        <time>2019-09-09T06:42:44Z</time>
      </trkpt>
      <trkpt lat="41.80633" lon="9.21429">
        <ele>1556.86</ele>
        <time>2019-09-09T06:42:29Z</time>
      </trkpt>
      <trkpt lat="41.80629" lon="9.21435">
        <ele>1554.86</ele>
        <time>2019-09-09T06:42:14Z</time>
      </trkpt>
      <trkpt lat="41.80626" lon="9.21447">
        <ele>1553.93</ele>
        <time>2019-09-09T06:41:58Z</time>
      </trkpt>
      <trkpt lat="41.8062" lon="9.21451">
        <ele>1552.07</ele>
        <time>2019-09-09T06:41:42Z</time>
      </trkpt>
      <trkpt lat="41.80615" lon="9.2146">
        <ele>1551.14</ele>
        <time>2019-09-09T06:41:26Z</time>
      </trkpt>
      <trkpt lat="41.80608" lon="9.21466">
        <ele>1549.46</ele>
        <time>2019-09-09T06:41:12Z</time>
      </trkpt>
      <trkpt lat="41.80602" lon="9.21471">
        <ele>1547.98</ele>
        <time>2019-09-09T06:41:00Z</time>
      </trkpt>
      <trkpt lat="41.80598" lon="9.21478">
        <ele>1546.58</ele>
        <time>2019-09-09T06:40:46Z</time>
      </trkpt>
      <trkpt lat="41.80601" lon="9.21484">
        <ele>1543.58</ele>
        <time>2019-09-09T06:40:33Z</time>
      </trkpt>
      <trkpt lat="41.8059" lon="9.21488">
        <ele>1542.85</ele>
        <time>2019-09-09T06:40:19Z</time>
      </trkpt>
      <trkpt lat="41.80588" lon="9.21489">
        <ele>1543.11</ele>
        <time>2019-09-09T06:40:17Z</time>
      </trkpt>
      <trkpt lat="41.80581" lon="9.21492">
        <ele>1542.11</ele>
        <time>2019-09-09T06:40:02Z</time>
      </trkpt>
      <trkpt lat="41.80572" lon="9.21494">
        <ele>1540.83</ele>
        <time>2019-09-09T06:39:48Z</time>
      </trkpt>
      <trkpt lat="41.80569" lon="9.21494">
        <ele>1539.57</ele>
        <time>2019-09-09T06:39:35Z</time>
      </trkpt>
      <trkpt lat="41.80564" lon="9.21495">
        <ele>1537.42</ele>
        <time>2019-09-09T06:39:20Z</time>
      </trkpt>
      <trkpt lat="41.8056" lon="9.21499">
        <ele>1536.5</ele>
        <time>2019-09-09T06:39:03Z</time>
      </trkpt>
      <trkpt lat="41.80552" lon="9.21504">
        <ele>1537.05</ele>
        <time>2019-09-09T06:38:48Z</time>
      </trkpt>
      <trkpt lat="41.80549" lon="9.21506">
        <ele>1537.23</ele>
        <time>2019-09-09T06:38:45Z</time>
      </trkpt>
      <trkpt lat="41.80546" lon="9.21505">
        <ele>1537.87</ele>
        <time>2019-09-09T06:38:37Z</time>
      </trkpt>
      <trkpt lat="41.80539" lon="9.21509">
        <ele>1538.17</ele>
        <time>2019-09-09T06:38:23Z</time>
      </trkpt>
      <trkpt lat="41.80529" lon="9.21508">
        <ele>1538.54</ele>
        <time>2019-09-09T06:38:09Z</time>
      </trkpt>
      <trkpt lat="41.80523" lon="9.21508">
        <ele>1537.27</ele>
        <time>2019-09-09T06:37:57Z</time>
      </trkpt>
      <trkpt lat="41.80513" lon="9.21507">
        <ele>1536.4</ele>
        <time>2019-09-09T06:37:42Z</time>
      </trkpt>
      <trkpt lat="41.80507" lon="9.21505">
        <ele>1536.21</ele>
        <time>2019-09-09T06:37:29Z</time>
      </trkpt>
      <trkpt lat="41.80498" lon="9.21501">
        <ele>1536.3</ele>
        <time>2019-09-09T06:37:14Z</time>
      </trkpt>
      <trkpt lat="41.80492" lon="9.21501">
        <ele>1534.81</ele>
        <time>2019-09-09T06:37:00Z</time>
      </trkpt>
      <trkpt lat="41.80486" lon="9.21499">
        <ele>1532.69</ele>
        <time>2019-09-09T06:36:45Z</time>
      </trkpt>
      <trkpt lat="41.8048" lon="9.21493">
        <ele>1532.45</ele>
        <time>2019-09-09T06:36:31Z</time>
      </trkpt>
      <trkpt lat="41.80477" lon="9.21488">
        <ele>1533.36</ele>
        <time>2019-09-09T06:36:19Z</time>
      </trkpt>
      <trkpt lat="41.80471" lon="9.21486">
        <ele>1532.76</ele>
        <time>2019-09-09T06:36:06Z</time>
      </trkpt>
      <trkpt lat="41.80469" lon="9.21486">
        <ele>1532.74</ele>
        <time>2019-09-09T06:36:03Z</time>
      </trkpt>
      <trkpt lat="41.80462" lon="9.21486">
        <ele>1531.16</ele>
        <time>2019-09-09T06:35:50Z</time>
      </trkpt>
      <trkpt lat="41.8046" lon="9.21481">
        <ele>1529.69</ele>
        <time>2019-09-09T06:35:37Z</time>
      </trkpt>
      <trkpt lat="41.80458" lon="9.21479">
        <ele>1527.4</ele>
        <time>2019-09-09T06:35:20Z</time>
      </trkpt>
      <trkpt lat="41.80457" lon="9.21483">
        <ele>1526.65</ele>
        <time>2019-09-09T06:35:09Z</time>
      </trkpt>
      <trkpt lat="41.80455" lon="9.21485">
        <ele>1525.37</ele>
        <time>2019-09-09T06:34:52Z</time>
      </trkpt>
      <trkpt lat="41.80448" lon="9.21483">
        <ele>1524.07</ele>
        <time>2019-09-09T06:34:39Z</time>
      </trkpt>
      <trkpt lat="41.80441" lon="9.21478">
        <ele>1523.41</ele>
        <time>2019-09-09T06:34:24Z</time>
      </trkpt>
      <trkpt lat="41.8044" lon="9.21474">
        <ele>1523</ele>
        <time>2019-09-09T06:34:19Z</time>
      </trkpt>
      <trkpt lat="41.80438" lon="9.21475">
        <ele>1521.26</ele>
        <time>2019-09-09T06:34:07Z</time>
      </trkpt>
      <trkpt lat="41.80434" lon="9.21472">
        <ele>1520</ele>
        <time>2019-09-09T06:33:53Z</time>
      </trkpt>
      <trkpt lat="41.8043" lon="9.21463">
        <ele>1518.43</ele>
        <time>2019-09-09T06:33:39Z</time>
      </trkpt>
      <trkpt lat="41.80427" lon="9.21457">
        <ele>1516.31</ele>
        <time>2019-09-09T06:33:25Z</time>
      </trkpt>
      <trkpt lat="41.80423" lon="9.21454">
        <ele>1515.97</ele>
        <time>2019-09-09T06:33:11Z</time>
      </trkpt>
      <trkpt lat="41.80419" lon="9.21449">
        <ele>1512.19</ele>
        <time>2019-09-09T06:32:54Z</time>
      </trkpt>
      <trkpt lat="41.80417" lon="9.21448">
        <ele>1510.28</ele>
        <time>2019-09-09T06:32:42Z</time>
      </trkpt>
      <trkpt lat="41.80414" lon="9.21448">
        <ele>1509.52</ele>
        <time>2019-09-09T06:32:27Z</time>
      </trkpt>
      <trkpt lat="41.80411" lon="9.21445">
        <ele>1506.12</ele>
        <time>2019-09-09T06:32:14Z</time>
      </trkpt>
      <trkpt lat="41.80407" lon="9.2144">
        <ele>1505.08</ele>
        <time>2019-09-09T06:32:01Z</time>
      </trkpt>
      <trkpt lat="41.80405" lon="9.21438">
        <ele>1501.81</ele>
        <time>2019-09-09T06:31:47Z</time>
      </trkpt>
      <trkpt lat="41.80401" lon="9.2144">
        <ele>1500.31</ele>
        <time>2019-09-09T06:31:34Z</time>
      </trkpt>
      <trkpt lat="41.80397" lon="9.21443">
        <ele>1498.84</ele>
        <time>2019-09-09T06:31:20Z</time>
      </trkpt>
      <trkpt lat="41.8039" lon="9.21446">
        <ele>1498.03</ele>
        <time>2019-09-09T06:31:06Z</time>
      </trkpt>
      <trkpt lat="41.80388" lon="9.21435">
        <ele>1496.92</ele>
        <time>2019-09-09T06:30:52Z</time>
      </trkpt>
      <trkpt lat="41.80386" lon="9.21428">
        <ele>1495.38</ele>
        <time>2019-09-09T06:30:38Z</time>
      </trkpt>
      <trkpt lat="41.80383" lon="9.21426">
        <ele>1493.21</ele>
        <time>2019-09-09T06:30:25Z</time>
      </trkpt>
      <trkpt lat="41.80377" lon="9.21418">
        <ele>1491.27</ele>
        <time>2019-09-09T06:30:10Z</time>
      </trkpt>
      <trkpt lat="41.8037" lon="9.21416">
        <ele>1489.11</ele>
        <time>2019-09-09T06:29:56Z</time>
      </trkpt>
      <trkpt lat="41.80367" lon="9.21416">
        <ele>1487.4</ele>
        <time>2019-09-09T06:29:43Z</time>
      </trkpt>
      <trkpt lat="41.80362" lon="9.21414">
        <ele>1484.97</ele>
        <time>2019-09-09T06:29:27Z</time>
      </trkpt>
      <trkpt lat="41.80359" lon="9.21412">
        <ele>1482.67</ele>
        <time>2019-09-09T06:29:14Z</time>
      </trkpt>
      <trkpt lat="41.80353" lon="9.2141">
        <ele>1480.18</ele>
        <time>2019-09-09T06:28:59Z</time>
      </trkpt>
      <trkpt lat="41.80349" lon="9.2141">
        <ele>1480.1</ele>
        <time>2019-09-09T06:28:48Z</time>
      </trkpt>
      <trkpt lat="41.80349" lon="9.21402">
        <ele>1477.69</ele>
        <time>2019-09-09T06:28:33Z</time>
      </trkpt>
      <trkpt lat="41.80348" lon="9.21397">
        <ele>1474.41</ele>
        <time>2019-09-09T06:28:18Z</time>
      </trkpt>
      <trkpt lat="41.80343" lon="9.21397">
        <ele>1472.4</ele>
        <time>2019-09-09T06:28:05Z</time>
      </trkpt>
      <trkpt lat="41.80341" lon="9.21397">
        <ele>1470</ele>
        <time>2019-09-09T06:27:52Z</time>
      </trkpt>
      <trkpt lat="41.80338" lon="9.21397">
        <ele>1467.99</ele>
        <time>2019-09-09T06:27:39Z</time>
      </trkpt>
      <trkpt lat="41.80334" lon="9.21398">
        <ele>1467.18</ele>
        <time>2019-09-09T06:27:26Z</time>
      </trkpt>
      <trkpt lat="41.8033" lon="9.21395">
        <ele>1465</ele>
        <time>2019-09-09T06:27:13Z</time>
      </trkpt>
      <trkpt lat="41.80322" lon="9.21391">
        <ele>1464.12</ele>
        <time>2019-09-09T06:26:57Z</time>
      </trkpt>
      <trkpt lat="41.80317" lon="9.21387">
        <ele>1463.13</ele>
        <time>2019-09-09T06:26:44Z</time>
      </trkpt>
      <trkpt lat="41.8032" lon="9.21392">
        <ele>1462.76</ele>
        <time>2019-09-09T06:26:31Z</time>
      </trkpt>
      <trkpt lat="41.80318" lon="9.21399">
        <ele>1461.21</ele>
        <time>2019-09-09T06:26:17Z</time>
      </trkpt>
      <trkpt lat="41.80318" lon="9.21404">
        <ele>1459.89</ele>
        <time>2019-09-09T06:26:04Z</time>
      </trkpt>
      <trkpt lat="41.80317" lon="9.21408">
        <ele>1458.21</ele>
        <time>2019-09-09T06:25:51Z</time>
      </trkpt>
      <trkpt lat="41.80314" lon="9.21414">
        <ele>1456.44</ele>
        <time>2019-09-09T06:25:37Z</time>
      </trkpt>
      <trkpt lat="41.80311" lon="9.21415">
        <ele>1454.98</ele>
        <time>2019-09-09T06:25:24Z</time>
      </trkpt>
      <trkpt lat="41.80308" lon="9.21418">
        <ele>1453.4</ele>
        <time>2019-09-09T06:25:09Z</time>
      </trkpt>
      <trkpt lat="41.80308" lon="9.21423">
        <ele>1452.01</ele>
        <time>2019-09-09T06:24:56Z</time>
      </trkpt>
      <trkpt lat="41.80305" lon="9.21424">
        <ele>1450.74</ele>
        <time>2019-09-09T06:24:41Z</time>
      </trkpt>
      <trkpt lat="41.80308" lon="9.21432">
        <ele>1449.03</ele>
        <time>2019-09-09T06:24:27Z</time>
      </trkpt>
      <trkpt lat="41.80305" lon="9.21435">
        <ele>1447.94</ele>
        <time>2019-09-09T06:24:14Z</time>
      </trkpt>
      <trkpt lat="41.80304" lon="9.2144">
        <ele>1446.29</ele>
        <time>2019-09-09T06:24:01Z</time>
      </trkpt>
      <trkpt lat="41.80304" lon="9.21443">
        <ele>1445.38</ele>
        <time>2019-09-09T06:23:50Z</time>
      </trkpt>
      <trkpt lat="41.803" lon="9.21446">
        <ele>1444.46</ele>
        <time>2019-09-09T06:23:37Z</time>
      </trkpt>
      <trkpt lat="41.80292" lon="9.21447">
        <ele>1441.52</ele>
        <time>2019-09-09T06:23:22Z</time>
      </trkpt>
      <trkpt lat="41.80289" lon="9.21451">
        <ele>1439.08</ele>
        <time>2019-09-09T06:23:07Z</time>
      </trkpt>
      <trkpt lat="41.80285" lon="9.21457">
        <ele>1436.51</ele>
        <time>2019-09-09T06:22:53Z</time>
      </trkpt>
      <trkpt lat="41.80272" lon="9.21458">
        <ele>1434.52</ele>
        <time>2019-09-09T06:22:38Z</time>
      </trkpt>
      <trkpt lat="41.80262" lon="9.21459">
        <ele>1424.79</ele>
        <time>2019-09-09T06:22:24Z</time>
      </trkpt>
      <trkpt lat="41.80255" lon="9.21462">
        <ele>1419.73</ele>
        <time>2019-09-09T06:22:10Z</time>
      </trkpt>
      <trkpt lat="41.80244" lon="9.21466">
        <ele>1418.55</ele>
        <time>2019-09-09T06:21:57Z</time>
      </trkpt>
      <trkpt lat="41.80242" lon="9.21468">
        <ele>1418.94</ele>
        <time>2019-09-09T06:21:53Z</time>
      </trkpt>
      <trkpt lat="41.80241" lon="9.2147">
        <ele>1420.26</ele>
        <time>2019-09-09T06:21:37Z</time>
      </trkpt>
      <trkpt lat="41.80233" lon="9.2147">
        <ele>1420.55</ele>
        <time>2019-09-09T06:21:16Z</time>
      </trkpt>
      <trkpt lat="41.80236" lon="9.21472">
        <ele>1420.42</ele>
        <time>2019-09-09T06:20:53Z</time>
      </trkpt>
      <trkpt lat="41.80238" lon="9.21474">
        <ele>1420.33</ele>
        <time>2019-09-09T06:20:32Z</time>
      </trkpt>
      <trkpt lat="41.80234" lon="9.21475">
        <ele>1420.39</ele>
        <time>2019-09-09T06:20:07Z</time>
      </trkpt>
      <trkpt lat="41.80232" lon="9.21475">
        <ele>1420.63</ele>
        <time>2019-09-09T06:19:38Z</time>
      </trkpt>
      <trkpt lat="41.80232" lon="9.21472">
        <ele>1419.8</ele>
        <time>2019-09-09T06:19:20Z</time>
      </trkpt>
      <trkpt lat="41.80233" lon="9.21471">
        <ele>1419.4</ele>
        <time>2019-09-09T06:18:49Z</time>
      </trkpt>
      <trkpt lat="41.80233" lon="9.21471">
        <ele>1419.32</ele>
        <time>2019-09-09T06:18:24Z</time>
      </trkpt>
      <trkpt lat="41.80231" lon="9.21471">
        <ele>1421.28</ele>
        <time>2019-09-09T06:17:58Z</time>
      </trkpt>
      <trkpt lat="41.80232" lon="9.21473">
        <ele>1420.59</ele>
        <time>2019-09-09T06:17:29Z</time>
      </trkpt>
      <trkpt lat="41.80233" lon="9.21472">
        <ele>1420.33</ele>
        <time>2019-09-09T06:17:07Z</time>
      </trkpt>
      <trkpt lat="41.80234" lon="9.21474">
        <ele>1422.41</ele>
        <time>2019-09-09T06:16:33Z</time>
      </trkpt>
      <trkpt lat="41.80237" lon="9.21474">
        <ele>1425.01</ele>
        <time>2019-09-09T06:15:57Z</time>
      </trkpt>
      <trkpt lat="41.80238" lon="9.21474">
        <ele>1426.03</ele>
        <time>2019-09-09T06:15:30Z</time>
      </trkpt>
      <trkpt lat="41.80242" lon="9.21476">
        <ele>1428.42</ele>
        <time>2019-09-09T06:14:59Z</time>
      </trkpt>
      <trkpt lat="41.80239" lon="9.21483">
        <ele>1430.37</ele>
        <time>2019-09-09T06:14:47Z</time>
      </trkpt>
      <trkpt lat="41.80239" lon="9.21483">
        <ele>1430.6</ele>
        <time>2019-09-09T06:14:46Z</time>
      </trkpt>
      <trkpt lat="41.80236" lon="9.21485">
        <ele>1432.05</ele>
        <time>2019-09-09T06:14:34Z</time>
      </trkpt>
      <trkpt lat="41.80234" lon="9.21489">
        <ele>1435.17</ele>
        <time>2019-09-09T06:14:19Z</time>
      </trkpt>
      <trkpt lat="41.80232" lon="9.21485">
        <ele>1435.72</ele>
        <time>2019-09-09T06:14:08Z</time>
      </trkpt>
      <trkpt lat="41.80236" lon="9.21483">
        <ele>1435.3</ele>
        <time>2019-09-09T06:13:44Z</time>
      </trkpt>
      <trkpt lat="41.8023" lon="9.21486">
        <ele>1436.39</ele>
        <time>2019-09-09T06:13:28Z</time>
      </trkpt>
      <trkpt lat="41.80227" lon="9.21486">
        <ele>1436.55</ele>
        <time>2019-09-09T06:13:10Z</time>
      </trkpt>
      <trkpt lat="41.80228" lon="9.21485">
        <ele>1436.67</ele>
        <time>2019-09-09T06:13:00Z</time>
      </trkpt>
      <trkpt lat="41.80228" lon="9.21488">
        <ele>1438.23</ele>
        <time>2019-09-09T06:12:38Z</time>
      </trkpt>
      <trkpt lat="41.80228" lon="9.21487">
        <ele>1438.72</ele>
        <time>2019-09-09T06:12:20Z</time>
      </trkpt>
      <trkpt lat="41.80227" lon="9.21487">
        <ele>1438.68</ele>
        <time>2019-09-09T06:12:04Z</time>
      </trkpt>
      <trkpt lat="41.80229" lon="9.21491">
        <ele>1439.45</ele>
        <time>2019-09-09T06:11:38Z</time>
      </trkpt>
      <trkpt lat="41.80229" lon="9.21495">
        <ele>1440.63</ele>
        <time>2019-09-09T06:11:16Z</time>
      </trkpt>
      <trkpt lat="41.80229" lon="9.21497">
        <ele>1441.97</ele>
        <time>2019-09-09T06:10:50Z</time>
      </trkpt>
      <trkpt lat="41.80227" lon="9.21498">
        <ele>1441.88</ele>
        <time>2019-09-09T06:10:23Z</time>
      </trkpt>
      <trkpt lat="41.80226" lon="9.21499">
        <ele>1442.89</ele>
        <time>2019-09-09T06:10:04Z</time>
      </trkpt>
      <trkpt lat="41.80223" lon="9.21501">
        <ele>1444.69</ele>
        <time>2019-09-09T06:09:47Z</time>
      </trkpt>
      <trkpt lat="41.80221" lon="9.215">
        <ele>1444.65</ele>
        <time>2019-09-09T06:09:28Z</time>
      </trkpt>
      <trkpt lat="41.8022" lon="9.21501">
        <ele>1445.31</ele>
        <time>2019-09-09T06:09:13Z</time>
      </trkpt>
      <trkpt lat="41.80219" lon="9.21498">
        <ele>1446.24</ele>
        <time>2019-09-09T06:08:46Z</time>
      </trkpt>
      <trkpt lat="41.80219" lon="9.21496">
        <ele>1446.9</ele>
        <time>2019-09-09T06:08:19Z</time>
      </trkpt>
      <trkpt lat="41.80218" lon="9.21499">
        <ele>1448.74</ele>
        <time>2019-09-09T06:07:52Z</time>
      </trkpt>
      <trkpt lat="41.80217" lon="9.21494">
        <ele>1448.69</ele>
        <time>2019-09-09T06:07:40Z</time>
      </trkpt>
      <trkpt lat="41.80216" lon="9.21486">
        <ele>1447.58</ele>
        <time>2019-09-09T06:07:23Z</time>
      </trkpt>
      <trkpt lat="41.80212" lon="9.21488">
        <ele>1445.21</ele>
        <time>2019-09-09T06:07:06Z</time>
      </trkpt>
      <trkpt lat="41.80209" lon="9.21492">
        <ele>1444.21</ele>
        <time>2019-09-09T06:06:47Z</time>
      </trkpt>
      <trkpt lat="41.80207" lon="9.21495">
        <ele>1443.24</ele>
        <time>2019-09-09T06:06:29Z</time>
      </trkpt>
      <trkpt lat="41.80205" lon="9.21498">
        <ele>1441.4</ele>
        <time>2019-09-09T06:06:13Z</time>
      </trkpt>
      <trkpt lat="41.80203" lon="9.21499">
        <ele>1438.97</ele>
        <time>2019-09-09T06:05:58Z</time>
      </trkpt>
      <trkpt lat="41.80202" lon="9.21499">
        <ele>1437.77</ele>
        <time>2019-09-09T06:05:41Z</time>
      </trkpt>
      <trkpt lat="41.80199" lon="9.21499">
        <ele>1437.19</ele>
        <time>2019-09-09T06:05:24Z</time>
      </trkpt>
      <trkpt lat="41.80196" lon="9.21501">
        <ele>1435.19</ele>
        <time>2019-09-09T06:05:10Z</time>
      </trkpt>
      <trkpt lat="41.80193" lon="9.21504">
        <ele>1435.24</ele>
        <time>2019-09-09T06:04:56Z</time>
      </trkpt>
      <trkpt lat="41.80188" lon="9.21505">
        <ele>1433.92</ele>
        <time>2019-09-09T06:04:44Z</time>
      </trkpt>
      <trkpt lat="41.80183" lon="9.21509">
        <ele>1432.99</ele>
        <time>2019-09-09T06:04:29Z</time>
      </trkpt>
      <trkpt lat="41.8018" lon="9.21514">
        <ele>1431.93</ele>
        <time>2019-09-09T06:04:15Z</time>
      </trkpt>
      <trkpt lat="41.80177" lon="9.21517">
        <ele>1430.65</ele>
        <time>2019-09-09T06:04:01Z</time>
      </trkpt>
      <trkpt lat="41.80175" lon="9.21515">
        <ele>1427.47</ele>
        <time>2019-09-09T06:03:51Z</time>
      </trkpt>
      <trkpt lat="41.80169" lon="9.21513">
        <ele>1421.93</ele>
        <time>2019-09-09T06:03:37Z</time>
      </trkpt>
      <trkpt lat="41.80153" lon="9.21513">
        <ele>1417.92</ele>
        <time>2019-09-09T06:03:23Z</time>
      </trkpt>
      <trkpt lat="41.80137" lon="9.21518">
        <ele>1417.98</ele>
        <time>2019-09-09T06:03:09Z</time>
      </trkpt>
      <trkpt lat="41.80131" lon="9.21517">
        <ele>1419.22</ele>
        <time>2019-09-09T06:03:00Z</time>
      </trkpt>
      <trkpt lat="41.80128" lon="9.21516">
        <ele>1419.3</ele>
        <time>2019-09-09T06:02:56Z</time>
      </trkpt>
      <trkpt lat="41.80124" lon="9.21513">
        <ele>1418.28</ele>
        <time>2019-09-09T06:02:40Z</time>
      </trkpt>
      <trkpt lat="41.80113" lon="9.21513">
        <ele>1417.96</ele>
        <time>2019-09-09T06:02:23Z</time>
      </trkpt>
      <trkpt lat="41.80109" lon="9.21516">
        <ele>1415.89</ele>
        <time>2019-09-09T06:02:07Z</time>
      </trkpt>
      <trkpt lat="41.80108" lon="9.21519">
        <ele>1414.4</ele>
        <time>2019-09-09T06:01:51Z</time>
      </trkpt>
      <trkpt lat="41.80108" lon="9.21519">
        <ele>1413.79</ele>
        <time>2019-09-09T06:01:34Z</time>
      </trkpt>
      <trkpt lat="41.8011" lon="9.21524">
        <ele>1412.94</ele>
        <time>2019-09-09T06:01:20Z</time>
      </trkpt>
      <trkpt lat="41.80112" lon="9.21527">
        <ele>1412.1</ele>
        <time>2019-09-09T06:01:03Z</time>
      </trkpt>
      <trkpt lat="41.80115" lon="9.21531">
        <ele>1410.53</ele>
        <time>2019-09-09T06:00:49Z</time>
      </trkpt>
      <trkpt lat="41.80121" lon="9.21541">
        <ele>1409.48</ele>
        <time>2019-09-09T06:00:35Z</time>
      </trkpt>
      <trkpt lat="41.80123" lon="9.2155">
        <ele>1409.76</ele>
        <time>2019-09-09T06:00:29Z</time>
      </trkpt>
      <trkpt lat="41.80124" lon="9.21554">
        <ele>1409.61</ele>
        <time>2019-09-09T06:00:17Z</time>
      </trkpt>
      <trkpt lat="41.80124" lon="9.21557">
        <ele>1409.59</ele>
        <time>2019-09-09T05:59:59Z</time>
      </trkpt>
      <trkpt lat="41.80124" lon="9.21562">
        <ele>1408.39</ele>
        <time>2019-09-09T05:59:47Z</time>
      </trkpt>
      <trkpt lat="41.8012" lon="9.21565">
        <ele>1405.65</ele>
        <time>2019-09-09T05:59:32Z</time>
      </trkpt>
      <trkpt lat="41.80122" lon="9.21569">
        <ele>1404.1</ele>
        <time>2019-09-09T05:59:12Z</time>
      </trkpt>
      <trkpt lat="41.80124" lon="9.21571">
        <ele>1404.01</ele>
        <time>2019-09-09T05:58:56Z</time>
      </trkpt>
      <trkpt lat="41.80125" lon="9.21575">
        <ele>1404.52</ele>
        <time>2019-09-09T05:58:42Z</time>
      </trkpt>
      <trkpt lat="41.80131" lon="9.21577">
        <ele>1403.9</ele>
        <time>2019-09-09T05:58:27Z</time>
      </trkpt>
      <trkpt lat="41.80132" lon="9.21583">
        <ele>1401</ele>
        <time>2019-09-09T05:58:13Z</time>
      </trkpt>
      <trkpt lat="41.80134" lon="9.21586">
        <ele>1398.67</ele>
        <time>2019-09-09T05:58:00Z</time>
      </trkpt>
      <trkpt lat="41.8013" lon="9.21594">
        <ele>1396.9</ele>
        <time>2019-09-09T05:57:47Z</time>
      </trkpt>
      <trkpt lat="41.80127" lon="9.21604">
        <ele>1396.33</ele>
        <time>2019-09-09T05:57:29Z</time>
      </trkpt>
      <trkpt lat="41.80128" lon="9.21607">
        <ele>1396.21</ele>
        <time>2019-09-09T05:57:13Z</time>
      </trkpt>
      <trkpt lat="41.80127" lon="9.21614">
        <ele>1395.97</ele>
        <time>2019-09-09T05:57:00Z</time>
      </trkpt>
      <trkpt lat="41.80126" lon="9.21618">
        <ele>1395.82</ele>
        <time>2019-09-09T05:56:44Z</time>
      </trkpt>
      <trkpt lat="41.80124" lon="9.21621">
        <ele>1395.83</ele>
        <time>2019-09-09T05:56:24Z</time>
      </trkpt>
      <trkpt lat="41.80124" lon="9.21621">
        <ele>1395.64</ele>
        <time>2019-09-09T05:55:57Z</time>
      </trkpt>
      <trkpt lat="41.80125" lon="9.2162">
        <ele>1395.33</ele>
        <time>2019-09-09T05:55:40Z</time>
      </trkpt>
      <trkpt lat="41.80125" lon="9.21618">
        <ele>1394.86</ele>
        <time>2019-09-09T05:55:20Z</time>
      </trkpt>
      <trkpt lat="41.80124" lon="9.21617">
        <ele>1392.97</ele>
        <time>2019-09-09T05:54:52Z</time>
      </trkpt>
      <trkpt lat="41.80123" lon="9.21618">
        <ele>1392.64</ele>
        <time>2019-09-09T05:54:30Z</time>
      </trkpt>
      <trkpt lat="41.80122" lon="9.21617">
        <ele>1391.91</ele>
        <time>2019-09-09T05:54:09Z</time>
      </trkpt>
      <trkpt lat="41.80118" lon="9.21621">
        <ele>1389.41</ele>
        <time>2019-09-09T05:53:56Z</time>
      </trkpt>
      <trkpt lat="41.80108" lon="9.21626">
        <ele>1388.64</ele>
        <time>2019-09-09T05:53:43Z</time>
      </trkpt>
      <trkpt lat="41.80102" lon="9.2163">
        <ele>1387.47</ele>
        <time>2019-09-09T05:53:27Z</time>
      </trkpt>
      <trkpt lat="41.80093" lon="9.21636">
        <ele>1387.36</ele>
        <time>2019-09-09T05:53:14Z</time>
      </trkpt>
      <trkpt lat="41.80084" lon="9.21646">
        <ele>1389.06</ele>
        <time>2019-09-09T05:53:01Z</time>
      </trkpt>
      <trkpt lat="41.80082" lon="9.21648">
        <ele>1390.29</ele>
        <time>2019-09-09T05:52:57Z</time>
      </trkpt>
      <trkpt lat="41.80077" lon="9.2165">
        <ele>1393.54</ele>
        <time>2019-09-09T05:52:43Z</time>
      </trkpt>
      <trkpt lat="41.80072" lon="9.21656">
        <ele>1396.19</ele>
        <time>2019-09-09T05:52:31Z</time>
      </trkpt>
      <trkpt lat="41.80069" lon="9.21664">
        <ele>1399.11</ele>
        <time>2019-09-09T05:52:16Z</time>
      </trkpt>
      <trkpt lat="41.80067" lon="9.21661">
        <ele>1399.75</ele>
        <time>2019-09-09T05:51:56Z</time>
      </trkpt>
      <trkpt lat="41.80068" lon="9.21662">
        <ele>1400.39</ele>
        <time>2019-09-09T05:51:34Z</time>
      </trkpt>
      <trkpt lat="41.80067" lon="9.21669">
        <ele>1400.92</ele>
        <time>2019-09-09T05:51:14Z</time>
      </trkpt>
      <trkpt lat="41.80069" lon="9.21675">
        <ele>1403.75</ele>
        <time>2019-09-09T05:51:01Z</time>
      </trkpt>
      <trkpt lat="41.80065" lon="9.21678">
        <ele>1407.73</ele>
        <time>2019-09-09T05:50:46Z</time>
      </trkpt>
      <trkpt lat="41.80063" lon="9.21683">
        <ele>1410.81</ele>
        <time>2019-09-09T05:50:31Z</time>
      </trkpt>
      <trkpt lat="41.80061" lon="9.21678">
        <ele>1412.83</ele>
        <time>2019-09-09T05:50:15Z</time>
      </trkpt>
      <trkpt lat="41.80059" lon="9.21672">
        <ele>1414.75</ele>
        <time>2019-09-09T05:49:58Z</time>
      </trkpt>
      <trkpt lat="41.80055" lon="9.21668">
        <ele>1417.89</ele>
        <time>2019-09-09T05:49:41Z</time>
      </trkpt>
      <trkpt lat="41.80054" lon="9.21664">
        <ele>1421.28</ele>
        <time>2019-09-09T05:49:28Z</time>
      </trkpt>
      <trkpt lat="41.80055" lon="9.21664">
        <ele>1424.74</ele>
        <time>2019-09-09T05:49:15Z</time>
      </trkpt>
      <trkpt lat="41.80055" lon="9.21664">
        <ele>1425.15</ele>
        <time>2019-09-09T05:49:14Z</time>
      </trkpt>
      <trkpt lat="41.80055" lon="9.21668">
        <ele>1426.69</ele>
        <time>2019-09-09T05:48:50Z</time>
      </trkpt>
      <trkpt lat="41.80051" lon="9.21669">
        <ele>1427.02</ele>
        <time>2019-09-09T05:48:36Z</time>
      </trkpt>
      <trkpt lat="41.80048" lon="9.21667">
        <ele>1426.88</ele>
        <time>2019-09-09T05:48:16Z</time>
      </trkpt>
      <trkpt lat="41.80046" lon="9.21665">
        <ele>1426.94</ele>
        <time>2019-09-09T05:47:58Z</time>
      </trkpt>
      <trkpt lat="41.80043" lon="9.21667">
        <ele>1429.85</ele>
        <time>2019-09-09T05:47:44Z</time>
      </trkpt>
      <trkpt lat="41.80043" lon="9.21672">
        <ele>1432.37</ele>
        <time>2019-09-09T05:47:30Z</time>
      </trkpt>
      <trkpt lat="41.80042" lon="9.2168">
        <ele>1433.49</ele>
        <time>2019-09-09T05:47:14Z</time>
      </trkpt>
      <trkpt lat="41.80041" lon="9.21688">
        <ele>1435.07</ele>
        <time>2019-09-09T05:46:57Z</time>
      </trkpt>
      <trkpt lat="41.8004" lon="9.21695">
        <ele>1437.21</ele>
        <time>2019-09-09T05:46:44Z</time>
      </trkpt>
      <trkpt lat="41.80041" lon="9.21705">
        <ele>1440.13</ele>
        <time>2019-09-09T05:46:28Z</time>
      </trkpt>
      <trkpt lat="41.8004" lon="9.21714">
        <ele>1441.34</ele>
        <time>2019-09-09T05:46:13Z</time>
      </trkpt>
      <trkpt lat="41.80039" lon="9.21723">
        <ele>1442.28</ele>
        <time>2019-09-09T05:46:02Z</time>
      </trkpt>
      <trkpt lat="41.80041" lon="9.2173">
        <ele>1443.32</ele>
        <time>2019-09-09T05:45:48Z</time>
      </trkpt>
      <trkpt lat="41.80041" lon="9.21731">
        <ele>1443.46</ele>
        <time>2019-09-09T05:45:47Z</time>
      </trkpt>
      <trkpt lat="41.80041" lon="9.21746">
        <ele>1445.77</ele>
        <time>2019-09-09T05:45:30Z</time>
      </trkpt>
      <trkpt lat="41.8004" lon="9.21754">
        <ele>1445.42</ele>
        <time>2019-09-09T05:45:08Z</time>
      </trkpt>
      <trkpt lat="41.80038" lon="9.21752">
        <ele>1445.55</ele>
        <time>2019-09-09T05:44:49Z</time>
      </trkpt>
      <trkpt lat="41.80035" lon="9.21751">
        <ele>1447.47</ele>
        <time>2019-09-09T05:44:32Z</time>
      </trkpt>
      <trkpt lat="41.80032" lon="9.21748">
        <ele>1449.63</ele>
        <time>2019-09-09T05:44:15Z</time>
      </trkpt>
      <trkpt lat="41.80032" lon="9.21749">
        <ele>1450.1</ele>
        <time>2019-09-09T05:43:57Z</time>
      </trkpt>
      <trkpt lat="41.80033" lon="9.2175">
        <ele>1449.77</ele>
        <time>2019-09-09T05:43:21Z</time>
      </trkpt>
      <trkpt lat="41.80033" lon="9.21752">
        <ele>1449.08</ele>
        <time>2019-09-09T05:42:49Z</time>
      </trkpt>
      <trkpt lat="41.80033" lon="9.21752">
        <ele>1448.79</ele>
        <time>2019-09-09T05:42:26Z</time>
      </trkpt>
      <trkpt lat="41.80032" lon="9.21753">
        <ele>1448.6</ele>
        <time>2019-09-09T05:42:07Z</time>
      </trkpt>
      <trkpt lat="41.80031" lon="9.21752">
        <ele>1447.88</ele>
        <time>2019-09-09T05:41:52Z</time>
      </trkpt>
      <trkpt lat="41.80029" lon="9.21753">
        <ele>1446.11</ele>
        <time>2019-09-09T05:41:39Z</time>
      </trkpt>
      <trkpt lat="41.80027" lon="9.21759">
        <ele>1444.22</ele>
        <time>2019-09-09T05:41:23Z</time>
      </trkpt>
      <trkpt lat="41.80025" lon="9.21761">
        <ele>1442.54</ele>
        <time>2019-09-09T05:41:09Z</time>
      </trkpt>
      <trkpt lat="41.80024" lon="9.21766">
        <ele>1441.08</ele>
        <time>2019-09-09T05:40:50Z</time>
      </trkpt>
      <trkpt lat="41.80017" lon="9.21766">
        <ele>1440.75</ele>
        <time>2019-09-09T05:40:30Z</time>
      </trkpt>
      <trkpt lat="41.80014" lon="9.21769">
        <ele>1440.28</ele>
        <time>2019-09-09T05:40:13Z</time>
      </trkpt>
      <trkpt lat="41.80013" lon="9.21769">
        <ele>1438.89</ele>
        <time>2019-09-09T05:39:46Z</time>
      </trkpt>
      <trkpt lat="41.80015" lon="9.2177">
        <ele>1437.22</ele>
        <time>2019-09-09T05:39:06Z</time>
      </trkpt>
      <trkpt lat="41.80015" lon="9.21771">
        <ele>1435.12</ele>
        <time>2019-09-09T05:38:46Z</time>
      </trkpt>
      <trkpt lat="41.80017" lon="9.21774">
        <ele>1432.84</ele>
        <time>2019-09-09T05:38:27Z</time>
      </trkpt>
      <trkpt lat="41.80015" lon="9.21776">
        <ele>1429.94</ele>
        <time>2019-09-09T05:38:12Z</time>
      </trkpt>
      <trkpt lat="41.80013" lon="9.21778">
        <ele>1427.31</ele>
        <time>2019-09-09T05:37:57Z</time>
      </trkpt>
      <trkpt lat="41.80008" lon="9.21777">
        <ele>1426.22</ele>
        <time>2019-09-09T05:37:44Z</time>
      </trkpt>
      <trkpt lat="41.80005" lon="9.21777">
        <ele>1423.92</ele>
        <time>2019-09-09T05:37:27Z</time>
      </trkpt>
      <trkpt lat="41.80002" lon="9.21784">
        <ele>1423.38</ele>
        <time>2019-09-09T05:37:09Z</time>
      </trkpt>
      <trkpt lat="41.79997" lon="9.21789">
        <ele>1421.87</ele>
        <time>2019-09-09T05:36:48Z</time>
      </trkpt>
      <trkpt lat="41.79998" lon="9.21782">
        <ele>1415.74</ele>
        <time>2019-09-09T05:36:31Z</time>
      </trkpt>
      <trkpt lat="41.79998" lon="9.21779">
        <ele>1411.05</ele>
        <time>2019-09-09T05:36:17Z</time>
      </trkpt>
      <trkpt lat="41.79998" lon="9.21786">
        <ele>1405.37</ele>
        <time>2019-09-09T05:36:00Z</time>
      </trkpt>
      <trkpt lat="41.80001" lon="9.21798">
        <ele>1398.84</ele>
        <time>2019-09-09T05:35:44Z</time>
      </trkpt>
      <trkpt lat="41.80001" lon="9.21796">
        <ele>1397.33</ele>
        <time>2019-09-09T05:35:27Z</time>
      </trkpt>
      <trkpt lat="41.79998" lon="9.21801">
        <ele>1396.91</ele>
        <time>2019-09-09T05:35:10Z</time>
      </trkpt>
      <trkpt lat="41.79993" lon="9.21803">
        <ele>1396.4</ele>
        <time>2019-09-09T05:34:52Z</time>
      </trkpt>
      <trkpt lat="41.7999" lon="9.21802">
        <ele>1396.56</ele>
        <time>2019-09-09T05:34:33Z</time>
      </trkpt>
      <trkpt lat="41.79982" lon="9.21795">
        <ele>1396.4</ele>
        <time>2019-09-09T05:34:13Z</time>
      </trkpt>
      <trkpt lat="41.79981" lon="9.21794">
        <ele>1396.5</ele>
        <time>2019-09-09T05:34:09Z</time>
      </trkpt>
      <trkpt lat="41.79977" lon="9.21794">
        <ele>1394.88</ele>
        <time>2019-09-09T05:33:50Z</time>
      </trkpt>
      <trkpt lat="41.79975" lon="9.218">
        <ele>1390.6</ele>
        <time>2019-09-09T05:33:36Z</time>
      </trkpt>
      <trkpt lat="41.79972" lon="9.21807">
        <ele>1383.87</ele>
        <time>2019-09-09T05:33:21Z</time>
      </trkpt>
      <trkpt lat="41.79973" lon="9.21808">
        <ele>1376.92</ele>
        <time>2019-09-09T05:33:04Z</time>
      </trkpt>
      <trkpt lat="41.79972" lon="9.21802">
        <ele>1367.88</ele>
        <time>2019-09-09T05:32:50Z</time>
      </trkpt>
      <trkpt lat="41.79971" lon="9.21806">
        <ele>1362.25</ele>
        <time>2019-09-09T05:32:35Z</time>
      </trkpt>
      <trkpt lat="41.79968" lon="9.21802">
        <ele>1359.53</ele>
        <time>2019-09-09T05:32:20Z</time>
      </trkpt>
      <trkpt lat="41.79963" lon="9.2181">
        <ele>1357.39</ele>
        <time>2019-09-09T05:31:57Z</time>
      </trkpt>
      <trkpt lat="41.7996" lon="9.21809">
        <ele>1356.6</ele>
        <time>2019-09-09T05:31:32Z</time>
      </trkpt>
      <trkpt lat="41.79955" lon="9.2181">
        <ele>1354.84</ele>
        <time>2019-09-09T05:31:15Z</time>
      </trkpt>
      <trkpt lat="41.79955" lon="9.21814">
        <ele>1349.63</ele>
        <time>2019-09-09T05:31:01Z</time>
      </trkpt>
      <trkpt lat="41.79951" lon="9.21815">
        <ele>1342.43</ele>
        <time>2019-09-09T05:30:47Z</time>
      </trkpt>
      <trkpt lat="41.79948" lon="9.21816">
        <ele>1337.34</ele>
        <time>2019-09-09T05:30:31Z</time>
      </trkpt>
      <trkpt lat="41.79944" lon="9.21812">
        <ele>1329.35</ele>
        <time>2019-09-09T05:30:15Z</time>
      </trkpt>
      <trkpt lat="41.7994" lon="9.21809">
        <ele>1327.59</ele>
        <time>2019-09-09T05:30:01Z</time>
      </trkpt>
      <trkpt lat="41.79937" lon="9.21808">
        <ele>1330.87</ele>
        <time>2019-09-09T05:29:46Z</time>
      </trkpt>
      <trkpt lat="41.79935" lon="9.21805">
        <ele>1332.66</ele>
        <time>2019-09-09T05:29:31Z</time>
      </trkpt>
      <trkpt lat="41.7993" lon="9.21805">
        <ele>1330.89</ele>
        <time>2019-09-09T05:29:15Z</time>
      </trkpt>
      <trkpt lat="41.79929" lon="9.21797">
        <ele>1333.23</ele>
        <time>2019-09-09T05:28:56Z</time>
      </trkpt>
      <trkpt lat="41.79926" lon="9.21792">
        <ele>1331.83</ele>
        <time>2019-09-09T05:28:39Z</time>
      </trkpt>
      <trkpt lat="41.79925" lon="9.21787">
        <ele>1329.79</ele>
        <time>2019-09-09T05:28:23Z</time>
      </trkpt>
      <trkpt lat="41.79922" lon="9.21781">
        <ele>1327.34</ele>
        <time>2019-09-09T05:28:04Z</time>
      </trkpt>
      <trkpt lat="41.79918" lon="9.21782">
        <ele>1330.84</ele>
        <time>2019-09-09T05:27:48Z</time>
      </trkpt>
      <trkpt lat="41.79918" lon="9.21776">
        <ele>1335.8</ele>
        <time>2019-09-09T05:27:28Z</time>
      </trkpt>
      <trkpt lat="41.79912" lon="9.21772">
        <ele>1334.88</ele>
        <time>2019-09-09T05:27:09Z</time>
      </trkpt>
      <trkpt lat="41.79907" lon="9.21775">
        <ele>1333.92</ele>
        <time>2019-09-09T05:26:52Z</time>
      </trkpt>
      <trkpt lat="41.79902" lon="9.21777">
        <ele>1332.85</ele>
        <time>2019-09-09T05:26:36Z</time>
      </trkpt>
      <trkpt lat="41.79897" lon="9.21788">
        <ele>1332.25</ele>
        <time>2019-09-09T05:26:16Z</time>
      </trkpt>
      <trkpt lat="41.79894" lon="9.21796">
        <ele>1331.02</ele>
        <time>2019-09-09T05:25:54Z</time>
      </trkpt>
      <trkpt lat="41.79891" lon="9.21796">
        <ele>1330.21</ele>
        <time>2019-09-09T05:25:43Z</time>
      </trkpt>
      <trkpt lat="41.79884" lon="9.21795">
        <ele>1329.14</ele>
        <time>2019-09-09T05:25:26Z</time>
      </trkpt>
      <trkpt lat="41.79882" lon="9.21794">
        <ele>1328.14</ele>
        <time>2019-09-09T05:25:11Z</time>
      </trkpt>
      <trkpt lat="41.79878" lon="9.21797">
        <ele>1326.68</ele>
        <time>2019-09-09T05:24:56Z</time>
      </trkpt>
      <trkpt lat="41.79876" lon="9.21796">
        <ele>1324.84</ele>
        <time>2019-09-09T05:24:43Z</time>
      </trkpt>
      <trkpt lat="41.79871" lon="9.21798">
        <ele>1320.79</ele>
        <time>2019-09-09T05:24:27Z</time>
      </trkpt>
      <trkpt lat="41.79869" lon="9.21801">
        <ele>1318.04</ele>
        <time>2019-09-09T05:24:15Z</time>
      </trkpt>
      <trkpt lat="41.79864" lon="9.21803">
        <ele>1316.61</ele>
        <time>2019-09-09T05:23:57Z</time>
      </trkpt>
      <trkpt lat="41.79862" lon="9.21805">
        <ele>1316.27</ele>
        <time>2019-09-09T05:23:42Z</time>
      </trkpt>
      <trkpt lat="41.79858" lon="9.2181">
        <ele>1316.22</ele>
        <time>2019-09-09T05:23:24Z</time>
      </trkpt>
      <trkpt lat="41.79855" lon="9.21813">
        <ele>1314.83</ele>
        <time>2019-09-09T05:23:09Z</time>
      </trkpt>
      <trkpt lat="41.79851" lon="9.21816">
        <ele>1312.62</ele>
        <time>2019-09-09T05:22:56Z</time>
      </trkpt>
      <trkpt lat="41.79845" lon="9.21822">
        <ele>1308.86</ele>
        <time>2019-09-09T05:22:42Z</time>
      </trkpt>
      <trkpt lat="41.79838" lon="9.21826">
        <ele>1305.8</ele>
        <time>2019-09-09T05:22:26Z</time>
      </trkpt>
      <trkpt lat="41.7983" lon="9.21832">
        <ele>1303.92</ele>
        <time>2019-09-09T05:22:12Z</time>
      </trkpt>
      <trkpt lat="41.79823" lon="9.21841">
        <ele>1301.62</ele>
        <time>2019-09-09T05:21:59Z</time>
      </trkpt>
      <trkpt lat="41.79817" lon="9.2185">
        <ele>1299.56</ele>
        <time>2019-09-09T05:21:46Z</time>
      </trkpt>
      <trkpt lat="41.79813" lon="9.21853">
        <ele>1295.93</ele>
        <time>2019-09-09T05:21:31Z</time>
      </trkpt>
      <trkpt lat="41.79809" lon="9.21867">
        <ele>1294.66</ele>
        <time>2019-09-09T05:21:16Z</time>
      </trkpt>
      <trkpt lat="41.79803" lon="9.21876">
        <ele>1294.99</ele>
        <time>2019-09-09T05:21:04Z</time>
      </trkpt>
      <trkpt lat="41.798" lon="9.21887">
        <ele>1292.44</ele>
        <time>2019-09-09T05:20:48Z</time>
      </trkpt>
      <trkpt lat="41.79798" lon="9.219">
        <ele>1290.77</ele>
        <time>2019-09-09T05:20:34Z</time>
      </trkpt>
      <trkpt lat="41.79796" lon="9.21911">
        <ele>1288.83</ele>
        <time>2019-09-09T05:20:19Z</time>
      </trkpt>
      <trkpt lat="41.79795" lon="9.21919">
        <ele>1288.47</ele>
        <time>2019-09-09T05:20:06Z</time>
      </trkpt>
      <trkpt lat="41.79793" lon="9.21923">
        <ele>1288.43</ele>
        <time>2019-09-09T05:19:50Z</time>
      </trkpt>
      <trkpt lat="41.79793" lon="9.21923">
        <ele>1288.97</ele>
        <time>2019-09-09T05:19:31Z</time>
      </trkpt>
      <trkpt lat="41.79794" lon="9.21925">
        <ele>1289.82</ele>
        <time>2019-09-09T05:19:13Z</time>
      </trkpt>
      <trkpt lat="41.79794" lon="9.21929">
        <ele>1290.49</ele>
        <time>2019-09-09T05:18:51Z</time>
      </trkpt>
      <trkpt lat="41.79795" lon="9.21937">
        <ele>1291.8</ele>
        <time>2019-09-09T05:18:36Z</time>
      </trkpt>
      <trkpt lat="41.79794" lon="9.21943">
        <ele>1291.22</ele>
        <time>2019-09-09T05:18:22Z</time>
      </trkpt>
      <trkpt lat="41.79793" lon="9.21951">
        <ele>1290.03</ele>
        <time>2019-09-09T05:18:07Z</time>
      </trkpt>
      <trkpt lat="41.7979" lon="9.21953">
        <ele>1289.73</ele>
        <time>2019-09-09T05:17:55Z</time>
      </trkpt>
      <trkpt lat="41.7979" lon="9.21961">
        <ele>1287.73</ele>
        <time>2019-09-09T05:17:41Z</time>
      </trkpt>
      <trkpt lat="41.79792" lon="9.21964">
        <ele>1284.99</ele>
        <time>2019-09-09T05:17:28Z</time>
      </trkpt>
      <trkpt lat="41.79795" lon="9.21965">
        <ele>1282.44</ele>
        <time>2019-09-09T05:17:17Z</time>
      </trkpt>
      <trkpt lat="41.79796" lon="9.21971">
        <ele>1279.36</ele>
        <time>2019-09-09T05:17:02Z</time>
      </trkpt>
      <trkpt lat="41.79792" lon="9.21974">
        <ele>1275.95</ele>
        <time>2019-09-09T05:16:48Z</time>
      </trkpt>
      <trkpt lat="41.79789" lon="9.21973">
        <ele>1272.59</ele>
        <time>2019-09-09T05:16:33Z</time>
      </trkpt>
      <trkpt lat="41.79785" lon="9.21974">
        <ele>1269.3</ele>
        <time>2019-09-09T05:16:17Z</time>
      </trkpt>
      <trkpt lat="41.79784" lon="9.2198">
        <ele>1265.72</ele>
        <time>2019-09-09T05:16:03Z</time>
      </trkpt>
      <trkpt lat="41.79781" lon="9.21979">
        <ele>1261.28</ele>
        <time>2019-09-09T05:15:50Z</time>
      </trkpt>
      <trkpt lat="41.79778" lon="9.21983">
        <ele>1260.04</ele>
        <time>2019-09-09T05:15:35Z</time>
      </trkpt>
      <trkpt lat="41.79776" lon="9.21985">
        <ele>1258.61</ele>
        <time>2019-09-09T05:15:22Z</time>
      </trkpt>
      <trkpt lat="41.79772" lon="9.21983">
        <ele>1257.08</ele>
        <time>2019-09-09T05:15:05Z</time>
      </trkpt>
      <trkpt lat="41.79767" lon="9.21987">
        <ele>1254.45</ele>
        <time>2019-09-09T05:14:51Z</time>
      </trkpt>
      <trkpt lat="41.79765" lon="9.21992">
        <ele>1251.38</ele>
        <time>2019-09-09T05:14:37Z</time>
      </trkpt>
      <trkpt lat="41.79764" lon="9.21996">
        <ele>1249.46</ele>
        <time>2019-09-09T05:14:25Z</time>
      </trkpt>
      <trkpt lat="41.79763" lon="9.21997">
        <ele>1247.83</ele>
        <time>2019-09-09T05:14:12Z</time>
      </trkpt>
      <trkpt lat="41.7976" lon="9.22001">
        <ele>1246.12</ele>
        <time>2019-09-09T05:13:55Z</time>
      </trkpt>
      <trkpt lat="41.79758" lon="9.22002">
        <ele>1244.57</ele>
        <time>2019-09-09T05:13:41Z</time>
      </trkpt>
      <trkpt lat="41.79756" lon="9.22005">
        <ele>1242.71</ele>
        <time>2019-09-09T05:13:27Z</time>
      </trkpt>
      <trkpt lat="41.79753" lon="9.22007">
        <ele>1241.07</ele>
        <time>2019-09-09T05:13:10Z</time>
      </trkpt>
      <trkpt lat="41.79751" lon="9.22011">
        <ele>1239.19</ele>
        <time>2019-09-09T05:12:57Z</time>
      </trkpt>
      <trkpt lat="41.79748" lon="9.22013">
        <ele>1237.51</ele>
        <time>2019-09-09T05:12:43Z</time>
      </trkpt>
      <trkpt lat="41.79744" lon="9.22018">
        <ele>1235.83</ele>
        <time>2019-09-09T05:12:30Z</time>
      </trkpt>
      <trkpt lat="41.79744" lon="9.22021">
        <ele>1234.1</ele>
        <time>2019-09-09T05:12:18Z</time>
      </trkpt>
      <trkpt lat="41.79746" lon="9.22027">
        <ele>1231.11</ele>
        <time>2019-09-09T05:12:04Z</time>
      </trkpt>
      <trkpt lat="41.79745" lon="9.22033">
        <ele>1228.49</ele>
        <time>2019-09-09T05:11:50Z</time>
      </trkpt>
      <trkpt lat="41.79748" lon="9.22046">
        <ele>1226.3</ele>
        <time>2019-09-09T05:11:35Z</time>
      </trkpt>
      <trkpt lat="41.79749" lon="9.22051">
        <ele>1225.97</ele>
        <time>2019-09-09T05:11:19Z</time>
      </trkpt>
      <trkpt lat="41.79748" lon="9.22062">
        <ele>1225.04</ele>
        <time>2019-09-09T05:11:03Z</time>
      </trkpt>
      <trkpt lat="41.79751" lon="9.22071">
        <ele>1222.63</ele>
        <time>2019-09-09T05:10:49Z</time>
      </trkpt>
      <trkpt lat="41.79748" lon="9.22077">
        <ele>1220.98</ele>
        <time>2019-09-09T05:10:34Z</time>
      </trkpt>
      <trkpt lat="41.79745" lon="9.22092">
        <ele>1222.77</ele>
        <time>2019-09-09T05:10:20Z</time>
      </trkpt>
      <trkpt lat="41.79746" lon="9.22104">
        <ele>1221.59</ele>
        <time>2019-09-09T05:10:07Z</time>
      </trkpt>
      <trkpt lat="41.7974" lon="9.22106">
        <ele>1223.49</ele>
        <time>2019-09-09T05:09:52Z</time>
      </trkpt>
      <trkpt lat="41.79738" lon="9.22111">
        <ele>1225.82</ele>
        <time>2019-09-09T05:09:37Z</time>
      </trkpt>
      <trkpt lat="41.79739" lon="9.22122">
        <ele>1228.65</ele>
        <time>2019-09-09T05:09:23Z</time>
      </trkpt>
      <trkpt lat="41.79737" lon="9.22127">
        <ele>1231.86</ele>
        <time>2019-09-09T05:09:10Z</time>
      </trkpt>
      <trkpt lat="41.79735" lon="9.22134">
        <ele>1231.53</ele>
        <time>2019-09-09T05:08:57Z</time>
      </trkpt>
      <trkpt lat="41.79731" lon="9.22138">
        <ele>1229.41</ele>
        <time>2019-09-09T05:08:44Z</time>
      </trkpt>
      <trkpt lat="41.79731" lon="9.22145">
        <ele>1227.96</ele>
        <time>2019-09-09T05:08:31Z</time>
      </trkpt>
      <trkpt lat="41.79727" lon="9.22159">
        <ele>1226.83</ele>
        <time>2019-09-09T05:08:14Z</time>
      </trkpt>
      <trkpt lat="41.79723" lon="9.22172">
        <ele>1227.2</ele>
        <time>2019-09-09T05:07:59Z</time>
      </trkpt>
      <trkpt lat="41.79724" lon="9.22176">
        <ele>1227.69</ele>
        <time>2019-09-09T05:07:54Z</time>
      </trkpt>
      <trkpt lat="41.79723" lon="9.22187">
        <ele>1225.46</ele>
        <time>2019-09-09T05:07:37Z</time>
      </trkpt>
      <trkpt lat="41.79719" lon="9.222">
        <ele>1221.68</ele>
        <time>2019-09-09T05:07:22Z</time>
      </trkpt>
      <trkpt lat="41.79715" lon="9.22224">
        <ele>1220.79</ele>
        <time>2019-09-09T05:07:00Z</time>
      </trkpt>
      <trkpt lat="41.79716" lon="9.22235">
        <ele>1220.1</ele>
        <time>2019-09-09T05:06:45Z</time>
      </trkpt>
      <trkpt lat="41.79709" lon="9.2225">
        <ele>1217.6</ele>
        <time>2019-09-09T05:06:29Z</time>
      </trkpt>
      <trkpt lat="41.79703" lon="9.22273">
        <ele>1215.32</ele>
        <time>2019-09-09T05:06:15Z</time>
      </trkpt>
      <trkpt lat="41.79696" lon="9.22288">
        <ele>1214.75</ele>
        <time>2019-09-09T05:06:02Z</time>
      </trkpt>
      <trkpt lat="41.79687" lon="9.22313">
        <ele>1213.09</ele>
        <time>2019-09-09T05:05:46Z</time>
      </trkpt>
      <trkpt lat="41.79685" lon="9.22325">
        <ele>1212.25</ele>
        <time>2019-09-09T05:05:36Z</time>
      </trkpt>
      <trkpt lat="41.79679" lon="9.22335">
        <ele>1211.4</ele>
        <time>2019-09-09T05:05:25Z</time>
      </trkpt>
      <trkpt lat="41.79671" lon="9.22351">
        <ele>1211.05</ele>
        <time>2019-09-09T05:05:08Z</time>
      </trkpt>
      <trkpt lat="41.7966" lon="9.22363">
        <ele>1209.52</ele>
        <time>2019-09-09T05:04:54Z</time>
      </trkpt>
      <trkpt lat="41.79649" lon="9.22375">
        <ele>1211.44</ele>
        <time>2019-09-09T05:04:40Z</time>
      </trkpt>
      <trkpt lat="41.7963" lon="9.22397">
        <ele>1213.12</ele>
        <time>2019-09-09T05:04:21Z</time>
      </trkpt>
      <trkpt lat="41.79618" lon="9.22419">
        <ele>1214.58</ele>
        <time>2019-09-09T05:04:04Z</time>
      </trkpt>
      <trkpt lat="41.79597" lon="9.22433">
        <ele>1217.66</ele>
        <time>2019-09-09T05:03:45Z</time>
      </trkpt>
      <trkpt lat="41.7959" lon="9.2244">
        <ele>1218.95</ele>
        <time>2019-09-09T05:03:36Z</time>
      </trkpt>
      <trkpt lat="41.79592" lon="9.22452">
        <ele>1219.63</ele>
        <time>2019-09-09T05:03:23Z</time>
      </trkpt>
      <trkpt lat="41.79593" lon="9.22474">
        <ele>1220.33</ele>
        <time>2019-09-09T05:03:04Z</time>
      </trkpt>
      <trkpt lat="41.79593" lon="9.22494">
        <ele>1219.74</ele>
        <time>2019-09-09T05:02:51Z</time>
      </trkpt>
      <trkpt lat="41.79589" lon="9.22499">
        <ele>1218.85</ele>
        <time>2019-09-09T05:02:40Z</time>
      </trkpt>
      <trkpt lat="41.79591" lon="9.22537">
        <ele>1215.37</ele>
        <time>2019-09-09T05:02:17Z</time>
      </trkpt>
      <trkpt lat="41.7959" lon="9.22543">
        <ele>1215.46</ele>
        <time>2019-09-09T05:02:13Z</time>
      </trkpt>
      <trkpt lat="41.7959" lon="9.22549">
        <ele>1215.04</ele>
        <time>2019-09-09T05:02:09Z</time>
      </trkpt>
      <trkpt lat="41.79592" lon="9.22562">
        <ele>1214.11</ele>
        <time>2019-09-09T05:02:00Z</time>
      </trkpt>
      <trkpt lat="41.79591" lon="9.22572">
        <ele>1213.47</ele>
        <time>2019-09-09T05:01:53Z</time>
      </trkpt>
      <trkpt lat="41.79589" lon="9.22583">
        <ele>1212.35</ele>
        <time>2019-09-09T05:01:46Z</time>
      </trkpt>
      <trkpt lat="41.79589" lon="9.22611">
        <ele>1211.11</ele>
        <time>2019-09-09T05:01:28Z</time>
      </trkpt>
      <trkpt lat="41.79589" lon="9.22635">
        <ele>1210.62</ele>
        <time>2019-09-09T05:01:14Z</time>
      </trkpt>
      <trkpt lat="41.79586" lon="9.22662">
        <ele>1205.61</ele>
        <time>2019-09-09T05:00:57Z</time>
      </trkpt>
      <trkpt lat="41.79583" lon="9.22668">
        <ele>1203.94</ele>
        <time>2019-09-09T05:00:52Z</time>
      </trkpt>
      <trkpt lat="41.79577" lon="9.22684">
        <ele>1201.72</ele>
        <time>2019-09-09T05:00:35Z</time>
      </trkpt>
      <trkpt lat="41.79574" lon="9.22695">
        <ele>1200.49</ele>
        <time>2019-09-09T05:00:19Z</time>
      </trkpt>
      <trkpt lat="41.79566" lon="9.22711">
        <ele>1201.28</ele>
        <time>2019-09-09T05:00:03Z</time>
      </trkpt>
      <trkpt lat="41.79554" lon="9.22734">
        <ele>1203.63</ele>
        <time>2019-09-09T04:59:46Z</time>
      </trkpt>
      <trkpt lat="41.79547" lon="9.22745">
        <ele>1201.11</ele>
        <time>2019-09-09T04:59:28Z</time>
      </trkpt>
      <trkpt lat="41.79542" lon="9.22753">
        <ele>1199.96</ele>
        <time>2019-09-09T04:59:13Z</time>
      </trkpt>
      <trkpt lat="41.79538" lon="9.22754">
        <ele>1196.64</ele>
        <time>2019-09-09T04:58:54Z</time>
      </trkpt>
      <trkpt lat="41.79532" lon="9.22771">
        <ele>1196.97</ele>
        <time>2019-09-09T04:58:40Z</time>
      </trkpt>
      <trkpt lat="41.79522" lon="9.22789">
        <ele>1197.96</ele>
        <time>2019-09-09T04:58:24Z</time>
      </trkpt>
      <trkpt lat="41.79519" lon="9.22804">
        <ele>1199.16</ele>
        <time>2019-09-09T04:58:14Z</time>
      </trkpt>
      <trkpt lat="41.79519" lon="9.22815">
        <ele>1198.85</ele>
        <time>2019-09-09T04:58:07Z</time>
      </trkpt>
      <trkpt lat="41.7952" lon="9.22838">
        <ele>1198.73</ele>
        <time>2019-09-09T04:57:53Z</time>
      </trkpt>
      <trkpt lat="41.79507" lon="9.22856">
        <ele>1197.69</ele>
        <time>2019-09-09T04:57:36Z</time>
      </trkpt>
      <trkpt lat="41.79488" lon="9.22883">
        <ele>1195.02</ele>
        <time>2019-09-09T04:57:14Z</time>
      </trkpt>
      <trkpt lat="41.79475" lon="9.22888">
        <ele>1192.92</ele>
        <time>2019-09-09T04:57:05Z</time>
      </trkpt>
      <trkpt lat="41.7947" lon="9.22904">
        <ele>1192.01</ele>
        <time>2019-09-09T04:56:51Z</time>
      </trkpt>
      <trkpt lat="41.7947" lon="9.22917">
        <ele>1191.28</ele>
        <time>2019-09-09T04:56:42Z</time>
      </trkpt>
      <trkpt lat="41.79469" lon="9.22919">
        <ele>1191.11</ele>
        <time>2019-09-09T04:56:40Z</time>
      </trkpt>
      <trkpt lat="41.79469" lon="9.22922">
        <ele>1191.16</ele>
        <time>2019-09-09T04:56:38Z</time>
      </trkpt>
      <trkpt lat="41.79469" lon="9.2293">
        <ele>1191.69</ele>
        <time>2019-09-09T04:56:33Z</time>
      </trkpt>
      <trkpt lat="41.7947" lon="9.22935">
        <ele>1192.51</ele>
        <time>2019-09-09T04:56:18Z</time>
      </trkpt>
      <trkpt lat="41.79475" lon="9.22932">
        <ele>1197.48</ele>
        <time>2019-09-09T04:55:46Z</time>
      </trkpt>
      <trkpt lat="41.79485" lon="9.22933">
        <ele>1198.23</ele>
        <time>2019-09-09T04:55:32Z</time>
      </trkpt>
      <trkpt lat="41.79489" lon="9.22927">
        <ele>1196.9</ele>
        <time>2019-09-09T04:55:27Z</time>
      </trkpt>
      <trkpt lat="41.79488" lon="9.22924">
        <ele>1195.44</ele>
        <time>2019-09-09T04:55:04Z</time>
      </trkpt>
      <trkpt lat="41.79488" lon="9.22923">
        <ele>1195.5</ele>
        <time>2019-09-09T04:54:41Z</time>
      </trkpt>
      <trkpt lat="41.79488" lon="9.22924">
        <ele>1198.51</ele>
        <time>2019-09-09T04:54:17Z</time>
      </trkpt>
      <trkpt lat="41.79497" lon="9.22936">
        <ele>1204.3</ele>
        <time>2019-09-09T04:53:48Z</time>
      </trkpt>
      <trkpt lat="41.79497" lon="9.22936">
        <ele>1204.3</ele>
        <time>2019-09-09T04:53:48Z</time>
      </trkpt>
    </trkseg>
  </trk>
</gpx>